<?xml version='1.0' encoding='UTF-8'?><gpx version="1.1" creator="JPX - https://github.com/jenetics/jpx" xmlns="http://www.topografix.com/GPX/1/1"><trk><trkseg><trkpt lat="43.5388684" lon="12.2429634"><ele>415.00000000000006</ele><time>2026-04-11T07:47:09.604Z</time></trkpt><trkpt lat="43.5388139" lon="12.2428924"><ele>415.0</ele><time>2026-04-11T07:47:12.603Z</time></trkpt><trkpt lat="43.538833" lon="12.2427892"><ele>415.0</ele><time>2026-04-11T07:47:14.604Z</time></trkpt><trkpt lat="43.5388954" lon="12.242734"><ele>415.0</ele><time>2026-04-11T07:47:17.604Z</time></trkpt><trkpt lat="43.5389447" lon="12.2428384"><ele>415.00000000000006</ele><time>2026-04-11T07:47:19.603Z</time></trkpt><trkpt lat="43.5389897" lon="12.2429627"><ele>415.0</ele><time>2026-04-11T07:47:21.604Z</time></trkpt><trkpt lat="43.5390269" lon="12.2430516"><ele>412.8</ele><time>2026-04-11T07:47:22.603Z</time></trkpt><trkpt lat="43.5390688" lon="12.2431563"><ele>410.6</ele><time>2026-04-11T07:47:23.603Z</time></trkpt><trkpt lat="43.539107" lon="12.2432778"><ele>408.4</ele><time>2026-04-11T07:47:24.604Z</time></trkpt><trkpt lat="43.5391531" lon="12.2434236"><ele>406.2</ele><time>2026-04-11T07:47:25.604Z</time></trkpt><trkpt lat="43.5391989" lon="12.2435501"><ele>404.0</ele><time>2026-04-11T07:47:26.604Z</time></trkpt><trkpt lat="43.5392421" lon="12.2436811"><ele>404.0</ele><time>2026-04-11T07:47:27.604Z</time></trkpt><trkpt lat="43.5392849" lon="12.2438276"><ele>404.0</ele><time>2026-04-11T07:47:28.603Z</time></trkpt><trkpt lat="43.5393356" lon="12.2439728"><ele>404.0</ele><time>2026-04-11T07:47:29.603Z</time></trkpt><trkpt lat="43.5393902" lon="12.2441317"><ele>404.0</ele><time>2026-04-11T07:47:30.604Z</time></trkpt><trkpt lat="43.5394517" lon="12.2442925"><ele>402.25</ele><time>2026-04-11T07:47:31.603Z</time></trkpt><trkpt lat="43.5395177" lon="12.2444479"><ele>400.5</ele><time>2026-04-11T07:47:32.604Z</time></trkpt><trkpt lat="43.5395938" lon="12.2445999"><ele>398.75</ele><time>2026-04-11T07:47:33.603Z</time></trkpt><trkpt lat="43.5396823" lon="12.2447455"><ele>397.0</ele><time>2026-04-11T07:47:34.604Z</time></trkpt><trkpt lat="43.539759" lon="12.2448824"><ele>401.0</ele><time>2026-04-11T07:47:35.604Z</time></trkpt><trkpt lat="43.5398543" lon="12.2450048"><ele>405.0</ele><time>2026-04-11T07:47:36.604Z</time></trkpt><trkpt lat="43.5399516" lon="12.2451302"><ele>409.0</ele><time>2026-04-11T07:47:37.604Z</time></trkpt><trkpt lat="43.5400421" lon="12.2452688"><ele>413.0</ele><time>2026-04-11T07:47:38.603Z</time></trkpt><trkpt lat="43.5401371" lon="12.2454025"><ele>413.0</ele><time>2026-04-11T07:47:39.604Z</time></trkpt><trkpt lat="43.5402295" lon="12.2455397"><ele>413.0</ele><time>2026-04-11T07:47:40.604Z</time></trkpt><trkpt lat="43.5403218" lon="12.2456758"><ele>413.0</ele><time>2026-04-11T07:47:41.603Z</time></trkpt><trkpt lat="43.5403972" lon="12.2458478"><ele>413.0</ele><time>2026-04-11T07:47:42.604Z</time></trkpt><trkpt lat="43.5404409" lon="12.2460523"><ele>412.5</ele><time>2026-04-11T07:47:43.604Z</time></trkpt><trkpt lat="43.5405251" lon="12.2462204"><ele>412.0</ele><time>2026-04-11T07:47:44.603Z</time></trkpt><trkpt lat="43.5405973" lon="12.2463823"><ele>411.5</ele><time>2026-04-11T07:47:45.603Z</time></trkpt><trkpt lat="43.5406725" lon="12.246544"><ele>411.0</ele><time>2026-04-11T07:47:46.603Z</time></trkpt><trkpt lat="43.5407505" lon="12.2467172"><ele>411.0</ele><time>2026-04-11T07:47:47.604Z</time></trkpt><trkpt lat="43.5408259" lon="12.2468809"><ele>411.0</ele><time>2026-04-11T07:47:48.603Z</time></trkpt><trkpt lat="43.5409024" lon="12.2470468"><ele>411.0</ele><time>2026-04-11T07:47:49.604Z</time></trkpt><trkpt lat="43.5409767" lon="12.247213"><ele>411.0</ele><time>2026-04-11T07:47:50.603Z</time></trkpt><trkpt lat="43.5410513" lon="12.2473786"><ele>408.75</ele><time>2026-04-11T07:47:51.604Z</time></trkpt><trkpt lat="43.5411306" lon="12.2475476"><ele>406.5</ele><time>2026-04-11T07:47:52.604Z</time></trkpt><trkpt lat="43.5412068" lon="12.2477159"><ele>404.25</ele><time>2026-04-11T07:47:53.603Z</time></trkpt><trkpt lat="43.5412876" lon="12.2478807"><ele>402.0</ele><time>2026-04-11T07:47:54.604Z</time></trkpt><trkpt lat="43.5413676" lon="12.2480416"><ele>404.25</ele><time>2026-04-11T07:47:55.604Z</time></trkpt><trkpt lat="43.5414523" lon="12.2481982"><ele>406.5</ele><time>2026-04-11T07:47:56.603Z</time></trkpt><trkpt lat="43.5415293" lon="12.2483342"><ele>408.75</ele><time>2026-04-11T07:47:57.603Z</time></trkpt><trkpt lat="43.5415979" lon="12.2484594"><ele>411.0</ele><time>2026-04-11T07:47:58.604Z</time></trkpt><trkpt lat="43.5416626" lon="12.2485718"><ele>411.0</ele><time>2026-04-11T07:47:59.604Z</time></trkpt><trkpt lat="43.541714" lon="12.2486696"><ele>411.0</ele><time>2026-04-11T07:48:00.604Z</time></trkpt><trkpt lat="43.5417574" lon="12.2487486"><ele>411.0</ele><time>2026-04-11T07:48:01.603Z</time></trkpt><trkpt lat="43.5418001" lon="12.2488172"><ele>411.0</ele><time>2026-04-11T07:48:02.604Z</time></trkpt><trkpt lat="43.541852" lon="12.2488708"><ele>411.0</ele><time>2026-04-11T07:48:03.604Z</time></trkpt><trkpt lat="43.5419104" lon="12.2489088"><ele>411.0</ele><time>2026-04-11T07:48:04.604Z</time></trkpt><trkpt lat="43.542032" lon="12.248953"><ele>411.1666666666667</ele><time>2026-04-11T07:48:06.603Z</time></trkpt><trkpt lat="43.5421508" lon="12.2489945"><ele>411.33333333333337</ele><time>2026-04-11T07:48:08.603Z</time></trkpt><trkpt lat="43.5422163" lon="12.249025"><ele>411.5</ele><time>2026-04-11T07:48:09.604Z</time></trkpt><trkpt lat="43.542281" lon="12.2490538"><ele>411.6666666666667</ele><time>2026-04-11T07:48:10.604Z</time></trkpt><trkpt lat="43.5423508" lon="12.2490829"><ele>411.83333333333337</ele><time>2026-04-11T07:48:11.603Z</time></trkpt><trkpt lat="43.5424266" lon="12.2491323"><ele>412.0</ele><time>2026-04-11T07:48:12.603Z</time></trkpt><trkpt lat="43.5424994" lon="12.2491693"><ele>412.00000000000006</ele><time>2026-04-11T07:48:13.603Z</time></trkpt><trkpt lat="43.5425768" lon="12.2492059"><ele>412.0</ele><time>2026-04-11T07:48:14.604Z</time></trkpt><trkpt lat="43.5426592" lon="12.2492428"><ele>412.0</ele><time>2026-04-11T07:48:15.603Z</time></trkpt><trkpt lat="43.5427428" lon="12.2492803"><ele>412.0</ele><time>2026-04-11T07:48:16.604Z</time></trkpt><trkpt lat="43.5428282" lon="12.2493179"><ele>412.00000000000006</ele><time>2026-04-11T07:48:17.604Z</time></trkpt><trkpt lat="43.5429221" lon="12.2493528"><ele>412.0</ele><time>2026-04-11T07:48:18.602Z</time></trkpt><trkpt lat="43.5430139" lon="12.2493864"><ele>415.6</ele><time>2026-04-11T07:48:19.604Z</time></trkpt><trkpt lat="43.54311" lon="12.2494191"><ele>419.20000000000005</ele><time>2026-04-11T07:48:20.603Z</time></trkpt><trkpt lat="43.5432123" lon="12.2494512"><ele>422.8</ele><time>2026-04-11T07:48:21.603Z</time></trkpt><trkpt lat="43.5433101" lon="12.2494834"><ele>426.4</ele><time>2026-04-11T07:48:22.604Z</time></trkpt><trkpt lat="43.5434161" lon="12.2495063"><ele>430.0</ele><time>2026-04-11T07:48:23.603Z</time></trkpt><trkpt lat="43.5435259" lon="12.2495099"><ele>430.0</ele><time>2026-04-11T07:48:24.603Z</time></trkpt><trkpt lat="43.5436364" lon="12.249517"><ele>430.0</ele><time>2026-04-11T07:48:25.603Z</time></trkpt><trkpt lat="43.5437445" lon="12.249518"><ele>430.0</ele><time>2026-04-11T07:48:26.604Z</time></trkpt><trkpt lat="43.5438625" lon="12.2495183"><ele>430.0</ele><time>2026-04-11T07:48:27.604Z</time></trkpt><trkpt lat="43.5439789" lon="12.2495235"><ele>434.25</ele><time>2026-04-11T07:48:28.604Z</time></trkpt><trkpt lat="43.544097" lon="12.2495376"><ele>438.5</ele><time>2026-04-11T07:48:29.604Z</time></trkpt><trkpt lat="43.544214" lon="12.2495615"><ele>442.75</ele><time>2026-04-11T07:48:30.604Z</time></trkpt><trkpt lat="43.5443324" lon="12.2496013"><ele>447.0</ele><time>2026-04-11T07:48:31.604Z</time></trkpt><trkpt lat="43.5444456" lon="12.2496658"><ele>449.25</ele><time>2026-04-11T07:48:32.604Z</time></trkpt><trkpt lat="43.5445664" lon="12.2497377"><ele>451.5</ele><time>2026-04-11T07:48:33.604Z</time></trkpt><trkpt lat="43.544679" lon="12.2498215"><ele>453.75</ele><time>2026-04-11T07:48:34.604Z</time></trkpt><trkpt lat="43.5447988" lon="12.2499031"><ele>456.0</ele><time>2026-04-11T07:48:35.603Z</time></trkpt><trkpt lat="43.544913" lon="12.2499791"><ele>449.25</ele><time>2026-04-11T07:48:36.604Z</time></trkpt><trkpt lat="43.545028" lon="12.2500454"><ele>442.5</ele><time>2026-04-11T07:48:37.603Z</time></trkpt><trkpt lat="43.5451354" lon="12.2501001"><ele>435.75</ele><time>2026-04-11T07:48:38.604Z</time></trkpt><trkpt lat="43.5452607" lon="12.2501163"><ele>429.0</ele><time>2026-04-11T07:48:39.603Z</time></trkpt><trkpt lat="43.5453748" lon="12.2501267"><ele>432.5</ele><time>2026-04-11T07:48:40.603Z</time></trkpt><trkpt lat="43.5454894" lon="12.2501434"><ele>436.0</ele><time>2026-04-11T07:48:41.604Z</time></trkpt><trkpt lat="43.5456069" lon="12.2501628"><ele>439.5</ele><time>2026-04-11T07:48:42.604Z</time></trkpt><trkpt lat="43.5457262" lon="12.2501676"><ele>443.0</ele><time>2026-04-11T07:48:43.604Z</time></trkpt><trkpt lat="43.5458401" lon="12.2501725"><ele>443.0</ele><time>2026-04-11T07:48:44.604Z</time></trkpt><trkpt lat="43.5459514" lon="12.2501615"><ele>442.99999999999994</ele><time>2026-04-11T07:48:45.604Z</time></trkpt><trkpt lat="43.5460681" lon="12.2501368"><ele>442.99999999999994</ele><time>2026-04-11T07:48:46.603Z</time></trkpt><trkpt lat="43.5461835" lon="12.2501472"><ele>443.0</ele><time>2026-04-11T07:48:47.604Z</time></trkpt><trkpt lat="43.5462813" lon="12.2501559"><ele>443.0</ele><time>2026-04-11T07:48:48.603Z</time></trkpt><trkpt lat="43.5463854" lon="12.2501793"><ele>444.79999999999995</ele><time>2026-04-11T07:48:49.604Z</time></trkpt><trkpt lat="43.5464906" lon="12.2502076"><ele>446.59999999999997</ele><time>2026-04-11T07:48:50.604Z</time></trkpt><trkpt lat="43.5466014" lon="12.2502264"><ele>448.40000000000003</ele><time>2026-04-11T07:48:51.602Z</time></trkpt><trkpt lat="43.5466928" lon="12.2502638"><ele>450.20000000000005</ele><time>2026-04-11T07:48:52.603Z</time></trkpt><trkpt lat="43.5467654" lon="12.2502708"><ele>452.0</ele><time>2026-04-11T07:48:53.603Z</time></trkpt><trkpt lat="43.546843" lon="12.2502713"><ele>452.0</ele><time>2026-04-11T07:48:54.604Z</time></trkpt><trkpt lat="43.5469458" lon="12.2502949"><ele>452.00000000000006</ele><time>2026-04-11T07:48:56.604Z</time></trkpt><trkpt lat="43.5470728" lon="12.2503408"><ele>452.00000000000006</ele><time>2026-04-11T07:48:58.603Z</time></trkpt><trkpt lat="43.5471524" lon="12.2503525"><ele>452.0</ele><time>2026-04-11T07:48:59.603Z</time></trkpt><trkpt lat="43.5472262" lon="12.2503707"><ele>452.0</ele><time>2026-04-11T07:49:00.603Z</time></trkpt><trkpt lat="43.5473595" lon="12.2503575"><ele>453.25</ele><time>2026-04-11T07:49:01.603Z</time></trkpt><trkpt lat="43.5474726" lon="12.2503459"><ele>454.5</ele><time>2026-04-11T07:49:02.604Z</time></trkpt><trkpt lat="43.5475784" lon="12.2503506"><ele>455.75</ele><time>2026-04-11T07:49:03.604Z</time></trkpt><trkpt lat="43.5476996" lon="12.2503704"><ele>457.0</ele><time>2026-04-11T07:49:04.603Z</time></trkpt><trkpt lat="43.5478132" lon="12.2503806"><ele>453.8</ele><time>2026-04-11T07:49:05.604Z</time></trkpt><trkpt lat="43.5479151" lon="12.2503805"><ele>450.6</ele><time>2026-04-11T07:49:06.604Z</time></trkpt><trkpt lat="43.5480209" lon="12.2503629"><ele>447.40000000000003</ele><time>2026-04-11T07:49:07.604Z</time></trkpt><trkpt lat="43.5481122" lon="12.2503242"><ele>444.20000000000005</ele><time>2026-04-11T07:49:08.603Z</time></trkpt><trkpt lat="43.5482112" lon="12.2502843"><ele>441.0</ele><time>2026-04-11T07:49:09.603Z</time></trkpt><trkpt lat="43.5483029" lon="12.2502289"><ele>441.0</ele><time>2026-04-11T07:49:10.604Z</time></trkpt><trkpt lat="43.5484039" lon="12.2501556"><ele>441.0</ele><time>2026-04-11T07:49:11.604Z</time></trkpt><trkpt lat="43.5485047" lon="12.2500636"><ele>441.0</ele><time>2026-04-11T07:49:12.603Z</time></trkpt><trkpt lat="43.5485927" lon="12.2499626"><ele>441.0</ele><time>2026-04-11T07:49:13.604Z</time></trkpt><trkpt lat="43.5486673" lon="12.2498814"><ele>441.0</ele><time>2026-04-11T07:49:14.604Z</time></trkpt><trkpt lat="43.5487057" lon="12.24978"><ele>442.1666666666667</ele><time>2026-04-11T07:49:15.603Z</time></trkpt><trkpt lat="43.5486866" lon="12.2496844"><ele>443.33333333333337</ele><time>2026-04-11T07:49:16.604Z</time></trkpt><trkpt lat="43.5487097" lon="12.2495779"><ele>444.5</ele><time>2026-04-11T07:49:17.604Z</time></trkpt><trkpt lat="43.548763" lon="12.2495128"><ele>445.6666666666667</ele><time>2026-04-11T07:49:18.603Z</time></trkpt><trkpt lat="43.5488334" lon="12.2494521"><ele>446.83333333333337</ele><time>2026-04-11T07:49:19.604Z</time></trkpt><trkpt lat="43.5488766" lon="12.249518"><ele>448.0</ele><time>2026-04-11T07:49:20.604Z</time></trkpt><trkpt lat="43.5489553" lon="12.2495602"><ele>448.0</ele><time>2026-04-11T07:49:21.603Z</time></trkpt><trkpt lat="43.5490544" lon="12.2496651"><ele>448.0</ele><time>2026-04-11T07:49:23.604Z</time></trkpt><trkpt lat="43.5491737" lon="12.2497149"><ele>448.0</ele><time>2026-04-11T07:49:25.604Z</time></trkpt><trkpt lat="43.5492477" lon="12.2497285"><ele>448.0</ele><time>2026-04-11T07:49:26.603Z</time></trkpt><trkpt lat="43.5493808" lon="12.2496782"><ele>448.0</ele><time>2026-04-11T07:49:27.604Z</time></trkpt><trkpt lat="43.5494755" lon="12.2496845"><ele>447.99999999999994</ele><time>2026-04-11T07:49:28.604Z</time></trkpt><trkpt lat="43.5495755" lon="12.2496681"><ele>447.99999999999994</ele><time>2026-04-11T07:49:29.604Z</time></trkpt><trkpt lat="43.549665" lon="12.2496633"><ele>448.0</ele><time>2026-04-11T07:49:30.604Z</time></trkpt><trkpt lat="43.5497579" lon="12.2496557"><ele>448.0</ele><time>2026-04-11T07:49:31.604Z</time></trkpt><trkpt lat="43.5498632" lon="12.2496644"><ele>452.0</ele><time>2026-04-11T07:49:32.604Z</time></trkpt><trkpt lat="43.5499454" lon="12.2496718"><ele>455.99999999999994</ele><time>2026-04-11T07:49:33.603Z</time></trkpt><trkpt lat="43.550041" lon="12.249673"><ele>459.99999999999994</ele><time>2026-04-11T07:49:34.604Z</time></trkpt><trkpt lat="43.5501538" lon="12.2496895"><ele>464.0</ele><time>2026-04-11T07:49:35.603Z</time></trkpt><trkpt lat="43.5502419" lon="12.2497226"><ele>468.0</ele><time>2026-04-11T07:49:36.604Z</time></trkpt><trkpt lat="43.5503414" lon="12.2497579"><ele>466.0</ele><time>2026-04-11T07:49:37.602Z</time></trkpt><trkpt lat="43.5504408" lon="12.2497809"><ele>464.0</ele><time>2026-04-11T07:49:38.603Z</time></trkpt><trkpt lat="43.5505302" lon="12.2498127"><ele>462.0</ele><time>2026-04-11T07:49:39.602Z</time></trkpt><trkpt lat="43.5505953" lon="12.2498341"><ele>460.0</ele><time>2026-04-11T07:49:40.604Z</time></trkpt><trkpt lat="43.5506643" lon="12.2498604"><ele>458.0</ele><time>2026-04-11T07:49:41.603Z</time></trkpt><trkpt lat="43.5507282" lon="12.2498818"><ele>456.0</ele><time>2026-04-11T07:49:43.603Z</time></trkpt><trkpt lat="43.5508265" lon="12.2498999"><ele>456.0</ele><time>2026-04-11T07:49:45.604Z</time></trkpt><trkpt lat="43.5508937" lon="12.2499157"><ele>456.0</ele><time>2026-04-11T07:49:47.603Z</time></trkpt><trkpt lat="43.5509293" lon="12.2498413"><ele>456.0</ele><time>2026-04-11T07:49:51.602Z</time></trkpt><trkpt lat="43.5508579" lon="12.2497626"><ele>456.0</ele><time>2026-04-11T07:49:54.604Z</time></trkpt><trkpt lat="43.5507905" lon="12.2497441"><ele>456.0</ele><time>2026-04-11T07:49:55.603Z</time></trkpt><trkpt lat="43.5506764" lon="12.2496974"><ele>456.0</ele><time>2026-04-11T07:49:57.603Z</time></trkpt><trkpt lat="43.5505967" lon="12.2496751"><ele>458.0</ele><time>2026-04-11T07:49:58.604Z</time></trkpt><trkpt lat="43.5505248" lon="12.2496395"><ele>460.0</ele><time>2026-04-11T07:49:59.604Z</time></trkpt><trkpt lat="43.5504445" lon="12.2495624"><ele>462.0</ele><time>2026-04-11T07:50:01.603Z</time></trkpt><trkpt lat="43.550412" lon="12.2494827"><ele>464.0</ele><time>2026-04-11T07:50:03.604Z</time></trkpt><trkpt lat="43.5503538" lon="12.2493906"><ele>466.0</ele><time>2026-04-11T07:50:05.603Z</time></trkpt><trkpt lat="43.5502972" lon="12.2493293"><ele>468.0</ele><time>2026-04-11T07:50:07.603Z</time></trkpt><trkpt lat="43.5502427" lon="12.2492855"><ele>468.0</ele><time>2026-04-11T07:50:08.604Z</time></trkpt><trkpt lat="43.5501546" lon="12.2492723"><ele>468.0</ele><time>2026-04-11T07:50:09.603Z</time></trkpt><trkpt lat="43.5500737" lon="12.2491913"><ele>468.0</ele><time>2026-04-11T07:50:11.604Z</time></trkpt><trkpt lat="43.5500154" lon="12.2491232"><ele>468.0</ele><time>2026-04-11T07:50:13.604Z</time></trkpt><trkpt lat="43.5499738" lon="12.2490516"><ele>468.0</ele><time>2026-04-11T07:50:15.604Z</time></trkpt><trkpt lat="43.5499653" lon="12.2489352"><ele>468.0</ele><time>2026-04-11T07:50:17.604Z</time></trkpt><trkpt lat="43.5500054" lon="12.2488196"><ele>467.59999999999997</ele><time>2026-04-11T07:50:19.604Z</time></trkpt><trkpt lat="43.5500931" lon="12.2487335"><ele>467.19999999999993</ele><time>2026-04-11T07:50:20.604Z</time></trkpt><trkpt lat="43.5501259" lon="12.2485812"><ele>466.8</ele><time>2026-04-11T07:50:22.604Z</time></trkpt><trkpt lat="43.5502055" lon="12.2486415"><ele>466.4</ele><time>2026-04-11T07:50:24.604Z</time></trkpt><trkpt lat="43.5502606" lon="12.248736"><ele>466.0</ele><time>2026-04-11T07:50:27.604Z</time></trkpt><trkpt lat="43.5503476" lon="12.2488286"><ele>471.83333333333337</ele><time>2026-04-11T07:50:29.603Z</time></trkpt><trkpt lat="43.5504318" lon="12.2488526"><ele>477.6666666666667</ele><time>2026-04-11T07:50:31.604Z</time></trkpt><trkpt lat="43.5504834" lon="12.2487961"><ele>483.5</ele><time>2026-04-11T07:50:33.603Z</time></trkpt><trkpt lat="43.5504951" lon="12.2487003"><ele>489.33333333333337</ele><time>2026-04-11T07:50:34.603Z</time></trkpt><trkpt lat="43.5505395" lon="12.2485895"><ele>495.1666666666667</ele><time>2026-04-11T07:50:37.604Z</time></trkpt><trkpt lat="43.5506122" lon="12.248533"><ele>501.0</ele><time>2026-04-11T07:50:39.604Z</time></trkpt><trkpt lat="43.5507031" lon="12.2484618"><ele>501.0</ele><time>2026-04-11T07:50:41.604Z</time></trkpt><trkpt lat="43.5508054" lon="12.2484504"><ele>501.0</ele><time>2026-04-11T07:50:43.604Z</time></trkpt><trkpt lat="43.5508314" lon="12.2485739"><ele>501.0</ele><time>2026-04-11T07:50:45.603Z</time></trkpt><trkpt lat="43.5508671" lon="12.2486536"><ele>501.0</ele><time>2026-04-11T07:50:47.604Z</time></trkpt><trkpt lat="43.5509571" lon="12.2487042"><ele>501.0</ele><time>2026-04-11T07:50:50.603Z</time></trkpt><trkpt lat="43.5510162" lon="12.2485975"><ele>501.0</ele><time>2026-04-11T07:50:51.604Z</time></trkpt><trkpt lat="43.5511151" lon="12.2485144"><ele>501.0</ele><time>2026-04-11T07:50:53.604Z</time></trkpt><trkpt lat="43.5511897" lon="12.2483942"><ele>501.0</ele><time>2026-04-11T07:50:55.604Z</time></trkpt><trkpt lat="43.5512537" lon="12.2482722"><ele>501.0</ele><time>2026-04-11T07:50:57.604Z</time></trkpt><trkpt lat="43.551281" lon="12.2481933"><ele>501.0</ele><time>2026-04-11T07:50:58.604Z</time></trkpt><trkpt lat="43.5513386" lon="12.248059"><ele>504.0</ele><time>2026-04-11T07:51:00.603Z</time></trkpt><trkpt lat="43.5513906" lon="12.2479657"><ele>507.0</ele><time>2026-04-11T07:51:02.604Z</time></trkpt><trkpt lat="43.5514817" lon="12.2478718"><ele>510.0</ele><time>2026-04-11T07:51:04.604Z</time></trkpt><trkpt lat="43.5515347" lon="12.2478226"><ele>513.0</ele><time>2026-04-11T07:51:05.604Z</time></trkpt><trkpt lat="43.5516194" lon="12.2477112"><ele>516.0</ele><time>2026-04-11T07:51:07.603Z</time></trkpt><trkpt lat="43.551669" lon="12.2476485"><ele>519.0</ele><time>2026-04-11T07:51:08.604Z</time></trkpt><trkpt lat="43.551729" lon="12.2475718"><ele>519.0</ele><time>2026-04-11T07:51:09.603Z</time></trkpt><trkpt lat="43.5517995" lon="12.2474889"><ele>519.0</ele><time>2026-04-11T07:51:10.604Z</time></trkpt><trkpt lat="43.5518662" lon="12.2473993"><ele>519.0</ele><time>2026-04-11T07:51:11.604Z</time></trkpt><trkpt lat="43.5519366" lon="12.2473279"><ele>519.0</ele><time>2026-04-11T07:51:12.603Z</time></trkpt><trkpt lat="43.5519894" lon="12.2472675"><ele>519.0</ele><time>2026-04-11T07:51:13.604Z</time></trkpt><trkpt lat="43.5520374" lon="12.247199"><ele>519.0</ele><time>2026-04-11T07:51:14.604Z</time></trkpt><trkpt lat="43.5520862" lon="12.2471226"><ele>521.1666666666666</ele><time>2026-04-11T07:51:15.603Z</time></trkpt><trkpt lat="43.5521507" lon="12.247041"><ele>523.3333333333334</ele><time>2026-04-11T07:51:16.604Z</time></trkpt><trkpt lat="43.5522181" lon="12.2469911"><ele>525.5</ele><time>2026-04-11T07:51:17.604Z</time></trkpt><trkpt lat="43.5522812" lon="12.2469413"><ele>527.6666666666667</ele><time>2026-04-11T07:51:18.604Z</time></trkpt><trkpt lat="43.5523422" lon="12.2468844"><ele>529.8333333333334</ele><time>2026-04-11T07:51:19.604Z</time></trkpt><trkpt lat="43.5524058" lon="12.2468359"><ele>532.0</ele><time>2026-04-11T07:51:20.604Z</time></trkpt><trkpt lat="43.5525084" lon="12.2467815"><ele>532.0</ele><time>2026-04-11T07:51:21.604Z</time></trkpt><trkpt lat="43.5526174" lon="12.2467058"><ele>532.0</ele><time>2026-04-11T07:51:22.603Z</time></trkpt><trkpt lat="43.5527143" lon="12.2466203"><ele>532.0</ele><time>2026-04-11T07:51:23.604Z</time></trkpt><trkpt lat="43.5528155" lon="12.246544"><ele>532.0</ele><time>2026-04-11T07:51:24.603Z</time></trkpt><trkpt lat="43.5528965" lon="12.246501"><ele>532.0</ele><time>2026-04-11T07:51:25.603Z</time></trkpt><trkpt lat="43.5529888" lon="12.2464754"><ele>533.3333333333334</ele><time>2026-04-11T07:51:26.604Z</time></trkpt><trkpt lat="43.5530659" lon="12.2464481"><ele>534.6666666666667</ele><time>2026-04-11T07:51:27.604Z</time></trkpt><trkpt lat="43.5531453" lon="12.2464222"><ele>536.0</ele><time>2026-04-11T07:51:28.604Z</time></trkpt><trkpt lat="43.5532423" lon="12.2464108"><ele>537.3333333333334</ele><time>2026-04-11T07:51:29.604Z</time></trkpt><trkpt lat="43.5533053" lon="12.2464022"><ele>538.6666666666666</ele><time>2026-04-11T07:51:30.603Z</time></trkpt><trkpt lat="43.5534076" lon="12.2463281"><ele>540.0</ele><time>2026-04-11T07:51:32.604Z</time></trkpt><trkpt lat="43.5534904" lon="12.2461988"><ele>540.0</ele><time>2026-04-11T07:51:34.604Z</time></trkpt><trkpt lat="43.5535859" lon="12.2461168"><ele>540.0</ele><time>2026-04-11T07:51:36.603Z</time></trkpt><trkpt lat="43.5536443" lon="12.2460823"><ele>540.0</ele><time>2026-04-11T07:51:37.604Z</time></trkpt><trkpt lat="43.5537093" lon="12.2460571"><ele>540.0</ele><time>2026-04-11T07:51:38.603Z</time></trkpt><trkpt lat="43.5537714" lon="12.246008"><ele>540.0</ele><time>2026-04-11T07:51:39.604Z</time></trkpt><trkpt lat="43.5538838" lon="12.2459528"><ele>540.0</ele><time>2026-04-11T07:51:41.604Z</time></trkpt><trkpt lat="43.5539445" lon="12.245914"><ele>544.4</ele><time>2026-04-11T07:51:42.603Z</time></trkpt><trkpt lat="43.5540431" lon="12.2459144"><ele>548.8</ele><time>2026-04-11T07:51:44.604Z</time></trkpt><trkpt lat="43.5541582" lon="12.2459269"><ele>553.2</ele><time>2026-04-11T07:51:46.604Z</time></trkpt><trkpt lat="43.5542518" lon="12.2459119"><ele>557.6</ele><time>2026-04-11T07:51:48.604Z</time></trkpt><trkpt lat="43.5543326" lon="12.2458485"><ele>562.0</ele><time>2026-04-11T07:51:51.603Z</time></trkpt><trkpt lat="43.5544238" lon="12.2458685"><ele>562.0</ele><time>2026-04-11T07:51:54.604Z</time></trkpt><trkpt lat="43.5545003" lon="12.2458649"><ele>562.0</ele><time>2026-04-11T07:51:56.603Z</time></trkpt><trkpt lat="43.5545618" lon="12.2458336"><ele>562.0</ele><time>2026-04-11T07:51:58.604Z</time></trkpt><trkpt lat="43.5546215" lon="12.2457863"><ele>562.0</ele><time>2026-04-11T07:52:00.603Z</time></trkpt><trkpt lat="43.554685" lon="12.2457461"><ele>562.0</ele><time>2026-04-11T07:52:02.604Z</time></trkpt><trkpt lat="43.5547597" lon="12.2456332"><ele>562.0</ele><time>2026-04-11T07:52:04.604Z</time></trkpt><trkpt lat="43.5548195" lon="12.2455599"><ele>564.8333333333334</ele><time>2026-04-11T07:52:06.603Z</time></trkpt><trkpt lat="43.5548756" lon="12.245517"><ele>567.6666666666667</ele><time>2026-04-11T07:52:12.603Z</time></trkpt><trkpt lat="43.5549401" lon="12.2455037"><ele>570.5</ele><time>2026-04-11T07:52:14.604Z</time></trkpt><trkpt lat="43.5550304" lon="12.24551"><ele>573.3333333333334</ele><time>2026-04-11T07:52:17.604Z</time></trkpt><trkpt lat="43.5551184" lon="12.245506"><ele>576.1666666666666</ele><time>2026-04-11T07:52:19.604Z</time></trkpt><trkpt lat="43.5552014" lon="12.2454915"><ele>579.0</ele><time>2026-04-11T07:52:21.604Z</time></trkpt><trkpt lat="43.5552699" lon="12.2454791"><ele>579.0</ele><time>2026-04-11T07:52:23.604Z</time></trkpt><trkpt lat="43.5553418" lon="12.2453669"><ele>579.0</ele><time>2026-04-11T07:52:26.604Z</time></trkpt><trkpt lat="43.5554293" lon="12.2452384"><ele>579.0</ele><time>2026-04-11T07:52:28.604Z</time></trkpt><trkpt lat="43.5554835" lon="12.2451681"><ele>579.0</ele><time>2026-04-11T07:52:29.604Z</time></trkpt><trkpt lat="43.5555541" lon="12.2451087"><ele>579.0</ele><time>2026-04-11T07:52:30.603Z</time></trkpt><trkpt lat="43.555638" lon="12.2450488"><ele>580.8333333333334</ele><time>2026-04-11T07:52:31.604Z</time></trkpt><trkpt lat="43.5557159" lon="12.2449902"><ele>582.6666666666666</ele><time>2026-04-11T07:52:32.604Z</time></trkpt><trkpt lat="43.5557824" lon="12.244956"><ele>584.5</ele><time>2026-04-11T07:52:33.604Z</time></trkpt><trkpt lat="43.5558521" lon="12.2449652"><ele>586.3333333333333</ele><time>2026-04-11T07:52:34.603Z</time></trkpt><trkpt lat="43.5559509" lon="12.2449411"><ele>588.1666666666666</ele><time>2026-04-11T07:52:36.603Z</time></trkpt><trkpt lat="43.5560294" lon="12.2448818"><ele>590.0</ele><time>2026-04-11T07:52:39.603Z</time></trkpt><trkpt lat="43.5560924" lon="12.2448129"><ele>588.5</ele><time>2026-04-11T07:52:41.603Z</time></trkpt><trkpt lat="43.5561537" lon="12.244755"><ele>587.0</ele><time>2026-04-11T07:52:43.602Z</time></trkpt><trkpt lat="43.5562388" lon="12.244716"><ele>585.5</ele><time>2026-04-11T07:52:45.604Z</time></trkpt><trkpt lat="43.5563414" lon="12.2446937"><ele>584.0</ele><time>2026-04-11T07:52:47.604Z</time></trkpt><trkpt lat="43.5564111" lon="12.2446841"><ele>582.5</ele><time>2026-04-11T07:52:48.603Z</time></trkpt><trkpt lat="43.5565116" lon="12.244623"><ele>581.0</ele><time>2026-04-11T07:52:50.604Z</time></trkpt><trkpt lat="43.5566303" lon="12.2445766"><ele>581.0</ele><time>2026-04-11T07:52:52.604Z</time></trkpt><trkpt lat="43.556721" lon="12.2445809"><ele>581.0</ele><time>2026-04-11T07:52:54.604Z</time></trkpt><trkpt lat="43.5567944" lon="12.2446255"><ele>581.0</ele><time>2026-04-11T07:52:56.604Z</time></trkpt><trkpt lat="43.5568729" lon="12.2446531"><ele>581.0</ele><time>2026-04-11T07:52:58.603Z</time></trkpt><trkpt lat="43.5569382" lon="12.2446584"><ele>581.0</ele><time>2026-04-11T07:53:00.604Z</time></trkpt><trkpt lat="43.5570025" lon="12.2446356"><ele>581.0</ele><time>2026-04-11T07:53:02.603Z</time></trkpt><trkpt lat="43.5570865" lon="12.2445957"><ele>580.6666666666666</ele><time>2026-04-11T07:53:04.604Z</time></trkpt><trkpt lat="43.5572024" lon="12.2445617"><ele>580.3333333333333</ele><time>2026-04-11T07:53:06.604Z</time></trkpt><trkpt lat="43.5572775" lon="12.2445578"><ele>580.0</ele><time>2026-04-11T07:53:07.604Z</time></trkpt><trkpt lat="43.5573583" lon="12.244535"><ele>579.6666666666666</ele><time>2026-04-11T07:53:08.603Z</time></trkpt><trkpt lat="43.5574258" lon="12.2445123"><ele>579.3333333333334</ele><time>2026-04-11T07:53:09.603Z</time></trkpt><trkpt lat="43.5574909" lon="12.2444954"><ele>579.0</ele><time>2026-04-11T07:53:10.603Z</time></trkpt><trkpt lat="43.5576052" lon="12.2444761"><ele>579.0</ele><time>2026-04-11T07:53:12.602Z</time></trkpt><trkpt lat="43.5576869" lon="12.2444569"><ele>579.0</ele><time>2026-04-11T07:53:14.604Z</time></trkpt><trkpt lat="43.5577671" lon="12.2444517"><ele>579.0</ele><time>2026-04-11T07:53:16.604Z</time></trkpt><trkpt lat="43.5578483" lon="12.2444516"><ele>579.0</ele><time>2026-04-11T07:53:18.603Z</time></trkpt><trkpt lat="43.5579516" lon="12.244485"><ele>579.0</ele><time>2026-04-11T07:53:20.604Z</time></trkpt><trkpt lat="43.5580625" lon="12.2444818"><ele>581.4</ele><time>2026-04-11T07:53:22.604Z</time></trkpt><trkpt lat="43.5581814" lon="12.2444918"><ele>583.8</ele><time>2026-04-11T07:53:24.604Z</time></trkpt><trkpt lat="43.5582629" lon="12.2444691"><ele>586.2</ele><time>2026-04-11T07:53:26.604Z</time></trkpt><trkpt lat="43.5583422" lon="12.2445042"><ele>588.6</ele><time>2026-04-11T07:53:28.603Z</time></trkpt><trkpt lat="43.5584291" lon="12.2444923"><ele>591.0</ele><time>2026-04-11T07:53:31.602Z</time></trkpt><trkpt lat="43.5585302" lon="12.2444917"><ele>591.0</ele><time>2026-04-11T07:53:33.603Z</time></trkpt><trkpt lat="43.5585972" lon="12.2444891"><ele>591.0</ele><time>2026-04-11T07:53:34.604Z</time></trkpt><trkpt lat="43.558707" lon="12.2444831"><ele>591.0</ele><time>2026-04-11T07:53:36.604Z</time></trkpt><trkpt lat="43.5588001" lon="12.2444771"><ele>591.0</ele><time>2026-04-11T07:53:38.604Z</time></trkpt><trkpt lat="43.558889" lon="12.2444298"><ele>591.0</ele><time>2026-04-11T07:53:40.603Z</time></trkpt><trkpt lat="43.5589426" lon="12.2443576"><ele>591.0</ele><time>2026-04-11T07:53:42.604Z</time></trkpt><trkpt lat="43.5589758" lon="12.2442581"><ele>593.6</ele><time>2026-04-11T07:53:44.603Z</time></trkpt><trkpt lat="43.5589968" lon="12.2441484"><ele>596.2</ele><time>2026-04-11T07:53:46.604Z</time></trkpt><trkpt lat="43.5589975" lon="12.2440493"><ele>598.8</ele><time>2026-04-11T07:54:18.604Z</time></trkpt><trkpt lat="43.5590712" lon="12.2439564"><ele>601.4</ele><time>2026-04-11T07:54:20.603Z</time></trkpt><trkpt lat="43.5591623" lon="12.2437808"><ele>604.0</ele><time>2026-04-11T07:54:22.604Z</time></trkpt><trkpt lat="43.5592214" lon="12.2436961"><ele>605.6</ele><time>2026-04-11T07:54:23.603Z</time></trkpt><trkpt lat="43.559284" lon="12.2436357"><ele>607.2</ele><time>2026-04-11T07:54:24.604Z</time></trkpt><trkpt lat="43.5593451" lon="12.2435962"><ele>608.8000000000001</ele><time>2026-04-11T07:54:25.603Z</time></trkpt><trkpt lat="43.5594395" lon="12.2435094"><ele>610.4</ele><time>2026-04-11T07:54:27.604Z</time></trkpt><trkpt lat="43.5595047" lon="12.243389"><ele>612.0</ele><time>2026-04-11T07:54:28.603Z</time></trkpt><trkpt lat="43.5595786" lon="12.2432807"><ele>615.6</ele><time>2026-04-11T07:54:29.604Z</time></trkpt><trkpt lat="43.5596434" lon="12.2433129"><ele>619.2</ele><time>2026-04-11T07:54:30.604Z</time></trkpt><trkpt lat="43.5597367" lon="12.2432779"><ele>622.8</ele><time>2026-04-11T07:54:32.604Z</time></trkpt><trkpt lat="43.5598109" lon="12.2432587"><ele>626.4</ele><time>2026-04-11T07:54:33.604Z</time></trkpt><trkpt lat="43.5599569" lon="12.2431394"><ele>630.0</ele><time>2026-04-11T07:54:35.604Z</time></trkpt><trkpt lat="43.5600233" lon="12.2431082"><ele>631.0</ele><time>2026-04-11T07:54:36.604Z</time></trkpt><trkpt lat="43.5600768" lon="12.2430496"><ele>632.0</ele><time>2026-04-11T07:54:37.603Z</time></trkpt><trkpt lat="43.5601686" lon="12.2430476"><ele>633.0</ele><time>2026-04-11T07:54:38.604Z</time></trkpt><trkpt lat="43.5602308" lon="12.243019"><ele>634.0</ele><time>2026-04-11T07:54:39.603Z</time></trkpt><trkpt lat="43.56032" lon="12.242896"><ele>635.0</ele><time>2026-04-11T07:54:41.604Z</time></trkpt><trkpt lat="43.5603748" lon="12.2427494"><ele>634.9999999999999</ele><time>2026-04-11T07:54:43.602Z</time></trkpt><trkpt lat="43.5603824" lon="12.2426605"><ele>635.0</ele><time>2026-04-11T07:54:44.604Z</time></trkpt><trkpt lat="43.5603902" lon="12.2425735"><ele>635.0</ele><time>2026-04-11T07:54:45.604Z</time></trkpt><trkpt lat="43.560351" lon="12.2424546"><ele>635.0</ele><time>2026-04-11T07:54:47.604Z</time></trkpt><trkpt lat="43.5603183" lon="12.2423803"><ele>635.0</ele><time>2026-04-11T07:54:49.604Z</time></trkpt><trkpt lat="43.5603493" lon="12.2422963"><ele>634.9999999999999</ele><time>2026-04-11T07:54:52.604Z</time></trkpt><trkpt lat="43.560398" lon="12.2422369"><ele>635.0</ele><time>2026-04-11T07:54:55.603Z</time></trkpt><trkpt lat="43.5604556" lon="12.2421613"><ele>636.6</ele><time>2026-04-11T07:54:58.603Z</time></trkpt><trkpt lat="43.560486" lon="12.2420415"><ele>638.2</ele><time>2026-04-11T07:55:00.603Z</time></trkpt><trkpt lat="43.5605045" lon="12.2419559"><ele>639.8</ele><time>2026-04-11T07:55:01.604Z</time></trkpt><trkpt lat="43.560543" lon="12.2418363"><ele>641.4</ele><time>2026-04-11T07:55:03.603Z</time></trkpt><trkpt lat="43.5606212" lon="12.2417176"><ele>643.0</ele><time>2026-04-11T07:55:05.603Z</time></trkpt><trkpt lat="43.5606682" lon="12.2416045"><ele>643.0</ele><time>2026-04-11T07:55:07.604Z</time></trkpt><trkpt lat="43.5606893" lon="12.2415091"><ele>643.0</ele><time>2026-04-11T07:55:09.603Z</time></trkpt><trkpt lat="43.5607524" lon="12.241448"><ele>643.0</ele><time>2026-04-11T07:55:11.603Z</time></trkpt><trkpt lat="43.5608195" lon="12.2413472"><ele>643.0</ele><time>2026-04-11T07:55:13.604Z</time></trkpt><trkpt lat="43.5608916" lon="12.241223"><ele>643.0</ele><time>2026-04-11T07:55:15.604Z</time></trkpt><trkpt lat="43.5609791" lon="12.2411675"><ele>643.0</ele><time>2026-04-11T07:55:17.604Z</time></trkpt><trkpt lat="43.5610312" lon="12.2411007"><ele>643.0</ele><time>2026-04-11T07:55:20.604Z</time></trkpt><trkpt lat="43.561079" lon="12.2409968"><ele>643.0</ele><time>2026-04-11T07:55:22.604Z</time></trkpt><trkpt lat="43.561137" lon="12.2408822"><ele>643.0</ele><time>2026-04-11T07:55:24.603Z</time></trkpt><trkpt lat="43.5611847" lon="12.2407826"><ele>643.0</ele><time>2026-04-11T07:55:26.603Z</time></trkpt><trkpt lat="43.5612214" lon="12.240687"><ele>643.0</ele><time>2026-04-11T07:55:28.602Z</time></trkpt><trkpt lat="43.5612818" lon="12.2405948"><ele>647.6666666666667</ele><time>2026-04-11T07:55:30.602Z</time></trkpt><trkpt lat="43.5613836" lon="12.2405909"><ele>652.3333333333334</ele><time>2026-04-11T07:55:33.603Z</time></trkpt><trkpt lat="43.5614807" lon="12.2405912"><ele>657.0</ele><time>2026-04-11T07:55:35.604Z</time></trkpt><trkpt lat="43.5615607" lon="12.2405848"><ele>661.6666666666666</ele><time>2026-04-11T07:55:37.603Z</time></trkpt><trkpt lat="43.5616266" lon="12.2405797"><ele>666.3333333333333</ele><time>2026-04-11T07:55:41.604Z</time></trkpt><trkpt lat="43.5617169" lon="12.2405078"><ele>671.0</ele><time>2026-04-11T07:55:43.603Z</time></trkpt><trkpt lat="43.5617681" lon="12.2404391"><ele>671.0</ele><time>2026-04-11T07:55:44.604Z</time></trkpt><trkpt lat="43.5618389" lon="12.2403525"><ele>671.0</ele><time>2026-04-11T07:55:46.604Z</time></trkpt><trkpt lat="43.5618708" lon="12.2402188"><ele>671.0</ele><time>2026-04-11T07:55:48.604Z</time></trkpt><trkpt lat="43.5619358" lon="12.2401235"><ele>671.0</ele><time>2026-04-11T07:55:50.603Z</time></trkpt><trkpt lat="43.5620205" lon="12.2400947"><ele>671.0</ele><time>2026-04-11T07:55:53.603Z</time></trkpt><trkpt lat="43.5621041" lon="12.2401298"><ele>673.0</ele><time>2026-04-11T07:55:55.604Z</time></trkpt><trkpt lat="43.5621792" lon="12.2401385"><ele>675.0</ele><time>2026-04-11T07:55:57.602Z</time></trkpt><trkpt lat="43.562261" lon="12.2401457"><ele>677.0</ele><time>2026-04-11T07:56:00.604Z</time></trkpt><trkpt lat="43.5623587" lon="12.240154"><ele>679.0</ele><time>2026-04-11T07:56:03.604Z</time></trkpt><trkpt lat="43.5624198" lon="12.2401328"><ele>681.0</ele><time>2026-04-11T07:56:05.603Z</time></trkpt><trkpt lat="43.5624785" lon="12.2400423"><ele>683.0</ele><time>2026-04-11T07:56:07.604Z</time></trkpt><trkpt lat="43.5625302" lon="12.2399703"><ele>683.0</ele><time>2026-04-11T07:56:08.603Z</time></trkpt><trkpt lat="43.5625737" lon="12.2398553"><ele>683.0</ele><time>2026-04-11T07:56:10.604Z</time></trkpt><trkpt lat="43.5626255" lon="12.2397531"><ele>683.0</ele><time>2026-04-11T07:56:13.604Z</time></trkpt><trkpt lat="43.5626507" lon="12.2396283"><ele>683.0</ele><time>2026-04-11T07:56:15.604Z</time></trkpt><trkpt lat="43.562694" lon="12.2395297"><ele>683.0</ele><time>2026-04-11T07:56:17.604Z</time></trkpt><trkpt lat="43.562749" lon="12.2394466"><ele>683.0</ele><time>2026-04-11T07:56:19.604Z</time></trkpt><trkpt lat="43.5628481" lon="12.2393671"><ele>681.8333333333333</ele><time>2026-04-11T07:56:21.603Z</time></trkpt><trkpt lat="43.5629137" lon="12.2393059"><ele>680.6666666666666</ele><time>2026-04-11T07:56:23.603Z</time></trkpt><trkpt lat="43.5629937" lon="12.2392012"><ele>679.5</ele><time>2026-04-11T07:56:25.603Z</time></trkpt><trkpt lat="43.563026" lon="12.2391257"><ele>678.3333333333334</ele><time>2026-04-11T07:56:26.604Z</time></trkpt><trkpt lat="43.5630955" lon="12.2390427"><ele>677.1666666666667</ele><time>2026-04-11T07:56:28.604Z</time></trkpt><trkpt lat="43.5631634" lon="12.238954"><ele>676.0</ele><time>2026-04-11T07:56:30.604Z</time></trkpt><trkpt lat="43.5632488" lon="12.2388275"><ele>676.0</ele><time>2026-04-11T07:56:32.604Z</time></trkpt><trkpt lat="43.563263" lon="12.2387039"><ele>676.0</ele><time>2026-04-11T07:56:34.602Z</time></trkpt><trkpt lat="43.5632202" lon="12.2386167"><ele>676.0</ele><time>2026-04-11T07:56:35.604Z</time></trkpt><trkpt lat="43.56317" lon="12.2384775"><ele>676.0</ele><time>2026-04-11T07:56:37.602Z</time></trkpt><trkpt lat="43.563171" lon="12.2383273"><ele>676.0</ele><time>2026-04-11T07:56:39.604Z</time></trkpt><trkpt lat="43.5632036" lon="12.2381753"><ele>677.0</ele><time>2026-04-11T07:56:41.604Z</time></trkpt><trkpt lat="43.5632284" lon="12.2380943"><ele>678.0</ele><time>2026-04-11T07:56:42.602Z</time></trkpt><trkpt lat="43.5632435" lon="12.2379868"><ele>679.0</ele><time>2026-04-11T07:56:43.604Z</time></trkpt><trkpt lat="43.5632678" lon="12.2378939"><ele>680.0</ele><time>2026-04-11T07:56:45.604Z</time></trkpt><trkpt lat="43.5632167" lon="12.2377712"><ele>681.0</ele><time>2026-04-11T07:56:48.602Z</time></trkpt><trkpt lat="43.5631681" lon="12.2376809"><ele>682.0</ele><time>2026-04-11T07:56:49.604Z</time></trkpt><trkpt lat="43.5631237" lon="12.2375849"><ele>682.0</ele><time>2026-04-11T07:56:50.604Z</time></trkpt><trkpt lat="43.563045" lon="12.2374321"><ele>682.0</ele><time>2026-04-11T07:56:52.604Z</time></trkpt><trkpt lat="43.5630031" lon="12.237351"><ele>682.0</ele><time>2026-04-11T07:56:53.602Z</time></trkpt><trkpt lat="43.5629643" lon="12.2372603"><ele>682.0</ele><time>2026-04-11T07:56:54.603Z</time></trkpt><trkpt lat="43.5629219" lon="12.2371536"><ele>682.0</ele><time>2026-04-11T07:56:55.603Z</time></trkpt><trkpt lat="43.5628522" lon="12.2371047"><ele>687.0</ele><time>2026-04-11T07:56:56.604Z</time></trkpt><trkpt lat="43.5627823" lon="12.2369994"><ele>692.0</ele><time>2026-04-11T07:56:57.604Z</time></trkpt><trkpt lat="43.5626912" lon="12.2369584"><ele>697.0</ele><time>2026-04-11T07:56:59.604Z</time></trkpt><trkpt lat="43.562634" lon="12.2369021"><ele>702.0</ele><time>2026-04-11T07:57:00.603Z</time></trkpt><trkpt lat="43.5625602" lon="12.2367984"><ele>707.0</ele><time>2026-04-11T07:57:02.604Z</time></trkpt><trkpt lat="43.5624822" lon="12.2366915"><ele>707.0</ele><time>2026-04-11T07:57:04.604Z</time></trkpt><trkpt lat="43.5624148" lon="12.2366765"><ele>707.0</ele><time>2026-04-11T07:57:05.604Z</time></trkpt><trkpt lat="43.5623295" lon="12.2366026"><ele>707.0</ele><time>2026-04-11T07:57:07.603Z</time></trkpt><trkpt lat="43.5622567" lon="12.2365424"><ele>707.0</ele><time>2026-04-11T07:57:09.604Z</time></trkpt><trkpt lat="43.5622591" lon="12.2364247"><ele>707.0</ele><time>2026-04-11T07:57:11.604Z</time></trkpt><trkpt lat="43.5622611" lon="12.2362853"><ele>707.0</ele><time>2026-04-11T07:57:14.603Z</time></trkpt><trkpt lat="43.5622228" lon="12.2361934"><ele>710.6666666666666</ele><time>2026-04-11T07:57:16.604Z</time></trkpt><trkpt lat="43.5622728" lon="12.23612"><ele>714.3333333333333</ele><time>2026-04-11T07:57:19.604Z</time></trkpt><trkpt lat="43.5623438" lon="12.2361157"><ele>718.0</ele><time>2026-04-11T07:57:21.603Z</time></trkpt><trkpt lat="43.5624416" lon="12.236123"><ele>721.6666666666666</ele><time>2026-04-11T07:57:23.604Z</time></trkpt><trkpt lat="43.5625329" lon="12.2361195"><ele>725.3333333333334</ele><time>2026-04-11T07:57:25.604Z</time></trkpt><trkpt lat="43.5626026" lon="12.2360814"><ele>729.0</ele><time>2026-04-11T07:57:26.604Z</time></trkpt><trkpt lat="43.5626929" lon="12.2361195"><ele>729.0</ele><time>2026-04-11T07:57:28.604Z</time></trkpt><trkpt lat="43.5627562" lon="12.2361428"><ele>729.0</ele><time>2026-04-11T07:57:29.603Z</time></trkpt><trkpt lat="43.5628416" lon="12.2360763"><ele>729.0</ele><time>2026-04-11T07:57:31.604Z</time></trkpt><trkpt lat="43.5629024" lon="12.2359898"><ele>729.0</ele><time>2026-04-11T07:57:33.603Z</time></trkpt><trkpt lat="43.562929" lon="12.2359095"><ele>729.0</ele><time>2026-04-11T07:57:34.604Z</time></trkpt><trkpt lat="43.5629677" lon="12.2357649"><ele>729.0</ele><time>2026-04-11T07:57:36.604Z</time></trkpt><trkpt lat="43.5629623" lon="12.2356448"><ele>730.2</ele><time>2026-04-11T07:57:38.603Z</time></trkpt><trkpt lat="43.5629293" lon="12.2355228"><ele>731.4000000000001</ele><time>2026-04-11T07:57:40.603Z</time></trkpt><trkpt lat="43.5628896" lon="12.2354187"><ele>732.6</ele><time>2026-04-11T07:57:42.604Z</time></trkpt><trkpt lat="43.5628481" lon="12.2353216"><ele>733.8</ele><time>2026-04-11T07:57:44.604Z</time></trkpt><trkpt lat="43.5628268" lon="12.2352083"><ele>735.0</ele><time>2026-04-11T07:57:46.602Z</time></trkpt><trkpt lat="43.562819" lon="12.2350539"><ele>737.3333333333334</ele><time>2026-04-11T07:57:49.603Z</time></trkpt><trkpt lat="43.5628511" lon="12.2349194"><ele>739.6666666666666</ele><time>2026-04-11T07:57:51.604Z</time></trkpt><trkpt lat="43.5628389" lon="12.2348049"><ele>742.0</ele><time>2026-04-11T07:57:53.604Z</time></trkpt><trkpt lat="43.5627943" lon="12.2347203"><ele>744.3333333333333</ele><time>2026-04-11T07:57:54.603Z</time></trkpt><trkpt lat="43.5627591" lon="12.234641"><ele>746.6666666666666</ele><time>2026-04-11T07:57:55.604Z</time></trkpt><trkpt lat="43.5627067" lon="12.2345592"><ele>749.0</ele><time>2026-04-11T07:57:56.604Z</time></trkpt><trkpt lat="43.5626617" lon="12.2344914"><ele>753.0</ele><time>2026-04-11T07:57:57.603Z</time></trkpt><trkpt lat="43.5626154" lon="12.23442"><ele>757.0</ele><time>2026-04-11T07:57:58.603Z</time></trkpt><trkpt lat="43.5624874" lon="12.2342896"><ele>761.0</ele><time>2026-04-11T07:58:00.604Z</time></trkpt><trkpt lat="43.5624205" lon="12.2341676"><ele>765.0</ele><time>2026-04-11T07:58:02.604Z</time></trkpt><trkpt lat="43.562368" lon="12.2340766"><ele>769.0</ele><time>2026-04-11T07:58:04.604Z</time></trkpt><trkpt lat="43.5622935" lon="12.2339597"><ele>772.2</ele><time>2026-04-11T07:58:06.602Z</time></trkpt><trkpt lat="43.562302" lon="12.233845"><ele>775.4000000000001</ele><time>2026-04-11T07:58:10.602Z</time></trkpt><trkpt lat="43.5623737" lon="12.2338117"><ele>778.6</ele><time>2026-04-11T07:58:12.604Z</time></trkpt><trkpt lat="43.5624599" lon="12.2337566"><ele>781.8</ele><time>2026-04-11T07:58:14.604Z</time></trkpt><trkpt lat="43.5625409" lon="12.2336492"><ele>785.0</ele><time>2026-04-11T07:58:16.604Z</time></trkpt><trkpt lat="43.5626244" lon="12.2335626"><ele>785.0</ele><time>2026-04-11T07:58:18.603Z</time></trkpt><trkpt lat="43.5626617" lon="12.233421"><ele>785.0</ele><time>2026-04-11T07:58:20.604Z</time></trkpt><trkpt lat="43.5626665" lon="12.233328"><ele>785.0</ele><time>2026-04-11T07:58:21.604Z</time></trkpt><trkpt lat="43.5626273" lon="12.2331074"><ele>785.0</ele><time>2026-04-11T07:58:23.603Z</time></trkpt><trkpt lat="43.5626113" lon="12.2330189"><ele>785.0</ele><time>2026-04-11T07:58:24.604Z</time></trkpt><trkpt lat="43.5625945" lon="12.2328714"><ele>791.0</ele><time>2026-04-11T07:58:26.604Z</time></trkpt><trkpt lat="43.5625316" lon="12.2326816"><ele>797.0</ele><time>2026-04-11T07:58:28.604Z</time></trkpt><trkpt lat="43.56247" lon="12.2325402"><ele>803.0</ele><time>2026-04-11T07:58:30.603Z</time></trkpt><trkpt lat="43.5624208" lon="12.2324767"><ele>809.0</ele><time>2026-04-11T07:58:31.604Z</time></trkpt><trkpt lat="43.5623353" lon="12.2323562"><ele>808.0</ele><time>2026-04-11T07:58:33.604Z</time></trkpt><trkpt lat="43.5622058" lon="12.2322374"><ele>807.0</ele><time>2026-04-11T07:58:35.603Z</time></trkpt><trkpt lat="43.5621065" lon="12.2321347"><ele>806.0</ele><time>2026-04-11T07:58:37.603Z</time></trkpt><trkpt lat="43.5620299" lon="12.2320633"><ele>805.0</ele><time>2026-04-11T07:58:39.604Z</time></trkpt><trkpt lat="43.5619744" lon="12.2319719"><ele>805.0</ele><time>2026-04-11T07:58:41.603Z</time></trkpt><trkpt lat="43.5618895" lon="12.2319344"><ele>805.0</ele><time>2026-04-11T07:58:42.604Z</time></trkpt><trkpt lat="43.5618397" lon="12.2318112"><ele>805.0</ele><time>2026-04-11T07:58:44.604Z</time></trkpt><trkpt lat="43.5618043" lon="12.231675"><ele>805.0</ele><time>2026-04-11T07:58:46.604Z</time></trkpt><trkpt lat="43.5617251" lon="12.2316419"><ele>805.0</ele><time>2026-04-11T07:58:48.603Z</time></trkpt><trkpt lat="43.5616628" lon="12.2315716"><ele>804.9999999999999</ele><time>2026-04-11T07:58:50.603Z</time></trkpt><trkpt lat="43.5615882" lon="12.2315196"><ele>805.0</ele><time>2026-04-11T07:58:52.602Z</time></trkpt><trkpt lat="43.5614624" lon="12.2314498"><ele>805.0</ele><time>2026-04-11T07:58:53.604Z</time></trkpt><trkpt lat="43.5614097" lon="12.231385"><ele>805.0</ele><time>2026-04-11T07:58:54.603Z</time></trkpt><trkpt lat="43.5613567" lon="12.2313284"><ele>804.9999999999999</ele><time>2026-04-11T07:58:55.604Z</time></trkpt><trkpt lat="43.5613101" lon="12.2312659"><ele>805.0</ele><time>2026-04-11T07:58:56.603Z</time></trkpt><trkpt lat="43.5611468" lon="12.2310894"><ele>804.9999999999999</ele><time>2026-04-11T07:58:57.604Z</time></trkpt><trkpt lat="43.5610523" lon="12.2309509"><ele>805.0</ele><time>2026-04-11T07:58:58.604Z</time></trkpt><trkpt lat="43.5610168" lon="12.2308541"><ele>805.0</ele><time>2026-04-11T07:58:59.604Z</time></trkpt><trkpt lat="43.5609771" lon="12.2307773"><ele>805.0</ele><time>2026-04-11T07:59:00.603Z</time></trkpt><trkpt lat="43.5610026" lon="12.2306914"><ele>804.9999999999999</ele><time>2026-04-11T07:59:03.603Z</time></trkpt><trkpt lat="43.5609369" lon="12.2306685"><ele>805.0</ele><time>2026-04-11T08:05:38.604Z</time></trkpt><trkpt lat="43.560887" lon="12.2305656"><ele>804.9999999999999</ele><time>2026-04-11T08:05:42.604Z</time></trkpt><trkpt lat="43.5608635" lon="12.2304533"><ele>805.0</ele><time>2026-04-11T08:05:45.604Z</time></trkpt><trkpt lat="43.5608048" lon="12.2304896"><ele>805.0</ele><time>2026-04-11T08:06:03.604Z</time></trkpt><trkpt lat="43.5607301" lon="12.2304554"><ele>805.0</ele><time>2026-04-11T08:06:10.603Z</time></trkpt><trkpt lat="43.5606349" lon="12.2304087"><ele>804.9999999999999</ele><time>2026-04-11T08:06:12.603Z</time></trkpt><trkpt lat="43.560555" lon="12.2303751"><ele>805.0</ele><time>2026-04-11T08:06:14.604Z</time></trkpt><trkpt lat="43.5604989" lon="12.2303326"><ele>804.9999999999999</ele><time>2026-04-11T08:06:16.603Z</time></trkpt><trkpt lat="43.5604367" lon="12.2302801"><ele>805.0</ele><time>2026-04-11T08:06:18.604Z</time></trkpt><trkpt lat="43.5603254" lon="12.2302166"><ele>805.0</ele><time>2026-04-11T08:06:20.603Z</time></trkpt><trkpt lat="43.5602637" lon="12.2301963"><ele>805.0</ele><time>2026-04-11T08:06:21.604Z</time></trkpt><trkpt lat="43.5601857" lon="12.2301654"><ele>804.9999999999999</ele><time>2026-04-11T08:06:23.604Z</time></trkpt><trkpt lat="43.5601295" lon="12.2301183"><ele>805.0</ele><time>2026-04-11T08:06:26.604Z</time></trkpt><trkpt lat="43.5600667" lon="12.2301504"><ele>807.2</ele><time>2026-04-11T08:06:35.604Z</time></trkpt><trkpt lat="43.5599762" lon="12.2301853"><ele>809.4</ele><time>2026-04-11T08:06:38.604Z</time></trkpt><trkpt lat="43.5598878" lon="12.2301976"><ele>811.5999999999999</ele><time>2026-04-11T08:06:40.604Z</time></trkpt><trkpt lat="43.5597734" lon="12.2302261"><ele>813.8</ele><time>2026-04-11T08:06:41.604Z</time></trkpt><trkpt lat="43.5596979" lon="12.2302255"><ele>816.0</ele><time>2026-04-11T08:06:42.604Z</time></trkpt><trkpt lat="43.5596146" lon="12.2302411"><ele>816.6666666666666</ele><time>2026-04-11T08:06:43.604Z</time></trkpt><trkpt lat="43.5595327" lon="12.2302501"><ele>817.3333333333333</ele><time>2026-04-11T08:06:44.604Z</time></trkpt><trkpt lat="43.5594164" lon="12.2302219"><ele>818.0</ele><time>2026-04-11T08:06:46.603Z</time></trkpt><trkpt lat="43.5593389" lon="12.2302161"><ele>818.6666666666666</ele><time>2026-04-11T08:06:47.604Z</time></trkpt><trkpt lat="43.5592725" lon="12.2302115"><ele>819.3333333333333</ele><time>2026-04-11T08:06:48.603Z</time></trkpt><trkpt lat="43.5591815" lon="12.2302078"><ele>820.0</ele><time>2026-04-11T08:06:49.604Z</time></trkpt><trkpt lat="43.5590944" lon="12.2302228"><ele>820.0</ele><time>2026-04-11T08:06:50.604Z</time></trkpt><trkpt lat="43.5589861" lon="12.2302592"><ele>820.0</ele><time>2026-04-11T08:06:51.604Z</time></trkpt><trkpt lat="43.5589016" lon="12.2302832"><ele>820.0</ele><time>2026-04-11T08:06:52.604Z</time></trkpt><trkpt lat="43.5587477" lon="12.2302809"><ele>820.0</ele><time>2026-04-11T08:06:54.603Z</time></trkpt><trkpt lat="43.5586421" lon="12.2302838"><ele>818.1666666666666</ele><time>2026-04-11T08:06:55.604Z</time></trkpt><trkpt lat="43.5585781" lon="12.2302695"><ele>816.3333333333333</ele><time>2026-04-11T08:06:56.603Z</time></trkpt><trkpt lat="43.558517" lon="12.230235"><ele>814.5</ele><time>2026-04-11T08:06:57.604Z</time></trkpt><trkpt lat="43.5584169" lon="12.2301863"><ele>812.6666666666667</ele><time>2026-04-11T08:06:59.604Z</time></trkpt><trkpt lat="43.558347" lon="12.2301699"><ele>810.8333333333334</ele><time>2026-04-11T08:07:00.604Z</time></trkpt><trkpt lat="43.5582194" lon="12.2301374"><ele>809.0</ele><time>2026-04-11T08:07:02.604Z</time></trkpt><trkpt lat="43.5581266" lon="12.230166"><ele>809.0</ele><time>2026-04-11T08:07:05.604Z</time></trkpt><trkpt lat="43.558041" lon="12.2301867"><ele>809.0</ele><time>2026-04-11T08:07:06.603Z</time></trkpt><trkpt lat="43.5579658" lon="12.2302013"><ele>809.0</ele><time>2026-04-11T08:07:07.604Z</time></trkpt><trkpt lat="43.5578474" lon="12.2302208"><ele>809.0</ele><time>2026-04-11T08:07:08.603Z</time></trkpt><trkpt lat="43.5577595" lon="12.2302426"><ele>809.0</ele><time>2026-04-11T08:07:09.604Z</time></trkpt><trkpt lat="43.5576515" lon="12.2302953"><ele>808.4000000000001</ele><time>2026-04-11T08:07:10.604Z</time></trkpt><trkpt lat="43.5575456" lon="12.2303172"><ele>807.8</ele><time>2026-04-11T08:07:11.603Z</time></trkpt><trkpt lat="43.5574461" lon="12.2303301"><ele>807.2</ele><time>2026-04-11T08:07:12.604Z</time></trkpt><trkpt lat="43.5573225" lon="12.2303523"><ele>806.5999999999999</ele><time>2026-04-11T08:07:14.604Z</time></trkpt><trkpt lat="43.5572371" lon="12.2303586"><ele>806.0</ele><time>2026-04-11T08:07:15.603Z</time></trkpt><trkpt lat="43.5571533" lon="12.2303391"><ele>806.0</ele><time>2026-04-11T08:07:16.604Z</time></trkpt><trkpt lat="43.5570895" lon="12.2302962"><ele>806.0</ele><time>2026-04-11T08:07:18.604Z</time></trkpt><trkpt lat="43.5570221" lon="12.2302618"><ele>806.0</ele><time>2026-04-11T08:07:21.604Z</time></trkpt><trkpt lat="43.556969" lon="12.230196"><ele>806.0</ele><time>2026-04-11T08:07:24.603Z</time></trkpt><trkpt lat="43.5569688" lon="12.2300941"><ele>806.0</ele><time>2026-04-11T08:07:29.604Z</time></trkpt><trkpt lat="43.5569593" lon="12.2299924"><ele>806.0</ele><time>2026-04-11T08:07:34.604Z</time></trkpt><trkpt lat="43.5569405" lon="12.2298999"><ele>806.0</ele><time>2026-04-11T08:07:38.603Z</time></trkpt><trkpt lat="43.5569057" lon="12.2298254"><ele>808.25</ele><time>2026-04-11T08:07:44.603Z</time></trkpt><trkpt lat="43.5568359" lon="12.2295921"><ele>810.5</ele><time>2026-04-11T08:07:56.604Z</time></trkpt><trkpt lat="43.5568431" lon="12.2294457"><ele>812.75</ele><time>2026-04-11T08:07:58.603Z</time></trkpt><trkpt lat="43.5568146" lon="12.2293205"><ele>815.0</ele><time>2026-04-11T08:07:59.603Z</time></trkpt><trkpt lat="43.5567773" lon="12.2291893"><ele>815.0</ele><time>2026-04-11T08:08:00.604Z</time></trkpt><trkpt lat="43.5567353" lon="12.2290501"><ele>815.0</ele><time>2026-04-11T08:08:01.602Z</time></trkpt><trkpt lat="43.5567094" lon="12.2289438"><ele>815.0</ele><time>2026-04-11T08:08:02.603Z</time></trkpt><trkpt lat="43.5566781" lon="12.228818"><ele>815.0</ele><time>2026-04-11T08:08:03.604Z</time></trkpt><trkpt lat="43.5566312" lon="12.2287035"><ele>815.0</ele><time>2026-04-11T08:08:04.604Z</time></trkpt><trkpt lat="43.5566001" lon="12.2285777"><ele>811.2</ele><time>2026-04-11T08:08:05.604Z</time></trkpt><trkpt lat="43.5565456" lon="12.2284801"><ele>807.4</ele><time>2026-04-11T08:08:07.603Z</time></trkpt><trkpt lat="43.5565092" lon="12.2284086"><ele>803.5999999999999</ele><time>2026-04-11T08:08:08.603Z</time></trkpt><trkpt lat="43.5564355" lon="12.228261"><ele>799.8</ele><time>2026-04-11T08:08:10.604Z</time></trkpt><trkpt lat="43.556354" lon="12.2281963"><ele>796.0</ele><time>2026-04-11T08:08:11.604Z</time></trkpt><trkpt lat="43.5562853" lon="12.2281472"><ele>793.4999999999999</ele><time>2026-04-11T08:08:12.604Z</time></trkpt><trkpt lat="43.5562187" lon="12.2280835"><ele>791.0</ele><time>2026-04-11T08:08:13.604Z</time></trkpt><trkpt lat="43.556167" lon="12.2280237"><ele>788.5</ele><time>2026-04-11T08:08:14.604Z</time></trkpt><trkpt lat="43.5561126" lon="12.2279677"><ele>786.0</ele><time>2026-04-11T08:08:15.604Z</time></trkpt><trkpt lat="43.5560405" lon="12.2279419"><ele>783.4999999999999</ele><time>2026-04-11T08:08:16.604Z</time></trkpt><trkpt lat="43.555961" lon="12.2278958"><ele>781.0</ele><time>2026-04-11T08:08:17.604Z</time></trkpt><trkpt lat="43.5558801" lon="12.2278588"><ele>780.9999999999999</ele><time>2026-04-11T08:08:18.603Z</time></trkpt><trkpt lat="43.5558003" lon="12.2278237"><ele>781.0</ele><time>2026-04-11T08:08:19.603Z</time></trkpt><trkpt lat="43.5557249" lon="12.2277849"><ele>781.0</ele><time>2026-04-11T08:08:20.604Z</time></trkpt><trkpt lat="43.555648" lon="12.2277247"><ele>781.0</ele><time>2026-04-11T08:08:21.603Z</time></trkpt><trkpt lat="43.5555845" lon="12.2276837"><ele>780.9999999999999</ele><time>2026-04-11T08:08:22.603Z</time></trkpt><trkpt lat="43.5555035" lon="12.2276101"><ele>781.0</ele><time>2026-04-11T08:08:23.602Z</time></trkpt><trkpt lat="43.5554342" lon="12.2275582"><ele>780.9999999999999</ele><time>2026-04-11T08:08:24.604Z</time></trkpt><trkpt lat="43.5554009" lon="12.2274758"><ele>781.0</ele><time>2026-04-11T08:08:26.604Z</time></trkpt><trkpt lat="43.5553019" lon="12.2275698"><ele>781.0</ele><time>2026-04-11T08:08:28.603Z</time></trkpt><trkpt lat="43.5552351" lon="12.2276117"><ele>781.0</ele><time>2026-04-11T08:08:29.604Z</time></trkpt><trkpt lat="43.5551564" lon="12.2276551"><ele>780.9999999999999</ele><time>2026-04-11T08:08:30.604Z</time></trkpt><trkpt lat="43.5550867" lon="12.2276944"><ele>781.0</ele><time>2026-04-11T08:08:31.604Z</time></trkpt><trkpt lat="43.5549996" lon="12.2277373"><ele>779.8</ele><time>2026-04-11T08:08:32.604Z</time></trkpt><trkpt lat="43.5549256" lon="12.2277773"><ele>778.5999999999999</ele><time>2026-04-11T08:08:33.604Z</time></trkpt><trkpt lat="43.5548506" lon="12.2277829"><ele>777.4</ele><time>2026-04-11T08:08:34.604Z</time></trkpt><trkpt lat="43.5547668" lon="12.2276797"><ele>776.2</ele><time>2026-04-11T08:08:36.604Z</time></trkpt><trkpt lat="43.5546796" lon="12.2276001"><ele>775.0</ele><time>2026-04-11T08:08:38.603Z</time></trkpt><trkpt lat="43.5545895" lon="12.2275719"><ele>775.0</ele><time>2026-04-11T08:08:40.604Z</time></trkpt><trkpt lat="43.5545487" lon="12.2274509"><ele>775.0</ele><time>2026-04-11T08:08:43.602Z</time></trkpt><trkpt lat="43.5545643" lon="12.2273126"><ele>775.0</ele><time>2026-04-11T08:08:45.604Z</time></trkpt><trkpt lat="43.554578" lon="12.2271764"><ele>775.0</ele><time>2026-04-11T08:08:47.604Z</time></trkpt><trkpt lat="43.5544987" lon="12.227116"><ele>775.0</ele><time>2026-04-11T08:08:49.604Z</time></trkpt><trkpt lat="43.5543929" lon="12.2271712"><ele>771.1666666666666</ele><time>2026-04-11T08:08:51.604Z</time></trkpt><trkpt lat="43.554343" lon="12.2272451"><ele>767.3333333333333</ele><time>2026-04-11T08:08:52.604Z</time></trkpt><trkpt lat="43.5542941" lon="12.2273033"><ele>763.5</ele><time>2026-04-11T08:08:53.604Z</time></trkpt><trkpt lat="43.5542374" lon="12.2273759"><ele>759.6666666666666</ele><time>2026-04-11T08:08:54.603Z</time></trkpt><trkpt lat="43.5541811" lon="12.2274559"><ele>755.8333333333333</ele><time>2026-04-11T08:08:55.603Z</time></trkpt><trkpt lat="43.5541244" lon="12.2275378"><ele>752.0</ele><time>2026-04-11T08:08:56.603Z</time></trkpt><trkpt lat="43.5540822" lon="12.2277042"><ele>752.0</ele><time>2026-04-11T08:08:59.603Z</time></trkpt><trkpt lat="43.5540322" lon="12.2278089"><ele>752.0</ele><time>2026-04-11T08:09:01.604Z</time></trkpt><trkpt lat="43.5539998" lon="12.2278871"><ele>752.0</ele><time>2026-04-11T08:09:02.604Z</time></trkpt><trkpt lat="43.5539492" lon="12.228009"><ele>752.0</ele><time>2026-04-11T08:09:04.603Z</time></trkpt><trkpt lat="43.5538971" lon="12.2281099"><ele>752.0</ele><time>2026-04-11T08:09:07.603Z</time></trkpt><trkpt lat="43.553805" lon="12.2282194"><ele>753.1666666666666</ele><time>2026-04-11T08:09:09.604Z</time></trkpt><trkpt lat="43.5537407" lon="12.2282934"><ele>754.3333333333333</ele><time>2026-04-11T08:09:10.604Z</time></trkpt><trkpt lat="43.55368" lon="12.2283682"><ele>755.5</ele><time>2026-04-11T08:09:11.603Z</time></trkpt><trkpt lat="43.5536037" lon="12.2284677"><ele>756.6666666666666</ele><time>2026-04-11T08:09:13.602Z</time></trkpt><trkpt lat="43.5535545" lon="12.2285242"><ele>757.8333333333334</ele><time>2026-04-11T08:09:14.604Z</time></trkpt><trkpt lat="43.5535046" lon="12.22858"><ele>759.0</ele><time>2026-04-11T08:09:15.604Z</time></trkpt><trkpt lat="43.5534268" lon="12.2286643"><ele>754.8000000000001</ele><time>2026-04-11T08:09:17.604Z</time></trkpt><trkpt lat="43.5533292" lon="12.2287579"><ele>750.6</ele><time>2026-04-11T08:09:19.604Z</time></trkpt><trkpt lat="43.553229" lon="12.2288608"><ele>746.4</ele><time>2026-04-11T08:09:21.603Z</time></trkpt><trkpt lat="43.553129" lon="12.2289492"><ele>742.2</ele><time>2026-04-11T08:09:23.603Z</time></trkpt><trkpt lat="43.5530679" lon="12.2289705"><ele>738.0</ele><time>2026-04-11T08:09:24.604Z</time></trkpt><trkpt lat="43.5529441" lon="12.2289762"><ele>738.0</ele><time>2026-04-11T08:09:26.604Z</time></trkpt><trkpt lat="43.552878" lon="12.2289859"><ele>738.0</ele><time>2026-04-11T08:09:27.604Z</time></trkpt><trkpt lat="43.5528144" lon="12.2290135"><ele>738.0</ele><time>2026-04-11T08:09:28.604Z</time></trkpt><trkpt lat="43.5527114" lon="12.2290638"><ele>738.0</ele><time>2026-04-11T08:09:30.604Z</time></trkpt><trkpt lat="43.5526379" lon="12.2290682"><ele>738.0</ele><time>2026-04-11T08:09:32.603Z</time></trkpt><trkpt lat="43.552594" lon="12.2291581"><ele>738.0</ele><time>2026-04-11T08:09:39.603Z</time></trkpt><trkpt lat="43.5525917" lon="12.2292668"><ele>738.0</ele><time>2026-04-11T08:09:41.603Z</time></trkpt><trkpt lat="43.552563" lon="12.2293608"><ele>738.0</ele><time>2026-04-11T08:09:44.602Z</time></trkpt><trkpt lat="43.5526427" lon="12.2293677"><ele>738.0</ele><time>2026-04-11T08:10:45.604Z</time></trkpt><trkpt lat="43.5527077" lon="12.2292793"><ele>738.0</ele><time>2026-04-11T08:10:47.604Z</time></trkpt><trkpt lat="43.5527991" lon="12.2291749"><ele>738.0</ele><time>2026-04-11T08:10:49.603Z</time></trkpt><trkpt lat="43.5528536" lon="12.2291187"><ele>738.0</ele><time>2026-04-11T08:10:50.603Z</time></trkpt><trkpt lat="43.552966" lon="12.2290595"><ele>738.0</ele><time>2026-04-11T08:10:52.603Z</time></trkpt><trkpt lat="43.5530258" lon="12.2290179"><ele>738.0</ele><time>2026-04-11T08:10:53.603Z</time></trkpt><trkpt lat="43.553091" lon="12.2289683"><ele>738.0</ele><time>2026-04-11T08:10:54.604Z</time></trkpt><trkpt lat="43.5531643" lon="12.2289226"><ele>738.0</ele><time>2026-04-11T08:10:55.604Z</time></trkpt><trkpt lat="43.5532343" lon="12.2288595"><ele>738.0</ele><time>2026-04-11T08:10:56.603Z</time></trkpt><trkpt lat="43.5532862" lon="12.2288017"><ele>738.0</ele><time>2026-04-11T08:10:57.604Z</time></trkpt><trkpt lat="43.553343" lon="12.2287593"><ele>738.0</ele><time>2026-04-11T08:10:58.603Z</time></trkpt><trkpt lat="43.553407" lon="12.2286923"><ele>737.5</ele><time>2026-04-11T08:10:59.603Z</time></trkpt><trkpt lat="43.5534685" lon="12.2286304"><ele>737.0</ele><time>2026-04-11T08:11:00.604Z</time></trkpt><trkpt lat="43.5535263" lon="12.2285751"><ele>736.5</ele><time>2026-04-11T08:11:01.604Z</time></trkpt><trkpt lat="43.5535868" lon="12.22851"><ele>736.0</ele><time>2026-04-11T08:11:02.604Z</time></trkpt><trkpt lat="43.5536538" lon="12.2284388"><ele>735.5</ele><time>2026-04-11T08:11:03.603Z</time></trkpt><trkpt lat="43.5537207" lon="12.2283702"><ele>735.0</ele><time>2026-04-11T08:11:04.603Z</time></trkpt><trkpt lat="43.5537819" lon="12.2283008"><ele>739.25</ele><time>2026-04-11T08:11:05.604Z</time></trkpt><trkpt lat="43.5538874" lon="12.2282253"><ele>743.5</ele><time>2026-04-11T08:11:07.604Z</time></trkpt><trkpt lat="43.5539519" lon="12.2281112"><ele>747.75</ele><time>2026-04-11T08:11:09.604Z</time></trkpt><trkpt lat="43.5540425" lon="12.2279135"><ele>752.0</ele><time>2026-04-11T08:11:12.604Z</time></trkpt><trkpt lat="43.554068" lon="12.2278301"><ele>752.0</ele><time>2026-04-11T08:11:13.603Z</time></trkpt><trkpt lat="43.5541181" lon="12.227723"><ele>752.0</ele><time>2026-04-11T08:11:15.603Z</time></trkpt><trkpt lat="43.5541655" lon="12.2275995"><ele>752.0</ele><time>2026-04-11T08:11:17.604Z</time></trkpt><trkpt lat="43.5541888" lon="12.2275055"><ele>752.0</ele><time>2026-04-11T08:11:19.604Z</time></trkpt><trkpt lat="43.5542661" lon="12.227367"><ele>752.0</ele><time>2026-04-11T08:11:22.603Z</time></trkpt><trkpt lat="43.5543364" lon="12.2272848"><ele>751.6</ele><time>2026-04-11T08:11:24.603Z</time></trkpt><trkpt lat="43.5544226" lon="12.2272178"><ele>751.2</ele><time>2026-04-11T08:11:26.604Z</time></trkpt><trkpt lat="43.5545034" lon="12.2271986"><ele>750.8</ele><time>2026-04-11T08:11:28.604Z</time></trkpt><trkpt lat="43.5546001" lon="12.2271904"><ele>750.4</ele><time>2026-04-11T08:11:30.604Z</time></trkpt><trkpt lat="43.5545961" lon="12.2272967"><ele>750.0</ele><time>2026-04-11T08:11:32.604Z</time></trkpt><trkpt lat="43.5546125" lon="12.2274496"><ele>755.0</ele><time>2026-04-11T08:11:35.603Z</time></trkpt><trkpt lat="43.5546425" lon="12.2275992"><ele>760.0</ele><time>2026-04-11T08:11:37.604Z</time></trkpt><trkpt lat="43.5547001" lon="12.227666"><ele>765.0</ele><time>2026-04-11T08:11:39.604Z</time></trkpt><trkpt lat="43.554784" lon="12.227697"><ele>770.0</ele><time>2026-04-11T08:11:41.603Z</time></trkpt><trkpt lat="43.554884" lon="12.2277435"><ele>775.0</ele><time>2026-04-11T08:11:43.604Z</time></trkpt><trkpt lat="43.5549817" lon="12.2277945"><ele>774.9999999999999</ele><time>2026-04-11T08:11:45.603Z</time></trkpt><trkpt lat="43.5550668" lon="12.2277773"><ele>775.0</ele><time>2026-04-11T08:11:47.604Z</time></trkpt><trkpt lat="43.5551337" lon="12.2277535"><ele>775.0</ele><time>2026-04-11T08:11:48.603Z</time></trkpt><trkpt lat="43.5552331" lon="12.2277407"><ele>775.0</ele><time>2026-04-11T08:11:50.603Z</time></trkpt><trkpt lat="43.555283" lon="12.2276785"><ele>774.9999999999999</ele><time>2026-04-11T08:11:52.604Z</time></trkpt><trkpt lat="43.5553812" lon="12.2276276"><ele>775.0</ele><time>2026-04-11T08:11:54.604Z</time></trkpt><trkpt lat="43.5554601" lon="12.2275909"><ele>775.9999999999999</ele><time>2026-04-11T08:11:56.604Z</time></trkpt><trkpt lat="43.5555564" lon="12.2275485"><ele>777.0</ele><time>2026-04-11T08:11:58.604Z</time></trkpt><trkpt lat="43.5556207" lon="12.2275246"><ele>778.0</ele><time>2026-04-11T08:11:59.602Z</time></trkpt><trkpt lat="43.5557088" lon="12.2275064"><ele>779.0</ele><time>2026-04-11T08:12:00.604Z</time></trkpt><trkpt lat="43.5558017" lon="12.227487"><ele>779.9999999999999</ele><time>2026-04-11T08:12:01.604Z</time></trkpt><trkpt lat="43.5558916" lon="12.2274856"><ele>781.0</ele><time>2026-04-11T08:12:02.604Z</time></trkpt><trkpt lat="43.5559791" lon="12.2275078"><ele>780.9999999999999</ele><time>2026-04-11T08:12:03.603Z</time></trkpt><trkpt lat="43.5560637" lon="12.227517"><ele>781.0</ele><time>2026-04-11T08:12:04.603Z</time></trkpt><trkpt lat="43.556145" lon="12.2275608"><ele>781.0</ele><time>2026-04-11T08:12:05.604Z</time></trkpt><trkpt lat="43.556234" lon="12.2275896"><ele>781.0</ele><time>2026-04-11T08:12:06.604Z</time></trkpt><trkpt lat="43.556307" lon="12.2276035"><ele>780.9999999999999</ele><time>2026-04-11T08:12:07.603Z</time></trkpt><trkpt lat="43.5563699" lon="12.2276336"><ele>781.0</ele><time>2026-04-11T08:12:08.604Z</time></trkpt><trkpt lat="43.5564448" lon="12.2276676"><ele>780.0</ele><time>2026-04-11T08:12:09.604Z</time></trkpt><trkpt lat="43.5565114" lon="12.2277104"><ele>779.0</ele><time>2026-04-11T08:12:10.604Z</time></trkpt><trkpt lat="43.5565761" lon="12.2277621"><ele>778.0</ele><time>2026-04-11T08:12:11.604Z</time></trkpt><trkpt lat="43.5566889" lon="12.2278052"><ele>777.0</ele><time>2026-04-11T08:12:13.604Z</time></trkpt><trkpt lat="43.5567944" lon="12.2278556"><ele>776.0</ele><time>2026-04-11T08:12:15.604Z</time></trkpt><trkpt lat="43.556902" lon="12.2279239"><ele>776.0000000000001</ele><time>2026-04-11T08:12:17.604Z</time></trkpt><trkpt lat="43.5569954" lon="12.2280058"><ele>776.0</ele><time>2026-04-11T08:12:19.603Z</time></trkpt><trkpt lat="43.5570416" lon="12.2280649"><ele>776.0</ele><time>2026-04-11T08:12:20.604Z</time></trkpt><trkpt lat="43.5571332" lon="12.2281131"><ele>776.0</ele><time>2026-04-11T08:12:21.604Z</time></trkpt><trkpt lat="43.5572206" lon="12.2281457"><ele>776.0000000000001</ele><time>2026-04-11T08:12:22.604Z</time></trkpt><trkpt lat="43.5572871" lon="12.228187"><ele>776.0</ele><time>2026-04-11T08:12:23.604Z</time></trkpt><trkpt lat="43.5573609" lon="12.2282274"><ele>776.3333333333334</ele><time>2026-04-11T08:12:24.604Z</time></trkpt><trkpt lat="43.5574788" lon="12.2283196"><ele>776.6666666666667</ele><time>2026-04-11T08:12:26.604Z</time></trkpt><trkpt lat="43.5575484" lon="12.2283762"><ele>777.0</ele><time>2026-04-11T08:12:27.604Z</time></trkpt><trkpt lat="43.5576098" lon="12.2284347"><ele>777.3333333333333</ele><time>2026-04-11T08:12:28.604Z</time></trkpt><trkpt lat="43.5576672" lon="12.2284846"><ele>777.6666666666666</ele><time>2026-04-11T08:12:29.604Z</time></trkpt><trkpt lat="43.5577268" lon="12.2285278"><ele>778.0</ele><time>2026-04-11T08:12:31.604Z</time></trkpt><trkpt lat="43.557793" lon="12.2284906"><ele>777.9999999999999</ele><time>2026-04-11T08:12:45.604Z</time></trkpt><trkpt lat="43.5578329" lon="12.2283963"><ele>778.0</ele><time>2026-04-11T08:12:48.604Z</time></trkpt><trkpt lat="43.5579149" lon="12.2283461"><ele>778.0</ele><time>2026-04-11T08:12:51.604Z</time></trkpt><trkpt lat="43.5579868" lon="12.2283028"><ele>778.0</ele><time>2026-04-11T08:12:53.604Z</time></trkpt><trkpt lat="43.5580485" lon="12.2282458"><ele>777.9999999999999</ele><time>2026-04-11T08:12:55.603Z</time></trkpt><trkpt lat="43.5580406" lon="12.22813"><ele>778.0</ele><time>2026-04-11T08:12:57.604Z</time></trkpt><trkpt lat="43.5579861" lon="12.2280394"><ele>776.8333333333333</ele><time>2026-04-11T08:12:59.604Z</time></trkpt><trkpt lat="43.5579364" lon="12.2279414"><ele>775.6666666666666</ele><time>2026-04-11T08:13:01.603Z</time></trkpt><trkpt lat="43.5579352" lon="12.2278245"><ele>774.5</ele><time>2026-04-11T08:13:03.604Z</time></trkpt><trkpt lat="43.5579355" lon="12.2277189"><ele>773.3333333333333</ele><time>2026-04-11T08:13:05.603Z</time></trkpt><trkpt lat="43.557996" lon="12.2276601"><ele>772.1666666666666</ele><time>2026-04-11T08:13:09.604Z</time></trkpt><trkpt lat="43.5581111" lon="12.2276741"><ele>771.0</ele><time>2026-04-11T08:13:11.604Z</time></trkpt><trkpt lat="43.5582371" lon="12.2276992"><ele>771.0</ele><time>2026-04-11T08:13:13.604Z</time></trkpt><trkpt lat="43.5583404" lon="12.2277325"><ele>771.0</ele><time>2026-04-11T08:13:15.604Z</time></trkpt><trkpt lat="43.5584038" lon="12.2277495"><ele>771.0</ele><time>2026-04-11T08:13:18.604Z</time></trkpt><trkpt lat="43.5584521" lon="12.2276904"><ele>771.0</ele><time>2026-04-11T08:13:40.602Z</time></trkpt><trkpt lat="43.5585186" lon="12.227731"><ele>771.0</ele><time>2026-04-11T08:13:48.604Z</time></trkpt><trkpt lat="43.558614" lon="12.2277542"><ele>771.0</ele><time>2026-04-11T08:13:50.604Z</time></trkpt><trkpt lat="43.5586784" lon="12.2277378"><ele>770.8</ele><time>2026-04-11T08:13:51.603Z</time></trkpt><trkpt lat="43.5587898" lon="12.227712"><ele>770.5999999999999</ele><time>2026-04-11T08:13:53.604Z</time></trkpt><trkpt lat="43.5588853" lon="12.2276788"><ele>770.4</ele><time>2026-04-11T08:13:55.604Z</time></trkpt><trkpt lat="43.5589903" lon="12.2276384"><ele>770.2</ele><time>2026-04-11T08:13:57.603Z</time></trkpt><trkpt lat="43.5590872" lon="12.2276392"><ele>770.0</ele><time>2026-04-11T08:13:59.602Z</time></trkpt><trkpt lat="43.5591699" lon="12.2276637"><ele>770.0</ele><time>2026-04-11T08:14:04.603Z</time></trkpt><trkpt lat="43.559249" lon="12.2276884"><ele>770.0</ele><time>2026-04-11T08:14:06.604Z</time></trkpt><trkpt lat="43.5593414" lon="12.2277114"><ele>770.0</ele><time>2026-04-11T08:14:08.604Z</time></trkpt><trkpt lat="43.5594438" lon="12.2277652"><ele>770.0</ele><time>2026-04-11T08:14:10.604Z</time></trkpt><trkpt lat="43.5595409" lon="12.2277849"><ele>770.0</ele><time>2026-04-11T08:14:12.603Z</time></trkpt><trkpt lat="43.5596442" lon="12.2277858"><ele>768.5</ele><time>2026-04-11T08:14:14.604Z</time></trkpt><trkpt lat="43.5597621" lon="12.2277915"><ele>767.0</ele><time>2026-04-11T08:14:16.604Z</time></trkpt><trkpt lat="43.55988" lon="12.2277984"><ele>765.5</ele><time>2026-04-11T08:14:18.604Z</time></trkpt><trkpt lat="43.5599835" lon="12.2278339"><ele>764.0</ele><time>2026-04-11T08:14:20.604Z</time></trkpt><trkpt lat="43.5601152" lon="12.2279702"><ele>764.0</ele><time>2026-04-11T08:14:23.603Z</time></trkpt><trkpt lat="43.560201" lon="12.2280661"><ele>764.0</ele><time>2026-04-11T08:14:25.603Z</time></trkpt><trkpt lat="43.5602792" lon="12.2281455"><ele>764.0</ele><time>2026-04-11T08:14:27.603Z</time></trkpt><trkpt lat="43.5603771" lon="12.228212"><ele>764.0</ele><time>2026-04-11T08:14:29.604Z</time></trkpt><trkpt lat="43.5604859" lon="12.2282648"><ele>764.0</ele><time>2026-04-11T08:14:31.604Z</time></trkpt><trkpt lat="43.5605651" lon="12.2282965"><ele>766.5</ele><time>2026-04-11T08:14:32.604Z</time></trkpt><trkpt lat="43.5606829" lon="12.2283502"><ele>769.0</ele><time>2026-04-11T08:14:34.604Z</time></trkpt><trkpt lat="43.5607369" lon="12.2284068"><ele>771.5</ele><time>2026-04-11T08:14:36.604Z</time></trkpt><trkpt lat="43.5608017" lon="12.2285154"><ele>774.0</ele><time>2026-04-11T08:14:38.604Z</time></trkpt><trkpt lat="43.5608702" lon="12.2285487"><ele>776.5000000000001</ele><time>2026-04-11T08:14:40.604Z</time></trkpt><trkpt lat="43.5609346" lon="12.2285498"><ele>779.0</ele><time>2026-04-11T08:14:43.602Z</time></trkpt><trkpt lat="43.5609982" lon="12.2285393"><ele>779.0</ele><time>2026-04-11T08:14:45.604Z</time></trkpt><trkpt lat="43.5611119" lon="12.2284955"><ele>779.0</ele><time>2026-04-11T08:14:47.603Z</time></trkpt><trkpt lat="43.561194" lon="12.2284718"><ele>779.0</ele><time>2026-04-11T08:14:49.604Z</time></trkpt><trkpt lat="43.5612468" lon="12.2283504"><ele>779.0</ele><time>2026-04-11T08:14:52.604Z</time></trkpt><trkpt lat="43.5612719" lon="12.2282294"><ele>779.0</ele><time>2026-04-11T08:14:54.604Z</time></trkpt><trkpt lat="43.5613041" lon="12.2280707"><ele>776.8333333333334</ele><time>2026-04-11T08:14:56.604Z</time></trkpt><trkpt lat="43.5613292" lon="12.2279866"><ele>774.6666666666667</ele><time>2026-04-11T08:14:57.604Z</time></trkpt><trkpt lat="43.5613669" lon="12.227895"><ele>772.5</ele><time>2026-04-11T08:14:58.604Z</time></trkpt><trkpt lat="43.5614032" lon="12.2278114"><ele>770.3333333333334</ele><time>2026-04-11T08:14:59.604Z</time></trkpt><trkpt lat="43.5614377" lon="12.2277223"><ele>768.1666666666667</ele><time>2026-04-11T08:15:00.603Z</time></trkpt><trkpt lat="43.5614785" lon="12.2275568"><ele>766.0</ele><time>2026-04-11T08:15:02.604Z</time></trkpt><trkpt lat="43.5614963" lon="12.2274729"><ele>763.0</ele><time>2026-04-11T08:15:03.603Z</time></trkpt><trkpt lat="43.5615281" lon="12.2273049"><ele>760.0</ele><time>2026-04-11T08:15:05.603Z</time></trkpt><trkpt lat="43.5615356" lon="12.2271592"><ele>757.0</ele><time>2026-04-11T08:15:07.604Z</time></trkpt><trkpt lat="43.5615114" lon="12.2270091"><ele>754.0</ele><time>2026-04-11T08:15:09.604Z</time></trkpt><trkpt lat="43.5614657" lon="12.2268686"><ele>754.0</ele><time>2026-04-11T08:15:11.604Z</time></trkpt><trkpt lat="43.5614235" lon="12.2267901"><ele>754.0</ele><time>2026-04-11T08:15:13.604Z</time></trkpt><trkpt lat="43.5613617" lon="12.2267224"><ele>754.0</ele><time>2026-04-11T08:15:16.603Z</time></trkpt><trkpt lat="43.561294" lon="12.2266491"><ele>754.0</ele><time>2026-04-11T08:15:20.604Z</time></trkpt><trkpt lat="43.5612696" lon="12.2265565"><ele>754.0</ele><time>2026-04-11T08:15:22.603Z</time></trkpt><trkpt lat="43.5612368" lon="12.2264617"><ele>754.0</ele><time>2026-04-11T08:15:24.604Z</time></trkpt><trkpt lat="43.5612168" lon="12.2263662"><ele>751.5</ele><time>2026-04-11T08:15:26.604Z</time></trkpt><trkpt lat="43.5611993" lon="12.2262342"><ele>749.0</ele><time>2026-04-11T08:15:28.603Z</time></trkpt><trkpt lat="43.5611842" lon="12.2261036"><ele>746.5</ele><time>2026-04-11T08:15:30.603Z</time></trkpt><trkpt lat="43.5611689" lon="12.2260158"><ele>744.0</ele><time>2026-04-11T08:15:32.603Z</time></trkpt><trkpt lat="43.5611457" lon="12.2258919"><ele>741.5</ele><time>2026-04-11T08:15:35.603Z</time></trkpt><trkpt lat="43.5611311" lon="12.2258029"><ele>739.0</ele><time>2026-04-11T08:15:37.604Z</time></trkpt><trkpt lat="43.561098" lon="12.2257069"><ele>734.4000000000001</ele><time>2026-04-11T08:15:39.604Z</time></trkpt><trkpt lat="43.5610718" lon="12.2256072"><ele>729.8</ele><time>2026-04-11T08:15:41.604Z</time></trkpt><trkpt lat="43.5610791" lon="12.2254447"><ele>725.2</ele><time>2026-04-11T08:15:43.603Z</time></trkpt><trkpt lat="43.5610725" lon="12.2252882"><ele>720.5999999999999</ele><time>2026-04-11T08:15:45.604Z</time></trkpt><trkpt lat="43.5611457" lon="12.2252409"><ele>716.0</ele><time>2026-04-11T08:15:48.604Z</time></trkpt><trkpt lat="43.561234" lon="12.2252249"><ele>714.5</ele><time>2026-04-11T08:15:51.603Z</time></trkpt><trkpt lat="43.5613102" lon="12.2252706"><ele>713.0</ele><time>2026-04-11T08:15:55.603Z</time></trkpt><trkpt lat="43.5613594" lon="12.2252154"><ele>711.5</ele><time>2026-04-11T08:16:02.604Z</time></trkpt><trkpt lat="43.5613452" lon="12.2250723"><ele>710.0</ele><time>2026-04-11T08:16:03.603Z</time></trkpt><trkpt lat="43.5612952" lon="12.2249244"><ele>708.5</ele><time>2026-04-11T08:16:05.603Z</time></trkpt><trkpt lat="43.5612915" lon="12.2248244"><ele>707.0</ele><time>2026-04-11T08:16:06.604Z</time></trkpt><trkpt lat="43.5612748" lon="12.2246846"><ele>703.8333333333333</ele><time>2026-04-11T08:16:07.604Z</time></trkpt><trkpt lat="43.5612581" lon="12.2245561"><ele>700.6666666666666</ele><time>2026-04-11T08:16:09.604Z</time></trkpt><trkpt lat="43.5612561" lon="12.2244132"><ele>697.5</ele><time>2026-04-11T08:16:11.604Z</time></trkpt><trkpt lat="43.5612874" lon="12.2243076"><ele>694.3333333333334</ele><time>2026-04-11T08:16:13.604Z</time></trkpt><trkpt lat="43.5613096" lon="12.2241917"><ele>691.1666666666667</ele><time>2026-04-11T08:16:16.604Z</time></trkpt><trkpt lat="43.5613188" lon="12.2240888"><ele>688.0</ele><time>2026-04-11T08:16:18.604Z</time></trkpt><trkpt lat="43.5613179" lon="12.2239628"><ele>685.8333333333334</ele><time>2026-04-11T08:16:20.603Z</time></trkpt><trkpt lat="43.561279" lon="12.2238721"><ele>683.6666666666667</ele><time>2026-04-11T08:16:22.604Z</time></trkpt><trkpt lat="43.5612144" lon="12.2238202"><ele>681.5</ele><time>2026-04-11T08:16:24.603Z</time></trkpt><trkpt lat="43.5611348" lon="12.2238054"><ele>679.3333333333334</ele><time>2026-04-11T08:16:26.604Z</time></trkpt><trkpt lat="43.5610525" lon="12.223801"><ele>677.1666666666666</ele><time>2026-04-11T08:16:28.603Z</time></trkpt><trkpt lat="43.5609524" lon="12.2238064"><ele>675.0</ele><time>2026-04-11T08:16:30.603Z</time></trkpt><trkpt lat="43.5608531" lon="12.2238303"><ele>675.0</ele><time>2026-04-11T08:16:32.603Z</time></trkpt><trkpt lat="43.5607276" lon="12.2238365"><ele>675.0</ele><time>2026-04-11T08:16:34.603Z</time></trkpt><trkpt lat="43.5606541" lon="12.2238092"><ele>675.0</ele><time>2026-04-11T08:16:35.604Z</time></trkpt><trkpt lat="43.5605424" lon="12.2237347"><ele>675.0</ele><time>2026-04-11T08:16:37.604Z</time></trkpt><trkpt lat="43.5604773" lon="12.2236606"><ele>675.0</ele><time>2026-04-11T08:16:38.603Z</time></trkpt><trkpt lat="43.560375" lon="12.223603"><ele>673.8333333333334</ele><time>2026-04-11T08:16:40.603Z</time></trkpt><trkpt lat="43.5603032" lon="12.2236048"><ele>672.6666666666666</ele><time>2026-04-11T08:16:41.604Z</time></trkpt><trkpt lat="43.5602154" lon="12.2235938"><ele>671.5</ele><time>2026-04-11T08:16:42.603Z</time></trkpt><trkpt lat="43.5601283" lon="12.2235813"><ele>670.3333333333333</ele><time>2026-04-11T08:16:43.604Z</time></trkpt><trkpt lat="43.5600429" lon="12.2235744"><ele>669.1666666666666</ele><time>2026-04-11T08:16:44.604Z</time></trkpt><trkpt lat="43.5599677" lon="12.2235985"><ele>668.0</ele><time>2026-04-11T08:16:45.603Z</time></trkpt><trkpt lat="43.5598502" lon="12.2236567"><ele>668.0</ele><time>2026-04-11T08:16:47.604Z</time></trkpt><trkpt lat="43.5598016" lon="12.2235402"><ele>668.0</ele><time>2026-04-11T08:16:49.602Z</time></trkpt><trkpt lat="43.5598323" lon="12.2233902"><ele>668.0</ele><time>2026-04-11T08:16:51.604Z</time></trkpt><trkpt lat="43.5598887" lon="12.2232898"><ele>668.0</ele><time>2026-04-11T08:16:53.603Z</time></trkpt><trkpt lat="43.5599569" lon="12.2231958"><ele>668.0</ele><time>2026-04-11T08:16:55.602Z</time></trkpt><trkpt lat="43.5599722" lon="12.2230778"><ele>664.3333333333333</ele><time>2026-04-11T08:16:57.603Z</time></trkpt><trkpt lat="43.5599226" lon="12.2229683"><ele>660.6666666666666</ele><time>2026-04-11T08:16:59.603Z</time></trkpt><trkpt lat="43.5598266" lon="12.2229204"><ele>657.0</ele><time>2026-04-11T08:17:01.603Z</time></trkpt><trkpt lat="43.5597634" lon="12.2229813"><ele>653.3333333333334</ele><time>2026-04-11T08:17:02.604Z</time></trkpt><trkpt lat="43.5597047" lon="12.2230207"><ele>649.6666666666667</ele><time>2026-04-11T08:17:03.604Z</time></trkpt><trkpt lat="43.5596423" lon="12.223051"><ele>646.0</ele><time>2026-04-11T08:17:04.604Z</time></trkpt><trkpt lat="43.5595553" lon="12.2230218"><ele>646.0</ele><time>2026-04-11T08:17:06.604Z</time></trkpt><trkpt lat="43.5595366" lon="12.2228977"><ele>646.0</ele><time>2026-04-11T08:17:08.604Z</time></trkpt><trkpt lat="43.5595324" lon="12.2228104"><ele>646.0</ele><time>2026-04-11T08:17:09.603Z</time></trkpt><trkpt lat="43.5595359" lon="12.2227001"><ele>646.0</ele><time>2026-04-11T08:17:10.603Z</time></trkpt><trkpt lat="43.5595089" lon="12.2225364"><ele>646.0</ele><time>2026-04-11T08:17:12.604Z</time></trkpt><trkpt lat="43.5594719" lon="12.2224394"><ele>646.0</ele><time>2026-04-11T08:17:13.603Z</time></trkpt><trkpt lat="43.5594345" lon="12.2223505"><ele>644.4</ele><time>2026-04-11T08:17:14.604Z</time></trkpt><trkpt lat="43.5593686" lon="12.2222463"><ele>642.8</ele><time>2026-04-11T08:17:16.603Z</time></trkpt><trkpt lat="43.5593001" lon="12.2221109"><ele>641.1999999999999</ele><time>2026-04-11T08:17:18.603Z</time></trkpt><trkpt lat="43.5592621" lon="12.2220353"><ele>639.5999999999999</ele><time>2026-04-11T08:17:19.603Z</time></trkpt><trkpt lat="43.5591848" lon="12.2219428"><ele>638.0</ele><time>2026-04-11T08:17:21.604Z</time></trkpt><trkpt lat="43.5591077" lon="12.2218482"><ele>638.0</ele><time>2026-04-11T08:17:23.603Z</time></trkpt><trkpt lat="43.5591025" lon="12.2217455"><ele>638.0</ele><time>2026-04-11T08:17:25.603Z</time></trkpt><trkpt lat="43.5591765" lon="12.2216845"><ele>638.0</ele><time>2026-04-11T08:17:27.604Z</time></trkpt><trkpt lat="43.5592745" lon="12.221699"><ele>638.0</ele><time>2026-04-11T08:17:29.604Z</time></trkpt><trkpt lat="43.5593791" lon="12.2217193"><ele>638.0</ele><time>2026-04-11T08:17:31.602Z</time></trkpt><trkpt lat="43.5594459" lon="12.2217266"><ele>638.0</ele><time>2026-04-11T08:17:32.604Z</time></trkpt><trkpt lat="43.5595127" lon="12.2217404"><ele>635.0</ele><time>2026-04-11T08:17:33.604Z</time></trkpt><trkpt lat="43.5596381" lon="12.2217748"><ele>632.0</ele><time>2026-04-11T08:17:35.604Z</time></trkpt><trkpt lat="43.5597578" lon="12.221823"><ele>629.0</ele><time>2026-04-11T08:17:37.604Z</time></trkpt><trkpt lat="43.559879" lon="12.2218766"><ele>626.0</ele><time>2026-04-11T08:17:39.604Z</time></trkpt><trkpt lat="43.559985" lon="12.2219815"><ele>626.0</ele><time>2026-04-11T08:17:41.603Z</time></trkpt><trkpt lat="43.5600429" lon="12.2220282"><ele>626.0</ele><time>2026-04-11T08:17:42.604Z</time></trkpt><trkpt lat="43.5601083" lon="12.2220613"><ele>626.0</ele><time>2026-04-11T08:17:43.604Z</time></trkpt><trkpt lat="43.5601985" lon="12.2220824"><ele>626.0</ele><time>2026-04-11T08:17:44.603Z</time></trkpt><trkpt lat="43.5602918" lon="12.2221059"><ele>626.0</ele><time>2026-04-11T08:17:45.603Z</time></trkpt><trkpt lat="43.5603876" lon="12.2221361"><ele>626.0</ele><time>2026-04-11T08:17:46.604Z</time></trkpt><trkpt lat="43.5604921" lon="12.2221708"><ele>624.6</ele><time>2026-04-11T08:17:47.604Z</time></trkpt><trkpt lat="43.5605958" lon="12.222208"><ele>623.2</ele><time>2026-04-11T08:17:48.604Z</time></trkpt><trkpt lat="43.5607006" lon="12.2222548"><ele>621.8</ele><time>2026-04-11T08:17:49.604Z</time></trkpt><trkpt lat="43.5608134" lon="12.2222898"><ele>620.4</ele><time>2026-04-11T08:17:50.604Z</time></trkpt><trkpt lat="43.5609258" lon="12.2223238"><ele>619.0</ele><time>2026-04-11T08:17:51.604Z</time></trkpt><trkpt lat="43.5610474" lon="12.2223611"><ele>623.25</ele><time>2026-04-11T08:17:52.604Z</time></trkpt><trkpt lat="43.5611763" lon="12.2223949"><ele>627.5</ele><time>2026-04-11T08:17:53.604Z</time></trkpt><trkpt lat="43.5613117" lon="12.2224325"><ele>631.75</ele><time>2026-04-11T08:17:54.604Z</time></trkpt><trkpt lat="43.5614384" lon="12.2224709"><ele>636.0</ele><time>2026-04-11T08:17:55.604Z</time></trkpt><trkpt lat="43.5615564" lon="12.2225152"><ele>636.0</ele><time>2026-04-11T08:17:56.602Z</time></trkpt><trkpt lat="43.5616647" lon="12.2225385"><ele>636.0</ele><time>2026-04-11T08:17:57.604Z</time></trkpt><trkpt lat="43.5617751" lon="12.2225566"><ele>636.0</ele><time>2026-04-11T08:17:58.604Z</time></trkpt><trkpt lat="43.5618779" lon="12.2225414"><ele>636.0</ele><time>2026-04-11T08:17:59.604Z</time></trkpt><trkpt lat="43.5619898" lon="12.2224981"><ele>636.0</ele><time>2026-04-11T08:18:00.604Z</time></trkpt><trkpt lat="43.5620893" lon="12.2224069"><ele>635.6</ele><time>2026-04-11T08:18:01.604Z</time></trkpt><trkpt lat="43.5621634" lon="12.2222917"><ele>635.2</ele><time>2026-04-11T08:18:02.602Z</time></trkpt><trkpt lat="43.5622406" lon="12.2221939"><ele>634.8</ele><time>2026-04-11T08:18:03.604Z</time></trkpt><trkpt lat="43.5623163" lon="12.2220857"><ele>634.4</ele><time>2026-04-11T08:18:04.603Z</time></trkpt><trkpt lat="43.5623896" lon="12.2219718"><ele>634.0</ele><time>2026-04-11T08:18:05.604Z</time></trkpt><trkpt lat="43.562455" lon="12.2218566"><ele>634.0</ele><time>2026-04-11T08:18:06.604Z</time></trkpt><trkpt lat="43.5625145" lon="12.2217397"><ele>634.0</ele><time>2026-04-11T08:18:07.603Z</time></trkpt><trkpt lat="43.5625818" lon="12.2216341"><ele>634.0</ele><time>2026-04-11T08:18:08.604Z</time></trkpt><trkpt lat="43.5626619" lon="12.2215495"><ele>634.0</ele><time>2026-04-11T08:18:09.604Z</time></trkpt><trkpt lat="43.5627469" lon="12.2214766"><ele>634.0</ele><time>2026-04-11T08:18:10.603Z</time></trkpt><trkpt lat="43.562825" lon="12.2213881"><ele>636.0</ele><time>2026-04-11T08:18:11.603Z</time></trkpt><trkpt lat="43.5628898" lon="12.2212848"><ele>638.0</ele><time>2026-04-11T08:18:12.604Z</time></trkpt><trkpt lat="43.5629431" lon="12.2211681"><ele>640.0</ele><time>2026-04-11T08:18:13.604Z</time></trkpt><trkpt lat="43.5629925" lon="12.2210466"><ele>642.0</ele><time>2026-04-11T08:18:14.602Z</time></trkpt><trkpt lat="43.5630446" lon="12.2209262"><ele>644.0</ele><time>2026-04-11T08:18:15.603Z</time></trkpt><trkpt lat="43.5631033" lon="12.220816"><ele>644.0</ele><time>2026-04-11T08:18:16.604Z</time></trkpt><trkpt lat="43.5631805" lon="12.2207311"><ele>644.0</ele><time>2026-04-11T08:18:17.604Z</time></trkpt><trkpt lat="43.5632725" lon="12.2206882"><ele>644.0</ele><time>2026-04-11T08:18:18.604Z</time></trkpt><trkpt lat="43.5633644" lon="12.220664"><ele>644.0</ele><time>2026-04-11T08:18:19.604Z</time></trkpt><trkpt lat="43.5634445" lon="12.2206283"><ele>644.0</ele><time>2026-04-11T08:18:20.604Z</time></trkpt><trkpt lat="43.5635192" lon="12.220581"><ele>642.0</ele><time>2026-04-11T08:18:21.604Z</time></trkpt><trkpt lat="43.5635846" lon="12.2205289"><ele>640.0</ele><time>2026-04-11T08:18:22.604Z</time></trkpt><trkpt lat="43.5636543" lon="12.2204715"><ele>638.0</ele><time>2026-04-11T08:18:23.604Z</time></trkpt><trkpt lat="43.5637255" lon="12.2204163"><ele>636.0</ele><time>2026-04-11T08:18:24.603Z</time></trkpt><trkpt lat="43.5637973" lon="12.2203589"><ele>634.0</ele><time>2026-04-11T08:18:25.603Z</time></trkpt><trkpt lat="43.5638759" lon="12.2203143"><ele>632.0</ele><time>2026-04-11T08:18:26.603Z</time></trkpt><trkpt lat="43.5639622" lon="12.2202853"><ele>632.0</ele><time>2026-04-11T08:18:27.603Z</time></trkpt><trkpt lat="43.5640464" lon="12.2202662"><ele>632.0</ele><time>2026-04-11T08:18:28.604Z</time></trkpt><trkpt lat="43.5641407" lon="12.2202546"><ele>632.0</ele><time>2026-04-11T08:18:29.604Z</time></trkpt><trkpt lat="43.5642248" lon="12.2202503"><ele>632.0</ele><time>2026-04-11T08:18:30.604Z</time></trkpt><trkpt lat="43.5643318" lon="12.220239"><ele>632.0</ele><time>2026-04-11T08:18:31.603Z</time></trkpt><trkpt lat="43.5644381" lon="12.2202489"><ele>631.5</ele><time>2026-04-11T08:18:32.603Z</time></trkpt><trkpt lat="43.5645478" lon="12.2202413"><ele>631.0</ele><time>2026-04-11T08:18:33.604Z</time></trkpt><trkpt lat="43.5646642" lon="12.2202292"><ele>630.5</ele><time>2026-04-11T08:18:34.604Z</time></trkpt><trkpt lat="43.5647619" lon="12.2202123"><ele>630.0</ele><time>2026-04-11T08:18:35.604Z</time></trkpt><trkpt lat="43.5649002" lon="12.2201174"><ele>630.0</ele><time>2026-04-11T08:18:37.604Z</time></trkpt><trkpt lat="43.5650001" lon="12.220075"><ele>630.0</ele><time>2026-04-11T08:18:38.603Z</time></trkpt><trkpt lat="43.5650991" lon="12.2200645"><ele>630.0</ele><time>2026-04-11T08:18:39.603Z</time></trkpt><trkpt lat="43.565197" lon="12.2200572"><ele>630.0</ele><time>2026-04-11T08:18:40.603Z</time></trkpt><trkpt lat="43.5652868" lon="12.2200358"><ele>630.0</ele><time>2026-04-11T08:18:41.604Z</time></trkpt><trkpt lat="43.5653869" lon="12.2200301"><ele>628.8</ele><time>2026-04-11T08:18:42.604Z</time></trkpt><trkpt lat="43.5654996" lon="12.2200243"><ele>627.6</ele><time>2026-04-11T08:18:43.604Z</time></trkpt><trkpt lat="43.5655996" lon="12.2200193"><ele>626.4</ele><time>2026-04-11T08:18:44.604Z</time></trkpt><trkpt lat="43.5657173" lon="12.2200157"><ele>625.2</ele><time>2026-04-11T08:18:45.604Z</time></trkpt><trkpt lat="43.5658286" lon="12.220014"><ele>624.0</ele><time>2026-04-11T08:18:46.603Z</time></trkpt><trkpt lat="43.5659483" lon="12.2200084"><ele>624.0</ele><time>2026-04-11T08:18:47.604Z</time></trkpt><trkpt lat="43.5660622" lon="12.2200043"><ele>624.0</ele><time>2026-04-11T08:18:48.604Z</time></trkpt><trkpt lat="43.5661795" lon="12.2200043"><ele>624.0</ele><time>2026-04-11T08:18:49.603Z</time></trkpt><trkpt lat="43.5662916" lon="12.2200007"><ele>624.0</ele><time>2026-04-11T08:18:50.604Z</time></trkpt><trkpt lat="43.5664059" lon="12.2200039"><ele>623.2</ele><time>2026-04-11T08:18:51.604Z</time></trkpt><trkpt lat="43.5665162" lon="12.2199946"><ele>622.4</ele><time>2026-04-11T08:18:52.604Z</time></trkpt><trkpt lat="43.5666175" lon="12.2199543"><ele>621.6</ele><time>2026-04-11T08:18:53.603Z</time></trkpt><trkpt lat="43.5667238" lon="12.2199135"><ele>620.8</ele><time>2026-04-11T08:18:54.604Z</time></trkpt><trkpt lat="43.5668314" lon="12.2198667"><ele>620.0</ele><time>2026-04-11T08:18:55.604Z</time></trkpt><trkpt lat="43.5669435" lon="12.2198358"><ele>616.0</ele><time>2026-04-11T08:18:56.603Z</time></trkpt><trkpt lat="43.5670539" lon="12.2198103"><ele>612.0</ele><time>2026-04-11T08:18:57.603Z</time></trkpt><trkpt lat="43.5671674" lon="12.2197765"><ele>608.0</ele><time>2026-04-11T08:18:58.604Z</time></trkpt><trkpt lat="43.5672651" lon="12.2197276"><ele>604.0</ele><time>2026-04-11T08:18:59.604Z</time></trkpt><trkpt lat="43.5673642" lon="12.2196698"><ele>600.0</ele><time>2026-04-11T08:19:00.604Z</time></trkpt><trkpt lat="43.5674307" lon="12.2195784"><ele>600.0</ele><time>2026-04-11T08:19:01.602Z</time></trkpt><trkpt lat="43.5675129" lon="12.219502"><ele>600.0</ele><time>2026-04-11T08:19:02.604Z</time></trkpt><trkpt lat="43.5675953" lon="12.2194432"><ele>600.0</ele><time>2026-04-11T08:19:03.604Z</time></trkpt><trkpt lat="43.5676774" lon="12.2193938"><ele>600.0</ele><time>2026-04-11T08:19:04.603Z</time></trkpt><trkpt lat="43.5677845" lon="12.2194189"><ele>600.0</ele><time>2026-04-11T08:19:05.604Z</time></trkpt><trkpt lat="43.5678877" lon="12.2194275"><ele>599.2</ele><time>2026-04-11T08:19:06.603Z</time></trkpt><trkpt lat="43.5679999" lon="12.2194632"><ele>598.4</ele><time>2026-04-11T08:19:07.603Z</time></trkpt><trkpt lat="43.5680931" lon="12.2194946"><ele>597.6</ele><time>2026-04-11T08:19:08.604Z</time></trkpt><trkpt lat="43.5681939" lon="12.2195274"><ele>596.8</ele><time>2026-04-11T08:19:09.604Z</time></trkpt><trkpt lat="43.5683041" lon="12.2195975"><ele>596.0</ele><time>2026-04-11T08:19:10.604Z</time></trkpt><trkpt lat="43.5683951" lon="12.2196733"><ele>596.0</ele><time>2026-04-11T08:19:11.604Z</time></trkpt><trkpt lat="43.5684833" lon="12.2197754"><ele>596.0</ele><time>2026-04-11T08:19:12.603Z</time></trkpt><trkpt lat="43.568576" lon="12.2198625"><ele>596.0</ele><time>2026-04-11T08:19:13.604Z</time></trkpt><trkpt lat="43.5686747" lon="12.2199228"><ele>596.0</ele><time>2026-04-11T08:19:14.603Z</time></trkpt><trkpt lat="43.5687784" lon="12.2199608"><ele>596.0</ele><time>2026-04-11T08:19:15.604Z</time></trkpt><trkpt lat="43.5688813" lon="12.2199649"><ele>598.8</ele><time>2026-04-11T08:19:16.603Z</time></trkpt><trkpt lat="43.5689863" lon="12.2199576"><ele>601.6</ele><time>2026-04-11T08:19:17.604Z</time></trkpt><trkpt lat="43.5690893" lon="12.2199439"><ele>604.4</ele><time>2026-04-11T08:19:18.603Z</time></trkpt><trkpt lat="43.5691989" lon="12.2199445"><ele>607.2</ele><time>2026-04-11T08:19:19.604Z</time></trkpt><trkpt lat="43.5693076" lon="12.2199578"><ele>610.0</ele><time>2026-04-11T08:19:20.603Z</time></trkpt><trkpt lat="43.5694124" lon="12.2199792"><ele>610.0</ele><time>2026-04-11T08:19:21.603Z</time></trkpt><trkpt lat="43.5695141" lon="12.2200136"><ele>610.0</ele><time>2026-04-11T08:19:22.603Z</time></trkpt><trkpt lat="43.5696175" lon="12.2200531"><ele>610.0</ele><time>2026-04-11T08:19:23.604Z</time></trkpt><trkpt lat="43.5697146" lon="12.2201016"><ele>610.0</ele><time>2026-04-11T08:19:24.603Z</time></trkpt><trkpt lat="43.5698052" lon="12.2201646"><ele>610.0</ele><time>2026-04-11T08:19:25.604Z</time></trkpt><trkpt lat="43.5698877" lon="12.2202458"><ele>609.6</ele><time>2026-04-11T08:19:26.603Z</time></trkpt><trkpt lat="43.5699656" lon="12.2203365"><ele>609.2</ele><time>2026-04-11T08:19:27.604Z</time></trkpt><trkpt lat="43.5700416" lon="12.2204224"><ele>608.8</ele><time>2026-04-11T08:19:28.604Z</time></trkpt><trkpt lat="43.5701318" lon="12.2204913"><ele>608.4</ele><time>2026-04-11T08:19:29.604Z</time></trkpt><trkpt lat="43.5702215" lon="12.220534"><ele>608.0</ele><time>2026-04-11T08:19:30.604Z</time></trkpt><trkpt lat="43.5703133" lon="12.2205582"><ele>608.1999999999999</ele><time>2026-04-11T08:19:31.604Z</time></trkpt><trkpt lat="43.5704073" lon="12.2205821"><ele>608.4</ele><time>2026-04-11T08:19:32.604Z</time></trkpt><trkpt lat="43.5705052" lon="12.2205969"><ele>608.5999999999999</ele><time>2026-04-11T08:19:33.603Z</time></trkpt><trkpt lat="43.5706057" lon="12.2205977"><ele>608.8</ele><time>2026-04-11T08:19:34.603Z</time></trkpt><trkpt lat="43.570711" lon="12.2205944"><ele>609.0</ele><time>2026-04-11T08:19:35.604Z</time></trkpt><trkpt lat="43.5708162" lon="12.2205931"><ele>609.0</ele><time>2026-04-11T08:19:36.603Z</time></trkpt><trkpt lat="43.5709131" lon="12.2205945"><ele>609.0</ele><time>2026-04-11T08:19:37.604Z</time></trkpt><trkpt lat="43.5709989" lon="12.220597"><ele>609.0</ele><time>2026-04-11T08:19:38.604Z</time></trkpt><trkpt lat="43.5710699" lon="12.2205994"><ele>609.0</ele><time>2026-04-11T08:19:39.604Z</time></trkpt><trkpt lat="43.571168" lon="12.2206086"><ele>609.0</ele><time>2026-04-11T08:19:41.603Z</time></trkpt><trkpt lat="43.5712336" lon="12.2205733"><ele>609.0</ele><time>2026-04-11T08:19:43.602Z</time></trkpt><trkpt lat="43.5712959" lon="12.2205093"><ele>609.0</ele><time>2026-04-11T08:19:45.604Z</time></trkpt><trkpt lat="43.5713521" lon="12.2204478"><ele>609.0</ele><time>2026-04-11T08:19:47.604Z</time></trkpt><trkpt lat="43.5714367" lon="12.2203899"><ele>609.0</ele><time>2026-04-11T08:19:50.603Z</time></trkpt><trkpt lat="43.5715229" lon="12.2203389"><ele>609.0</ele><time>2026-04-11T08:19:53.604Z</time></trkpt><trkpt lat="43.5715929" lon="12.2203138"><ele>609.0</ele><time>2026-04-11T08:19:56.604Z</time></trkpt><trkpt lat="43.5716595" lon="12.2202753"><ele>609.0</ele><time>2026-04-11T08:19:58.603Z</time></trkpt><trkpt lat="43.5717329" lon="12.2202278"><ele>609.0</ele><time>2026-04-11T08:19:59.603Z</time></trkpt><trkpt lat="43.571811" lon="12.2201924"><ele>609.0</ele><time>2026-04-11T08:20:01.603Z</time></trkpt><trkpt lat="43.5720174" lon="12.2201638"><ele>609.0</ele><time>2026-04-11T08:20:07.603Z</time></trkpt><trkpt lat="43.572163" lon="12.220049"><ele>609.2857142857143</ele><time>2026-04-11T08:20:10.603Z</time></trkpt><trkpt lat="43.5722262" lon="12.2200029"><ele>609.5714285714286</ele><time>2026-04-11T08:20:11.603Z</time></trkpt><trkpt lat="43.5722891" lon="12.220011"><ele>609.8571428571429</ele><time>2026-04-11T08:20:12.604Z</time></trkpt><trkpt lat="43.572373" lon="12.2199767"><ele>610.1428571428571</ele><time>2026-04-11T08:20:13.603Z</time></trkpt><trkpt lat="43.5724264" lon="12.2199011"><ele>610.4285714285714</ele><time>2026-04-11T08:20:16.604Z</time></trkpt><trkpt lat="43.5724343" lon="12.2198118"><ele>610.7142857142858</ele><time>2026-04-11T08:20:19.603Z</time></trkpt><trkpt lat="43.5724688" lon="12.2197185"><ele>611.0</ele><time>2026-04-11T08:20:24.604Z</time></trkpt><trkpt lat="43.5724122" lon="12.2196035"><ele>614.6</ele><time>2026-04-11T08:20:27.604Z</time></trkpt><trkpt lat="43.5723552" lon="12.219481"><ele>618.2</ele><time>2026-04-11T08:20:29.604Z</time></trkpt><trkpt lat="43.5723249" lon="12.2193391"><ele>621.8</ele><time>2026-04-11T08:20:31.603Z</time></trkpt><trkpt lat="43.5723363" lon="12.2194267"><ele>625.4</ele><time>2026-04-11T08:20:33.037Z</time></trkpt><trkpt lat="43.5722938" lon="12.2193193"><ele>629.0</ele><time>2026-04-11T08:20:35.6Z</time></trkpt><trkpt lat="43.5722494" lon="12.2192132"><ele>621.5</ele><time>2026-04-11T08:20:38.643Z</time></trkpt><trkpt lat="43.5719884" lon="12.2190245"><ele>614.0</ele><time>2026-04-11T08:20:44.686Z</time></trkpt><trkpt lat="43.5717159" lon="12.2189447"><ele>622.75</ele><time>2026-04-11T08:20:45.601Z</time></trkpt><trkpt lat="43.5715387" lon="12.2188927"><ele>631.5</ele><time>2026-04-11T08:20:46.606Z</time></trkpt><trkpt lat="43.5714163" lon="12.2188499"><ele>640.25</ele><time>2026-04-11T08:20:47.604Z</time></trkpt><trkpt lat="43.5713196" lon="12.2188267"><ele>649.0</ele><time>2026-04-11T08:20:48.599Z</time></trkpt><trkpt lat="43.5712394" lon="12.2188048"><ele>647.2</ele><time>2026-04-11T08:20:49.602Z</time></trkpt><trkpt lat="43.5711676" lon="12.2187777"><ele>645.4000000000001</ele><time>2026-04-11T08:20:50.611Z</time></trkpt><trkpt lat="43.5710894" lon="12.2187556"><ele>643.6</ele><time>2026-04-11T08:20:51.6Z</time></trkpt><trkpt lat="43.5710132" lon="12.2187408"><ele>641.8</ele><time>2026-04-11T08:20:52.605Z</time></trkpt><trkpt lat="43.5709023" lon="12.2186933"><ele>640.0</ele><time>2026-04-11T08:20:54.599Z</time></trkpt><trkpt lat="43.5708193" lon="12.2185997"><ele>640.0</ele><time>2026-04-11T08:20:56.604Z</time></trkpt><trkpt lat="43.5707627" lon="12.2185261"><ele>640.0</ele><time>2026-04-11T08:20:58.609Z</time></trkpt><trkpt lat="43.5706955" lon="12.2184638"><ele>640.0</ele><time>2026-04-11T08:21:00.605Z</time></trkpt><trkpt lat="43.5706546" lon="12.218393"><ele>640.0</ele><time>2026-04-11T08:21:02.603Z</time></trkpt><trkpt lat="43.5706218" lon="12.2183182"><ele>640.0</ele><time>2026-04-11T08:21:04.608Z</time></trkpt><trkpt lat="43.5705814" lon="12.2182202"><ele>640.0</ele><time>2026-04-11T08:21:06.608Z</time></trkpt><trkpt lat="43.5705581" lon="12.2181049"><ele>647.6</ele><time>2026-04-11T08:21:08.599Z</time></trkpt><trkpt lat="43.5705411" lon="12.2179401"><ele>655.2</ele><time>2026-04-11T08:21:10.608Z</time></trkpt><trkpt lat="43.57053" lon="12.2178537"><ele>662.8</ele><time>2026-04-11T08:21:11.602Z</time></trkpt><trkpt lat="43.5705131" lon="12.2176921"><ele>670.4</ele><time>2026-04-11T08:21:13.6Z</time></trkpt><trkpt lat="43.5704505" lon="12.2175778"><ele>678.0</ele><time>2026-04-11T08:21:15.605Z</time></trkpt><trkpt lat="43.5703814" lon="12.2174933"><ele>675.8333333333334</ele><time>2026-04-11T08:21:17.599Z</time></trkpt><trkpt lat="43.5703034" lon="12.2174157"><ele>673.6666666666666</ele><time>2026-04-11T08:21:19.602Z</time></trkpt><trkpt lat="43.5702354" lon="12.2173775"><ele>671.5</ele><time>2026-04-11T08:21:21.606Z</time></trkpt><trkpt lat="43.5701677" lon="12.2172678"><ele>669.3333333333333</ele><time>2026-04-11T08:21:24.608Z</time></trkpt><trkpt lat="43.5701179" lon="12.2171484"><ele>667.1666666666666</ele><time>2026-04-11T08:21:26.598Z</time></trkpt><trkpt lat="43.5700924" lon="12.2170662"><ele>665.0</ele><time>2026-04-11T08:21:28.61Z</time></trkpt><trkpt lat="43.570076" lon="12.2169218"><ele>665.0</ele><time>2026-04-11T08:21:31.605Z</time></trkpt><trkpt lat="43.57007" lon="12.2168067"><ele>665.0</ele><time>2026-04-11T08:21:34.603Z</time></trkpt><trkpt lat="43.5700258" lon="12.2167358"><ele>665.0</ele><time>2026-04-11T08:21:36.609Z</time></trkpt><trkpt lat="43.5699464" lon="12.216672"><ele>665.0</ele><time>2026-04-11T08:21:38.6Z</time></trkpt><trkpt lat="43.5698729" lon="12.2166077"><ele>665.0</ele><time>2026-04-11T08:21:40.609Z</time></trkpt><trkpt lat="43.5697444" lon="12.2165515"><ele>665.0</ele><time>2026-04-11T08:21:42.6Z</time></trkpt><trkpt lat="43.5696425" lon="12.2165048"><ele>665.0</ele><time>2026-04-11T08:21:44.598Z</time></trkpt><trkpt lat="43.5695504" lon="12.2164597"><ele>665.0</ele><time>2026-04-11T08:21:46.601Z</time></trkpt><trkpt lat="43.5694676" lon="12.2164036"><ele>665.0</ele><time>2026-04-11T08:21:48.604Z</time></trkpt><trkpt lat="43.5694307" lon="12.2162955"><ele>665.0</ele><time>2026-04-11T08:21:50.605Z</time></trkpt><trkpt lat="43.5694438" lon="12.2162017"><ele>662.5</ele><time>2026-04-11T08:21:51.609Z</time></trkpt><trkpt lat="43.5694634" lon="12.21607"><ele>660.0</ele><time>2026-04-11T08:21:52.603Z</time></trkpt><trkpt lat="43.5694772" lon="12.2159591"><ele>657.5</ele><time>2026-04-11T08:21:53.602Z</time></trkpt><trkpt lat="43.569477" lon="12.2158291"><ele>655.0</ele><time>2026-04-11T08:21:54.606Z</time></trkpt><trkpt lat="43.5694689" lon="12.215741"><ele>652.5</ele><time>2026-04-11T08:21:55.599Z</time></trkpt><trkpt lat="43.5694753" lon="12.2156237"><ele>650.0</ele><time>2026-04-11T08:21:57.61Z</time></trkpt><trkpt lat="43.5694831" lon="12.2155362"><ele>655.3333333333333</ele><time>2026-04-11T08:21:58.6Z</time></trkpt><trkpt lat="43.5695286" lon="12.2154355"><ele>660.6666666666666</ele><time>2026-04-11T08:22:00.608Z</time></trkpt><trkpt lat="43.5695775" lon="12.2153712"><ele>666.0</ele><time>2026-04-11T08:22:04.608Z</time></trkpt><trkpt lat="43.56962" lon="12.2152895"><ele>671.3333333333334</ele><time>2026-04-11T08:22:07.6Z</time></trkpt><trkpt lat="43.5696666" lon="12.2152185"><ele>676.6666666666667</ele><time>2026-04-11T08:22:11.598Z</time></trkpt><trkpt lat="43.5697063" lon="12.2151446"><ele>682.0</ele><time>2026-04-11T08:22:14.61Z</time></trkpt><trkpt lat="43.5697492" lon="12.2150227"><ele>682.0</ele><time>2026-04-11T08:22:17.598Z</time></trkpt><trkpt lat="43.5698321" lon="12.2149472"><ele>682.0</ele><time>2026-04-11T08:22:19.607Z</time></trkpt><trkpt lat="43.5698678" lon="12.2148593"><ele>682.0</ele><time>2026-04-11T08:22:21.598Z</time></trkpt><trkpt lat="43.5699242" lon="12.2147441"><ele>682.0</ele><time>2026-04-11T08:22:23.609Z</time></trkpt><trkpt lat="43.5700111" lon="12.2145927"><ele>682.0</ele><time>2026-04-11T08:22:25.603Z</time></trkpt><trkpt lat="43.570109" lon="12.2145572"><ele>681.7142857142857</ele><time>2026-04-11T08:22:27.597Z</time></trkpt><trkpt lat="43.570164" lon="12.214511"><ele>681.4285714285714</ele><time>2026-04-11T08:22:28.607Z</time></trkpt><trkpt lat="43.5702206" lon="12.2144721"><ele>681.1428571428571</ele><time>2026-04-11T08:22:29.6Z</time></trkpt><trkpt lat="43.5702822" lon="12.2144288"><ele>680.8571428571429</ele><time>2026-04-11T08:22:30.604Z</time></trkpt><trkpt lat="43.5703417" lon="12.2143365"><ele>680.5714285714286</ele><time>2026-04-11T08:22:31.608Z</time></trkpt><trkpt lat="43.5703449" lon="12.2142409"><ele>680.2857142857143</ele><time>2026-04-11T08:22:32.61Z</time></trkpt><trkpt lat="43.5703813" lon="12.214149"><ele>680.0</ele><time>2026-04-11T08:22:34.605Z</time></trkpt><trkpt lat="43.5704409" lon="12.2140043"><ele>684.8</ele><time>2026-04-11T08:22:36.602Z</time></trkpt><trkpt lat="43.5704782" lon="12.2138778"><ele>689.6</ele><time>2026-04-11T08:22:38.6Z</time></trkpt><trkpt lat="43.5705112" lon="12.2137183"><ele>694.4000000000001</ele><time>2026-04-11T08:22:40.6Z</time></trkpt><trkpt lat="43.5705619" lon="12.2136255"><ele>699.2</ele><time>2026-04-11T08:22:41.598Z</time></trkpt><trkpt lat="43.5705925" lon="12.213522"><ele>704.0</ele><time>2026-04-11T08:22:42.603Z</time></trkpt><trkpt lat="43.570639" lon="12.2134295"><ele>704.0</ele><time>2026-04-11T08:22:43.6Z</time></trkpt><trkpt lat="43.570666" lon="12.2132795"><ele>704.0</ele><time>2026-04-11T08:22:44.599Z</time></trkpt><trkpt lat="43.5706903" lon="12.2131618"><ele>704.0</ele><time>2026-04-11T08:22:46.608Z</time></trkpt><trkpt lat="43.5706781" lon="12.2130759"><ele>704.0</ele><time>2026-04-11T08:22:48.605Z</time></trkpt><trkpt lat="43.570622" lon="12.212999"><ele>704.0</ele><time>2026-04-11T08:22:51.603Z</time></trkpt><trkpt lat="43.5704773" lon="12.2129994"><ele>706.4000000000001</ele><time>2026-04-11T08:22:53.608Z</time></trkpt><trkpt lat="43.5703663" lon="12.212981"><ele>708.8</ele><time>2026-04-11T08:22:55.6Z</time></trkpt><trkpt lat="43.5702862" lon="12.2129027"><ele>711.2</ele><time>2026-04-11T08:22:57.598Z</time></trkpt><trkpt lat="43.570194" lon="12.2128049"><ele>713.5999999999999</ele><time>2026-04-11T08:22:59.607Z</time></trkpt><trkpt lat="43.570088" lon="12.2127762"><ele>716.0</ele><time>2026-04-11T08:23:01.601Z</time></trkpt><trkpt lat="43.5700044" lon="12.2127873"><ele>717.1999999999999</ele><time>2026-04-11T08:23:03.609Z</time></trkpt><trkpt lat="43.5698833" lon="12.2129275"><ele>718.4</ele><time>2026-04-11T08:23:05.61Z</time></trkpt><trkpt lat="43.5697978" lon="12.2129856"><ele>719.6</ele><time>2026-04-11T08:23:07.61Z</time></trkpt><trkpt lat="43.569718" lon="12.2130296"><ele>720.8</ele><time>2026-04-11T08:23:09.599Z</time></trkpt><trkpt lat="43.5696142" lon="12.2130413"><ele>722.0</ele><time>2026-04-11T08:23:12.608Z</time></trkpt><trkpt lat="43.5695018" lon="12.2130427"><ele>724.8</ele><time>2026-04-11T08:23:14.602Z</time></trkpt><trkpt lat="43.5694269" lon="12.213059"><ele>727.6</ele><time>2026-04-11T08:23:15.61Z</time></trkpt><trkpt lat="43.5693603" lon="12.2130522"><ele>730.4</ele><time>2026-04-11T08:23:16.606Z</time></trkpt><trkpt lat="43.5692319" lon="12.2131107"><ele>733.1999999999999</ele><time>2026-04-11T08:23:17.607Z</time></trkpt><trkpt lat="43.5691646" lon="12.2131396"><ele>736.0</ele><time>2026-04-11T08:23:18.604Z</time></trkpt><trkpt lat="43.5690412" lon="12.2131474"><ele>736.0</ele><time>2026-04-11T08:23:20.6Z</time></trkpt><trkpt lat="43.5689544" lon="12.2131276"><ele>736.0</ele><time>2026-04-11T08:23:21.61Z</time></trkpt><trkpt lat="43.5688588" lon="12.2131772"><ele>736.0</ele><time>2026-04-11T08:23:22.609Z</time></trkpt><trkpt lat="43.5687857" lon="12.2131609"><ele>736.0</ele><time>2026-04-11T08:23:23.609Z</time></trkpt><trkpt lat="43.5687193" lon="12.213144"><ele>736.0</ele><time>2026-04-11T08:23:24.61Z</time></trkpt><trkpt lat="43.568576" lon="12.213128"><ele>735.8</ele><time>2026-04-11T08:23:26.598Z</time></trkpt><trkpt lat="43.5684799" lon="12.2131357"><ele>735.5999999999999</ele><time>2026-04-11T08:23:27.599Z</time></trkpt><trkpt lat="43.5684153" lon="12.213142"><ele>735.4</ele><time>2026-04-11T08:23:28.602Z</time></trkpt><trkpt lat="43.5682881" lon="12.2131149"><ele>735.2</ele><time>2026-04-11T08:23:30.599Z</time></trkpt><trkpt lat="43.5681875" lon="12.2130939"><ele>735.0</ele><time>2026-04-11T08:23:32.603Z</time></trkpt><trkpt lat="43.5681265" lon="12.2129858"><ele>735.0</ele><time>2026-04-11T08:23:34.608Z</time></trkpt><trkpt lat="43.5680211" lon="12.2127955"><ele>735.0</ele><time>2026-04-11T08:23:36.607Z</time></trkpt><trkpt lat="43.5679717" lon="12.2127219"><ele>735.0</ele><time>2026-04-11T08:23:37.608Z</time></trkpt><trkpt lat="43.567901" lon="12.2126628"><ele>735.0</ele><time>2026-04-11T08:23:38.601Z</time></trkpt><trkpt lat="43.567782" lon="12.2126201"><ele>734.6</ele><time>2026-04-11T08:23:40.6Z</time></trkpt><trkpt lat="43.5676888" lon="12.2125238"><ele>734.2</ele><time>2026-04-11T08:23:42.604Z</time></trkpt><trkpt lat="43.5676457" lon="12.2123943"><ele>733.8</ele><time>2026-04-11T08:23:44.601Z</time></trkpt><trkpt lat="43.5675768" lon="12.2122764"><ele>733.4</ele><time>2026-04-11T08:23:46.606Z</time></trkpt><trkpt lat="43.5675203" lon="12.2121621"><ele>733.0</ele><time>2026-04-11T08:23:48.61Z</time></trkpt><trkpt lat="43.567496" lon="12.2120568"><ele>733.0</ele><time>2026-04-11T08:23:50.601Z</time></trkpt><trkpt lat="43.5674681" lon="12.2119396"><ele>733.0</ele><time>2026-04-11T08:23:52.606Z</time></trkpt><trkpt lat="43.5674394" lon="12.211853"><ele>733.0</ele><time>2026-04-11T08:23:53.602Z</time></trkpt><trkpt lat="43.5673664" lon="12.2117901"><ele>733.0</ele><time>2026-04-11T08:23:55.602Z</time></trkpt><trkpt lat="43.567225" lon="12.2117472"><ele>733.0</ele><time>2026-04-11T08:23:57.599Z</time></trkpt><trkpt lat="43.5671312" lon="12.2116478"><ele>733.0</ele><time>2026-04-11T08:23:59.599Z</time></trkpt><trkpt lat="43.5670787" lon="12.2115977"><ele>733.0</ele><time>2026-04-11T08:24:00.607Z</time></trkpt><trkpt lat="43.5670217" lon="12.2115424"><ele>733.0</ele><time>2026-04-11T08:24:01.604Z</time></trkpt><trkpt lat="43.5669604" lon="12.2114916"><ele>733.0</ele><time>2026-04-11T08:24:02.61Z</time></trkpt><trkpt lat="43.5669073" lon="12.2114447"><ele>733.0</ele><time>2026-04-11T08:24:03.597Z</time></trkpt><trkpt lat="43.5668568" lon="12.2113901"><ele>733.0</ele><time>2026-04-11T08:24:04.609Z</time></trkpt><trkpt lat="43.5667569" lon="12.2112864"><ele>730.5999999999999</ele><time>2026-04-11T08:24:06.607Z</time></trkpt><trkpt lat="43.5666598" lon="12.2111801"><ele>728.1999999999999</ele><time>2026-04-11T08:24:08.604Z</time></trkpt><trkpt lat="43.5666073" lon="12.2111186"><ele>725.8</ele><time>2026-04-11T08:24:09.602Z</time></trkpt><trkpt lat="43.5665564" lon="12.2110601"><ele>723.4</ele><time>2026-04-11T08:24:10.598Z</time></trkpt><trkpt lat="43.5665023" lon="12.2109204"><ele>721.0</ele><time>2026-04-11T08:24:12.604Z</time></trkpt><trkpt lat="43.5664821" lon="12.2107642"><ele>722.8</ele><time>2026-04-11T08:24:14.602Z</time></trkpt><trkpt lat="43.5665178" lon="12.2106269"><ele>724.5999999999999</ele><time>2026-04-11T08:24:16.601Z</time></trkpt><trkpt lat="43.5665332" lon="12.2105006"><ele>726.4</ele><time>2026-04-11T08:24:19.609Z</time></trkpt><trkpt lat="43.5665276" lon="12.2103824"><ele>728.2</ele><time>2026-04-11T08:24:21.609Z</time></trkpt><trkpt lat="43.5665226" lon="12.2102387"><ele>730.0</ele><time>2026-04-11T08:24:23.601Z</time></trkpt><trkpt lat="43.5665579" lon="12.2101657"><ele>730.0</ele><time>2026-04-11T08:24:26.609Z</time></trkpt><trkpt lat="43.5664877" lon="12.2100356"><ele>730.0</ele><time>2026-04-11T08:24:30.601Z</time></trkpt><trkpt lat="43.5663968" lon="12.2099697"><ele>730.0</ele><time>2026-04-11T08:24:32.608Z</time></trkpt><trkpt lat="43.5663184" lon="12.209918"><ele>730.0</ele><time>2026-04-11T08:24:34.609Z</time></trkpt><trkpt lat="43.5662337" lon="12.2098407"><ele>730.0</ele><time>2026-04-11T08:24:36.606Z</time></trkpt><trkpt lat="43.5661328" lon="12.2097403"><ele>727.4</ele><time>2026-04-11T08:24:38.608Z</time></trkpt><trkpt lat="43.5660723" lon="12.2096903"><ele>724.8</ele><time>2026-04-11T08:24:39.605Z</time></trkpt><trkpt lat="43.5659992" lon="12.209607"><ele>722.2</ele><time>2026-04-11T08:24:40.605Z</time></trkpt><trkpt lat="43.5659839" lon="12.2097055"><ele>719.6</ele><time>2026-04-11T08:24:41.6Z</time></trkpt><trkpt lat="43.5658584" lon="12.2097821"><ele>717.0</ele><time>2026-04-11T08:24:43.601Z</time></trkpt><trkpt lat="43.5657575" lon="12.2098359"><ele>717.0</ele><time>2026-04-11T08:24:45.608Z</time></trkpt><trkpt lat="43.5656526" lon="12.209906"><ele>717.0</ele><time>2026-04-11T08:24:47.61Z</time></trkpt><trkpt lat="43.5655502" lon="12.2099592"><ele>717.0</ele><time>2026-04-11T08:24:49.602Z</time></trkpt><trkpt lat="43.5653895" lon="12.2099842"><ele>717.0</ele><time>2026-04-11T08:24:51.609Z</time></trkpt><trkpt lat="43.5653218" lon="12.2100203"><ele>720.0</ele><time>2026-04-11T08:24:52.609Z</time></trkpt><trkpt lat="43.5652531" lon="12.2100545"><ele>723.0</ele><time>2026-04-11T08:24:53.599Z</time></trkpt><trkpt lat="43.5651849" lon="12.2100885"><ele>726.0</ele><time>2026-04-11T08:24:54.608Z</time></trkpt><trkpt lat="43.5651035" lon="12.2100856"><ele>729.0</ele><time>2026-04-11T08:24:55.607Z</time></trkpt><trkpt lat="43.5650231" lon="12.210111"><ele>732.0</ele><time>2026-04-11T08:24:56.599Z</time></trkpt><trkpt lat="43.5649131" lon="12.2100944"><ele>735.0</ele><time>2026-04-11T08:24:57.599Z</time></trkpt><trkpt lat="43.5648031" lon="12.2100786"><ele>735.0</ele><time>2026-04-11T08:24:58.606Z</time></trkpt><trkpt lat="43.5646874" lon="12.2100873"><ele>735.0</ele><time>2026-04-11T08:24:59.604Z</time></trkpt><trkpt lat="43.5646045" lon="12.2100809"><ele>735.0</ele><time>2026-04-11T08:25:00.605Z</time></trkpt><trkpt lat="43.5644876" lon="12.210174"><ele>735.0</ele><time>2026-04-11T08:25:02.61Z</time></trkpt><trkpt lat="43.5643862" lon="12.2102826"><ele>736.8</ele><time>2026-04-11T08:25:04.598Z</time></trkpt><trkpt lat="43.5643309" lon="12.2103264"><ele>738.6</ele><time>2026-04-11T08:25:05.598Z</time></trkpt><trkpt lat="43.5642196" lon="12.2104176"><ele>740.4000000000001</ele><time>2026-04-11T08:25:07.61Z</time></trkpt><trkpt lat="43.5641083" lon="12.2104806"><ele>742.2</ele><time>2026-04-11T08:25:09.607Z</time></trkpt><trkpt lat="43.5639987" lon="12.2105323"><ele>744.0</ele><time>2026-04-11T08:25:11.611Z</time></trkpt><trkpt lat="43.563879" lon="12.2105712"><ele>744.0</ele><time>2026-04-11T08:25:13.605Z</time></trkpt><trkpt lat="43.5637523" lon="12.2105964"><ele>744.0</ele><time>2026-04-11T08:25:15.603Z</time></trkpt><trkpt lat="43.5636463" lon="12.2106398"><ele>744.0</ele><time>2026-04-11T08:25:17.602Z</time></trkpt><trkpt lat="43.5635517" lon="12.2106801"><ele>744.0</ele><time>2026-04-11T08:25:19.6Z</time></trkpt><trkpt lat="43.5634419" lon="12.2107042"><ele>744.0</ele><time>2026-04-11T08:25:21.604Z</time></trkpt><trkpt lat="43.5633396" lon="12.2107201"><ele>743.8333333333334</ele><time>2026-04-11T08:25:23.604Z</time></trkpt><trkpt lat="43.5632418" lon="12.2107295"><ele>743.6666666666666</ele><time>2026-04-11T08:25:25.598Z</time></trkpt><trkpt lat="43.5631496" lon="12.2107007"><ele>743.5</ele><time>2026-04-11T08:25:27.601Z</time></trkpt><trkpt lat="43.5630837" lon="12.2106697"><ele>743.3333333333333</ele><time>2026-04-11T08:25:30.61Z</time></trkpt><trkpt lat="43.5630285" lon="12.2105893"><ele>743.1666666666666</ele><time>2026-04-11T08:25:34.607Z</time></trkpt><trkpt lat="43.5629913" lon="12.2104665"><ele>743.0</ele><time>2026-04-11T08:25:36.603Z</time></trkpt><trkpt lat="43.5629521" lon="12.2103959"><ele>743.0</ele><time>2026-04-11T08:25:37.597Z</time></trkpt><trkpt lat="43.5628891" lon="12.2103199"><ele>743.0</ele><time>2026-04-11T08:25:38.601Z</time></trkpt><trkpt lat="43.5628261" lon="12.2102353"><ele>743.0</ele><time>2026-04-11T08:25:39.603Z</time></trkpt><trkpt lat="43.5627673" lon="12.2101402"><ele>743.0</ele><time>2026-04-11T08:25:40.605Z</time></trkpt><trkpt lat="43.5627278" lon="12.2100233"><ele>743.0</ele><time>2026-04-11T08:25:41.601Z</time></trkpt><trkpt lat="43.5626891" lon="12.2098954"><ele>739.0</ele><time>2026-04-11T08:25:42.598Z</time></trkpt><trkpt lat="43.5626506" lon="12.2097602"><ele>735.0</ele><time>2026-04-11T08:25:43.607Z</time></trkpt><trkpt lat="43.5626188" lon="12.2096256"><ele>731.0</ele><time>2026-04-11T08:25:44.6Z</time></trkpt><trkpt lat="43.5625886" lon="12.209489"><ele>727.0</ele><time>2026-04-11T08:25:45.604Z</time></trkpt><trkpt lat="43.5625564" lon="12.2093483"><ele>723.0</ele><time>2026-04-11T08:25:46.598Z</time></trkpt><trkpt lat="43.5625282" lon="12.2092048"><ele>723.0</ele><time>2026-04-11T08:25:47.606Z</time></trkpt><trkpt lat="43.5624978" lon="12.2090654"><ele>723.0</ele><time>2026-04-11T08:25:48.603Z</time></trkpt><trkpt lat="43.5624687" lon="12.2089303"><ele>723.0</ele><time>2026-04-11T08:25:49.602Z</time></trkpt><trkpt lat="43.5624383" lon="12.2087964"><ele>723.0</ele><time>2026-04-11T08:25:50.605Z</time></trkpt><trkpt lat="43.5624085" lon="12.2086523"><ele>723.0</ele><time>2026-04-11T08:25:51.601Z</time></trkpt><trkpt lat="43.5623781" lon="12.2085004"><ele>724.25</ele><time>2026-04-11T08:25:52.61Z</time></trkpt><trkpt lat="43.5623458" lon="12.2083485"><ele>725.5</ele><time>2026-04-11T08:25:53.609Z</time></trkpt><trkpt lat="43.5623153" lon="12.2081997"><ele>726.75</ele><time>2026-04-11T08:25:54.605Z</time></trkpt><trkpt lat="43.5622803" lon="12.2080467"><ele>728.0</ele><time>2026-04-11T08:25:55.6Z</time></trkpt><trkpt lat="43.5622471" lon="12.2078889"><ele>728.25</ele><time>2026-04-11T08:25:56.607Z</time></trkpt><trkpt lat="43.5622113" lon="12.2077285"><ele>728.5</ele><time>2026-04-11T08:25:57.605Z</time></trkpt><trkpt lat="43.5621753" lon="12.2075694"><ele>728.75</ele><time>2026-04-11T08:25:58.6Z</time></trkpt><trkpt lat="43.5621424" lon="12.2074146"><ele>729.0</ele><time>2026-04-11T08:25:59.6Z</time></trkpt><trkpt lat="43.5621102" lon="12.207262"><ele>727.5</ele><time>2026-04-11T08:26:00.6Z</time></trkpt><trkpt lat="43.5620797" lon="12.2071166"><ele>726.0</ele><time>2026-04-11T08:26:01.604Z</time></trkpt><trkpt lat="43.5620559" lon="12.2069628"><ele>724.5</ele><time>2026-04-11T08:26:02.61Z</time></trkpt><trkpt lat="43.562036" lon="12.2068046"><ele>723.0</ele><time>2026-04-11T08:26:03.6Z</time></trkpt><trkpt lat="43.5620196" lon="12.206643"><ele>718.0</ele><time>2026-04-11T08:26:04.611Z</time></trkpt><trkpt lat="43.5620066" lon="12.2064773"><ele>713.0</ele><time>2026-04-11T08:26:05.606Z</time></trkpt><trkpt lat="43.5619964" lon="12.2063138"><ele>708.0</ele><time>2026-04-11T08:26:06.608Z</time></trkpt><trkpt lat="43.5619867" lon="12.206148"><ele>703.0</ele><time>2026-04-11T08:26:07.609Z</time></trkpt><trkpt lat="43.5619766" lon="12.2059821"><ele>703.0</ele><time>2026-04-11T08:26:08.604Z</time></trkpt><trkpt lat="43.5619675" lon="12.2058176"><ele>703.0</ele><time>2026-04-11T08:26:09.603Z</time></trkpt><trkpt lat="43.561958" lon="12.2056537"><ele>703.0</ele><time>2026-04-11T08:26:10.606Z</time></trkpt><trkpt lat="43.5619478" lon="12.205487"><ele>703.0</ele><time>2026-04-11T08:26:11.601Z</time></trkpt><trkpt lat="43.5619355" lon="12.2053203"><ele>703.0</ele><time>2026-04-11T08:26:12.599Z</time></trkpt><trkpt lat="43.5619285" lon="12.2051472"><ele>703.0</ele><time>2026-04-11T08:26:13.606Z</time></trkpt><trkpt lat="43.5619242" lon="12.2049789"><ele>703.0</ele><time>2026-04-11T08:26:14.604Z</time></trkpt><trkpt lat="43.5619201" lon="12.2048151"><ele>703.0</ele><time>2026-04-11T08:26:15.602Z</time></trkpt><trkpt lat="43.5619128" lon="12.2046556"><ele>702.0</ele><time>2026-04-11T08:26:16.602Z</time></trkpt><trkpt lat="43.5619057" lon="12.2045071"><ele>701.0</ele><time>2026-04-11T08:26:17.61Z</time></trkpt><trkpt lat="43.5618993" lon="12.2043692"><ele>700.0</ele><time>2026-04-11T08:26:18.606Z</time></trkpt><trkpt lat="43.5618944" lon="12.2042393"><ele>699.0</ele><time>2026-04-11T08:26:19.609Z</time></trkpt><trkpt lat="43.5618896" lon="12.2041325"><ele>698.0</ele><time>2026-04-11T08:26:20.604Z</time></trkpt><trkpt lat="43.5618894" lon="12.2039982"><ele>698.5</ele><time>2026-04-11T08:26:22.599Z</time></trkpt><trkpt lat="43.5619294" lon="12.2039218"><ele>699.0</ele><time>2026-04-11T08:26:24.607Z</time></trkpt><trkpt lat="43.5619869" lon="12.2038367"><ele>699.5</ele><time>2026-04-11T08:26:26.611Z</time></trkpt><trkpt lat="43.5620582" lon="12.2037693"><ele>700.0</ele><time>2026-04-11T08:26:29.598Z</time></trkpt><trkpt lat="43.562127" lon="12.2036938"><ele>700.5</ele><time>2026-04-11T08:26:32.605Z</time></trkpt><trkpt lat="43.5622053" lon="12.2036177"><ele>701.0</ele><time>2026-04-11T08:26:34.6Z</time></trkpt><trkpt lat="43.562278" lon="12.2035378"><ele>701.0</ele><time>2026-04-11T08:26:36.597Z</time></trkpt><trkpt lat="43.5623758" lon="12.2034434"><ele>701.0</ele><time>2026-04-11T08:26:38.604Z</time></trkpt><trkpt lat="43.5624273" lon="12.203388"><ele>701.0</ele><time>2026-04-11T08:26:39.599Z</time></trkpt><trkpt lat="43.5624803" lon="12.2033318"><ele>701.0</ele><time>2026-04-11T08:26:40.6Z</time></trkpt><trkpt lat="43.5625406" lon="12.2032783"><ele>701.0</ele><time>2026-04-11T08:26:41.607Z</time></trkpt><trkpt lat="43.5626047" lon="12.2032172"><ele>701.0</ele><time>2026-04-11T08:26:42.602Z</time></trkpt><trkpt lat="43.5626749" lon="12.2031503"><ele>700.1999999999999</ele><time>2026-04-11T08:26:43.604Z</time></trkpt><trkpt lat="43.5627492" lon="12.203074"><ele>699.4</ele><time>2026-04-11T08:26:44.598Z</time></trkpt><trkpt lat="43.5628257" lon="12.2029917"><ele>698.6</ele><time>2026-04-11T08:26:45.61Z</time></trkpt><trkpt lat="43.5629075" lon="12.2029074"><ele>697.8</ele><time>2026-04-11T08:26:46.601Z</time></trkpt><trkpt lat="43.5629928" lon="12.202824"><ele>697.0</ele><time>2026-04-11T08:26:47.608Z</time></trkpt><trkpt lat="43.5630786" lon="12.2027375"><ele>700.0</ele><time>2026-04-11T08:26:48.604Z</time></trkpt><trkpt lat="43.5632606" lon="12.2025471"><ele>703.0</ele><time>2026-04-11T08:26:50.605Z</time></trkpt><trkpt lat="43.5633584" lon="12.2024417"><ele>706.0</ele><time>2026-04-11T08:26:51.601Z</time></trkpt><trkpt lat="43.5634508" lon="12.2023536"><ele>706.8</ele><time>2026-04-11T08:26:52.605Z</time></trkpt><trkpt lat="43.5635419" lon="12.2022927"><ele>707.5999999999999</ele><time>2026-04-11T08:26:53.611Z</time></trkpt><trkpt lat="43.5636357" lon="12.2022711"><ele>708.4</ele><time>2026-04-11T08:26:54.599Z</time></trkpt><trkpt lat="43.5637312" lon="12.2022911"><ele>709.2</ele><time>2026-04-11T08:26:55.605Z</time></trkpt><trkpt lat="43.5638266" lon="12.2023447"><ele>710.0</ele><time>2026-04-11T08:26:56.609Z</time></trkpt><trkpt lat="43.5639203" lon="12.2024117"><ele>710.0</ele><time>2026-04-11T08:26:57.604Z</time></trkpt><trkpt lat="43.5640088" lon="12.2024812"><ele>710.0</ele><time>2026-04-11T08:26:58.599Z</time></trkpt><trkpt lat="43.5640993" lon="12.2025453"><ele>710.0</ele><time>2026-04-11T08:26:59.601Z</time></trkpt><trkpt lat="43.564179" lon="12.2026009"><ele>710.0</ele><time>2026-04-11T08:27:00.598Z</time></trkpt><trkpt lat="43.5642672" lon="12.2026452"><ele>710.0</ele><time>2026-04-11T08:27:01.611Z</time></trkpt><trkpt lat="43.5643469" lon="12.2026808"><ele>710.0</ele><time>2026-04-11T08:27:02.599Z</time></trkpt><trkpt lat="43.5644259" lon="12.2026968"><ele>710.0</ele><time>2026-04-11T08:27:03.601Z</time></trkpt><trkpt lat="43.5645073" lon="12.202705"><ele>710.0</ele><time>2026-04-11T08:27:04.606Z</time></trkpt><trkpt lat="43.5645853" lon="12.2027073"><ele>710.0</ele><time>2026-04-11T08:27:05.602Z</time></trkpt><trkpt lat="43.5646846" lon="12.2027217"><ele>710.0</ele><time>2026-04-11T08:27:06.602Z</time></trkpt><trkpt lat="43.5647819" lon="12.2027357"><ele>710.0</ele><time>2026-04-11T08:27:07.598Z</time></trkpt><trkpt lat="43.564872" lon="12.2027478"><ele>709.0</ele><time>2026-04-11T08:27:08.61Z</time></trkpt><trkpt lat="43.5649639" lon="12.2027409"><ele>708.0</ele><time>2026-04-11T08:27:09.604Z</time></trkpt><trkpt lat="43.5650611" lon="12.2027411"><ele>707.0</ele><time>2026-04-11T08:27:10.597Z</time></trkpt><trkpt lat="43.5652522" lon="12.2027445"><ele>706.0</ele><time>2026-04-11T08:27:12.6Z</time></trkpt><trkpt lat="43.5653493" lon="12.2027413"><ele>703.8</ele><time>2026-04-11T08:27:13.603Z</time></trkpt><trkpt lat="43.5654471" lon="12.20273"><ele>701.5999999999999</ele><time>2026-04-11T08:27:14.604Z</time></trkpt><trkpt lat="43.5655469" lon="12.2027043"><ele>699.4</ele><time>2026-04-11T08:27:15.61Z</time></trkpt><trkpt lat="43.565648" lon="12.2026688"><ele>697.2</ele><time>2026-04-11T08:27:16.606Z</time></trkpt><trkpt lat="43.5657504" lon="12.2026295"><ele>695.0</ele><time>2026-04-11T08:27:17.606Z</time></trkpt><trkpt lat="43.5658504" lon="12.2025951"><ele>695.0</ele><time>2026-04-11T08:27:18.6Z</time></trkpt><trkpt lat="43.5659501" lon="12.2025839"><ele>695.0</ele><time>2026-04-11T08:27:19.599Z</time></trkpt><trkpt lat="43.5660505" lon="12.2026011"><ele>695.0</ele><time>2026-04-11T08:27:20.61Z</time></trkpt><trkpt lat="43.5661459" lon="12.2026337"><ele>695.0</ele><time>2026-04-11T08:27:21.601Z</time></trkpt><trkpt lat="43.5662417" lon="12.202664"><ele>695.0</ele><time>2026-04-11T08:27:22.608Z</time></trkpt><trkpt lat="43.5663392" lon="12.2026892"><ele>694.0</ele><time>2026-04-11T08:27:23.609Z</time></trkpt><trkpt lat="43.5664368" lon="12.2027041"><ele>693.0</ele><time>2026-04-11T08:27:24.605Z</time></trkpt><trkpt lat="43.5665278" lon="12.2026994"><ele>692.0</ele><time>2026-04-11T08:27:25.6Z</time></trkpt><trkpt lat="43.5666098" lon="12.2026755"><ele>691.0</ele><time>2026-04-11T08:27:26.6Z</time></trkpt><trkpt lat="43.5667345" lon="12.2025993"><ele>690.0</ele><time>2026-04-11T08:27:28.277Z</time></trkpt><trkpt lat="43.5668302" lon="12.2025129"><ele>690.0</ele><time>2026-04-11T08:27:29.608Z</time></trkpt><trkpt lat="43.5669049" lon="12.2024549"><ele>690.0</ele><time>2026-04-11T08:27:30.608Z</time></trkpt><trkpt lat="43.5669825" lon="12.2023974"><ele>690.0</ele><time>2026-04-11T08:27:31.607Z</time></trkpt><trkpt lat="43.5670591" lon="12.2023414"><ele>690.0</ele><time>2026-04-11T08:27:32.608Z</time></trkpt><trkpt lat="43.5671387" lon="12.2022909"><ele>690.0</ele><time>2026-04-11T08:27:33.608Z</time></trkpt><trkpt lat="43.5672158" lon="12.2022427"><ele>690.0</ele><time>2026-04-11T08:27:34.608Z</time></trkpt><trkpt lat="43.567297" lon="12.2021954"><ele>686.6</ele><time>2026-04-11T08:27:35.608Z</time></trkpt><trkpt lat="43.5673825" lon="12.2021509"><ele>683.2</ele><time>2026-04-11T08:27:36.607Z</time></trkpt><trkpt lat="43.5675477" lon="12.2020809"><ele>679.8</ele><time>2026-04-11T08:27:38.608Z</time></trkpt><trkpt lat="43.5676341" lon="12.2020468"><ele>676.4</ele><time>2026-04-11T08:27:39.608Z</time></trkpt><trkpt lat="43.5677199" lon="12.2020158"><ele>673.0</ele><time>2026-04-11T08:27:40.608Z</time></trkpt><trkpt lat="43.5678081" lon="12.2019841"><ele>673.0</ele><time>2026-04-11T08:27:41.608Z</time></trkpt><trkpt lat="43.5678915" lon="12.2019546"><ele>673.0</ele><time>2026-04-11T08:27:42.607Z</time></trkpt><trkpt lat="43.5679774" lon="12.2019224"><ele>673.0</ele><time>2026-04-11T08:27:43.608Z</time></trkpt><trkpt lat="43.5680625" lon="12.2018915"><ele>673.0</ele><time>2026-04-11T08:27:44.608Z</time></trkpt><trkpt lat="43.5681484" lon="12.2018635"><ele>673.0</ele><time>2026-04-11T08:27:45.608Z</time></trkpt><trkpt lat="43.5682362" lon="12.2018342"><ele>673.0</ele><time>2026-04-11T08:27:46.608Z</time></trkpt><trkpt lat="43.5683208" lon="12.2017957"><ele>673.0</ele><time>2026-04-11T08:27:47.608Z</time></trkpt><trkpt lat="43.5684029" lon="12.2017506"><ele>673.0</ele><time>2026-04-11T08:27:48.607Z</time></trkpt><trkpt lat="43.568482" lon="12.2017041"><ele>673.0</ele><time>2026-04-11T08:27:49.608Z</time></trkpt><trkpt lat="43.5685606" lon="12.2016623"><ele>673.0</ele><time>2026-04-11T08:27:50.608Z</time></trkpt><trkpt lat="43.5686317" lon="12.2016248"><ele>673.0</ele><time>2026-04-11T08:27:51.607Z</time></trkpt><trkpt lat="43.5687181" lon="12.2015902"><ele>673.0</ele><time>2026-04-11T08:27:52.607Z</time></trkpt><trkpt lat="43.5688033" lon="12.2015611"><ele>673.3333333333334</ele><time>2026-04-11T08:27:53.608Z</time></trkpt><trkpt lat="43.5688893" lon="12.2015377"><ele>673.6666666666667</ele><time>2026-04-11T08:27:54.608Z</time></trkpt><trkpt lat="43.5689697" lon="12.2015152"><ele>674.0</ele><time>2026-04-11T08:27:55.608Z</time></trkpt><trkpt lat="43.5690541" lon="12.2014857"><ele>674.3333333333334</ele><time>2026-04-11T08:27:56.608Z</time></trkpt><trkpt lat="43.5691394" lon="12.201456"><ele>674.6666666666666</ele><time>2026-04-11T08:27:57.608Z</time></trkpt><trkpt lat="43.5692256" lon="12.2014296"><ele>675.0</ele><time>2026-04-11T08:27:58.608Z</time></trkpt><trkpt lat="43.5693125" lon="12.2014077"><ele>673.6666666666666</ele><time>2026-04-11T08:27:59.608Z</time></trkpt><trkpt lat="43.569396" lon="12.2013884"><ele>672.3333333333334</ele><time>2026-04-11T08:28:00.608Z</time></trkpt><trkpt lat="43.5694756" lon="12.201356"><ele>671.0</ele><time>2026-04-11T08:28:01.608Z</time></trkpt><trkpt lat="43.5695581" lon="12.2013111"><ele>669.6666666666667</ele><time>2026-04-11T08:28:02.608Z</time></trkpt><trkpt lat="43.5696339" lon="12.2012529"><ele>668.3333333333334</ele><time>2026-04-11T08:28:03.608Z</time></trkpt><trkpt lat="43.5697009" lon="12.2011709"><ele>667.0</ele><time>2026-04-11T08:28:04.608Z</time></trkpt><trkpt lat="43.5697513" lon="12.2010775"><ele>667.0</ele><time>2026-04-11T08:28:05.608Z</time></trkpt><trkpt lat="43.5697938" lon="12.2009788"><ele>667.0</ele><time>2026-04-11T08:28:06.608Z</time></trkpt><trkpt lat="43.5698294" lon="12.2008766"><ele>667.0</ele><time>2026-04-11T08:28:07.608Z</time></trkpt><trkpt lat="43.5698566" lon="12.2007753"><ele>667.0</ele><time>2026-04-11T08:28:08.608Z</time></trkpt><trkpt lat="43.5698691" lon="12.2006739"><ele>667.0</ele><time>2026-04-11T08:28:09.608Z</time></trkpt><trkpt lat="43.5698848" lon="12.2005719"><ele>667.0</ele><time>2026-04-11T08:28:10.608Z</time></trkpt><trkpt lat="43.5699252" lon="12.2004804"><ele>665.5714285714287</ele><time>2026-04-11T08:28:11.608Z</time></trkpt><trkpt lat="43.5699662" lon="12.2004004"><ele>664.1428571428571</ele><time>2026-04-11T08:28:12.608Z</time></trkpt><trkpt lat="43.5700113" lon="12.200327"><ele>662.7142857142858</ele><time>2026-04-11T08:28:13.608Z</time></trkpt><trkpt lat="43.5700684" lon="12.2002675"><ele>661.2857142857143</ele><time>2026-04-11T08:28:14.608Z</time></trkpt><trkpt lat="43.5701359" lon="12.2002452"><ele>659.8571428571429</ele><time>2026-04-11T08:28:15.608Z</time></trkpt><trkpt lat="43.5702071" lon="12.2002473"><ele>658.4285714285714</ele><time>2026-04-11T08:28:16.608Z</time></trkpt><trkpt lat="43.570268" lon="12.200282"><ele>657.0</ele><time>2026-04-11T08:28:17.608Z</time></trkpt><trkpt lat="43.5703362" lon="12.2002978"><ele>655.3333333333334</ele><time>2026-04-11T08:28:18.607Z</time></trkpt><trkpt lat="43.5704077" lon="12.2003281"><ele>653.6666666666666</ele><time>2026-04-11T08:28:19.608Z</time></trkpt><trkpt lat="43.5704828" lon="12.2003532"><ele>652.0</ele><time>2026-04-11T08:28:20.608Z</time></trkpt><trkpt lat="43.570555" lon="12.2003869"><ele>650.3333333333333</ele><time>2026-04-11T08:28:21.608Z</time></trkpt><trkpt lat="43.5706219" lon="12.2004325"><ele>648.6666666666666</ele><time>2026-04-11T08:28:22.608Z</time></trkpt><trkpt lat="43.5706915" lon="12.2004717"><ele>647.0</ele><time>2026-04-11T08:28:23.608Z</time></trkpt><trkpt lat="43.5707628" lon="12.2005035"><ele>647.0</ele><time>2026-04-11T08:28:24.608Z</time></trkpt><trkpt lat="43.570836" lon="12.2005309"><ele>647.0</ele><time>2026-04-11T08:28:25.608Z</time></trkpt><trkpt lat="43.5709083" lon="12.2005662"><ele>647.0</ele><time>2026-04-11T08:28:26.608Z</time></trkpt><trkpt lat="43.5709812" lon="12.2006007"><ele>647.0</ele><time>2026-04-11T08:28:27.608Z</time></trkpt><trkpt lat="43.5710549" lon="12.2006284"><ele>647.0</ele><time>2026-04-11T08:28:28.608Z</time></trkpt><trkpt lat="43.5711327" lon="12.2006515"><ele>647.0</ele><time>2026-04-11T08:28:29.608Z</time></trkpt><trkpt lat="43.5712111" lon="12.2006687"><ele>648.8333333333333</ele><time>2026-04-11T08:28:30.608Z</time></trkpt><trkpt lat="43.5712905" lon="12.2006668"><ele>650.6666666666666</ele><time>2026-04-11T08:28:31.608Z</time></trkpt><trkpt lat="43.571371" lon="12.2006515"><ele>652.5</ele><time>2026-04-11T08:28:32.608Z</time></trkpt><trkpt lat="43.5714461" lon="12.2006169"><ele>654.3333333333334</ele><time>2026-04-11T08:28:33.608Z</time></trkpt><trkpt lat="43.5715334" lon="12.2005961"><ele>656.1666666666667</ele><time>2026-04-11T08:28:34.608Z</time></trkpt><trkpt lat="43.5716148" lon="12.2005673"><ele>658.0</ele><time>2026-04-11T08:28:35.608Z</time></trkpt><trkpt lat="43.5716832" lon="12.2005502"><ele>653.6</ele><time>2026-04-11T08:28:36.608Z</time></trkpt><trkpt lat="43.5717502" lon="12.2004292"><ele>649.1999999999999</ele><time>2026-04-11T08:28:38.608Z</time></trkpt><trkpt lat="43.5716851" lon="12.2003048"><ele>644.8</ele><time>2026-04-11T08:28:40.608Z</time></trkpt><trkpt lat="43.5716168" lon="12.2002893"><ele>640.4</ele><time>2026-04-11T08:28:41.608Z</time></trkpt><trkpt lat="43.5715396" lon="12.2002922"><ele>636.0</ele><time>2026-04-11T08:28:42.607Z</time></trkpt><trkpt lat="43.5714533" lon="12.2002796"><ele>636.0</ele><time>2026-04-11T08:28:43.608Z</time></trkpt><trkpt lat="43.5713721" lon="12.2002324"><ele>636.0</ele><time>2026-04-11T08:28:44.608Z</time></trkpt><trkpt lat="43.5713108" lon="12.2001472"><ele>636.0</ele><time>2026-04-11T08:28:45.607Z</time></trkpt><trkpt lat="43.57127" lon="12.2000325"><ele>636.0</ele><time>2026-04-11T08:28:46.607Z</time></trkpt><trkpt lat="43.5712439" lon="12.1999024"><ele>636.0</ele><time>2026-04-11T08:28:47.608Z</time></trkpt><trkpt lat="43.5712299" lon="12.1997603"><ele>636.2</ele><time>2026-04-11T08:28:48.607Z</time></trkpt><trkpt lat="43.5712264" lon="12.1996144"><ele>636.4000000000001</ele><time>2026-04-11T08:28:49.608Z</time></trkpt><trkpt lat="43.5712243" lon="12.1994665"><ele>636.6</ele><time>2026-04-11T08:28:50.608Z</time></trkpt><trkpt lat="43.5712101" lon="12.1993213"><ele>636.8000000000001</ele><time>2026-04-11T08:28:51.608Z</time></trkpt><trkpt lat="43.571179" lon="12.1991815"><ele>637.0</ele><time>2026-04-11T08:28:52.608Z</time></trkpt><trkpt lat="43.5711363" lon="12.1990491"><ele>634.6</ele><time>2026-04-11T08:28:53.608Z</time></trkpt><trkpt lat="43.5710825" lon="12.1989229"><ele>632.2</ele><time>2026-04-11T08:28:54.608Z</time></trkpt><trkpt lat="43.571022" lon="12.1987956"><ele>629.8</ele><time>2026-04-11T08:28:55.607Z</time></trkpt><trkpt lat="43.5709679" lon="12.1986661"><ele>627.4</ele><time>2026-04-11T08:28:56.608Z</time></trkpt><trkpt lat="43.570919" lon="12.1985263"><ele>625.0</ele><time>2026-04-11T08:28:57.607Z</time></trkpt><trkpt lat="43.5708691" lon="12.1983841"><ele>625.0</ele><time>2026-04-11T08:28:58.608Z</time></trkpt><trkpt lat="43.570809" lon="12.1982721"><ele>625.0</ele><time>2026-04-11T08:28:59.608Z</time></trkpt><trkpt lat="43.5707397" lon="12.1981528"><ele>625.0</ele><time>2026-04-11T08:29:00.608Z</time></trkpt><trkpt lat="43.5706561" lon="12.1980593"><ele>625.0</ele><time>2026-04-11T08:29:01.608Z</time></trkpt><trkpt lat="43.5705646" lon="12.1979786"><ele>625.0</ele><time>2026-04-11T08:29:02.608Z</time></trkpt><trkpt lat="43.5704707" lon="12.1979166"><ele>622.2</ele><time>2026-04-11T08:29:03.607Z</time></trkpt><trkpt lat="43.5703776" lon="12.19785"><ele>619.4</ele><time>2026-04-11T08:29:04.607Z</time></trkpt><trkpt lat="43.5702827" lon="12.1977874"><ele>616.6</ele><time>2026-04-11T08:29:05.608Z</time></trkpt><trkpt lat="43.5701905" lon="12.1977259"><ele>613.8</ele><time>2026-04-11T08:29:06.608Z</time></trkpt><trkpt lat="43.5701089" lon="12.197677"><ele>611.0</ele><time>2026-04-11T08:29:07.608Z</time></trkpt><trkpt lat="43.5700341" lon="12.1976354"><ele>611.0</ele><time>2026-04-11T08:29:08.607Z</time></trkpt><trkpt lat="43.569965" lon="12.1975921"><ele>611.0</ele><time>2026-04-11T08:29:09.608Z</time></trkpt><trkpt lat="43.5699022" lon="12.1975555"><ele>611.0</ele><time>2026-04-11T08:29:10.608Z</time></trkpt><trkpt lat="43.5697993" lon="12.1975005"><ele>611.0</ele><time>2026-04-11T08:29:12.608Z</time></trkpt><trkpt lat="43.569777" lon="12.1974082"><ele>611.0</ele><time>2026-04-11T08:29:14.608Z</time></trkpt><trkpt lat="43.5698753" lon="12.1973896"><ele>611.0</ele><time>2026-04-11T08:29:16.608Z</time></trkpt><trkpt lat="43.5699992" lon="12.1974298"><ele>611.0</ele><time>2026-04-11T08:29:18.608Z</time></trkpt><trkpt lat="43.5700741" lon="12.1974572"><ele>611.0</ele><time>2026-04-11T08:29:19.608Z</time></trkpt><trkpt lat="43.570152" lon="12.197477"><ele>611.0</ele><time>2026-04-11T08:29:20.608Z</time></trkpt><trkpt lat="43.5702336" lon="12.197493"><ele>611.0</ele><time>2026-04-11T08:29:21.608Z</time></trkpt><trkpt lat="43.5703164" lon="12.1975051"><ele>611.0</ele><time>2026-04-11T08:29:22.608Z</time></trkpt><trkpt lat="43.5703988" lon="12.197513"><ele>611.0</ele><time>2026-04-11T08:29:23.608Z</time></trkpt><trkpt lat="43.5704831" lon="12.1975198"><ele>608.4</ele><time>2026-04-11T08:29:24.607Z</time></trkpt><trkpt lat="43.57057" lon="12.1975288"><ele>605.8</ele><time>2026-04-11T08:29:25.608Z</time></trkpt><trkpt lat="43.5706665" lon="12.1975396"><ele>603.1999999999999</ele><time>2026-04-11T08:29:26.608Z</time></trkpt><trkpt lat="43.5707694" lon="12.1975565"><ele>600.6</ele><time>2026-04-11T08:29:27.608Z</time></trkpt><trkpt lat="43.5708819" lon="12.1976115"><ele>598.0</ele><time>2026-04-11T08:29:28.608Z</time></trkpt><trkpt lat="43.5710069" lon="12.1976546"><ele>598.0</ele><time>2026-04-11T08:29:29.608Z</time></trkpt><trkpt lat="43.5711336" lon="12.1977018"><ele>598.0</ele><time>2026-04-11T08:29:30.608Z</time></trkpt><trkpt lat="43.5712426" lon="12.1977531"><ele>598.0</ele><time>2026-04-11T08:29:31.607Z</time></trkpt><trkpt lat="43.5713428" lon="12.1977868"><ele>598.0</ele><time>2026-04-11T08:29:32.608Z</time></trkpt><trkpt lat="43.5714341" lon="12.1978082"><ele>598.0</ele><time>2026-04-11T08:29:33.608Z</time></trkpt><trkpt lat="43.571512" lon="12.1978429"><ele>595.8</ele><time>2026-04-11T08:29:34.608Z</time></trkpt><trkpt lat="43.5715743" lon="12.1978731"><ele>593.5999999999999</ele><time>2026-04-11T08:29:35.607Z</time></trkpt><trkpt lat="43.5716361" lon="12.197912"><ele>591.4000000000001</ele><time>2026-04-11T08:29:36.607Z</time></trkpt><trkpt lat="43.5717327" lon="12.1978759"><ele>589.2</ele><time>2026-04-11T08:29:38.608Z</time></trkpt><trkpt lat="43.5716999" lon="12.1976611"><ele>587.0</ele><time>2026-04-11T08:29:41.608Z</time></trkpt><trkpt lat="43.571644" lon="12.197584"><ele>587.0</ele><time>2026-04-11T08:29:42.607Z</time></trkpt><trkpt lat="43.5715796" lon="12.1975023"><ele>587.0</ele><time>2026-04-11T08:29:43.608Z</time></trkpt><trkpt lat="43.5715096" lon="12.1974183"><ele>587.0</ele><time>2026-04-11T08:29:44.608Z</time></trkpt><trkpt lat="43.5714349" lon="12.197329"><ele>587.0</ele><time>2026-04-11T08:29:45.608Z</time></trkpt><trkpt lat="43.5713398" lon="12.1972779"><ele>587.0</ele><time>2026-04-11T08:29:46.608Z</time></trkpt><trkpt lat="43.5711506" lon="12.1971902"><ele>583.6</ele><time>2026-04-11T08:29:48.608Z</time></trkpt><trkpt lat="43.5710539" lon="12.1971526"><ele>580.2</ele><time>2026-04-11T08:29:49.607Z</time></trkpt><trkpt lat="43.5709592" lon="12.1970999"><ele>576.8</ele><time>2026-04-11T08:29:50.607Z</time></trkpt><trkpt lat="43.5708698" lon="12.1970338"><ele>573.4</ele><time>2026-04-11T08:29:51.608Z</time></trkpt><trkpt lat="43.5707866" lon="12.1969735"><ele>570.0</ele><time>2026-04-11T08:29:52.608Z</time></trkpt><trkpt lat="43.5706987" lon="12.1969152"><ele>570.0</ele><time>2026-04-11T08:29:53.608Z</time></trkpt><trkpt lat="43.5706224" lon="12.1968718"><ele>570.0</ele><time>2026-04-11T08:29:54.608Z</time></trkpt><trkpt lat="43.5705613" lon="12.1968284"><ele>570.0</ele><time>2026-04-11T08:29:55.608Z</time></trkpt><trkpt lat="43.5704824" lon="12.1967354"><ele>570.0</ele><time>2026-04-11T08:29:57.608Z</time></trkpt><trkpt lat="43.5705192" lon="12.1966412"><ele>570.0</ele><time>2026-04-11T08:29:59.608Z</time></trkpt><trkpt lat="43.5706224" lon="12.1966529"><ele>570.0</ele><time>2026-04-11T08:30:01.608Z</time></trkpt><trkpt lat="43.5706962" lon="12.1967327"><ele>570.0</ele><time>2026-04-11T08:30:02.608Z</time></trkpt><trkpt lat="43.5707718" lon="12.1967827"><ele>570.0</ele><time>2026-04-11T08:30:03.608Z</time></trkpt><trkpt lat="43.57084" lon="12.1968224"><ele>570.0</ele><time>2026-04-11T08:30:04.608Z</time></trkpt><trkpt lat="43.570935" lon="12.1968479"><ele>570.0</ele><time>2026-04-11T08:30:05.608Z</time></trkpt><trkpt lat="43.5710378" lon="12.1968356"><ele>570.0</ele><time>2026-04-11T08:30:06.608Z</time></trkpt><trkpt lat="43.5711319" lon="12.1968325"><ele>569.2</ele><time>2026-04-11T08:30:07.608Z</time></trkpt><trkpt lat="43.5712374" lon="12.1968393"><ele>568.4</ele><time>2026-04-11T08:30:08.608Z</time></trkpt><trkpt lat="43.5713308" lon="12.1968133"><ele>567.6</ele><time>2026-04-11T08:30:09.608Z</time></trkpt><trkpt lat="43.571429" lon="12.1967995"><ele>566.8</ele><time>2026-04-11T08:30:10.608Z</time></trkpt><trkpt lat="43.5715208" lon="12.1967842"><ele>566.0</ele><time>2026-04-11T08:30:11.608Z</time></trkpt><trkpt lat="43.5716132" lon="12.1967825"><ele>566.0</ele><time>2026-04-11T08:30:12.607Z</time></trkpt><trkpt lat="43.5717125" lon="12.1967838"><ele>566.0</ele><time>2026-04-11T08:30:13.608Z</time></trkpt><trkpt lat="43.5718062" lon="12.1967913"><ele>566.0</ele><time>2026-04-11T08:30:14.608Z</time></trkpt><trkpt lat="43.571883" lon="12.1967837"><ele>566.0</ele><time>2026-04-11T08:30:15.607Z</time></trkpt><trkpt lat="43.5719464" lon="12.1967604"><ele>566.0</ele><time>2026-04-11T08:30:16.608Z</time></trkpt><trkpt lat="43.5720038" lon="12.1966278"><ele>566.0</ele><time>2026-04-11T08:30:18.608Z</time></trkpt><trkpt lat="43.5719946" lon="12.1965393"><ele>563.4285714285714</ele><time>2026-04-11T08:30:19.608Z</time></trkpt><trkpt lat="43.5719755" lon="12.1964501"><ele>560.8571428571429</ele><time>2026-04-11T08:30:20.608Z</time></trkpt><trkpt lat="43.5719506" lon="12.1963582"><ele>558.2857142857143</ele><time>2026-04-11T08:30:21.607Z</time></trkpt><trkpt lat="43.5719148" lon="12.1962286"><ele>555.7142857142858</ele><time>2026-04-11T08:30:23.608Z</time></trkpt><trkpt lat="43.5718836" lon="12.1961286"><ele>553.1428571428571</ele><time>2026-04-11T08:30:31.608Z</time></trkpt><trkpt lat="43.5718503" lon="12.196053"><ele>550.5714285714287</ele><time>2026-04-11T08:30:38.607Z</time></trkpt><trkpt lat="43.5719153" lon="12.1960718"><ele>548.0</ele><time>2026-04-11T08:30:41.608Z</time></trkpt><trkpt lat="43.5719749" lon="12.1961141"><ele>548.0</ele><time>2026-04-11T08:30:43.608Z</time></trkpt><trkpt lat="43.5719753" lon="12.196217"><ele>548.0</ele><time>2026-04-11T08:30:44.608Z</time></trkpt><trkpt lat="43.572021" lon="12.1963513"><ele>548.0</ele><time>2026-04-11T08:30:46.608Z</time></trkpt><trkpt lat="43.5720685" lon="12.1964861"><ele>548.0</ele><time>2026-04-11T08:30:48.608Z</time></trkpt><trkpt lat="43.5721239" lon="12.1966215"><ele>548.0</ele><time>2026-04-11T08:30:50.607Z</time></trkpt><trkpt lat="43.5721773" lon="12.1967504"><ele>548.0</ele><time>2026-04-11T08:30:52.608Z</time></trkpt><trkpt lat="43.572237" lon="12.1968297"><ele>548.0</ele><time>2026-04-11T08:30:54.608Z</time></trkpt><trkpt lat="43.5722626" lon="12.1969157"><ele>548.0</ele><time>2026-04-11T08:30:55.608Z</time></trkpt><trkpt lat="43.5723186" lon="12.1969862"><ele>548.0</ele><time>2026-04-11T08:30:57.607Z</time></trkpt><trkpt lat="43.5723839" lon="12.1970361"><ele>548.0</ele><time>2026-04-11T08:30:59.608Z</time></trkpt><trkpt lat="43.5724479" lon="12.19714"><ele>548.0</ele><time>2026-04-11T08:31:00.608Z</time></trkpt><trkpt lat="43.5724805" lon="12.1972153"><ele>548.0</ele><time>2026-04-11T08:31:01.608Z</time></trkpt><trkpt lat="43.5725812" lon="12.1973084"><ele>548.0</ele><time>2026-04-11T08:31:03.608Z</time></trkpt><trkpt lat="43.5726698" lon="12.1973701"><ele>548.0</ele><time>2026-04-11T08:31:04.608Z</time></trkpt><trkpt lat="43.5727011" lon="12.1975337"><ele>548.0</ele><time>2026-04-11T08:31:06.608Z</time></trkpt><trkpt lat="43.5727509" lon="12.1976026"><ele>548.0</ele><time>2026-04-11T08:31:07.608Z</time></trkpt><trkpt lat="43.5728057" lon="12.1976717"><ele>546.8333333333333</ele><time>2026-04-11T08:31:08.608Z</time></trkpt><trkpt lat="43.5728317" lon="12.1977542"><ele>545.6666666666666</ele><time>2026-04-11T08:31:09.607Z</time></trkpt><trkpt lat="43.5728589" lon="12.1978418"><ele>544.5</ele><time>2026-04-11T08:31:10.608Z</time></trkpt><trkpt lat="43.5729416" lon="12.1979242"><ele>543.3333333333334</ele><time>2026-04-11T08:31:12.608Z</time></trkpt><trkpt lat="43.5729982" lon="12.19799"><ele>542.1666666666667</ele><time>2026-04-11T08:31:13.608Z</time></trkpt><trkpt lat="43.5730863" lon="12.1980434"><ele>541.0</ele><time>2026-04-11T08:31:15.608Z</time></trkpt><trkpt lat="43.5731677" lon="12.1980812"><ele>541.0</ele><time>2026-04-11T08:31:17.608Z</time></trkpt><trkpt lat="43.5732268" lon="12.1980359"><ele>541.0</ele><time>2026-04-11T08:31:19.608Z</time></trkpt><trkpt lat="43.5733185" lon="12.197933"><ele>541.0</ele><time>2026-04-11T08:31:21.608Z</time></trkpt><trkpt lat="43.5734093" lon="12.1978539"><ele>541.0</ele><time>2026-04-11T08:31:23.608Z</time></trkpt><trkpt lat="43.573496" lon="12.1978059"><ele>541.0</ele><time>2026-04-11T08:31:25.608Z</time></trkpt><trkpt lat="43.5735798" lon="12.1978012"><ele>541.0</ele><time>2026-04-11T08:31:26.608Z</time></trkpt><trkpt lat="43.5736643" lon="12.1978241"><ele>541.0</ele><time>2026-04-11T08:31:27.608Z</time></trkpt><trkpt lat="43.5738488" lon="12.1978626"><ele>541.0</ele><time>2026-04-11T08:31:29.608Z</time></trkpt><trkpt lat="43.5739216" lon="12.1979126"><ele>541.0</ele><time>2026-04-11T08:31:30.608Z</time></trkpt><trkpt lat="43.5739807" lon="12.1979751"><ele>541.0</ele><time>2026-04-11T08:31:31.608Z</time></trkpt><trkpt lat="43.574046" lon="12.1980546"><ele>539.5</ele><time>2026-04-11T08:31:33.608Z</time></trkpt><trkpt lat="43.5740976" lon="12.198145"><ele>538.0</ele><time>2026-04-11T08:31:34.608Z</time></trkpt><trkpt lat="43.5741381" lon="12.1982429"><ele>536.5</ele><time>2026-04-11T08:31:35.608Z</time></trkpt><trkpt lat="43.5741968" lon="12.1983075"><ele>535.0</ele><time>2026-04-11T08:31:36.608Z</time></trkpt><trkpt lat="43.5742521" lon="12.1983736"><ele>533.5</ele><time>2026-04-11T08:31:37.608Z</time></trkpt><trkpt lat="43.5743167" lon="12.1984433"><ele>532.0</ele><time>2026-04-11T08:31:38.608Z</time></trkpt><trkpt lat="43.5743997" lon="12.19848"><ele>533.3333333333334</ele><time>2026-04-11T08:31:40.608Z</time></trkpt><trkpt lat="43.5744718" lon="12.1985031"><ele>534.6666666666667</ele><time>2026-04-11T08:31:41.608Z</time></trkpt><trkpt lat="43.5745752" lon="12.1984991"><ele>536.0</ele><time>2026-04-11T08:31:42.607Z</time></trkpt><trkpt lat="43.5746466" lon="12.1984865"><ele>537.3333333333334</ele><time>2026-04-11T08:31:43.608Z</time></trkpt><trkpt lat="43.5747333" lon="12.1985511"><ele>538.6666666666666</ele><time>2026-04-11T08:31:44.608Z</time></trkpt><trkpt lat="43.5748015" lon="12.1985571"><ele>540.0</ele><time>2026-04-11T08:31:45.607Z</time></trkpt><trkpt lat="43.5749159" lon="12.1985426"><ele>540.0</ele><time>2026-04-11T08:31:47.608Z</time></trkpt><trkpt lat="43.5749726" lon="12.198624"><ele>540.0</ele><time>2026-04-11T08:32:04.608Z</time></trkpt><trkpt lat="43.5750462" lon="12.198678"><ele>540.0</ele><time>2026-04-11T08:32:06.608Z</time></trkpt><trkpt lat="43.5751018" lon="12.1987742"><ele>540.0</ele><time>2026-04-11T08:32:08.608Z</time></trkpt><trkpt lat="43.5751648" lon="12.1988162"><ele>540.0</ele><time>2026-04-11T08:32:22.608Z</time></trkpt><trkpt lat="43.5751996" lon="12.1987079"><ele>540.0</ele><time>2026-04-11T08:32:26.608Z</time></trkpt><trkpt lat="43.5752603" lon="12.1986803"><ele>540.0</ele><time>2026-04-11T08:32:31.608Z</time></trkpt><trkpt lat="43.5753324" lon="12.1987554"><ele>540.0</ele><time>2026-04-11T08:32:33.608Z</time></trkpt><trkpt lat="43.5755698" lon="12.198786"><ele>540.0</ele><time>2026-04-11T08:32:35.608Z</time></trkpt><trkpt lat="43.5756478" lon="12.1988123"><ele>540.0</ele><time>2026-04-11T08:32:36.608Z</time></trkpt><trkpt lat="43.5757627" lon="12.1988341"><ele>539.8</ele><time>2026-04-11T08:32:37.608Z</time></trkpt><trkpt lat="43.5758499" lon="12.1988065"><ele>539.6</ele><time>2026-04-11T08:32:38.608Z</time></trkpt><trkpt lat="43.5759333" lon="12.1987988"><ele>539.4</ele><time>2026-04-11T08:32:39.607Z</time></trkpt><trkpt lat="43.5760202" lon="12.1987844"><ele>539.2</ele><time>2026-04-11T08:32:40.607Z</time></trkpt><trkpt lat="43.57613" lon="12.1987845"><ele>539.0</ele><time>2026-04-11T08:32:41.607Z</time></trkpt><trkpt lat="43.5762705" lon="12.1988165"><ele>540.6</ele><time>2026-04-11T08:32:42.608Z</time></trkpt><trkpt lat="43.5763665" lon="12.1988679"><ele>542.2</ele><time>2026-04-11T08:32:43.608Z</time></trkpt><trkpt lat="43.5764745" lon="12.1989182"><ele>543.8000000000001</ele><time>2026-04-11T08:32:44.608Z</time></trkpt><trkpt lat="43.5765722" lon="12.1989721"><ele>545.4</ele><time>2026-04-11T08:32:45.608Z</time></trkpt><trkpt lat="43.5766741" lon="12.1990155"><ele>547.0</ele><time>2026-04-11T08:32:46.608Z</time></trkpt><trkpt lat="43.5768046" lon="12.1989746"><ele>547.0</ele><time>2026-04-11T08:32:47.607Z</time></trkpt><trkpt lat="43.5769018" lon="12.1989663"><ele>547.0</ele><time>2026-04-11T08:32:48.608Z</time></trkpt><trkpt lat="43.5770337" lon="12.1989345"><ele>547.0</ele><time>2026-04-11T08:32:50.608Z</time></trkpt><trkpt lat="43.5771012" lon="12.1989834"><ele>547.0</ele><time>2026-04-11T08:32:51.608Z</time></trkpt><trkpt lat="43.5771876" lon="12.1990191"><ele>547.0</ele><time>2026-04-11T08:32:52.607Z</time></trkpt><trkpt lat="43.5772808" lon="12.1990205"><ele>550.4</ele><time>2026-04-11T08:32:53.608Z</time></trkpt><trkpt lat="43.5773594" lon="12.1990166"><ele>553.8000000000001</ele><time>2026-04-11T08:32:54.608Z</time></trkpt><trkpt lat="43.5774524" lon="12.1991084"><ele>557.2</ele><time>2026-04-11T08:32:56.608Z</time></trkpt><trkpt lat="43.5775553" lon="12.199171"><ele>560.6</ele><time>2026-04-11T08:32:58.607Z</time></trkpt><trkpt lat="43.5776142" lon="12.1992318"><ele>564.0</ele><time>2026-04-11T08:32:59.608Z</time></trkpt><trkpt lat="43.5777093" lon="12.199346"><ele>564.0</ele><time>2026-04-11T08:33:01.608Z</time></trkpt><trkpt lat="43.577777" lon="12.1994347"><ele>564.0</ele><time>2026-04-11T08:33:03.608Z</time></trkpt><trkpt lat="43.577822" lon="12.1995234"><ele>564.0</ele><time>2026-04-11T08:33:05.608Z</time></trkpt><trkpt lat="43.5778994" lon="12.1996606"><ele>564.0</ele><time>2026-04-11T08:33:07.608Z</time></trkpt><trkpt lat="43.57795" lon="12.1997263"><ele>564.0</ele><time>2026-04-11T08:33:08.607Z</time></trkpt><trkpt lat="43.5781042" lon="12.1998308"><ele>569.25</ele><time>2026-04-11T08:33:09.608Z</time></trkpt><trkpt lat="43.5781969" lon="12.1998767"><ele>574.5</ele><time>2026-04-11T08:33:13.607Z</time></trkpt><trkpt lat="43.578295" lon="12.1999053"><ele>579.75</ele><time>2026-04-11T08:33:16.608Z</time></trkpt><trkpt lat="43.5785263" lon="12.1998614"><ele>585.0</ele><time>2026-04-11T08:33:18.608Z</time></trkpt><trkpt lat="43.5786012" lon="12.1998444"><ele>586.0</ele><time>2026-04-11T08:33:19.608Z</time></trkpt><trkpt lat="43.578704" lon="12.199856"><ele>587.0</ele><time>2026-04-11T08:33:21.608Z</time></trkpt><trkpt lat="43.5788896" lon="12.199823"><ele>588.0</ele><time>2026-04-11T08:33:25.608Z</time></trkpt><trkpt lat="43.5790152" lon="12.1997839"><ele>589.0</ele><time>2026-04-11T08:33:27.608Z</time></trkpt><trkpt lat="43.579137" lon="12.1997627"><ele>586.4</ele><time>2026-04-11T08:33:28.607Z</time></trkpt><trkpt lat="43.5792075" lon="12.1997471"><ele>583.8</ele><time>2026-04-11T08:33:29.608Z</time></trkpt><trkpt lat="43.5793411" lon="12.1997091"><ele>581.2</ele><time>2026-04-11T08:33:30.608Z</time></trkpt><trkpt lat="43.5794117" lon="12.199698"><ele>578.6</ele><time>2026-04-11T08:33:31.608Z</time></trkpt><trkpt lat="43.5795093" lon="12.1997213"><ele>576.0</ele><time>2026-04-11T08:33:32.608Z</time></trkpt><trkpt lat="43.579605" lon="12.1997241"><ele>576.0</ele><time>2026-04-11T08:33:33.608Z</time></trkpt><trkpt lat="43.5796884" lon="12.1997219"><ele>576.0</ele><time>2026-04-11T08:33:34.608Z</time></trkpt><trkpt lat="43.5797765" lon="12.1997195"><ele>576.0</ele><time>2026-04-11T08:33:35.608Z</time></trkpt><trkpt lat="43.5798856" lon="12.1996971"><ele>576.0</ele><time>2026-04-11T08:33:37.608Z</time></trkpt><trkpt lat="43.5799754" lon="12.1996701"><ele>576.0</ele><time>2026-04-11T08:33:39.608Z</time></trkpt><trkpt lat="43.5800743" lon="12.1996109"><ele>576.0</ele><time>2026-04-11T08:33:41.608Z</time></trkpt><trkpt lat="43.5801429" lon="12.1995783"><ele>576.0</ele><time>2026-04-11T08:33:43.608Z</time></trkpt><trkpt lat="43.5802141" lon="12.1996286"><ele>576.0</ele><time>2026-04-11T08:33:45.608Z</time></trkpt><trkpt lat="43.5802935" lon="12.1995877"><ele>576.0</ele><time>2026-04-11T08:33:47.607Z</time></trkpt><trkpt lat="43.5803781" lon="12.1995206"><ele>576.0</ele><time>2026-04-11T08:33:49.608Z</time></trkpt><trkpt lat="43.5804837" lon="12.1995"><ele>576.0</ele><time>2026-04-11T08:33:51.608Z</time></trkpt><trkpt lat="43.5805818" lon="12.1995417"><ele>577.5</ele><time>2026-04-11T08:33:54.607Z</time></trkpt><trkpt lat="43.5806571" lon="12.199597"><ele>579.0</ele><time>2026-04-11T08:33:56.608Z</time></trkpt><trkpt lat="43.5807371" lon="12.1996466"><ele>580.5</ele><time>2026-04-11T08:33:59.608Z</time></trkpt><trkpt lat="43.5807938" lon="12.1997141"><ele>582.0</ele><time>2026-04-11T08:34:01.608Z</time></trkpt><trkpt lat="43.5808904" lon="12.1997325"><ele>583.5</ele><time>2026-04-11T08:34:07.607Z</time></trkpt><trkpt lat="43.5809653" lon="12.1997396"><ele>585.0</ele><time>2026-04-11T08:34:09.608Z</time></trkpt><trkpt lat="43.5810763" lon="12.1997943"><ele>589.0</ele><time>2026-04-11T08:34:11.608Z</time></trkpt><trkpt lat="43.5811544" lon="12.1998448"><ele>593.0</ele><time>2026-04-11T08:34:13.607Z</time></trkpt><trkpt lat="43.5812318" lon="12.1998869"><ele>597.0</ele><time>2026-04-11T08:34:16.607Z</time></trkpt><trkpt lat="43.5813062" lon="12.1999211"><ele>601.0</ele><time>2026-04-11T08:34:18.608Z</time></trkpt><trkpt lat="43.5813874" lon="12.1999595"><ele>605.0</ele><time>2026-04-11T08:34:20.607Z</time></trkpt><trkpt lat="43.5814723" lon="12.2000058"><ele>609.0</ele><time>2026-04-11T08:34:22.608Z</time></trkpt><trkpt lat="43.5815454" lon="12.2000605"><ele>609.4</ele><time>2026-04-11T08:34:24.608Z</time></trkpt><trkpt lat="43.5816339" lon="12.2000798"><ele>609.8</ele><time>2026-04-11T08:34:28.608Z</time></trkpt><trkpt lat="43.5817189" lon="12.2000976"><ele>610.2</ele><time>2026-04-11T08:34:30.607Z</time></trkpt><trkpt lat="43.5818869" lon="12.2001011"><ele>610.6</ele><time>2026-04-11T08:34:33.608Z</time></trkpt><trkpt lat="43.5819639" lon="12.2001042"><ele>611.0</ele><time>2026-04-11T08:34:34.608Z</time></trkpt><trkpt lat="43.5820507" lon="12.2001099"><ele>610.0</ele><time>2026-04-11T08:34:35.608Z</time></trkpt><trkpt lat="43.5821208" lon="12.2001255"><ele>609.0</ele><time>2026-04-11T08:34:36.608Z</time></trkpt><trkpt lat="43.5821909" lon="12.2001344"><ele>608.0</ele><time>2026-04-11T08:34:37.608Z</time></trkpt><trkpt lat="43.5822687" lon="12.2001412"><ele>607.0</ele><time>2026-04-11T08:34:38.608Z</time></trkpt><trkpt lat="43.5824837" lon="12.2001607"><ele>606.0</ele><time>2026-04-11T08:34:39.608Z</time></trkpt><trkpt lat="43.5825778" lon="12.2001711"><ele>606.0</ele><time>2026-04-11T08:34:42.608Z</time></trkpt><trkpt lat="43.5826655" lon="12.2001877"><ele>606.0</ele><time>2026-04-11T08:34:44.608Z</time></trkpt><trkpt lat="43.5827206" lon="12.200248"><ele>606.0</ele><time>2026-04-11T08:34:47.608Z</time></trkpt><trkpt lat="43.5828052" lon="12.2002709"><ele>606.0</ele><time>2026-04-11T08:34:50.608Z</time></trkpt><trkpt lat="43.5828908" lon="12.2003051"><ele>606.0</ele><time>2026-04-11T08:34:53.608Z</time></trkpt><trkpt lat="43.5829464" lon="12.2003474"><ele>606.0</ele><time>2026-04-11T08:34:55.608Z</time></trkpt><trkpt lat="43.583005" lon="12.2004023"><ele>606.1666666666666</ele><time>2026-04-11T08:35:00.674Z</time></trkpt><trkpt lat="43.5830564" lon="12.2004587"><ele>606.3333333333334</ele><time>2026-04-11T08:35:01.608Z</time></trkpt><trkpt lat="43.5831364" lon="12.2005181"><ele>606.5</ele><time>2026-04-11T08:35:03.683Z</time></trkpt><trkpt lat="43.5832233" lon="12.200568"><ele>606.6666666666667</ele><time>2026-04-11T08:35:05.683Z</time></trkpt><trkpt lat="43.5833067" lon="12.2006387"><ele>606.8333333333334</ele><time>2026-04-11T08:35:07.608Z</time></trkpt><trkpt lat="43.5833697" lon="12.2006861"><ele>607.0</ele><time>2026-04-11T08:35:08.608Z</time></trkpt><trkpt lat="43.5834407" lon="12.2006585"><ele>607.0</ele><time>2026-04-11T08:35:11.608Z</time></trkpt><trkpt lat="43.5835087" lon="12.2006299"><ele>607.0</ele><time>2026-04-11T08:35:13.608Z</time></trkpt><trkpt lat="43.5835927" lon="12.2006154"><ele>607.0</ele><time>2026-04-11T08:35:21.608Z</time></trkpt><trkpt lat="43.5836588" lon="12.2005836"><ele>607.0</ele><time>2026-04-11T08:36:54.608Z</time></trkpt><trkpt lat="43.5837257" lon="12.2005859"><ele>607.0</ele><time>2026-04-11T08:36:56.608Z</time></trkpt><trkpt lat="43.5838544" lon="12.2006695"><ele>607.0</ele><time>2026-04-11T08:36:58.607Z</time></trkpt><trkpt lat="43.5839343" lon="12.200723"><ele>612.0</ele><time>2026-04-11T08:37:00.608Z</time></trkpt><trkpt lat="43.5839852" lon="12.2007935"><ele>617.0</ele><time>2026-04-11T08:37:02.608Z</time></trkpt><trkpt lat="43.5840455" lon="12.2008548"><ele>622.0</ele><time>2026-04-11T08:37:04.608Z</time></trkpt><trkpt lat="43.5840849" lon="12.2009688"><ele>627.0</ele><time>2026-04-11T08:37:06.608Z</time></trkpt><trkpt lat="43.5841154" lon="12.201095"><ele>632.0</ele><time>2026-04-11T08:37:08.608Z</time></trkpt><trkpt lat="43.5841432" lon="12.2011926"><ele>637.0</ele><time>2026-04-11T08:37:10.608Z</time></trkpt><trkpt lat="43.5841914" lon="12.2012987"><ele>637.0</ele><time>2026-04-11T08:37:13.608Z</time></trkpt><trkpt lat="43.5842193" lon="12.2013973"><ele>637.0</ele><time>2026-04-11T08:37:15.608Z</time></trkpt><trkpt lat="43.5842607" lon="12.2015262"><ele>637.0</ele><time>2026-04-11T08:37:17.608Z</time></trkpt><trkpt lat="43.5843273" lon="12.2016029"><ele>637.0</ele><time>2026-04-11T08:37:19.608Z</time></trkpt><trkpt lat="43.5843742" lon="12.2017004"><ele>637.0</ele><time>2026-04-11T08:37:21.608Z</time></trkpt><trkpt lat="43.5844188" lon="12.201831"><ele>640.6</ele><time>2026-04-11T08:37:23.607Z</time></trkpt><trkpt lat="43.5844573" lon="12.2019026"><ele>644.2</ele><time>2026-04-11T08:37:24.608Z</time></trkpt><trkpt lat="43.5845283" lon="12.2020231"><ele>647.8</ele><time>2026-04-11T08:37:26.608Z</time></trkpt><trkpt lat="43.5845834" lon="12.2021661"><ele>651.4</ele><time>2026-04-11T08:37:28.608Z</time></trkpt><trkpt lat="43.5846521" lon="12.2022663"><ele>655.0</ele><time>2026-04-11T08:37:30.608Z</time></trkpt><trkpt lat="43.5847414" lon="12.202347"><ele>655.3333333333334</ele><time>2026-04-11T08:37:32.608Z</time></trkpt><trkpt lat="43.5848268" lon="12.2023899"><ele>655.6666666666667</ele><time>2026-04-11T08:37:37.608Z</time></trkpt><trkpt lat="43.5848984" lon="12.2024028"><ele>656.0</ele><time>2026-04-11T08:37:40.608Z</time></trkpt><trkpt lat="43.584964" lon="12.2023674"><ele>656.3333333333334</ele><time>2026-04-11T08:37:51.607Z</time></trkpt><trkpt lat="43.5850343" lon="12.2023389"><ele>656.6666666666666</ele><time>2026-04-11T08:37:55.608Z</time></trkpt><trkpt lat="43.5850887" lon="12.2022865"><ele>657.0</ele><time>2026-04-11T08:37:57.608Z</time></trkpt><trkpt lat="43.5851541" lon="12.2021996"><ele>657.0</ele><time>2026-04-11T08:37:59.608Z</time></trkpt><trkpt lat="43.5851075" lon="12.2023416"><ele>657.0</ele><time>2026-04-11T08:38:01.607Z</time></trkpt><trkpt lat="43.5851933" lon="12.2022203"><ele>657.0</ele><time>2026-04-11T08:38:02.608Z</time></trkpt><trkpt lat="43.5852692" lon="12.2020988"><ele>657.0</ele><time>2026-04-11T08:38:03.607Z</time></trkpt><trkpt lat="43.5853598" lon="12.2020266"><ele>660.6666666666666</ele><time>2026-04-11T08:38:05.608Z</time></trkpt><trkpt lat="43.5854239" lon="12.2020959"><ele>664.3333333333334</ele><time>2026-04-11T08:38:07.677Z</time></trkpt><trkpt lat="43.5854699" lon="12.2021934"><ele>668.0</ele><time>2026-04-11T08:38:09.674Z</time></trkpt><trkpt lat="43.585523" lon="12.2023131"><ele>671.6666666666667</ele><time>2026-04-11T08:38:11.608Z</time></trkpt><trkpt lat="43.5855678" lon="12.2024323"><ele>675.3333333333334</ele><time>2026-04-11T08:38:13.608Z</time></trkpt><trkpt lat="43.5856127" lon="12.2025312"><ele>679.0</ele><time>2026-04-11T08:38:14.608Z</time></trkpt><trkpt lat="43.5856855" lon="12.2026192"><ele>679.0</ele><time>2026-04-11T08:38:16.607Z</time></trkpt><trkpt lat="43.5857636" lon="12.2027251"><ele>679.0</ele><time>2026-04-11T08:38:18.608Z</time></trkpt><trkpt lat="43.5857987" lon="12.2028014"><ele>679.0</ele><time>2026-04-11T08:38:20.608Z</time></trkpt><trkpt lat="43.5858479" lon="12.2028808"><ele>679.0</ele><time>2026-04-11T08:38:22.608Z</time></trkpt><trkpt lat="43.5859631" lon="12.2029597"><ele>679.0</ele><time>2026-04-11T08:38:24.608Z</time></trkpt><trkpt lat="43.586039" lon="12.2029982"><ele>679.0</ele><time>2026-04-11T08:38:26.608Z</time></trkpt><trkpt lat="43.5861137" lon="12.2029879"><ele>679.0</ele><time>2026-04-11T08:38:29.607Z</time></trkpt><trkpt lat="43.5861766" lon="12.202954"><ele>679.0</ele><time>2026-04-11T08:38:33.608Z</time></trkpt><trkpt lat="43.5862415" lon="12.2028905"><ele>679.0</ele><time>2026-04-11T08:38:37.608Z</time></trkpt><trkpt lat="43.5862983" lon="12.2028347"><ele>679.0</ele><time>2026-04-11T08:38:40.608Z</time></trkpt><trkpt lat="43.5863462" lon="12.2027682"><ele>679.0</ele><time>2026-04-11T08:38:44.608Z</time></trkpt><trkpt lat="43.5864196" lon="12.2027288"><ele>679.0</ele><time>2026-04-11T08:38:47.608Z</time></trkpt><trkpt lat="43.5864874" lon="12.2027014"><ele>681.0</ele><time>2026-04-11T08:38:49.608Z</time></trkpt><trkpt lat="43.5865587" lon="12.2026355"><ele>683.0</ele><time>2026-04-11T08:38:52.608Z</time></trkpt><trkpt lat="43.5866184" lon="12.2025806"><ele>685.0</ele><time>2026-04-11T08:38:54.608Z</time></trkpt><trkpt lat="43.5867411" lon="12.2025605"><ele>687.0</ele><time>2026-04-11T08:38:59.608Z</time></trkpt><trkpt lat="43.586798" lon="12.2025218"><ele>689.0</ele><time>2026-04-11T08:39:03.608Z</time></trkpt><trkpt lat="43.5868799" lon="12.2024634"><ele>691.0</ele><time>2026-04-11T08:39:07.608Z</time></trkpt><trkpt lat="43.5869284" lon="12.2023742"><ele>692.5</ele><time>2026-04-11T08:39:09.608Z</time></trkpt><trkpt lat="43.5869792" lon="12.2022993"><ele>694.0</ele><time>2026-04-11T08:39:11.607Z</time></trkpt><trkpt lat="43.5870429" lon="12.2021622"><ele>695.5</ele><time>2026-04-11T08:39:13.608Z</time></trkpt><trkpt lat="43.5870552" lon="12.2020757"><ele>697.0</ele><time>2026-04-11T08:39:14.607Z</time></trkpt><trkpt lat="43.5870958" lon="12.2019773"><ele>698.5</ele><time>2026-04-11T08:39:16.608Z</time></trkpt><trkpt lat="43.587173" lon="12.2019021"><ele>700.0</ele><time>2026-04-11T08:39:18.608Z</time></trkpt><trkpt lat="43.5872358" lon="12.2018459"><ele>701.0</ele><time>2026-04-11T08:39:20.608Z</time></trkpt><trkpt lat="43.5873231" lon="12.2018321"><ele>702.0</ele><time>2026-04-11T08:39:23.608Z</time></trkpt><trkpt lat="43.5874116" lon="12.2018402"><ele>703.0</ele><time>2026-04-11T08:39:25.608Z</time></trkpt><trkpt lat="43.5875015" lon="12.2018078"><ele>704.0</ele><time>2026-04-11T08:39:27.608Z</time></trkpt><trkpt lat="43.587602" lon="12.2017837"><ele>705.0</ele><time>2026-04-11T08:39:29.608Z</time></trkpt><trkpt lat="43.5876957" lon="12.2017607"><ele>705.0</ele><time>2026-04-11T08:39:31.608Z</time></trkpt><trkpt lat="43.5877703" lon="12.2017538"><ele>705.0</ele><time>2026-04-11T08:39:34.608Z</time></trkpt><trkpt lat="43.5878982" lon="12.2017527"><ele>705.0</ele><time>2026-04-11T08:41:28.605Z</time></trkpt><trkpt lat="43.5879581" lon="12.2017245"><ele>705.0</ele><time>2026-04-11T08:41:55.605Z</time></trkpt><trkpt lat="43.5880282" lon="12.2017736"><ele>705.0</ele><time>2026-04-11T08:43:26.605Z</time></trkpt><trkpt lat="43.5880712" lon="12.201838"><ele>705.0</ele><time>2026-04-11T08:43:29.605Z</time></trkpt><trkpt lat="43.5881441" lon="12.2019005"><ele>706.8333333333334</ele><time>2026-04-11T08:45:17.605Z</time></trkpt><trkpt lat="43.588218" lon="12.2019599"><ele>708.6666666666666</ele><time>2026-04-11T08:45:20.605Z</time></trkpt><trkpt lat="43.588279" lon="12.2020569"><ele>710.5</ele><time>2026-04-11T08:45:22.605Z</time></trkpt><trkpt lat="43.588334" lon="12.2021264"><ele>712.3333333333333</ele><time>2026-04-11T08:45:24.604Z</time></trkpt><trkpt lat="43.5883925" lon="12.2021807"><ele>714.1666666666666</ele><time>2026-04-11T08:45:27.603Z</time></trkpt><trkpt lat="43.5884498" lon="12.2022194"><ele>716.0</ele><time>2026-04-11T08:45:29.605Z</time></trkpt><trkpt lat="43.588512" lon="12.2022472"><ele>716.0000000000001</ele><time>2026-04-11T08:45:31.605Z</time></trkpt><trkpt lat="43.5885808" lon="12.2022975"><ele>716.0</ele><time>2026-04-11T08:45:33.604Z</time></trkpt><trkpt lat="43.588519" lon="12.2022788"><ele>716.0</ele><time>2026-04-11T08:46:44.605Z</time></trkpt><trkpt lat="43.588455" lon="12.2022323"><ele>716.0</ele><time>2026-04-11T08:46:51.605Z</time></trkpt><trkpt lat="43.5884052" lon="12.2021555"><ele>716.0</ele><time>2026-04-11T08:46:59.605Z</time></trkpt><trkpt lat="43.5883916" lon="12.202043"><ele>716.0000000000001</ele><time>2026-04-11T08:47:48.605Z</time></trkpt><trkpt lat="43.5884593" lon="12.2020394"><ele>716.0</ele><time>2026-04-11T08:47:56.605Z</time></trkpt><trkpt lat="43.5885174" lon="12.2019909"><ele>716.0</ele><time>2026-04-11T08:48:03.605Z</time></trkpt><trkpt lat="43.5885625" lon="12.2019278"><ele>716.0</ele><time>2026-04-11T08:48:11.686Z</time></trkpt><trkpt lat="43.5886443" lon="12.2018496"><ele>716.0</ele><time>2026-04-11T08:48:29.665Z</time></trkpt><trkpt lat="43.588722" lon="12.2018931"><ele>716.0</ele><time>2026-04-11T08:48:49.604Z</time></trkpt><trkpt lat="43.5888239" lon="12.2019101"><ele>716.0</ele><time>2026-04-11T08:49:28.605Z</time></trkpt><trkpt lat="43.5888866" lon="12.2019381"><ele>716.0</ele><time>2026-04-11T08:49:33.605Z</time></trkpt><trkpt lat="43.5889396" lon="12.2019908"><ele>719.4285714285714</ele><time>2026-04-11T08:49:40.605Z</time></trkpt><trkpt lat="43.5889449" lon="12.2020776"><ele>722.8571428571429</ele><time>2026-04-11T08:49:52.605Z</time></trkpt><trkpt lat="43.5889633" lon="12.2021693"><ele>726.2857142857142</ele><time>2026-04-11T08:49:56.605Z</time></trkpt><trkpt lat="43.5889787" lon="12.2022536"><ele>729.7142857142858</ele><time>2026-04-11T08:50:08.605Z</time></trkpt><trkpt lat="43.588962" lon="12.2021586"><ele>733.1428571428571</ele><time>2026-04-11T08:52:20.605Z</time></trkpt><trkpt lat="43.588912" lon="12.2020344"><ele>736.5714285714286</ele><time>2026-04-11T08:52:39.646Z</time></trkpt><trkpt lat="43.5888676" lon="12.201966"><ele>740.0</ele><time>2026-04-11T08:52:50.605Z</time></trkpt><trkpt lat="43.5888188" lon="12.2019065"><ele>739.9999999999999</ele><time>2026-04-11T08:52:56.605Z</time></trkpt><trkpt lat="43.5887526" lon="12.2019043"><ele>740.0</ele><time>2026-04-11T08:53:04.673Z</time></trkpt><trkpt lat="43.5886622" lon="12.201924"><ele>740.0</ele><time>2026-04-11T08:54:06.604Z</time></trkpt><trkpt lat="43.588596" lon="12.201881"><ele>740.0</ele><time>2026-04-11T08:54:12.605Z</time></trkpt><trkpt lat="43.5885305" lon="12.2019061"><ele>740.0</ele><time>2026-04-11T08:54:27.604Z</time></trkpt><trkpt lat="43.5884911" lon="12.2019968"><ele>739.9999999999999</ele><time>2026-04-11T08:54:33.605Z</time></trkpt><trkpt lat="43.588457" lon="12.2020798"><ele>740.0</ele><time>2026-04-11T08:54:40.646Z</time></trkpt><trkpt lat="43.5883962" lon="12.2021246"><ele>738.2857142857142</ele><time>2026-04-11T08:54:50.618Z</time></trkpt><trkpt lat="43.5884411" lon="12.2021919"><ele>736.5714285714286</ele><time>2026-04-11T08:55:05.596Z</time></trkpt><trkpt lat="43.5885056" lon="12.2022072"><ele>734.8571428571429</ele><time>2026-04-11T08:55:11.645Z</time></trkpt><trkpt lat="43.5885389" lon="12.2022855"><ele>733.1428571428571</ele><time>2026-04-11T08:55:24.605Z</time></trkpt><trkpt lat="43.5885815" lon="12.2023561"><ele>731.4285714285714</ele><time>2026-04-11T08:56:52.59Z</time></trkpt><trkpt lat="43.588586" lon="12.2024611"><ele>729.7142857142857</ele><time>2026-04-11T08:56:55.605Z</time></trkpt><trkpt lat="43.5886001" lon="12.2025588"><ele>728.0</ele><time>2026-04-11T08:56:58.458Z</time></trkpt><trkpt lat="43.5886141" lon="12.202644"><ele>728.0</ele><time>2026-04-11T08:57:00.605Z</time></trkpt><trkpt lat="43.5886532" lon="12.2027323"><ele>728.0</ele><time>2026-04-11T08:57:04.604Z</time></trkpt><trkpt lat="43.5886947" lon="12.2027986"><ele>728.0</ele><time>2026-04-11T08:57:08.646Z</time></trkpt><trkpt lat="43.5887363" lon="12.2028707"><ele>728.0</ele><time>2026-04-11T08:57:13.657Z</time></trkpt><trkpt lat="43.5888078" lon="12.2029123"><ele>728.0</ele><time>2026-04-11T08:57:16.654Z</time></trkpt><trkpt lat="43.5888772" lon="12.2029309"><ele>728.0</ele><time>2026-04-11T08:57:19.605Z</time></trkpt><trkpt lat="43.5890682" lon="12.2030074"><ele>728.4</ele><time>2026-04-11T08:57:21.604Z</time></trkpt><trkpt lat="43.5891623" lon="12.2030512"><ele>728.8</ele><time>2026-04-11T08:57:22.659Z</time></trkpt><trkpt lat="43.5892466" lon="12.2030486"><ele>729.2</ele><time>2026-04-11T08:59:06.604Z</time></trkpt><trkpt lat="43.589344" lon="12.2029974"><ele>729.6</ele><time>2026-04-11T08:59:09.605Z</time></trkpt><trkpt lat="43.5894528" lon="12.2029915"><ele>730.0</ele><time>2026-04-11T08:59:11.605Z</time></trkpt><trkpt lat="43.5895535" lon="12.2029754"><ele>733.2</ele><time>2026-04-11T08:59:13.604Z</time></trkpt><trkpt lat="43.5896429" lon="12.2029703"><ele>736.4</ele><time>2026-04-11T08:59:15.605Z</time></trkpt><trkpt lat="43.5897787" lon="12.2030314"><ele>739.5999999999999</ele><time>2026-04-11T08:59:17.604Z</time></trkpt><trkpt lat="43.5898703" lon="12.2030318"><ele>742.8</ele><time>2026-04-11T08:59:20.605Z</time></trkpt><trkpt lat="43.5899025" lon="12.2031327"><ele>746.0</ele><time>2026-04-11T08:59:24.604Z</time></trkpt><trkpt lat="43.5899284" lon="12.2030522"><ele>746.0</ele><time>2026-04-11T08:59:46.604Z</time></trkpt><trkpt lat="43.5899442" lon="12.2029388"><ele>746.0</ele><time>2026-04-11T09:00:31.605Z</time></trkpt><trkpt lat="43.589969" lon="12.2028408"><ele>746.0</ele><time>2026-04-11T09:00:33.605Z</time></trkpt><trkpt lat="43.5900075" lon="12.2027682"><ele>746.0</ele><time>2026-04-11T09:00:34.605Z</time></trkpt><trkpt lat="43.5900963" lon="12.2027073"><ele>746.0</ele><time>2026-04-11T09:00:36.605Z</time></trkpt><trkpt lat="43.5902064" lon="12.2027003"><ele>746.0</ele><time>2026-04-11T09:00:38.605Z</time></trkpt><trkpt lat="43.5902817" lon="12.2027196"><ele>748.0</ele><time>2026-04-11T09:00:40.605Z</time></trkpt><trkpt lat="43.5903477" lon="12.2027043"><ele>750.0</ele><time>2026-04-11T09:00:41.604Z</time></trkpt><trkpt lat="43.5904422" lon="12.202669"><ele>752.0</ele><time>2026-04-11T09:00:43.605Z</time></trkpt><trkpt lat="43.5905193" lon="12.2026259"><ele>754.0</ele><time>2026-04-11T09:00:45.605Z</time></trkpt><trkpt lat="43.5905769" lon="12.2025795"><ele>756.0</ele><time>2026-04-11T09:00:46.604Z</time></trkpt><trkpt lat="43.5906701" lon="12.202477"><ele>758.0</ele><time>2026-04-11T09:00:48.604Z</time></trkpt><trkpt lat="43.5907404" lon="12.2023907"><ele>758.1666666666666</ele><time>2026-04-11T09:00:49.604Z</time></trkpt><trkpt lat="43.5907773" lon="12.2023074"><ele>758.3333333333333</ele><time>2026-04-11T09:00:50.605Z</time></trkpt><trkpt lat="43.5908174" lon="12.2022105"><ele>758.5</ele><time>2026-04-11T09:00:51.605Z</time></trkpt><trkpt lat="43.5908701" lon="12.2021327"><ele>758.6666666666666</ele><time>2026-04-11T09:00:52.603Z</time></trkpt><trkpt lat="43.5909093" lon="12.2020511"><ele>758.8333333333334</ele><time>2026-04-11T09:00:53.605Z</time></trkpt><trkpt lat="43.5910101" lon="12.2019773"><ele>759.0</ele><time>2026-04-11T09:00:55.605Z</time></trkpt><trkpt lat="43.5911337" lon="12.2020671"><ele>758.8333333333334</ele><time>2026-04-11T09:00:56.605Z</time></trkpt><trkpt lat="43.5912198" lon="12.2021154"><ele>758.6666666666666</ele><time>2026-04-11T09:00:58.604Z</time></trkpt><trkpt lat="43.5912855" lon="12.2022024"><ele>758.5</ele><time>2026-04-11T09:01:19.605Z</time></trkpt><trkpt lat="43.5912832" lon="12.2023582"><ele>758.3333333333333</ele><time>2026-04-11T09:01:21.604Z</time></trkpt><trkpt lat="43.5912453" lon="12.2024487"><ele>758.1666666666666</ele><time>2026-04-11T09:01:22.605Z</time></trkpt><trkpt lat="43.5911926" lon="12.2025212"><ele>758.0</ele><time>2026-04-11T09:01:23.605Z</time></trkpt><trkpt lat="43.5911464" lon="12.2025837"><ele>758.0</ele><time>2026-04-11T09:01:24.605Z</time></trkpt><trkpt lat="43.5910908" lon="12.2026602"><ele>758.0</ele><time>2026-04-11T09:01:25.604Z</time></trkpt><trkpt lat="43.5910626" lon="12.2028084"><ele>758.0</ele><time>2026-04-11T09:01:27.605Z</time></trkpt><trkpt lat="43.5911188" lon="12.2029095"><ele>758.0</ele><time>2026-04-11T09:01:30.605Z</time></trkpt><trkpt lat="43.5912086" lon="12.2029209"><ele>758.0</ele><time>2026-04-11T09:01:32.605Z</time></trkpt><trkpt lat="43.5912855" lon="12.2029617"><ele>760.25</ele><time>2026-04-11T09:01:34.605Z</time></trkpt><trkpt lat="43.5913591" lon="12.2029919"><ele>762.5</ele><time>2026-04-11T09:01:36.604Z</time></trkpt><trkpt lat="43.5914307" lon="12.2030268"><ele>764.75</ele><time>2026-04-11T09:01:38.604Z</time></trkpt><trkpt lat="43.5916157" lon="12.2030287"><ele>767.0</ele><time>2026-04-11T09:01:40.603Z</time></trkpt><trkpt lat="43.5917378" lon="12.2030646"><ele>767.0</ele><time>2026-04-11T09:01:42.605Z</time></trkpt><trkpt lat="43.5919259" lon="12.2031083"><ele>767.0</ele><time>2026-04-11T09:01:43.605Z</time></trkpt><trkpt lat="43.5920426" lon="12.2031064"><ele>767.0</ele><time>2026-04-11T09:01:45.605Z</time></trkpt><trkpt lat="43.5921178" lon="12.2030854"><ele>767.0</ele><time>2026-04-11T09:01:47.605Z</time></trkpt><trkpt lat="43.5921807" lon="12.2030802"><ele>767.0</ele><time>2026-04-11T09:01:48.605Z</time></trkpt><trkpt lat="43.5922531" lon="12.2030446"><ele>769.3333333333333</ele><time>2026-04-11T09:01:50.605Z</time></trkpt><trkpt lat="43.5923361" lon="12.2030764"><ele>771.6666666666666</ele><time>2026-04-11T09:01:52.605Z</time></trkpt><trkpt lat="43.5924292" lon="12.203103"><ele>774.0</ele><time>2026-04-11T09:01:54.605Z</time></trkpt><trkpt lat="43.5924959" lon="12.2030954"><ele>776.3333333333333</ele><time>2026-04-11T09:01:56.604Z</time></trkpt><trkpt lat="43.5925663" lon="12.2030798"><ele>778.6666666666666</ele><time>2026-04-11T09:02:00.605Z</time></trkpt><trkpt lat="43.5926309" lon="12.2030423"><ele>781.0</ele><time>2026-04-11T09:02:02.605Z</time></trkpt><trkpt lat="43.5927108" lon="12.2030338"><ele>780.9999999999999</ele><time>2026-04-11T09:02:04.605Z</time></trkpt><trkpt lat="43.5927718" lon="12.2030592"><ele>781.0</ele><time>2026-04-11T09:02:06.604Z</time></trkpt><trkpt lat="43.5927841" lon="12.2031625"><ele>781.0</ele><time>2026-04-11T09:02:09.605Z</time></trkpt><trkpt lat="43.5928548" lon="12.203189"><ele>781.0</ele><time>2026-04-11T09:02:20.604Z</time></trkpt><trkpt lat="43.5929179" lon="12.2032921"><ele>780.9999999999999</ele><time>2026-04-11T09:02:23.605Z</time></trkpt><trkpt lat="43.5929559" lon="12.2033956"><ele>781.0</ele><time>2026-04-11T09:02:25.605Z</time></trkpt><trkpt lat="43.5930187" lon="12.2034691"><ele>781.6666666666666</ele><time>2026-04-11T09:02:27.605Z</time></trkpt><trkpt lat="43.5931047" lon="12.2034862"><ele>782.3333333333333</ele><time>2026-04-11T09:02:29.605Z</time></trkpt><trkpt lat="43.5931831" lon="12.2034826"><ele>783.0</ele><time>2026-04-11T09:02:31.605Z</time></trkpt><trkpt lat="43.5932664" lon="12.2034939"><ele>783.6666666666667</ele><time>2026-04-11T09:02:33.605Z</time></trkpt><trkpt lat="43.593364" lon="12.2034751"><ele>784.3333333333334</ele><time>2026-04-11T09:03:46.603Z</time></trkpt><trkpt lat="43.5934275" lon="12.2035723"><ele>785.0</ele><time>2026-04-11T09:03:49.605Z</time></trkpt><trkpt lat="43.5935286" lon="12.2036556"><ele>785.0</ele><time>2026-04-11T09:03:51.605Z</time></trkpt><trkpt lat="43.5936362" lon="12.2037285"><ele>785.0</ele><time>2026-04-11T09:03:53.605Z</time></trkpt><trkpt lat="43.5937198" lon="12.2037263"><ele>785.0</ele><time>2026-04-11T09:03:55.605Z</time></trkpt><trkpt lat="43.5937793" lon="12.2037617"><ele>785.0</ele><time>2026-04-11T09:03:57.604Z</time></trkpt><trkpt lat="43.5938557" lon="12.2038544"><ele>785.0</ele><time>2026-04-11T09:04:00.605Z</time></trkpt><trkpt lat="43.5939452" lon="12.2040036"><ele>786.2</ele><time>2026-04-11T09:04:01.605Z</time></trkpt><trkpt lat="43.5941247" lon="12.204011"><ele>787.4</ele><time>2026-04-11T09:04:03.605Z</time></trkpt><trkpt lat="43.5941951" lon="12.2040051"><ele>788.5999999999999</ele><time>2026-04-11T09:04:05.605Z</time></trkpt><trkpt lat="43.5942756" lon="12.2039293"><ele>789.8</ele><time>2026-04-11T09:04:07.605Z</time></trkpt><trkpt lat="43.5943324" lon="12.2038694"><ele>791.0</ele><time>2026-04-11T09:04:09.605Z</time></trkpt><trkpt lat="43.5944267" lon="12.2038692"><ele>791.3333333333334</ele><time>2026-04-11T09:04:11.605Z</time></trkpt><trkpt lat="43.594502" lon="12.2038998"><ele>791.6666666666667</ele><time>2026-04-11T09:04:14.605Z</time></trkpt><trkpt lat="43.5945938" lon="12.2039131"><ele>792.0</ele><time>2026-04-11T09:04:17.605Z</time></trkpt><trkpt lat="43.5946567" lon="12.2039228"><ele>792.3333333333333</ele><time>2026-04-11T09:04:19.604Z</time></trkpt><trkpt lat="43.5947225" lon="12.2039437"><ele>792.6666666666666</ele><time>2026-04-11T09:04:21.603Z</time></trkpt><trkpt lat="43.5948071" lon="12.2039847"><ele>793.0</ele><time>2026-04-11T09:04:25.605Z</time></trkpt><trkpt lat="43.5948705" lon="12.2040445"><ele>794.4999999999999</ele><time>2026-04-11T09:04:28.605Z</time></trkpt><trkpt lat="43.5949262" lon="12.2041111"><ele>796.0</ele><time>2026-04-11T09:04:31.605Z</time></trkpt><trkpt lat="43.5949765" lon="12.20422"><ele>797.5</ele><time>2026-04-11T09:04:34.605Z</time></trkpt><trkpt lat="43.5950582" lon="12.2042754"><ele>799.0</ele><time>2026-04-11T09:04:36.605Z</time></trkpt><trkpt lat="43.595133" lon="12.2043048"><ele>800.4999999999999</ele><time>2026-04-11T09:04:38.604Z</time></trkpt><trkpt lat="43.5951934" lon="12.2043693"><ele>802.0</ele><time>2026-04-11T09:04:40.605Z</time></trkpt><trkpt lat="43.5952741" lon="12.2044371"><ele>803.5</ele><time>2026-04-11T09:04:42.604Z</time></trkpt><trkpt lat="43.5954642" lon="12.2044781"><ele>805.0</ele><time>2026-04-11T09:04:46.605Z</time></trkpt><trkpt lat="43.5955682" lon="12.2045388"><ele>806.5</ele><time>2026-04-11T09:04:48.605Z</time></trkpt><trkpt lat="43.5956878" lon="12.2045858"><ele>808.0</ele><time>2026-04-11T09:04:50.604Z</time></trkpt><trkpt lat="43.5958071" lon="12.2046148"><ele>808.0</ele><time>2026-04-11T09:04:52.605Z</time></trkpt><trkpt lat="43.595916" lon="12.2046421"><ele>808.0</ele><time>2026-04-11T09:04:54.605Z</time></trkpt><trkpt lat="43.5960155" lon="12.2046927"><ele>808.0</ele><time>2026-04-11T09:04:56.605Z</time></trkpt><trkpt lat="43.5961938" lon="12.2048945"><ele>808.0</ele><time>2026-04-11T09:04:57.604Z</time></trkpt><trkpt lat="43.5962974" lon="12.2049978"><ele>810.5999999999999</ele><time>2026-04-11T09:04:59.605Z</time></trkpt><trkpt lat="43.5963629" lon="12.2050654"><ele>813.1999999999999</ele><time>2026-04-11T09:05:00.605Z</time></trkpt><trkpt lat="43.5964888" lon="12.2051679"><ele>815.8</ele><time>2026-04-11T09:05:02.605Z</time></trkpt><trkpt lat="43.5965739" lon="12.2052059"><ele>818.4</ele><time>2026-04-11T09:05:03.605Z</time></trkpt><trkpt lat="43.5966411" lon="12.2052395"><ele>821.0</ele><time>2026-04-11T09:05:04.604Z</time></trkpt><trkpt lat="43.5967062" lon="12.2052874"><ele>821.0000000000001</ele><time>2026-04-11T09:05:06.605Z</time></trkpt><trkpt lat="43.5967555" lon="12.205354"><ele>821.0</ele><time>2026-04-11T09:05:08.604Z</time></trkpt><trkpt lat="43.5967986" lon="12.2054467"><ele>821.0</ele><time>2026-04-11T09:05:09.604Z</time></trkpt><trkpt lat="43.5968738" lon="12.2055125"><ele>821.0</ele><time>2026-04-11T09:05:12.605Z</time></trkpt><trkpt lat="43.5969531" lon="12.2055242"><ele>821.0000000000001</ele><time>2026-04-11T09:05:14.604Z</time></trkpt><trkpt lat="43.5970394" lon="12.2055607"><ele>821.0</ele><time>2026-04-11T09:05:17.604Z</time></trkpt><trkpt lat="43.5971046" lon="12.205559"><ele>823.6666666666667</ele><time>2026-04-11T09:05:20.604Z</time></trkpt><trkpt lat="43.5971691" lon="12.2055576"><ele>826.3333333333334</ele><time>2026-04-11T09:05:23.604Z</time></trkpt><trkpt lat="43.5972362" lon="12.2055777"><ele>829.0</ele><time>2026-04-11T09:05:26.605Z</time></trkpt><trkpt lat="43.5973315" lon="12.2055969"><ele>831.6666666666667</ele><time>2026-04-11T09:05:32.604Z</time></trkpt><trkpt lat="43.5974255" lon="12.205568"><ele>834.3333333333334</ele><time>2026-04-11T09:05:34.604Z</time></trkpt><trkpt lat="43.5974677" lon="12.2054855"><ele>837.0</ele><time>2026-04-11T09:05:39.605Z</time></trkpt><trkpt lat="43.5976913" lon="12.2054837"><ele>837.0</ele><time>2026-04-11T09:05:41.604Z</time></trkpt><trkpt lat="43.5977819" lon="12.2054936"><ele>837.0</ele><time>2026-04-11T09:05:43.605Z</time></trkpt><trkpt lat="43.5978452" lon="12.2055048"><ele>837.0</ele><time>2026-04-11T09:05:45.605Z</time></trkpt><trkpt lat="43.5979173" lon="12.2054746"><ele>837.0</ele><time>2026-04-11T09:05:48.549Z</time></trkpt><trkpt lat="43.5979861" lon="12.2054945"><ele>837.0</ele><time>2026-04-11T09:05:50.605Z</time></trkpt><trkpt lat="43.5980568" lon="12.2055267"><ele>837.0</ele><time>2026-04-11T09:05:54.664Z</time></trkpt><trkpt lat="43.598197" lon="12.205485"><ele>839.6666666666666</ele><time>2026-04-11T09:05:56.605Z</time></trkpt><trkpt lat="43.5983089" lon="12.2054432"><ele>842.3333333333333</ele><time>2026-04-11T09:05:57.604Z</time></trkpt><trkpt lat="43.5984121" lon="12.2054162"><ele>845.0</ele><time>2026-04-11T09:05:58.605Z</time></trkpt><trkpt lat="43.5984827" lon="12.2053914"><ele>847.6666666666666</ele><time>2026-04-11T09:05:59.605Z</time></trkpt><trkpt lat="43.5985501" lon="12.2053819"><ele>850.3333333333333</ele><time>2026-04-11T09:06:00.605Z</time></trkpt><trkpt lat="43.5986194" lon="12.2053797"><ele>853.0</ele><time>2026-04-11T09:06:01.604Z</time></trkpt><trkpt lat="43.5986847" lon="12.2053724"><ele>854.5999999999999</ele><time>2026-04-11T09:06:02.605Z</time></trkpt><trkpt lat="43.5988136" lon="12.205342"><ele>856.1999999999999</ele><time>2026-04-11T09:06:04.604Z</time></trkpt><trkpt lat="43.5988938" lon="12.2052958"><ele>857.8</ele><time>2026-04-11T09:06:05.605Z</time></trkpt><trkpt lat="43.5989867" lon="12.2052544"><ele>859.4</ele><time>2026-04-11T09:06:06.604Z</time></trkpt><trkpt lat="43.5990687" lon="12.2052264"><ele>861.0</ele><time>2026-04-11T09:06:07.605Z</time></trkpt><trkpt lat="43.5991394" lon="12.2051988"><ele>861.0</ele><time>2026-04-11T09:06:08.605Z</time></trkpt><trkpt lat="43.5992066" lon="12.2051731"><ele>860.9999999999999</ele><time>2026-04-11T09:06:09.605Z</time></trkpt><trkpt lat="43.5992653" lon="12.2051364"><ele>860.9999999999999</ele><time>2026-04-11T09:06:10.605Z</time></trkpt><trkpt lat="43.5992975" lon="12.2049859"><ele>861.0</ele><time>2026-04-11T09:06:12.605Z</time></trkpt><trkpt lat="43.5993208" lon="12.2048687"><ele>861.0</ele><time>2026-04-11T09:06:14.603Z</time></trkpt><trkpt lat="43.5993685" lon="12.2047082"><ele>864.0</ele><time>2026-04-11T09:06:16.605Z</time></trkpt><trkpt lat="43.5995595" lon="12.2048301"><ele>866.9999999999999</ele><time>2026-04-11T09:06:21.604Z</time></trkpt><trkpt lat="43.5995938" lon="12.2049111"><ele>869.9999999999999</ele><time>2026-04-11T09:06:22.604Z</time></trkpt><trkpt lat="43.5996396" lon="12.2049816"><ele>873.0</ele><time>2026-04-11T09:06:23.603Z</time></trkpt><trkpt lat="43.599684" lon="12.2050521"><ele>876.0</ele><time>2026-04-11T09:06:24.605Z</time></trkpt><trkpt lat="43.5997455" lon="12.2050884"><ele>876.0</ele><time>2026-04-11T09:06:25.605Z</time></trkpt><trkpt lat="43.599806" lon="12.2051227"><ele>876.0</ele><time>2026-04-11T09:06:26.603Z</time></trkpt><trkpt lat="43.5999082" lon="12.2050637"><ele>876.0</ele><time>2026-04-11T09:06:28.605Z</time></trkpt><trkpt lat="43.5999735" lon="12.2050317"><ele>876.0</ele><time>2026-04-11T09:06:30.605Z</time></trkpt><trkpt lat="43.6000415" lon="12.2049461"><ele>876.0</ele><time>2026-04-11T09:06:32.605Z</time></trkpt><trkpt lat="43.6001156" lon="12.2048725"><ele>876.0</ele><time>2026-04-11T09:06:34.604Z</time></trkpt><trkpt lat="43.6002044" lon="12.2047616"><ele>878.5999999999999</ele><time>2026-04-11T09:06:36.605Z</time></trkpt><trkpt lat="43.6002749" lon="12.2047186"><ele>881.1999999999999</ele><time>2026-04-11T09:06:38.605Z</time></trkpt><trkpt lat="43.6003714" lon="12.2046764"><ele>883.8000000000001</ele><time>2026-04-11T09:06:40.605Z</time></trkpt><trkpt lat="43.6004952" lon="12.2046273"><ele>886.4000000000001</ele><time>2026-04-11T09:06:42.604Z</time></trkpt><trkpt lat="43.6005815" lon="12.2046419"><ele>889.0</ele><time>2026-04-11T09:06:44.605Z</time></trkpt><trkpt lat="43.6007269" lon="12.2047273"><ele>891.6</ele><time>2026-04-11T09:06:46.605Z</time></trkpt><trkpt lat="43.6008217" lon="12.2047878"><ele>894.2</ele><time>2026-04-11T09:06:48.605Z</time></trkpt><trkpt lat="43.6008853" lon="12.2048142"><ele>896.8000000000001</ele><time>2026-04-11T09:06:49.605Z</time></trkpt><trkpt lat="43.60095" lon="12.2048113"><ele>899.4000000000001</ele><time>2026-04-11T09:06:50.605Z</time></trkpt><trkpt lat="43.6010358" lon="12.2047995"><ele>902.0</ele><time>2026-04-11T09:06:51.604Z</time></trkpt><trkpt lat="43.601177" lon="12.2048331"><ele>902.5000000000001</ele><time>2026-04-11T09:06:56.604Z</time></trkpt><trkpt lat="43.601258" lon="12.2048486"><ele>903.0</ele><time>2026-04-11T09:06:58.605Z</time></trkpt><trkpt lat="43.6013392" lon="12.2048706"><ele>903.5</ele><time>2026-04-11T09:07:00.605Z</time></trkpt><trkpt lat="43.6014115" lon="12.2048134"><ele>904.0</ele><time>2026-04-11T09:07:02.604Z</time></trkpt><trkpt lat="43.6014815" lon="12.2048058"><ele>904.5000000000001</ele><time>2026-04-11T09:07:05.605Z</time></trkpt><trkpt lat="43.601594" lon="12.2047391"><ele>905.0</ele><time>2026-04-11T09:07:08.605Z</time></trkpt><trkpt lat="43.6017067" lon="12.2047292"><ele>907.5000000000001</ele><time>2026-04-11T09:07:10.604Z</time></trkpt><trkpt lat="43.6018049" lon="12.2047058"><ele>910.0</ele><time>2026-04-11T09:07:12.605Z</time></trkpt><trkpt lat="43.6018828" lon="12.2047058"><ele>912.5</ele><time>2026-04-11T09:07:13.603Z</time></trkpt><trkpt lat="43.601951" lon="12.2047134"><ele>915.0</ele><time>2026-04-11T09:07:14.605Z</time></trkpt><trkpt lat="43.6020145" lon="12.2046979"><ele>917.5000000000001</ele><time>2026-04-11T09:07:15.604Z</time></trkpt><trkpt lat="43.602109" lon="12.2047067"><ele>920.0</ele><time>2026-04-11T09:07:17.604Z</time></trkpt><trkpt lat="43.6022104" lon="12.2047275"><ele>922.6</ele><time>2026-04-11T09:07:19.605Z</time></trkpt><trkpt lat="43.6022829" lon="12.2046929"><ele>925.2</ele><time>2026-04-11T09:07:20.604Z</time></trkpt><trkpt lat="43.6024135" lon="12.2046659"><ele>927.8</ele><time>2026-04-11T09:07:21.603Z</time></trkpt><trkpt lat="43.6024778" lon="12.2046499"><ele>930.4</ele><time>2026-04-11T09:07:22.604Z</time></trkpt><trkpt lat="43.6025437" lon="12.2046517"><ele>933.0</ele><time>2026-04-11T09:07:23.605Z</time></trkpt><trkpt lat="43.6026995" lon="12.2046387"><ele>933.0</ele><time>2026-04-11T09:07:25.605Z</time></trkpt><trkpt lat="43.6028059" lon="12.2046241"><ele>933.0</ele><time>2026-04-11T09:07:27.604Z</time></trkpt><trkpt lat="43.6028964" lon="12.2045837"><ele>933.0</ele><time>2026-04-11T09:07:29.605Z</time></trkpt><trkpt lat="43.6029457" lon="12.2045195"><ele>933.0</ele><time>2026-04-11T09:07:31.605Z</time></trkpt><trkpt lat="43.6030235" lon="12.2044625"><ele>933.0</ele><time>2026-04-11T09:07:33.605Z</time></trkpt><trkpt lat="43.6031141" lon="12.2043591"><ele>934.4</ele><time>2026-04-11T09:07:35.604Z</time></trkpt><trkpt lat="43.6031922" lon="12.2043449"><ele>935.8</ele><time>2026-04-11T09:07:36.605Z</time></trkpt><trkpt lat="43.6032436" lon="12.204282"><ele>937.2</ele><time>2026-04-11T09:07:37.605Z</time></trkpt><trkpt lat="43.6033501" lon="12.2041948"><ele>938.6</ele><time>2026-04-11T09:07:39.605Z</time></trkpt><trkpt lat="43.6034295" lon="12.2040982"><ele>940.0</ele><time>2026-04-11T09:07:41.605Z</time></trkpt><trkpt lat="43.6035229" lon="12.204009"><ele>943.2</ele><time>2026-04-11T09:07:43.605Z</time></trkpt><trkpt lat="43.6036043" lon="12.2039337"><ele>946.4</ele><time>2026-04-11T09:07:45.605Z</time></trkpt><trkpt lat="43.6036202" lon="12.2038374"><ele>949.5999999999999</ele><time>2026-04-11T09:07:46.605Z</time></trkpt><trkpt lat="43.6036727" lon="12.2037326"><ele>952.8</ele><time>2026-04-11T09:07:48.605Z</time></trkpt><trkpt lat="43.603708" lon="12.2036297"><ele>956.0</ele><time>2026-04-11T09:07:50.605Z</time></trkpt><trkpt lat="43.6038345" lon="12.2035572"><ele>957.0000000000001</ele><time>2026-04-11T09:07:52.605Z</time></trkpt><trkpt lat="43.6039193" lon="12.2034977"><ele>958.0</ele><time>2026-04-11T09:07:54.605Z</time></trkpt><trkpt lat="43.6039514" lon="12.2034157"><ele>959.0</ele><time>2026-04-11T09:08:45.605Z</time></trkpt><trkpt lat="43.6040172" lon="12.2033592"><ele>960.0</ele><time>2026-04-11T09:08:49.605Z</time></trkpt><trkpt lat="43.6040941" lon="12.203287"><ele>961.0000000000001</ele><time>2026-04-11T09:08:52.604Z</time></trkpt><trkpt lat="43.6041523" lon="12.2032091"><ele>962.0</ele><time>2026-04-11T09:09:13.605Z</time></trkpt><trkpt lat="43.6042593" lon="12.2031567"><ele>962.0000000000001</ele><time>2026-04-11T09:09:16.605Z</time></trkpt><trkpt lat="43.604335" lon="12.2031515"><ele>962.0</ele><time>2026-04-11T09:09:17.605Z</time></trkpt><trkpt lat="43.604407" lon="12.2031378"><ele>962.0</ele><time>2026-04-11T09:09:18.605Z</time></trkpt><trkpt lat="43.6044872" lon="12.2031896"><ele>962.0</ele><time>2026-04-11T09:09:20.605Z</time></trkpt><trkpt lat="43.6045585" lon="12.2032186"><ele>962.0000000000001</ele><time>2026-04-11T09:09:21.605Z</time></trkpt><trkpt lat="43.6046218" lon="12.2032599"><ele>962.0</ele><time>2026-04-11T09:09:22.605Z</time></trkpt><trkpt lat="43.6047389" lon="12.203343"><ele>968.5</ele><time>2026-04-11T09:09:24.605Z</time></trkpt><trkpt lat="43.6048788" lon="12.2034624"><ele>975.0</ele><time>2026-04-11T09:09:26.604Z</time></trkpt><trkpt lat="43.6048732" lon="12.2036822"><ele>981.5</ele><time>2026-04-11T09:09:27.604Z</time></trkpt><trkpt lat="43.604885" lon="12.2038338"><ele>988.0</ele><time>2026-04-11T09:09:28.604Z</time></trkpt><trkpt lat="43.6048628" lon="12.204005"><ele>988.8</ele><time>2026-04-11T09:09:29.604Z</time></trkpt><trkpt lat="43.6048494" lon="12.2041128"><ele>989.5999999999999</ele><time>2026-04-11T09:09:30.604Z</time></trkpt><trkpt lat="43.6048211" lon="12.2043557"><ele>990.4000000000001</ele><time>2026-04-11T09:09:32.604Z</time></trkpt><trkpt lat="43.6048373" lon="12.204472"><ele>991.2</ele><time>2026-04-11T09:09:33.605Z</time></trkpt><trkpt lat="43.6048672" lon="12.2045914"><ele>992.0</ele><time>2026-04-11T09:09:34.605Z</time></trkpt><trkpt lat="43.6049106" lon="12.2047201"><ele>992.0000000000001</ele><time>2026-04-11T09:09:36.605Z</time></trkpt><trkpt lat="43.604942" lon="12.204798"><ele>992.0</ele><time>2026-04-11T09:09:37.605Z</time></trkpt><trkpt lat="43.6050033" lon="12.2049354"><ele>992.0</ele><time>2026-04-11T09:09:39.605Z</time></trkpt><trkpt lat="43.6050558" lon="12.2050272"><ele>992.0</ele><time>2026-04-11T09:09:41.605Z</time></trkpt><trkpt lat="43.6050996" lon="12.2051078"><ele>992.0000000000001</ele><time>2026-04-11T09:09:43.605Z</time></trkpt><trkpt lat="43.605114" lon="12.2050059"><ele>992.0</ele><time>2026-04-11T09:09:46.605Z</time></trkpt><trkpt lat="43.6051993" lon="12.2048193"><ele>992.0</ele><time>2026-04-11T09:09:48.604Z</time></trkpt><trkpt lat="43.6052549" lon="12.2046463"><ele>992.0</ele><time>2026-04-11T09:09:50.604Z</time></trkpt><trkpt lat="43.6052684" lon="12.2045427"><ele>992.0</ele><time>2026-04-11T09:09:51.605Z</time></trkpt><trkpt lat="43.6052905" lon="12.2044412"><ele>992.0</ele><time>2026-04-11T09:09:52.605Z</time></trkpt><trkpt lat="43.6053229" lon="12.2043453"><ele>992.0</ele><time>2026-04-11T09:09:53.604Z</time></trkpt><trkpt lat="43.6053825" lon="12.2041944"><ele>997.2</ele><time>2026-04-11T09:09:55.605Z</time></trkpt><trkpt lat="43.605411" lon="12.2040836"><ele>1002.4000000000001</ele><time>2026-04-11T09:09:56.605Z</time></trkpt><trkpt lat="43.6054309" lon="12.2039921"><ele>1007.5999999999999</ele><time>2026-04-11T09:09:57.605Z</time></trkpt><trkpt lat="43.6054672" lon="12.2038285"><ele>1012.8</ele><time>2026-04-11T09:09:59.605Z</time></trkpt><trkpt lat="43.6054905" lon="12.2036421"><ele>1018.0</ele><time>2026-04-11T09:10:01.605Z</time></trkpt><trkpt lat="43.6054878" lon="12.2035233"><ele>1017.9999999999999</ele><time>2026-04-11T09:10:02.604Z</time></trkpt><trkpt lat="43.6055033" lon="12.2034007"><ele>1018.0</ele><time>2026-04-11T09:10:03.605Z</time></trkpt><trkpt lat="43.6055175" lon="12.2033158"><ele>1018.0</ele><time>2026-04-11T09:10:04.605Z</time></trkpt><trkpt lat="43.6055208" lon="12.2032155"><ele>1018.0</ele><time>2026-04-11T09:10:05.604Z</time></trkpt><trkpt lat="43.6055294" lon="12.2030578"><ele>1017.9999999999999</ele><time>2026-04-11T09:10:07.605Z</time></trkpt><trkpt lat="43.6055646" lon="12.202923"><ele>1018.0</ele><time>2026-04-11T09:10:09.605Z</time></trkpt><trkpt lat="43.6055929" lon="12.2028414"><ele>1017.9999999999999</ele><time>2026-04-11T09:10:10.605Z</time></trkpt><trkpt lat="43.6056518" lon="12.202775"><ele>1018.0</ele><time>2026-04-11T09:10:12.604Z</time></trkpt><trkpt lat="43.6057141" lon="12.2027611"><ele>1018.0</ele><time>2026-04-11T09:10:40.605Z</time></trkpt><trkpt lat="43.6057733" lon="12.2028645"><ele>1018.0</ele><time>2026-04-11T09:10:42.605Z</time></trkpt><trkpt lat="43.6058509" lon="12.2029519"><ele>1017.9999999999999</ele><time>2026-04-11T09:10:44.604Z</time></trkpt><trkpt lat="43.60589" lon="12.203068"><ele>1018.0</ele><time>2026-04-11T09:10:46.603Z</time></trkpt><trkpt lat="43.6059228" lon="12.2031839"><ele>1017.9999999999999</ele><time>2026-04-11T09:10:48.605Z</time></trkpt><trkpt lat="43.6059922" lon="12.2032896"><ele>1018.0</ele><time>2026-04-11T09:10:50.604Z</time></trkpt><trkpt lat="43.6060309" lon="12.2033646"><ele>1018.0</ele><time>2026-04-11T09:10:51.604Z</time></trkpt><trkpt lat="43.6061176" lon="12.2034688"><ele>1018.0</ele><time>2026-04-11T09:10:52.604Z</time></trkpt><trkpt lat="43.606147" lon="12.2035478"><ele>1017.9999999999999</ele><time>2026-04-11T09:10:53.605Z</time></trkpt><trkpt lat="43.6062059" lon="12.2036102"><ele>1018.0</ele><time>2026-04-11T09:10:54.605Z</time></trkpt><trkpt lat="43.6062491" lon="12.2036952"><ele>1018.0</ele><time>2026-04-11T09:10:56.605Z</time></trkpt><trkpt lat="43.6063113" lon="12.2038364"><ele>1018.0</ele><time>2026-04-11T09:10:58.605Z</time></trkpt><trkpt lat="43.6063313" lon="12.2039732"><ele>1018.0</ele><time>2026-04-11T09:11:01.605Z</time></trkpt><trkpt lat="43.6063669" lon="12.2040752"><ele>1018.0</ele><time>2026-04-11T09:11:03.604Z</time></trkpt><trkpt lat="43.6063418" lon="12.2041815"><ele>1018.0</ele><time>2026-04-11T09:11:05.605Z</time></trkpt><trkpt lat="43.6063578" lon="12.2042754"><ele>1017.9999999999999</ele><time>2026-04-11T09:11:07.604Z</time></trkpt><trkpt lat="43.6063853" lon="12.2043702"><ele>1018.0</ele><time>2026-04-11T09:11:09.605Z</time></trkpt><trkpt lat="43.6064134" lon="12.2044645"><ele>1018.0</ele><time>2026-04-11T09:11:11.604Z</time></trkpt><trkpt lat="43.6064563" lon="12.2045601"><ele>1018.0</ele><time>2026-04-11T09:11:13.604Z</time></trkpt><trkpt lat="43.6065088" lon="12.2046703"><ele>1017.9999999999999</ele><time>2026-04-11T09:11:15.605Z</time></trkpt><trkpt lat="43.6065768" lon="12.2047901"><ele>1018.0</ele><time>2026-04-11T09:11:16.605Z</time></trkpt><trkpt lat="43.6066156" lon="12.2048678"><ele>1020.1666666666666</ele><time>2026-04-11T09:11:18.605Z</time></trkpt><trkpt lat="43.6066421" lon="12.2049536"><ele>1022.3333333333333</ele><time>2026-04-11T09:11:21.605Z</time></trkpt><trkpt lat="43.6067007" lon="12.2050422"><ele>1024.5</ele><time>2026-04-11T09:11:24.605Z</time></trkpt><trkpt lat="43.606736" lon="12.2051409"><ele>1026.6666666666667</ele><time>2026-04-11T09:11:26.605Z</time></trkpt><trkpt lat="43.6067442" lon="12.205256"><ele>1028.8333333333335</ele><time>2026-04-11T09:11:27.605Z</time></trkpt><trkpt lat="43.6067823" lon="12.2053532"><ele>1031.0</ele><time>2026-04-11T09:11:29.605Z</time></trkpt><trkpt lat="43.6068176" lon="12.2054775"><ele>1031.0</ele><time>2026-04-11T09:11:32.604Z</time></trkpt><trkpt lat="43.6068426" lon="12.2055739"><ele>1031.0</ele><time>2026-04-11T09:11:34.605Z</time></trkpt><trkpt lat="43.6068765" lon="12.2056938"><ele>1031.0</ele><time>2026-04-11T09:11:37.605Z</time></trkpt><trkpt lat="43.6068823" lon="12.2057942"><ele>1031.0</ele><time>2026-04-11T09:11:39.605Z</time></trkpt><trkpt lat="43.6068775" lon="12.2058826"><ele>1031.0</ele><time>2026-04-11T09:11:41.604Z</time></trkpt><trkpt lat="43.6068427" lon="12.2059814"><ele>1031.0</ele><time>2026-04-11T09:11:44.605Z</time></trkpt><trkpt lat="43.6068252" lon="12.2060711"><ele>1032.2857142857142</ele><time>2026-04-11T09:11:47.605Z</time></trkpt><trkpt lat="43.6067765" lon="12.2061508"><ele>1033.5714285714284</ele><time>2026-04-11T09:11:50.604Z</time></trkpt><trkpt lat="43.606743" lon="12.2062336"><ele>1034.857142857143</ele><time>2026-04-11T09:11:53.604Z</time></trkpt><trkpt lat="43.6067563" lon="12.2063507"><ele>1036.142857142857</ele><time>2026-04-11T09:11:56.605Z</time></trkpt><trkpt lat="43.6067682" lon="12.2064375"><ele>1037.4285714285716</ele><time>2026-04-11T09:11:58.605Z</time></trkpt><trkpt lat="43.6067363" lon="12.2065161"><ele>1038.7142857142858</ele><time>2026-04-11T09:12:00.604Z</time></trkpt><trkpt lat="43.6066924" lon="12.2065937"><ele>1040.0</ele><time>2026-04-11T09:12:02.604Z</time></trkpt><trkpt lat="43.60667" lon="12.2067097"><ele>1042.3333333333335</ele><time>2026-04-11T09:12:31.604Z</time></trkpt><trkpt lat="43.6066658" lon="12.2068147"><ele>1044.6666666666667</ele><time>2026-04-11T09:12:35.604Z</time></trkpt><trkpt lat="43.6066253" lon="12.2069029"><ele>1047.0</ele><time>2026-04-11T09:12:37.604Z</time></trkpt><trkpt lat="43.6065862" lon="12.2070071"><ele>1049.3333333333333</ele><time>2026-04-11T09:12:40.605Z</time></trkpt><trkpt lat="43.6065289" lon="12.2070737"><ele>1051.6666666666665</ele><time>2026-04-11T09:12:47.604Z</time></trkpt><trkpt lat="43.6064744" lon="12.2071531"><ele>1054.0</ele><time>2026-04-11T09:12:50.604Z</time></trkpt><trkpt lat="43.6064777" lon="12.2072597"><ele>1055.857142857143</ele><time>2026-04-11T09:12:56.605Z</time></trkpt><trkpt lat="43.6065001" lon="12.2073546"><ele>1057.7142857142858</ele><time>2026-04-11T09:15:29.604Z</time></trkpt><trkpt lat="43.6065513" lon="12.2074163"><ele>1059.5714285714284</ele><time>2026-04-11T09:15:33.605Z</time></trkpt><trkpt lat="43.6065601" lon="12.2075172"><ele>1061.4285714285716</ele><time>2026-04-11T09:15:38.604Z</time></trkpt><trkpt lat="43.6065956" lon="12.2075951"><ele>1063.2857142857142</ele><time>2026-04-11T09:15:40.605Z</time></trkpt><trkpt lat="43.6066452" lon="12.2076732"><ele>1065.142857142857</ele><time>2026-04-11T09:15:42.605Z</time></trkpt><trkpt lat="43.6067053" lon="12.2077542"><ele>1067.0</ele><time>2026-04-11T09:15:44.604Z</time></trkpt><trkpt lat="43.6067555" lon="12.207871"><ele>1067.0</ele><time>2026-04-11T09:15:46.604Z</time></trkpt><trkpt lat="43.6068191" lon="12.2079725"><ele>1067.0</ele><time>2026-04-11T09:15:48.604Z</time></trkpt><trkpt lat="43.6068588" lon="12.2080661"><ele>1067.0</ele><time>2026-04-11T09:15:50.605Z</time></trkpt><trkpt lat="43.6068995" lon="12.2081413"><ele>1067.0</ele><time>2026-04-11T09:15:53.605Z</time></trkpt><trkpt lat="43.6069526" lon="12.208195"><ele>1067.0</ele><time>2026-04-11T09:16:03.605Z</time></trkpt><trkpt lat="43.6069856" lon="12.2083049"><ele>1067.0</ele><time>2026-04-11T09:16:06.605Z</time></trkpt><trkpt lat="43.6069793" lon="12.2084275"><ele>1067.5</ele><time>2026-04-11T09:16:08.605Z</time></trkpt><trkpt lat="43.6069108" lon="12.2084971"><ele>1068.0</ele><time>2026-04-11T09:16:10.605Z</time></trkpt><trkpt lat="43.606853" lon="12.2085412"><ele>1068.5</ele><time>2026-04-11T09:16:11.604Z</time></trkpt><trkpt lat="43.6068066" lon="12.2086474"><ele>1069.0</ele><time>2026-04-11T09:16:13.605Z</time></trkpt><trkpt lat="43.6068108" lon="12.2087524"><ele>1069.5</ele><time>2026-04-11T09:16:39.605Z</time></trkpt><trkpt lat="43.6067687" lon="12.2088507"><ele>1070.0</ele><time>2026-04-11T09:16:55.605Z</time></trkpt><trkpt lat="43.6067167" lon="12.2089409"><ele>1072.142857142857</ele><time>2026-04-11T09:16:58.605Z</time></trkpt><trkpt lat="43.6066937" lon="12.2090238"><ele>1074.2857142857142</ele><time>2026-04-11T09:17:00.604Z</time></trkpt><trkpt lat="43.6066605" lon="12.2091358"><ele>1076.4285714285716</ele><time>2026-04-11T09:17:04.604Z</time></trkpt><trkpt lat="43.6066151" lon="12.2092401"><ele>1078.5714285714284</ele><time>2026-04-11T09:17:07.604Z</time></trkpt><trkpt lat="43.606579" lon="12.2093196"><ele>1080.7142857142858</ele><time>2026-04-11T09:17:09.605Z</time></trkpt><trkpt lat="43.6065237" lon="12.2093701"><ele>1082.857142857143</ele><time>2026-04-11T09:17:11.605Z</time></trkpt><trkpt lat="43.6064563" lon="12.2094027"><ele>1085.0</ele><time>2026-04-11T09:17:26.604Z</time></trkpt><trkpt lat="43.606432" lon="12.2094839"><ele>1085.0</ele><time>2026-04-11T09:17:29.603Z</time></trkpt><trkpt lat="43.6064221" lon="12.2095844"><ele>1085.0</ele><time>2026-04-11T09:17:33.605Z</time></trkpt><trkpt lat="43.6064337" lon="12.2097093"><ele>1085.0</ele><time>2026-04-11T09:17:37.605Z</time></trkpt><trkpt lat="43.6063942" lon="12.209821"><ele>1085.0</ele><time>2026-04-11T09:17:40.604Z</time></trkpt><trkpt lat="43.6063574" lon="12.2099401"><ele>1085.0</ele><time>2026-04-11T09:17:42.604Z</time></trkpt><trkpt lat="43.6063204" lon="12.2100366"><ele>1085.0</ele><time>2026-04-11T09:17:44.605Z</time></trkpt><trkpt lat="43.6063131" lon="12.2101365"><ele>1087.3333333333335</ele><time>2026-04-11T09:17:47.604Z</time></trkpt><trkpt lat="43.606375" lon="12.2102104"><ele>1089.6666666666667</ele><time>2026-04-11T09:17:52.605Z</time></trkpt><trkpt lat="43.6064612" lon="12.2102548"><ele>1092.0</ele><time>2026-04-11T09:17:55.605Z</time></trkpt><trkpt lat="43.6065276" lon="12.2102915"><ele>1094.3333333333333</ele><time>2026-04-11T09:17:57.605Z</time></trkpt><trkpt lat="43.6065938" lon="12.2103346"><ele>1096.6666666666665</ele><time>2026-04-11T09:17:59.605Z</time></trkpt><trkpt lat="43.6066659" lon="12.210391"><ele>1099.0</ele><time>2026-04-11T09:18:02.605Z</time></trkpt><trkpt lat="43.6067427" lon="12.2104261"><ele>1099.0</ele><time>2026-04-11T09:18:05.604Z</time></trkpt><trkpt lat="43.6067972" lon="12.2104909"><ele>1099.0</ele><time>2026-04-11T09:18:07.603Z</time></trkpt><trkpt lat="43.6068735" lon="12.210517"><ele>1099.0</ele><time>2026-04-11T09:18:10.605Z</time></trkpt><trkpt lat="43.6069352" lon="12.2105429"><ele>1099.0</ele><time>2026-04-11T09:18:14.604Z</time></trkpt><trkpt lat="43.6070007" lon="12.2105513"><ele>1099.0</ele><time>2026-04-11T09:18:17.604Z</time></trkpt><trkpt lat="43.6070766" lon="12.2105712"><ele>1099.0</ele><time>2026-04-11T09:18:20.605Z</time></trkpt><trkpt lat="43.6071436" lon="12.2106312"><ele>1099.0</ele><time>2026-04-11T09:18:23.604Z</time></trkpt><trkpt lat="43.6072222" lon="12.2106696"><ele>1102.0</ele><time>2026-04-11T09:18:26.605Z</time></trkpt><trkpt lat="43.6072905" lon="12.2107495"><ele>1105.0</ele><time>2026-04-11T09:18:40.603Z</time></trkpt><trkpt lat="43.6073566" lon="12.2108026"><ele>1108.0</ele><time>2026-04-11T09:18:44.605Z</time></trkpt><trkpt lat="43.607408" lon="12.2108915"><ele>1111.0</ele><time>2026-04-11T09:18:46.605Z</time></trkpt><trkpt lat="43.6074588" lon="12.211027"><ele>1114.0</ele><time>2026-04-11T09:18:48.604Z</time></trkpt><trkpt lat="43.6075352" lon="12.2110437"><ele>1117.0</ele><time>2026-04-11T09:22:38.605Z</time></trkpt><trkpt lat="43.6075962" lon="12.2110697"><ele>1117.0</ele><time>2026-04-11T09:22:41.605Z</time></trkpt><trkpt lat="43.6076579" lon="12.2111179"><ele>1117.0</ele><time>2026-04-11T09:22:45.604Z</time></trkpt><trkpt lat="43.607732" lon="12.2111659"><ele>1117.0</ele><time>2026-04-11T09:22:49.605Z</time></trkpt><trkpt lat="43.6078857" lon="12.2111604"><ele>1117.0</ele><time>2026-04-11T09:22:59.605Z</time></trkpt><trkpt lat="43.6079695" lon="12.2111893"><ele>1117.0</ele><time>2026-04-11T09:23:06.605Z</time></trkpt><trkpt lat="43.6080542" lon="12.211186"><ele>1120.8</ele><time>2026-04-11T09:23:17.605Z</time></trkpt><trkpt lat="43.6081594" lon="12.2111588"><ele>1124.6</ele><time>2026-04-11T09:23:23.605Z</time></trkpt><trkpt lat="43.6082482" lon="12.2111423"><ele>1128.3999999999999</ele><time>2026-04-11T09:23:27.605Z</time></trkpt><trkpt lat="43.6083014" lon="12.2111958"><ele>1132.2</ele><time>2026-04-11T09:23:50.604Z</time></trkpt><trkpt lat="43.6084128" lon="12.2112375"><ele>1136.0</ele><time>2026-04-11T09:23:52.605Z</time></trkpt><trkpt lat="43.6084853" lon="12.2112071"><ele>1136.0</ele><time>2026-04-11T09:23:54.604Z</time></trkpt><trkpt lat="43.6085509" lon="12.2112059"><ele>1136.0</ele><time>2026-04-11T09:23:56.605Z</time></trkpt><trkpt lat="43.6086304" lon="12.2112561"><ele>1136.0</ele><time>2026-04-11T09:23:59.605Z</time></trkpt><trkpt lat="43.6086817" lon="12.2113464"><ele>1136.0</ele><time>2026-04-11T09:24:02.604Z</time></trkpt><trkpt lat="43.6087585" lon="12.2113682"><ele>1136.0</ele><time>2026-04-11T09:24:04.605Z</time></trkpt><trkpt lat="43.6088207" lon="12.2113457"><ele>1136.0</ele><time>2026-04-11T09:24:06.605Z</time></trkpt><trkpt lat="43.6088943" lon="12.2113669"><ele>1136.8333333333335</ele><time>2026-04-11T09:24:08.605Z</time></trkpt><trkpt lat="43.6089891" lon="12.2114542"><ele>1137.6666666666667</ele><time>2026-04-11T09:24:10.605Z</time></trkpt><trkpt lat="43.6090674" lon="12.21149"><ele>1138.5</ele><time>2026-04-11T09:24:12.605Z</time></trkpt><trkpt lat="43.609128" lon="12.2115312"><ele>1139.3333333333333</ele><time>2026-04-11T09:24:18.604Z</time></trkpt><trkpt lat="43.6090873" lon="12.211614"><ele>1140.1666666666665</ele><time>2026-04-11T09:24:21.604Z</time></trkpt><trkpt lat="43.6090237" lon="12.211652"><ele>1141.0</ele><time>2026-04-11T09:24:30.604Z</time></trkpt><trkpt lat="43.6090584" lon="12.2117327"><ele>1140.4285714285713</ele><time>2026-04-11T09:24:37.603Z</time></trkpt><trkpt lat="43.6091267" lon="12.2117621"><ele>1139.857142857143</ele><time>2026-04-11T09:24:41.603Z</time></trkpt><trkpt lat="43.6092056" lon="12.2117925"><ele>1139.2857142857142</ele><time>2026-04-11T09:25:06.604Z</time></trkpt><trkpt lat="43.6092725" lon="12.2118433"><ele>1138.7142857142858</ele><time>2026-04-11T09:25:12.605Z</time></trkpt><trkpt lat="43.6093184" lon="12.2119066"><ele>1138.142857142857</ele><time>2026-04-11T09:25:17.605Z</time></trkpt><trkpt lat="43.609392" lon="12.211909"><ele>1137.5714285714284</ele><time>2026-04-11T09:27:30.605Z</time></trkpt><trkpt lat="43.6094543" lon="12.2119569"><ele>1137.0</ele><time>2026-04-11T09:27:35.605Z</time></trkpt><trkpt lat="43.6095221" lon="12.2120089"><ele>1137.0</ele><time>2026-04-11T09:27:40.605Z</time></trkpt><trkpt lat="43.6095928" lon="12.212043"><ele>1137.0</ele><time>2026-04-11T09:27:44.605Z</time></trkpt><trkpt lat="43.6096618" lon="12.2120619"><ele>1137.0</ele><time>2026-04-11T09:27:48.605Z</time></trkpt><trkpt lat="43.6097352" lon="12.2121051"><ele>1137.0</ele><time>2026-04-11T09:27:52.605Z</time></trkpt><trkpt lat="43.6097933" lon="12.2121412"><ele>1137.0</ele><time>2026-04-11T09:27:55.603Z</time></trkpt><trkpt lat="43.609859" lon="12.2121984"><ele>1137.0</ele><time>2026-04-11T09:27:58.605Z</time></trkpt><trkpt lat="43.6099465" lon="12.2122472"><ele>1137.0</ele><time>2026-04-11T09:28:01.605Z</time></trkpt><trkpt lat="43.6100105" lon="12.2122888"><ele>1137.0</ele><time>2026-04-11T09:28:03.605Z</time></trkpt><trkpt lat="43.6100744" lon="12.2123042"><ele>1137.0</ele><time>2026-04-11T09:28:06.603Z</time></trkpt><trkpt lat="43.6101466" lon="12.2123585"><ele>1137.0</ele><time>2026-04-11T09:28:09.604Z</time></trkpt><trkpt lat="43.610201" lon="12.2124282"><ele>1137.0</ele><time>2026-04-11T09:28:11.604Z</time></trkpt><trkpt lat="43.6102202" lon="12.212538"><ele>1137.0</ele><time>2026-04-11T09:28:14.603Z</time></trkpt><trkpt lat="43.6102331" lon="12.2126754"><ele>1137.4285714285713</ele><time>2026-04-11T09:28:16.604Z</time></trkpt><trkpt lat="43.6103133" lon="12.212678"><ele>1137.857142857143</ele><time>2026-04-11T09:28:18.604Z</time></trkpt><trkpt lat="43.6103235" lon="12.2127662"><ele>1138.2857142857142</ele><time>2026-04-11T09:28:20.605Z</time></trkpt><trkpt lat="43.6103693" lon="12.2128745"><ele>1138.7142857142858</ele><time>2026-04-11T09:28:23.605Z</time></trkpt><trkpt lat="43.6104226" lon="12.2129337"><ele>1139.142857142857</ele><time>2026-04-11T09:28:25.603Z</time></trkpt><trkpt lat="43.6104672" lon="12.2130083"><ele>1139.5714285714284</ele><time>2026-04-11T09:28:27.604Z</time></trkpt><trkpt lat="43.6104922" lon="12.2131012"><ele>1140.0</ele><time>2026-04-11T09:28:29.605Z</time></trkpt><trkpt lat="43.6105191" lon="12.213223"><ele>1142.2</ele><time>2026-04-11T09:28:31.604Z</time></trkpt><trkpt lat="43.6105212" lon="12.2133442"><ele>1144.4</ele><time>2026-04-11T09:28:33.605Z</time></trkpt><trkpt lat="43.6105266" lon="12.2134627"><ele>1146.6</ele><time>2026-04-11T09:28:36.605Z</time></trkpt><trkpt lat="43.6105216" lon="12.2136653"><ele>1148.8</ele><time>2026-04-11T09:28:38.605Z</time></trkpt><trkpt lat="43.6105727" lon="12.2137456"><ele>1151.0</ele><time>2026-04-11T09:28:40.605Z</time></trkpt><trkpt lat="43.6106046" lon="12.2138294"><ele>1151.0</ele><time>2026-04-11T09:28:42.605Z</time></trkpt><trkpt lat="43.610588" lon="12.2137411"><ele>1151.0</ele><time>2026-04-11T09:30:32.605Z</time></trkpt><trkpt lat="43.610553" lon="12.2136524"><ele>1151.0</ele><time>2026-04-11T09:31:09.605Z</time></trkpt><trkpt lat="43.6105314" lon="12.2135293"><ele>1151.0</ele><time>2026-04-11T09:31:21.604Z</time></trkpt><trkpt lat="43.6105069" lon="12.2134182"><ele>1151.0</ele><time>2026-04-11T09:31:23.604Z</time></trkpt><trkpt lat="43.6105083" lon="12.2133296"><ele>1151.0</ele><time>2026-04-11T09:31:26.604Z</time></trkpt><trkpt lat="43.6105081" lon="12.2132268"><ele>1147.8333333333335</ele><time>2026-04-11T09:32:00.605Z</time></trkpt><trkpt lat="43.6104537" lon="12.2131069"><ele>1144.6666666666667</ele><time>2026-04-11T09:32:02.605Z</time></trkpt><trkpt lat="43.6104284" lon="12.2130183"><ele>1141.5</ele><time>2026-04-11T09:32:04.604Z</time></trkpt><trkpt lat="43.6104043" lon="12.2128895"><ele>1138.3333333333333</ele><time>2026-04-11T09:32:08.605Z</time></trkpt><trkpt lat="43.6103545" lon="12.21282"><ele>1135.1666666666665</ele><time>2026-04-11T09:32:19.604Z</time></trkpt><trkpt lat="43.6103717" lon="12.212929"><ele>1132.0</ele><time>2026-04-11T09:32:26.605Z</time></trkpt><trkpt lat="43.610409" lon="12.2130601"><ele>1134.7142857142858</ele><time>2026-04-11T09:32:28.605Z</time></trkpt><trkpt lat="43.6104422" lon="12.2131568"><ele>1137.4285714285716</ele><time>2026-04-11T09:32:30.605Z</time></trkpt><trkpt lat="43.6104764" lon="12.213249"><ele>1140.142857142857</ele><time>2026-04-11T09:32:31.604Z</time></trkpt><trkpt lat="43.6105271" lon="12.2133387"><ele>1142.857142857143</ele><time>2026-04-11T09:32:33.605Z</time></trkpt><trkpt lat="43.6105914" lon="12.213369"><ele>1145.5714285714284</ele><time>2026-04-11T09:32:35.604Z</time></trkpt><trkpt lat="43.6106681" lon="12.2133491"><ele>1148.2857142857142</ele><time>2026-04-11T09:32:37.605Z</time></trkpt><trkpt lat="43.6107338" lon="12.213329"><ele>1151.0</ele><time>2026-04-11T09:32:38.605Z</time></trkpt><trkpt lat="43.6108261" lon="12.2133177"><ele>1151.0</ele><time>2026-04-11T09:32:40.605Z</time></trkpt><trkpt lat="43.610923" lon="12.2133143"><ele>1151.0</ele><time>2026-04-11T09:32:42.605Z</time></trkpt><trkpt lat="43.6110282" lon="12.213308"><ele>1151.0</ele><time>2026-04-11T09:32:44.605Z</time></trkpt><trkpt lat="43.6111306" lon="12.2133257"><ele>1151.0</ele><time>2026-04-11T09:32:46.604Z</time></trkpt><trkpt lat="43.6112397" lon="12.2133174"><ele>1151.0</ele><time>2026-04-11T09:32:48.605Z</time></trkpt><trkpt lat="43.6113659" lon="12.2133171"><ele>1149.8</ele><time>2026-04-11T09:32:50.605Z</time></trkpt><trkpt lat="43.611514" lon="12.2133261"><ele>1148.6</ele><time>2026-04-11T09:32:52.604Z</time></trkpt><trkpt lat="43.6115785" lon="12.2133262"><ele>1147.4</ele><time>2026-04-11T09:32:53.605Z</time></trkpt><trkpt lat="43.6115362" lon="12.2133999"><ele>1146.2</ele><time>2026-04-11T09:35:04.605Z</time></trkpt><trkpt lat="43.6114443" lon="12.2133732"><ele>1145.0</ele><time>2026-04-11T09:35:05.605Z</time></trkpt><trkpt lat="43.6113253" lon="12.2133456"><ele>1145.0</ele><time>2026-04-11T09:35:07.605Z</time></trkpt><trkpt lat="43.6112597" lon="12.2133292"><ele>1145.0</ele><time>2026-04-11T09:35:08.605Z</time></trkpt><trkpt lat="43.611186" lon="12.2133383"><ele>1145.0</ele><time>2026-04-11T09:35:09.604Z</time></trkpt><trkpt lat="43.6111208" lon="12.2133327"><ele>1145.0</ele><time>2026-04-11T09:35:10.604Z</time></trkpt><trkpt lat="43.6110575" lon="12.2133121"><ele>1145.0</ele><time>2026-04-11T09:35:11.605Z</time></trkpt><trkpt lat="43.6109315" lon="12.2133108"><ele>1145.0</ele><time>2026-04-11T09:35:13.604Z</time></trkpt><trkpt lat="43.6108591" lon="12.2133109"><ele>1146.0</ele><time>2026-04-11T09:35:14.605Z</time></trkpt><trkpt lat="43.6107766" lon="12.2133443"><ele>1147.0</ele><time>2026-04-11T09:35:15.604Z</time></trkpt><trkpt lat="43.6107127" lon="12.2133509"><ele>1148.0</ele><time>2026-04-11T09:35:16.604Z</time></trkpt><trkpt lat="43.6106414" lon="12.2133732"><ele>1149.0</ele><time>2026-04-11T09:35:17.605Z</time></trkpt><trkpt lat="43.610538" lon="12.2133778"><ele>1150.0</ele><time>2026-04-11T09:35:19.604Z</time></trkpt><trkpt lat="43.6104768" lon="12.2133456"><ele>1151.0</ele><time>2026-04-11T09:35:21.604Z</time></trkpt><trkpt lat="43.6105131" lon="12.2134334"><ele>1150.9999999999998</ele><time>2026-04-11T09:36:00.604Z</time></trkpt><trkpt lat="43.610496" lon="12.2135329"><ele>1151.0</ele><time>2026-04-11T09:36:06.682Z</time></trkpt><trkpt lat="43.6104563" lon="12.2136271"><ele>1151.0</ele><time>2026-04-11T09:36:11.607Z</time></trkpt><trkpt lat="43.6104819" lon="12.2135343"><ele>1151.0</ele><time>2026-04-11T09:37:07.604Z</time></trkpt><trkpt lat="43.6104947" lon="12.2134475"><ele>1151.0</ele><time>2026-04-11T09:37:12.604Z</time></trkpt><trkpt lat="43.6105007" lon="12.2133553"><ele>1150.9999999999998</ele><time>2026-04-11T09:37:17.681Z</time></trkpt><trkpt lat="43.6105205" lon="12.2132697"><ele>1151.0</ele><time>2026-04-11T09:37:22.605Z</time></trkpt><trkpt lat="43.6105827" lon="12.2132868"><ele>1151.0</ele><time>2026-04-11T09:37:37.563Z</time></trkpt><trkpt lat="43.6106091" lon="12.2133882"><ele>1151.0</ele><time>2026-04-11T09:37:40.605Z</time></trkpt><trkpt lat="43.6106757" lon="12.2133842"><ele>1151.0</ele><time>2026-04-11T09:37:43.605Z</time></trkpt><trkpt lat="43.6107448" lon="12.2133607"><ele>1151.0</ele><time>2026-04-11T09:37:45.605Z</time></trkpt><trkpt lat="43.6109192" lon="12.2133319"><ele>1151.0</ele><time>2026-04-11T09:37:46.605Z</time></trkpt><trkpt lat="43.6110499" lon="12.2133284"><ele>1151.0</ele><time>2026-04-11T09:37:47.603Z</time></trkpt><trkpt lat="43.6111541" lon="12.2133146"><ele>1151.0</ele><time>2026-04-11T09:37:48.604Z</time></trkpt><trkpt lat="43.6112649" lon="12.2133112"><ele>1151.0</ele><time>2026-04-11T09:37:49.604Z</time></trkpt><trkpt lat="43.6113615" lon="12.2133266"><ele>1151.0</ele><time>2026-04-11T09:37:50.605Z</time></trkpt><trkpt lat="43.6114514" lon="12.2133339"><ele>1151.0</ele><time>2026-04-11T09:37:51.605Z</time></trkpt><trkpt lat="43.6115389" lon="12.2133176"><ele>1150.0</ele><time>2026-04-11T09:37:52.605Z</time></trkpt><trkpt lat="43.6116196" lon="12.2132987"><ele>1149.0</ele><time>2026-04-11T09:37:53.605Z</time></trkpt><trkpt lat="43.6116898" lon="12.2132936"><ele>1148.0</ele><time>2026-04-11T09:37:54.605Z</time></trkpt><trkpt lat="43.6116371" lon="12.2133442"><ele>1147.0</ele><time>2026-04-11T09:37:57.605Z</time></trkpt><trkpt lat="43.6116339" lon="12.2134657"><ele>1146.0</ele><time>2026-04-11T09:38:43.604Z</time></trkpt><trkpt lat="43.6116744" lon="12.2135643"><ele>1145.0</ele><time>2026-04-11T09:38:46.605Z</time></trkpt><trkpt lat="43.6117466" lon="12.2135618"><ele>1145.0</ele><time>2026-04-11T09:38:48.603Z</time></trkpt><trkpt lat="43.6118694" lon="12.213553"><ele>1145.0</ele><time>2026-04-11T09:38:50.604Z</time></trkpt><trkpt lat="43.6119626" lon="12.2135969"><ele>1145.0</ele><time>2026-04-11T09:38:52.604Z</time></trkpt><trkpt lat="43.612033" lon="12.2135971"><ele>1145.0</ele><time>2026-04-11T09:38:53.605Z</time></trkpt><trkpt lat="43.6121362" lon="12.2135977"><ele>1145.0</ele><time>2026-04-11T09:38:55.603Z</time></trkpt><trkpt lat="43.6122312" lon="12.2136142"><ele>1144.4</ele><time>2026-04-11T09:38:57.604Z</time></trkpt><trkpt lat="43.6123758" lon="12.2136029"><ele>1143.8</ele><time>2026-04-11T09:38:59.605Z</time></trkpt><trkpt lat="43.612443" lon="12.2136142"><ele>1143.2</ele><time>2026-04-11T09:39:00.605Z</time></trkpt><trkpt lat="43.6125536" lon="12.2136031"><ele>1142.6</ele><time>2026-04-11T09:39:02.605Z</time></trkpt><trkpt lat="43.6126479" lon="12.2135642"><ele>1142.0</ele><time>2026-04-11T09:39:04.605Z</time></trkpt><trkpt lat="43.6127149" lon="12.2135729"><ele>1142.0</ele><time>2026-04-11T09:39:08.604Z</time></trkpt><trkpt lat="43.6127483" lon="12.2136806"><ele>1142.0</ele><time>2026-04-11T09:39:13.605Z</time></trkpt><trkpt lat="43.6127889" lon="12.2137875"><ele>1142.0</ele><time>2026-04-11T09:39:15.605Z</time></trkpt><trkpt lat="43.6128622" lon="12.2138878"><ele>1142.0</ele><time>2026-04-11T09:39:16.605Z</time></trkpt><trkpt lat="43.612928" lon="12.2139061"><ele>1142.0</ele><time>2026-04-11T09:39:17.604Z</time></trkpt><trkpt lat="43.6129795" lon="12.2139623"><ele>1142.0</ele><time>2026-04-11T09:39:18.605Z</time></trkpt><trkpt lat="43.6130086" lon="12.2140469"><ele>1132.25</ele><time>2026-04-11T09:39:19.605Z</time></trkpt><trkpt lat="43.6130815" lon="12.2140737"><ele>1122.5</ele><time>2026-04-11T09:39:21.604Z</time></trkpt><trkpt lat="43.6131566" lon="12.214062"><ele>1112.75</ele><time>2026-04-11T09:39:23.605Z</time></trkpt><trkpt lat="43.6132478" lon="12.2140619"><ele>1103.0</ele><time>2026-04-11T09:39:25.605Z</time></trkpt><trkpt lat="43.6134768" lon="12.2142127"><ele>1103.0</ele><time>2026-04-11T09:39:28.605Z</time></trkpt><trkpt lat="43.6135509" lon="12.2142414"><ele>1103.0</ele><time>2026-04-11T09:39:29.604Z</time></trkpt><trkpt lat="43.6136125" lon="12.2142885"><ele>1103.0</ele><time>2026-04-11T09:39:30.605Z</time></trkpt><trkpt lat="43.6136765" lon="12.2144017"><ele>1103.0</ele><time>2026-04-11T09:39:31.605Z</time></trkpt><trkpt lat="43.6136996" lon="12.2145905"><ele>1103.0</ele><time>2026-04-11T09:39:32.605Z</time></trkpt><trkpt lat="43.6137562" lon="12.2147182"><ele>1103.6</ele><time>2026-04-11T09:39:33.604Z</time></trkpt><trkpt lat="43.6138044" lon="12.2148729"><ele>1104.1999999999998</ele><time>2026-04-11T09:39:34.604Z</time></trkpt><trkpt lat="43.6138757" lon="12.2149935"><ele>1104.8</ele><time>2026-04-11T09:39:35.604Z</time></trkpt><trkpt lat="43.6139239" lon="12.2150652"><ele>1105.3999999999999</ele><time>2026-04-11T09:39:36.605Z</time></trkpt><trkpt lat="43.6139831" lon="12.2151556"><ele>1106.0</ele><time>2026-04-11T09:39:37.603Z</time></trkpt><trkpt lat="43.6140247" lon="12.2152617"><ele>1106.0</ele><time>2026-04-11T09:39:38.605Z</time></trkpt><trkpt lat="43.6140834" lon="12.2153614"><ele>1106.0</ele><time>2026-04-11T09:39:39.605Z</time></trkpt><trkpt lat="43.6141275" lon="12.2155028"><ele>1106.0</ele><time>2026-04-11T09:39:40.605Z</time></trkpt><trkpt lat="43.6141687" lon="12.2155875"><ele>1106.0</ele><time>2026-04-11T09:39:41.605Z</time></trkpt><trkpt lat="43.6142635" lon="12.2157393"><ele>1106.0</ele><time>2026-04-11T09:39:43.604Z</time></trkpt><trkpt lat="43.6143056" lon="12.2158131"><ele>1103.3999999999999</ele><time>2026-04-11T09:39:44.605Z</time></trkpt><trkpt lat="43.6143684" lon="12.2158905"><ele>1100.8</ele><time>2026-04-11T09:39:46.604Z</time></trkpt><trkpt lat="43.6144233" lon="12.2159526"><ele>1098.1999999999998</ele><time>2026-04-11T09:39:47.605Z</time></trkpt><trkpt lat="43.6144771" lon="12.2160109"><ele>1095.6</ele><time>2026-04-11T09:39:51.605Z</time></trkpt><trkpt lat="43.6145523" lon="12.2160902"><ele>1093.0</ele><time>2026-04-11T09:39:54.605Z</time></trkpt><trkpt lat="43.6146934" lon="12.2162391"><ele>1096.2</ele><time>2026-04-11T09:39:56.605Z</time></trkpt><trkpt lat="43.6147939" lon="12.2163164"><ele>1099.4</ele><time>2026-04-11T09:39:57.605Z</time></trkpt><trkpt lat="43.6148409" lon="12.2164505"><ele>1102.6000000000001</ele><time>2026-04-11T09:39:59.605Z</time></trkpt><trkpt lat="43.6148657" lon="12.2165567"><ele>1105.8</ele><time>2026-04-11T09:40:00.603Z</time></trkpt><trkpt lat="43.6148726" lon="12.2166516"><ele>1109.0</ele><time>2026-04-11T09:40:01.604Z</time></trkpt><trkpt lat="43.6148633" lon="12.2168249"><ele>1109.0</ele><time>2026-04-11T09:40:03.605Z</time></trkpt><trkpt lat="43.6148313" lon="12.2169015"><ele>1109.0</ele><time>2026-04-11T09:40:04.605Z</time></trkpt><trkpt lat="43.6148082" lon="12.2170224"><ele>1109.0</ele><time>2026-04-11T09:40:06.603Z</time></trkpt><trkpt lat="43.614806" lon="12.2171138"><ele>1109.0</ele><time>2026-04-11T09:40:08.605Z</time></trkpt><trkpt lat="43.6147935" lon="12.2172975"><ele>1109.0</ele><time>2026-04-11T09:40:10.605Z</time></trkpt><trkpt lat="43.6147985" lon="12.217406"><ele>1109.0</ele><time>2026-04-11T09:40:11.604Z</time></trkpt><trkpt lat="43.6148101" lon="12.2175562"><ele>1105.1666666666667</ele><time>2026-04-11T09:40:12.604Z</time></trkpt><trkpt lat="43.6148068" lon="12.2176513"><ele>1101.3333333333335</ele><time>2026-04-11T09:40:13.605Z</time></trkpt><trkpt lat="43.6148337" lon="12.2177818"><ele>1097.5</ele><time>2026-04-11T09:40:14.605Z</time></trkpt><trkpt lat="43.6148287" lon="12.2179015"><ele>1093.6666666666667</ele><time>2026-04-11T09:40:15.605Z</time></trkpt><trkpt lat="43.6148377" lon="12.2180011"><ele>1089.8333333333333</ele><time>2026-04-11T09:40:16.605Z</time></trkpt><trkpt lat="43.6148623" lon="12.2181063"><ele>1086.0</ele><time>2026-04-11T09:40:17.605Z</time></trkpt><trkpt lat="43.6148788" lon="12.2182032"><ele>1082.6666666666667</ele><time>2026-04-11T09:40:18.605Z</time></trkpt><trkpt lat="43.6149017" lon="12.2182963"><ele>1079.3333333333333</ele><time>2026-04-11T09:40:19.605Z</time></trkpt><trkpt lat="43.6149183" lon="12.218396"><ele>1076.0</ele><time>2026-04-11T09:40:20.605Z</time></trkpt><trkpt lat="43.6149281" lon="12.2184883"><ele>1072.6666666666665</ele><time>2026-04-11T09:40:21.605Z</time></trkpt><trkpt lat="43.6149721" lon="12.2185544"><ele>1069.3333333333333</ele><time>2026-04-11T09:40:25.604Z</time></trkpt><trkpt lat="43.615059" lon="12.2186147"><ele>1066.0</ele><time>2026-04-11T09:40:29.605Z</time></trkpt><trkpt lat="43.6151398" lon="12.2186338"><ele>1066.0</ele><time>2026-04-11T09:40:31.605Z</time></trkpt><trkpt lat="43.6152201" lon="12.2186053"><ele>1066.0</ele><time>2026-04-11T09:40:33.605Z</time></trkpt><trkpt lat="43.6153034" lon="12.2185368"><ele>1066.0</ele><time>2026-04-11T09:40:35.605Z</time></trkpt><trkpt lat="43.6153782" lon="12.2184537"><ele>1066.0</ele><time>2026-04-11T09:40:37.604Z</time></trkpt><trkpt lat="43.6154515" lon="12.2183775"><ele>1066.0</ele><time>2026-04-11T09:40:39.604Z</time></trkpt><trkpt lat="43.6155289" lon="12.2183071"><ele>1065.6</ele><time>2026-04-11T09:40:41.605Z</time></trkpt><trkpt lat="43.6156003" lon="12.2182554"><ele>1065.1999999999998</ele><time>2026-04-11T09:40:43.605Z</time></trkpt><trkpt lat="43.6156762" lon="12.2182113"><ele>1064.8000000000002</ele><time>2026-04-11T09:40:45.605Z</time></trkpt><trkpt lat="43.6157257" lon="12.2181295"><ele>1064.4</ele><time>2026-04-11T09:40:48.605Z</time></trkpt><trkpt lat="43.6157663" lon="12.2180553"><ele>1064.0</ele><time>2026-04-11T09:40:51.605Z</time></trkpt><trkpt lat="43.6158746" lon="12.2179241"><ele>1064.0</ele><time>2026-04-11T09:40:53.605Z</time></trkpt><trkpt lat="43.6159519" lon="12.21788"><ele>1064.0</ele><time>2026-04-11T09:40:55.604Z</time></trkpt><trkpt lat="43.6160073" lon="12.2178172"><ele>1064.0</ele><time>2026-04-11T09:40:59.605Z</time></trkpt><trkpt lat="43.6160661" lon="12.2177773"><ele>1064.0</ele><time>2026-04-11T09:41:03.605Z</time></trkpt><trkpt lat="43.616124" lon="12.2178298"><ele>1064.0</ele><time>2026-04-11T09:41:07.604Z</time></trkpt><trkpt lat="43.6161755" lon="12.2178805"><ele>1064.0</ele><time>2026-04-11T09:41:09.605Z</time></trkpt><trkpt lat="43.6162677" lon="12.217834"><ele>1059.5</ele><time>2026-04-11T09:41:10.604Z</time></trkpt><trkpt lat="43.6163851" lon="12.2177908"><ele>1055.0</ele><time>2026-04-11T09:41:12.605Z</time></trkpt><trkpt lat="43.6164551" lon="12.2177975"><ele>1050.5</ele><time>2026-04-11T09:41:14.604Z</time></trkpt><trkpt lat="43.6165312" lon="12.2178355"><ele>1046.0</ele><time>2026-04-11T09:41:22.604Z</time></trkpt><trkpt lat="43.6166" lon="12.2178884"><ele>1041.5</ele><time>2026-04-11T09:41:26.604Z</time></trkpt><trkpt lat="43.6166831" lon="12.2179554"><ele>1037.0</ele><time>2026-04-11T09:41:29.605Z</time></trkpt><trkpt lat="43.6167493" lon="12.2178885"><ele>1037.0</ele><time>2026-04-11T09:41:32.605Z</time></trkpt><trkpt lat="43.6167728" lon="12.2178017"><ele>1037.0</ele><time>2026-04-11T09:41:34.604Z</time></trkpt><trkpt lat="43.616792" lon="12.2176988"><ele>1037.0</ele><time>2026-04-11T09:41:36.604Z</time></trkpt><trkpt lat="43.6168417" lon="12.217626"><ele>1037.0</ele><time>2026-04-11T09:41:39.605Z</time></trkpt><trkpt lat="43.6169069" lon="12.2176463"><ele>1037.0</ele><time>2026-04-11T09:41:41.605Z</time></trkpt><trkpt lat="43.6169739" lon="12.2177628"><ele>1037.0</ele><time>2026-04-11T09:41:43.604Z</time></trkpt><trkpt lat="43.6170033" lon="12.2178811"><ele>1036.1666666666667</ele><time>2026-04-11T09:41:44.605Z</time></trkpt><trkpt lat="43.6170541" lon="12.2179787"><ele>1035.3333333333335</ele><time>2026-04-11T09:41:46.604Z</time></trkpt><trkpt lat="43.6170433" lon="12.2180833"><ele>1034.5</ele><time>2026-04-11T09:41:48.604Z</time></trkpt><trkpt lat="43.6170244" lon="12.2182018"><ele>1033.6666666666667</ele><time>2026-04-11T09:41:50.604Z</time></trkpt><trkpt lat="43.6170206" lon="12.218295"><ele>1032.8333333333333</ele><time>2026-04-11T09:41:52.603Z</time></trkpt><trkpt lat="43.6170369" lon="12.2183857"><ele>1032.0</ele><time>2026-04-11T09:41:54.605Z</time></trkpt><trkpt lat="43.6170749" lon="12.2185071"><ele>1029.0</ele><time>2026-04-11T09:41:57.604Z</time></trkpt><trkpt lat="43.6170409" lon="12.2185998"><ele>1026.0</ele><time>2026-04-11T09:41:59.604Z</time></trkpt><trkpt lat="43.6169927" lon="12.2187099"><ele>1023.0</ele><time>2026-04-11T09:42:01.605Z</time></trkpt><trkpt lat="43.6169369" lon="12.2188314"><ele>1020.0</ele><time>2026-04-11T09:42:03.605Z</time></trkpt><trkpt lat="43.6169126" lon="12.2189445"><ele>1017.0</ele><time>2026-04-11T09:42:05.604Z</time></trkpt><trkpt lat="43.6168958" lon="12.2191172"><ele>1014.3333333333334</ele><time>2026-04-11T09:42:08.605Z</time></trkpt><trkpt lat="43.616863" lon="12.2192191"><ele>1011.6666666666667</ele><time>2026-04-11T09:42:10.605Z</time></trkpt><trkpt lat="43.6168265" lon="12.2193078"><ele>1009.0</ele><time>2026-04-11T09:42:12.605Z</time></trkpt><trkpt lat="43.6167866" lon="12.2193962"><ele>1006.3333333333334</ele><time>2026-04-11T09:42:14.604Z</time></trkpt><trkpt lat="43.6167415" lon="12.2194932"><ele>1003.6666666666667</ele><time>2026-04-11T09:42:16.605Z</time></trkpt><trkpt lat="43.6167005" lon="12.2196098"><ele>1001.0</ele><time>2026-04-11T09:42:18.605Z</time></trkpt><trkpt lat="43.6166447" lon="12.219738"><ele>1000.0</ele><time>2026-04-11T09:42:20.604Z</time></trkpt><trkpt lat="43.6165819" lon="12.2198306"><ele>998.9999999999999</ele><time>2026-04-11T09:42:22.605Z</time></trkpt><trkpt lat="43.6165054" lon="12.2199161"><ele>997.9999999999999</ele><time>2026-04-11T09:42:24.605Z</time></trkpt><trkpt lat="43.6164344" lon="12.2200087"><ele>997.0</ele><time>2026-04-11T09:42:26.605Z</time></trkpt><trkpt lat="43.6163721" lon="12.2201028"><ele>996.0</ele><time>2026-04-11T09:42:28.605Z</time></trkpt><trkpt lat="43.6163051" lon="12.2202209"><ele>996.0</ele><time>2026-04-11T09:42:30.605Z</time></trkpt><trkpt lat="43.6162364" lon="12.2203397"><ele>995.9999999999999</ele><time>2026-04-11T09:42:32.605Z</time></trkpt><trkpt lat="43.6161793" lon="12.2204428"><ele>995.9999999999999</ele><time>2026-04-11T09:42:34.603Z</time></trkpt><trkpt lat="43.6161314" lon="12.2205685"><ele>996.0</ele><time>2026-04-11T09:42:36.605Z</time></trkpt><trkpt lat="43.6161115" lon="12.2207128"><ele>996.0</ele><time>2026-04-11T09:42:38.605Z</time></trkpt><trkpt lat="43.6161062" lon="12.2208454"><ele>994.5714285714286</ele><time>2026-04-11T09:42:40.605Z</time></trkpt><trkpt lat="43.6161105" lon="12.2209528"><ele>993.1428571428571</ele><time>2026-04-11T09:42:42.605Z</time></trkpt><trkpt lat="43.61613" lon="12.2210385"><ele>991.7142857142857</ele><time>2026-04-11T09:42:46.605Z</time></trkpt><trkpt lat="43.6162046" lon="12.2210427"><ele>990.2857142857142</ele><time>2026-04-11T09:42:49.604Z</time></trkpt><trkpt lat="43.616269" lon="12.2210263"><ele>988.8571428571429</ele><time>2026-04-11T09:42:51.605Z</time></trkpt><trkpt lat="43.6163391" lon="12.2210669"><ele>987.4285714285713</ele><time>2026-04-11T09:42:55.605Z</time></trkpt><trkpt lat="43.6162836" lon="12.2209963"><ele>986.0</ele><time>2026-04-11T09:42:59.604Z</time></trkpt><trkpt lat="43.6162033" lon="12.2210041"><ele>986.0</ele><time>2026-04-11T09:43:01.605Z</time></trkpt><trkpt lat="43.6161427" lon="12.2210695"><ele>986.0</ele><time>2026-04-11T09:43:04.604Z</time></trkpt><trkpt lat="43.6161542" lon="12.2211676"><ele>986.0</ele><time>2026-04-11T09:43:09.605Z</time></trkpt><trkpt lat="43.6162195" lon="12.2211683"><ele>986.0</ele><time>2026-04-11T09:43:11.605Z</time></trkpt><trkpt lat="43.6162808" lon="12.2211169"><ele>986.0</ele><time>2026-04-11T09:43:13.605Z</time></trkpt><trkpt lat="43.6163532" lon="12.2211029"><ele>986.0</ele><time>2026-04-11T09:43:17.604Z</time></trkpt><trkpt lat="43.6164343" lon="12.2210584"><ele>986.0</ele><time>2026-04-11T09:43:20.605Z</time></trkpt><trkpt lat="43.6164879" lon="12.2210017"><ele>986.0000000000001</ele><time>2026-04-11T09:43:22.605Z</time></trkpt><trkpt lat="43.616545" lon="12.2209447"><ele>986.0</ele><time>2026-04-11T09:43:24.605Z</time></trkpt><trkpt lat="43.6166204" lon="12.2208907"><ele>986.0</ele><time>2026-04-11T09:43:27.605Z</time></trkpt><trkpt lat="43.6167052" lon="12.2208533"><ele>986.0</ele><time>2026-04-11T09:43:29.605Z</time></trkpt><trkpt lat="43.6167578" lon="12.2208008"><ele>986.0000000000001</ele><time>2026-04-11T09:43:31.605Z</time></trkpt><trkpt lat="43.6168379" lon="12.220768"><ele>986.0</ele><time>2026-04-11T09:43:33.604Z</time></trkpt><trkpt lat="43.6169049" lon="12.2207739"><ele>986.0</ele><time>2026-04-11T09:43:34.605Z</time></trkpt><trkpt lat="43.6169694" lon="12.2207413"><ele>986.0</ele><time>2026-04-11T09:43:35.605Z</time></trkpt><trkpt lat="43.6170349" lon="12.2207121"><ele>986.0</ele><time>2026-04-11T09:43:36.605Z</time></trkpt><trkpt lat="43.617096" lon="12.2206785"><ele>986.0</ele><time>2026-04-11T09:43:37.605Z</time></trkpt><trkpt lat="43.6171742" lon="12.2206345"><ele>986.0</ele><time>2026-04-11T09:43:59.605Z</time></trkpt><trkpt lat="43.6172377" lon="12.2205766"><ele>986.0</ele><time>2026-04-11T09:44:03.605Z</time></trkpt><trkpt lat="43.6172907" lon="12.220521"><ele>986.0</ele><time>2026-04-11T09:44:05.604Z</time></trkpt><trkpt lat="43.6173472" lon="12.2204724"><ele>986.8333333333334</ele><time>2026-04-11T09:44:07.605Z</time></trkpt><trkpt lat="43.6174104" lon="12.2204451"><ele>987.6666666666667</ele><time>2026-04-11T09:44:11.605Z</time></trkpt><trkpt lat="43.6174767" lon="12.2204627"><ele>988.5</ele><time>2026-04-11T09:44:14.605Z</time></trkpt><trkpt lat="43.6175232" lon="12.2205315"><ele>989.3333333333333</ele><time>2026-04-11T09:44:16.605Z</time></trkpt><trkpt lat="43.6175858" lon="12.2206257"><ele>990.1666666666666</ele><time>2026-04-11T09:44:18.604Z</time></trkpt><trkpt lat="43.6176682" lon="12.2207146"><ele>991.0</ele><time>2026-04-11T09:44:20.605Z</time></trkpt><trkpt lat="43.6177346" lon="12.2207881"><ele>993.25</ele><time>2026-04-11T09:44:22.605Z</time></trkpt><trkpt lat="43.617849" lon="12.2209381"><ele>995.5</ele><time>2026-04-11T09:44:24.605Z</time></trkpt><trkpt lat="43.6178949" lon="12.221039"><ele>997.75</ele><time>2026-04-11T09:44:25.605Z</time></trkpt><trkpt lat="43.617986" lon="12.2211917"><ele>1000.0</ele><time>2026-04-11T09:44:26.605Z</time></trkpt><trkpt lat="43.6180636" lon="12.2212569"><ele>1000.0</ele><time>2026-04-11T09:44:28.605Z</time></trkpt><trkpt lat="43.6181443" lon="12.2212426"><ele>1000.0</ele><time>2026-04-11T09:44:29.604Z</time></trkpt><trkpt lat="43.6182716" lon="12.2212756"><ele>1000.0</ele><time>2026-04-11T09:44:31.604Z</time></trkpt><trkpt lat="43.6183983" lon="12.2212883"><ele>1000.0</ele><time>2026-04-11T09:44:33.604Z</time></trkpt><trkpt lat="43.6184966" lon="12.2213596"><ele>1000.0</ele><time>2026-04-11T09:44:35.604Z</time></trkpt><trkpt lat="43.6185854" lon="12.221452"><ele>998.8333333333333</ele><time>2026-04-11T09:44:37.604Z</time></trkpt><trkpt lat="43.6185922" lon="12.2215622"><ele>997.6666666666666</ele><time>2026-04-11T09:44:39.605Z</time></trkpt><trkpt lat="43.6186435" lon="12.2217128"><ele>996.5</ele><time>2026-04-11T09:44:41.605Z</time></trkpt><trkpt lat="43.6186679" lon="12.2218142"><ele>995.3333333333333</ele><time>2026-04-11T09:44:42.604Z</time></trkpt><trkpt lat="43.6187182" lon="12.2219022"><ele>994.1666666666666</ele><time>2026-04-11T09:44:43.605Z</time></trkpt><trkpt lat="43.6187513" lon="12.2219984"><ele>993.0</ele><time>2026-04-11T09:44:44.605Z</time></trkpt><trkpt lat="43.6187918" lon="12.2220806"><ele>994.5999999999999</ele><time>2026-04-11T09:44:45.604Z</time></trkpt><trkpt lat="43.6188329" lon="12.2221677"><ele>996.1999999999999</ele><time>2026-04-11T09:44:46.605Z</time></trkpt><trkpt lat="43.6188795" lon="12.2222541"><ele>997.8</ele><time>2026-04-11T09:44:47.605Z</time></trkpt><trkpt lat="43.6189265" lon="12.2223555"><ele>999.4</ele><time>2026-04-11T09:44:48.605Z</time></trkpt><trkpt lat="43.6189797" lon="12.2224361"><ele>1001.0</ele><time>2026-04-11T09:44:49.605Z</time></trkpt><trkpt lat="43.6191088" lon="12.2224762"><ele>1001.0000000000001</ele><time>2026-04-11T09:44:51.605Z</time></trkpt><trkpt lat="43.619167" lon="12.2225276"><ele>1001.0</ele><time>2026-04-11T09:44:53.605Z</time></trkpt><trkpt lat="43.6192363" lon="12.2225501"><ele>1001.0</ele><time>2026-04-11T09:44:55.605Z</time></trkpt><trkpt lat="43.6193298" lon="12.2225677"><ele>1001.0</ele><time>2026-04-11T09:44:57.605Z</time></trkpt><trkpt lat="43.6194161" lon="12.2226243"><ele>1001.0000000000001</ele><time>2026-04-11T09:45:00.605Z</time></trkpt><trkpt lat="43.6194619" lon="12.2227172"><ele>1001.0</ele><time>2026-04-11T09:45:02.605Z</time></trkpt><trkpt lat="43.6194906" lon="12.2228404"><ele>1003.0000000000001</ele><time>2026-04-11T09:45:04.605Z</time></trkpt><trkpt lat="43.6195296" lon="12.2229123"><ele>1005.0</ele><time>2026-04-11T09:45:05.605Z</time></trkpt><trkpt lat="43.6195821" lon="12.2230084"><ele>1007.0</ele><time>2026-04-11T09:45:06.604Z</time></trkpt><trkpt lat="43.6196347" lon="12.2231075"><ele>1009.0</ele><time>2026-04-11T09:45:07.603Z</time></trkpt><trkpt lat="43.6196968" lon="12.2232062"><ele>1011.0000000000001</ele><time>2026-04-11T09:45:08.604Z</time></trkpt><trkpt lat="43.6197445" lon="12.2232775"><ele>1013.0</ele><time>2026-04-11T09:45:09.603Z</time></trkpt><trkpt lat="43.6197919" lon="12.2233363"><ele>1013.0000000000001</ele><time>2026-04-11T09:45:10.605Z</time></trkpt><trkpt lat="43.6198457" lon="12.2233857"><ele>1013.0</ele><time>2026-04-11T09:45:11.605Z</time></trkpt><trkpt lat="43.619928" lon="12.2233561"><ele>1013.0</ele><time>2026-04-11T09:45:12.605Z</time></trkpt><trkpt lat="43.6200066" lon="12.2233597"><ele>1013.0</ele><time>2026-04-11T09:45:13.605Z</time></trkpt><trkpt lat="43.6200735" lon="12.223375"><ele>1013.0000000000001</ele><time>2026-04-11T09:45:14.605Z</time></trkpt><trkpt lat="43.620196" lon="12.2234199"><ele>1013.0</ele><time>2026-04-11T09:45:16.604Z</time></trkpt><trkpt lat="43.620305" lon="12.2234596"><ele>1018.6666666666667</ele><time>2026-04-11T09:45:18.604Z</time></trkpt><trkpt lat="43.6203799" lon="12.2234949"><ele>1024.3333333333335</ele><time>2026-04-11T09:45:19.605Z</time></trkpt><trkpt lat="43.6204549" lon="12.2235381"><ele>1030.0</ele><time>2026-04-11T09:45:20.604Z</time></trkpt><trkpt lat="43.6205206" lon="12.2235786"><ele>1035.6666666666667</ele><time>2026-04-11T09:45:21.604Z</time></trkpt><trkpt lat="43.6204723" lon="12.2237103"><ele>1041.3333333333333</ele><time>2026-04-11T09:45:22.605Z</time></trkpt><trkpt lat="43.6204595" lon="12.223799"><ele>1047.0</ele><time>2026-04-11T09:45:24.604Z</time></trkpt><trkpt lat="43.6204843" lon="12.2239017"><ele>1047.0</ele><time>2026-04-11T09:45:27.604Z</time></trkpt><trkpt lat="43.6205537" lon="12.2239438"><ele>1047.0</ele><time>2026-04-11T09:45:30.603Z</time></trkpt><trkpt lat="43.6206452" lon="12.2239693"><ele>1047.0</ele><time>2026-04-11T09:45:32.605Z</time></trkpt><trkpt lat="43.6207512" lon="12.2239854"><ele>1047.0</ele><time>2026-04-11T09:45:34.604Z</time></trkpt><trkpt lat="43.6208277" lon="12.2239918"><ele>1047.0</ele><time>2026-04-11T09:45:35.605Z</time></trkpt><trkpt lat="43.6208958" lon="12.2240004"><ele>1047.0</ele><time>2026-04-11T09:45:36.604Z</time></trkpt><trkpt lat="43.6209653" lon="12.2240159"><ele>1043.0</ele><time>2026-04-11T09:45:37.605Z</time></trkpt><trkpt lat="43.6210518" lon="12.2240235"><ele>1039.0</ele><time>2026-04-11T09:45:38.604Z</time></trkpt><trkpt lat="43.6211325" lon="12.2240464"><ele>1035.0</ele><time>2026-04-11T09:45:39.605Z</time></trkpt><trkpt lat="43.6212096" lon="12.2240796"><ele>1031.0</ele><time>2026-04-11T09:45:40.603Z</time></trkpt><trkpt lat="43.6212883" lon="12.2241224"><ele>1027.0</ele><time>2026-04-11T09:45:41.605Z</time></trkpt><trkpt lat="43.6213508" lon="12.2241801"><ele>1023.0</ele><time>2026-04-11T09:45:42.605Z</time></trkpt><trkpt lat="43.621407" lon="12.2242423"><ele>1021.8333333333334</ele><time>2026-04-11T09:45:43.604Z</time></trkpt><trkpt lat="43.6214704" lon="12.2242773"><ele>1020.6666666666667</ele><time>2026-04-11T09:45:44.605Z</time></trkpt><trkpt lat="43.6215362" lon="12.2242902"><ele>1019.5</ele><time>2026-04-11T09:45:45.605Z</time></trkpt><trkpt lat="43.6216003" lon="12.2242846"><ele>1018.3333333333334</ele><time>2026-04-11T09:45:46.605Z</time></trkpt><trkpt lat="43.6216665" lon="12.2242661"><ele>1017.1666666666667</ele><time>2026-04-11T09:45:47.605Z</time></trkpt><trkpt lat="43.6217717" lon="12.2242192"><ele>1016.0</ele><time>2026-04-11T09:45:49.605Z</time></trkpt><trkpt lat="43.6218361" lon="12.2241701"><ele>1016.0000000000001</ele><time>2026-04-11T09:45:51.605Z</time></trkpt><trkpt lat="43.6218756" lon="12.2240793"><ele>1016.0</ele><time>2026-04-11T09:47:20.605Z</time></trkpt><trkpt lat="43.6218926" lon="12.2239763"><ele>1016.0</ele><time>2026-04-11T09:47:22.604Z</time></trkpt><trkpt lat="43.6219097" lon="12.2238703"><ele>1016.0</ele><time>2026-04-11T09:47:23.604Z</time></trkpt><trkpt lat="43.6219342" lon="12.2237714"><ele>1016.0000000000001</ele><time>2026-04-11T09:47:24.605Z</time></trkpt><trkpt lat="43.621977" lon="12.2236866"><ele>1016.0</ele><time>2026-04-11T09:47:25.605Z</time></trkpt><trkpt lat="43.6220359" lon="12.2236157"><ele>1015.3333333333334</ele><time>2026-04-11T09:47:26.604Z</time></trkpt><trkpt lat="43.6220951" lon="12.223554"><ele>1014.6666666666667</ele><time>2026-04-11T09:47:27.604Z</time></trkpt><trkpt lat="43.6221805" lon="12.2234997"><ele>1014.0</ele><time>2026-04-11T09:47:28.604Z</time></trkpt><trkpt lat="43.622255" lon="12.2234585"><ele>1013.3333333333333</ele><time>2026-04-11T09:47:29.605Z</time></trkpt><trkpt lat="43.6223214" lon="12.2234409"><ele>1012.6666666666666</ele><time>2026-04-11T09:47:30.605Z</time></trkpt><trkpt lat="43.6224034" lon="12.2234627"><ele>1012.0</ele><time>2026-04-11T09:47:31.604Z</time></trkpt><trkpt lat="43.6224819" lon="12.2234953"><ele>1012.0000000000001</ele><time>2026-04-11T09:47:32.604Z</time></trkpt><trkpt lat="43.6225611" lon="12.223527"><ele>1012.0</ele><time>2026-04-11T09:47:33.605Z</time></trkpt><trkpt lat="43.6226381" lon="12.2235397"><ele>1012.0000000000001</ele><time>2026-04-11T09:47:34.604Z</time></trkpt><trkpt lat="43.6227055" lon="12.2235206"><ele>1012.0000000000001</ele><time>2026-04-11T09:47:35.605Z</time></trkpt><trkpt lat="43.6227641" lon="12.2234772"><ele>1012.0</ele><time>2026-04-11T09:47:36.605Z</time></trkpt><trkpt lat="43.6228075" lon="12.2234106"><ele>1012.0000000000001</ele><time>2026-04-11T09:47:37.604Z</time></trkpt><trkpt lat="43.6228246" lon="12.2233166"><ele>1012.0000000000001</ele><time>2026-04-11T09:47:38.605Z</time></trkpt><trkpt lat="43.6228353" lon="12.2232047"><ele>1014.1666666666666</ele><time>2026-04-11T09:47:39.604Z</time></trkpt><trkpt lat="43.6228249" lon="12.2230807"><ele>1016.3333333333333</ele><time>2026-04-11T09:47:40.605Z</time></trkpt><trkpt lat="43.6227897" lon="12.222961"><ele>1018.5</ele><time>2026-04-11T09:47:41.605Z</time></trkpt><trkpt lat="43.6227393" lon="12.2228459"><ele>1020.6666666666667</ele><time>2026-04-11T09:47:42.604Z</time></trkpt><trkpt lat="43.622704" lon="12.2227358"><ele>1022.8333333333334</ele><time>2026-04-11T09:47:43.604Z</time></trkpt><trkpt lat="43.6226827" lon="12.2226352"><ele>1025.0</ele><time>2026-04-11T09:47:44.605Z</time></trkpt><trkpt lat="43.6226997" lon="12.2224793"><ele>1025.0</ele><time>2026-04-11T09:47:46.605Z</time></trkpt><trkpt lat="43.6227538" lon="12.2223403"><ele>1025.0</ele><time>2026-04-11T09:47:48.605Z</time></trkpt><trkpt lat="43.6228091" lon="12.2222908"><ele>1025.0</ele><time>2026-04-11T09:47:49.605Z</time></trkpt><trkpt lat="43.6228624" lon="12.2222244"><ele>1025.0</ele><time>2026-04-11T09:47:50.605Z</time></trkpt><trkpt lat="43.6229272" lon="12.2221447"><ele>1025.0</ele><time>2026-04-11T09:47:51.605Z</time></trkpt><trkpt lat="43.6229884" lon="12.2220637"><ele>1025.0</ele><time>2026-04-11T09:47:52.605Z</time></trkpt><trkpt lat="43.6230502" lon="12.2219771"><ele>1024.8333333333335</ele><time>2026-04-11T09:47:53.605Z</time></trkpt><trkpt lat="43.6231125" lon="12.2218697"><ele>1024.6666666666667</ele><time>2026-04-11T09:47:54.605Z</time></trkpt><trkpt lat="43.623173" lon="12.2217993"><ele>1024.5</ele><time>2026-04-11T09:47:55.604Z</time></trkpt><trkpt lat="43.6232597" lon="12.2217378"><ele>1024.3333333333333</ele><time>2026-04-11T09:47:56.605Z</time></trkpt><trkpt lat="43.6233347" lon="12.2217238"><ele>1024.1666666666665</ele><time>2026-04-11T09:47:57.605Z</time></trkpt><trkpt lat="43.6234194" lon="12.2216913"><ele>1024.0</ele><time>2026-04-11T09:47:58.605Z</time></trkpt><trkpt lat="43.6235128" lon="12.2217218"><ele>1024.0</ele><time>2026-04-11T09:47:59.605Z</time></trkpt><trkpt lat="43.6236019" lon="12.2217505"><ele>1024.0</ele><time>2026-04-11T09:48:00.605Z</time></trkpt><trkpt lat="43.6236879" lon="12.2217816"><ele>1024.0</ele><time>2026-04-11T09:48:01.604Z</time></trkpt><trkpt lat="43.6237862" lon="12.2218102"><ele>1024.0</ele><time>2026-04-11T09:48:02.605Z</time></trkpt><trkpt lat="43.6238833" lon="12.2218292"><ele>1024.0</ele><time>2026-04-11T09:48:03.605Z</time></trkpt><trkpt lat="43.6239728" lon="12.2218472"><ele>1020.9999999999999</ele><time>2026-04-11T09:48:04.605Z</time></trkpt><trkpt lat="43.6240559" lon="12.2218509"><ele>1018.0</ele><time>2026-04-11T09:48:05.605Z</time></trkpt><trkpt lat="43.6241348" lon="12.2218508"><ele>1015.0</ele><time>2026-04-11T09:48:06.605Z</time></trkpt><trkpt lat="43.6242109" lon="12.2218485"><ele>1012.0</ele><time>2026-04-11T09:48:07.605Z</time></trkpt><trkpt lat="43.6242747" lon="12.2218413"><ele>1008.9999999999999</ele><time>2026-04-11T09:48:08.604Z</time></trkpt><trkpt lat="43.6243701" lon="12.2218258"><ele>1006.0</ele><time>2026-04-11T09:48:10.605Z</time></trkpt><trkpt lat="43.6244519" lon="12.2217952"><ele>1005.9999999999999</ele><time>2026-04-11T09:48:13.605Z</time></trkpt><trkpt lat="43.6244552" lon="12.2216913"><ele>1006.0</ele><time>2026-04-11T09:48:17.604Z</time></trkpt><trkpt lat="43.6243982" lon="12.2216037"><ele>1006.0</ele><time>2026-04-11T09:48:59.605Z</time></trkpt><trkpt lat="43.62433" lon="12.2214991"><ele>1006.0</ele><time>2026-04-11T09:49:01.604Z</time></trkpt><trkpt lat="43.62428" lon="12.2214308"><ele>1005.9999999999999</ele><time>2026-04-11T09:49:02.604Z</time></trkpt><trkpt lat="43.6242441" lon="12.2213475"><ele>1006.0</ele><time>2026-04-11T09:49:03.605Z</time></trkpt><trkpt lat="43.6242137" lon="12.2212476"><ele>1007.1666666666666</ele><time>2026-04-11T09:49:04.605Z</time></trkpt><trkpt lat="43.6241904" lon="12.2211375"><ele>1008.3333333333333</ele><time>2026-04-11T09:49:05.605Z</time></trkpt><trkpt lat="43.6241669" lon="12.2210249"><ele>1009.5</ele><time>2026-04-11T09:49:06.605Z</time></trkpt><trkpt lat="43.6241586" lon="12.2209233"><ele>1010.6666666666667</ele><time>2026-04-11T09:49:07.604Z</time></trkpt><trkpt lat="43.6241705" lon="12.2208215"><ele>1011.8333333333334</ele><time>2026-04-11T09:49:08.605Z</time></trkpt><trkpt lat="43.6241981" lon="12.2207168"><ele>1013.0</ele><time>2026-04-11T09:49:09.605Z</time></trkpt><trkpt lat="43.6242428" lon="12.2206179"><ele>1013.0</ele><time>2026-04-11T09:49:10.604Z</time></trkpt><trkpt lat="43.6242917" lon="12.2205115"><ele>1013.0</ele><time>2026-04-11T09:49:11.605Z</time></trkpt><trkpt lat="43.6243409" lon="12.220393"><ele>1013.0</ele><time>2026-04-11T09:49:12.605Z</time></trkpt><trkpt lat="43.624393" lon="12.2202715"><ele>1013.0</ele><time>2026-04-11T09:49:13.605Z</time></trkpt><trkpt lat="43.6244472" lon="12.2201524"><ele>1013.0</ele><time>2026-04-11T09:49:14.604Z</time></trkpt><trkpt lat="43.6245064" lon="12.2200464"><ele>1006.1666666666667</ele><time>2026-04-11T09:49:15.604Z</time></trkpt><trkpt lat="43.6245663" lon="12.2199467"><ele>999.3333333333334</ele><time>2026-04-11T09:49:16.605Z</time></trkpt><trkpt lat="43.6246209" lon="12.2198552"><ele>992.5</ele><time>2026-04-11T09:49:17.604Z</time></trkpt><trkpt lat="43.6246634" lon="12.2197656"><ele>985.6666666666667</ele><time>2026-04-11T09:49:18.605Z</time></trkpt><trkpt lat="43.6246861" lon="12.2196738"><ele>978.8333333333334</ele><time>2026-04-11T09:49:19.605Z</time></trkpt><trkpt lat="43.6246889" lon="12.2195826"><ele>972.0</ele><time>2026-04-11T09:49:20.604Z</time></trkpt><trkpt lat="43.6246302" lon="12.2194535"><ele>971.2</ele><time>2026-04-11T09:49:22.605Z</time></trkpt><trkpt lat="43.6245065" lon="12.2194095"><ele>970.4000000000001</ele><time>2026-04-11T09:49:24.605Z</time></trkpt><trkpt lat="43.6244301" lon="12.2194255"><ele>969.5999999999999</ele><time>2026-04-11T09:49:25.605Z</time></trkpt><trkpt lat="43.6243475" lon="12.2194514"><ele>968.8</ele><time>2026-04-11T09:49:26.605Z</time></trkpt><trkpt lat="43.6242605" lon="12.2194774"><ele>968.0</ele><time>2026-04-11T09:49:27.605Z</time></trkpt><trkpt lat="43.6241709" lon="12.2194963"><ele>972.1666666666667</ele><time>2026-04-11T09:49:28.605Z</time></trkpt><trkpt lat="43.6240765" lon="12.2195024"><ele>976.3333333333334</ele><time>2026-04-11T09:49:29.604Z</time></trkpt><trkpt lat="43.6239872" lon="12.2194847"><ele>980.5</ele><time>2026-04-11T09:49:30.604Z</time></trkpt><trkpt lat="43.6239024" lon="12.219448"><ele>984.6666666666667</ele><time>2026-04-11T09:49:31.605Z</time></trkpt><trkpt lat="43.6238257" lon="12.2193891"><ele>988.8333333333334</ele><time>2026-04-11T09:49:32.605Z</time></trkpt><trkpt lat="43.6237593" lon="12.2193092"><ele>993.0</ele><time>2026-04-11T09:49:33.605Z</time></trkpt><trkpt lat="43.6237054" lon="12.2192122"><ele>993.0</ele><time>2026-04-11T09:49:34.605Z</time></trkpt><trkpt lat="43.6236599" lon="12.219107"><ele>993.0</ele><time>2026-04-11T09:49:35.605Z</time></trkpt><trkpt lat="43.6236286" lon="12.2189935"><ele>993.0</ele><time>2026-04-11T09:49:36.605Z</time></trkpt><trkpt lat="43.6236099" lon="12.2188821"><ele>993.0</ele><time>2026-04-11T09:49:37.605Z</time></trkpt><trkpt lat="43.623609" lon="12.2187701"><ele>993.0</ele><time>2026-04-11T09:49:38.605Z</time></trkpt><trkpt lat="43.623624" lon="12.2186596"><ele>993.0</ele><time>2026-04-11T09:49:39.605Z</time></trkpt><trkpt lat="43.6236476" lon="12.2185495"><ele>990.5</ele><time>2026-04-11T09:49:40.605Z</time></trkpt><trkpt lat="43.6236775" lon="12.2184372"><ele>988.0</ele><time>2026-04-11T09:49:41.605Z</time></trkpt><trkpt lat="43.6237161" lon="12.2183289"><ele>985.5</ele><time>2026-04-11T09:49:42.605Z</time></trkpt><trkpt lat="43.6237578" lon="12.2182207"><ele>983.0</ele><time>2026-04-11T09:49:43.605Z</time></trkpt><trkpt lat="43.6237939" lon="12.2181162"><ele>980.5</ele><time>2026-04-11T09:49:44.605Z</time></trkpt><trkpt lat="43.6238163" lon="12.2180112"><ele>978.0</ele><time>2026-04-11T09:49:45.605Z</time></trkpt><trkpt lat="43.6238162" lon="12.2179067"><ele>978.0</ele><time>2026-04-11T09:49:46.604Z</time></trkpt><trkpt lat="43.6237922" lon="12.2177996"><ele>978.0</ele><time>2026-04-11T09:49:47.605Z</time></trkpt><trkpt lat="43.6237557" lon="12.2176851"><ele>978.0</ele><time>2026-04-11T09:49:48.604Z</time></trkpt><trkpt lat="43.6237123" lon="12.2175574"><ele>978.0</ele><time>2026-04-11T09:49:49.605Z</time></trkpt><trkpt lat="43.6236707" lon="12.2174225"><ele>978.0</ele><time>2026-04-11T09:49:50.605Z</time></trkpt><trkpt lat="43.6236264" lon="12.2172836"><ele>979.75</ele><time>2026-04-11T09:49:51.604Z</time></trkpt><trkpt lat="43.6235791" lon="12.2171374"><ele>981.5</ele><time>2026-04-11T09:49:52.604Z</time></trkpt><trkpt lat="43.623527" lon="12.2169849"><ele>983.25</ele><time>2026-04-11T09:49:53.603Z</time></trkpt><trkpt lat="43.6234758" lon="12.2168287"><ele>985.0</ele><time>2026-04-11T09:49:54.604Z</time></trkpt><trkpt lat="43.6234228" lon="12.2166673"><ele>985.0</ele><time>2026-04-11T09:49:55.605Z</time></trkpt><trkpt lat="43.623367" lon="12.2165057"><ele>985.0</ele><time>2026-04-11T09:49:56.604Z</time></trkpt><trkpt lat="43.6233066" lon="12.2163468"><ele>985.0</ele><time>2026-04-11T09:49:57.604Z</time></trkpt><trkpt lat="43.6232491" lon="12.2161834"><ele>985.0</ele><time>2026-04-11T09:49:58.605Z</time></trkpt><trkpt lat="43.6231898" lon="12.2160301"><ele>982.25</ele><time>2026-04-11T09:49:59.605Z</time></trkpt><trkpt lat="43.62313" lon="12.2158767"><ele>979.5</ele><time>2026-04-11T09:50:00.605Z</time></trkpt><trkpt lat="43.6230844" lon="12.215727"><ele>976.75</ele><time>2026-04-11T09:50:01.604Z</time></trkpt><trkpt lat="43.623053" lon="12.2155722"><ele>974.0</ele><time>2026-04-11T09:50:02.605Z</time></trkpt><trkpt lat="43.6230274" lon="12.2154098"><ele>972.8000000000001</ele><time>2026-04-11T09:50:03.604Z</time></trkpt><trkpt lat="43.6229994" lon="12.2152537"><ele>971.6000000000001</ele><time>2026-04-11T09:50:04.604Z</time></trkpt><trkpt lat="43.6229686" lon="12.2151035"><ele>970.4</ele><time>2026-04-11T09:50:05.605Z</time></trkpt><trkpt lat="43.6229364" lon="12.2149521"><ele>969.2</ele><time>2026-04-11T09:50:06.605Z</time></trkpt><trkpt lat="43.6229108" lon="12.2148139"><ele>968.0</ele><time>2026-04-11T09:50:07.605Z</time></trkpt><trkpt lat="43.6229047" lon="12.21467"><ele>968.0</ele><time>2026-04-11T09:50:08.604Z</time></trkpt><trkpt lat="43.6229183" lon="12.2145224"><ele>968.0</ele><time>2026-04-11T09:50:09.605Z</time></trkpt><trkpt lat="43.6229482" lon="12.2143796"><ele>968.0</ele><time>2026-04-11T09:50:10.604Z</time></trkpt><trkpt lat="43.6229893" lon="12.214243"><ele>968.0</ele><time>2026-04-11T09:50:11.605Z</time></trkpt><trkpt lat="43.6230433" lon="12.2141138"><ele>968.0</ele><time>2026-04-11T09:50:12.605Z</time></trkpt><trkpt lat="43.6231019" lon="12.2139852"><ele>971.8</ele><time>2026-04-11T09:50:13.605Z</time></trkpt><trkpt lat="43.6231746" lon="12.213882"><ele>975.5999999999999</ele><time>2026-04-11T09:50:14.605Z</time></trkpt><trkpt lat="43.6232606" lon="12.2137943"><ele>979.4000000000001</ele><time>2026-04-11T09:50:15.604Z</time></trkpt><trkpt lat="43.6233536" lon="12.2137153"><ele>983.2</ele><time>2026-04-11T09:50:16.604Z</time></trkpt><trkpt lat="43.6234526" lon="12.2136529"><ele>987.0</ele><time>2026-04-11T09:50:17.604Z</time></trkpt><trkpt lat="43.623551" lon="12.2135914"><ele>983.6</ele><time>2026-04-11T09:50:18.605Z</time></trkpt><trkpt lat="43.6236502" lon="12.2135376"><ele>980.2</ele><time>2026-04-11T09:50:19.605Z</time></trkpt><trkpt lat="43.6237561" lon="12.2134973"><ele>976.8</ele><time>2026-04-11T09:50:20.604Z</time></trkpt><trkpt lat="43.6238672" lon="12.2134872"><ele>973.4</ele><time>2026-04-11T09:50:21.605Z</time></trkpt><trkpt lat="43.6239876" lon="12.213488"><ele>970.0</ele><time>2026-04-11T09:50:22.605Z</time></trkpt><trkpt lat="43.6241025" lon="12.2134949"><ele>970.0</ele><time>2026-04-11T09:50:23.605Z</time></trkpt><trkpt lat="43.6242146" lon="12.213495"><ele>970.0</ele><time>2026-04-11T09:50:24.605Z</time></trkpt><trkpt lat="43.6243134" lon="12.2134905"><ele>970.0</ele><time>2026-04-11T09:50:25.604Z</time></trkpt><trkpt lat="43.6244021" lon="12.2134855"><ele>970.0</ele><time>2026-04-11T09:50:26.605Z</time></trkpt><trkpt lat="43.6244846" lon="12.213474"><ele>970.0</ele><time>2026-04-11T09:50:27.605Z</time></trkpt><trkpt lat="43.6245584" lon="12.2134561"><ele>965.0000000000001</ele><time>2026-04-11T09:50:28.605Z</time></trkpt><trkpt lat="43.624619" lon="12.2134222"><ele>960.0</ele><time>2026-04-11T09:50:29.604Z</time></trkpt><trkpt lat="43.6246677" lon="12.213363"><ele>955.0000000000001</ele><time>2026-04-11T09:50:30.605Z</time></trkpt><trkpt lat="43.6246989" lon="12.2132811"><ele>950.0000000000001</ele><time>2026-04-11T09:50:31.605Z</time></trkpt><trkpt lat="43.6247109" lon="12.2131854"><ele>945.0</ele><time>2026-04-11T09:50:32.605Z</time></trkpt><trkpt lat="43.6247114" lon="12.2130778"><ele>940.0000000000001</ele><time>2026-04-11T09:50:33.604Z</time></trkpt><trkpt lat="43.6247078" lon="12.2129598"><ele>935.0000000000001</ele><time>2026-04-11T09:50:34.605Z</time></trkpt><trkpt lat="43.6247131" lon="12.2128402"><ele>935.0</ele><time>2026-04-11T09:50:35.604Z</time></trkpt><trkpt lat="43.6247313" lon="12.2127188"><ele>935.0</ele><time>2026-04-11T09:50:36.604Z</time></trkpt><trkpt lat="43.624759" lon="12.2125972"><ele>935.0</ele><time>2026-04-11T09:50:37.605Z</time></trkpt><trkpt lat="43.6247871" lon="12.2124725"><ele>935.0</ele><time>2026-04-11T09:50:38.605Z</time></trkpt><trkpt lat="43.6248088" lon="12.2123398"><ele>935.0</ele><time>2026-04-11T09:50:39.605Z</time></trkpt><trkpt lat="43.6248202" lon="12.2122103"><ele>935.5000000000001</ele><time>2026-04-11T09:50:40.604Z</time></trkpt><trkpt lat="43.624842" lon="12.2120868"><ele>936.0</ele><time>2026-04-11T09:50:41.605Z</time></trkpt><trkpt lat="43.6248729" lon="12.2119735"><ele>936.5</ele><time>2026-04-11T09:50:42.605Z</time></trkpt><trkpt lat="43.6248989" lon="12.2118625"><ele>937.0</ele><time>2026-04-11T09:50:43.605Z</time></trkpt><trkpt lat="43.6249056" lon="12.211746"><ele>937.5000000000001</ele><time>2026-04-11T09:50:44.605Z</time></trkpt><trkpt lat="43.6248892" lon="12.2116234"><ele>938.0</ele><time>2026-04-11T09:50:45.604Z</time></trkpt><trkpt lat="43.6248511" lon="12.2115054"><ele>938.4</ele><time>2026-04-11T09:50:46.605Z</time></trkpt><trkpt lat="43.6248005" lon="12.2113942"><ele>938.8</ele><time>2026-04-11T09:50:47.605Z</time></trkpt><trkpt lat="43.6247513" lon="12.2112776"><ele>939.2</ele><time>2026-04-11T09:50:48.605Z</time></trkpt><trkpt lat="43.6247116" lon="12.2111526"><ele>939.6</ele><time>2026-04-11T09:50:49.605Z</time></trkpt><trkpt lat="43.6246881" lon="12.2110327"><ele>940.0</ele><time>2026-04-11T09:50:50.604Z</time></trkpt><trkpt lat="43.6246822" lon="12.2109094"><ele>940.0</ele><time>2026-04-11T09:50:51.605Z</time></trkpt><trkpt lat="43.6246945" lon="12.210783"><ele>940.0</ele><time>2026-04-11T09:50:52.605Z</time></trkpt><trkpt lat="43.6247173" lon="12.2106575"><ele>940.0</ele><time>2026-04-11T09:50:53.604Z</time></trkpt><trkpt lat="43.6247461" lon="12.2105339"><ele>940.0</ele><time>2026-04-11T09:50:54.605Z</time></trkpt><trkpt lat="43.6247773" lon="12.2104023"><ele>940.0</ele><time>2026-04-11T09:50:55.604Z</time></trkpt><trkpt lat="43.6248158" lon="12.2102762"><ele>942.8</ele><time>2026-04-11T09:50:56.605Z</time></trkpt><trkpt lat="43.6248681" lon="12.2101651"><ele>945.6</ele><time>2026-04-11T09:50:57.605Z</time></trkpt><trkpt lat="43.6249305" lon="12.2100695"><ele>948.4000000000001</ele><time>2026-04-11T09:50:58.603Z</time></trkpt><trkpt lat="43.6249998" lon="12.2099811"><ele>951.2</ele><time>2026-04-11T09:50:59.604Z</time></trkpt><trkpt lat="43.6250761" lon="12.2098971"><ele>954.0</ele><time>2026-04-11T09:51:00.604Z</time></trkpt><trkpt lat="43.6251589" lon="12.2098238"><ele>957.4000000000001</ele><time>2026-04-11T09:51:01.604Z</time></trkpt><trkpt lat="43.6252503" lon="12.2097775"><ele>960.8000000000001</ele><time>2026-04-11T09:51:02.605Z</time></trkpt><trkpt lat="43.6253501" lon="12.2097512"><ele>964.1999999999999</ele><time>2026-04-11T09:51:03.605Z</time></trkpt><trkpt lat="43.6254518" lon="12.2097439"><ele>967.5999999999999</ele><time>2026-04-11T09:51:04.604Z</time></trkpt><trkpt lat="43.625556" lon="12.2097424"><ele>971.0</ele><time>2026-04-11T09:51:05.605Z</time></trkpt><trkpt lat="43.6256605" lon="12.2097579"><ele>971.0</ele><time>2026-04-11T09:51:06.604Z</time></trkpt><trkpt lat="43.6257675" lon="12.2097821"><ele>970.9999999999999</ele><time>2026-04-11T09:51:07.605Z</time></trkpt><trkpt lat="43.6258755" lon="12.2098206"><ele>970.9999999999999</ele><time>2026-04-11T09:51:08.604Z</time></trkpt><trkpt lat="43.6259806" lon="12.209863"><ele>971.0</ele><time>2026-04-11T09:51:09.604Z</time></trkpt><trkpt lat="43.6260708" lon="12.2099143"><ele>971.0</ele><time>2026-04-11T09:51:10.604Z</time></trkpt><trkpt lat="43.6261386" lon="12.2099839"><ele>972.0</ele><time>2026-04-11T09:51:11.605Z</time></trkpt><trkpt lat="43.6261889" lon="12.2100791"><ele>972.9999999999999</ele><time>2026-04-11T09:51:12.604Z</time></trkpt><trkpt lat="43.6262361" lon="12.2101936"><ele>973.9999999999999</ele><time>2026-04-11T09:51:13.605Z</time></trkpt><trkpt lat="43.626283" lon="12.2103098"><ele>975.0</ele><time>2026-04-11T09:51:14.605Z</time></trkpt><trkpt lat="43.6263339" lon="12.2104339"><ele>976.0</ele><time>2026-04-11T09:51:15.605Z</time></trkpt><trkpt lat="43.6263876" lon="12.2105711"><ele>973.0</ele><time>2026-04-11T09:51:16.605Z</time></trkpt><trkpt lat="43.6264261" lon="12.2107183"><ele>969.9999999999999</ele><time>2026-04-11T09:51:17.605Z</time></trkpt><trkpt lat="43.6264719" lon="12.2108566"><ele>966.9999999999999</ele><time>2026-04-11T09:51:18.604Z</time></trkpt><trkpt lat="43.6265304" lon="12.2109788"><ele>964.0</ele><time>2026-04-11T09:51:19.605Z</time></trkpt><trkpt lat="43.6266063" lon="12.2110903"><ele>961.0</ele><time>2026-04-11T09:51:20.605Z</time></trkpt><trkpt lat="43.626695" lon="12.211193"><ele>961.0</ele><time>2026-04-11T09:51:21.605Z</time></trkpt><trkpt lat="43.6267808" lon="12.2112999"><ele>960.9999999999999</ele><time>2026-04-11T09:51:22.604Z</time></trkpt><trkpt lat="43.6268529" lon="12.2114108"><ele>960.9999999999999</ele><time>2026-04-11T09:51:23.604Z</time></trkpt><trkpt lat="43.6269154" lon="12.2115176"><ele>961.0</ele><time>2026-04-11T09:51:24.605Z</time></trkpt><trkpt lat="43.6269749" lon="12.2116122"><ele>961.0</ele><time>2026-04-11T09:51:25.604Z</time></trkpt><trkpt lat="43.6270343" lon="12.2116819"><ele>958.3333333333333</ele><time>2026-04-11T09:51:26.604Z</time></trkpt><trkpt lat="43.6270923" lon="12.2117161"><ele>955.6666666666666</ele><time>2026-04-11T09:51:27.605Z</time></trkpt><trkpt lat="43.62719" lon="12.2116568"><ele>953.0</ele><time>2026-04-11T09:51:29.605Z</time></trkpt><trkpt lat="43.6272225" lon="12.2115794"><ele>950.3333333333333</ele><time>2026-04-11T09:51:30.604Z</time></trkpt><trkpt lat="43.6272386" lon="12.2114808"><ele>947.6666666666666</ele><time>2026-04-11T09:51:31.605Z</time></trkpt><trkpt lat="43.6272395" lon="12.2113792"><ele>945.0</ele><time>2026-04-11T09:51:32.604Z</time></trkpt><trkpt lat="43.6272273" lon="12.2112709"><ele>945.0</ele><time>2026-04-11T09:51:33.605Z</time></trkpt><trkpt lat="43.6272057" lon="12.2111596"><ele>945.0</ele><time>2026-04-11T09:51:34.605Z</time></trkpt><trkpt lat="43.6271916" lon="12.2110451"><ele>945.0</ele><time>2026-04-11T09:51:35.605Z</time></trkpt><trkpt lat="43.627187" lon="12.210933"><ele>945.0</ele><time>2026-04-11T09:51:36.605Z</time></trkpt><trkpt lat="43.6271924" lon="12.2108119"><ele>945.0</ele><time>2026-04-11T09:51:37.605Z</time></trkpt><trkpt lat="43.6272058" lon="12.2106989"><ele>945.0</ele><time>2026-04-11T09:51:38.605Z</time></trkpt><trkpt lat="43.6272254" lon="12.2105851"><ele>947.2</ele><time>2026-04-11T09:51:39.605Z</time></trkpt><trkpt lat="43.6272423" lon="12.2104612"><ele>949.4</ele><time>2026-04-11T09:51:40.604Z</time></trkpt><trkpt lat="43.6272616" lon="12.2103311"><ele>951.5999999999999</ele><time>2026-04-11T09:51:41.605Z</time></trkpt><trkpt lat="43.6272886" lon="12.2102051"><ele>953.8</ele><time>2026-04-11T09:51:42.605Z</time></trkpt><trkpt lat="43.6273164" lon="12.210077"><ele>956.0</ele><time>2026-04-11T09:51:43.605Z</time></trkpt><trkpt lat="43.6273418" lon="12.2099397"><ele>958.1999999999999</ele><time>2026-04-11T09:51:44.605Z</time></trkpt><trkpt lat="43.6273659" lon="12.2098034"><ele>960.3999999999999</ele><time>2026-04-11T09:51:45.605Z</time></trkpt><trkpt lat="43.6274012" lon="12.2096588"><ele>962.6</ele><time>2026-04-11T09:51:46.604Z</time></trkpt><trkpt lat="43.6274498" lon="12.2095156"><ele>964.8</ele><time>2026-04-11T09:51:47.605Z</time></trkpt><trkpt lat="43.6275004" lon="12.209379"><ele>967.0</ele><time>2026-04-11T09:51:48.605Z</time></trkpt><trkpt lat="43.6275379" lon="12.2092459"><ele>966.9999999999999</ele><time>2026-04-11T09:51:49.604Z</time></trkpt><trkpt lat="43.6275611" lon="12.2091158"><ele>967.0</ele><time>2026-04-11T09:51:50.605Z</time></trkpt><trkpt lat="43.6275811" lon="12.2090097"><ele>967.0</ele><time>2026-04-11T09:51:51.605Z</time></trkpt><trkpt lat="43.6276076" lon="12.2089043"><ele>967.0</ele><time>2026-04-11T09:51:52.605Z</time></trkpt><trkpt lat="43.6276492" lon="12.2088059"><ele>966.9999999999999</ele><time>2026-04-11T09:51:53.605Z</time></trkpt><trkpt lat="43.6277043" lon="12.2087161"><ele>967.0</ele><time>2026-04-11T09:51:54.605Z</time></trkpt><trkpt lat="43.6277693" lon="12.2086339"><ele>967.6666666666666</ele><time>2026-04-11T09:51:55.605Z</time></trkpt><trkpt lat="43.6278422" lon="12.2085637"><ele>968.3333333333333</ele><time>2026-04-11T09:51:56.605Z</time></trkpt><trkpt lat="43.6279187" lon="12.2084974"><ele>969.0</ele><time>2026-04-11T09:51:57.605Z</time></trkpt><trkpt lat="43.6279952" lon="12.2084302"><ele>969.6666666666667</ele><time>2026-04-11T09:51:58.605Z</time></trkpt><trkpt lat="43.6280723" lon="12.2083762"><ele>970.3333333333334</ele><time>2026-04-11T09:51:59.605Z</time></trkpt><trkpt lat="43.6281477" lon="12.2083419"><ele>971.0</ele><time>2026-04-11T09:52:00.604Z</time></trkpt><trkpt lat="43.6282204" lon="12.2083267"><ele>971.0000000000001</ele><time>2026-04-11T09:52:01.605Z</time></trkpt><trkpt lat="43.6282902" lon="12.2083216"><ele>971.0</ele><time>2026-04-11T09:52:02.605Z</time></trkpt><trkpt lat="43.6283605" lon="12.2083337"><ele>971.0</ele><time>2026-04-11T09:52:03.604Z</time></trkpt><trkpt lat="43.6284319" lon="12.2083621"><ele>971.0</ele><time>2026-04-11T09:52:04.605Z</time></trkpt><trkpt lat="43.6285009" lon="12.2084109"><ele>971.0000000000001</ele><time>2026-04-11T09:52:05.604Z</time></trkpt><trkpt lat="43.6285658" lon="12.2084807"><ele>971.0</ele><time>2026-04-11T09:52:06.605Z</time></trkpt><trkpt lat="43.6286196" lon="12.2085657"><ele>970.8333333333334</ele><time>2026-04-11T09:52:07.605Z</time></trkpt><trkpt lat="43.6286709" lon="12.2086623"><ele>970.6666666666667</ele><time>2026-04-11T09:52:08.604Z</time></trkpt><trkpt lat="43.6287189" lon="12.2087653"><ele>970.5</ele><time>2026-04-11T09:52:09.605Z</time></trkpt><trkpt lat="43.6287545" lon="12.2088784"><ele>970.3333333333333</ele><time>2026-04-11T09:52:10.605Z</time></trkpt><trkpt lat="43.628789" lon="12.2089916"><ele>970.1666666666666</ele><time>2026-04-11T09:52:11.605Z</time></trkpt><trkpt lat="43.6288313" lon="12.2090996"><ele>970.0</ele><time>2026-04-11T09:52:12.605Z</time></trkpt><trkpt lat="43.6288846" lon="12.2091992"><ele>969.9999999999999</ele><time>2026-04-11T09:52:13.605Z</time></trkpt><trkpt lat="43.6289473" lon="12.209277"><ele>970.0</ele><time>2026-04-11T09:52:14.604Z</time></trkpt><trkpt lat="43.629019" lon="12.2093241"><ele>970.0</ele><time>2026-04-11T09:52:15.605Z</time></trkpt><trkpt lat="43.6290982" lon="12.2093411"><ele>970.0</ele><time>2026-04-11T09:52:16.605Z</time></trkpt><trkpt lat="43.6291815" lon="12.2093474"><ele>969.9999999999999</ele><time>2026-04-11T09:52:17.605Z</time></trkpt><trkpt lat="43.6292747" lon="12.2093421"><ele>970.0</ele><time>2026-04-11T09:52:18.605Z</time></trkpt><trkpt lat="43.6293695" lon="12.2093441"><ele>969.9999999999999</ele><time>2026-04-11T09:52:19.605Z</time></trkpt><trkpt lat="43.6294615" lon="12.2093596"><ele>970.0</ele><time>2026-04-11T09:52:20.604Z</time></trkpt><trkpt lat="43.6295454" lon="12.2093969"><ele>970.0</ele><time>2026-04-11T09:52:21.605Z</time></trkpt><trkpt lat="43.6296197" lon="12.2094526"><ele>970.0</ele><time>2026-04-11T09:52:22.605Z</time></trkpt><trkpt lat="43.6296913" lon="12.2095094"><ele>969.9999999999999</ele><time>2026-04-11T09:52:23.604Z</time></trkpt><trkpt lat="43.6297563" lon="12.2095737"><ele>970.0</ele><time>2026-04-11T09:52:24.605Z</time></trkpt><trkpt lat="43.6298124" lon="12.2096491"><ele>971.3333333333333</ele><time>2026-04-11T09:52:25.605Z</time></trkpt><trkpt lat="43.6298615" lon="12.2097277"><ele>972.6666666666666</ele><time>2026-04-11T09:52:26.605Z</time></trkpt><trkpt lat="43.6299081" lon="12.2098058"><ele>974.0</ele><time>2026-04-11T09:52:27.605Z</time></trkpt><trkpt lat="43.6299616" lon="12.2098896"><ele>975.3333333333333</ele><time>2026-04-11T09:52:28.604Z</time></trkpt><trkpt lat="43.6300078" lon="12.2099818"><ele>976.6666666666666</ele><time>2026-04-11T09:52:29.604Z</time></trkpt><trkpt lat="43.6300562" lon="12.2100931"><ele>978.0</ele><time>2026-04-11T09:52:30.604Z</time></trkpt><trkpt lat="43.6300955" lon="12.2102183"><ele>978.0</ele><time>2026-04-11T09:52:31.605Z</time></trkpt><trkpt lat="43.630124" lon="12.2103481"><ele>978.0</ele><time>2026-04-11T09:52:32.603Z</time></trkpt><trkpt lat="43.6301282" lon="12.2104806"><ele>978.0</ele><time>2026-04-11T09:52:33.605Z</time></trkpt><trkpt lat="43.6301149" lon="12.2106039"><ele>978.0</ele><time>2026-04-11T09:52:34.604Z</time></trkpt><trkpt lat="43.6300967" lon="12.2107229"><ele>978.0</ele><time>2026-04-11T09:52:35.605Z</time></trkpt><trkpt lat="43.6300829" lon="12.2108417"><ele>975.75</ele><time>2026-04-11T09:52:36.605Z</time></trkpt><trkpt lat="43.6301009" lon="12.2110826"><ele>973.5</ele><time>2026-04-11T09:52:38.605Z</time></trkpt><trkpt lat="43.6301281" lon="12.211201"><ele>971.25</ele><time>2026-04-11T09:52:39.605Z</time></trkpt><trkpt lat="43.6301725" lon="12.2113124"><ele>969.0</ele><time>2026-04-11T09:52:40.605Z</time></trkpt><trkpt lat="43.6302251" lon="12.2114222"><ele>967.0</ele><time>2026-04-11T09:52:41.605Z</time></trkpt><trkpt lat="43.6302812" lon="12.2115339"><ele>965.0000000000001</ele><time>2026-04-11T09:52:42.605Z</time></trkpt><trkpt lat="43.6303346" lon="12.2116477"><ele>963.0000000000001</ele><time>2026-04-11T09:52:43.605Z</time></trkpt><trkpt lat="43.6303841" lon="12.2117648"><ele>961.0</ele><time>2026-04-11T09:52:44.605Z</time></trkpt><trkpt lat="43.6304259" lon="12.2118866"><ele>959.0</ele><time>2026-04-11T09:52:45.605Z</time></trkpt><trkpt lat="43.6304669" lon="12.2120038"><ele>966.0000000000001</ele><time>2026-04-11T09:52:46.605Z</time></trkpt><trkpt lat="43.6305184" lon="12.2121122"><ele>973.0</ele><time>2026-04-11T09:52:47.605Z</time></trkpt><trkpt lat="43.6305809" lon="12.2122003"><ele>980.0</ele><time>2026-04-11T09:52:48.605Z</time></trkpt><trkpt lat="43.6306458" lon="12.2122668"><ele>987.0</ele><time>2026-04-11T09:52:49.605Z</time></trkpt><trkpt lat="43.6307118" lon="12.2123099"><ele>994.0000000000001</ele><time>2026-04-11T09:52:50.604Z</time></trkpt><trkpt lat="43.6307749" lon="12.2123229"><ele>1001.0</ele><time>2026-04-11T09:52:51.605Z</time></trkpt><trkpt lat="43.6308963" lon="12.2122738"><ele>1001.0000000000001</ele><time>2026-04-11T09:52:53.605Z</time></trkpt><trkpt lat="43.6309631" lon="12.2122097"><ele>1001.0</ele><time>2026-04-11T09:52:54.605Z</time></trkpt><trkpt lat="43.6310227" lon="12.2121507"><ele>1001.0</ele><time>2026-04-11T09:52:55.605Z</time></trkpt><trkpt lat="43.6310859" lon="12.2120982"><ele>1001.0</ele><time>2026-04-11T09:52:56.604Z</time></trkpt><trkpt lat="43.6311752" lon="12.212075"><ele>1001.0000000000001</ele><time>2026-04-11T09:52:57.604Z</time></trkpt><trkpt lat="43.6312608" lon="12.2120648"><ele>1001.0</ele><time>2026-04-11T09:52:58.605Z</time></trkpt><trkpt lat="43.631343" lon="12.2120848"><ele>1000.1666666666667</ele><time>2026-04-11T09:52:59.605Z</time></trkpt><trkpt lat="43.6314222" lon="12.2121199"><ele>999.3333333333334</ele><time>2026-04-11T09:53:00.605Z</time></trkpt><trkpt lat="43.6314904" lon="12.2121791"><ele>998.5</ele><time>2026-04-11T09:53:01.605Z</time></trkpt><trkpt lat="43.6315386" lon="12.212242"><ele>997.6666666666667</ele><time>2026-04-11T09:53:02.605Z</time></trkpt><trkpt lat="43.6316369" lon="12.2122947"><ele>996.8333333333334</ele><time>2026-04-11T09:53:04.604Z</time></trkpt><trkpt lat="43.6317104" lon="12.2122218"><ele>996.0</ele><time>2026-04-11T09:53:06.605Z</time></trkpt><trkpt lat="43.6317402" lon="12.2121018"><ele>996.0</ele><time>2026-04-11T09:53:08.604Z</time></trkpt><trkpt lat="43.6317895" lon="12.211938"><ele>996.0</ele><time>2026-04-11T09:53:10.605Z</time></trkpt><trkpt lat="43.6318183" lon="12.211849"><ele>996.0</ele><time>2026-04-11T09:53:11.605Z</time></trkpt><trkpt lat="43.6318466" lon="12.21177"><ele>996.0</ele><time>2026-04-11T09:53:12.605Z</time></trkpt><trkpt lat="43.6318871" lon="12.211674"><ele>996.0</ele><time>2026-04-11T09:53:13.604Z</time></trkpt><trkpt lat="43.6319144" lon="12.211571"><ele>996.0</ele><time>2026-04-11T09:53:14.605Z</time></trkpt><trkpt lat="43.6319345" lon="12.2114737"><ele>994.5714285714286</ele><time>2026-04-11T09:53:15.605Z</time></trkpt><trkpt lat="43.6319533" lon="12.2113773"><ele>993.1428571428571</ele><time>2026-04-11T09:53:16.604Z</time></trkpt><trkpt lat="43.6319787" lon="12.2112922"><ele>991.7142857142857</ele><time>2026-04-11T09:53:17.605Z</time></trkpt><trkpt lat="43.6320138" lon="12.2112109"><ele>990.2857142857142</ele><time>2026-04-11T09:53:18.605Z</time></trkpt><trkpt lat="43.6320539" lon="12.2111306"><ele>988.8571428571429</ele><time>2026-04-11T09:53:19.605Z</time></trkpt><trkpt lat="43.6320951" lon="12.2110426"><ele>987.4285714285713</ele><time>2026-04-11T09:53:20.605Z</time></trkpt><trkpt lat="43.6321318" lon="12.2109597"><ele>986.0</ele><time>2026-04-11T09:53:21.603Z</time></trkpt><trkpt lat="43.6321714" lon="12.2108899"><ele>986.0000000000001</ele><time>2026-04-11T09:53:22.605Z</time></trkpt><trkpt lat="43.6322501" lon="12.2107739"><ele>986.0</ele><time>2026-04-11T09:53:24.604Z</time></trkpt><trkpt lat="43.6323607" lon="12.2107536"><ele>986.0</ele><time>2026-04-11T09:53:26.605Z</time></trkpt><trkpt lat="43.6324251" lon="12.2107859"><ele>986.0</ele><time>2026-04-11T09:53:27.605Z</time></trkpt><trkpt lat="43.6324927" lon="12.2108336"><ele>986.0000000000001</ele><time>2026-04-11T09:53:28.605Z</time></trkpt><trkpt lat="43.6325573" lon="12.2108802"><ele>986.0</ele><time>2026-04-11T09:53:29.604Z</time></trkpt><trkpt lat="43.6326184" lon="12.2109047"><ele>986.0</ele><time>2026-04-11T09:53:30.605Z</time></trkpt><trkpt lat="43.6327237" lon="12.2108555"><ele>986.0</ele><time>2026-04-11T09:53:32.605Z</time></trkpt><trkpt lat="43.6327802" lon="12.2107202"><ele>986.0</ele><time>2026-04-11T09:53:34.604Z</time></trkpt><trkpt lat="43.6328352" lon="12.2105736"><ele>986.0</ele><time>2026-04-11T09:53:36.604Z</time></trkpt><trkpt lat="43.6329234" lon="12.2104692"><ele>990.8571428571429</ele><time>2026-04-11T09:53:38.605Z</time></trkpt><trkpt lat="43.6329849" lon="12.2104429"><ele>995.7142857142858</ele><time>2026-04-11T09:53:39.604Z</time></trkpt><trkpt lat="43.6330498" lon="12.2104472"><ele>1000.5714285714287</ele><time>2026-04-11T09:53:40.605Z</time></trkpt><trkpt lat="43.6331145" lon="12.2104615"><ele>1005.4285714285714</ele><time>2026-04-11T09:53:41.605Z</time></trkpt><trkpt lat="43.6331789" lon="12.2104965"><ele>1010.2857142857144</ele><time>2026-04-11T09:53:42.605Z</time></trkpt><trkpt lat="43.6332465" lon="12.2105272"><ele>1015.1428571428572</ele><time>2026-04-11T09:53:43.605Z</time></trkpt><trkpt lat="43.6333192" lon="12.21054"><ele>1020.0</ele><time>2026-04-11T09:53:44.604Z</time></trkpt><trkpt lat="43.6333921" lon="12.210552"><ele>1020.0</ele><time>2026-04-11T09:53:45.605Z</time></trkpt><trkpt lat="43.6334582" lon="12.2105698"><ele>1020.0000000000001</ele><time>2026-04-11T09:53:46.605Z</time></trkpt><trkpt lat="43.6335143" lon="12.2106111"><ele>1020.0</ele><time>2026-04-11T09:53:47.604Z</time></trkpt><trkpt lat="43.6335628" lon="12.2106809"><ele>1020.0</ele><time>2026-04-11T09:53:48.605Z</time></trkpt><trkpt lat="43.633612" lon="12.2107532"><ele>1020.0000000000001</ele><time>2026-04-11T09:53:49.605Z</time></trkpt><trkpt lat="43.6336708" lon="12.2108168"><ele>1020.0</ele><time>2026-04-11T09:53:50.605Z</time></trkpt><trkpt lat="43.633741" lon="12.2108611"><ele>1020.0</ele><time>2026-04-11T09:53:51.603Z</time></trkpt><trkpt lat="43.6338198" lon="12.2108877"><ele>1016.8571428571429</ele><time>2026-04-11T09:53:52.605Z</time></trkpt><trkpt lat="43.6338958" lon="12.2108955"><ele>1013.7142857142858</ele><time>2026-04-11T09:53:53.605Z</time></trkpt><trkpt lat="43.6339697" lon="12.210915"><ele>1010.5714285714287</ele><time>2026-04-11T09:53:54.605Z</time></trkpt><trkpt lat="43.6340374" lon="12.21095"><ele>1007.4285714285716</ele><time>2026-04-11T09:53:55.604Z</time></trkpt><trkpt lat="43.6340973" lon="12.2110048"><ele>1004.2857142857143</ele><time>2026-04-11T09:53:56.605Z</time></trkpt><trkpt lat="43.6341416" lon="12.2110835"><ele>1001.1428571428573</ele><time>2026-04-11T09:53:57.605Z</time></trkpt><trkpt lat="43.6341686" lon="12.2111779"><ele>998.0000000000001</ele><time>2026-04-11T09:53:58.605Z</time></trkpt><trkpt lat="43.6341817" lon="12.2112764"><ele>998.0000000000001</ele><time>2026-04-11T09:53:59.603Z</time></trkpt><trkpt lat="43.6342131" lon="12.2113697"><ele>998.0</ele><time>2026-04-11T09:54:00.605Z</time></trkpt><trkpt lat="43.6342669" lon="12.2114428"><ele>998.0000000000001</ele><time>2026-04-11T09:54:01.605Z</time></trkpt><trkpt lat="43.6343374" lon="12.2114813"><ele>998.0000000000001</ele><time>2026-04-11T09:54:02.605Z</time></trkpt><trkpt lat="43.6344121" lon="12.2114739"><ele>998.0</ele><time>2026-04-11T09:54:03.604Z</time></trkpt><trkpt lat="43.6344806" lon="12.2114427"><ele>998.0000000000001</ele><time>2026-04-11T09:54:04.605Z</time></trkpt><trkpt lat="43.6345528" lon="12.2114151"><ele>998.0000000000001</ele><time>2026-04-11T09:54:05.604Z</time></trkpt><trkpt lat="43.6346326" lon="12.2114268"><ele>996.6666666666667</ele><time>2026-04-11T09:54:06.603Z</time></trkpt><trkpt lat="43.6347021" lon="12.2114664"><ele>995.3333333333334</ele><time>2026-04-11T09:54:07.605Z</time></trkpt><trkpt lat="43.6347663" lon="12.2115312"><ele>994.0</ele><time>2026-04-11T09:54:08.605Z</time></trkpt><trkpt lat="43.6348304" lon="12.2115939"><ele>992.6666666666667</ele><time>2026-04-11T09:54:09.605Z</time></trkpt><trkpt lat="43.6349047" lon="12.2116407"><ele>991.3333333333334</ele><time>2026-04-11T09:54:10.605Z</time></trkpt><trkpt lat="43.6349866" lon="12.2116715"><ele>990.0</ele><time>2026-04-11T09:54:11.605Z</time></trkpt><trkpt lat="43.63506" lon="12.2117167"><ele>990.0</ele><time>2026-04-11T09:54:12.605Z</time></trkpt><trkpt lat="43.6351205" lon="12.2117797"><ele>990.0</ele><time>2026-04-11T09:54:13.605Z</time></trkpt><trkpt lat="43.6351719" lon="12.2118522"><ele>990.0</ele><time>2026-04-11T09:54:14.605Z</time></trkpt><trkpt lat="43.6352029" lon="12.211946"><ele>990.0</ele><time>2026-04-11T09:54:15.604Z</time></trkpt><trkpt lat="43.6352156" lon="12.2120518"><ele>990.0</ele><time>2026-04-11T09:54:16.605Z</time></trkpt><trkpt lat="43.6352261" lon="12.2121462"><ele>990.0</ele><time>2026-04-11T09:54:17.605Z</time></trkpt><trkpt lat="43.6353007" lon="12.2122659"><ele>988.142857142857</ele><time>2026-04-11T09:54:19.605Z</time></trkpt><trkpt lat="43.6353652" lon="12.212286"><ele>986.2857142857142</ele><time>2026-04-11T09:54:20.605Z</time></trkpt><trkpt lat="43.6354289" lon="12.2123025"><ele>984.4285714285714</ele><time>2026-04-11T09:54:21.605Z</time></trkpt><trkpt lat="43.6355018" lon="12.2123375"><ele>982.5714285714286</ele><time>2026-04-11T09:54:22.604Z</time></trkpt><trkpt lat="43.6355529" lon="12.2124105"><ele>980.7142857142858</ele><time>2026-04-11T09:54:23.605Z</time></trkpt><trkpt lat="43.6356002" lon="12.2124932"><ele>978.857142857143</ele><time>2026-04-11T09:54:24.604Z</time></trkpt><trkpt lat="43.6356346" lon="12.2125873"><ele>977.0000000000001</ele><time>2026-04-11T09:54:25.605Z</time></trkpt><trkpt lat="43.6356569" lon="12.2126856"><ele>977.0000000000001</ele><time>2026-04-11T09:54:26.605Z</time></trkpt><trkpt lat="43.6356711" lon="12.2127843"><ele>977.0</ele><time>2026-04-11T09:54:27.605Z</time></trkpt><trkpt lat="43.6356824" lon="12.2128816"><ele>977.0000000000001</ele><time>2026-04-11T09:54:28.605Z</time></trkpt><trkpt lat="43.6356799" lon="12.212975"><ele>977.0000000000001</ele><time>2026-04-11T09:54:29.604Z</time></trkpt><trkpt lat="43.6356685" lon="12.2130765"><ele>977.0</ele><time>2026-04-11T09:54:30.605Z</time></trkpt><trkpt lat="43.6356496" lon="12.2131798"><ele>977.0000000000001</ele><time>2026-04-11T09:54:31.605Z</time></trkpt><trkpt lat="43.6356298" lon="12.2132838"><ele>977.0000000000001</ele><time>2026-04-11T09:54:32.604Z</time></trkpt><trkpt lat="43.6356215" lon="12.2133839"><ele>976.3333333333334</ele><time>2026-04-11T09:54:33.605Z</time></trkpt><trkpt lat="43.6356281" lon="12.2134801"><ele>975.6666666666667</ele><time>2026-04-11T09:54:34.605Z</time></trkpt><trkpt lat="43.6356616" lon="12.2135592"><ele>975.0</ele><time>2026-04-11T09:54:35.605Z</time></trkpt><trkpt lat="43.635715" lon="12.2136128"><ele>974.3333333333333</ele><time>2026-04-11T09:54:36.604Z</time></trkpt><trkpt lat="43.6357822" lon="12.2136289"><ele>973.6666666666666</ele><time>2026-04-11T09:54:37.605Z</time></trkpt><trkpt lat="43.635845" lon="12.2136056"><ele>973.0</ele><time>2026-04-11T09:54:38.604Z</time></trkpt><trkpt lat="43.6359271" lon="12.2134871"><ele>972.9999999999999</ele><time>2026-04-11T09:54:40.605Z</time></trkpt><trkpt lat="43.6359319" lon="12.2133132"><ele>973.0</ele><time>2026-04-11T09:54:42.604Z</time></trkpt><trkpt lat="43.6359201" lon="12.2132258"><ele>973.0</ele><time>2026-04-11T09:54:43.605Z</time></trkpt><trkpt lat="43.635911" lon="12.2131392"><ele>973.0</ele><time>2026-04-11T09:54:44.605Z</time></trkpt><trkpt lat="43.6359023" lon="12.2130487"><ele>972.9999999999999</ele><time>2026-04-11T09:54:45.604Z</time></trkpt><trkpt lat="43.6358763" lon="12.2128812"><ele>973.0</ele><time>2026-04-11T09:54:47.605Z</time></trkpt><trkpt lat="43.6358611" lon="12.2127146"><ele>973.6666666666666</ele><time>2026-04-11T09:54:49.605Z</time></trkpt><trkpt lat="43.6358781" lon="12.2125426"><ele>974.3333333333333</ele><time>2026-04-11T09:54:51.605Z</time></trkpt><trkpt lat="43.6358965" lon="12.2124544"><ele>975.0</ele><time>2026-04-11T09:54:52.605Z</time></trkpt><trkpt lat="43.6359243" lon="12.2123653"><ele>975.6666666666667</ele><time>2026-04-11T09:54:53.605Z</time></trkpt><trkpt lat="43.6359581" lon="12.2122778"><ele>976.3333333333334</ele><time>2026-04-11T09:54:54.605Z</time></trkpt><trkpt lat="43.6359929" lon="12.2121924"><ele>977.0</ele><time>2026-04-11T09:54:55.605Z</time></trkpt><trkpt lat="43.6360283" lon="12.2121081"><ele>975.5714285714287</ele><time>2026-04-11T09:54:56.605Z</time></trkpt><trkpt lat="43.6360743" lon="12.2120372"><ele>974.1428571428571</ele><time>2026-04-11T09:54:57.605Z</time></trkpt><trkpt lat="43.6361226" lon="12.21196"><ele>972.7142857142858</ele><time>2026-04-11T09:54:58.605Z</time></trkpt><trkpt lat="43.6361634" lon="12.2118766"><ele>971.2857142857143</ele><time>2026-04-11T09:54:59.604Z</time></trkpt><trkpt lat="43.6362015" lon="12.2117925"><ele>969.8571428571429</ele><time>2026-04-11T09:55:00.605Z</time></trkpt><trkpt lat="43.6362285" lon="12.2116922"><ele>968.4285714285714</ele><time>2026-04-11T09:55:01.605Z</time></trkpt><trkpt lat="43.6362524" lon="12.2115838"><ele>967.0</ele><time>2026-04-11T09:55:02.605Z</time></trkpt><trkpt lat="43.6362582" lon="12.2114708"><ele>972.6666666666666</ele><time>2026-04-11T09:55:03.604Z</time></trkpt><trkpt lat="43.6362667" lon="12.2113537"><ele>978.3333333333333</ele><time>2026-04-11T09:55:04.604Z</time></trkpt><trkpt lat="43.6362796" lon="12.2112498"><ele>984.0</ele><time>2026-04-11T09:55:05.605Z</time></trkpt><trkpt lat="43.636279" lon="12.2111603"><ele>989.6666666666667</ele><time>2026-04-11T09:55:06.605Z</time></trkpt><trkpt lat="43.63629" lon="12.2110637"><ele>995.3333333333334</ele><time>2026-04-11T09:55:07.604Z</time></trkpt><trkpt lat="43.6363054" lon="12.2109442"><ele>1001.0</ele><time>2026-04-11T09:55:08.605Z</time></trkpt><trkpt lat="43.6363307" lon="12.2108433"><ele>1001.0</ele><time>2026-04-11T09:55:09.605Z</time></trkpt><trkpt lat="43.6363775" lon="12.2107567"><ele>1000.9999999999999</ele><time>2026-04-11T09:55:10.605Z</time></trkpt><trkpt lat="43.6364894" lon="12.2106815"><ele>1000.9999999999999</ele><time>2026-04-11T09:55:12.605Z</time></trkpt><trkpt lat="43.6365906" lon="12.2107387"><ele>1001.0</ele><time>2026-04-11T09:55:13.605Z</time></trkpt><trkpt lat="43.6366653" lon="12.2107745"><ele>1001.0</ele><time>2026-04-11T09:55:14.605Z</time></trkpt><trkpt lat="43.6367323" lon="12.2108284"><ele>1001.0000000000001</ele><time>2026-04-11T09:55:15.605Z</time></trkpt><trkpt lat="43.6367888" lon="12.2108873"><ele>1001.0</ele><time>2026-04-11T09:55:16.605Z</time></trkpt><trkpt lat="43.6368504" lon="12.2109192"><ele>1001.0</ele><time>2026-04-11T09:55:17.604Z</time></trkpt><trkpt lat="43.6369297" lon="12.2109206"><ele>1001.0</ele><time>2026-04-11T09:55:18.605Z</time></trkpt><trkpt lat="43.6370025" lon="12.2109152"><ele>1001.0000000000001</ele><time>2026-04-11T09:55:19.605Z</time></trkpt><trkpt lat="43.6370806" lon="12.2108676"><ele>1001.0</ele><time>2026-04-11T09:55:20.604Z</time></trkpt><trkpt lat="43.637171" lon="12.2108296"><ele>997.8</ele><time>2026-04-11T09:55:21.605Z</time></trkpt><trkpt lat="43.6372771" lon="12.2107791"><ele>994.5999999999999</ele><time>2026-04-11T09:55:22.605Z</time></trkpt><trkpt lat="43.6373787" lon="12.2107577"><ele>991.4</ele><time>2026-04-11T09:55:23.605Z</time></trkpt><trkpt lat="43.6374603" lon="12.2107522"><ele>988.2</ele><time>2026-04-11T09:55:24.604Z</time></trkpt><trkpt lat="43.6375409" lon="12.210735"><ele>985.0</ele><time>2026-04-11T09:55:25.605Z</time></trkpt><trkpt lat="43.637621" lon="12.2107129"><ele>984.9999999999999</ele><time>2026-04-11T09:55:26.605Z</time></trkpt><trkpt lat="43.6376963" lon="12.2106969"><ele>985.0</ele><time>2026-04-11T09:55:27.605Z</time></trkpt><trkpt lat="43.6377696" lon="12.2107058"><ele>985.0</ele><time>2026-04-11T09:55:28.605Z</time></trkpt><trkpt lat="43.6378495" lon="12.2107115"><ele>985.0</ele><time>2026-04-11T09:55:29.605Z</time></trkpt><trkpt lat="43.6379306" lon="12.2107131"><ele>984.9999999999999</ele><time>2026-04-11T09:55:30.605Z</time></trkpt><trkpt lat="43.6380066" lon="12.2107185"><ele>985.0</ele><time>2026-04-11T09:55:31.604Z</time></trkpt><trkpt lat="43.6380843" lon="12.2107175"><ele>982.3333333333333</ele><time>2026-04-11T09:55:32.605Z</time></trkpt><trkpt lat="43.6381561" lon="12.2107176"><ele>979.6666666666666</ele><time>2026-04-11T09:55:33.605Z</time></trkpt><trkpt lat="43.638245" lon="12.2106912"><ele>977.0</ele><time>2026-04-11T09:55:35.604Z</time></trkpt><trkpt lat="43.6383031" lon="12.210654"><ele>974.3333333333333</ele><time>2026-04-11T09:55:37.605Z</time></trkpt><trkpt lat="43.6383598" lon="12.2105958"><ele>971.6666666666666</ele><time>2026-04-11T09:58:06.605Z</time></trkpt><trkpt lat="43.6384494" lon="12.2105953"><ele>969.0</ele><time>2026-04-11T09:58:10.604Z</time></trkpt><trkpt lat="43.6385155" lon="12.210611"><ele>969.0</ele><time>2026-04-11T09:58:11.605Z</time></trkpt><trkpt lat="43.6386048" lon="12.2106503"><ele>969.0</ele><time>2026-04-11T09:58:13.605Z</time></trkpt><trkpt lat="43.6386851" lon="12.2106817"><ele>969.0</ele><time>2026-04-11T09:58:15.605Z</time></trkpt><trkpt lat="43.6387578" lon="12.2106741"><ele>969.0</ele><time>2026-04-11T09:58:17.605Z</time></trkpt><trkpt lat="43.6388227" lon="12.2105988"><ele>969.0</ele><time>2026-04-11T09:58:19.604Z</time></trkpt><trkpt lat="43.6388929" lon="12.2105632"><ele>969.0</ele><time>2026-04-11T09:58:21.603Z</time></trkpt><trkpt lat="43.6389511" lon="12.21062"><ele>966.8571428571427</ele><time>2026-04-11T09:58:23.605Z</time></trkpt><trkpt lat="43.6389878" lon="12.2106949"><ele>964.7142857142857</ele><time>2026-04-11T09:58:26.605Z</time></trkpt><trkpt lat="43.6390539" lon="12.210787"><ele>962.5714285714284</ele><time>2026-04-11T09:58:29.604Z</time></trkpt><trkpt lat="43.6391063" lon="12.210849"><ele>960.4285714285713</ele><time>2026-04-11T09:58:31.604Z</time></trkpt><trkpt lat="43.6391716" lon="12.2109122"><ele>958.2857142857142</ele><time>2026-04-11T09:58:33.605Z</time></trkpt><trkpt lat="43.6392339" lon="12.2109563"><ele>956.1428571428571</ele><time>2026-04-11T09:58:36.605Z</time></trkpt><trkpt lat="43.6392872" lon="12.2110205"><ele>954.0</ele><time>2026-04-11T09:58:39.605Z</time></trkpt><trkpt lat="43.6393422" lon="12.2110897"><ele>954.0</ele><time>2026-04-11T09:58:41.605Z</time></trkpt><trkpt lat="43.6394106" lon="12.211181"><ele>954.0000000000001</ele><time>2026-04-11T09:58:43.604Z</time></trkpt><trkpt lat="43.6394625" lon="12.2112407"><ele>954.0000000000001</ele><time>2026-04-11T09:58:45.605Z</time></trkpt><trkpt lat="43.6395369" lon="12.2112515"><ele>954.0</ele><time>2026-04-11T09:59:11.605Z</time></trkpt><trkpt lat="43.6396216" lon="12.2112867"><ele>954.0</ele><time>2026-04-11T09:59:14.603Z</time></trkpt><trkpt lat="43.6397263" lon="12.2113778"><ele>950.1666666666666</ele><time>2026-04-11T09:59:18.604Z</time></trkpt><trkpt lat="43.6397945" lon="12.2114431"><ele>946.3333333333333</ele><time>2026-04-11T09:59:21.605Z</time></trkpt><trkpt lat="43.6398742" lon="12.2114488"><ele>942.5</ele><time>2026-04-11T09:59:27.605Z</time></trkpt><trkpt lat="43.6397887" lon="12.2114191"><ele>938.6666666666666</ele><time>2026-04-11T10:01:20.605Z</time></trkpt><trkpt lat="43.6397136" lon="12.2113533"><ele>934.8333333333333</ele><time>2026-04-11T10:01:22.605Z</time></trkpt><trkpt lat="43.6396378" lon="12.2112985"><ele>931.0</ele><time>2026-04-11T10:01:24.605Z</time></trkpt><trkpt lat="43.6395725" lon="12.211265"><ele>930.9999999999999</ele><time>2026-04-11T10:01:26.605Z</time></trkpt><trkpt lat="43.6395185" lon="12.2112074"><ele>931.0</ele><time>2026-04-11T10:01:30.604Z</time></trkpt><trkpt lat="43.6395345" lon="12.2110935"><ele>931.0</ele><time>2026-04-11T10:01:47.605Z</time></trkpt><trkpt lat="43.6395724" lon="12.2109923"><ele>931.0</ele><time>2026-04-11T10:01:51.605Z</time></trkpt><trkpt lat="43.6396053" lon="12.2108985"><ele>930.9999999999999</ele><time>2026-04-11T10:01:54.605Z</time></trkpt><trkpt lat="43.6396106" lon="12.2108088"><ele>931.0</ele><time>2026-04-11T10:01:57.605Z</time></trkpt><trkpt lat="43.6396074" lon="12.2106882"><ele>928.7142857142858</ele><time>2026-04-11T10:02:01.605Z</time></trkpt><trkpt lat="43.6396175" lon="12.2106017"><ele>926.4285714285714</ele><time>2026-04-11T10:02:03.605Z</time></trkpt><trkpt lat="43.6396247" lon="12.2105057"><ele>924.1428571428571</ele><time>2026-04-11T10:02:05.605Z</time></trkpt><trkpt lat="43.6396386" lon="12.2104156"><ele>921.8571428571429</ele><time>2026-04-11T10:02:07.605Z</time></trkpt><trkpt lat="43.6396482" lon="12.2103116"><ele>919.5714285714287</ele><time>2026-04-11T10:02:15.605Z</time></trkpt><trkpt lat="43.6396571" lon="12.2102165"><ele>917.2857142857143</ele><time>2026-04-11T10:02:52.605Z</time></trkpt><trkpt lat="43.6396421" lon="12.2101169"><ele>915.0</ele><time>2026-04-11T10:02:56.605Z</time></trkpt><trkpt lat="43.639651" lon="12.210002"><ele>915.0</ele><time>2026-04-11T10:02:59.605Z</time></trkpt><trkpt lat="43.6396644" lon="12.2098814"><ele>915.0</ele><time>2026-04-11T10:03:02.604Z</time></trkpt><trkpt lat="43.6396704" lon="12.2097825"><ele>915.0</ele><time>2026-04-11T10:03:04.605Z</time></trkpt><trkpt lat="43.6396692" lon="12.209667"><ele>915.0</ele><time>2026-04-11T10:03:06.605Z</time></trkpt><trkpt lat="43.6396312" lon="12.2095452"><ele>915.0</ele><time>2026-04-11T10:03:08.605Z</time></trkpt><trkpt lat="43.6396515" lon="12.2094318"><ele>915.0</ele><time>2026-04-11T10:03:11.605Z</time></trkpt><trkpt lat="43.6396208" lon="12.2093246"><ele>915.0</ele><time>2026-04-11T10:03:14.605Z</time></trkpt><trkpt lat="43.6395414" lon="12.2092827"><ele>915.0</ele><time>2026-04-11T10:03:17.605Z</time></trkpt><trkpt lat="43.6394777" lon="12.2092954"><ele>915.0</ele><time>2026-04-11T10:03:19.605Z</time></trkpt><trkpt lat="43.6394175" lon="12.209243"><ele>915.0</ele><time>2026-04-11T10:03:22.604Z</time></trkpt><trkpt lat="43.6393803" lon="12.2091666"><ele>915.0</ele><time>2026-04-11T10:03:34.605Z</time></trkpt><trkpt lat="43.6393677" lon="12.2090474"><ele>915.0</ele><time>2026-04-11T10:03:38.604Z</time></trkpt><trkpt lat="43.639386" lon="12.2089279"><ele>915.0</ele><time>2026-04-11T10:03:41.605Z</time></trkpt><trkpt lat="43.6394235" lon="12.2088543"><ele>915.0000000000001</ele><time>2026-04-11T10:03:43.605Z</time></trkpt><trkpt lat="43.6394488" lon="12.2087646"><ele>915.0</ele><time>2026-04-11T10:03:47.603Z</time></trkpt><trkpt lat="43.639476" lon="12.2086845"><ele>915.0</ele><time>2026-04-11T10:04:16.605Z</time></trkpt><trkpt lat="43.6394901" lon="12.2085607"><ele>915.0000000000001</ele><time>2026-04-11T10:04:19.605Z</time></trkpt><trkpt lat="43.6395363" lon="12.2084956"><ele>915.0</ele><time>2026-04-11T10:04:22.604Z</time></trkpt><trkpt lat="43.6395999" lon="12.2084628"><ele>915.0</ele><time>2026-04-11T10:04:24.605Z</time></trkpt><trkpt lat="43.6396907" lon="12.2084377"><ele>912.4285714285714</ele><time>2026-04-11T10:04:26.605Z</time></trkpt><trkpt lat="43.6397628" lon="12.2084069"><ele>909.8571428571429</ele><time>2026-04-11T10:04:28.605Z</time></trkpt><trkpt lat="43.6398274" lon="12.208377"><ele>907.2857142857143</ele><time>2026-04-11T10:04:30.604Z</time></trkpt><trkpt lat="43.6398866" lon="12.2083283"><ele>904.7142857142858</ele><time>2026-04-11T10:04:34.604Z</time></trkpt><trkpt lat="43.639961" lon="12.2083046"><ele>902.1428571428571</ele><time>2026-04-11T10:04:49.603Z</time></trkpt><trkpt lat="43.6400315" lon="12.2083458"><ele>899.5714285714287</ele><time>2026-04-11T10:04:52.605Z</time></trkpt><trkpt lat="43.6400779" lon="12.208441"><ele>897.0</ele><time>2026-04-11T10:04:55.605Z</time></trkpt><trkpt lat="43.6400934" lon="12.2085322"><ele>897.0</ele><time>2026-04-11T10:04:57.605Z</time></trkpt><trkpt lat="43.6401393" lon="12.208689"><ele>897.0</ele><time>2026-04-11T10:04:59.604Z</time></trkpt><trkpt lat="43.6401963" lon="12.2088005"><ele>897.0</ele><time>2026-04-11T10:05:01.604Z</time></trkpt><trkpt lat="43.6402407" lon="12.2088755"><ele>897.0</ele><time>2026-04-11T10:05:03.605Z</time></trkpt><trkpt lat="43.6402694" lon="12.2089531"><ele>897.0</ele><time>2026-04-11T10:05:07.603Z</time></trkpt><trkpt lat="43.6402932" lon="12.2090422"><ele>897.0</ele><time>2026-04-11T10:05:13.605Z</time></trkpt><trkpt lat="43.6403238" lon="12.2091259"><ele>892.4000000000001</ele><time>2026-04-11T10:05:16.605Z</time></trkpt><trkpt lat="43.6403309" lon="12.2092132"><ele>887.8000000000001</ele><time>2026-04-11T10:05:19.605Z</time></trkpt><trkpt lat="43.6403958" lon="12.2091613"><ele>883.2</ele><time>2026-04-11T10:05:23.605Z</time></trkpt><trkpt lat="43.6404352" lon="12.2090907"><ele>878.6</ele><time>2026-04-11T10:05:28.605Z</time></trkpt><trkpt lat="43.6405913" lon="12.2089411"><ele>874.0</ele><time>2026-04-11T10:05:31.605Z</time></trkpt><trkpt lat="43.6406488" lon="12.2088952"><ele>874.0</ele><time>2026-04-11T10:05:32.603Z</time></trkpt><trkpt lat="43.6407065" lon="12.2088568"><ele>874.0000000000001</ele><time>2026-04-11T10:05:33.605Z</time></trkpt><trkpt lat="43.6408016" lon="12.2087761"><ele>874.0000000000001</ele><time>2026-04-11T10:05:35.605Z</time></trkpt><trkpt lat="43.6408799" lon="12.2087152"><ele>874.0</ele><time>2026-04-11T10:05:37.605Z</time></trkpt><trkpt lat="43.6409714" lon="12.2086814"><ele>874.0</ele><time>2026-04-11T10:05:39.605Z</time></trkpt><trkpt lat="43.6410702" lon="12.2086709"><ele>870.9999999999999</ele><time>2026-04-11T10:05:41.605Z</time></trkpt><trkpt lat="43.6411513" lon="12.2086136"><ele>868.0</ele><time>2026-04-11T10:05:43.604Z</time></trkpt><trkpt lat="43.6412274" lon="12.2085378"><ele>865.0</ele><time>2026-04-11T10:05:45.605Z</time></trkpt><trkpt lat="43.6412783" lon="12.2084722"><ele>862.0</ele><time>2026-04-11T10:05:47.605Z</time></trkpt><trkpt lat="43.6413063" lon="12.2083705"><ele>858.9999999999999</ele><time>2026-04-11T10:05:50.605Z</time></trkpt><trkpt lat="43.6412926" lon="12.208263"><ele>856.0</ele><time>2026-04-11T10:05:51.604Z</time></trkpt><trkpt lat="43.6412765" lon="12.2080941"><ele>854.8333333333333</ele><time>2026-04-11T10:05:53.603Z</time></trkpt><trkpt lat="43.6412627" lon="12.2080076"><ele>853.6666666666666</ele><time>2026-04-11T10:05:54.604Z</time></trkpt><trkpt lat="43.641216" lon="12.2078608"><ele>852.5</ele><time>2026-04-11T10:05:56.604Z</time></trkpt><trkpt lat="43.641186" lon="12.207761"><ele>851.3333333333333</ele><time>2026-04-11T10:05:58.605Z</time></trkpt><trkpt lat="43.6411634" lon="12.2076665"><ele>850.1666666666666</ele><time>2026-04-11T10:06:07.605Z</time></trkpt><trkpt lat="43.6411394" lon="12.2075623"><ele>849.0</ele><time>2026-04-11T10:06:09.605Z</time></trkpt><trkpt lat="43.6411689" lon="12.2074495"><ele>849.0</ele><time>2026-04-11T10:06:11.605Z</time></trkpt><trkpt lat="43.6412548" lon="12.2073688"><ele>849.0</ele><time>2026-04-11T10:06:13.605Z</time></trkpt><trkpt lat="43.6413315" lon="12.2073209"><ele>849.0</ele><time>2026-04-11T10:06:15.605Z</time></trkpt><trkpt lat="43.6413663" lon="12.2072253"><ele>849.0</ele><time>2026-04-11T10:06:17.605Z</time></trkpt><trkpt lat="43.6413636" lon="12.2071048"><ele>849.0</ele><time>2026-04-11T10:06:19.605Z</time></trkpt><trkpt lat="43.6413087" lon="12.2070101"><ele>849.0</ele><time>2026-04-11T10:06:21.605Z</time></trkpt><trkpt lat="43.6412324" lon="12.2069343"><ele>848.6666666666666</ele><time>2026-04-11T10:06:23.604Z</time></trkpt><trkpt lat="43.6411562" lon="12.2068605"><ele>848.3333333333333</ele><time>2026-04-11T10:06:25.605Z</time></trkpt><trkpt lat="43.6411005" lon="12.2067869"><ele>848.0</ele><time>2026-04-11T10:06:26.605Z</time></trkpt><trkpt lat="43.6410682" lon="12.2067078"><ele>847.6666666666666</ele><time>2026-04-11T10:06:27.604Z</time></trkpt><trkpt lat="43.6410358" lon="12.206561"><ele>847.3333333333333</ele><time>2026-04-11T10:06:29.605Z</time></trkpt><trkpt lat="43.6410547" lon="12.2064549"><ele>847.0</ele><time>2026-04-11T10:06:31.605Z</time></trkpt><trkpt lat="43.641082" lon="12.2063333"><ele>843.9999999999999</ele><time>2026-04-11T10:06:33.604Z</time></trkpt><trkpt lat="43.6410979" lon="12.2062459"><ele>841.0</ele><time>2026-04-11T10:06:35.605Z</time></trkpt><trkpt lat="43.6411004" lon="12.2061454"><ele>838.0</ele><time>2026-04-11T10:06:37.604Z</time></trkpt><trkpt lat="43.6411224" lon="12.2060404"><ele>835.0</ele><time>2026-04-11T10:06:39.605Z</time></trkpt><trkpt lat="43.6412023" lon="12.2059246"><ele>831.9999999999999</ele><time>2026-04-11T10:06:41.604Z</time></trkpt><trkpt lat="43.6412569" lon="12.2058132"><ele>829.0</ele><time>2026-04-11T10:06:43.604Z</time></trkpt><trkpt lat="43.6413251" lon="12.2057758"><ele>828.9999999999999</ele><time>2026-04-11T10:06:47.605Z</time></trkpt><trkpt lat="43.6412321" lon="12.205737"><ele>829.0</ele><time>2026-04-11T10:06:53.605Z</time></trkpt><trkpt lat="43.6411436" lon="12.2057505"><ele>829.0</ele><time>2026-04-11T10:06:55.605Z</time></trkpt><trkpt lat="43.641028" lon="12.2057685"><ele>829.0</ele><time>2026-04-11T10:06:57.605Z</time></trkpt><trkpt lat="43.640965" lon="12.2057722"><ele>828.9999999999999</ele><time>2026-04-11T10:06:58.605Z</time></trkpt><trkpt lat="43.6408982" lon="12.2057943"><ele>829.0</ele><time>2026-04-11T10:06:59.605Z</time></trkpt><trkpt lat="43.640833" lon="12.2058165"><ele>829.0</ele><time>2026-04-11T10:07:00.604Z</time></trkpt><trkpt lat="43.6407666" lon="12.2058484"><ele>829.0</ele><time>2026-04-11T10:07:01.605Z</time></trkpt><trkpt lat="43.6406917" lon="12.2058673"><ele>829.0</ele><time>2026-04-11T10:07:02.604Z</time></trkpt><trkpt lat="43.6405696" lon="12.2059125"><ele>829.0</ele><time>2026-04-11T10:07:04.603Z</time></trkpt><trkpt lat="43.6404792" lon="12.205842"><ele>829.0</ele><time>2026-04-11T10:07:06.603Z</time></trkpt><trkpt lat="43.640366" lon="12.2058278"><ele>830.4000000000001</ele><time>2026-04-11T10:07:08.605Z</time></trkpt><trkpt lat="43.6402655" lon="12.205872"><ele>831.8</ele><time>2026-04-11T10:07:10.605Z</time></trkpt><trkpt lat="43.6401713" lon="12.2058962"><ele>833.2</ele><time>2026-04-11T10:07:12.605Z</time></trkpt><trkpt lat="43.640097" lon="12.2059455"><ele>834.5999999999999</ele><time>2026-04-11T10:07:15.605Z</time></trkpt><trkpt lat="43.6400061" lon="12.2059182"><ele>836.0</ele><time>2026-04-11T10:07:18.605Z</time></trkpt><trkpt lat="43.6399321" lon="12.2057467"><ele>836.0000000000001</ele><time>2026-04-11T10:07:21.605Z</time></trkpt><trkpt lat="43.6398586" lon="12.2056937"><ele>836.0</ele><time>2026-04-11T10:07:22.605Z</time></trkpt><trkpt lat="43.6397466" lon="12.2056307"><ele>836.0</ele><time>2026-04-11T10:07:24.605Z</time></trkpt><trkpt lat="43.6396781" lon="12.2055525"><ele>836.0</ele><time>2026-04-11T10:07:26.604Z</time></trkpt><trkpt lat="43.6396579" lon="12.2054495"><ele>836.0000000000001</ele><time>2026-04-11T10:07:28.605Z</time></trkpt><trkpt lat="43.6396369" lon="12.2053576"><ele>836.0</ele><time>2026-04-11T10:07:30.605Z</time></trkpt><trkpt lat="43.6396089" lon="12.2052269"><ele>834.8333333333334</ele><time>2026-04-11T10:07:32.603Z</time></trkpt><trkpt lat="43.639604" lon="12.205058"><ele>833.6666666666667</ele><time>2026-04-11T10:07:34.603Z</time></trkpt><trkpt lat="43.6396076" lon="12.2049671"><ele>832.5</ele><time>2026-04-11T10:07:35.605Z</time></trkpt><trkpt lat="43.6396089" lon="12.2048701"><ele>831.3333333333333</ele><time>2026-04-11T10:07:36.604Z</time></trkpt><trkpt lat="43.6396049" lon="12.2047681"><ele>830.1666666666666</ele><time>2026-04-11T10:07:37.604Z</time></trkpt><trkpt lat="43.6395981" lon="12.2046633"><ele>829.0</ele><time>2026-04-11T10:07:38.605Z</time></trkpt><trkpt lat="43.639584" lon="12.204567"><ele>828.9999999999999</ele><time>2026-04-11T10:07:39.605Z</time></trkpt><trkpt lat="43.6395626" lon="12.2044705"><ele>829.0</ele><time>2026-04-11T10:07:40.605Z</time></trkpt><trkpt lat="43.6395369" lon="12.2043757"><ele>829.0</ele><time>2026-04-11T10:07:41.605Z</time></trkpt><trkpt lat="43.6395" lon="12.2042846"><ele>829.0</ele><time>2026-04-11T10:07:42.604Z</time></trkpt><trkpt lat="43.6394494" lon="12.2042048"><ele>828.9999999999999</ele><time>2026-04-11T10:07:43.604Z</time></trkpt><trkpt lat="43.6393941" lon="12.2041246"><ele>829.0</ele><time>2026-04-11T10:07:44.605Z</time></trkpt><trkpt lat="43.6393334" lon="12.2040404"><ele>831.6666666666666</ele><time>2026-04-11T10:07:45.605Z</time></trkpt><trkpt lat="43.6392726" lon="12.2039511"><ele>834.3333333333333</ele><time>2026-04-11T10:07:46.605Z</time></trkpt><trkpt lat="43.6392213" lon="12.2038677"><ele>837.0</ele><time>2026-04-11T10:07:47.604Z</time></trkpt><trkpt lat="43.6391858" lon="12.2037931"><ele>839.6666666666667</ele><time>2026-04-11T10:07:48.605Z</time></trkpt><trkpt lat="43.639162" lon="12.2036707"><ele>842.3333333333334</ele><time>2026-04-11T10:07:50.604Z</time></trkpt><trkpt lat="43.6391475" lon="12.2035697"><ele>845.0</ele><time>2026-04-11T10:07:52.605Z</time></trkpt><trkpt lat="43.6390799" lon="12.2034851"><ele>845.0000000000001</ele><time>2026-04-11T10:07:54.604Z</time></trkpt><trkpt lat="43.638979" lon="12.2034217"><ele>845.0</ele><time>2026-04-11T10:07:56.605Z</time></trkpt><trkpt lat="43.6389207" lon="12.2033779"><ele>845.0</ele><time>2026-04-11T10:07:57.605Z</time></trkpt><trkpt lat="43.6388553" lon="12.2033354"><ele>845.0</ele><time>2026-04-11T10:07:58.605Z</time></trkpt><trkpt lat="43.6387968" lon="12.203292"><ele>845.0000000000001</ele><time>2026-04-11T10:07:59.604Z</time></trkpt><trkpt lat="43.6387388" lon="12.2032558"><ele>845.0</ele><time>2026-04-11T10:08:00.605Z</time></trkpt><trkpt lat="43.6387012" lon="12.2031586"><ele>844.7142857142857</ele><time>2026-04-11T10:08:01.605Z</time></trkpt><trkpt lat="43.6386548" lon="12.2030894"><ele>844.4285714285714</ele><time>2026-04-11T10:08:02.605Z</time></trkpt><trkpt lat="43.6386053" lon="12.2030291"><ele>844.1428571428571</ele><time>2026-04-11T10:08:03.605Z</time></trkpt><trkpt lat="43.6385448" lon="12.2029683"><ele>843.8571428571429</ele><time>2026-04-11T10:08:04.605Z</time></trkpt><trkpt lat="43.638484" lon="12.2029107"><ele>843.5714285714286</ele><time>2026-04-11T10:08:05.604Z</time></trkpt><trkpt lat="43.6384204" lon="12.2028745"><ele>843.2857142857142</ele><time>2026-04-11T10:08:06.603Z</time></trkpt><trkpt lat="43.6383426" lon="12.2028586"><ele>843.0</ele><time>2026-04-11T10:08:07.604Z</time></trkpt><trkpt lat="43.6382398" lon="12.2028459"><ele>843.0</ele><time>2026-04-11T10:08:08.605Z</time></trkpt><trkpt lat="43.6381601" lon="12.2028378"><ele>843.0</ele><time>2026-04-11T10:08:09.605Z</time></trkpt><trkpt lat="43.6380604" lon="12.2028917"><ele>843.0</ele><time>2026-04-11T10:08:10.605Z</time></trkpt><trkpt lat="43.6379588" lon="12.2029898"><ele>843.0</ele><time>2026-04-11T10:08:11.605Z</time></trkpt><trkpt lat="43.6378598" lon="12.2030538"><ele>843.0</ele><time>2026-04-11T10:08:12.605Z</time></trkpt><trkpt lat="43.6377771" lon="12.2030809"><ele>844.3333333333334</ele><time>2026-04-11T10:08:13.605Z</time></trkpt><trkpt lat="43.6376806" lon="12.2030666"><ele>845.6666666666667</ele><time>2026-04-11T10:08:14.605Z</time></trkpt><trkpt lat="43.6376117" lon="12.2030536"><ele>847.0</ele><time>2026-04-11T10:08:15.605Z</time></trkpt><trkpt lat="43.6375021" lon="12.2030254"><ele>848.3333333333334</ele><time>2026-04-11T10:08:17.605Z</time></trkpt><trkpt lat="43.6374302" lon="12.2030172"><ele>849.6666666666667</ele><time>2026-04-11T10:08:18.604Z</time></trkpt><trkpt lat="43.6373662" lon="12.2029918"><ele>851.0</ele><time>2026-04-11T10:08:19.604Z</time></trkpt><trkpt lat="43.6372965" lon="12.2029454"><ele>851.0</ele><time>2026-04-11T10:08:20.605Z</time></trkpt><trkpt lat="43.63726" lon="12.2028392"><ele>851.0</ele><time>2026-04-11T10:08:21.605Z</time></trkpt><trkpt lat="43.6372017" lon="12.2027494"><ele>851.0</ele><time>2026-04-11T10:08:23.604Z</time></trkpt><trkpt lat="43.6371004" lon="12.2026937"><ele>851.0</ele><time>2026-04-11T10:08:24.603Z</time></trkpt><trkpt lat="43.6369994" lon="12.2026278"><ele>851.0</ele><time>2026-04-11T10:08:26.605Z</time></trkpt><trkpt lat="43.6368479" lon="12.2025737"><ele>852.8</ele><time>2026-04-11T10:08:28.605Z</time></trkpt><trkpt lat="43.6367564" lon="12.2025595"><ele>854.5999999999999</ele><time>2026-04-11T10:08:29.605Z</time></trkpt><trkpt lat="43.6366454" lon="12.2025325"><ele>856.4</ele><time>2026-04-11T10:08:30.605Z</time></trkpt><trkpt lat="43.6365772" lon="12.2025434"><ele>858.2</ele><time>2026-04-11T10:08:31.604Z</time></trkpt><trkpt lat="43.6364766" lon="12.2025622"><ele>860.0</ele><time>2026-04-11T10:08:33.604Z</time></trkpt><trkpt lat="43.6363848" lon="12.2025919"><ele>860.0</ele><time>2026-04-11T10:08:34.605Z</time></trkpt><trkpt lat="43.6362704" lon="12.2026175"><ele>860.0</ele><time>2026-04-11T10:08:36.605Z</time></trkpt><trkpt lat="43.6361417" lon="12.2026401"><ele>860.0</ele><time>2026-04-11T10:08:38.604Z</time></trkpt><trkpt lat="43.6360768" lon="12.2026346"><ele>860.0</ele><time>2026-04-11T10:08:39.605Z</time></trkpt><trkpt lat="43.635959" lon="12.202591"><ele>860.0</ele><time>2026-04-11T10:08:40.605Z</time></trkpt><trkpt lat="43.6358697" lon="12.2025298"><ele>860.8333333333334</ele><time>2026-04-11T10:08:41.604Z</time></trkpt><trkpt lat="43.6357778" lon="12.2025732"><ele>861.6666666666667</ele><time>2026-04-11T10:08:43.605Z</time></trkpt><trkpt lat="43.6356881" lon="12.2025605"><ele>862.5</ele><time>2026-04-11T10:08:44.604Z</time></trkpt><trkpt lat="43.6357546" lon="12.2024598"><ele>863.3333333333333</ele><time>2026-04-11T10:08:46.604Z</time></trkpt><trkpt lat="43.6358035" lon="12.202372"><ele>864.1666666666666</ele><time>2026-04-11T10:08:48.605Z</time></trkpt><trkpt lat="43.6358471" lon="12.2022844"><ele>865.0</ele><time>2026-04-11T10:08:50.605Z</time></trkpt><trkpt lat="43.635875" lon="12.2021748"><ele>864.4999999999999</ele><time>2026-04-11T10:08:51.605Z</time></trkpt><trkpt lat="43.6359357" lon="12.2020423"><ele>864.0</ele><time>2026-04-11T10:08:52.604Z</time></trkpt><trkpt lat="43.6359807" lon="12.2019744"><ele>863.5</ele><time>2026-04-11T10:08:53.603Z</time></trkpt><trkpt lat="43.6360427" lon="12.2019125"><ele>863.0</ele><time>2026-04-11T10:08:54.605Z</time></trkpt><trkpt lat="43.6360949" lon="12.2018317"><ele>862.4999999999999</ele><time>2026-04-11T10:08:55.605Z</time></trkpt><trkpt lat="43.6361565" lon="12.2017487"><ele>862.0</ele><time>2026-04-11T10:08:56.605Z</time></trkpt><trkpt lat="43.6362236" lon="12.2016739"><ele>862.0</ele><time>2026-04-11T10:08:57.605Z</time></trkpt><trkpt lat="43.6364172" lon="12.2015213"><ele>862.0</ele><time>2026-04-11T10:08:59.605Z</time></trkpt><trkpt lat="43.6364997" lon="12.2014747"><ele>862.0</ele><time>2026-04-11T10:09:00.605Z</time></trkpt><trkpt lat="43.6365656" lon="12.2014539"><ele>862.0</ele><time>2026-04-11T10:09:01.604Z</time></trkpt><trkpt lat="43.6366735" lon="12.2014253"><ele>859.8333333333333</ele><time>2026-04-11T10:09:03.605Z</time></trkpt><trkpt lat="43.6367405" lon="12.2013781"><ele>857.6666666666666</ele><time>2026-04-11T10:09:05.605Z</time></trkpt><trkpt lat="43.6368066" lon="12.2012995"><ele>855.5</ele><time>2026-04-11T10:09:07.605Z</time></trkpt><trkpt lat="43.6368985" lon="12.2012749"><ele>853.3333333333333</ele><time>2026-04-11T10:09:09.604Z</time></trkpt><trkpt lat="43.6369807" lon="12.2012505"><ele>851.1666666666666</ele><time>2026-04-11T10:09:11.605Z</time></trkpt><trkpt lat="43.6370818" lon="12.2012631"><ele>849.0</ele><time>2026-04-11T10:10:13.604Z</time></trkpt><trkpt lat="43.6371609" lon="12.2012131"><ele>849.0</ele><time>2026-04-11T10:10:16.605Z</time></trkpt><trkpt lat="43.6372263" lon="12.2011551"><ele>849.0</ele><time>2026-04-11T10:10:17.605Z</time></trkpt><trkpt lat="43.6373382" lon="12.2011174"><ele>849.0</ele><time>2026-04-11T10:10:18.605Z</time></trkpt><trkpt lat="43.6374065" lon="12.2010125"><ele>849.0</ele><time>2026-04-11T10:10:20.605Z</time></trkpt><trkpt lat="43.6373726" lon="12.2008656"><ele>849.0</ele><time>2026-04-11T10:10:22.605Z</time></trkpt><trkpt lat="43.63734" lon="12.2007575"><ele>848.0</ele><time>2026-04-11T10:10:23.604Z</time></trkpt><trkpt lat="43.6373025" lon="12.2006412"><ele>847.0</ele><time>2026-04-11T10:10:24.605Z</time></trkpt><trkpt lat="43.637259" lon="12.2005282"><ele>846.0</ele><time>2026-04-11T10:10:25.605Z</time></trkpt><trkpt lat="43.637195" lon="12.2004347"><ele>845.0</ele><time>2026-04-11T10:10:26.605Z</time></trkpt><trkpt lat="43.6371258" lon="12.2003481"><ele>844.0</ele><time>2026-04-11T10:10:27.605Z</time></trkpt><trkpt lat="43.6370688" lon="12.2002571"><ele>844.0</ele><time>2026-04-11T10:10:28.605Z</time></trkpt><trkpt lat="43.6370252" lon="12.2001504"><ele>844.0</ele><time>2026-04-11T10:10:29.605Z</time></trkpt><trkpt lat="43.6369864" lon="12.2000436"><ele>844.0</ele><time>2026-04-11T10:10:30.605Z</time></trkpt><trkpt lat="43.6369424" lon="12.199937"><ele>844.0</ele><time>2026-04-11T10:10:31.605Z</time></trkpt><trkpt lat="43.6369138" lon="12.1998049"><ele>844.0</ele><time>2026-04-11T10:10:32.605Z</time></trkpt><trkpt lat="43.6368643" lon="12.199681"><ele>851.1666666666666</ele><time>2026-04-11T10:10:33.605Z</time></trkpt><trkpt lat="43.6368423" lon="12.1995448"><ele>858.3333333333333</ele><time>2026-04-11T10:10:34.605Z</time></trkpt><trkpt lat="43.6368207" lon="12.1994353"><ele>865.5</ele><time>2026-04-11T10:10:35.605Z</time></trkpt><trkpt lat="43.6368125" lon="12.1993225"><ele>872.6666666666667</ele><time>2026-04-11T10:10:36.605Z</time></trkpt><trkpt lat="43.6368094" lon="12.1992218"><ele>879.8333333333334</ele><time>2026-04-11T10:10:37.605Z</time></trkpt><trkpt lat="43.6368617" lon="12.1991336"><ele>887.0</ele><time>2026-04-11T10:10:38.605Z</time></trkpt><trkpt lat="43.6368823" lon="12.1990458"><ele>888.0</ele><time>2026-04-11T10:10:39.604Z</time></trkpt><trkpt lat="43.6369068" lon="12.1989627"><ele>889.0</ele><time>2026-04-11T10:10:40.605Z</time></trkpt><trkpt lat="43.6369583" lon="12.1987852"><ele>890.0</ele><time>2026-04-11T10:10:42.605Z</time></trkpt><trkpt lat="43.636972" lon="12.1986934"><ele>891.0</ele><time>2026-04-11T10:10:43.605Z</time></trkpt><trkpt lat="43.6368961" lon="12.1985589"><ele>892.0</ele><time>2026-04-11T10:10:45.605Z</time></trkpt><trkpt lat="43.6368478" lon="12.1983901"><ele>892.0</ele><time>2026-04-11T10:10:46.605Z</time></trkpt><trkpt lat="43.6368342" lon="12.1982659"><ele>892.0</ele><time>2026-04-11T10:10:47.604Z</time></trkpt><trkpt lat="43.6368223" lon="12.1981244"><ele>892.0</ele><time>2026-04-11T10:10:48.604Z</time></trkpt><trkpt lat="43.6368998" lon="12.197987"><ele>892.0</ele><time>2026-04-11T10:10:49.605Z</time></trkpt><trkpt lat="43.6369266" lon="12.1978468"><ele>892.0</ele><time>2026-04-11T10:10:50.605Z</time></trkpt><trkpt lat="43.6369753" lon="12.1977347"><ele>891.6</ele><time>2026-04-11T10:10:51.605Z</time></trkpt><trkpt lat="43.6370161" lon="12.1976115"><ele>891.2</ele><time>2026-04-11T10:10:52.605Z</time></trkpt><trkpt lat="43.6370534" lon="12.1974819"><ele>890.8</ele><time>2026-04-11T10:10:53.605Z</time></trkpt><trkpt lat="43.6370727" lon="12.1973732"><ele>890.4</ele><time>2026-04-11T10:10:54.605Z</time></trkpt><trkpt lat="43.6370671" lon="12.1971451"><ele>890.0</ele><time>2026-04-11T10:10:55.605Z</time></trkpt><trkpt lat="43.6371754" lon="12.1971549"><ele>890.0</ele><time>2026-04-11T10:10:57.605Z</time></trkpt><trkpt lat="43.6372858" lon="12.1972425"><ele>890.0</ele><time>2026-04-11T10:10:59.605Z</time></trkpt><trkpt lat="43.6373623" lon="12.1973311"><ele>890.0</ele><time>2026-04-11T10:11:00.605Z</time></trkpt><trkpt lat="43.6374355" lon="12.1974242"><ele>890.0</ele><time>2026-04-11T10:11:01.604Z</time></trkpt><trkpt lat="43.6375359" lon="12.1975244"><ele>890.0</ele><time>2026-04-11T10:11:02.603Z</time></trkpt><trkpt lat="43.6376216" lon="12.1976257"><ele>890.0</ele><time>2026-04-11T10:11:03.604Z</time></trkpt><trkpt lat="43.637698" lon="12.1977244"><ele>890.0</ele><time>2026-04-11T10:11:04.605Z</time></trkpt><trkpt lat="43.6377899" lon="12.1978693"><ele>890.0</ele><time>2026-04-11T10:11:05.605Z</time></trkpt><trkpt lat="43.6377931" lon="12.1980023"><ele>889.1666666666667</ele><time>2026-04-11T10:11:06.605Z</time></trkpt><trkpt lat="43.6378291" lon="12.1981165"><ele>888.3333333333334</ele><time>2026-04-11T10:11:07.605Z</time></trkpt><trkpt lat="43.6378796" lon="12.1982298"><ele>887.5</ele><time>2026-04-11T10:11:08.605Z</time></trkpt><trkpt lat="43.6379362" lon="12.1982748"><ele>886.6666666666667</ele><time>2026-04-11T10:11:09.605Z</time></trkpt><trkpt lat="43.6380271" lon="12.1981994"><ele>885.8333333333334</ele><time>2026-04-11T10:11:11.605Z</time></trkpt><trkpt lat="43.6380493" lon="12.1980977"><ele>885.0</ele><time>2026-04-11T10:11:12.605Z</time></trkpt><trkpt lat="43.6380773" lon="12.1979785"><ele>885.0</ele><time>2026-04-11T10:11:13.605Z</time></trkpt><trkpt lat="43.6381109" lon="12.1978476"><ele>885.0</ele><time>2026-04-11T10:11:14.605Z</time></trkpt><trkpt lat="43.6381913" lon="12.1976827"><ele>885.0</ele><time>2026-04-11T10:11:15.604Z</time></trkpt><trkpt lat="43.6382575" lon="12.1975491"><ele>885.0</ele><time>2026-04-11T10:11:16.605Z</time></trkpt><trkpt lat="43.6383138" lon="12.1974293"><ele>886.2</ele><time>2026-04-11T10:11:17.605Z</time></trkpt><trkpt lat="43.6383737" lon="12.1973085"><ele>887.4</ele><time>2026-04-11T10:11:18.605Z</time></trkpt><trkpt lat="43.6384315" lon="12.1972177"><ele>888.5999999999999</ele><time>2026-04-11T10:11:19.605Z</time></trkpt><trkpt lat="43.6384959" lon="12.1971374"><ele>889.8</ele><time>2026-04-11T10:11:20.605Z</time></trkpt><trkpt lat="43.6385705" lon="12.1970506"><ele>891.0</ele><time>2026-04-11T10:11:21.605Z</time></trkpt><trkpt lat="43.6386272" lon="12.1969898"><ele>891.0</ele><time>2026-04-11T10:11:22.604Z</time></trkpt><trkpt lat="43.6386843" lon="12.1968921"><ele>890.9999999999999</ele><time>2026-04-11T10:11:23.605Z</time></trkpt><trkpt lat="43.6386818" lon="12.1967362"><ele>890.9999999999999</ele><time>2026-04-11T10:11:24.605Z</time></trkpt><trkpt lat="43.6386283" lon="12.1965938"><ele>891.0</ele><time>2026-04-11T10:11:25.605Z</time></trkpt><trkpt lat="43.6385752" lon="12.1965163"><ele>891.0</ele><time>2026-04-11T10:11:26.605Z</time></trkpt><trkpt lat="43.6384953" lon="12.196363"><ele>892.4</ele><time>2026-04-11T10:11:28.604Z</time></trkpt><trkpt lat="43.63848" lon="12.1961236"><ele>893.8</ele><time>2026-04-11T10:11:29.605Z</time></trkpt><trkpt lat="43.6384406" lon="12.196026"><ele>895.1999999999999</ele><time>2026-04-11T10:11:30.605Z</time></trkpt><trkpt lat="43.6384125" lon="12.195947"><ele>896.5999999999999</ele><time>2026-04-11T10:11:31.605Z</time></trkpt><trkpt lat="43.6383928" lon="12.1958306"><ele>898.0</ele><time>2026-04-11T10:11:32.605Z</time></trkpt><trkpt lat="43.6384749" lon="12.1957594"><ele>897.9999999999999</ele><time>2026-04-11T10:11:33.604Z</time></trkpt><trkpt lat="43.6385264" lon="12.1956875"><ele>898.0</ele><time>2026-04-11T10:11:34.605Z</time></trkpt><trkpt lat="43.6385652" lon="12.1955926"><ele>898.0</ele><time>2026-04-11T10:11:35.605Z</time></trkpt><trkpt lat="43.6385869" lon="12.1954981"><ele>898.0</ele><time>2026-04-11T10:11:36.605Z</time></trkpt><trkpt lat="43.6386135" lon="12.1953967"><ele>897.9999999999999</ele><time>2026-04-11T10:11:37.603Z</time></trkpt><trkpt lat="43.6386444" lon="12.1952253"><ele>898.0</ele><time>2026-04-11T10:11:38.604Z</time></trkpt><trkpt lat="43.6386885" lon="12.1951077"><ele>895.4</ele><time>2026-04-11T10:11:39.604Z</time></trkpt><trkpt lat="43.6387288" lon="12.1949928"><ele>892.8</ele><time>2026-04-11T10:11:40.604Z</time></trkpt><trkpt lat="43.6387631" lon="12.1948807"><ele>890.2</ele><time>2026-04-11T10:11:41.605Z</time></trkpt><trkpt lat="43.6387966" lon="12.1947644"><ele>887.6</ele><time>2026-04-11T10:11:42.605Z</time></trkpt><trkpt lat="43.6388414" lon="12.1946051"><ele>885.0</ele><time>2026-04-11T10:11:44.605Z</time></trkpt><trkpt lat="43.6388743" lon="12.1945145"><ele>885.0</ele><time>2026-04-11T10:11:45.605Z</time></trkpt><trkpt lat="43.6389153" lon="12.1944227"><ele>885.0</ele><time>2026-04-11T10:11:46.605Z</time></trkpt><trkpt lat="43.6389269" lon="12.194296"><ele>885.0</ele><time>2026-04-11T10:11:47.605Z</time></trkpt><trkpt lat="43.6389144" lon="12.1941896"><ele>885.0</ele><time>2026-04-11T10:11:48.605Z</time></trkpt><trkpt lat="43.6389273" lon="12.1940352"><ele>885.0</ele><time>2026-04-11T10:11:50.605Z</time></trkpt><trkpt lat="43.6389279" lon="12.1938815"><ele>886.4</ele><time>2026-04-11T10:11:52.605Z</time></trkpt><trkpt lat="43.6389231" lon="12.1937246"><ele>887.8</ele><time>2026-04-11T10:11:54.605Z</time></trkpt><trkpt lat="43.6389264" lon="12.1935734"><ele>889.2</ele><time>2026-04-11T10:11:56.605Z</time></trkpt><trkpt lat="43.6389211" lon="12.1934723"><ele>890.6</ele><time>2026-04-11T10:11:57.605Z</time></trkpt><trkpt lat="43.6389133" lon="12.1933032"><ele>892.0</ele><time>2026-04-11T10:11:59.605Z</time></trkpt><trkpt lat="43.6389152" lon="12.1931666"><ele>896.0</ele><time>2026-04-11T10:12:01.605Z</time></trkpt><trkpt lat="43.6389147" lon="12.192988"><ele>900.0</ele><time>2026-04-11T10:12:03.605Z</time></trkpt><trkpt lat="43.6389473" lon="12.1928715"><ele>904.0</ele><time>2026-04-11T10:12:05.605Z</time></trkpt><trkpt lat="43.6389673" lon="12.1925805"><ele>908.0</ele><time>2026-04-11T10:12:07.605Z</time></trkpt><trkpt lat="43.6389781" lon="12.1924673"><ele>913.0</ele><time>2026-04-11T10:12:08.605Z</time></trkpt><trkpt lat="43.6390601" lon="12.1923384"><ele>918.0</ele><time>2026-04-11T10:12:10.604Z</time></trkpt><trkpt lat="43.6391338" lon="12.1922969"><ele>923.0</ele><time>2026-04-11T10:12:11.603Z</time></trkpt><trkpt lat="43.6391955" lon="12.1922227"><ele>928.0</ele><time>2026-04-11T10:12:12.605Z</time></trkpt><trkpt lat="43.6392654" lon="12.1921679"><ele>933.0</ele><time>2026-04-11T10:12:13.605Z</time></trkpt><trkpt lat="43.6393794" lon="12.1920155"><ele>931.4</ele><time>2026-04-11T10:12:14.604Z</time></trkpt><trkpt lat="43.6394918" lon="12.1919763"><ele>929.8</ele><time>2026-04-11T10:12:15.605Z</time></trkpt><trkpt lat="43.6395861" lon="12.191974"><ele>928.2</ele><time>2026-04-11T10:12:16.605Z</time></trkpt><trkpt lat="43.639679" lon="12.1919601"><ele>926.6</ele><time>2026-04-11T10:12:17.605Z</time></trkpt><trkpt lat="43.6397752" lon="12.191932"><ele>925.0</ele><time>2026-04-11T10:12:18.605Z</time></trkpt><trkpt lat="43.639862" lon="12.1918688"><ele>925.0</ele><time>2026-04-11T10:12:19.605Z</time></trkpt><trkpt lat="43.63995" lon="12.1918338"><ele>925.0</ele><time>2026-04-11T10:12:20.604Z</time></trkpt><trkpt lat="43.6400406" lon="12.1918063"><ele>925.0</ele><time>2026-04-11T10:12:21.605Z</time></trkpt><trkpt lat="43.6401584" lon="12.191749"><ele>925.0</ele><time>2026-04-11T10:12:22.605Z</time></trkpt><trkpt lat="43.6402401" lon="12.1917106"><ele>925.0</ele><time>2026-04-11T10:12:23.605Z</time></trkpt><trkpt lat="43.6402984" lon="12.1916764"><ele>925.2</ele><time>2026-04-11T10:12:24.605Z</time></trkpt><trkpt lat="43.6404171" lon="12.1916533"><ele>925.4</ele><time>2026-04-11T10:12:26.604Z</time></trkpt><trkpt lat="43.6404851" lon="12.191679"><ele>925.5999999999999</ele><time>2026-04-11T10:12:27.605Z</time></trkpt><trkpt lat="43.6405753" lon="12.1916674"><ele>925.8</ele><time>2026-04-11T10:12:28.604Z</time></trkpt><trkpt lat="43.6407308" lon="12.1916995"><ele>926.0</ele><time>2026-04-11T10:12:30.605Z</time></trkpt><trkpt lat="43.6408463" lon="12.1917245"><ele>926.0</ele><time>2026-04-11T10:12:31.605Z</time></trkpt><trkpt lat="43.6409204" lon="12.1917615"><ele>925.9999999999999</ele><time>2026-04-11T10:12:32.605Z</time></trkpt><trkpt lat="43.6409859" lon="12.1918244"><ele>925.9999999999999</ele><time>2026-04-11T10:12:33.604Z</time></trkpt><trkpt lat="43.6410358" lon="12.1919884"><ele>926.0</ele><time>2026-04-11T10:12:35.604Z</time></trkpt><trkpt lat="43.6410329" lon="12.1921402"><ele>926.0</ele><time>2026-04-11T10:12:36.605Z</time></trkpt><trkpt lat="43.6410473" lon="12.1922503"><ele>927.8333333333334</ele><time>2026-04-11T10:12:37.605Z</time></trkpt><trkpt lat="43.6410653" lon="12.192356"><ele>929.6666666666667</ele><time>2026-04-11T10:12:38.604Z</time></trkpt><trkpt lat="43.6410803" lon="12.1924493"><ele>931.5</ele><time>2026-04-11T10:12:39.605Z</time></trkpt><trkpt lat="43.6410971" lon="12.1925941"><ele>933.3333333333333</ele><time>2026-04-11T10:12:41.605Z</time></trkpt><trkpt lat="43.641131" lon="12.1927242"><ele>935.1666666666666</ele><time>2026-04-11T10:12:43.605Z</time></trkpt><trkpt lat="43.6411753" lon="12.1928186"><ele>937.0</ele><time>2026-04-11T10:12:44.605Z</time></trkpt><trkpt lat="43.6412227" lon="12.1929173"><ele>937.0</ele><time>2026-04-11T10:12:45.604Z</time></trkpt><trkpt lat="43.6412344" lon="12.1930677"><ele>937.0</ele><time>2026-04-11T10:12:46.604Z</time></trkpt><trkpt lat="43.6411731" lon="12.193188"><ele>937.0</ele><time>2026-04-11T10:12:48.604Z</time></trkpt><trkpt lat="43.6411051" lon="12.1932728"><ele>937.0</ele><time>2026-04-11T10:12:49.604Z</time></trkpt><trkpt lat="43.6410237" lon="12.1933913"><ele>937.0</ele><time>2026-04-11T10:12:51.605Z</time></trkpt><trkpt lat="43.641" lon="12.1934948"><ele>933.1666666666666</ele><time>2026-04-11T10:12:52.605Z</time></trkpt><trkpt lat="43.640979" lon="12.1935958"><ele>929.3333333333333</ele><time>2026-04-11T10:12:53.604Z</time></trkpt><trkpt lat="43.6409767" lon="12.1937494"><ele>925.5</ele><time>2026-04-11T10:12:54.604Z</time></trkpt><trkpt lat="43.640981" lon="12.1938771"><ele>921.6666666666667</ele><time>2026-04-11T10:12:55.604Z</time></trkpt><trkpt lat="43.6409867" lon="12.194006"><ele>917.8333333333334</ele><time>2026-04-11T10:12:56.605Z</time></trkpt><trkpt lat="43.6410013" lon="12.1941073"><ele>914.0</ele><time>2026-04-11T10:12:57.605Z</time></trkpt><trkpt lat="43.6410098" lon="12.1942246"><ele>914.0</ele><time>2026-04-11T10:12:58.605Z</time></trkpt><trkpt lat="43.6410717" lon="12.1943314"><ele>914.0000000000001</ele><time>2026-04-11T10:13:00.604Z</time></trkpt><trkpt lat="43.6411425" lon="12.1943679"><ele>914.0000000000001</ele><time>2026-04-11T10:13:01.605Z</time></trkpt><trkpt lat="43.6412094" lon="12.1943005"><ele>914.0</ele><time>2026-04-11T10:13:04.605Z</time></trkpt><trkpt lat="43.6411963" lon="12.1941452"><ele>914.0</ele><time>2026-04-11T10:13:06.605Z</time></trkpt><trkpt lat="43.6412294" lon="12.1939844"><ele>919.2</ele><time>2026-04-11T10:13:08.605Z</time></trkpt><trkpt lat="43.6412748" lon="12.1938519"><ele>924.4000000000001</ele><time>2026-04-11T10:13:10.604Z</time></trkpt><trkpt lat="43.6413266" lon="12.1937145"><ele>929.6</ele><time>2026-04-11T10:13:12.604Z</time></trkpt><trkpt lat="43.6413654" lon="12.1936253"><ele>934.8</ele><time>2026-04-11T10:13:13.604Z</time></trkpt><trkpt lat="43.6414058" lon="12.1935366"><ele>940.0</ele><time>2026-04-11T10:13:14.605Z</time></trkpt><trkpt lat="43.6414806" lon="12.1934641"><ele>940.0</ele><time>2026-04-11T10:13:16.604Z</time></trkpt><trkpt lat="43.6415136" lon="12.1933811"><ele>940.0</ele><time>2026-04-11T10:13:17.605Z</time></trkpt><trkpt lat="43.641578" lon="12.1932692"><ele>940.0</ele><time>2026-04-11T10:13:18.605Z</time></trkpt><trkpt lat="43.6416506" lon="12.1931041"><ele>940.0</ele><time>2026-04-11T10:13:20.604Z</time></trkpt><trkpt lat="43.6416802" lon="12.1929868"><ele>940.0</ele><time>2026-04-11T10:13:21.604Z</time></trkpt><trkpt lat="43.641704" lon="12.1928213"><ele>939.4</ele><time>2026-04-11T10:13:23.605Z</time></trkpt><trkpt lat="43.6417141" lon="12.1926673"><ele>938.8</ele><time>2026-04-11T10:13:25.605Z</time></trkpt><trkpt lat="43.641732" lon="12.1925108"><ele>938.2</ele><time>2026-04-11T10:13:27.605Z</time></trkpt><trkpt lat="43.6417331" lon="12.1924133"><ele>937.6</ele><time>2026-04-11T10:13:28.605Z</time></trkpt><trkpt lat="43.6417818" lon="12.192274"><ele>937.0</ele><time>2026-04-11T10:13:30.605Z</time></trkpt><trkpt lat="43.641828" lon="12.1921235"><ele>938.2</ele><time>2026-04-11T10:13:32.605Z</time></trkpt><trkpt lat="43.6418475" lon="12.1920066"><ele>939.4000000000001</ele><time>2026-04-11T10:13:34.604Z</time></trkpt><trkpt lat="43.6418824" lon="12.1919075"><ele>940.5999999999999</ele><time>2026-04-11T10:13:36.604Z</time></trkpt><trkpt lat="43.6419564" lon="12.191784"><ele>941.8</ele><time>2026-04-11T10:13:38.605Z</time></trkpt><trkpt lat="43.6420357" lon="12.1916721"><ele>943.0</ele><time>2026-04-11T10:13:40.605Z</time></trkpt><trkpt lat="43.6420812" lon="12.1915478"><ele>947.2</ele><time>2026-04-11T10:13:41.605Z</time></trkpt><trkpt lat="43.6421712" lon="12.1915149"><ele>951.4</ele><time>2026-04-11T10:13:43.605Z</time></trkpt><trkpt lat="43.6422491" lon="12.1914663"><ele>955.6000000000001</ele><time>2026-04-11T10:13:45.604Z</time></trkpt><trkpt lat="43.6423324" lon="12.1913777"><ele>959.8000000000001</ele><time>2026-04-11T10:13:47.604Z</time></trkpt><trkpt lat="43.642422" lon="12.1913171"><ele>964.0</ele><time>2026-04-11T10:13:48.604Z</time></trkpt><trkpt lat="43.6425172" lon="12.1912932"><ele>964.0</ele><time>2026-04-11T10:13:50.605Z</time></trkpt><trkpt lat="43.6425778" lon="12.1912669"><ele>964.0000000000001</ele><time>2026-04-11T10:13:51.604Z</time></trkpt><trkpt lat="43.6426979" lon="12.1911586"><ele>964.0000000000001</ele><time>2026-04-11T10:13:53.605Z</time></trkpt><trkpt lat="43.6427666" lon="12.1911012"><ele>964.0</ele><time>2026-04-11T10:13:54.605Z</time></trkpt><trkpt lat="43.642868" lon="12.1910557"><ele>964.0</ele><time>2026-04-11T10:13:56.605Z</time></trkpt><trkpt lat="43.6429413" lon="12.1910434"><ele>967.1666666666666</ele><time>2026-04-11T10:13:58.605Z</time></trkpt><trkpt lat="43.6429897" lon="12.1910993"><ele>970.3333333333333</ele><time>2026-04-11T10:13:59.605Z</time></trkpt><trkpt lat="43.6430377" lon="12.1911607"><ele>973.5</ele><time>2026-04-11T10:14:01.603Z</time></trkpt><trkpt lat="43.6430522" lon="12.1912641"><ele>976.6666666666667</ele><time>2026-04-11T10:14:03.605Z</time></trkpt><trkpt lat="43.6430115" lon="12.1913647"><ele>979.8333333333334</ele><time>2026-04-11T10:14:04.605Z</time></trkpt><trkpt lat="43.6429919" lon="12.1915148"><ele>983.0</ele><time>2026-04-11T10:14:06.605Z</time></trkpt><trkpt lat="43.6429944" lon="12.1916405"><ele>984.2</ele><time>2026-04-11T10:14:07.605Z</time></trkpt><trkpt lat="43.6429941" lon="12.1918208"><ele>985.4</ele><time>2026-04-11T10:14:09.605Z</time></trkpt><trkpt lat="43.6429971" lon="12.192013"><ele>986.6000000000001</ele><time>2026-04-11T10:14:11.604Z</time></trkpt><trkpt lat="43.6429825" lon="12.1921195"><ele>987.8000000000001</ele><time>2026-04-11T10:14:12.605Z</time></trkpt><trkpt lat="43.6429763" lon="12.1922257"><ele>989.0</ele><time>2026-04-11T10:14:13.605Z</time></trkpt><trkpt lat="43.6429694" lon="12.192331"><ele>989.5000000000001</ele><time>2026-04-11T10:14:14.604Z</time></trkpt><trkpt lat="43.6429696" lon="12.1924267"><ele>990.0</ele><time>2026-04-11T10:14:15.605Z</time></trkpt><trkpt lat="43.6429695" lon="12.1925371"><ele>990.5</ele><time>2026-04-11T10:14:16.605Z</time></trkpt><trkpt lat="43.6429712" lon="12.1926328"><ele>991.0</ele><time>2026-04-11T10:14:17.605Z</time></trkpt><trkpt lat="43.6429713" lon="12.1928181"><ele>991.5000000000001</ele><time>2026-04-11T10:14:19.603Z</time></trkpt><trkpt lat="43.6429693" lon="12.1929101"><ele>992.0</ele><time>2026-04-11T10:14:20.604Z</time></trkpt><trkpt lat="43.6429732" lon="12.1930949"><ele>992.1666666666667</ele><time>2026-04-11T10:14:22.603Z</time></trkpt><trkpt lat="43.642973" lon="12.1932031"><ele>992.3333333333334</ele><time>2026-04-11T10:14:23.604Z</time></trkpt><trkpt lat="43.6429773" lon="12.1932988"><ele>992.5</ele><time>2026-04-11T10:14:24.604Z</time></trkpt><trkpt lat="43.6429716" lon="12.193404"><ele>992.6666666666667</ele><time>2026-04-11T10:14:25.605Z</time></trkpt><trkpt lat="43.6429665" lon="12.1935028"><ele>992.8333333333334</ele><time>2026-04-11T10:14:26.604Z</time></trkpt><trkpt lat="43.6429542" lon="12.1936841"><ele>993.0</ele><time>2026-04-11T10:14:28.604Z</time></trkpt><trkpt lat="43.6429558" lon="12.1937863"><ele>993.0</ele><time>2026-04-11T10:14:29.605Z</time></trkpt><trkpt lat="43.6429617" lon="12.1938755"><ele>993.0</ele><time>2026-04-11T10:14:30.605Z</time></trkpt><trkpt lat="43.6430106" lon="12.1939809"><ele>993.0</ele><time>2026-04-11T10:14:32.605Z</time></trkpt><trkpt lat="43.643101" lon="12.1940049"><ele>993.0</ele><time>2026-04-11T10:14:34.605Z</time></trkpt><trkpt lat="43.6432026" lon="12.193961"><ele>993.0</ele><time>2026-04-11T10:14:36.605Z</time></trkpt><trkpt lat="43.6433043" lon="12.1938819"><ele>993.0</ele><time>2026-04-11T10:14:38.603Z</time></trkpt><trkpt lat="43.6433503" lon="12.1938206"><ele>993.0</ele><time>2026-04-11T10:14:39.605Z</time></trkpt><trkpt lat="43.6434055" lon="12.1936892"><ele>993.0</ele><time>2026-04-11T10:14:41.604Z</time></trkpt><trkpt lat="43.6434426" lon="12.1935416"><ele>993.0</ele><time>2026-04-11T10:14:43.605Z</time></trkpt><trkpt lat="43.6434704" lon="12.1933926"><ele>993.0</ele><time>2026-04-11T10:14:45.605Z</time></trkpt><trkpt lat="43.6434952" lon="12.1932173"><ele>992.8571428571429</ele><time>2026-04-11T10:14:47.604Z</time></trkpt><trkpt lat="43.643506" lon="12.1931304"><ele>992.7142857142858</ele><time>2026-04-11T10:14:48.605Z</time></trkpt><trkpt lat="43.6435086" lon="12.1930315"><ele>992.5714285714287</ele><time>2026-04-11T10:14:49.605Z</time></trkpt><trkpt lat="43.6435124" lon="12.1929331"><ele>992.4285714285714</ele><time>2026-04-11T10:14:50.604Z</time></trkpt><trkpt lat="43.6435157" lon="12.1928375"><ele>992.2857142857144</ele><time>2026-04-11T10:14:51.605Z</time></trkpt><trkpt lat="43.6435265" lon="12.1927377"><ele>992.1428571428572</ele><time>2026-04-11T10:14:52.605Z</time></trkpt><trkpt lat="43.6435384" lon="12.192627"><ele>992.0</ele><time>2026-04-11T10:14:53.605Z</time></trkpt><trkpt lat="43.6435607" lon="12.1925332"><ele>996.4000000000001</ele><time>2026-04-11T10:14:54.605Z</time></trkpt><trkpt lat="43.6436338" lon="12.1924157"><ele>1000.8000000000001</ele><time>2026-04-11T10:14:56.605Z</time></trkpt><trkpt lat="43.6437365" lon="12.1923923"><ele>1005.2</ele><time>2026-04-11T10:14:58.605Z</time></trkpt><trkpt lat="43.6438096" lon="12.1924662"><ele>1009.6</ele><time>2026-04-11T10:15:00.605Z</time></trkpt><trkpt lat="43.6438521" lon="12.1925689"><ele>1014.0</ele><time>2026-04-11T10:15:02.605Z</time></trkpt><trkpt lat="43.6438889" lon="12.1926874"><ele>1014.0</ele><time>2026-04-11T10:15:04.605Z</time></trkpt><trkpt lat="43.6439341" lon="12.1928207"><ele>1014.0000000000001</ele><time>2026-04-11T10:15:06.604Z</time></trkpt><trkpt lat="43.6439843" lon="12.1929616"><ele>1014.0000000000001</ele><time>2026-04-11T10:15:08.603Z</time></trkpt><trkpt lat="43.6440366" lon="12.1931205"><ele>1014.0</ele><time>2026-04-11T10:15:10.605Z</time></trkpt><trkpt lat="43.6440655" lon="12.1932015"><ele>1014.0</ele><time>2026-04-11T10:15:11.605Z</time></trkpt><trkpt lat="43.6441149" lon="12.1933438"><ele>1013.4000000000001</ele><time>2026-04-11T10:15:13.605Z</time></trkpt><trkpt lat="43.6441733" lon="12.1935014"><ele>1012.8000000000001</ele><time>2026-04-11T10:15:15.605Z</time></trkpt><trkpt lat="43.6442064" lon="12.1935822"><ele>1012.1999999999999</ele><time>2026-04-11T10:15:16.605Z</time></trkpt><trkpt lat="43.644268" lon="12.1937278"><ele>1011.5999999999999</ele><time>2026-04-11T10:15:18.605Z</time></trkpt><trkpt lat="43.644304" lon="12.1938398"><ele>1011.0</ele><time>2026-04-11T10:15:20.605Z</time></trkpt><trkpt lat="43.6442609" lon="12.1939064"><ele>1011.0</ele><time>2026-04-11T10:15:22.605Z</time></trkpt><trkpt lat="43.6442167" lon="12.1939833"><ele>1010.9999999999999</ele><time>2026-04-11T10:15:24.603Z</time></trkpt><trkpt lat="43.644176" lon="12.194078"><ele>1010.9999999999999</ele><time>2026-04-11T10:15:26.605Z</time></trkpt><trkpt lat="43.6441187" lon="12.1941912"><ele>1011.0</ele><time>2026-04-11T10:15:28.605Z</time></trkpt><trkpt lat="43.6440592" lon="12.1942737"><ele>1011.0</ele><time>2026-04-11T10:15:30.605Z</time></trkpt><trkpt lat="43.6439642" lon="12.1943755"><ele>1011.8</ele><time>2026-04-11T10:15:32.605Z</time></trkpt><trkpt lat="43.6438787" lon="12.1944876"><ele>1012.5999999999999</ele><time>2026-04-11T10:15:34.605Z</time></trkpt><trkpt lat="43.6437961" lon="12.1945877"><ele>1013.4</ele><time>2026-04-11T10:15:36.605Z</time></trkpt><trkpt lat="43.6438279" lon="12.1947019"><ele>1014.2</ele><time>2026-04-11T10:15:39.605Z</time></trkpt><trkpt lat="43.6439294" lon="12.1947721"><ele>1015.0</ele><time>2026-04-11T10:15:41.604Z</time></trkpt><trkpt lat="43.6440532" lon="12.1947843"><ele>1014.9999999999999</ele><time>2026-04-11T10:15:43.603Z</time></trkpt><trkpt lat="43.6441338" lon="12.1948089"><ele>1015.0</ele><time>2026-04-11T10:15:44.605Z</time></trkpt><trkpt lat="43.6441922" lon="12.1948818"><ele>1015.0</ele><time>2026-04-11T10:15:46.605Z</time></trkpt><trkpt lat="43.6442491" lon="12.1949346"><ele>1015.0</ele><time>2026-04-11T10:15:48.605Z</time></trkpt><trkpt lat="43.6443264" lon="12.1950698"><ele>1014.9999999999999</ele><time>2026-04-11T10:15:50.605Z</time></trkpt><trkpt lat="43.6443792" lon="12.1951199"><ele>1015.0</ele><time>2026-04-11T10:15:53.604Z</time></trkpt><trkpt lat="43.6444278" lon="12.1950553"><ele>1016.0</ele><time>2026-04-11T10:15:56.605Z</time></trkpt><trkpt lat="43.6445674" lon="12.1950903"><ele>1017.0</ele><time>2026-04-11T10:16:01.605Z</time></trkpt><trkpt lat="43.6446361" lon="12.1951692"><ele>1018.0</ele><time>2026-04-11T10:16:03.605Z</time></trkpt><trkpt lat="43.6446851" lon="12.1952771"><ele>1019.0</ele><time>2026-04-11T10:16:05.605Z</time></trkpt><trkpt lat="43.6447102" lon="12.1953925"><ele>1020.0</ele><time>2026-04-11T10:16:08.605Z</time></trkpt><trkpt lat="43.6447614" lon="12.1955672"><ele>1018.3333333333334</ele><time>2026-04-11T10:16:10.605Z</time></trkpt><trkpt lat="43.6448169" lon="12.1956717"><ele>1016.6666666666667</ele><time>2026-04-11T10:16:11.605Z</time></trkpt><trkpt lat="43.6448436" lon="12.195779"><ele>1015.0</ele><time>2026-04-11T10:16:12.604Z</time></trkpt><trkpt lat="43.6448691" lon="12.1959356"><ele>1013.3333333333334</ele><time>2026-04-11T10:16:14.605Z</time></trkpt><trkpt lat="43.6448883" lon="12.1960206"><ele>1011.6666666666667</ele><time>2026-04-11T10:16:15.605Z</time></trkpt><trkpt lat="43.6449095" lon="12.1961235"><ele>1010.0</ele><time>2026-04-11T10:16:16.604Z</time></trkpt><trkpt lat="43.6449246" lon="12.1962278"><ele>1010.0</ele><time>2026-04-11T10:16:17.605Z</time></trkpt><trkpt lat="43.6449654" lon="12.1963686"><ele>1010.0</ele><time>2026-04-11T10:16:19.605Z</time></trkpt><trkpt lat="43.6450531" lon="12.1964657"><ele>1010.0</ele><time>2026-04-11T10:16:21.605Z</time></trkpt><trkpt lat="43.6451544" lon="12.1966061"><ele>1010.0</ele><time>2026-04-11T10:16:22.605Z</time></trkpt><trkpt lat="43.6452169" lon="12.1967099"><ele>1008.8333333333334</ele><time>2026-04-11T10:16:24.605Z</time></trkpt><trkpt lat="43.6452729" lon="12.1968256"><ele>1007.6666666666667</ele><time>2026-04-11T10:16:26.605Z</time></trkpt><trkpt lat="43.6452935" lon="12.1969136"><ele>1006.5</ele><time>2026-04-11T10:16:27.604Z</time></trkpt><trkpt lat="43.6453151" lon="12.1970092"><ele>1005.3333333333333</ele><time>2026-04-11T10:16:28.604Z</time></trkpt><trkpt lat="43.6453568" lon="12.1971323"><ele>1004.1666666666666</ele><time>2026-04-11T10:16:30.605Z</time></trkpt><trkpt lat="43.6453947" lon="12.1972054"><ele>1003.0</ele><time>2026-04-11T10:16:32.604Z</time></trkpt><trkpt lat="43.6454594" lon="12.1971745"><ele>1002.9999999999999</ele><time>2026-04-11T10:16:58.603Z</time></trkpt><trkpt lat="43.6455234" lon="12.1971009"><ele>1003.0</ele><time>2026-04-11T10:17:00.605Z</time></trkpt><trkpt lat="43.6455676" lon="12.1970264"><ele>1003.0</ele><time>2026-04-11T10:17:01.604Z</time></trkpt><trkpt lat="43.6456001" lon="12.1969428"><ele>1003.0</ele><time>2026-04-11T10:17:02.605Z</time></trkpt><trkpt lat="43.6456431" lon="12.1968413"><ele>1002.9999999999999</ele><time>2026-04-11T10:17:03.605Z</time></trkpt><trkpt lat="43.6456966" lon="12.1967476"><ele>1003.0</ele><time>2026-04-11T10:17:04.605Z</time></trkpt><trkpt lat="43.6457677" lon="12.1966702"><ele>1002.9999999999999</ele><time>2026-04-11T10:17:06.605Z</time></trkpt><trkpt lat="43.6458505" lon="12.1966119"><ele>1003.0</ele><time>2026-04-11T10:17:08.604Z</time></trkpt><trkpt lat="43.6458954" lon="12.1965463"><ele>1003.0</ele><time>2026-04-11T10:17:09.605Z</time></trkpt><trkpt lat="43.6459808" lon="12.1964503"><ele>1003.0</ele><time>2026-04-11T10:17:11.605Z</time></trkpt><trkpt lat="43.6460462" lon="12.1964242"><ele>1002.9999999999999</ele><time>2026-04-11T10:17:14.605Z</time></trkpt><trkpt lat="43.6460872" lon="12.1963534"><ele>1003.0</ele><time>2026-04-11T10:17:18.605Z</time></trkpt><trkpt lat="43.6461786" lon="12.1963006"><ele>1008.4</ele><time>2026-04-11T10:17:21.605Z</time></trkpt><trkpt lat="43.6462498" lon="12.1962469"><ele>1013.8</ele><time>2026-04-11T10:17:23.605Z</time></trkpt><trkpt lat="43.6463231" lon="12.1961863"><ele>1019.2</ele><time>2026-04-11T10:17:26.605Z</time></trkpt><trkpt lat="43.6464737" lon="12.1962014"><ele>1024.6</ele><time>2026-04-11T10:17:28.605Z</time></trkpt><trkpt lat="43.6465573" lon="12.19621"><ele>1030.0</ele><time>2026-04-11T10:17:29.605Z</time></trkpt><trkpt lat="43.6466272" lon="12.1962745"><ele>1030.0</ele><time>2026-04-11T10:17:30.605Z</time></trkpt><trkpt lat="43.6468272" lon="12.1963024"><ele>1030.0</ele><time>2026-04-11T10:17:32.604Z</time></trkpt><trkpt lat="43.6468928" lon="12.1963472"><ele>1030.0</ele><time>2026-04-11T10:17:33.605Z</time></trkpt><trkpt lat="43.6469743" lon="12.1963826"><ele>1030.0</ele><time>2026-04-11T10:17:34.605Z</time></trkpt><trkpt lat="43.647102" lon="12.1964141"><ele>1028.8333333333333</ele><time>2026-04-11T10:17:35.605Z</time></trkpt><trkpt lat="43.6471821" lon="12.196427"><ele>1027.6666666666665</ele><time>2026-04-11T10:17:36.604Z</time></trkpt><trkpt lat="43.6472506" lon="12.1964862"><ele>1026.5</ele><time>2026-04-11T10:17:37.603Z</time></trkpt><trkpt lat="43.6473011" lon="12.1965656"><ele>1025.3333333333333</ele><time>2026-04-11T10:17:38.605Z</time></trkpt><trkpt lat="43.6473598" lon="12.1966203"><ele>1024.1666666666667</ele><time>2026-04-11T10:17:39.605Z</time></trkpt><trkpt lat="43.6474406" lon="12.1967211"><ele>1023.0</ele><time>2026-04-11T10:17:41.605Z</time></trkpt><trkpt lat="43.6475448" lon="12.1968429"><ele>1023.0</ele><time>2026-04-11T10:17:42.605Z</time></trkpt><trkpt lat="43.6476135" lon="12.1968682"><ele>1023.0</ele><time>2026-04-11T10:17:43.605Z</time></trkpt><trkpt lat="43.6477177" lon="12.1967764"><ele>1023.0</ele><time>2026-04-11T10:17:45.605Z</time></trkpt><trkpt lat="43.6478125" lon="12.1967671"><ele>1023.0</ele><time>2026-04-11T10:17:47.605Z</time></trkpt><trkpt lat="43.647935" lon="12.1967583"><ele>1023.0</ele><time>2026-04-11T10:17:49.604Z</time></trkpt><trkpt lat="43.6480537" lon="12.1966613"><ele>1023.2</ele><time>2026-04-11T10:17:51.605Z</time></trkpt><trkpt lat="43.6481525" lon="12.1965852"><ele>1023.4</ele><time>2026-04-11T10:17:53.604Z</time></trkpt><trkpt lat="43.6482584" lon="12.1965803"><ele>1023.6000000000001</ele><time>2026-04-11T10:17:55.604Z</time></trkpt><trkpt lat="43.648348" lon="12.196556"><ele>1023.8000000000001</ele><time>2026-04-11T10:17:56.605Z</time></trkpt><trkpt lat="43.648411" lon="12.1965573"><ele>1024.0</ele><time>2026-04-11T10:17:57.605Z</time></trkpt><trkpt lat="43.6485197" lon="12.1965796"><ele>1024.0</ele><time>2026-04-11T10:17:59.605Z</time></trkpt><trkpt lat="43.648581" lon="12.1966013"><ele>1024.0</ele><time>2026-04-11T10:18:00.605Z</time></trkpt><trkpt lat="43.6486742" lon="12.1965974"><ele>1024.0</ele><time>2026-04-11T10:18:02.605Z</time></trkpt><trkpt lat="43.6487389" lon="12.1966469"><ele>1024.0</ele><time>2026-04-11T10:18:04.605Z</time></trkpt><trkpt lat="43.6488327" lon="12.196723"><ele>1024.0</ele><time>2026-04-11T10:18:06.605Z</time></trkpt><trkpt lat="43.6489423" lon="12.1967915"><ele>1026.8333333333333</ele><time>2026-04-11T10:18:08.605Z</time></trkpt><trkpt lat="43.64899" lon="12.1968505"><ele>1029.6666666666665</ele><time>2026-04-11T10:18:09.605Z</time></trkpt><trkpt lat="43.6490398" lon="12.1969267"><ele>1032.5</ele><time>2026-04-11T10:18:10.605Z</time></trkpt><trkpt lat="43.6490864" lon="12.1969979"><ele>1035.3333333333333</ele><time>2026-04-11T10:18:11.605Z</time></trkpt><trkpt lat="43.6491819" lon="12.1970702"><ele>1038.1666666666667</ele><time>2026-04-11T10:18:13.605Z</time></trkpt><trkpt lat="43.64928" lon="12.1970581"><ele>1041.0</ele><time>2026-04-11T10:18:15.604Z</time></trkpt><trkpt lat="43.6493491" lon="12.197053"><ele>1041.0</ele><time>2026-04-11T10:18:16.605Z</time></trkpt><trkpt lat="43.6494085" lon="12.1970194"><ele>1041.0</ele><time>2026-04-11T10:18:17.605Z</time></trkpt><trkpt lat="43.6494966" lon="12.197006"><ele>1041.0</ele><time>2026-04-11T10:18:19.604Z</time></trkpt><trkpt lat="43.6495679" lon="12.197028"><ele>1041.0</ele><time>2026-04-11T10:18:21.605Z</time></trkpt><trkpt lat="43.6497198" lon="12.1971086"><ele>1041.0</ele><time>2026-04-11T10:18:23.604Z</time></trkpt><trkpt lat="43.6498199" lon="12.1972328"><ele>1043.2</ele><time>2026-04-11T10:18:25.605Z</time></trkpt><trkpt lat="43.6498922" lon="12.1973349"><ele>1045.3999999999999</ele><time>2026-04-11T10:18:26.605Z</time></trkpt><trkpt lat="43.649945" lon="12.1974053"><ele>1047.6</ele><time>2026-04-11T10:18:27.605Z</time></trkpt><trkpt lat="43.6500037" lon="12.1974978"><ele>1049.8</ele><time>2026-04-11T10:18:29.605Z</time></trkpt><trkpt lat="43.6501474" lon="12.1976131"><ele>1052.0</ele><time>2026-04-11T10:18:31.604Z</time></trkpt><trkpt lat="43.6502179" lon="12.1976547"><ele>1045.0</ele><time>2026-04-11T10:18:32.605Z</time></trkpt><trkpt lat="43.6503265" lon="12.1976836"><ele>1038.0</ele><time>2026-04-11T10:18:34.604Z</time></trkpt><trkpt lat="43.6504255" lon="12.1977693"><ele>1031.0</ele><time>2026-04-11T10:18:36.604Z</time></trkpt><trkpt lat="43.6504879" lon="12.1978319"><ele>1024.0</ele><time>2026-04-11T10:18:37.605Z</time></trkpt><trkpt lat="43.6505408" lon="12.1978877"><ele>1017.0</ele><time>2026-04-11T10:18:38.605Z</time></trkpt><trkpt lat="43.6506275" lon="12.1979668"><ele>1017.0</ele><time>2026-04-11T10:18:40.605Z</time></trkpt><trkpt lat="43.6506909" lon="12.1980031"><ele>1017.0</ele><time>2026-04-11T10:18:42.605Z</time></trkpt><trkpt lat="43.6507191" lon="12.1981108"><ele>1017.0</ele><time>2026-04-11T10:18:46.604Z</time></trkpt><trkpt lat="43.650788" lon="12.1982364"><ele>1017.0</ele><time>2026-04-11T10:18:48.605Z</time></trkpt><trkpt lat="43.6508432" lon="12.1983657"><ele>1017.0</ele><time>2026-04-11T10:18:50.604Z</time></trkpt><trkpt lat="43.6508723" lon="12.1984889"><ele>1015.4000000000001</ele><time>2026-04-11T10:18:51.605Z</time></trkpt><trkpt lat="43.6509239" lon="12.198628"><ele>1013.8000000000001</ele><time>2026-04-11T10:18:52.605Z</time></trkpt><trkpt lat="43.6509654" lon="12.1987586"><ele>1012.2</ele><time>2026-04-11T10:18:53.605Z</time></trkpt><trkpt lat="43.6510089" lon="12.1988882"><ele>1010.6</ele><time>2026-04-11T10:18:54.604Z</time></trkpt><trkpt lat="43.6510544" lon="12.1989785"><ele>1009.0</ele><time>2026-04-11T10:18:55.605Z</time></trkpt><trkpt lat="43.6510891" lon="12.1990657"><ele>1007.8000000000001</ele><time>2026-04-11T10:18:56.604Z</time></trkpt><trkpt lat="43.6511126" lon="12.1991567"><ele>1006.6000000000001</ele><time>2026-04-11T10:18:57.604Z</time></trkpt><trkpt lat="43.6511359" lon="12.1992421"><ele>1005.4</ele><time>2026-04-11T10:18:58.605Z</time></trkpt><trkpt lat="43.6511815" lon="12.1993926"><ele>1004.2</ele><time>2026-04-11T10:19:00.605Z</time></trkpt><trkpt lat="43.6512177" lon="12.1995526"><ele>1003.0</ele><time>2026-04-11T10:19:02.605Z</time></trkpt><trkpt lat="43.6512485" lon="12.1996895"><ele>1003.0</ele><time>2026-04-11T10:19:04.605Z</time></trkpt><trkpt lat="43.6512799" lon="12.1997908"><ele>1002.9999999999999</ele><time>2026-04-11T10:19:06.605Z</time></trkpt><trkpt lat="43.6513364" lon="12.1998545"><ele>1003.0</ele><time>2026-04-11T10:25:06.604Z</time></trkpt><trkpt lat="43.6513943" lon="12.1998916"><ele>1003.0</ele><time>2026-04-11T10:25:07.605Z</time></trkpt><trkpt lat="43.6514554" lon="12.1999154"><ele>1002.9999999999999</ele><time>2026-04-11T10:25:08.605Z</time></trkpt><trkpt lat="43.651522" lon="12.1999349"><ele>1003.0</ele><time>2026-04-11T10:25:09.604Z</time></trkpt><trkpt lat="43.6515949" lon="12.1999472"><ele>1003.0</ele><time>2026-04-11T10:25:10.605Z</time></trkpt><trkpt lat="43.6516655" lon="12.199993"><ele>1003.4999999999999</ele><time>2026-04-11T10:25:11.605Z</time></trkpt><trkpt lat="43.6517293" lon="12.2000548"><ele>1004.0</ele><time>2026-04-11T10:25:12.604Z</time></trkpt><trkpt lat="43.6517902" lon="12.2001314"><ele>1004.5</ele><time>2026-04-11T10:25:13.604Z</time></trkpt><trkpt lat="43.65185" lon="12.2002114"><ele>1005.0</ele><time>2026-04-11T10:25:14.603Z</time></trkpt><trkpt lat="43.6519209" lon="12.2002895"><ele>1005.4999999999999</ele><time>2026-04-11T10:25:15.604Z</time></trkpt><trkpt lat="43.6519901" lon="12.2003597"><ele>1006.0</ele><time>2026-04-11T10:25:16.605Z</time></trkpt><trkpt lat="43.6520645" lon="12.2004181"><ele>1006.0</ele><time>2026-04-11T10:25:17.605Z</time></trkpt><trkpt lat="43.6521364" lon="12.2004665"><ele>1005.9999999999999</ele><time>2026-04-11T10:25:18.605Z</time></trkpt><trkpt lat="43.6522149" lon="12.2005005"><ele>1005.9999999999999</ele><time>2026-04-11T10:25:19.605Z</time></trkpt><trkpt lat="43.6522813" lon="12.2005304"><ele>1006.0</ele><time>2026-04-11T10:25:20.604Z</time></trkpt><trkpt lat="43.6523892" lon="12.2006393"><ele>1006.0</ele><time>2026-04-11T10:25:22.604Z</time></trkpt><trkpt lat="43.6524771" lon="12.2007314"><ele>1006.0</ele><time>2026-04-11T10:25:24.605Z</time></trkpt><trkpt lat="43.6525482" lon="12.2007792"><ele>1005.9999999999999</ele><time>2026-04-11T10:25:26.605Z</time></trkpt><trkpt lat="43.6526225" lon="12.2007541"><ele>1005.9999999999999</ele><time>2026-04-11T10:25:29.605Z</time></trkpt><trkpt lat="43.6527012" lon="12.2007147"><ele>1006.0</ele><time>2026-04-11T10:25:32.605Z</time></trkpt><trkpt lat="43.6527631" lon="12.2006485"><ele>1006.0</ele><time>2026-04-11T10:25:34.605Z</time></trkpt><trkpt lat="43.6528994" lon="12.2006645"><ele>1004.6666666666666</ele><time>2026-04-11T10:25:37.605Z</time></trkpt><trkpt lat="43.6530019" lon="12.200737"><ele>1003.3333333333333</ele><time>2026-04-11T10:25:39.605Z</time></trkpt><trkpt lat="43.6530611" lon="12.2007769"><ele>1002.0</ele><time>2026-04-11T10:25:40.605Z</time></trkpt><trkpt lat="43.6531163" lon="12.200825"><ele>1000.6666666666667</ele><time>2026-04-11T10:25:41.605Z</time></trkpt><trkpt lat="43.6531835" lon="12.2008769"><ele>999.3333333333334</ele><time>2026-04-11T10:25:43.605Z</time></trkpt><trkpt lat="43.6532469" lon="12.2009279"><ele>998.0</ele><time>2026-04-11T10:25:52.605Z</time></trkpt><trkpt lat="43.6533357" lon="12.2010104"><ele>998.0000000000001</ele><time>2026-04-11T10:25:54.605Z</time></trkpt><trkpt lat="43.6534392" lon="12.2010949"><ele>998.0</ele><time>2026-04-11T10:25:56.605Z</time></trkpt><trkpt lat="43.6534926" lon="12.2011535"><ele>998.0</ele><time>2026-04-11T10:25:57.605Z</time></trkpt><trkpt lat="43.6535514" lon="12.2012122"><ele>998.0</ele><time>2026-04-11T10:25:58.605Z</time></trkpt><trkpt lat="43.6536207" lon="12.2012691"><ele>998.0000000000001</ele><time>2026-04-11T10:25:59.605Z</time></trkpt><trkpt lat="43.6536877" lon="12.2013222"><ele>998.0</ele><time>2026-04-11T10:26:00.604Z</time></trkpt><trkpt lat="43.6537419" lon="12.2013757"><ele>995.1666666666667</ele><time>2026-04-11T10:26:01.604Z</time></trkpt><trkpt lat="43.6538374" lon="12.2014082"><ele>992.3333333333334</ele><time>2026-04-11T10:26:03.605Z</time></trkpt><trkpt lat="43.6539029" lon="12.2014144"><ele>989.5</ele><time>2026-04-11T10:26:04.605Z</time></trkpt><trkpt lat="43.6540177" lon="12.2014464"><ele>986.6666666666667</ele><time>2026-04-11T10:26:06.605Z</time></trkpt><trkpt lat="43.6540507" lon="12.2013703"><ele>983.8333333333334</ele><time>2026-04-11T10:26:07.604Z</time></trkpt><trkpt lat="43.6541089" lon="12.2013342"><ele>981.0</ele><time>2026-04-11T10:26:08.605Z</time></trkpt><trkpt lat="43.6542126" lon="12.2013473"><ele>981.0</ele><time>2026-04-11T10:26:10.605Z</time></trkpt><trkpt lat="43.6542801" lon="12.2013594"><ele>981.0</ele><time>2026-04-11T10:26:11.604Z</time></trkpt><trkpt lat="43.6543493" lon="12.2013492"><ele>981.0</ele><time>2026-04-11T10:26:12.605Z</time></trkpt><trkpt lat="43.654415" lon="12.2013546"><ele>981.0</ele><time>2026-04-11T10:26:13.605Z</time></trkpt><trkpt lat="43.6545275" lon="12.2013787"><ele>981.0</ele><time>2026-04-11T10:26:15.604Z</time></trkpt><trkpt lat="43.6546243" lon="12.2013579"><ele>981.0</ele><time>2026-04-11T10:26:17.605Z</time></trkpt><trkpt lat="43.6547476" lon="12.2013254"><ele>981.6666666666666</ele><time>2026-04-11T10:26:19.605Z</time></trkpt><trkpt lat="43.6548354" lon="12.2014104"><ele>982.3333333333333</ele><time>2026-04-11T10:26:21.604Z</time></trkpt><trkpt lat="43.6548905" lon="12.201485"><ele>983.0</ele><time>2026-04-11T10:26:24.605Z</time></trkpt><trkpt lat="43.6549404" lon="12.2015698"><ele>983.6666666666666</ele><time>2026-04-11T10:26:27.604Z</time></trkpt><trkpt lat="43.6550107" lon="12.2016126"><ele>984.3333333333333</ele><time>2026-04-11T10:26:30.605Z</time></trkpt><trkpt lat="43.6550756" lon="12.201637"><ele>985.0</ele><time>2026-04-11T10:26:32.605Z</time></trkpt><trkpt lat="43.6551393" lon="12.2016663"><ele>984.9999999999999</ele><time>2026-04-11T10:26:34.605Z</time></trkpt><trkpt lat="43.6552209" lon="12.2016857"><ele>985.0</ele><time>2026-04-11T10:26:37.605Z</time></trkpt><trkpt lat="43.6553088" lon="12.2017549"><ele>985.0</ele><time>2026-04-11T10:26:40.604Z</time></trkpt><trkpt lat="43.6553931" lon="12.2017415"><ele>985.0</ele><time>2026-04-11T10:26:42.605Z</time></trkpt><trkpt lat="43.6554776" lon="12.2017449"><ele>984.9999999999999</ele><time>2026-04-11T10:26:45.604Z</time></trkpt><trkpt lat="43.6555523" lon="12.2018027"><ele>985.0</ele><time>2026-04-11T10:26:48.605Z</time></trkpt><trkpt lat="43.6556064" lon="12.2018856"><ele>980.8333333333333</ele><time>2026-04-11T10:26:52.605Z</time></trkpt><trkpt lat="43.6556581" lon="12.2019575"><ele>976.6666666666666</ele><time>2026-04-11T10:26:55.605Z</time></trkpt><trkpt lat="43.6557341" lon="12.2019968"><ele>972.5</ele><time>2026-04-11T10:26:59.605Z</time></trkpt><trkpt lat="43.6558053" lon="12.2019989"><ele>968.3333333333333</ele><time>2026-04-11T10:27:02.604Z</time></trkpt><trkpt lat="43.6558748" lon="12.201959"><ele>964.1666666666666</ele><time>2026-04-11T10:27:07.604Z</time></trkpt><trkpt lat="43.6559579" lon="12.2019335"><ele>960.0</ele><time>2026-04-11T10:27:10.605Z</time></trkpt><trkpt lat="43.6560212" lon="12.2019041"><ele>960.0</ele><time>2026-04-11T10:27:13.604Z</time></trkpt><trkpt lat="43.6560883" lon="12.2018596"><ele>960.0</ele><time>2026-04-11T10:27:18.605Z</time></trkpt><trkpt lat="43.6561458" lon="12.2017943"><ele>960.0</ele><time>2026-04-11T10:27:22.604Z</time></trkpt><trkpt lat="43.6561964" lon="12.2017358"><ele>960.0</ele><time>2026-04-11T10:27:24.603Z</time></trkpt><trkpt lat="43.656263" lon="12.2016704"><ele>960.0</ele><time>2026-04-11T10:27:26.605Z</time></trkpt><trkpt lat="43.6563428" lon="12.2016363"><ele>960.0</ele><time>2026-04-11T10:27:29.605Z</time></trkpt><trkpt lat="43.6564088" lon="12.2016048"><ele>956.0</ele><time>2026-04-11T10:27:33.605Z</time></trkpt><trkpt lat="43.6564652" lon="12.2015648"><ele>952.0</ele><time>2026-04-11T10:27:35.605Z</time></trkpt><trkpt lat="43.6565254" lon="12.2015147"><ele>948.0</ele><time>2026-04-11T10:27:37.604Z</time></trkpt><trkpt lat="43.6565687" lon="12.2014306"><ele>944.0</ele><time>2026-04-11T10:27:39.605Z</time></trkpt><trkpt lat="43.6566134" lon="12.201339"><ele>940.0</ele><time>2026-04-11T10:27:41.605Z</time></trkpt><trkpt lat="43.6566622" lon="12.201274"><ele>936.0</ele><time>2026-04-11T10:27:43.605Z</time></trkpt><trkpt lat="43.6567672" lon="12.2012022"><ele>934.6666666666666</ele><time>2026-04-11T10:27:45.605Z</time></trkpt><trkpt lat="43.6568228" lon="12.2011339"><ele>933.3333333333333</ele><time>2026-04-11T10:27:47.604Z</time></trkpt><trkpt lat="43.6568735" lon="12.2010376"><ele>932.0</ele><time>2026-04-11T10:27:49.604Z</time></trkpt><trkpt lat="43.6568911" lon="12.2009434"><ele>930.6666666666666</ele><time>2026-04-11T10:27:52.605Z</time></trkpt><trkpt lat="43.6568922" lon="12.2008241"><ele>929.3333333333333</ele><time>2026-04-11T10:27:55.604Z</time></trkpt><trkpt lat="43.6568999" lon="12.2007291"><ele>928.0</ele><time>2026-04-11T10:27:57.605Z</time></trkpt><trkpt lat="43.6568811" lon="12.2006455"><ele>926.4285714285716</ele><time>2026-04-11T10:27:59.604Z</time></trkpt><trkpt lat="43.6568365" lon="12.200559"><ele>924.8571428571429</ele><time>2026-04-11T10:28:01.604Z</time></trkpt><trkpt lat="43.6568169" lon="12.2004429"><ele>923.2857142857143</ele><time>2026-04-11T10:28:05.604Z</time></trkpt><trkpt lat="43.6567877" lon="12.2003383"><ele>921.7142857142858</ele><time>2026-04-11T10:28:07.605Z</time></trkpt><trkpt lat="43.6567482" lon="12.2002616"><ele>920.1428571428571</ele><time>2026-04-11T10:28:09.605Z</time></trkpt><trkpt lat="43.6567385" lon="12.2001754"><ele>918.5714285714286</ele><time>2026-04-11T10:28:11.605Z</time></trkpt><trkpt lat="43.6567942" lon="12.2001242"><ele>917.0</ele><time>2026-04-11T10:28:14.604Z</time></trkpt><trkpt lat="43.6568774" lon="12.2001378"><ele>913.0</ele><time>2026-04-11T10:28:17.604Z</time></trkpt><trkpt lat="43.6569597" lon="12.2001765"><ele>909.0</ele><time>2026-04-11T10:28:19.605Z</time></trkpt><trkpt lat="43.6570684" lon="12.2002949"><ele>905.0</ele><time>2026-04-11T10:28:21.605Z</time></trkpt><trkpt lat="43.657136" lon="12.2003887"><ele>901.0</ele><time>2026-04-11T10:28:23.605Z</time></trkpt><trkpt lat="43.6571922" lon="12.200486"><ele>897.0</ele><time>2026-04-11T10:28:25.605Z</time></trkpt><trkpt lat="43.6572404" lon="12.2005826"><ele>897.0</ele><time>2026-04-11T10:28:27.604Z</time></trkpt><trkpt lat="43.6573183" lon="12.2006237"><ele>897.0</ele><time>2026-04-11T10:28:28.605Z</time></trkpt><trkpt lat="43.6574015" lon="12.2006222"><ele>897.0</ele><time>2026-04-11T10:28:30.605Z</time></trkpt><trkpt lat="43.657466" lon="12.2005618"><ele>897.0</ele><time>2026-04-11T10:28:32.605Z</time></trkpt><trkpt lat="43.6575594" lon="12.2005357"><ele>897.0</ele><time>2026-04-11T10:28:34.604Z</time></trkpt><trkpt lat="43.6576365" lon="12.2004773"><ele>897.0</ele><time>2026-04-11T10:28:36.605Z</time></trkpt><trkpt lat="43.6577072" lon="12.2003694"><ele>897.0</ele><time>2026-04-11T10:28:38.605Z</time></trkpt><trkpt lat="43.6577486" lon="12.2002496"><ele>897.0</ele><time>2026-04-11T10:28:40.605Z</time></trkpt><trkpt lat="43.657701" lon="12.200115"><ele>897.0</ele><time>2026-04-11T10:28:42.605Z</time></trkpt><trkpt lat="43.6576033" lon="12.2000111"><ele>897.0</ele><time>2026-04-11T10:28:44.604Z</time></trkpt><trkpt lat="43.6575212" lon="12.1999103"><ele>897.0</ele><time>2026-04-11T10:28:46.605Z</time></trkpt><trkpt lat="43.6574582" lon="12.1998416"><ele>894.5</ele><time>2026-04-11T10:28:47.605Z</time></trkpt><trkpt lat="43.6574026" lon="12.1997834"><ele>892.0</ele><time>2026-04-11T10:28:48.605Z</time></trkpt><trkpt lat="43.6573569" lon="12.1997228"><ele>889.5</ele><time>2026-04-11T10:28:49.604Z</time></trkpt><trkpt lat="43.6572573" lon="12.1996273"><ele>887.0</ele><time>2026-04-11T10:28:51.605Z</time></trkpt><trkpt lat="43.6572128" lon="12.1995521"><ele>884.5</ele><time>2026-04-11T10:28:52.605Z</time></trkpt><trkpt lat="43.6571382" lon="12.1995205"><ele>882.0</ele><time>2026-04-11T10:28:53.604Z</time></trkpt><trkpt lat="43.6570839" lon="12.1994724"><ele>882.0</ele><time>2026-04-11T10:28:54.605Z</time></trkpt><trkpt lat="43.6570555" lon="12.1993834"><ele>882.0</ele><time>2026-04-11T10:28:55.605Z</time></trkpt><trkpt lat="43.6570212" lon="12.1992279"><ele>882.0</ele><time>2026-04-11T10:28:57.605Z</time></trkpt><trkpt lat="43.6570971" lon="12.1991569"><ele>882.0</ele><time>2026-04-11T10:28:59.604Z</time></trkpt><trkpt lat="43.6571579" lon="12.1989999"><ele>882.0</ele><time>2026-04-11T10:29:01.605Z</time></trkpt><trkpt lat="43.6571995" lon="12.1989136"><ele>880.2</ele><time>2026-04-11T10:29:02.605Z</time></trkpt><trkpt lat="43.6572233" lon="12.1987719"><ele>878.4000000000001</ele><time>2026-04-11T10:29:04.605Z</time></trkpt><trkpt lat="43.6572483" lon="12.1986655"><ele>876.5999999999999</ele><time>2026-04-11T10:29:06.605Z</time></trkpt><trkpt lat="43.6572225" lon="12.198585"><ele>874.8</ele><time>2026-04-11T10:29:07.605Z</time></trkpt><trkpt lat="43.6571948" lon="12.1984682"><ele>873.0</ele><time>2026-04-11T10:29:09.605Z</time></trkpt><trkpt lat="43.6571475" lon="12.1983257"><ele>873.0</ele><time>2026-04-11T10:29:11.604Z</time></trkpt><trkpt lat="43.6571188" lon="12.1982453"><ele>873.0</ele><time>2026-04-11T10:29:12.605Z</time></trkpt><trkpt lat="43.6570985" lon="12.1981508"><ele>873.0</ele><time>2026-04-11T10:29:13.604Z</time></trkpt><trkpt lat="43.657049" lon="12.1980206"><ele>873.0</ele><time>2026-04-11T10:29:16.605Z</time></trkpt><trkpt lat="43.6570173" lon="12.1979343"><ele>873.0</ele><time>2026-04-11T10:29:17.604Z</time></trkpt><trkpt lat="43.6569689" lon="12.1978724"><ele>873.0</ele><time>2026-04-11T10:29:18.605Z</time></trkpt><trkpt lat="43.6569167" lon="12.1977499"><ele>872.8333333333334</ele><time>2026-04-11T10:29:20.604Z</time></trkpt><trkpt lat="43.6568483" lon="12.1976177"><ele>872.6666666666667</ele><time>2026-04-11T10:29:22.605Z</time></trkpt><trkpt lat="43.6568078" lon="12.1975406"><ele>872.5</ele><time>2026-04-11T10:29:23.604Z</time></trkpt><trkpt lat="43.6567545" lon="12.1974938"><ele>872.3333333333334</ele><time>2026-04-11T10:29:24.605Z</time></trkpt><trkpt lat="43.6566588" lon="12.1974257"><ele>872.1666666666667</ele><time>2026-04-11T10:29:26.604Z</time></trkpt><trkpt lat="43.6566117" lon="12.1973256"><ele>872.0</ele><time>2026-04-11T10:29:28.605Z</time></trkpt><trkpt lat="43.6566168" lon="12.1971971"><ele>869.8333333333334</ele><time>2026-04-11T10:29:30.605Z</time></trkpt><trkpt lat="43.6566846" lon="12.1972307"><ele>867.6666666666667</ele><time>2026-04-11T10:29:32.604Z</time></trkpt><trkpt lat="43.6567775" lon="12.1972352"><ele>865.5</ele><time>2026-04-11T10:29:36.605Z</time></trkpt><trkpt lat="43.6568588" lon="12.1972428"><ele>863.3333333333333</ele><time>2026-04-11T10:29:38.604Z</time></trkpt><trkpt lat="43.6569512" lon="12.1972447"><ele>861.1666666666666</ele><time>2026-04-11T10:29:41.605Z</time></trkpt><trkpt lat="43.6570222" lon="12.1972335"><ele>859.0</ele><time>2026-04-11T10:29:44.604Z</time></trkpt><trkpt lat="43.6570933" lon="12.1972042"><ele>856.8333333333333</ele><time>2026-04-11T10:29:45.605Z</time></trkpt><trkpt lat="43.6571784" lon="12.1971942"><ele>854.6666666666666</ele><time>2026-04-11T10:29:47.603Z</time></trkpt><trkpt lat="43.6572727" lon="12.197198"><ele>852.5</ele><time>2026-04-11T10:29:50.604Z</time></trkpt><trkpt lat="43.6573724" lon="12.197217"><ele>850.3333333333333</ele><time>2026-04-11T10:29:53.605Z</time></trkpt><trkpt lat="43.6574494" lon="12.1971933"><ele>848.1666666666666</ele><time>2026-04-11T10:29:54.604Z</time></trkpt><trkpt lat="43.6575375" lon="12.1972195"><ele>846.0</ele><time>2026-04-11T10:29:56.604Z</time></trkpt><trkpt lat="43.6576285" lon="12.1972222"><ele>846.0</ele><time>2026-04-11T10:29:58.604Z</time></trkpt><trkpt lat="43.657693" lon="12.1972088"><ele>846.0</ele><time>2026-04-11T10:29:59.603Z</time></trkpt><trkpt lat="43.6577808" lon="12.1971505"><ele>846.0</ele><time>2026-04-11T10:30:00.605Z</time></trkpt><trkpt lat="43.6578961" lon="12.1971648"><ele>846.0</ele><time>2026-04-11T10:30:02.605Z</time></trkpt><trkpt lat="43.657961" lon="12.1972067"><ele>846.0</ele><time>2026-04-11T10:30:03.605Z</time></trkpt><trkpt lat="43.6579853" lon="12.1973382"><ele>846.0</ele><time>2026-04-11T10:30:05.604Z</time></trkpt><trkpt lat="43.6580208" lon="12.1974235"><ele>843.0</ele><time>2026-04-11T10:30:06.604Z</time></trkpt><trkpt lat="43.6580655" lon="12.1975079"><ele>840.0</ele><time>2026-04-11T10:30:07.605Z</time></trkpt><trkpt lat="43.6581247" lon="12.1976521"><ele>837.0</ele><time>2026-04-11T10:30:09.605Z</time></trkpt><trkpt lat="43.6581157" lon="12.1977893"><ele>834.0</ele><time>2026-04-11T10:30:10.605Z</time></trkpt><trkpt lat="43.6581672" lon="12.1979103"><ele>831.0</ele><time>2026-04-11T10:30:12.605Z</time></trkpt><trkpt lat="43.6582251" lon="12.1979684"><ele>831.0</ele><time>2026-04-11T10:30:17.604Z</time></trkpt><trkpt lat="43.658296" lon="12.1979948"><ele>831.0</ele><time>2026-04-11T10:30:20.605Z</time></trkpt><trkpt lat="43.6583719" lon="12.198027"><ele>831.0</ele><time>2026-04-11T10:30:23.604Z</time></trkpt><trkpt lat="43.6584443" lon="12.1980553"><ele>831.0</ele><time>2026-04-11T10:30:26.605Z</time></trkpt><trkpt lat="43.6584938" lon="12.1981381"><ele>831.0</ele><time>2026-04-11T10:30:29.605Z</time></trkpt><trkpt lat="43.6585552" lon="12.1982064"><ele>831.0</ele><time>2026-04-11T10:30:31.604Z</time></trkpt><trkpt lat="43.6586189" lon="12.1983048"><ele>827.0</ele><time>2026-04-11T10:30:33.604Z</time></trkpt><trkpt lat="43.6586677" lon="12.1984073"><ele>823.0</ele><time>2026-04-11T10:30:35.605Z</time></trkpt><trkpt lat="43.6586793" lon="12.1985024"><ele>819.0</ele><time>2026-04-11T10:30:37.605Z</time></trkpt><trkpt lat="43.6586963" lon="12.1986119"><ele>815.0</ele><time>2026-04-11T10:30:40.605Z</time></trkpt><trkpt lat="43.6587283" lon="12.1987086"><ele>811.0</ele><time>2026-04-11T10:30:44.605Z</time></trkpt><trkpt lat="43.6588106" lon="12.1987419"><ele>807.0</ele><time>2026-04-11T10:32:26.605Z</time></trkpt><trkpt lat="43.6588739" lon="12.198746"><ele>807.0</ele><time>2026-04-11T10:33:43.605Z</time></trkpt><trkpt lat="43.6588804" lon="12.1988445"><ele>807.0</ele><time>2026-04-11T10:33:46.604Z</time></trkpt><trkpt lat="43.658776" lon="12.1989422"><ele>807.0</ele><time>2026-04-11T10:34:02.605Z</time></trkpt><trkpt lat="43.6588757" lon="12.1989583"><ele>807.0</ele><time>2026-04-11T10:34:35.605Z</time></trkpt><trkpt lat="43.6589349" lon="12.1990391"><ele>807.0</ele><time>2026-04-11T10:37:46.605Z</time></trkpt><trkpt lat="43.6589851" lon="12.1990928"><ele>807.0</ele><time>2026-04-11T10:37:51.605Z</time></trkpt><trkpt lat="43.6590008" lon="12.1991872"><ele>809.75</ele><time>2026-04-11T10:37:54.605Z</time></trkpt><trkpt lat="43.6591884" lon="12.1992872"><ele>812.5</ele><time>2026-04-11T10:37:56.605Z</time></trkpt><trkpt lat="43.6593201" lon="12.1993457"><ele>815.25</ele><time>2026-04-11T10:37:57.605Z</time></trkpt><trkpt lat="43.6593837" lon="12.199383"><ele>818.0</ele><time>2026-04-11T10:37:58.605Z</time></trkpt><trkpt lat="43.6595001" lon="12.1994784"><ele>813.2</ele><time>2026-04-11T10:37:59.605Z</time></trkpt><trkpt lat="43.6595713" lon="12.1995103"><ele>808.4</ele><time>2026-04-11T10:38:00.605Z</time></trkpt><trkpt lat="43.6597089" lon="12.199556"><ele>803.6</ele><time>2026-04-11T10:38:02.604Z</time></trkpt><trkpt lat="43.6597813" lon="12.1995952"><ele>798.8000000000001</ele><time>2026-04-11T10:38:03.605Z</time></trkpt><trkpt lat="43.6598713" lon="12.1997008"><ele>794.0</ele><time>2026-04-11T10:38:05.604Z</time></trkpt><trkpt lat="43.6599271" lon="12.1997602"><ele>794.0000000000001</ele><time>2026-04-11T10:38:06.605Z</time></trkpt><trkpt lat="43.6599728" lon="12.1998324"><ele>794.0</ele><time>2026-04-11T10:38:07.605Z</time></trkpt><trkpt lat="43.660034" lon="12.1999046"><ele>794.0</ele><time>2026-04-11T10:38:09.604Z</time></trkpt><trkpt lat="43.6600759" lon="12.1999993"><ele>794.0</ele><time>2026-04-11T10:38:11.604Z</time></trkpt><trkpt lat="43.6601023" lon="12.2001023"><ele>794.0000000000001</ele><time>2026-04-11T10:38:13.605Z</time></trkpt><trkpt lat="43.6601029" lon="12.2002238"><ele>794.0</ele><time>2026-04-11T10:38:15.605Z</time></trkpt><trkpt lat="43.6601472" lon="12.2003157"><ele>793.3333333333334</ele><time>2026-04-11T10:38:18.605Z</time></trkpt><trkpt lat="43.6602186" lon="12.2003166"><ele>792.6666666666667</ele><time>2026-04-11T10:38:20.604Z</time></trkpt><trkpt lat="43.6602918" lon="12.2003271"><ele>792.0</ele><time>2026-04-11T10:38:22.604Z</time></trkpt><trkpt lat="43.6603671" lon="12.2003539"><ele>791.3333333333333</ele><time>2026-04-11T10:38:24.605Z</time></trkpt><trkpt lat="43.660444" lon="12.2004195"><ele>790.6666666666666</ele><time>2026-04-11T10:38:26.605Z</time></trkpt><trkpt lat="43.660516" lon="12.2004983"><ele>790.0</ele><time>2026-04-11T10:38:28.605Z</time></trkpt><trkpt lat="43.6605912" lon="12.2005654"><ele>789.9999999999999</ele><time>2026-04-11T10:38:30.605Z</time></trkpt><trkpt lat="43.6606728" lon="12.2006224"><ele>790.0</ele><time>2026-04-11T10:38:32.605Z</time></trkpt><trkpt lat="43.6607578" lon="12.2006535"><ele>790.0</ele><time>2026-04-11T10:38:34.604Z</time></trkpt><trkpt lat="43.6608272" lon="12.2006507"><ele>790.0</ele><time>2026-04-11T10:38:36.605Z</time></trkpt><trkpt lat="43.6609156" lon="12.200674"><ele>789.9999999999999</ele><time>2026-04-11T10:38:39.605Z</time></trkpt><trkpt lat="43.6609718" lon="12.2007403"><ele>790.0</ele><time>2026-04-11T10:38:41.605Z</time></trkpt><trkpt lat="43.6610181" lon="12.2008217"><ele>791.1666666666666</ele><time>2026-04-11T10:38:43.605Z</time></trkpt><trkpt lat="43.6610631" lon="12.2009128"><ele>792.3333333333333</ele><time>2026-04-11T10:38:45.605Z</time></trkpt><trkpt lat="43.6611131" lon="12.2009961"><ele>793.5</ele><time>2026-04-11T10:38:48.605Z</time></trkpt><trkpt lat="43.6611688" lon="12.2010967"><ele>794.6666666666667</ele><time>2026-04-11T10:38:51.604Z</time></trkpt><trkpt lat="43.6612394" lon="12.2011698"><ele>795.8333333333334</ele><time>2026-04-11T10:38:54.605Z</time></trkpt><trkpt lat="43.661331" lon="12.2012335"><ele>797.0</ele><time>2026-04-11T10:38:56.605Z</time></trkpt><trkpt lat="43.6614149" lon="12.2012704"><ele>794.2</ele><time>2026-04-11T10:39:02.604Z</time></trkpt><trkpt lat="43.6615007" lon="12.2013343"><ele>791.4000000000001</ele><time>2026-04-11T10:39:04.605Z</time></trkpt><trkpt lat="43.6615722" lon="12.201419"><ele>788.5999999999999</ele><time>2026-04-11T10:39:06.605Z</time></trkpt><trkpt lat="43.6616576" lon="12.2014896"><ele>785.8</ele><time>2026-04-11T10:39:08.605Z</time></trkpt><trkpt lat="43.6617441" lon="12.2014951"><ele>783.0</ele><time>2026-04-11T10:39:10.605Z</time></trkpt><trkpt lat="43.661816" lon="12.2015249"><ele>782.2</ele><time>2026-04-11T10:39:13.605Z</time></trkpt><trkpt lat="43.6618841" lon="12.2015509"><ele>781.4</ele><time>2026-04-11T10:39:15.605Z</time></trkpt><trkpt lat="43.6619552" lon="12.2016287"><ele>780.6</ele><time>2026-04-11T10:39:17.605Z</time></trkpt><trkpt lat="43.6620424" lon="12.2017326"><ele>779.8000000000001</ele><time>2026-04-11T10:39:19.605Z</time></trkpt><trkpt lat="43.6621196" lon="12.2018537"><ele>779.0</ele><time>2026-04-11T10:39:21.604Z</time></trkpt><trkpt lat="43.66215" lon="12.201933"><ele>777.7142857142858</ele><time>2026-04-11T10:39:22.605Z</time></trkpt><trkpt lat="43.6621846" lon="12.2020156"><ele>776.4285714285714</ele><time>2026-04-11T10:39:23.605Z</time></trkpt><trkpt lat="43.6622032" lon="12.2021161"><ele>775.1428571428571</ele><time>2026-04-11T10:39:24.605Z</time></trkpt><trkpt lat="43.6622092" lon="12.202206"><ele>773.8571428571429</ele><time>2026-04-11T10:39:25.605Z</time></trkpt><trkpt lat="43.6622318" lon="12.2023018"><ele>772.5714285714286</ele><time>2026-04-11T10:39:26.605Z</time></trkpt><trkpt lat="43.6622374" lon="12.2024"><ele>771.2857142857143</ele><time>2026-04-11T10:39:27.605Z</time></trkpt><trkpt lat="43.6622423" lon="12.2025165"><ele>770.0</ele><time>2026-04-11T10:39:28.604Z</time></trkpt><trkpt lat="43.6622472" lon="12.2026222"><ele>768.8</ele><time>2026-04-11T10:39:29.605Z</time></trkpt><trkpt lat="43.6622747" lon="12.2027641"><ele>767.6</ele><time>2026-04-11T10:39:31.605Z</time></trkpt><trkpt lat="43.6623338" lon="12.2029163"><ele>766.4000000000001</ele><time>2026-04-11T10:39:33.605Z</time></trkpt><trkpt lat="43.6624371" lon="12.2030001"><ele>765.2</ele><time>2026-04-11T10:39:35.605Z</time></trkpt><trkpt lat="43.662496" lon="12.2030319"><ele>764.0</ele><time>2026-04-11T10:39:36.605Z</time></trkpt><trkpt lat="43.6626027" lon="12.2030973"><ele>764.0</ele><time>2026-04-11T10:39:38.604Z</time></trkpt><trkpt lat="43.6627339" lon="12.2030976"><ele>764.0</ele><time>2026-04-11T10:39:40.605Z</time></trkpt><trkpt lat="43.6628088" lon="12.203066"><ele>764.0</ele><time>2026-04-11T10:39:42.605Z</time></trkpt><trkpt lat="43.6628747" lon="12.203043"><ele>764.0</ele><time>2026-04-11T10:39:43.605Z</time></trkpt><trkpt lat="43.6629493" lon="12.2030875"><ele>764.0</ele><time>2026-04-11T10:39:45.604Z</time></trkpt><trkpt lat="43.663069" lon="12.2031251"><ele>763.6</ele><time>2026-04-11T10:39:47.605Z</time></trkpt><trkpt lat="43.6631331" lon="12.20325"><ele>763.2</ele><time>2026-04-11T10:39:49.605Z</time></trkpt><trkpt lat="43.6632142" lon="12.2033646"><ele>762.8000000000001</ele><time>2026-04-11T10:39:51.605Z</time></trkpt><trkpt lat="43.6632732" lon="12.2034193"><ele>762.4000000000001</ele><time>2026-04-11T10:39:53.605Z</time></trkpt><trkpt lat="43.6633531" lon="12.2034849"><ele>762.0</ele><time>2026-04-11T10:39:56.605Z</time></trkpt><trkpt lat="43.6633982" lon="12.2035576"><ele>762.0</ele><time>2026-04-11T10:39:58.604Z</time></trkpt><trkpt lat="43.6634464" lon="12.2036282"><ele>762.0</ele><time>2026-04-11T10:40:00.605Z</time></trkpt><trkpt lat="43.6634862" lon="12.2037322"><ele>762.0</ele><time>2026-04-11T10:40:02.604Z</time></trkpt><trkpt lat="43.6635217" lon="12.2038256"><ele>762.0</ele><time>2026-04-11T10:40:04.604Z</time></trkpt><trkpt lat="43.663554" lon="12.2039144"><ele>762.0</ele><time>2026-04-11T10:40:06.605Z</time></trkpt><trkpt lat="43.6636129" lon="12.2040342"><ele>762.0</ele><time>2026-04-11T10:40:08.604Z</time></trkpt><trkpt lat="43.6636603" lon="12.2041694"><ele>761.0</ele><time>2026-04-11T10:40:10.605Z</time></trkpt><trkpt lat="43.6636828" lon="12.2042628"><ele>760.0</ele><time>2026-04-11T10:40:11.605Z</time></trkpt><trkpt lat="43.6637125" lon="12.2043564"><ele>759.0</ele><time>2026-04-11T10:40:12.605Z</time></trkpt><trkpt lat="43.6637392" lon="12.2044384"><ele>758.0</ele><time>2026-04-11T10:40:13.604Z</time></trkpt><trkpt lat="43.6637789" lon="12.2046108"><ele>757.0</ele><time>2026-04-11T10:40:15.605Z</time></trkpt><trkpt lat="43.6638231" lon="12.2047357"><ele>756.0</ele><time>2026-04-11T10:40:17.605Z</time></trkpt><trkpt lat="43.6638471" lon="12.2048758"><ele>754.5</ele><time>2026-04-11T10:40:19.604Z</time></trkpt><trkpt lat="43.6638455" lon="12.2050167"><ele>753.0</ele><time>2026-04-11T10:40:21.605Z</time></trkpt><trkpt lat="43.6638311" lon="12.2051168"><ele>751.5</ele><time>2026-04-11T10:40:23.604Z</time></trkpt><trkpt lat="43.6638208" lon="12.2052331"><ele>750.0</ele><time>2026-04-11T10:40:26.605Z</time></trkpt><trkpt lat="43.6638346" lon="12.2053341"><ele>748.5</ele><time>2026-04-11T10:40:28.604Z</time></trkpt><trkpt lat="43.6638685" lon="12.2054391"><ele>747.0</ele><time>2026-04-11T10:40:30.605Z</time></trkpt><trkpt lat="43.6639047" lon="12.2055246"><ele>746.2</ele><time>2026-04-11T10:40:32.604Z</time></trkpt><trkpt lat="43.663931" lon="12.2056624"><ele>745.4000000000001</ele><time>2026-04-11T10:40:34.605Z</time></trkpt><trkpt lat="43.6639738" lon="12.2057395"><ele>744.5999999999999</ele><time>2026-04-11T10:40:36.604Z</time></trkpt><trkpt lat="43.6640107" lon="12.2058931"><ele>743.8</ele><time>2026-04-11T10:40:39.604Z</time></trkpt><trkpt lat="43.6640354" lon="12.2059876"><ele>743.0</ele><time>2026-04-11T10:40:40.605Z</time></trkpt><trkpt lat="43.6640598" lon="12.2061186"><ele>743.0</ele><time>2026-04-11T10:40:42.605Z</time></trkpt><trkpt lat="43.6641231" lon="12.2062239"><ele>743.0</ele><time>2026-04-11T10:40:44.605Z</time></trkpt><trkpt lat="43.6641936" lon="12.2063323"><ele>743.0</ele><time>2026-04-11T10:40:46.605Z</time></trkpt><trkpt lat="43.6642772" lon="12.206432"><ele>743.0</ele><time>2026-04-11T10:40:48.605Z</time></trkpt><trkpt lat="43.6643574" lon="12.2065397"><ele>743.0</ele><time>2026-04-11T10:40:50.605Z</time></trkpt><trkpt lat="43.6644074" lon="12.2066256"><ele>741.5999999999999</ele><time>2026-04-11T10:40:52.605Z</time></trkpt><trkpt lat="43.6644684" lon="12.2067112"><ele>740.1999999999999</ele><time>2026-04-11T10:40:54.605Z</time></trkpt><trkpt lat="43.6645023" lon="12.2067879"><ele>738.8</ele><time>2026-04-11T10:40:56.605Z</time></trkpt><trkpt lat="43.6645321" lon="12.2069057"><ele>737.4</ele><time>2026-04-11T10:41:00.605Z</time></trkpt><trkpt lat="43.6645775" lon="12.2070221"><ele>736.0</ele><time>2026-04-11T10:41:02.605Z</time></trkpt><trkpt lat="43.6646417" lon="12.2071513"><ele>736.0</ele><time>2026-04-11T10:41:03.605Z</time></trkpt><trkpt lat="43.6646853" lon="12.2072268"><ele>736.0</ele><time>2026-04-11T10:41:04.603Z</time></trkpt><trkpt lat="43.6647929" lon="12.2072424"><ele>736.0</ele><time>2026-04-11T10:41:06.605Z</time></trkpt><trkpt lat="43.6648816" lon="12.2073025"><ele>736.0</ele><time>2026-04-11T10:41:08.605Z</time></trkpt><trkpt lat="43.6649532" lon="12.2073734"><ele>736.0</ele><time>2026-04-11T10:41:10.604Z</time></trkpt><trkpt lat="43.6650421" lon="12.2074502"><ele>736.8333333333334</ele><time>2026-04-11T10:41:12.604Z</time></trkpt><trkpt lat="43.6651395" lon="12.2075015"><ele>737.6666666666667</ele><time>2026-04-11T10:41:14.604Z</time></trkpt><trkpt lat="43.6652525" lon="12.2074793"><ele>738.5</ele><time>2026-04-11T10:41:15.605Z</time></trkpt><trkpt lat="43.6653223" lon="12.2075225"><ele>739.3333333333334</ele><time>2026-04-11T10:41:17.605Z</time></trkpt><trkpt lat="43.6653968" lon="12.2075411"><ele>740.1666666666666</ele><time>2026-04-11T10:41:19.605Z</time></trkpt><trkpt lat="43.6654733" lon="12.2075407"><ele>741.0</ele><time>2026-04-11T10:41:20.603Z</time></trkpt><trkpt lat="43.6655367" lon="12.2075512"><ele>737.8</ele><time>2026-04-11T10:41:21.605Z</time></trkpt><trkpt lat="43.6656401" lon="12.2076067"><ele>734.5999999999999</ele><time>2026-04-11T10:41:24.603Z</time></trkpt><trkpt lat="43.6656615" lon="12.2077312"><ele>731.4</ele><time>2026-04-11T10:41:26.605Z</time></trkpt><trkpt lat="43.66569" lon="12.2078561"><ele>728.2</ele><time>2026-04-11T10:41:28.604Z</time></trkpt><trkpt lat="43.6657057" lon="12.2080152"><ele>725.0</ele><time>2026-04-11T10:41:29.605Z</time></trkpt><trkpt lat="43.6657245" lon="12.2081948"><ele>725.0</ele><time>2026-04-11T10:41:31.605Z</time></trkpt><trkpt lat="43.6657216" lon="12.2082935"><ele>725.0</ele><time>2026-04-11T10:41:32.605Z</time></trkpt><trkpt lat="43.6657411" lon="12.2083769"><ele>725.0</ele><time>2026-04-11T10:41:33.605Z</time></trkpt><trkpt lat="43.6657055" lon="12.20851"><ele>725.0</ele><time>2026-04-11T10:41:35.605Z</time></trkpt><trkpt lat="43.6657775" lon="12.2085691"><ele>725.0</ele><time>2026-04-11T10:41:37.605Z</time></trkpt><trkpt lat="43.6658503" lon="12.2084872"><ele>725.0</ele><time>2026-04-11T10:41:38.604Z</time></trkpt><trkpt lat="43.6659206" lon="12.2084237"><ele>725.0</ele><time>2026-04-11T10:41:40.605Z</time></trkpt><trkpt lat="43.6659924" lon="12.2084336"><ele>725.0</ele><time>2026-04-11T10:41:47.605Z</time></trkpt><trkpt lat="43.6660867" lon="12.2085005"><ele>725.0</ele><time>2026-04-11T10:41:50.605Z</time></trkpt><trkpt lat="43.6661554" lon="12.2085601"><ele>725.0</ele><time>2026-04-11T10:41:52.603Z</time></trkpt><trkpt lat="43.6662141" lon="12.2086711"><ele>725.0</ele><time>2026-04-11T10:41:54.605Z</time></trkpt><trkpt lat="43.666272" lon="12.2087656"><ele>725.0</ele><time>2026-04-11T10:41:56.605Z</time></trkpt><trkpt lat="43.6663823" lon="12.2088941"><ele>722.8571428571429</ele><time>2026-04-11T10:41:58.605Z</time></trkpt><trkpt lat="43.6664351" lon="12.2089483"><ele>720.7142857142858</ele><time>2026-04-11T10:41:59.605Z</time></trkpt><trkpt lat="43.6664816" lon="12.2090763"><ele>718.5714285714286</ele><time>2026-04-11T10:42:02.605Z</time></trkpt><trkpt lat="43.6665375" lon="12.2091375"><ele>716.4285714285714</ele><time>2026-04-11T10:42:04.605Z</time></trkpt><trkpt lat="43.6665636" lon="12.2092173"><ele>714.2857142857143</ele><time>2026-04-11T10:42:05.604Z</time></trkpt><trkpt lat="43.6666191" lon="12.2092635"><ele>712.1428571428571</ele><time>2026-04-11T10:42:08.604Z</time></trkpt><trkpt lat="43.6666902" lon="12.209246"><ele>710.0</ele><time>2026-04-11T10:42:13.604Z</time></trkpt><trkpt lat="43.6667799" lon="12.2092215"><ele>709.0</ele><time>2026-04-11T10:42:16.605Z</time></trkpt><trkpt lat="43.66688" lon="12.2092768"><ele>708.0</ele><time>2026-04-11T10:42:18.604Z</time></trkpt><trkpt lat="43.6669316" lon="12.2093268"><ele>707.0</ele><time>2026-04-11T10:42:20.605Z</time></trkpt><trkpt lat="43.6669916" lon="12.2094156"><ele>706.0</ele><time>2026-04-11T10:42:22.605Z</time></trkpt><trkpt lat="43.666992" lon="12.2095294"><ele>705.0</ele><time>2026-04-11T10:42:24.605Z</time></trkpt><trkpt lat="43.6669761" lon="12.2097171"><ele>705.0</ele><time>2026-04-11T10:42:26.604Z</time></trkpt><trkpt lat="43.6668563" lon="12.2098013"><ele>705.0</ele><time>2026-04-11T10:42:28.605Z</time></trkpt><trkpt lat="43.6668117" lon="12.2099468"><ele>705.0</ele><time>2026-04-11T10:42:30.605Z</time></trkpt><trkpt lat="43.6667886" lon="12.210087"><ele>705.0</ele><time>2026-04-11T10:42:32.605Z</time></trkpt><trkpt lat="43.6667718" lon="12.2102489"><ele>704.5</ele><time>2026-04-11T10:42:34.605Z</time></trkpt><trkpt lat="43.6667825" lon="12.2104597"><ele>704.0</ele><time>2026-04-11T10:42:36.605Z</time></trkpt><trkpt lat="43.6667826" lon="12.2105502"><ele>703.5</ele><time>2026-04-11T10:42:37.605Z</time></trkpt><trkpt lat="43.6667519" lon="12.2106351"><ele>703.0</ele><time>2026-04-11T10:42:40.605Z</time></trkpt><trkpt lat="43.6667992" lon="12.2106942"><ele>702.5</ele><time>2026-04-11T10:43:22.605Z</time></trkpt><trkpt lat="43.6668103" lon="12.2108061"><ele>702.0</ele><time>2026-04-11T10:47:15.605Z</time></trkpt><trkpt lat="43.6668481" lon="12.2108954"><ele>702.0</ele><time>2026-04-11T10:47:17.604Z</time></trkpt><trkpt lat="43.666888" lon="12.210987"><ele>702.0</ele><time>2026-04-11T10:47:19.605Z</time></trkpt><trkpt lat="43.666904" lon="12.2110778"><ele>702.0</ele><time>2026-04-11T10:47:21.605Z</time></trkpt><trkpt lat="43.6669147" lon="12.2111936"><ele>702.0</ele><time>2026-04-11T10:47:33.604Z</time></trkpt><trkpt lat="43.6668957" lon="12.2112999"><ele>702.0</ele><time>2026-04-11T10:47:45.605Z</time></trkpt><trkpt lat="43.6668937" lon="12.2114082"><ele>702.0</ele><time>2026-04-11T10:47:48.605Z</time></trkpt><trkpt lat="43.6669149" lon="12.2115301"><ele>700.6</ele><time>2026-04-11T10:47:50.605Z</time></trkpt><trkpt lat="43.6669375" lon="12.2116902"><ele>699.2</ele><time>2026-04-11T10:47:52.605Z</time></trkpt><trkpt lat="43.6669074" lon="12.211855"><ele>697.8</ele><time>2026-04-11T10:47:54.605Z</time></trkpt><trkpt lat="43.6669026" lon="12.2120459"><ele>696.4</ele><time>2026-04-11T10:47:56.604Z</time></trkpt><trkpt lat="43.6668969" lon="12.2121338"><ele>695.0</ele><time>2026-04-11T10:47:57.605Z</time></trkpt><trkpt lat="43.6668987" lon="12.2122351"><ele>694.6</ele><time>2026-04-11T10:47:58.605Z</time></trkpt><trkpt lat="43.6669187" lon="12.2123426"><ele>694.2</ele><time>2026-04-11T10:47:59.605Z</time></trkpt><trkpt lat="43.6669617" lon="12.2124313"><ele>693.8</ele><time>2026-04-11T10:48:00.605Z</time></trkpt><trkpt lat="43.666995" lon="12.2125553"><ele>693.4</ele><time>2026-04-11T10:48:01.604Z</time></trkpt><trkpt lat="43.6670199" lon="12.2127374"><ele>693.0</ele><time>2026-04-11T10:48:03.605Z</time></trkpt><trkpt lat="43.6670369" lon="12.212833"><ele>690.8333333333334</ele><time>2026-04-11T10:48:04.605Z</time></trkpt><trkpt lat="43.6670595" lon="12.2129167"><ele>688.6666666666666</ele><time>2026-04-11T10:48:05.605Z</time></trkpt><trkpt lat="43.6670805" lon="12.2130021"><ele>686.5</ele><time>2026-04-11T10:48:06.605Z</time></trkpt><trkpt lat="43.667102" lon="12.2130981"><ele>684.3333333333333</ele><time>2026-04-11T10:48:07.605Z</time></trkpt><trkpt lat="43.6671218" lon="12.2131889"><ele>682.1666666666666</ele><time>2026-04-11T10:48:08.605Z</time></trkpt><trkpt lat="43.6671569" lon="12.2133368"><ele>680.0</ele><time>2026-04-11T10:48:10.605Z</time></trkpt><trkpt lat="43.6672169" lon="12.2134183"><ele>678.6</ele><time>2026-04-11T10:48:11.605Z</time></trkpt><trkpt lat="43.6672399" lon="12.2135002"><ele>677.2</ele><time>2026-04-11T10:48:12.605Z</time></trkpt><trkpt lat="43.667255" lon="12.2136418"><ele>675.8</ele><time>2026-04-11T10:48:14.605Z</time></trkpt><trkpt lat="43.6671917" lon="12.2137825"><ele>674.4</ele><time>2026-04-11T10:48:16.605Z</time></trkpt><trkpt lat="43.6671567" lon="12.2138584"><ele>673.0</ele><time>2026-04-11T10:48:17.605Z</time></trkpt><trkpt lat="43.6670697" lon="12.2139749"><ele>673.25</ele><time>2026-04-11T10:48:19.605Z</time></trkpt><trkpt lat="43.6670503" lon="12.2140994"><ele>673.5</ele><time>2026-04-11T10:48:21.605Z</time></trkpt><trkpt lat="43.6670277" lon="12.2142502"><ele>673.75</ele><time>2026-04-11T10:48:23.604Z</time></trkpt><trkpt lat="43.6669839" lon="12.2144168"><ele>674.0</ele><time>2026-04-11T10:48:25.604Z</time></trkpt><trkpt lat="43.6669206" lon="12.2145605"><ele>673.6666666666666</ele><time>2026-04-11T10:48:27.605Z</time></trkpt><trkpt lat="43.6668205" lon="12.2146644"><ele>673.3333333333333</ele><time>2026-04-11T10:48:29.603Z</time></trkpt><trkpt lat="43.6668003" lon="12.2147779"><ele>673.0</ele><time>2026-04-11T10:48:30.605Z</time></trkpt><trkpt lat="43.6667624" lon="12.2148746"><ele>672.6666666666666</ele><time>2026-04-11T10:48:32.605Z</time></trkpt><trkpt lat="43.6667291" lon="12.2149622"><ele>672.3333333333334</ele><time>2026-04-11T10:48:34.604Z</time></trkpt><trkpt lat="43.6667144" lon="12.2150597"><ele>672.0</ele><time>2026-04-11T10:48:36.604Z</time></trkpt><trkpt lat="43.6667313" lon="12.2151898"><ele>672.0</ele><time>2026-04-11T10:48:38.605Z</time></trkpt><trkpt lat="43.6667912" lon="12.2152969"><ele>672.0</ele><time>2026-04-11T10:48:40.605Z</time></trkpt><trkpt lat="43.6668491" lon="12.215414"><ele>672.0</ele><time>2026-04-11T10:48:42.605Z</time></trkpt><trkpt lat="43.6669411" lon="12.2154959"><ele>672.0</ele><time>2026-04-11T10:48:45.605Z</time></trkpt><trkpt lat="43.6670161" lon="12.2155482"><ele>672.0</ele><time>2026-04-11T10:48:47.604Z</time></trkpt><trkpt lat="43.6670925" lon="12.215608"><ele>669.8</ele><time>2026-04-11T10:48:49.604Z</time></trkpt><trkpt lat="43.6671693" lon="12.2156648"><ele>667.6</ele><time>2026-04-11T10:48:51.604Z</time></trkpt><trkpt lat="43.6672381" lon="12.2157684"><ele>665.4</ele><time>2026-04-11T10:48:53.605Z</time></trkpt><trkpt lat="43.6673024" lon="12.2158498"><ele>663.1999999999999</ele><time>2026-04-11T10:48:55.605Z</time></trkpt><trkpt lat="43.6673742" lon="12.2159225"><ele>661.0</ele><time>2026-04-11T10:48:57.605Z</time></trkpt><trkpt lat="43.6674307" lon="12.2160167"><ele>661.0</ele><time>2026-04-11T10:48:59.604Z</time></trkpt><trkpt lat="43.6674856" lon="12.2161027"><ele>661.0</ele><time>2026-04-11T10:49:02.604Z</time></trkpt><trkpt lat="43.6675167" lon="12.2161842"><ele>661.0</ele><time>2026-04-11T10:49:04.604Z</time></trkpt><trkpt lat="43.6675467" lon="12.2163136"><ele>661.0</ele><time>2026-04-11T10:49:06.604Z</time></trkpt><trkpt lat="43.6675585" lon="12.2164208"><ele>661.0</ele><time>2026-04-11T10:49:07.605Z</time></trkpt><trkpt lat="43.6675377" lon="12.2165291"><ele>661.0</ele><time>2026-04-11T10:49:09.604Z</time></trkpt><trkpt lat="43.6675358" lon="12.2166186"><ele>660.1666666666667</ele><time>2026-04-11T10:49:11.605Z</time></trkpt><trkpt lat="43.6675123" lon="12.2167022"><ele>659.3333333333334</ele><time>2026-04-11T10:49:23.605Z</time></trkpt><trkpt lat="43.6674916" lon="12.2167971"><ele>658.5</ele><time>2026-04-11T10:49:25.603Z</time></trkpt><trkpt lat="43.6674832" lon="12.2168954"><ele>657.6666666666666</ele><time>2026-04-11T10:49:49.605Z</time></trkpt><trkpt lat="43.6675367" lon="12.2170078"><ele>656.8333333333333</ele><time>2026-04-11T10:49:53.605Z</time></trkpt><trkpt lat="43.6675711" lon="12.2170927"><ele>656.0</ele><time>2026-04-11T10:49:55.605Z</time></trkpt><trkpt lat="43.6675852" lon="12.2172209"><ele>656.1666666666666</ele><time>2026-04-11T10:49:57.604Z</time></trkpt><trkpt lat="43.6675741" lon="12.2173619"><ele>656.3333333333333</ele><time>2026-04-11T10:49:59.605Z</time></trkpt><trkpt lat="43.6675943" lon="12.2174505"><ele>656.5</ele><time>2026-04-11T10:50:01.605Z</time></trkpt><trkpt lat="43.6676247" lon="12.2175481"><ele>656.6666666666666</ele><time>2026-04-11T10:50:03.605Z</time></trkpt><trkpt lat="43.6676959" lon="12.2176198"><ele>656.8333333333334</ele><time>2026-04-11T10:50:07.605Z</time></trkpt><trkpt lat="43.6677555" lon="12.217734"><ele>657.0</ele><time>2026-04-11T10:50:09.604Z</time></trkpt><trkpt lat="43.6677974" lon="12.2178702"><ele>657.0</ele><time>2026-04-11T10:50:11.605Z</time></trkpt><trkpt lat="43.6678262" lon="12.2180495"><ele>657.0</ele><time>2026-04-11T10:50:13.604Z</time></trkpt><trkpt lat="43.6678207" lon="12.2182201"><ele>657.0</ele><time>2026-04-11T10:50:15.605Z</time></trkpt><trkpt lat="43.6678205" lon="12.2183275"><ele>657.0</ele><time>2026-04-11T10:50:16.605Z</time></trkpt><trkpt lat="43.6678117" lon="12.218535"><ele>654.0</ele><time>2026-04-11T10:50:18.604Z</time></trkpt><trkpt lat="43.6677529" lon="12.2187355"><ele>651.0</ele><time>2026-04-11T10:50:20.604Z</time></trkpt><trkpt lat="43.6677091" lon="12.2188187"><ele>648.0</ele><time>2026-04-11T10:50:21.605Z</time></trkpt><trkpt lat="43.6676242" lon="12.2188806"><ele>645.0</ele><time>2026-04-11T10:50:22.605Z</time></trkpt><trkpt lat="43.6675416" lon="12.2188794"><ele>642.0</ele><time>2026-04-11T10:50:23.605Z</time></trkpt><trkpt lat="43.6674707" lon="12.2189159"><ele>642.0</ele><time>2026-04-11T10:50:24.603Z</time></trkpt><trkpt lat="43.667409" lon="12.2189514"><ele>642.0</ele><time>2026-04-11T10:50:25.605Z</time></trkpt><trkpt lat="43.6673489" lon="12.2190674"><ele>642.0</ele><time>2026-04-11T10:50:27.604Z</time></trkpt><trkpt lat="43.6673507" lon="12.2191719"><ele>642.0</ele><time>2026-04-11T10:50:28.604Z</time></trkpt><trkpt lat="43.6673479" lon="12.2192664"><ele>642.0</ele><time>2026-04-11T10:50:29.604Z</time></trkpt><trkpt lat="43.6673524" lon="12.2193763"><ele>642.0</ele><time>2026-04-11T10:50:30.605Z</time></trkpt><trkpt lat="43.6673358" lon="12.219505"><ele>643.5</ele><time>2026-04-11T10:50:31.605Z</time></trkpt><trkpt lat="43.6672932" lon="12.2195774"><ele>645.0</ele><time>2026-04-11T10:50:32.605Z</time></trkpt><trkpt lat="43.667259" lon="12.2196739"><ele>646.5</ele><time>2026-04-11T10:50:33.605Z</time></trkpt><trkpt lat="43.6672287" lon="12.2197545"><ele>648.0</ele><time>2026-04-11T10:50:34.605Z</time></trkpt><trkpt lat="43.6671795" lon="12.2198812"><ele>649.5</ele><time>2026-04-11T10:50:36.605Z</time></trkpt><trkpt lat="43.6671444" lon="12.219964"><ele>651.0</ele><time>2026-04-11T10:50:37.605Z</time></trkpt><trkpt lat="43.6671054" lon="12.2200466"><ele>649.7142857142857</ele><time>2026-04-11T10:50:38.605Z</time></trkpt><trkpt lat="43.6670577" lon="12.22013"><ele>648.4285714285714</ele><time>2026-04-11T10:50:39.604Z</time></trkpt><trkpt lat="43.6669996" lon="12.220209"><ele>647.1428571428571</ele><time>2026-04-11T10:50:40.605Z</time></trkpt><trkpt lat="43.6669504" lon="12.2202688"><ele>645.8571428571429</ele><time>2026-04-11T10:50:41.604Z</time></trkpt><trkpt lat="43.6669064" lon="12.220348"><ele>644.5714285714286</ele><time>2026-04-11T10:50:42.605Z</time></trkpt><trkpt lat="43.6668697" lon="12.2204231"><ele>643.2857142857142</ele><time>2026-04-11T10:50:43.605Z</time></trkpt><trkpt lat="43.6668364" lon="12.2204975"><ele>642.0</ele><time>2026-04-11T10:50:44.605Z</time></trkpt><trkpt lat="43.6668029" lon="12.2205769"><ele>642.0</ele><time>2026-04-11T10:50:45.605Z</time></trkpt><trkpt lat="43.6667621" lon="12.2206458"><ele>642.0</ele><time>2026-04-11T10:50:46.604Z</time></trkpt><trkpt lat="43.6667016" lon="12.2205767"><ele>642.0</ele><time>2026-04-11T10:50:48.605Z</time></trkpt><trkpt lat="43.6666009" lon="12.2205838"><ele>642.0</ele><time>2026-04-11T10:50:50.604Z</time></trkpt><trkpt lat="43.6664944" lon="12.2206273"><ele>642.0</ele><time>2026-04-11T10:50:52.604Z</time></trkpt><trkpt lat="43.6664071" lon="12.220697"><ele>642.8</ele><time>2026-04-11T10:50:54.604Z</time></trkpt><trkpt lat="43.6663469" lon="12.2208018"><ele>643.6</ele><time>2026-04-11T10:50:56.604Z</time></trkpt><trkpt lat="43.6662777" lon="12.2209283"><ele>644.4</ele><time>2026-04-11T10:50:58.604Z</time></trkpt><trkpt lat="43.6662503" lon="12.2210487"><ele>645.1999999999999</ele><time>2026-04-11T10:51:00.604Z</time></trkpt><trkpt lat="43.6662279" lon="12.2211973"><ele>646.0</ele><time>2026-04-11T10:51:02.605Z</time></trkpt><trkpt lat="43.6662277" lon="12.2213409"><ele>646.0</ele><time>2026-04-11T10:51:04.605Z</time></trkpt><trkpt lat="43.6662055" lon="12.2214278"><ele>646.0</ele><time>2026-04-11T10:51:05.604Z</time></trkpt><trkpt lat="43.6661662" lon="12.2215078"><ele>646.0</ele><time>2026-04-11T10:51:06.604Z</time></trkpt><trkpt lat="43.6661142" lon="12.2215952"><ele>646.0</ele><time>2026-04-11T10:51:07.605Z</time></trkpt><trkpt lat="43.6660423" lon="12.2217224"><ele>646.0</ele><time>2026-04-11T10:51:09.605Z</time></trkpt><trkpt lat="43.6659946" lon="12.2218438"><ele>646.0</ele><time>2026-04-11T10:51:11.605Z</time></trkpt><trkpt lat="43.6659768" lon="12.2219302"><ele>645.8</ele><time>2026-04-11T10:51:12.605Z</time></trkpt><trkpt lat="43.665906" lon="12.2220757"><ele>645.5999999999999</ele><time>2026-04-11T10:51:14.605Z</time></trkpt><trkpt lat="43.665878" lon="12.2221547"><ele>645.4</ele><time>2026-04-11T10:51:15.605Z</time></trkpt><trkpt lat="43.6658565" lon="12.2222443"><ele>645.2</ele><time>2026-04-11T10:51:16.605Z</time></trkpt><trkpt lat="43.6658651" lon="12.2223937"><ele>645.0</ele><time>2026-04-11T10:51:18.604Z</time></trkpt><trkpt lat="43.6658793" lon="12.2225413"><ele>648.0</ele><time>2026-04-11T10:51:20.603Z</time></trkpt><trkpt lat="43.6659028" lon="12.2227028"><ele>651.0</ele><time>2026-04-11T10:51:22.603Z</time></trkpt><trkpt lat="43.6659197" lon="12.2228754"><ele>654.0</ele><time>2026-04-11T10:51:24.605Z</time></trkpt><trkpt lat="43.665921" lon="12.2230356"><ele>657.0</ele><time>2026-04-11T10:51:26.605Z</time></trkpt><trkpt lat="43.6659165" lon="12.2231267"><ele>660.0</ele><time>2026-04-11T10:51:28.605Z</time></trkpt><trkpt lat="43.665878" lon="12.2232005"><ele>661.3333333333334</ele><time>2026-04-11T10:51:30.603Z</time></trkpt><trkpt lat="43.6658193" lon="12.2232446"><ele>662.6666666666666</ele><time>2026-04-11T10:51:32.605Z</time></trkpt><trkpt lat="43.665763" lon="12.2233185"><ele>664.0</ele><time>2026-04-11T10:51:35.605Z</time></trkpt><trkpt lat="43.6656946" lon="12.2233767"><ele>665.3333333333333</ele><time>2026-04-11T10:51:38.605Z</time></trkpt><trkpt lat="43.6656754" lon="12.2234618"><ele>666.6666666666666</ele><time>2026-04-11T10:52:11.605Z</time></trkpt><trkpt lat="43.6656292" lon="12.2235872"><ele>668.0</ele><time>2026-04-11T10:52:13.604Z</time></trkpt><trkpt lat="43.6655673" lon="12.2237394"><ele>668.0</ele><time>2026-04-11T10:52:15.605Z</time></trkpt><trkpt lat="43.6655096" lon="12.2238933"><ele>668.0</ele><time>2026-04-11T10:52:17.604Z</time></trkpt><trkpt lat="43.6654813" lon="12.223977"><ele>668.0</ele><time>2026-04-11T10:52:18.605Z</time></trkpt><trkpt lat="43.6654493" lon="12.2240641"><ele>668.0</ele><time>2026-04-11T10:52:19.604Z</time></trkpt><trkpt lat="43.6654272" lon="12.2241549"><ele>668.0</ele><time>2026-04-11T10:52:20.604Z</time></trkpt><trkpt lat="43.6654163" lon="12.224255"><ele>668.0</ele><time>2026-04-11T10:52:21.604Z</time></trkpt><trkpt lat="43.6654197" lon="12.2243666"><ele>670.1666666666666</ele><time>2026-04-11T10:52:22.604Z</time></trkpt><trkpt lat="43.665431" lon="12.2244854"><ele>672.3333333333333</ele><time>2026-04-11T10:52:23.605Z</time></trkpt><trkpt lat="43.6654419" lon="12.2246022"><ele>674.5</ele><time>2026-04-11T10:52:24.604Z</time></trkpt><trkpt lat="43.6654623" lon="12.2247184"><ele>676.6666666666666</ele><time>2026-04-11T10:52:25.605Z</time></trkpt><trkpt lat="43.6654424" lon="12.2248118"><ele>678.8333333333334</ele><time>2026-04-11T10:52:26.605Z</time></trkpt><trkpt lat="43.6653595" lon="12.224878"><ele>681.0</ele><time>2026-04-11T10:52:27.604Z</time></trkpt><trkpt lat="43.6653072" lon="12.2249461"><ele>676.5999999999999</ele><time>2026-04-11T10:52:28.605Z</time></trkpt><trkpt lat="43.6651834" lon="12.2249117"><ele>672.2</ele><time>2026-04-11T10:52:29.605Z</time></trkpt><trkpt lat="43.665096" lon="12.2249247"><ele>667.8</ele><time>2026-04-11T10:52:30.605Z</time></trkpt><trkpt lat="43.665008" lon="12.2249237"><ele>663.4000000000001</ele><time>2026-04-11T10:52:31.605Z</time></trkpt><trkpt lat="43.6649143" lon="12.2249184"><ele>659.0</ele><time>2026-04-11T10:52:32.605Z</time></trkpt><trkpt lat="43.6648236" lon="12.2249029"><ele>659.0</ele><time>2026-04-11T10:52:33.605Z</time></trkpt><trkpt lat="43.6647274" lon="12.2249046"><ele>659.0</ele><time>2026-04-11T10:52:34.605Z</time></trkpt><trkpt lat="43.6646322" lon="12.2249002"><ele>659.0</ele><time>2026-04-11T10:52:35.605Z</time></trkpt><trkpt lat="43.6645482" lon="12.2248993"><ele>659.0</ele><time>2026-04-11T10:52:36.604Z</time></trkpt><trkpt lat="43.6644576" lon="12.2249047"><ele>659.0</ele><time>2026-04-11T10:52:37.605Z</time></trkpt><trkpt lat="43.6643715" lon="12.2249392"><ele>657.2</ele><time>2026-04-11T10:52:38.604Z</time></trkpt><trkpt lat="43.6642801" lon="12.2249742"><ele>655.4000000000001</ele><time>2026-04-11T10:52:39.605Z</time></trkpt><trkpt lat="43.6641891" lon="12.2250044"><ele>653.6</ele><time>2026-04-11T10:52:40.605Z</time></trkpt><trkpt lat="43.664099" lon="12.2250311"><ele>651.8</ele><time>2026-04-11T10:52:41.605Z</time></trkpt><trkpt lat="43.6640058" lon="12.2250577"><ele>650.0</ele><time>2026-04-11T10:52:42.605Z</time></trkpt><trkpt lat="43.6639174" lon="12.2250366"><ele>650.0</ele><time>2026-04-11T10:52:43.604Z</time></trkpt><trkpt lat="43.6638402" lon="12.2250161"><ele>650.0</ele><time>2026-04-11T10:52:44.604Z</time></trkpt><trkpt lat="43.6637786" lon="12.2249176"><ele>650.0</ele><time>2026-04-11T10:52:45.605Z</time></trkpt><trkpt lat="43.6636968" lon="12.2248665"><ele>650.0</ele><time>2026-04-11T10:52:46.605Z</time></trkpt><trkpt lat="43.6636018" lon="12.224792"><ele>650.0</ele><time>2026-04-11T10:52:47.605Z</time></trkpt><trkpt lat="43.6635194" lon="12.2247428"><ele>645.1666666666666</ele><time>2026-04-11T10:52:48.604Z</time></trkpt><trkpt lat="43.6634358" lon="12.2247022"><ele>640.3333333333333</ele><time>2026-04-11T10:52:49.605Z</time></trkpt><trkpt lat="43.6633533" lon="12.2246579"><ele>635.5</ele><time>2026-04-11T10:52:50.605Z</time></trkpt><trkpt lat="43.66328" lon="12.2246554"><ele>630.6666666666666</ele><time>2026-04-11T10:52:51.604Z</time></trkpt><trkpt lat="43.6632084" lon="12.2246878"><ele>625.8333333333334</ele><time>2026-04-11T10:52:52.604Z</time></trkpt><trkpt lat="43.6631283" lon="12.2247387"><ele>621.0</ele><time>2026-04-11T10:52:53.604Z</time></trkpt><trkpt lat="43.6630579" lon="12.2247916"><ele>620.6</ele><time>2026-04-11T10:52:54.605Z</time></trkpt><trkpt lat="43.6629826" lon="12.2248565"><ele>620.2</ele><time>2026-04-11T10:52:55.605Z</time></trkpt><trkpt lat="43.6629081" lon="12.2249319"><ele>619.8</ele><time>2026-04-11T10:52:56.605Z</time></trkpt><trkpt lat="43.6628391" lon="12.2250207"><ele>619.4</ele><time>2026-04-11T10:52:57.605Z</time></trkpt><trkpt lat="43.6627845" lon="12.2251133"><ele>619.0</ele><time>2026-04-11T10:52:58.604Z</time></trkpt><trkpt lat="43.662707" lon="12.2251892"><ele>619.0</ele><time>2026-04-11T10:52:59.604Z</time></trkpt><trkpt lat="43.6626255" lon="12.2252705"><ele>619.0</ele><time>2026-04-11T10:53:00.605Z</time></trkpt><trkpt lat="43.6625319" lon="12.2252811"><ele>619.0</ele><time>2026-04-11T10:53:01.605Z</time></trkpt><trkpt lat="43.6624518" lon="12.2253338"><ele>619.0</ele><time>2026-04-11T10:53:02.605Z</time></trkpt><trkpt lat="43.6623763" lon="12.225395"><ele>619.0</ele><time>2026-04-11T10:53:03.605Z</time></trkpt><trkpt lat="43.6623002" lon="12.2254669"><ele>619.0</ele><time>2026-04-11T10:53:04.605Z</time></trkpt><trkpt lat="43.6622261" lon="12.225541"><ele>619.0</ele><time>2026-04-11T10:53:05.605Z</time></trkpt><trkpt lat="43.6621628" lon="12.2256156"><ele>619.0</ele><time>2026-04-11T10:53:06.605Z</time></trkpt><trkpt lat="43.6621191" lon="12.2257025"><ele>619.0</ele><time>2026-04-11T10:53:07.604Z</time></trkpt><trkpt lat="43.6620905" lon="12.2258132"><ele>619.0</ele><time>2026-04-11T10:53:08.605Z</time></trkpt><trkpt lat="43.6620721" lon="12.2259387"><ele>619.0</ele><time>2026-04-11T10:53:09.605Z</time></trkpt><trkpt lat="43.6620604" lon="12.2260688"><ele>623.8</ele><time>2026-04-11T10:53:10.605Z</time></trkpt><trkpt lat="43.6620479" lon="12.2262037"><ele>628.5999999999999</ele><time>2026-04-11T10:53:11.605Z</time></trkpt><trkpt lat="43.6620405" lon="12.2263446"><ele>633.4</ele><time>2026-04-11T10:53:12.605Z</time></trkpt><trkpt lat="43.6620475" lon="12.2264742"><ele>638.1999999999999</ele><time>2026-04-11T10:53:13.605Z</time></trkpt><trkpt lat="43.6620408" lon="12.2265883"><ele>643.0</ele><time>2026-04-11T10:53:14.605Z</time></trkpt><trkpt lat="43.6620352" lon="12.2267043"><ele>645.1666666666667</ele><time>2026-04-11T10:53:15.605Z</time></trkpt><trkpt lat="43.6620323" lon="12.2268152"><ele>647.3333333333334</ele><time>2026-04-11T10:53:16.604Z</time></trkpt><trkpt lat="43.6620208" lon="12.2269244"><ele>649.5</ele><time>2026-04-11T10:53:17.604Z</time></trkpt><trkpt lat="43.661983" lon="12.2270634"><ele>651.6666666666666</ele><time>2026-04-11T10:53:19.605Z</time></trkpt><trkpt lat="43.6619101" lon="12.227102"><ele>653.8333333333333</ele><time>2026-04-11T10:53:20.605Z</time></trkpt><trkpt lat="43.6618215" lon="12.2270324"><ele>656.0</ele><time>2026-04-11T10:53:22.605Z</time></trkpt><trkpt lat="43.661821" lon="12.2269273"><ele>649.1666666666666</ele><time>2026-04-11T10:53:23.605Z</time></trkpt><trkpt lat="43.6618295" lon="12.2268262"><ele>642.3333333333333</ele><time>2026-04-11T10:53:24.605Z</time></trkpt><trkpt lat="43.661847" lon="12.226718"><ele>635.5</ele><time>2026-04-11T10:53:25.605Z</time></trkpt><trkpt lat="43.6618659" lon="12.226603"><ele>628.6666666666666</ele><time>2026-04-11T10:53:26.605Z</time></trkpt><trkpt lat="43.661885" lon="12.2264808"><ele>621.8333333333334</ele><time>2026-04-11T10:53:27.605Z</time></trkpt><trkpt lat="43.6619001" lon="12.2263427"><ele>615.0</ele><time>2026-04-11T10:53:28.605Z</time></trkpt><trkpt lat="43.6619049" lon="12.2262164"><ele>614.6666666666666</ele><time>2026-04-11T10:53:29.604Z</time></trkpt><trkpt lat="43.6619132" lon="12.2260889"><ele>614.3333333333334</ele><time>2026-04-11T10:53:30.605Z</time></trkpt><trkpt lat="43.6619148" lon="12.2259661"><ele>614.0</ele><time>2026-04-11T10:53:31.605Z</time></trkpt><trkpt lat="43.6619172" lon="12.2258622"><ele>613.6666666666667</ele><time>2026-04-11T10:53:32.604Z</time></trkpt><trkpt lat="43.66193" lon="12.2257413"><ele>613.3333333333334</ele><time>2026-04-11T10:53:33.605Z</time></trkpt><trkpt lat="43.6619411" lon="12.2256366"><ele>613.0</ele><time>2026-04-11T10:53:34.605Z</time></trkpt><trkpt lat="43.6619463" lon="12.2255278"><ele>613.0</ele><time>2026-04-11T10:53:35.605Z</time></trkpt><trkpt lat="43.6619137" lon="12.2253896"><ele>613.0</ele><time>2026-04-11T10:53:37.605Z</time></trkpt><trkpt lat="43.6618413" lon="12.2253348"><ele>613.0</ele><time>2026-04-11T10:53:38.605Z</time></trkpt><trkpt lat="43.6617479" lon="12.2253842"><ele>613.0</ele><time>2026-04-11T10:53:40.605Z</time></trkpt><trkpt lat="43.6617085" lon="12.2254554"><ele>613.0</ele><time>2026-04-11T10:53:41.605Z</time></trkpt><trkpt lat="43.66169" lon="12.2255464"><ele>613.0</ele><time>2026-04-11T10:53:42.605Z</time></trkpt><trkpt lat="43.6616875" lon="12.2256472"><ele>613.0</ele><time>2026-04-11T10:53:43.604Z</time></trkpt><trkpt lat="43.6616851" lon="12.225753"><ele>613.0</ele><time>2026-04-11T10:53:44.605Z</time></trkpt><trkpt lat="43.6616849" lon="12.2258674"><ele>613.0</ele><time>2026-04-11T10:53:45.605Z</time></trkpt><trkpt lat="43.6616855" lon="12.2259866"><ele>613.0</ele><time>2026-04-11T10:53:46.605Z</time></trkpt><trkpt lat="43.6616759" lon="12.2261064"><ele>613.0</ele><time>2026-04-11T10:53:47.605Z</time></trkpt><trkpt lat="43.6616681" lon="12.2262394"><ele>613.0</ele><time>2026-04-11T10:53:48.603Z</time></trkpt><trkpt lat="43.6616552" lon="12.2263645"><ele>613.4</ele><time>2026-04-11T10:53:49.605Z</time></trkpt><trkpt lat="43.6616259" lon="12.2264983"><ele>613.8</ele><time>2026-04-11T10:53:50.605Z</time></trkpt><trkpt lat="43.6615927" lon="12.2266189"><ele>614.2</ele><time>2026-04-11T10:53:51.605Z</time></trkpt><trkpt lat="43.6615457" lon="12.226736"><ele>614.6</ele><time>2026-04-11T10:53:52.605Z</time></trkpt><trkpt lat="43.661487" lon="12.2268448"><ele>615.0</ele><time>2026-04-11T10:53:53.605Z</time></trkpt><trkpt lat="43.6614265" lon="12.2269295"><ele>615.0</ele><time>2026-04-11T10:53:54.605Z</time></trkpt><trkpt lat="43.6613621" lon="12.2270056"><ele>615.0</ele><time>2026-04-11T10:53:55.605Z</time></trkpt><trkpt lat="43.6612874" lon="12.2270721"><ele>615.0</ele><time>2026-04-11T10:53:56.604Z</time></trkpt><trkpt lat="43.6611994" lon="12.227132"><ele>615.0</ele><time>2026-04-11T10:53:57.605Z</time></trkpt><trkpt lat="43.6611046" lon="12.2271912"><ele>615.0</ele><time>2026-04-11T10:53:58.604Z</time></trkpt><trkpt lat="43.6609951" lon="12.227251"><ele>611.75</ele><time>2026-04-11T10:53:59.603Z</time></trkpt><trkpt lat="43.6608809" lon="12.2273072"><ele>608.5</ele><time>2026-04-11T10:54:00.605Z</time></trkpt><trkpt lat="43.6607597" lon="12.2273647"><ele>605.25</ele><time>2026-04-11T10:54:01.605Z</time></trkpt><trkpt lat="43.6606363" lon="12.2274221"><ele>602.0</ele><time>2026-04-11T10:54:02.605Z</time></trkpt><trkpt lat="43.660509" lon="12.2274826"><ele>602.0</ele><time>2026-04-11T10:54:03.605Z</time></trkpt><trkpt lat="43.6603894" lon="12.2275362"><ele>602.0</ele><time>2026-04-11T10:54:04.604Z</time></trkpt><trkpt lat="43.6602802" lon="12.2275794"><ele>602.0</ele><time>2026-04-11T10:54:05.605Z</time></trkpt><trkpt lat="43.6601872" lon="12.2276206"><ele>602.0</ele><time>2026-04-11T10:54:06.604Z</time></trkpt><trkpt lat="43.6601122" lon="12.2276715"><ele>602.0</ele><time>2026-04-11T10:54:07.605Z</time></trkpt><trkpt lat="43.6600488" lon="12.227728"><ele>601.5</ele><time>2026-04-11T10:54:08.605Z</time></trkpt><trkpt lat="43.6599939" lon="12.2277938"><ele>601.0</ele><time>2026-04-11T10:54:09.605Z</time></trkpt><trkpt lat="43.6599418" lon="12.2278634"><ele>600.5</ele><time>2026-04-11T10:54:10.604Z</time></trkpt><trkpt lat="43.6598895" lon="12.227945"><ele>600.0</ele><time>2026-04-11T10:54:11.605Z</time></trkpt><trkpt lat="43.6598199" lon="12.228007"><ele>599.5</ele><time>2026-04-11T10:54:12.605Z</time></trkpt><trkpt lat="43.6597451" lon="12.2280732"><ele>599.0</ele><time>2026-04-11T10:54:13.605Z</time></trkpt><trkpt lat="43.6596607" lon="12.2281265"><ele>603.2</ele><time>2026-04-11T10:54:14.604Z</time></trkpt><trkpt lat="43.6595652" lon="12.2281609"><ele>607.4</ele><time>2026-04-11T10:54:15.605Z</time></trkpt><trkpt lat="43.6594753" lon="12.2281781"><ele>611.6</ele><time>2026-04-11T10:54:16.605Z</time></trkpt><trkpt lat="43.6593698" lon="12.2281856"><ele>615.8</ele><time>2026-04-11T10:54:17.605Z</time></trkpt><trkpt lat="43.6592705" lon="12.2281782"><ele>620.0</ele><time>2026-04-11T10:54:18.605Z</time></trkpt><trkpt lat="43.6591713" lon="12.2281673"><ele>620.0</ele><time>2026-04-11T10:54:19.605Z</time></trkpt><trkpt lat="43.6590764" lon="12.2281491"><ele>620.0</ele><time>2026-04-11T10:54:20.604Z</time></trkpt><trkpt lat="43.6589806" lon="12.2281285"><ele>620.0</ele><time>2026-04-11T10:54:21.605Z</time></trkpt><trkpt lat="43.6589038" lon="12.2280843"><ele>620.0</ele><time>2026-04-11T10:54:22.605Z</time></trkpt><trkpt lat="43.6588553" lon="12.2279977"><ele>620.0</ele><time>2026-04-11T10:54:23.605Z</time></trkpt><trkpt lat="43.6588073" lon="12.2279188"><ele>620.0</ele><time>2026-04-11T10:54:24.605Z</time></trkpt><trkpt lat="43.6587643" lon="12.2278485"><ele>616.0</ele><time>2026-04-11T10:54:25.605Z</time></trkpt><trkpt lat="43.6586658" lon="12.2277793"><ele>612.0</ele><time>2026-04-11T10:54:27.604Z</time></trkpt><trkpt lat="43.6585378" lon="12.2277938"><ele>608.0</ele><time>2026-04-11T10:54:29.605Z</time></trkpt><trkpt lat="43.6584791" lon="12.2278329"><ele>604.0</ele><time>2026-04-11T10:54:30.604Z</time></trkpt><trkpt lat="43.6584069" lon="12.2278996"><ele>600.0</ele><time>2026-04-11T10:54:31.604Z</time></trkpt><trkpt lat="43.6583301" lon="12.227954"><ele>600.0</ele><time>2026-04-11T10:54:32.604Z</time></trkpt><trkpt lat="43.6582458" lon="12.2279898"><ele>600.0</ele><time>2026-04-11T10:54:33.604Z</time></trkpt><trkpt lat="43.6581576" lon="12.2280161"><ele>600.0</ele><time>2026-04-11T10:54:34.604Z</time></trkpt><trkpt lat="43.6580689" lon="12.2280356"><ele>600.0</ele><time>2026-04-11T10:54:35.604Z</time></trkpt><trkpt lat="43.6579836" lon="12.2280614"><ele>600.0</ele><time>2026-04-11T10:54:36.603Z</time></trkpt><trkpt lat="43.6578949" lon="12.2280993"><ele>600.0</ele><time>2026-04-11T10:54:37.605Z</time></trkpt><trkpt lat="43.6578051" lon="12.2281565"><ele>600.6</ele><time>2026-04-11T10:54:38.604Z</time></trkpt><trkpt lat="43.6577133" lon="12.2282265"><ele>601.2</ele><time>2026-04-11T10:54:39.605Z</time></trkpt><trkpt lat="43.6576165" lon="12.2282995"><ele>601.8</ele><time>2026-04-11T10:54:40.604Z</time></trkpt><trkpt lat="43.6575194" lon="12.228377"><ele>602.4</ele><time>2026-04-11T10:54:41.605Z</time></trkpt><trkpt lat="43.6574176" lon="12.2284547"><ele>603.0</ele><time>2026-04-11T10:54:42.605Z</time></trkpt><trkpt lat="43.6573214" lon="12.2285438"><ele>603.0</ele><time>2026-04-11T10:54:43.605Z</time></trkpt><trkpt lat="43.6572154" lon="12.2286196"><ele>603.0</ele><time>2026-04-11T10:54:44.605Z</time></trkpt><trkpt lat="43.6571077" lon="12.2287042"><ele>603.0</ele><time>2026-04-11T10:54:45.605Z</time></trkpt><trkpt lat="43.6570077" lon="12.2287896"><ele>603.0</ele><time>2026-04-11T10:54:46.604Z</time></trkpt><trkpt lat="43.6569061" lon="12.2288701"><ele>604.25</ele><time>2026-04-11T10:54:47.604Z</time></trkpt><trkpt lat="43.6568014" lon="12.2289412"><ele>605.5</ele><time>2026-04-11T10:54:48.605Z</time></trkpt><trkpt lat="43.656696" lon="12.2290181"><ele>606.75</ele><time>2026-04-11T10:54:49.605Z</time></trkpt><trkpt lat="43.6565832" lon="12.2290796"><ele>608.0</ele><time>2026-04-11T10:54:50.605Z</time></trkpt><trkpt lat="43.656482" lon="12.2291024"><ele>608.0</ele><time>2026-04-11T10:54:51.605Z</time></trkpt><trkpt lat="43.6563825" lon="12.2291523"><ele>608.0</ele><time>2026-04-11T10:54:52.605Z</time></trkpt><trkpt lat="43.656297" lon="12.2292133"><ele>608.0</ele><time>2026-04-11T10:54:53.605Z</time></trkpt><trkpt lat="43.6562101" lon="12.2292786"><ele>608.0</ele><time>2026-04-11T10:54:54.605Z</time></trkpt><trkpt lat="43.6561288" lon="12.2293485"><ele>608.0</ele><time>2026-04-11T10:54:55.605Z</time></trkpt><trkpt lat="43.6560557" lon="12.2294252"><ele>608.1999999999999</ele><time>2026-04-11T10:54:56.604Z</time></trkpt><trkpt lat="43.6559832" lon="12.2295108"><ele>608.4</ele><time>2026-04-11T10:54:57.604Z</time></trkpt><trkpt lat="43.6559063" lon="12.2295955"><ele>608.5999999999999</ele><time>2026-04-11T10:54:58.605Z</time></trkpt><trkpt lat="43.6558292" lon="12.2296809"><ele>608.8</ele><time>2026-04-11T10:54:59.604Z</time></trkpt><trkpt lat="43.655751" lon="12.2297667"><ele>609.0</ele><time>2026-04-11T10:55:00.605Z</time></trkpt><trkpt lat="43.6556705" lon="12.2298517"><ele>609.0</ele><time>2026-04-11T10:55:01.605Z</time></trkpt><trkpt lat="43.6555879" lon="12.2299232"><ele>609.0</ele><time>2026-04-11T10:55:02.605Z</time></trkpt><trkpt lat="43.6555061" lon="12.229998"><ele>609.0</ele><time>2026-04-11T10:55:03.605Z</time></trkpt><trkpt lat="43.6553954" lon="12.2300029"><ele>609.0</ele><time>2026-04-11T10:55:04.605Z</time></trkpt><trkpt lat="43.6553016" lon="12.2299404"><ele>609.0</ele><time>2026-04-11T10:55:05.605Z</time></trkpt><trkpt lat="43.6552117" lon="12.229939"><ele>605.8</ele><time>2026-04-11T10:55:06.605Z</time></trkpt><trkpt lat="43.6551354" lon="12.2299477"><ele>602.5999999999999</ele><time>2026-04-11T10:55:07.604Z</time></trkpt><trkpt lat="43.655057" lon="12.2299727"><ele>599.4</ele><time>2026-04-11T10:55:08.604Z</time></trkpt><trkpt lat="43.6549657" lon="12.2300217"><ele>596.1999999999999</ele><time>2026-04-11T10:55:09.604Z</time></trkpt><trkpt lat="43.6548811" lon="12.2300792"><ele>593.0</ele><time>2026-04-11T10:55:10.604Z</time></trkpt><trkpt lat="43.6547805" lon="12.2301502"><ele>593.0</ele><time>2026-04-11T10:55:11.604Z</time></trkpt><trkpt lat="43.6546861" lon="12.2302237"><ele>593.0</ele><time>2026-04-11T10:55:12.605Z</time></trkpt><trkpt lat="43.6545818" lon="12.2303021"><ele>593.0</ele><time>2026-04-11T10:55:13.605Z</time></trkpt><trkpt lat="43.6544785" lon="12.2303859"><ele>593.0</ele><time>2026-04-11T10:55:14.605Z</time></trkpt><trkpt lat="43.654375" lon="12.2304674"><ele>594.25</ele><time>2026-04-11T10:55:15.605Z</time></trkpt><trkpt lat="43.654268" lon="12.2305564"><ele>595.5</ele><time>2026-04-11T10:55:16.605Z</time></trkpt><trkpt lat="43.6541579" lon="12.2306421"><ele>596.75</ele><time>2026-04-11T10:55:17.605Z</time></trkpt><trkpt lat="43.6540524" lon="12.2307155"><ele>598.0</ele><time>2026-04-11T10:55:18.605Z</time></trkpt><trkpt lat="43.6539388" lon="12.2308013"><ele>598.0</ele><time>2026-04-11T10:55:19.605Z</time></trkpt><trkpt lat="43.6538243" lon="12.2308913"><ele>598.0</ele><time>2026-04-11T10:55:20.605Z</time></trkpt><trkpt lat="43.6537118" lon="12.2309732"><ele>598.0</ele><time>2026-04-11T10:55:21.603Z</time></trkpt><trkpt lat="43.6535988" lon="12.2310524"><ele>598.0</ele><time>2026-04-11T10:55:22.605Z</time></trkpt><trkpt lat="43.6534977" lon="12.2311313"><ele>595.0</ele><time>2026-04-11T10:55:23.605Z</time></trkpt><trkpt lat="43.6534059" lon="12.231217"><ele>592.0</ele><time>2026-04-11T10:55:24.604Z</time></trkpt><trkpt lat="43.653323" lon="12.2313159"><ele>589.0</ele><time>2026-04-11T10:55:25.604Z</time></trkpt><trkpt lat="43.6532476" lon="12.2314308"><ele>586.0</ele><time>2026-04-11T10:55:26.605Z</time></trkpt><trkpt lat="43.6531741" lon="12.2315595"><ele>586.0</ele><time>2026-04-11T10:55:27.604Z</time></trkpt><trkpt lat="43.6531116" lon="12.231697"><ele>586.0</ele><time>2026-04-11T10:55:28.605Z</time></trkpt><trkpt lat="43.6530649" lon="12.2318351"><ele>586.0</ele><time>2026-04-11T10:55:29.605Z</time></trkpt><trkpt lat="43.6530146" lon="12.2319665"><ele>586.0</ele><time>2026-04-11T10:55:30.605Z</time></trkpt><trkpt lat="43.6529941" lon="12.232103"><ele>586.0</ele><time>2026-04-11T10:55:31.605Z</time></trkpt><trkpt lat="43.6529733" lon="12.2322493"><ele>587.8</ele><time>2026-04-11T10:55:32.605Z</time></trkpt><trkpt lat="43.6529786" lon="12.2323712"><ele>589.6</ele><time>2026-04-11T10:55:33.605Z</time></trkpt><trkpt lat="43.6529788" lon="12.2325102"><ele>591.4</ele><time>2026-04-11T10:55:34.604Z</time></trkpt><trkpt lat="43.65298" lon="12.2326495"><ele>593.2</ele><time>2026-04-11T10:55:35.605Z</time></trkpt><trkpt lat="43.6529862" lon="12.2327866"><ele>595.0</ele><time>2026-04-11T10:55:36.604Z</time></trkpt><trkpt lat="43.6529865" lon="12.2329285"><ele>595.0</ele><time>2026-04-11T10:55:37.604Z</time></trkpt><trkpt lat="43.6529879" lon="12.2330736"><ele>595.0</ele><time>2026-04-11T10:55:38.605Z</time></trkpt><trkpt lat="43.6529904" lon="12.233217"><ele>595.0</ele><time>2026-04-11T10:55:39.605Z</time></trkpt><trkpt lat="43.6529906" lon="12.2333664"><ele>595.0</ele><time>2026-04-11T10:55:40.605Z</time></trkpt><trkpt lat="43.6529944" lon="12.233515"><ele>595.0</ele><time>2026-04-11T10:55:41.604Z</time></trkpt><trkpt lat="43.6529976" lon="12.2336717"><ele>595.25</ele><time>2026-04-11T10:55:42.605Z</time></trkpt><trkpt lat="43.6529971" lon="12.2338314"><ele>595.5</ele><time>2026-04-11T10:55:43.605Z</time></trkpt><trkpt lat="43.6529957" lon="12.2339984"><ele>595.75</ele><time>2026-04-11T10:55:44.604Z</time></trkpt><trkpt lat="43.6529946" lon="12.234161"><ele>596.0</ele><time>2026-04-11T10:55:45.604Z</time></trkpt><trkpt lat="43.6529956" lon="12.234316"><ele>594.8</ele><time>2026-04-11T10:55:46.604Z</time></trkpt><trkpt lat="43.6530006" lon="12.2344616"><ele>593.6</ele><time>2026-04-11T10:55:47.604Z</time></trkpt><trkpt lat="43.6530144" lon="12.2346054"><ele>592.4</ele><time>2026-04-11T10:55:48.604Z</time></trkpt><trkpt lat="43.6530413" lon="12.2347427"><ele>591.2</ele><time>2026-04-11T10:55:49.605Z</time></trkpt><trkpt lat="43.6530729" lon="12.2348779"><ele>590.0</ele><time>2026-04-11T10:55:50.605Z</time></trkpt><trkpt lat="43.6531136" lon="12.2350123"><ele>590.1666666666666</ele><time>2026-04-11T10:55:51.605Z</time></trkpt><trkpt lat="43.6531171" lon="12.2351228"><ele>590.3333333333333</ele><time>2026-04-11T10:55:52.604Z</time></trkpt><trkpt lat="43.6531046" lon="12.2352387"><ele>590.5</ele><time>2026-04-11T10:55:53.604Z</time></trkpt><trkpt lat="43.6530853" lon="12.2353551"><ele>590.6666666666666</ele><time>2026-04-11T10:55:54.604Z</time></trkpt><trkpt lat="43.6530479" lon="12.235465"><ele>590.8333333333334</ele><time>2026-04-11T10:55:55.604Z</time></trkpt><trkpt lat="43.6529916" lon="12.2355688"><ele>591.0</ele><time>2026-04-11T10:55:56.605Z</time></trkpt><trkpt lat="43.6529207" lon="12.2356655"><ele>591.0</ele><time>2026-04-11T10:55:57.605Z</time></trkpt><trkpt lat="43.6528384" lon="12.235757"><ele>591.0</ele><time>2026-04-11T10:55:58.604Z</time></trkpt><trkpt lat="43.6527477" lon="12.2358578"><ele>591.0</ele><time>2026-04-11T10:55:59.604Z</time></trkpt><trkpt lat="43.6526573" lon="12.2359594"><ele>591.0</ele><time>2026-04-11T10:56:00.605Z</time></trkpt><trkpt lat="43.6525723" lon="12.2360636"><ele>585.4</ele><time>2026-04-11T10:56:01.605Z</time></trkpt><trkpt lat="43.6524938" lon="12.236171"><ele>579.8</ele><time>2026-04-11T10:56:02.605Z</time></trkpt><trkpt lat="43.6524261" lon="12.2362773"><ele>574.1999999999999</ele><time>2026-04-11T10:56:03.605Z</time></trkpt><trkpt lat="43.6523718" lon="12.2363881"><ele>568.6</ele><time>2026-04-11T10:56:04.605Z</time></trkpt><trkpt lat="43.6523255" lon="12.2365036"><ele>563.0</ele><time>2026-04-11T10:56:05.605Z</time></trkpt><trkpt lat="43.6522875" lon="12.2366136"><ele>563.0</ele><time>2026-04-11T10:56:06.605Z</time></trkpt><trkpt lat="43.6522548" lon="12.2367204"><ele>563.0</ele><time>2026-04-11T10:56:07.605Z</time></trkpt><trkpt lat="43.6522191" lon="12.2368259"><ele>563.0</ele><time>2026-04-11T10:56:08.605Z</time></trkpt><trkpt lat="43.6521846" lon="12.2369296"><ele>563.0</ele><time>2026-04-11T10:56:09.605Z</time></trkpt><trkpt lat="43.6521508" lon="12.2370483"><ele>563.0</ele><time>2026-04-11T10:56:10.605Z</time></trkpt><trkpt lat="43.6521151" lon="12.2371643"><ele>563.0</ele><time>2026-04-11T10:56:11.605Z</time></trkpt><trkpt lat="43.6520789" lon="12.2372665"><ele>564.0</ele><time>2026-04-11T10:56:12.604Z</time></trkpt><trkpt lat="43.6520471" lon="12.2373685"><ele>565.0</ele><time>2026-04-11T10:56:13.605Z</time></trkpt><trkpt lat="43.6520189" lon="12.2374665"><ele>566.0</ele><time>2026-04-11T10:56:14.605Z</time></trkpt><trkpt lat="43.6520023" lon="12.2375759"><ele>567.0</ele><time>2026-04-11T10:56:15.605Z</time></trkpt><trkpt lat="43.6519941" lon="12.2377335"><ele>568.0</ele><time>2026-04-11T10:56:17.605Z</time></trkpt><trkpt lat="43.6519796" lon="12.237852"><ele>569.0</ele><time>2026-04-11T10:56:19.605Z</time></trkpt><trkpt lat="43.6519597" lon="12.237939"><ele>569.0</ele><time>2026-04-11T10:56:21.605Z</time></trkpt><trkpt lat="43.6519449" lon="12.2380492"><ele>569.0</ele><time>2026-04-11T10:56:29.605Z</time></trkpt><trkpt lat="43.6519219" lon="12.2381463"><ele>569.0</ele><time>2026-04-11T10:56:32.604Z</time></trkpt><trkpt lat="43.6519144" lon="12.2382449"><ele>569.0</ele><time>2026-04-11T10:56:35.605Z</time></trkpt><trkpt lat="43.6519467" lon="12.2381473"><ele>569.0</ele><time>2026-04-11T10:56:39.604Z</time></trkpt><trkpt lat="43.6519667" lon="12.2379792"><ele>569.0</ele><time>2026-04-11T10:56:41.604Z</time></trkpt><trkpt lat="43.651991" lon="12.2378608"><ele>569.0000000000001</ele><time>2026-04-11T10:56:43.605Z</time></trkpt><trkpt lat="43.6520248" lon="12.2379581"><ele>569.0</ele><time>2026-04-11T10:56:48.605Z</time></trkpt><trkpt lat="43.6520247" lon="12.2378592"><ele>569.0</ele><time>2026-04-11T10:57:35.605Z</time></trkpt><trkpt lat="43.6519694" lon="12.2378133"><ele>569.0</ele><time>2026-04-11T10:57:44.533Z</time></trkpt><trkpt lat="43.6519079" lon="12.2378326"><ele>569.0</ele><time>2026-04-11T10:57:50.605Z</time></trkpt><trkpt lat="43.6518435" lon="12.2378497"><ele>569.0000000000001</ele><time>2026-04-11T10:57:57.528Z</time></trkpt><trkpt lat="43.6517802" lon="12.2378537"><ele>569.0</ele><time>2026-04-11T10:58:03.557Z</time></trkpt><trkpt lat="43.6517634" lon="12.2379708"><ele>561.0</ele><time>2026-04-11T10:58:07.604Z</time></trkpt><trkpt lat="43.6517453" lon="12.2380583"><ele>561.0</ele><time>2026-04-11T10:58:12.605Z</time></trkpt><trkpt lat="43.6518186" lon="12.2380902"><ele>561.0</ele><time>2026-04-11T10:59:22.605Z</time></trkpt><trkpt lat="43.6518718" lon="12.2381424"><ele>560.0</ele><time>2026-04-11T10:59:51.603Z</time></trkpt><trkpt lat="43.6518437" lon="12.2380638"><ele>561.0</ele><time>2026-04-11T11:00:07.604Z</time></trkpt></trkseg><trkseg><trkpt lat="43.6519895" lon="12.2380812"><ele>569.0000000000001</ele><time>2026-04-11T12:55:42.604Z</time></trkpt><trkpt lat="43.6520217" lon="12.2379582"><ele>569.0</ele><time>2026-04-11T12:55:49.604Z</time></trkpt><trkpt lat="43.652062" lon="12.2378656"><ele>569.0</ele><time>2026-04-11T12:55:51.604Z</time></trkpt><trkpt lat="43.6520552" lon="12.2377736"><ele>569.0</ele><time>2026-04-11T12:55:53.604Z</time></trkpt><trkpt lat="43.6520055" lon="12.2378365"><ele>569.0</ele><time>2026-04-11T12:55:56.604Z</time></trkpt><trkpt lat="43.6519908" lon="12.2379236"><ele>569.0000000000001</ele><time>2026-04-11T12:55:59.604Z</time></trkpt><trkpt lat="43.6519917" lon="12.2380168"><ele>569.0</ele><time>2026-04-11T12:57:42.603Z</time></trkpt><trkpt lat="43.6519579" lon="12.2380996"><ele>567.2</ele><time>2026-04-11T12:57:46.603Z</time></trkpt><trkpt lat="43.6519397" lon="12.238203"><ele>565.4</ele><time>2026-04-11T12:57:48.603Z</time></trkpt><trkpt lat="43.6519237" lon="12.2383614"><ele>563.6</ele><time>2026-04-11T12:57:50.604Z</time></trkpt><trkpt lat="43.6519037" lon="12.2384478"><ele>561.8</ele><time>2026-04-11T12:57:51.604Z</time></trkpt><trkpt lat="43.6518897" lon="12.2386326"><ele>560.0</ele><time>2026-04-11T12:57:53.604Z</time></trkpt><trkpt lat="43.6518771" lon="12.2387355"><ele>560.0</ele><time>2026-04-11T12:57:54.604Z</time></trkpt><trkpt lat="43.6518592" lon="12.238833"><ele>560.0</ele><time>2026-04-11T12:57:55.603Z</time></trkpt><trkpt lat="43.6518329" lon="12.23893"><ele>560.0</ele><time>2026-04-11T12:57:56.604Z</time></trkpt><trkpt lat="43.6518105" lon="12.2390245"><ele>560.0</ele><time>2026-04-11T12:57:57.604Z</time></trkpt><trkpt lat="43.6517947" lon="12.2391234"><ele>560.0</ele><time>2026-04-11T12:57:58.604Z</time></trkpt><trkpt lat="43.651783" lon="12.2392224"><ele>560.0</ele><time>2026-04-11T12:57:59.604Z</time></trkpt><trkpt lat="43.6517757" lon="12.2393139"><ele>560.0</ele><time>2026-04-11T12:58:00.604Z</time></trkpt><trkpt lat="43.6517651" lon="12.2394232"><ele>559.6666666666666</ele><time>2026-04-11T12:58:01.604Z</time></trkpt><trkpt lat="43.6517554" lon="12.2395256"><ele>559.3333333333333</ele><time>2026-04-11T12:58:02.602Z</time></trkpt><trkpt lat="43.6517565" lon="12.2396357"><ele>559.0</ele><time>2026-04-11T12:58:03.603Z</time></trkpt><trkpt lat="43.6517763" lon="12.2397486"><ele>558.6666666666666</ele><time>2026-04-11T12:58:04.603Z</time></trkpt><trkpt lat="43.6518099" lon="12.2398572"><ele>558.3333333333334</ele><time>2026-04-11T12:58:05.604Z</time></trkpt><trkpt lat="43.651849" lon="12.2399468"><ele>558.0</ele><time>2026-04-11T12:58:06.603Z</time></trkpt><trkpt lat="43.6518904" lon="12.2400263"><ele>557.3333333333334</ele><time>2026-04-11T12:58:07.604Z</time></trkpt><trkpt lat="43.6519304" lon="12.2401073"><ele>556.6666666666666</ele><time>2026-04-11T12:58:08.604Z</time></trkpt><trkpt lat="43.6519699" lon="12.2401884"><ele>556.0</ele><time>2026-04-11T12:58:09.604Z</time></trkpt><trkpt lat="43.652004" lon="12.2402635"><ele>555.3333333333333</ele><time>2026-04-11T12:58:10.603Z</time></trkpt><trkpt lat="43.6520731" lon="12.2403938"><ele>554.6666666666666</ele><time>2026-04-11T12:58:12.604Z</time></trkpt><trkpt lat="43.6521344" lon="12.2405172"><ele>554.0</ele><time>2026-04-11T12:58:14.604Z</time></trkpt><trkpt lat="43.6521932" lon="12.2406505"><ele>555.8333333333333</ele><time>2026-04-11T12:58:16.604Z</time></trkpt><trkpt lat="43.6522577" lon="12.2407933"><ele>557.6666666666666</ele><time>2026-04-11T12:58:18.604Z</time></trkpt><trkpt lat="43.652292" lon="12.2408672"><ele>559.5</ele><time>2026-04-11T12:58:19.604Z</time></trkpt><trkpt lat="43.6523277" lon="12.2409461"><ele>561.3333333333334</ele><time>2026-04-11T12:58:20.604Z</time></trkpt><trkpt lat="43.6523643" lon="12.2410491"><ele>563.1666666666667</ele><time>2026-04-11T12:58:21.603Z</time></trkpt><trkpt lat="43.652403" lon="12.2411664"><ele>565.0</ele><time>2026-04-11T12:58:22.604Z</time></trkpt><trkpt lat="43.6524344" lon="12.2413053"><ele>565.0</ele><time>2026-04-11T12:58:23.603Z</time></trkpt><trkpt lat="43.6524624" lon="12.2414628"><ele>565.0</ele><time>2026-04-11T12:58:24.604Z</time></trkpt><trkpt lat="43.6524951" lon="12.2416391"><ele>565.0</ele><time>2026-04-11T12:58:25.604Z</time></trkpt><trkpt lat="43.6525371" lon="12.2418241"><ele>565.0</ele><time>2026-04-11T12:58:26.602Z</time></trkpt><trkpt lat="43.6525773" lon="12.2420144"><ele>561.6666666666667</ele><time>2026-04-11T12:58:27.604Z</time></trkpt><trkpt lat="43.6526079" lon="12.2422171"><ele>558.3333333333334</ele><time>2026-04-11T12:58:28.604Z</time></trkpt><trkpt lat="43.6526156" lon="12.2424311"><ele>555.0</ele><time>2026-04-11T12:58:29.604Z</time></trkpt><trkpt lat="43.6526071" lon="12.2426529"><ele>555.0</ele><time>2026-04-11T12:58:30.604Z</time></trkpt><trkpt lat="43.6525875" lon="12.2428826"><ele>555.0</ele><time>2026-04-11T12:58:31.603Z</time></trkpt><trkpt lat="43.6525684" lon="12.2431165"><ele>555.0</ele><time>2026-04-11T12:58:32.604Z</time></trkpt><trkpt lat="43.6525557" lon="12.2433542"><ele>555.0</ele><time>2026-04-11T12:58:33.603Z</time></trkpt><trkpt lat="43.6525572" lon="12.2435905"><ele>555.0</ele><time>2026-04-11T12:58:34.603Z</time></trkpt><trkpt lat="43.6525762" lon="12.2438246"><ele>555.0</ele><time>2026-04-11T12:58:35.604Z</time></trkpt><trkpt lat="43.6526113" lon="12.2440559"><ele>555.0</ele><time>2026-04-11T12:58:36.602Z</time></trkpt><trkpt lat="43.6526446" lon="12.2442874"><ele>555.0</ele><time>2026-04-11T12:58:37.604Z</time></trkpt><trkpt lat="43.652658" lon="12.2445359"><ele>555.0</ele><time>2026-04-11T12:58:38.604Z</time></trkpt><trkpt lat="43.6526564" lon="12.2447824"><ele>557.3333333333334</ele><time>2026-04-11T12:58:39.604Z</time></trkpt><trkpt lat="43.6526587" lon="12.2450322"><ele>559.6666666666667</ele><time>2026-04-11T12:58:40.603Z</time></trkpt><trkpt lat="43.6526638" lon="12.2452796"><ele>562.0</ele><time>2026-04-11T12:58:41.604Z</time></trkpt><trkpt lat="43.6526687" lon="12.2455295"><ele>565.0</ele><time>2026-04-11T12:58:42.604Z</time></trkpt><trkpt lat="43.6526782" lon="12.2457666"><ele>568.0</ele><time>2026-04-11T12:58:43.604Z</time></trkpt><trkpt lat="43.6527002" lon="12.2459862"><ele>571.0</ele><time>2026-04-11T12:58:44.604Z</time></trkpt><trkpt lat="43.6527292" lon="12.2462044"><ele>571.0</ele><time>2026-04-11T12:58:45.604Z</time></trkpt><trkpt lat="43.6527548" lon="12.2463719"><ele>571.0</ele><time>2026-04-11T12:58:46.603Z</time></trkpt><trkpt lat="43.6527903" lon="12.2465261"><ele>571.0</ele><time>2026-04-11T12:58:47.603Z</time></trkpt><trkpt lat="43.6527918" lon="12.246645"><ele>571.0</ele><time>2026-04-11T12:58:48.604Z</time></trkpt><trkpt lat="43.6527456" lon="12.2467479"><ele>571.0</ele><time>2026-04-11T12:58:49.604Z</time></trkpt><trkpt lat="43.6526586" lon="12.2468044"><ele>568.75</ele><time>2026-04-11T12:58:50.603Z</time></trkpt><trkpt lat="43.6525724" lon="12.2468754"><ele>566.5</ele><time>2026-04-11T12:58:51.604Z</time></trkpt><trkpt lat="43.6524883" lon="12.246951"><ele>564.25</ele><time>2026-04-11T12:58:52.604Z</time></trkpt><trkpt lat="43.6523643" lon="12.2470423"><ele>562.0</ele><time>2026-04-11T12:58:53.603Z</time></trkpt><trkpt lat="43.6522451" lon="12.2471529"><ele>562.0</ele><time>2026-04-11T12:58:54.603Z</time></trkpt><trkpt lat="43.6521294" lon="12.2472708"><ele>562.0</ele><time>2026-04-11T12:58:55.603Z</time></trkpt><trkpt lat="43.6520175" lon="12.2473884"><ele>562.0</ele><time>2026-04-11T12:58:56.604Z</time></trkpt><trkpt lat="43.6519126" lon="12.247507"><ele>562.0</ele><time>2026-04-11T12:58:57.604Z</time></trkpt><trkpt lat="43.6517863" lon="12.2476385"><ele>563.3333333333334</ele><time>2026-04-11T12:58:58.604Z</time></trkpt><trkpt lat="43.6516629" lon="12.2477698"><ele>564.6666666666666</ele><time>2026-04-11T12:58:59.604Z</time></trkpt><trkpt lat="43.6515424" lon="12.2479195"><ele>566.0</ele><time>2026-04-11T12:59:00.604Z</time></trkpt><trkpt lat="43.6514447" lon="12.2480774"><ele>560.0</ele><time>2026-04-11T12:59:01.604Z</time></trkpt><trkpt lat="43.6513793" lon="12.2482694"><ele>554.0</ele><time>2026-04-11T12:59:02.602Z</time></trkpt><trkpt lat="43.6513424" lon="12.248473"><ele>548.0</ele><time>2026-04-11T12:59:03.604Z</time></trkpt><trkpt lat="43.6513196" lon="12.2486791"><ele>548.0</ele><time>2026-04-11T12:59:04.604Z</time></trkpt><trkpt lat="43.6513091" lon="12.248895"><ele>548.0</ele><time>2026-04-11T12:59:05.604Z</time></trkpt><trkpt lat="43.651308" lon="12.2491097"><ele>548.0</ele><time>2026-04-11T12:59:06.603Z</time></trkpt><trkpt lat="43.6513185" lon="12.2493164"><ele>548.0</ele><time>2026-04-11T12:59:07.604Z</time></trkpt><trkpt lat="43.6513422" lon="12.2495238"><ele>548.0</ele><time>2026-04-11T12:59:08.604Z</time></trkpt><trkpt lat="43.6513838" lon="12.2497454"><ele>548.0</ele><time>2026-04-11T12:59:09.603Z</time></trkpt><trkpt lat="43.6514354" lon="12.2499559"><ele>550.0</ele><time>2026-04-11T12:59:10.604Z</time></trkpt><trkpt lat="43.6515163" lon="12.2501519"><ele>552.0</ele><time>2026-04-11T12:59:11.603Z</time></trkpt><trkpt lat="43.6516136" lon="12.2503293"><ele>554.0</ele><time>2026-04-11T12:59:12.604Z</time></trkpt><trkpt lat="43.6517198" lon="12.2504686"><ele>554.0</ele><time>2026-04-11T12:59:13.603Z</time></trkpt><trkpt lat="43.6518426" lon="12.2506123"><ele>554.0</ele><time>2026-04-11T12:59:14.603Z</time></trkpt><trkpt lat="43.651969" lon="12.2507292"><ele>554.0</ele><time>2026-04-11T12:59:15.604Z</time></trkpt><trkpt lat="43.6521062" lon="12.2507969"><ele>552.4</ele><time>2026-04-11T12:59:16.604Z</time></trkpt><trkpt lat="43.6522217" lon="12.2508803"><ele>550.8</ele><time>2026-04-11T12:59:17.603Z</time></trkpt><trkpt lat="43.6522583" lon="12.2510007"><ele>549.2</ele><time>2026-04-11T12:59:18.603Z</time></trkpt><trkpt lat="43.6523139" lon="12.2511154"><ele>547.6</ele><time>2026-04-11T12:59:19.604Z</time></trkpt><trkpt lat="43.6523105" lon="12.2512502"><ele>546.0</ele><time>2026-04-11T12:59:20.604Z</time></trkpt><trkpt lat="43.6522985" lon="12.2513756"><ele>545.8333333333334</ele><time>2026-04-11T12:59:21.604Z</time></trkpt><trkpt lat="43.6522811" lon="12.2514898"><ele>545.6666666666666</ele><time>2026-04-11T12:59:22.604Z</time></trkpt><trkpt lat="43.6522642" lon="12.2515802"><ele>545.5</ele><time>2026-04-11T12:59:23.603Z</time></trkpt><trkpt lat="43.6522549" lon="12.2517265"><ele>545.3333333333333</ele><time>2026-04-11T12:59:25.604Z</time></trkpt><trkpt lat="43.6522192" lon="12.2518106"><ele>545.1666666666666</ele><time>2026-04-11T12:59:29.604Z</time></trkpt><trkpt lat="43.6521497" lon="12.2518472"><ele>545.0</ele><time>2026-04-11T12:59:44.603Z</time></trkpt><trkpt lat="43.652089" lon="12.251785"><ele>545.0</ele><time>2026-04-11T12:59:46.603Z</time></trkpt><trkpt lat="43.6520485" lon="12.2516897"><ele>545.0</ele><time>2026-04-11T12:59:47.604Z</time></trkpt><trkpt lat="43.6519683" lon="12.2516344"><ele>545.0</ele><time>2026-04-11T12:59:49.604Z</time></trkpt><trkpt lat="43.6518835" lon="12.2516536"><ele>545.0</ele><time>2026-04-11T12:59:51.603Z</time></trkpt><trkpt lat="43.6518009" lon="12.2517326"><ele>545.0</ele><time>2026-04-11T12:59:53.604Z</time></trkpt><trkpt lat="43.6517214" lon="12.2518581"><ele>546.6666666666666</ele><time>2026-04-11T12:59:55.604Z</time></trkpt><trkpt lat="43.6516773" lon="12.2519258"><ele>548.3333333333333</ele><time>2026-04-11T12:59:56.604Z</time></trkpt><trkpt lat="43.6516337" lon="12.252014"><ele>550.0</ele><time>2026-04-11T12:59:57.604Z</time></trkpt><trkpt lat="43.6515989" lon="12.2521222"><ele>551.6666666666666</ele><time>2026-04-11T12:59:58.604Z</time></trkpt><trkpt lat="43.6515631" lon="12.2522309"><ele>553.3333333333334</ele><time>2026-04-11T12:59:59.604Z</time></trkpt><trkpt lat="43.6515261" lon="12.2523022"><ele>555.0</ele><time>2026-04-11T13:00:00.603Z</time></trkpt><trkpt lat="43.6514852" lon="12.2523852"><ele>558.6</ele><time>2026-04-11T13:00:01.603Z</time></trkpt><trkpt lat="43.6514299" lon="12.2525283"><ele>562.2</ele><time>2026-04-11T13:00:03.603Z</time></trkpt><trkpt lat="43.6513969" lon="12.2526063"><ele>565.8</ele><time>2026-04-11T13:00:04.604Z</time></trkpt><trkpt lat="43.6513665" lon="12.2526829"><ele>569.4</ele><time>2026-04-11T13:00:05.604Z</time></trkpt><trkpt lat="43.6512474" lon="12.2527785"><ele>573.0</ele><time>2026-04-11T13:00:07.604Z</time></trkpt><trkpt lat="43.6511814" lon="12.252805"><ele>571.8333333333334</ele><time>2026-04-11T13:00:08.604Z</time></trkpt><trkpt lat="43.6511057" lon="12.2528396"><ele>570.6666666666666</ele><time>2026-04-11T13:00:09.604Z</time></trkpt><trkpt lat="43.6510409" lon="12.2528487"><ele>569.5</ele><time>2026-04-11T13:00:10.604Z</time></trkpt><trkpt lat="43.6509612" lon="12.2528547"><ele>568.3333333333333</ele><time>2026-04-11T13:00:11.604Z</time></trkpt><trkpt lat="43.6508838" lon="12.2528558"><ele>567.1666666666666</ele><time>2026-04-11T13:00:12.604Z</time></trkpt><trkpt lat="43.6508089" lon="12.2528629"><ele>566.0</ele><time>2026-04-11T13:00:13.604Z</time></trkpt><trkpt lat="43.6507356" lon="12.2528716"><ele>566.0</ele><time>2026-04-11T13:00:14.602Z</time></trkpt><trkpt lat="43.6506577" lon="12.2528867"><ele>566.0</ele><time>2026-04-11T13:00:15.604Z</time></trkpt><trkpt lat="43.6505891" lon="12.252893"><ele>566.0</ele><time>2026-04-11T13:00:16.604Z</time></trkpt><trkpt lat="43.6505125" lon="12.2528964"><ele>566.0</ele><time>2026-04-11T13:00:17.603Z</time></trkpt><trkpt lat="43.6504198" lon="12.2529139"><ele>566.0</ele><time>2026-04-11T13:00:18.604Z</time></trkpt><trkpt lat="43.6503516" lon="12.2529784"><ele>566.0</ele><time>2026-04-11T13:00:19.603Z</time></trkpt><trkpt lat="43.6502928" lon="12.2530146"><ele>568.6666666666666</ele><time>2026-04-11T13:00:20.604Z</time></trkpt><trkpt lat="43.6502373" lon="12.2530699"><ele>571.3333333333333</ele><time>2026-04-11T13:00:21.604Z</time></trkpt><trkpt lat="43.6501704" lon="12.2531247"><ele>574.0</ele><time>2026-04-11T13:00:22.603Z</time></trkpt><trkpt lat="43.6501067" lon="12.2532089"><ele>576.6666666666666</ele><time>2026-04-11T13:00:23.602Z</time></trkpt><trkpt lat="43.6500424" lon="12.2532867"><ele>579.3333333333334</ele><time>2026-04-11T13:00:24.603Z</time></trkpt><trkpt lat="43.6499805" lon="12.2533409"><ele>582.0</ele><time>2026-04-11T13:00:25.603Z</time></trkpt><trkpt lat="43.6498922" lon="12.253391"><ele>582.3333333333334</ele><time>2026-04-11T13:00:26.604Z</time></trkpt><trkpt lat="43.6498116" lon="12.2534454"><ele>582.6666666666666</ele><time>2026-04-11T13:00:27.604Z</time></trkpt><trkpt lat="43.649742" lon="12.2534845"><ele>583.0</ele><time>2026-04-11T13:00:28.603Z</time></trkpt><trkpt lat="43.6496742" lon="12.2535254"><ele>583.3333333333333</ele><time>2026-04-11T13:00:29.604Z</time></trkpt><trkpt lat="43.649598" lon="12.2535503"><ele>583.6666666666666</ele><time>2026-04-11T13:00:31.604Z</time></trkpt><trkpt lat="43.6495316" lon="12.2536149"><ele>584.0</ele><time>2026-04-11T13:00:33.604Z</time></trkpt><trkpt lat="43.64947" lon="12.253707"><ele>584.1666666666666</ele><time>2026-04-11T13:00:35.603Z</time></trkpt><trkpt lat="43.6493948" lon="12.2537708"><ele>584.3333333333333</ele><time>2026-04-11T13:00:37.604Z</time></trkpt><trkpt lat="43.6492906" lon="12.2537745"><ele>584.5</ele><time>2026-04-11T13:00:39.603Z</time></trkpt><trkpt lat="43.649192" lon="12.2538578"><ele>584.6666666666666</ele><time>2026-04-11T13:00:41.603Z</time></trkpt><trkpt lat="43.6491314" lon="12.2538945"><ele>584.8333333333334</ele><time>2026-04-11T13:00:42.604Z</time></trkpt><trkpt lat="43.6490664" lon="12.2539468"><ele>585.0</ele><time>2026-04-11T13:00:43.603Z</time></trkpt><trkpt lat="43.648929" lon="12.2539815"><ele>587.5</ele><time>2026-04-11T13:00:45.604Z</time></trkpt><trkpt lat="43.6488541" lon="12.2540123"><ele>590.0</ele><time>2026-04-11T13:00:46.604Z</time></trkpt><trkpt lat="43.6487818" lon="12.2540344"><ele>592.5</ele><time>2026-04-11T13:00:47.603Z</time></trkpt><trkpt lat="43.6487039" lon="12.2540386"><ele>595.0</ele><time>2026-04-11T13:00:48.603Z</time></trkpt><trkpt lat="43.6486297" lon="12.2540275"><ele>597.5</ele><time>2026-04-11T13:00:49.604Z</time></trkpt><trkpt lat="43.6485428" lon="12.2540129"><ele>600.0</ele><time>2026-04-11T13:00:50.603Z</time></trkpt><trkpt lat="43.6484603" lon="12.2540091"><ele>600.0</ele><time>2026-04-11T13:00:51.604Z</time></trkpt><trkpt lat="43.6483757" lon="12.2539876"><ele>600.0</ele><time>2026-04-11T13:00:52.604Z</time></trkpt><trkpt lat="43.6482939" lon="12.2539744"><ele>600.0</ele><time>2026-04-11T13:00:53.604Z</time></trkpt><trkpt lat="43.6482094" lon="12.2539607"><ele>600.0</ele><time>2026-04-11T13:00:54.604Z</time></trkpt><trkpt lat="43.6481164" lon="12.253949"><ele>600.0</ele><time>2026-04-11T13:00:55.604Z</time></trkpt><trkpt lat="43.6480313" lon="12.2539486"><ele>600.0</ele><time>2026-04-11T13:00:56.604Z</time></trkpt><trkpt lat="43.6479575" lon="12.253946"><ele>599.9999999999999</ele><time>2026-04-11T13:00:57.603Z</time></trkpt><trkpt lat="43.6478884" lon="12.2539594"><ele>600.0</ele><time>2026-04-11T13:00:58.604Z</time></trkpt><trkpt lat="43.6478686" lon="12.2540522"><ele>600.0</ele><time>2026-04-11T13:00:59.603Z</time></trkpt><trkpt lat="43.6478054" lon="12.2541327"><ele>600.0</ele><time>2026-04-11T13:01:00.604Z</time></trkpt><trkpt lat="43.647749" lon="12.2541717"><ele>600.0</ele><time>2026-04-11T13:01:01.603Z</time></trkpt><trkpt lat="43.6476851" lon="12.2541899"><ele>599.9999999999999</ele><time>2026-04-11T13:01:02.603Z</time></trkpt><trkpt lat="43.6476207" lon="12.2542028"><ele>600.0</ele><time>2026-04-11T13:01:03.604Z</time></trkpt><trkpt lat="43.6475547" lon="12.2542357"><ele>600.3333333333334</ele><time>2026-04-11T13:01:04.603Z</time></trkpt><trkpt lat="43.6474964" lon="12.2542872"><ele>600.6666666666666</ele><time>2026-04-11T13:01:05.604Z</time></trkpt><trkpt lat="43.6474433" lon="12.25434"><ele>601.0</ele><time>2026-04-11T13:01:06.604Z</time></trkpt><trkpt lat="43.6473643" lon="12.254429"><ele>601.3333333333333</ele><time>2026-04-11T13:01:08.603Z</time></trkpt><trkpt lat="43.6473119" lon="12.2545034"><ele>601.6666666666666</ele><time>2026-04-11T13:01:09.603Z</time></trkpt><trkpt lat="43.6471949" lon="12.2545779"><ele>602.0</ele><time>2026-04-11T13:01:11.604Z</time></trkpt><trkpt lat="43.6471155" lon="12.2546057"><ele>602.0</ele><time>2026-04-11T13:01:12.604Z</time></trkpt><trkpt lat="43.647036" lon="12.2546446"><ele>602.0</ele><time>2026-04-11T13:01:13.604Z</time></trkpt><trkpt lat="43.6469077" lon="12.2546652"><ele>602.0</ele><time>2026-04-11T13:01:15.604Z</time></trkpt><trkpt lat="43.646845" lon="12.2548197"><ele>602.0</ele><time>2026-04-11T13:01:17.603Z</time></trkpt><trkpt lat="43.6468235" lon="12.2549029"><ele>602.0</ele><time>2026-04-11T13:01:18.604Z</time></trkpt><trkpt lat="43.6468495" lon="12.2550773"><ele>603.6666666666666</ele><time>2026-04-11T13:01:20.604Z</time></trkpt><trkpt lat="43.6468562" lon="12.2551711"><ele>605.3333333333333</ele><time>2026-04-11T13:01:21.603Z</time></trkpt><trkpt lat="43.6468172" lon="12.2552856"><ele>607.0</ele><time>2026-04-11T13:01:23.604Z</time></trkpt><trkpt lat="43.6467559" lon="12.2553965"><ele>608.6666666666666</ele><time>2026-04-11T13:01:25.604Z</time></trkpt><trkpt lat="43.6466844" lon="12.2554363"><ele>610.3333333333334</ele><time>2026-04-11T13:01:26.604Z</time></trkpt><trkpt lat="43.646626" lon="12.2555102"><ele>612.0</ele><time>2026-04-11T13:01:27.604Z</time></trkpt><trkpt lat="43.6465563" lon="12.2556088"><ele>613.3333333333334</ele><time>2026-04-11T13:01:28.604Z</time></trkpt><trkpt lat="43.6464858" lon="12.2556521"><ele>614.6666666666666</ele><time>2026-04-11T13:01:29.604Z</time></trkpt><trkpt lat="43.6464146" lon="12.2556754"><ele>616.0</ele><time>2026-04-11T13:01:30.604Z</time></trkpt><trkpt lat="43.6463438" lon="12.2557232"><ele>617.3333333333333</ele><time>2026-04-11T13:01:31.604Z</time></trkpt><trkpt lat="43.646272" lon="12.2557719"><ele>618.6666666666666</ele><time>2026-04-11T13:01:32.604Z</time></trkpt><trkpt lat="43.646163" lon="12.2558059"><ele>620.0</ele><time>2026-04-11T13:01:34.604Z</time></trkpt><trkpt lat="43.6460628" lon="12.2557835"><ele>621.4</ele><time>2026-04-11T13:01:36.603Z</time></trkpt><trkpt lat="43.6459525" lon="12.255779"><ele>622.8</ele><time>2026-04-11T13:01:38.603Z</time></trkpt><trkpt lat="43.6458808" lon="12.2557871"><ele>624.2</ele><time>2026-04-11T13:01:39.604Z</time></trkpt><trkpt lat="43.6458141" lon="12.2557988"><ele>625.6</ele><time>2026-04-11T13:01:40.604Z</time></trkpt><trkpt lat="43.6457479" lon="12.2558042"><ele>627.0</ele><time>2026-04-11T13:01:41.604Z</time></trkpt><trkpt lat="43.6456093" lon="12.2558134"><ele>627.0</ele><time>2026-04-11T13:01:43.604Z</time></trkpt><trkpt lat="43.6454867" lon="12.2558549"><ele>627.0</ele><time>2026-04-11T13:01:45.604Z</time></trkpt><trkpt lat="43.6453804" lon="12.2559002"><ele>627.0</ele><time>2026-04-11T13:01:47.603Z</time></trkpt><trkpt lat="43.6452858" lon="12.2559295"><ele>627.0</ele><time>2026-04-11T13:01:49.604Z</time></trkpt><trkpt lat="43.6452454" lon="12.255808"><ele>627.0</ele><time>2026-04-11T13:01:51.604Z</time></trkpt><trkpt lat="43.6452188" lon="12.2556283"><ele>631.0</ele><time>2026-04-11T13:01:53.604Z</time></trkpt><trkpt lat="43.6451719" lon="12.2555502"><ele>635.0</ele><time>2026-04-11T13:01:54.603Z</time></trkpt><trkpt lat="43.645121" lon="12.2554536"><ele>639.0</ele><time>2026-04-11T13:01:55.604Z</time></trkpt><trkpt lat="43.6450592" lon="12.2553555"><ele>643.0</ele><time>2026-04-11T13:01:56.604Z</time></trkpt><trkpt lat="43.6450355" lon="12.2552699"><ele>647.0</ele><time>2026-04-11T13:01:57.604Z</time></trkpt><trkpt lat="43.6449651" lon="12.2552277"><ele>651.0</ele><time>2026-04-11T13:01:58.603Z</time></trkpt><trkpt lat="43.6449097" lon="12.2551584"><ele>651.0</ele><time>2026-04-11T13:01:59.604Z</time></trkpt><trkpt lat="43.6448174" lon="12.2550846"><ele>651.0</ele><time>2026-04-11T13:02:01.604Z</time></trkpt><trkpt lat="43.6447527" lon="12.2550301"><ele>651.0</ele><time>2026-04-11T13:02:02.602Z</time></trkpt><trkpt lat="43.6446978" lon="12.2549784"><ele>651.0</ele><time>2026-04-11T13:02:03.604Z</time></trkpt><trkpt lat="43.6446249" lon="12.2548106"><ele>651.0</ele><time>2026-04-11T13:02:05.604Z</time></trkpt><trkpt lat="43.6445786" lon="12.2547009"><ele>655.5999999999999</ele><time>2026-04-11T13:02:07.604Z</time></trkpt><trkpt lat="43.6444879" lon="12.2546094"><ele>660.2</ele><time>2026-04-11T13:02:09.604Z</time></trkpt><trkpt lat="43.6444096" lon="12.2544962"><ele>664.8</ele><time>2026-04-11T13:02:11.602Z</time></trkpt><trkpt lat="43.6443327" lon="12.2544693"><ele>669.4000000000001</ele><time>2026-04-11T13:02:13.603Z</time></trkpt><trkpt lat="43.6442437" lon="12.2545836"><ele>674.0</ele><time>2026-04-11T13:02:15.604Z</time></trkpt><trkpt lat="43.6441494" lon="12.2546393"><ele>674.0</ele><time>2026-04-11T13:02:17.603Z</time></trkpt><trkpt lat="43.644034" lon="12.2547127"><ele>674.0</ele><time>2026-04-11T13:02:19.604Z</time></trkpt><trkpt lat="43.643991" lon="12.2547773"><ele>674.0</ele><time>2026-04-11T13:02:20.604Z</time></trkpt><trkpt lat="43.6438748" lon="12.2548708"><ele>674.0</ele><time>2026-04-11T13:02:22.603Z</time></trkpt><trkpt lat="43.6437739" lon="12.2548413"><ele>674.0</ele><time>2026-04-11T13:02:24.604Z</time></trkpt><trkpt lat="43.6437109" lon="12.2548415"><ele>673.6666666666666</ele><time>2026-04-11T13:02:25.602Z</time></trkpt><trkpt lat="43.6436454" lon="12.2548398"><ele>673.3333333333333</ele><time>2026-04-11T13:02:26.604Z</time></trkpt><trkpt lat="43.6435741" lon="12.2548272"><ele>673.0</ele><time>2026-04-11T13:02:27.604Z</time></trkpt><trkpt lat="43.6434892" lon="12.2548668"><ele>672.6666666666666</ele><time>2026-04-11T13:02:28.604Z</time></trkpt><trkpt lat="43.6434102" lon="12.2548889"><ele>672.3333333333334</ele><time>2026-04-11T13:02:29.604Z</time></trkpt><trkpt lat="43.6432805" lon="12.2549007"><ele>672.0</ele><time>2026-04-11T13:02:31.603Z</time></trkpt><trkpt lat="43.6431639" lon="12.2548913"><ele>672.0</ele><time>2026-04-11T13:02:33.604Z</time></trkpt><trkpt lat="43.6430899" lon="12.2549126"><ele>672.0</ele><time>2026-04-11T13:02:35.604Z</time></trkpt><trkpt lat="43.6430239" lon="12.2549754"><ele>672.0</ele><time>2026-04-11T13:02:38.603Z</time></trkpt><trkpt lat="43.6429692" lon="12.2550636"><ele>672.0</ele><time>2026-04-11T13:02:40.604Z</time></trkpt><trkpt lat="43.6429464" lon="12.2551994"><ele>672.0</ele><time>2026-04-11T13:02:42.603Z</time></trkpt><trkpt lat="43.6429101" lon="12.2552973"><ele>672.0</ele><time>2026-04-11T13:02:45.603Z</time></trkpt><trkpt lat="43.6428471" lon="12.255209"><ele>672.0</ele><time>2026-04-11T13:02:48.603Z</time></trkpt><trkpt lat="43.6428614" lon="12.2550886"><ele>672.0</ele><time>2026-04-11T13:02:50.604Z</time></trkpt><trkpt lat="43.642892" lon="12.2550114"><ele>672.0</ele><time>2026-04-11T13:02:51.604Z</time></trkpt><trkpt lat="43.6428773" lon="12.2548842"><ele>672.0</ele><time>2026-04-11T13:02:53.603Z</time></trkpt><trkpt lat="43.6428215" lon="12.2548403"><ele>672.0</ele><time>2026-04-11T13:02:55.604Z</time></trkpt><trkpt lat="43.6427366" lon="12.2548629"><ele>672.0</ele><time>2026-04-11T13:02:56.604Z</time></trkpt><trkpt lat="43.6426593" lon="12.2548372"><ele>675.4000000000001</ele><time>2026-04-11T13:02:58.604Z</time></trkpt><trkpt lat="43.6425626" lon="12.2548616"><ele>678.8000000000001</ele><time>2026-04-11T13:03:00.604Z</time></trkpt><trkpt lat="43.6424965" lon="12.2548786"><ele>682.2</ele><time>2026-04-11T13:03:01.603Z</time></trkpt><trkpt lat="43.6423891" lon="12.2548899"><ele>685.6</ele><time>2026-04-11T13:03:03.604Z</time></trkpt><trkpt lat="43.6423224" lon="12.2549024"><ele>689.0</ele><time>2026-04-11T13:03:05.604Z</time></trkpt><trkpt lat="43.6422053" lon="12.2549007"><ele>689.0</ele><time>2026-04-11T13:03:07.604Z</time></trkpt><trkpt lat="43.6421083" lon="12.2549255"><ele>689.0</ele><time>2026-04-11T13:03:11.603Z</time></trkpt><trkpt lat="43.6419824" lon="12.2548827"><ele>689.0</ele><time>2026-04-11T13:03:12.604Z</time></trkpt><trkpt lat="43.6418953" lon="12.2548494"><ele>689.0</ele><time>2026-04-11T13:03:13.603Z</time></trkpt><trkpt lat="43.6418483" lon="12.2547842"><ele>689.0</ele><time>2026-04-11T13:03:14.603Z</time></trkpt><trkpt lat="43.6417901" lon="12.2546396"><ele>692.8000000000001</ele><time>2026-04-11T13:03:16.603Z</time></trkpt><trkpt lat="43.6418503" lon="12.2545754"><ele>696.6</ele><time>2026-04-11T13:03:18.604Z</time></trkpt><trkpt lat="43.6418262" lon="12.2544507"><ele>700.4</ele><time>2026-04-11T13:03:20.604Z</time></trkpt><trkpt lat="43.6417687" lon="12.2543638"><ele>704.2</ele><time>2026-04-11T13:03:23.603Z</time></trkpt><trkpt lat="43.6416759" lon="12.2543253"><ele>708.0</ele><time>2026-04-11T13:03:26.603Z</time></trkpt><trkpt lat="43.6415663" lon="12.2543385"><ele>708.0</ele><time>2026-04-11T13:03:27.604Z</time></trkpt><trkpt lat="43.6414782" lon="12.2543018"><ele>708.0</ele><time>2026-04-11T13:03:28.603Z</time></trkpt><trkpt lat="43.6414382" lon="12.2541952"><ele>708.0</ele><time>2026-04-11T13:03:29.604Z</time></trkpt><trkpt lat="43.6413688" lon="12.2541286"><ele>708.0</ele><time>2026-04-11T13:03:30.603Z</time></trkpt><trkpt lat="43.6412801" lon="12.2540172"><ele>708.0</ele><time>2026-04-11T13:03:32.604Z</time></trkpt><trkpt lat="43.6411791" lon="12.2539573"><ele>713.5999999999999</ele><time>2026-04-11T13:03:34.604Z</time></trkpt><trkpt lat="43.6411017" lon="12.2539696"><ele>719.1999999999999</ele><time>2026-04-11T13:03:36.604Z</time></trkpt><trkpt lat="43.6410093" lon="12.2539574"><ele>724.8</ele><time>2026-04-11T13:03:38.603Z</time></trkpt><trkpt lat="43.6409225" lon="12.253894"><ele>730.4</ele><time>2026-04-11T13:03:40.603Z</time></trkpt><trkpt lat="43.640835" lon="12.2538299"><ele>736.0</ele><time>2026-04-11T13:03:42.603Z</time></trkpt><trkpt lat="43.6407334" lon="12.253775"><ele>736.4285714285714</ele><time>2026-04-11T13:03:44.604Z</time></trkpt><trkpt lat="43.640698" lon="12.2536963"><ele>736.8571428571428</ele><time>2026-04-11T13:03:46.604Z</time></trkpt><trkpt lat="43.6407086" lon="12.2536007"><ele>737.2857142857142</ele><time>2026-04-11T13:03:48.603Z</time></trkpt><trkpt lat="43.6407099" lon="12.2535115"><ele>737.7142857142858</ele><time>2026-04-11T13:03:50.604Z</time></trkpt><trkpt lat="43.6406589" lon="12.2534397"><ele>738.1428571428571</ele><time>2026-04-11T13:03:59.604Z</time></trkpt><trkpt lat="43.6406063" lon="12.2533578"><ele>738.5714285714286</ele><time>2026-04-11T13:04:01.604Z</time></trkpt><trkpt lat="43.6405435" lon="12.253266"><ele>739.0</ele><time>2026-04-11T13:04:03.604Z</time></trkpt><trkpt lat="43.6405017" lon="12.2531981"><ele>739.0</ele><time>2026-04-11T13:04:05.603Z</time></trkpt><trkpt lat="43.640544" lon="12.2533518"><ele>739.0</ele><time>2026-04-11T13:04:06.526Z</time></trkpt><trkpt lat="43.6405084" lon="12.2532613"><ele>739.0</ele><time>2026-04-11T13:04:10.604Z</time></trkpt><trkpt lat="43.6404889" lon="12.2531574"><ele>739.0</ele><time>2026-04-11T13:04:14.604Z</time></trkpt><trkpt lat="43.6403545" lon="12.2529302"><ele>741.8333333333334</ele><time>2026-04-11T13:04:17.604Z</time></trkpt><trkpt lat="43.640316" lon="12.2528265"><ele>744.6666666666667</ele><time>2026-04-11T13:04:19.604Z</time></trkpt><trkpt lat="43.6403038" lon="12.2527383"><ele>747.5</ele><time>2026-04-11T13:04:21.608Z</time></trkpt><trkpt lat="43.6402752" lon="12.2526398"><ele>750.3333333333334</ele><time>2026-04-11T13:04:22.604Z</time></trkpt><trkpt lat="43.640222" lon="12.2525326"><ele>753.1666666666666</ele><time>2026-04-11T13:04:24.604Z</time></trkpt><trkpt lat="43.6401431" lon="12.2524672"><ele>756.0</ele><time>2026-04-11T13:04:26.603Z</time></trkpt><trkpt lat="43.6400563" lon="12.2523827"><ele>757.8333333333334</ele><time>2026-04-11T13:04:28.604Z</time></trkpt><trkpt lat="43.6399653" lon="12.2522895"><ele>759.6666666666666</ele><time>2026-04-11T13:04:30.604Z</time></trkpt><trkpt lat="43.6399002" lon="12.2522652"><ele>761.5</ele><time>2026-04-11T13:04:31.604Z</time></trkpt><trkpt lat="43.6398177" lon="12.2522568"><ele>763.3333333333333</ele><time>2026-04-11T13:04:32.604Z</time></trkpt><trkpt lat="43.6397725" lon="12.2521766"><ele>765.1666666666666</ele><time>2026-04-11T13:04:45.603Z</time></trkpt><trkpt lat="43.6397544" lon="12.2520649"><ele>767.0</ele><time>2026-04-11T13:04:48.604Z</time></trkpt><trkpt lat="43.6397474" lon="12.2519294"><ele>767.0</ele><time>2026-04-11T13:04:50.604Z</time></trkpt><trkpt lat="43.6397407" lon="12.2518204"><ele>767.0</ele><time>2026-04-11T13:04:51.604Z</time></trkpt><trkpt lat="43.639728" lon="12.2516969"><ele>767.0</ele><time>2026-04-11T13:04:52.603Z</time></trkpt><trkpt lat="43.6397123" lon="12.2515679"><ele>767.0</ele><time>2026-04-11T13:04:53.604Z</time></trkpt><trkpt lat="43.6396912" lon="12.251472"><ele>767.0</ele><time>2026-04-11T13:04:54.604Z</time></trkpt><trkpt lat="43.6396223" lon="12.2514579"><ele>767.0</ele><time>2026-04-11T13:04:56.604Z</time></trkpt><trkpt lat="43.6395489" lon="12.2514295"><ele>769.0</ele><time>2026-04-11T13:04:58.603Z</time></trkpt><trkpt lat="43.639481" lon="12.2513965"><ele>771.0</ele><time>2026-04-11T13:05:00.604Z</time></trkpt><trkpt lat="43.6393874" lon="12.2513619"><ele>773.0</ele><time>2026-04-11T13:05:03.603Z</time></trkpt><trkpt lat="43.6393055" lon="12.2513435"><ele>775.0</ele><time>2026-04-11T13:05:05.604Z</time></trkpt><trkpt lat="43.639227" lon="12.2513668"><ele>777.0000000000001</ele><time>2026-04-11T13:06:11.604Z</time></trkpt><trkpt lat="43.6392538" lon="12.2512806"><ele>779.0</ele><time>2026-04-11T13:06:25.627Z</time></trkpt><trkpt lat="43.6392946" lon="12.2512131"><ele>779.0000000000001</ele><time>2026-04-11T13:06:28.604Z</time></trkpt><trkpt lat="43.6393459" lon="12.2511504"><ele>779.0</ele><time>2026-04-11T13:06:37.604Z</time></trkpt><trkpt lat="43.6394106" lon="12.2511238"><ele>779.0</ele><time>2026-04-11T13:06:41.664Z</time></trkpt><trkpt lat="43.6394802" lon="12.2510694"><ele>779.0</ele><time>2026-04-11T13:06:44.617Z</time></trkpt><trkpt lat="43.6395569" lon="12.2510356"><ele>779.0000000000001</ele><time>2026-04-11T13:06:46.603Z</time></trkpt><trkpt lat="43.6396312" lon="12.2509812"><ele>779.0</ele><time>2026-04-11T13:06:48.683Z</time></trkpt><trkpt lat="43.6397064" lon="12.2509288"><ele>779.0000000000001</ele><time>2026-04-11T13:06:50.667Z</time></trkpt><trkpt lat="43.6398315" lon="12.2509166"><ele>779.0</ele><time>2026-04-11T13:06:52.604Z</time></trkpt><trkpt lat="43.6399031" lon="12.2508912"><ele>779.0</ele><time>2026-04-11T13:07:11.604Z</time></trkpt><trkpt lat="43.639951" lon="12.2507996"><ele>779.0</ele><time>2026-04-11T13:07:25.603Z</time></trkpt><trkpt lat="43.6400101" lon="12.2507284"><ele>779.0000000000001</ele><time>2026-04-11T13:07:29.603Z</time></trkpt><trkpt lat="43.6400734" lon="12.2506809"><ele>779.0</ele><time>2026-04-11T13:07:31.604Z</time></trkpt><trkpt lat="43.640182" lon="12.2506571"><ele>779.0000000000001</ele><time>2026-04-11T13:07:33.604Z</time></trkpt><trkpt lat="43.6402767" lon="12.250678"><ele>779.0</ele><time>2026-04-11T13:07:35.603Z</time></trkpt><trkpt lat="43.6403653" lon="12.2507243"><ele>779.0</ele><time>2026-04-11T13:07:36.604Z</time></trkpt><trkpt lat="43.6404264" lon="12.25078"><ele>779.0</ele><time>2026-04-11T13:07:37.604Z</time></trkpt><trkpt lat="43.6405013" lon="12.250842"><ele>779.0000000000001</ele><time>2026-04-11T13:07:38.603Z</time></trkpt><trkpt lat="43.6405629" lon="12.2509032"><ele>779.0</ele><time>2026-04-11T13:07:39.603Z</time></trkpt><trkpt lat="43.6406255" lon="12.2509454"><ele>781.0000000000001</ele><time>2026-04-11T13:07:40.603Z</time></trkpt><trkpt lat="43.6406929" lon="12.2509893"><ele>783.0</ele><time>2026-04-11T13:07:41.604Z</time></trkpt><trkpt lat="43.640769" lon="12.2510041"><ele>785.0</ele><time>2026-04-11T13:07:42.604Z</time></trkpt><trkpt lat="43.640852" lon="12.2509848"><ele>787.0</ele><time>2026-04-11T13:07:43.603Z</time></trkpt><trkpt lat="43.640988" lon="12.250969"><ele>789.0000000000001</ele><time>2026-04-11T13:07:45.604Z</time></trkpt><trkpt lat="43.6410513" lon="12.2509281"><ele>791.0</ele><time>2026-04-11T13:07:49.604Z</time></trkpt><trkpt lat="43.6411133" lon="12.2509485"><ele>795.0</ele><time>2026-04-11T13:08:00.603Z</time></trkpt><trkpt lat="43.641182" lon="12.250929"><ele>799.0</ele><time>2026-04-11T13:08:03.604Z</time></trkpt><trkpt lat="43.641272" lon="12.2509114"><ele>803.0</ele><time>2026-04-11T13:08:06.604Z</time></trkpt><trkpt lat="43.6413686" lon="12.2509289"><ele>807.0</ele><time>2026-04-11T13:08:08.604Z</time></trkpt><trkpt lat="43.6414613" lon="12.2509627"><ele>811.0</ele><time>2026-04-11T13:08:10.604Z</time></trkpt><trkpt lat="43.6415481" lon="12.2510195"><ele>811.0</ele><time>2026-04-11T13:08:12.604Z</time></trkpt><trkpt lat="43.641628" lon="12.2511102"><ele>811.0</ele><time>2026-04-11T13:08:14.604Z</time></trkpt><trkpt lat="43.6417079" lon="12.2512434"><ele>811.0</ele><time>2026-04-11T13:08:16.604Z</time></trkpt><trkpt lat="43.6417757" lon="12.2513628"><ele>811.0</ele><time>2026-04-11T13:08:18.604Z</time></trkpt><trkpt lat="43.641856" lon="12.2514537"><ele>811.0</ele><time>2026-04-11T13:08:20.604Z</time></trkpt><trkpt lat="43.6419401" lon="12.2514405"><ele>814.0</ele><time>2026-04-11T13:08:22.604Z</time></trkpt><trkpt lat="43.6419851" lon="12.2513646"><ele>817.0</ele><time>2026-04-11T13:08:25.603Z</time></trkpt><trkpt lat="43.6420179" lon="12.2512469"><ele>820.0</ele><time>2026-04-11T13:08:28.604Z</time></trkpt><trkpt lat="43.6420824" lon="12.2511707"><ele>823.0</ele><time>2026-04-11T13:08:31.603Z</time></trkpt><trkpt lat="43.6422035" lon="12.2512019"><ele>826.0</ele><time>2026-04-11T13:08:34.603Z</time></trkpt><trkpt lat="43.6423007" lon="12.2512647"><ele>826.0</ele><time>2026-04-11T13:08:36.604Z</time></trkpt><trkpt lat="43.6423746" lon="12.2512113"><ele>826.0</ele><time>2026-04-11T13:08:38.604Z</time></trkpt><trkpt lat="43.6424593" lon="12.2511669"><ele>826.0</ele><time>2026-04-11T13:08:40.602Z</time></trkpt><trkpt lat="43.6425329" lon="12.2510707"><ele>826.0</ele><time>2026-04-11T13:08:42.604Z</time></trkpt><trkpt lat="43.6426364" lon="12.2509823"><ele>826.0</ele><time>2026-04-11T13:08:44.604Z</time></trkpt><trkpt lat="43.6427148" lon="12.251003"><ele>825.9999999999999</ele><time>2026-04-11T13:08:46.604Z</time></trkpt><trkpt lat="43.6427852" lon="12.2509356"><ele>826.0</ele><time>2026-04-11T13:08:48.603Z</time></trkpt><trkpt lat="43.6428621" lon="12.2508813"><ele>826.0</ele><time>2026-04-11T13:08:50.604Z</time></trkpt><trkpt lat="43.6429028" lon="12.2508086"><ele>826.0</ele><time>2026-04-11T13:10:25.603Z</time></trkpt><trkpt lat="43.6429432" lon="12.2507169"><ele>825.9999999999999</ele><time>2026-04-11T13:10:27.603Z</time></trkpt><trkpt lat="43.6429791" lon="12.2506317"><ele>826.0</ele><time>2026-04-11T13:10:28.604Z</time></trkpt><trkpt lat="43.6430268" lon="12.2505634"><ele>828.1666666666666</ele><time>2026-04-11T13:10:29.604Z</time></trkpt><trkpt lat="43.6430777" lon="12.2504931"><ele>830.3333333333333</ele><time>2026-04-11T13:10:30.604Z</time></trkpt><trkpt lat="43.6431289" lon="12.2504265"><ele>832.5</ele><time>2026-04-11T13:10:31.604Z</time></trkpt><trkpt lat="43.643168" lon="12.2503444"><ele>834.6666666666667</ele><time>2026-04-11T13:10:32.603Z</time></trkpt><trkpt lat="43.6432128" lon="12.250262"><ele>836.8333333333334</ele><time>2026-04-11T13:10:33.604Z</time></trkpt><trkpt lat="43.6432647" lon="12.2501751"><ele>839.0</ele><time>2026-04-11T13:10:34.603Z</time></trkpt><trkpt lat="43.6433084" lon="12.250066"><ele>839.0000000000001</ele><time>2026-04-11T13:10:35.602Z</time></trkpt><trkpt lat="43.6434044" lon="12.2500306"><ele>839.0</ele><time>2026-04-11T13:10:36.602Z</time></trkpt><trkpt lat="43.6434641" lon="12.2499962"><ele>839.0</ele><time>2026-04-11T13:10:37.603Z</time></trkpt><trkpt lat="43.6435184" lon="12.2499431"><ele>839.0</ele><time>2026-04-11T13:10:38.603Z</time></trkpt><trkpt lat="43.6435768" lon="12.2498767"><ele>839.0000000000001</ele><time>2026-04-11T13:10:40.602Z</time></trkpt><trkpt lat="43.6436376" lon="12.2498002"><ele>839.0</ele><time>2026-04-11T13:10:43.602Z</time></trkpt><trkpt lat="43.6436913" lon="12.2497469"><ele>838.0000000000001</ele><time>2026-04-11T13:10:45.602Z</time></trkpt><trkpt lat="43.6437683" lon="12.2496705"><ele>837.0</ele><time>2026-04-11T13:10:47.603Z</time></trkpt><trkpt lat="43.643818" lon="12.2496156"><ele>836.0</ele><time>2026-04-11T13:10:48.603Z</time></trkpt><trkpt lat="43.643875" lon="12.2495002"><ele>835.0</ele><time>2026-04-11T13:10:50.602Z</time></trkpt><trkpt lat="43.6439139" lon="12.2494076"><ele>834.0000000000001</ele><time>2026-04-11T13:10:51.602Z</time></trkpt><trkpt lat="43.6439554" lon="12.2493385"><ele>833.0</ele><time>2026-04-11T13:10:52.603Z</time></trkpt><trkpt lat="43.6440344" lon="12.249195"><ele>833.0</ele><time>2026-04-11T13:10:53.603Z</time></trkpt><trkpt lat="43.6441128" lon="12.2490742"><ele>833.0</ele><time>2026-04-11T13:10:55.603Z</time></trkpt><trkpt lat="43.6441797" lon="12.2489641"><ele>833.0</ele><time>2026-04-11T13:10:57.603Z</time></trkpt><trkpt lat="43.6442477" lon="12.2488474"><ele>833.0</ele><time>2026-04-11T13:10:59.602Z</time></trkpt><trkpt lat="43.6442966" lon="12.2487502"><ele>833.0</ele><time>2026-04-11T13:11:01.602Z</time></trkpt><trkpt lat="43.6443367" lon="12.2486794"><ele>832.5000000000001</ele><time>2026-04-11T13:11:02.603Z</time></trkpt><trkpt lat="43.6444044" lon="12.2485585"><ele>832.0</ele><time>2026-04-11T13:11:04.601Z</time></trkpt><trkpt lat="43.644435" lon="12.2484659"><ele>831.5</ele><time>2026-04-11T13:11:06.603Z</time></trkpt><trkpt lat="43.644462" lon="12.248382"><ele>831.0</ele><time>2026-04-11T13:11:08.603Z</time></trkpt><trkpt lat="43.6444966" lon="12.2482976"><ele>830.5000000000001</ele><time>2026-04-11T13:11:12.603Z</time></trkpt><trkpt lat="43.6445287" lon="12.2482022"><ele>830.0</ele><time>2026-04-11T13:11:29.602Z</time></trkpt><trkpt lat="43.6445392" lon="12.2481026"><ele>830.0</ele><time>2026-04-11T13:11:34.603Z</time></trkpt><trkpt lat="43.6444809" lon="12.2481644"><ele>830.0</ele><time>2026-04-11T13:11:36.603Z</time></trkpt><trkpt lat="43.6443971" lon="12.2482642"><ele>830.0</ele><time>2026-04-11T13:11:39.602Z</time></trkpt><trkpt lat="43.6443207" lon="12.248323"><ele>830.0</ele><time>2026-04-11T13:11:41.603Z</time></trkpt><trkpt lat="43.6442209" lon="12.2484098"><ele>830.0</ele><time>2026-04-11T13:11:43.603Z</time></trkpt><trkpt lat="43.644157" lon="12.2484598"><ele>830.0000000000001</ele><time>2026-04-11T13:11:44.602Z</time></trkpt><trkpt lat="43.644049" lon="12.2485222"><ele>830.0</ele><time>2026-04-11T13:11:46.603Z</time></trkpt><trkpt lat="43.6439791" lon="12.2485783"><ele>830.0</ele><time>2026-04-11T13:11:47.603Z</time></trkpt><trkpt lat="43.6439191" lon="12.2486185"><ele>830.0</ele><time>2026-04-11T13:11:48.603Z</time></trkpt><trkpt lat="43.6438489" lon="12.2486952"><ele>830.0000000000001</ele><time>2026-04-11T13:11:49.603Z</time></trkpt><trkpt lat="43.6437805" lon="12.2487488"><ele>830.0</ele><time>2026-04-11T13:11:50.603Z</time></trkpt><trkpt lat="43.6436994" lon="12.2488153"><ele>828.4</ele><time>2026-04-11T13:11:51.603Z</time></trkpt><trkpt lat="43.6436263" lon="12.2488859"><ele>826.8</ele><time>2026-04-11T13:11:52.603Z</time></trkpt><trkpt lat="43.6435117" lon="12.2489911"><ele>825.2</ele><time>2026-04-11T13:11:54.603Z</time></trkpt><trkpt lat="43.6434368" lon="12.2490483"><ele>823.6</ele><time>2026-04-11T13:11:56.602Z</time></trkpt><trkpt lat="43.6433579" lon="12.2491086"><ele>822.0</ele><time>2026-04-11T13:11:58.603Z</time></trkpt><trkpt lat="43.6432749" lon="12.2492076"><ele>825.4000000000001</ele><time>2026-04-11T13:12:00.603Z</time></trkpt><trkpt lat="43.6432294" lon="12.2492772"><ele>828.8000000000001</ele><time>2026-04-11T13:12:01.603Z</time></trkpt><trkpt lat="43.6431332" lon="12.2493578"><ele>832.2</ele><time>2026-04-11T13:12:03.603Z</time></trkpt><trkpt lat="43.6430476" lon="12.2494179"><ele>835.6</ele><time>2026-04-11T13:12:05.603Z</time></trkpt><trkpt lat="43.642975" lon="12.2495001"><ele>839.0</ele><time>2026-04-11T13:12:07.603Z</time></trkpt><trkpt lat="43.6428884" lon="12.249566"><ele>839.0</ele><time>2026-04-11T13:12:09.603Z</time></trkpt><trkpt lat="43.6428077" lon="12.2496013"><ele>839.0</ele><time>2026-04-11T13:12:11.601Z</time></trkpt><trkpt lat="43.6427224" lon="12.2496133"><ele>839.0</ele><time>2026-04-11T13:12:13.603Z</time></trkpt><trkpt lat="43.6426033" lon="12.2496101"><ele>839.0</ele><time>2026-04-11T13:12:15.602Z</time></trkpt><trkpt lat="43.6425009" lon="12.249563"><ele>839.0</ele><time>2026-04-11T13:12:17.603Z</time></trkpt><trkpt lat="43.6424278" lon="12.2495349"><ele>840.0</ele><time>2026-04-11T13:12:20.603Z</time></trkpt><trkpt lat="43.6423577" lon="12.249516"><ele>841.0</ele><time>2026-04-11T13:12:28.603Z</time></trkpt><trkpt lat="43.6422402" lon="12.2494534"><ele>842.0</ele><time>2026-04-11T13:12:31.602Z</time></trkpt><trkpt lat="43.6421728" lon="12.2494252"><ele>843.0</ele><time>2026-04-11T13:12:32.603Z</time></trkpt><trkpt lat="43.6420574" lon="12.2493912"><ele>844.0</ele><time>2026-04-11T13:12:34.603Z</time></trkpt><trkpt lat="43.6419734" lon="12.2493254"><ele>845.0</ele><time>2026-04-11T13:12:36.603Z</time></trkpt><trkpt lat="43.6419369" lon="12.2492389"><ele>846.0</ele><time>2026-04-11T13:12:38.603Z</time></trkpt><trkpt lat="43.6418981" lon="12.249078"><ele>847.0</ele><time>2026-04-11T13:12:40.602Z</time></trkpt><trkpt lat="43.6418798" lon="12.2489918"><ele>848.0</ele><time>2026-04-11T13:12:41.603Z</time></trkpt><trkpt lat="43.6418186" lon="12.2489128"><ele>849.0</ele><time>2026-04-11T13:12:42.603Z</time></trkpt><trkpt lat="43.6417631" lon="12.2487714"><ele>849.6666666666666</ele><time>2026-04-11T13:12:44.603Z</time></trkpt><trkpt lat="43.6416968" lon="12.2486853"><ele>850.3333333333333</ele><time>2026-04-11T13:12:46.602Z</time></trkpt><trkpt lat="43.6416253" lon="12.2486039"><ele>851.0</ele><time>2026-04-11T13:12:48.603Z</time></trkpt><trkpt lat="43.6415454" lon="12.2485353"><ele>851.6666666666666</ele><time>2026-04-11T13:12:50.602Z</time></trkpt><trkpt lat="43.6414746" lon="12.2485163"><ele>852.3333333333333</ele><time>2026-04-11T13:12:51.603Z</time></trkpt><trkpt lat="43.641405" lon="12.2485055"><ele>853.0</ele><time>2026-04-11T13:12:52.603Z</time></trkpt><trkpt lat="43.6413389" lon="12.2484956"><ele>852.9999999999999</ele><time>2026-04-11T13:12:53.603Z</time></trkpt><trkpt lat="43.6412707" lon="12.2484731"><ele>853.0</ele><time>2026-04-11T13:12:54.602Z</time></trkpt><trkpt lat="43.6411944" lon="12.2484553"><ele>853.0</ele><time>2026-04-11T13:12:55.603Z</time></trkpt><trkpt lat="43.6411222" lon="12.2484383"><ele>853.0</ele><time>2026-04-11T13:12:56.603Z</time></trkpt><trkpt lat="43.6410446" lon="12.2484246"><ele>852.9999999999999</ele><time>2026-04-11T13:12:57.603Z</time></trkpt><trkpt lat="43.6409577" lon="12.248388"><ele>853.0</ele><time>2026-04-11T13:12:58.603Z</time></trkpt><trkpt lat="43.6408727" lon="12.2483674"><ele>853.3333333333333</ele><time>2026-04-11T13:12:59.602Z</time></trkpt><trkpt lat="43.6407976" lon="12.2483438"><ele>853.6666666666666</ele><time>2026-04-11T13:13:00.602Z</time></trkpt><trkpt lat="43.6407283" lon="12.2482845"><ele>854.0</ele><time>2026-04-11T13:13:01.603Z</time></trkpt><trkpt lat="43.6406637" lon="12.2482402"><ele>854.3333333333333</ele><time>2026-04-11T13:13:02.603Z</time></trkpt><trkpt lat="43.6405935" lon="12.2482213"><ele>854.6666666666666</ele><time>2026-04-11T13:13:03.602Z</time></trkpt><trkpt lat="43.6404635" lon="12.2481889"><ele>855.0</ele><time>2026-04-11T13:13:05.602Z</time></trkpt><trkpt lat="43.6403415" lon="12.2481374"><ele>852.4</ele><time>2026-04-11T13:13:07.602Z</time></trkpt><trkpt lat="43.6402544" lon="12.2480862"><ele>849.8</ele><time>2026-04-11T13:13:09.603Z</time></trkpt><trkpt lat="43.6401827" lon="12.2480838"><ele>847.2</ele><time>2026-04-11T13:13:10.603Z</time></trkpt><trkpt lat="43.6400608" lon="12.2480542"><ele>844.6</ele><time>2026-04-11T13:13:12.602Z</time></trkpt><trkpt lat="43.6399972" lon="12.2480199"><ele>842.0</ele><time>2026-04-11T13:13:13.603Z</time></trkpt><trkpt lat="43.6398664" lon="12.2479945"><ele>842.0000000000001</ele><time>2026-04-11T13:13:15.603Z</time></trkpt><trkpt lat="43.6397895" lon="12.2479753"><ele>842.0</ele><time>2026-04-11T13:13:16.603Z</time></trkpt><trkpt lat="43.6397188" lon="12.2479531"><ele>842.0</ele><time>2026-04-11T13:13:17.602Z</time></trkpt><trkpt lat="43.6396365" lon="12.2479292"><ele>842.0</ele><time>2026-04-11T13:13:18.602Z</time></trkpt><trkpt lat="43.639556" lon="12.2479045"><ele>842.0000000000001</ele><time>2026-04-11T13:13:19.603Z</time></trkpt><trkpt lat="43.6394901" lon="12.2478843"><ele>842.0</ele><time>2026-04-11T13:13:20.603Z</time></trkpt><trkpt lat="43.6394164" lon="12.2478782"><ele>841.8</ele><time>2026-04-11T13:13:21.602Z</time></trkpt><trkpt lat="43.6393491" lon="12.2478729"><ele>841.6</ele><time>2026-04-11T13:13:22.603Z</time></trkpt><trkpt lat="43.6392305" lon="12.2478713"><ele>841.4</ele><time>2026-04-11T13:13:24.603Z</time></trkpt><trkpt lat="43.6391312" lon="12.2478375"><ele>841.1999999999999</ele><time>2026-04-11T13:13:26.603Z</time></trkpt><trkpt lat="43.639023" lon="12.2477995"><ele>841.0</ele><time>2026-04-11T13:13:28.603Z</time></trkpt><trkpt lat="43.6389298" lon="12.2477462"><ele>841.0</ele><time>2026-04-11T13:13:30.603Z</time></trkpt><trkpt lat="43.6388638" lon="12.2477289"><ele>841.0</ele><time>2026-04-11T13:13:31.602Z</time></trkpt><trkpt lat="43.6387516" lon="12.2476839"><ele>841.0</ele><time>2026-04-11T13:13:33.602Z</time></trkpt><trkpt lat="43.6386387" lon="12.2475909"><ele>841.0</ele><time>2026-04-11T13:13:35.603Z</time></trkpt><trkpt lat="43.6385106" lon="12.2475708"><ele>841.0</ele><time>2026-04-11T13:13:37.603Z</time></trkpt><trkpt lat="43.6384097" lon="12.2475171"><ele>842.5999999999999</ele><time>2026-04-11T13:13:39.603Z</time></trkpt><trkpt lat="43.6383418" lon="12.2474575"><ele>844.2</ele><time>2026-04-11T13:13:41.603Z</time></trkpt><trkpt lat="43.6382556" lon="12.2474145"><ele>845.8</ele><time>2026-04-11T13:13:43.602Z</time></trkpt><trkpt lat="43.6381541" lon="12.2473986"><ele>847.4000000000001</ele><time>2026-04-11T13:13:45.603Z</time></trkpt><trkpt lat="43.6380349" lon="12.2473697"><ele>849.0</ele><time>2026-04-11T13:13:47.602Z</time></trkpt><trkpt lat="43.6379243" lon="12.247322"><ele>849.8000000000001</ele><time>2026-04-11T13:13:49.602Z</time></trkpt><trkpt lat="43.6378044" lon="12.2472699"><ele>850.6</ele><time>2026-04-11T13:13:51.603Z</time></trkpt><trkpt lat="43.6377003" lon="12.2472185"><ele>851.4</ele><time>2026-04-11T13:13:53.603Z</time></trkpt><trkpt lat="43.6376374" lon="12.2471889"><ele>852.2</ele><time>2026-04-11T13:13:54.603Z</time></trkpt><trkpt lat="43.6375647" lon="12.2472008"><ele>853.0</ele><time>2026-04-11T13:13:55.603Z</time></trkpt><trkpt lat="43.6374754" lon="12.247177"><ele>852.9999999999999</ele><time>2026-04-11T13:13:57.602Z</time></trkpt><trkpt lat="43.6373964" lon="12.2471225"><ele>853.0</ele><time>2026-04-11T13:13:59.603Z</time></trkpt><trkpt lat="43.637309" lon="12.2471176"><ele>853.0</ele><time>2026-04-11T13:14:01.603Z</time></trkpt><trkpt lat="43.6372389" lon="12.2471056"><ele>853.0</ele><time>2026-04-11T13:14:03.603Z</time></trkpt><trkpt lat="43.6371564" lon="12.2471018"><ele>852.9999999999999</ele><time>2026-04-11T13:14:05.603Z</time></trkpt><trkpt lat="43.637069" lon="12.2470894"><ele>853.0</ele><time>2026-04-11T13:14:07.603Z</time></trkpt><trkpt lat="43.6369868" lon="12.2470832"><ele>856.4999999999999</ele><time>2026-04-11T13:14:09.602Z</time></trkpt><trkpt lat="43.6369167" lon="12.247101"><ele>860.0</ele><time>2026-04-11T13:14:12.602Z</time></trkpt><trkpt lat="43.6368243" lon="12.2471426"><ele>863.5</ele><time>2026-04-11T13:14:15.602Z</time></trkpt><trkpt lat="43.6367579" lon="12.2471628"><ele>867.0</ele><time>2026-04-11T13:14:17.603Z</time></trkpt><trkpt lat="43.6367432" lon="12.2472933"><ele>870.4999999999999</ele><time>2026-04-11T13:14:18.603Z</time></trkpt><trkpt lat="43.6367367" lon="12.24738"><ele>874.0</ele><time>2026-04-11T13:14:19.603Z</time></trkpt><trkpt lat="43.6366988" lon="12.247531"><ele>874.0</ele><time>2026-04-11T13:14:21.603Z</time></trkpt><trkpt lat="43.636685" lon="12.2476264"><ele>874.0</ele><time>2026-04-11T13:14:22.602Z</time></trkpt><trkpt lat="43.6366704" lon="12.2477212"><ele>874.0</ele><time>2026-04-11T13:14:23.603Z</time></trkpt><trkpt lat="43.6366607" lon="12.247809"><ele>874.0</ele><time>2026-04-11T13:14:24.602Z</time></trkpt><trkpt lat="43.6366452" lon="12.2479086"><ele>874.0</ele><time>2026-04-11T13:14:25.603Z</time></trkpt><trkpt lat="43.6366323" lon="12.248013"><ele>874.0</ele><time>2026-04-11T13:14:26.603Z</time></trkpt><trkpt lat="43.6366098" lon="12.2481039"><ele>874.0</ele><time>2026-04-11T13:14:27.603Z</time></trkpt><trkpt lat="43.6365956" lon="12.2481978"><ele>872.4999999999999</ele><time>2026-04-11T13:14:28.603Z</time></trkpt><trkpt lat="43.6365678" lon="12.2483059"><ele>871.0</ele><time>2026-04-11T13:14:30.603Z</time></trkpt><trkpt lat="43.6365863" lon="12.2484099"><ele>869.5</ele><time>2026-04-11T13:14:33.603Z</time></trkpt><trkpt lat="43.6366224" lon="12.2485067"><ele>868.0</ele><time>2026-04-11T13:14:35.602Z</time></trkpt><trkpt lat="43.6366662" lon="12.248597"><ele>866.4999999999999</ele><time>2026-04-11T13:14:37.602Z</time></trkpt><trkpt lat="43.6367078" lon="12.2487109"><ele>865.0</ele><time>2026-04-11T13:14:39.602Z</time></trkpt><trkpt lat="43.6367628" lon="12.2488435"><ele>865.0</ele><time>2026-04-11T13:14:41.603Z</time></trkpt><trkpt lat="43.6367979" lon="12.2489191"><ele>865.0</ele><time>2026-04-11T13:14:42.602Z</time></trkpt><trkpt lat="43.6368312" lon="12.2489998"><ele>865.0</ele><time>2026-04-11T13:14:43.603Z</time></trkpt><trkpt lat="43.6368669" lon="12.2490841"><ele>865.0</ele><time>2026-04-11T13:14:44.603Z</time></trkpt><trkpt lat="43.6369138" lon="12.2491878"><ele>865.0</ele><time>2026-04-11T13:14:45.602Z</time></trkpt><trkpt lat="43.6369522" lon="12.2492646"><ele>865.0</ele><time>2026-04-11T13:14:46.603Z</time></trkpt><trkpt lat="43.6369942" lon="12.2493361"><ele>865.0</ele><time>2026-04-11T13:14:47.602Z</time></trkpt><trkpt lat="43.6370547" lon="12.2494645"><ele>863.5714285714286</ele><time>2026-04-11T13:14:49.603Z</time></trkpt><trkpt lat="43.6370869" lon="12.2495412"><ele>862.1428571428571</ele><time>2026-04-11T13:14:50.603Z</time></trkpt><trkpt lat="43.6371095" lon="12.24963"><ele>860.7142857142858</ele><time>2026-04-11T13:14:51.603Z</time></trkpt><trkpt lat="43.6371358" lon="12.2497119"><ele>859.2857142857142</ele><time>2026-04-11T13:14:52.602Z</time></trkpt><trkpt lat="43.637158" lon="12.2497964"><ele>857.8571428571428</ele><time>2026-04-11T13:14:53.602Z</time></trkpt><trkpt lat="43.6371761" lon="12.2498924"><ele>856.4285714285714</ele><time>2026-04-11T13:14:54.603Z</time></trkpt><trkpt lat="43.6371869" lon="12.2499926"><ele>855.0</ele><time>2026-04-11T13:14:55.603Z</time></trkpt><trkpt lat="43.6371978" lon="12.2500941"><ele>855.0</ele><time>2026-04-11T13:14:56.603Z</time></trkpt><trkpt lat="43.6372063" lon="12.2502684"><ele>855.0</ele><time>2026-04-11T13:14:58.602Z</time></trkpt><trkpt lat="43.6372143" lon="12.2503687"><ele>855.0</ele><time>2026-04-11T13:14:59.603Z</time></trkpt><trkpt lat="43.6372222" lon="12.2504594"><ele>855.0</ele><time>2026-04-11T13:15:00.603Z</time></trkpt><trkpt lat="43.6372257" lon="12.2506002"><ele>855.0</ele><time>2026-04-11T13:15:02.603Z</time></trkpt><trkpt lat="43.6372169" lon="12.2507268"><ele>855.0</ele><time>2026-04-11T13:15:04.602Z</time></trkpt><trkpt lat="43.637209" lon="12.2508554"><ele>855.0</ele><time>2026-04-11T13:15:06.603Z</time></trkpt><trkpt lat="43.6372267" lon="12.2510207"><ele>855.0</ele><time>2026-04-11T13:15:08.603Z</time></trkpt><trkpt lat="43.6372532" lon="12.2511326"><ele>855.0</ele><time>2026-04-11T13:15:10.602Z</time></trkpt><trkpt lat="43.6372755" lon="12.2512527"><ele>855.0</ele><time>2026-04-11T13:15:12.603Z</time></trkpt><trkpt lat="43.637297" lon="12.2513931"><ele>853.6</ele><time>2026-04-11T13:15:14.603Z</time></trkpt><trkpt lat="43.637245" lon="12.2515156"><ele>852.2</ele><time>2026-04-11T13:15:16.603Z</time></trkpt><trkpt lat="43.6372087" lon="12.2516055"><ele>850.8</ele><time>2026-04-11T13:15:18.603Z</time></trkpt><trkpt lat="43.6372127" lon="12.251742"><ele>849.4</ele><time>2026-04-11T13:15:20.603Z</time></trkpt><trkpt lat="43.6371783" lon="12.2519104"><ele>848.0</ele><time>2026-04-11T13:15:22.603Z</time></trkpt><trkpt lat="43.6371219" lon="12.251982"><ele>848.0000000000001</ele><time>2026-04-11T13:15:23.602Z</time></trkpt><trkpt lat="43.637055" lon="12.2520879"><ele>848.0</ele><time>2026-04-11T13:15:25.603Z</time></trkpt><trkpt lat="43.6370179" lon="12.2521749"><ele>848.0</ele><time>2026-04-11T13:15:26.603Z</time></trkpt><trkpt lat="43.6369358" lon="12.252263"><ele>848.0</ele><time>2026-04-11T13:15:28.601Z</time></trkpt><trkpt lat="43.636894" lon="12.2523315"><ele>848.0000000000001</ele><time>2026-04-11T13:15:29.603Z</time></trkpt><trkpt lat="43.636833" lon="12.252443"><ele>848.0</ele><time>2026-04-11T13:15:31.603Z</time></trkpt><trkpt lat="43.6367745" lon="12.2525605"><ele>847.3333333333334</ele><time>2026-04-11T13:15:33.602Z</time></trkpt><trkpt lat="43.6367286" lon="12.2526639"><ele>846.6666666666667</ele><time>2026-04-11T13:15:35.603Z</time></trkpt><trkpt lat="43.6367096" lon="12.2527845"><ele>846.0</ele><time>2026-04-11T13:15:37.603Z</time></trkpt><trkpt lat="43.6366694" lon="12.2529025"><ele>845.3333333333333</ele><time>2026-04-11T13:15:39.603Z</time></trkpt><trkpt lat="43.636631" lon="12.2530224"><ele>844.6666666666666</ele><time>2026-04-11T13:15:41.603Z</time></trkpt><trkpt lat="43.6366152" lon="12.2531069"><ele>844.0</ele><time>2026-04-11T13:15:42.603Z</time></trkpt><trkpt lat="43.6365922" lon="12.2531892"><ele>844.0</ele><time>2026-04-11T13:15:43.603Z</time></trkpt><trkpt lat="43.6365525" lon="12.2533341"><ele>844.0</ele><time>2026-04-11T13:15:45.603Z</time></trkpt><trkpt lat="43.6364424" lon="12.2534246"><ele>844.0</ele><time>2026-04-11T13:15:48.602Z</time></trkpt><trkpt lat="43.6363785" lon="12.2533976"><ele>844.0</ele><time>2026-04-11T13:15:51.603Z</time></trkpt><trkpt lat="43.6362963" lon="12.2534"><ele>844.0</ele><time>2026-04-11T13:15:54.603Z</time></trkpt><trkpt lat="43.6362305" lon="12.2534023"><ele>839.6666666666666</ele><time>2026-04-11T13:15:56.603Z</time></trkpt><trkpt lat="43.6361293" lon="12.2533986"><ele>835.3333333333333</ele><time>2026-04-11T13:16:06.603Z</time></trkpt><trkpt lat="43.6360657" lon="12.2534069"><ele>831.0</ele><time>2026-04-11T13:16:09.603Z</time></trkpt><trkpt lat="43.6360017" lon="12.2534117"><ele>826.6666666666667</ele><time>2026-04-11T13:16:11.602Z</time></trkpt><trkpt lat="43.6359126" lon="12.2534047"><ele>822.3333333333334</ele><time>2026-04-11T13:16:14.603Z</time></trkpt><trkpt lat="43.63585" lon="12.2534312"><ele>818.0</ele><time>2026-04-11T13:16:16.603Z</time></trkpt><trkpt lat="43.6357904" lon="12.2535019"><ele>818.0</ele><time>2026-04-11T13:16:19.603Z</time></trkpt><trkpt lat="43.6357493" lon="12.2535826"><ele>818.0</ele><time>2026-04-11T13:16:23.602Z</time></trkpt><trkpt lat="43.6357161" lon="12.2536605"><ele>818.0</ele><time>2026-04-11T13:16:26.603Z</time></trkpt><trkpt lat="43.6356904" lon="12.2537485"><ele>818.0</ele><time>2026-04-11T13:16:30.603Z</time></trkpt><trkpt lat="43.6356638" lon="12.253849"><ele>818.0</ele><time>2026-04-11T13:16:33.603Z</time></trkpt><trkpt lat="43.6356277" lon="12.2539461"><ele>818.0</ele><time>2026-04-11T13:16:36.603Z</time></trkpt><trkpt lat="43.6355868" lon="12.2540448"><ele>818.0</ele><time>2026-04-11T13:16:39.603Z</time></trkpt><trkpt lat="43.6355613" lon="12.2541321"><ele>818.8</ele><time>2026-04-11T13:16:41.603Z</time></trkpt><trkpt lat="43.6355483" lon="12.2542549"><ele>819.5999999999999</ele><time>2026-04-11T13:16:44.603Z</time></trkpt><trkpt lat="43.6355429" lon="12.2543718"><ele>820.4000000000001</ele><time>2026-04-11T13:16:46.602Z</time></trkpt><trkpt lat="43.6355413" lon="12.254502"><ele>821.2</ele><time>2026-04-11T13:16:48.603Z</time></trkpt><trkpt lat="43.6355297" lon="12.2545963"><ele>822.0</ele><time>2026-04-11T13:16:49.603Z</time></trkpt><trkpt lat="43.6355157" lon="12.2547565"><ele>821.1666666666666</ele><time>2026-04-11T13:16:51.603Z</time></trkpt><trkpt lat="43.6355036" lon="12.2548442"><ele>820.3333333333333</ele><time>2026-04-11T13:16:52.603Z</time></trkpt><trkpt lat="43.6354346" lon="12.25494"><ele>819.5</ele><time>2026-04-11T13:16:54.603Z</time></trkpt><trkpt lat="43.6353684" lon="12.254915"><ele>818.6666666666666</ele><time>2026-04-11T13:16:58.603Z</time></trkpt><trkpt lat="43.6353042" lon="12.2548293"><ele>817.8333333333333</ele><time>2026-04-11T13:17:02.602Z</time></trkpt><trkpt lat="43.6352494" lon="12.254756"><ele>817.0</ele><time>2026-04-11T13:17:04.602Z</time></trkpt><trkpt lat="43.635158" lon="12.2546319"><ele>813.2857142857142</ele><time>2026-04-11T13:17:06.603Z</time></trkpt><trkpt lat="43.6351197" lon="12.2545563"><ele>809.5714285714286</ele><time>2026-04-11T13:17:07.603Z</time></trkpt><trkpt lat="43.6350699" lon="12.2544698"><ele>805.8571428571429</ele><time>2026-04-11T13:17:08.602Z</time></trkpt><trkpt lat="43.6350204" lon="12.2543914"><ele>802.1428571428571</ele><time>2026-04-11T13:17:09.602Z</time></trkpt><trkpt lat="43.6349543" lon="12.2543398"><ele>798.4285714285714</ele><time>2026-04-11T13:17:10.603Z</time></trkpt><trkpt lat="43.6348963" lon="12.254256"><ele>794.7142857142857</ele><time>2026-04-11T13:17:11.603Z</time></trkpt><trkpt lat="43.6348536" lon="12.2541865"><ele>791.0</ele><time>2026-04-11T13:17:12.602Z</time></trkpt><trkpt lat="43.6348144" lon="12.2541126"><ele>791.0</ele><time>2026-04-11T13:17:13.602Z</time></trkpt><trkpt lat="43.6347568" lon="12.2540293"><ele>791.0</ele><time>2026-04-11T13:17:15.603Z</time></trkpt><trkpt lat="43.6347103" lon="12.2539401"><ele>791.0</ele><time>2026-04-11T13:17:17.603Z</time></trkpt><trkpt lat="43.6346587" lon="12.2538414"><ele>791.0</ele><time>2026-04-11T13:17:19.603Z</time></trkpt><trkpt lat="43.6346463" lon="12.2536878"><ele>791.0</ele><time>2026-04-11T13:17:21.602Z</time></trkpt><trkpt lat="43.6346415" lon="12.2535199"><ele>791.0000000000001</ele><time>2026-04-11T13:17:23.603Z</time></trkpt><trkpt lat="43.634661" lon="12.2533728"><ele>791.0</ele><time>2026-04-11T13:17:25.603Z</time></trkpt><trkpt lat="43.6346575" lon="12.2532678"><ele>791.0</ele><time>2026-04-11T13:17:26.603Z</time></trkpt><trkpt lat="43.6347146" lon="12.25311"><ele>791.0</ele><time>2026-04-11T13:17:28.603Z</time></trkpt><trkpt lat="43.6347571" lon="12.2530415"><ele>791.0000000000001</ele><time>2026-04-11T13:17:29.603Z</time></trkpt><trkpt lat="43.6348077" lon="12.2529724"><ele>791.0</ele><time>2026-04-11T13:17:30.603Z</time></trkpt><trkpt lat="43.6348592" lon="12.2528978"><ele>788.6666666666667</ele><time>2026-04-11T13:17:31.602Z</time></trkpt><trkpt lat="43.6349125" lon="12.2528268"><ele>786.3333333333334</ele><time>2026-04-11T13:17:32.603Z</time></trkpt><trkpt lat="43.6349673" lon="12.2527523"><ele>784.0</ele><time>2026-04-11T13:17:33.602Z</time></trkpt><trkpt lat="43.6350206" lon="12.2527016"><ele>781.6666666666667</ele><time>2026-04-11T13:17:34.603Z</time></trkpt><trkpt lat="43.6350696" lon="12.252636"><ele>779.3333333333334</ele><time>2026-04-11T13:17:35.603Z</time></trkpt><trkpt lat="43.6351296" lon="12.2525481"><ele>777.0</ele><time>2026-04-11T13:17:37.602Z</time></trkpt><trkpt lat="43.6350409" lon="12.2525444"><ele>777.0</ele><time>2026-04-11T13:17:39.603Z</time></trkpt><trkpt lat="43.6349149" lon="12.2525988"><ele>777.0</ele><time>2026-04-11T13:17:41.602Z</time></trkpt><trkpt lat="43.6348392" lon="12.2526441"><ele>777.0</ele><time>2026-04-11T13:17:42.603Z</time></trkpt><trkpt lat="43.6347709" lon="12.2526948"><ele>777.0</ele><time>2026-04-11T13:17:43.603Z</time></trkpt><trkpt lat="43.6347113" lon="12.2527461"><ele>777.0</ele><time>2026-04-11T13:17:44.603Z</time></trkpt><trkpt lat="43.6346264" lon="12.2527827"><ele>777.0</ele><time>2026-04-11T13:17:46.602Z</time></trkpt><trkpt lat="43.6345307" lon="12.2527616"><ele>777.0</ele><time>2026-04-11T13:17:49.603Z</time></trkpt><trkpt lat="43.6344574" lon="12.2527418"><ele>777.0</ele><time>2026-04-11T13:17:51.603Z</time></trkpt><trkpt lat="43.6343952" lon="12.2527757"><ele>777.0</ele><time>2026-04-11T13:17:53.603Z</time></trkpt><trkpt lat="43.6343295" lon="12.2528515"><ele>777.0</ele><time>2026-04-11T13:17:55.603Z</time></trkpt><trkpt lat="43.6342597" lon="12.2529444"><ele>777.0</ele><time>2026-04-11T13:17:57.603Z</time></trkpt><trkpt lat="43.6342001" lon="12.2530461"><ele>772.4000000000001</ele><time>2026-04-11T13:17:59.603Z</time></trkpt><trkpt lat="43.6341483" lon="12.2531426"><ele>767.8000000000001</ele><time>2026-04-11T13:18:01.603Z</time></trkpt><trkpt lat="43.634098" lon="12.2532583"><ele>763.2</ele><time>2026-04-11T13:18:03.603Z</time></trkpt><trkpt lat="43.6340164" lon="12.2533407"><ele>758.6</ele><time>2026-04-11T13:18:07.603Z</time></trkpt><trkpt lat="43.6339388" lon="12.2533946"><ele>754.0</ele><time>2026-04-11T13:18:09.603Z</time></trkpt><trkpt lat="43.6338509" lon="12.2534157"><ele>754.0</ele><time>2026-04-11T13:18:11.603Z</time></trkpt><trkpt lat="43.6337878" lon="12.2534204"><ele>754.0</ele><time>2026-04-11T13:18:12.602Z</time></trkpt><trkpt lat="43.6337076" lon="12.2534395"><ele>754.0</ele><time>2026-04-11T13:18:14.603Z</time></trkpt><trkpt lat="43.6336033" lon="12.2534841"><ele>754.0</ele><time>2026-04-11T13:18:16.603Z</time></trkpt><trkpt lat="43.6335367" lon="12.2535154"><ele>754.0</ele><time>2026-04-11T13:18:17.603Z</time></trkpt><trkpt lat="43.6334269" lon="12.253584"><ele>754.0</ele><time>2026-04-11T13:18:19.603Z</time></trkpt><trkpt lat="43.6333662" lon="12.2536359"><ele>749.2</ele><time>2026-04-11T13:18:20.603Z</time></trkpt><trkpt lat="43.6333041" lon="12.2536703"><ele>744.4000000000001</ele><time>2026-04-11T13:18:21.603Z</time></trkpt><trkpt lat="43.6332092" lon="12.2536935"><ele>739.6</ele><time>2026-04-11T13:18:23.603Z</time></trkpt><trkpt lat="43.6331454" lon="12.2536985"><ele>734.8</ele><time>2026-04-11T13:18:24.602Z</time></trkpt><trkpt lat="43.6330679" lon="12.2537983"><ele>730.0</ele><time>2026-04-11T13:18:26.602Z</time></trkpt><trkpt lat="43.6329864" lon="12.2539511"><ele>730.5</ele><time>2026-04-11T13:18:28.602Z</time></trkpt><trkpt lat="43.6329625" lon="12.2541162"><ele>731.0</ele><time>2026-04-11T13:18:30.603Z</time></trkpt><trkpt lat="43.6329898" lon="12.254234"><ele>731.5</ele><time>2026-04-11T13:18:32.603Z</time></trkpt><trkpt lat="43.633022" lon="12.2543256"><ele>732.0</ele><time>2026-04-11T13:18:43.603Z</time></trkpt><trkpt lat="43.6330403" lon="12.2544282"><ele>732.5</ele><time>2026-04-11T13:18:49.603Z</time></trkpt><trkpt lat="43.6330266" lon="12.254521"><ele>733.0</ele><time>2026-04-11T13:18:54.602Z</time></trkpt><trkpt lat="43.6329961" lon="12.2546205"><ele>733.0</ele><time>2026-04-11T13:18:56.603Z</time></trkpt><trkpt lat="43.6329604" lon="12.2547617"><ele>733.0</ele><time>2026-04-11T13:18:58.603Z</time></trkpt><trkpt lat="43.6328764" lon="12.2548745"><ele>733.0</ele><time>2026-04-11T13:19:00.603Z</time></trkpt><trkpt lat="43.6327662" lon="12.2549828"><ele>733.0</ele><time>2026-04-11T13:19:02.603Z</time></trkpt><trkpt lat="43.6327149" lon="12.2550437"><ele>733.0</ele><time>2026-04-11T13:19:03.603Z</time></trkpt><trkpt lat="43.6326746" lon="12.2551108"><ele>728.2</ele><time>2026-04-11T13:19:04.602Z</time></trkpt><trkpt lat="43.6326274" lon="12.2552387"><ele>723.4</ele><time>2026-04-11T13:19:06.603Z</time></trkpt><trkpt lat="43.6326014" lon="12.2553983"><ele>718.6</ele><time>2026-04-11T13:19:08.603Z</time></trkpt><trkpt lat="43.6325992" lon="12.2554984"><ele>713.8000000000001</ele><time>2026-04-11T13:19:09.602Z</time></trkpt><trkpt lat="43.6325773" lon="12.2556156"><ele>709.0</ele><time>2026-04-11T13:19:10.603Z</time></trkpt><trkpt lat="43.6325454" lon="12.2557701"><ele>708.8333333333334</ele><time>2026-04-11T13:19:11.603Z</time></trkpt><trkpt lat="43.632548" lon="12.2559546"><ele>708.6666666666667</ele><time>2026-04-11T13:19:12.603Z</time></trkpt><trkpt lat="43.6325358" lon="12.2560783"><ele>708.5</ele><time>2026-04-11T13:19:13.603Z</time></trkpt><trkpt lat="43.6325023" lon="12.2561698"><ele>708.3333333333334</ele><time>2026-04-11T13:19:14.602Z</time></trkpt><trkpt lat="43.6324687" lon="12.2562731"><ele>708.1666666666666</ele><time>2026-04-11T13:19:15.603Z</time></trkpt><trkpt lat="43.6324404" lon="12.2563587"><ele>708.0</ele><time>2026-04-11T13:19:16.603Z</time></trkpt><trkpt lat="43.6324146" lon="12.2564408"><ele>707.2</ele><time>2026-04-11T13:19:17.603Z</time></trkpt><trkpt lat="43.632379" lon="12.2565749"><ele>706.4</ele><time>2026-04-11T13:19:19.603Z</time></trkpt><trkpt lat="43.632411" lon="12.2566768"><ele>705.6</ele><time>2026-04-11T13:19:21.602Z</time></trkpt><trkpt lat="43.6324717" lon="12.2568162"><ele>704.8000000000001</ele><time>2026-04-11T13:19:23.603Z</time></trkpt><trkpt lat="43.632538" lon="12.2568987"><ele>704.0</ele><time>2026-04-11T13:19:24.603Z</time></trkpt><trkpt lat="43.6325906" lon="12.2569715"><ele>704.0</ele><time>2026-04-11T13:19:25.603Z</time></trkpt><trkpt lat="43.6326564" lon="12.2571044"><ele>704.0</ele><time>2026-04-11T13:19:27.603Z</time></trkpt><trkpt lat="43.6327126" lon="12.2571729"><ele>704.0</ele><time>2026-04-11T13:19:31.603Z</time></trkpt><trkpt lat="43.6327704" lon="12.2572937"><ele>704.0</ele><time>2026-04-11T13:19:33.603Z</time></trkpt><trkpt lat="43.6328169" lon="12.2573944"><ele>704.0</ele><time>2026-04-11T13:19:35.603Z</time></trkpt><trkpt lat="43.6328564" lon="12.2575251"><ele>701.0</ele><time>2026-04-11T13:19:37.603Z</time></trkpt><trkpt lat="43.6328569" lon="12.2576547"><ele>698.0</ele><time>2026-04-11T13:19:39.602Z</time></trkpt><trkpt lat="43.6328408" lon="12.2577966"><ele>695.0</ele><time>2026-04-11T13:19:41.602Z</time></trkpt><trkpt lat="43.6328107" lon="12.2579449"><ele>692.0</ele><time>2026-04-11T13:19:43.603Z</time></trkpt><trkpt lat="43.6327788" lon="12.2580375"><ele>689.0</ele><time>2026-04-11T13:19:44.603Z</time></trkpt><trkpt lat="43.6327298" lon="12.2581231"><ele>689.0</ele><time>2026-04-11T13:19:46.603Z</time></trkpt><trkpt lat="43.6326458" lon="12.2581901"><ele>689.0</ele><time>2026-04-11T13:19:48.603Z</time></trkpt><trkpt lat="43.6325559" lon="12.2582287"><ele>689.0</ele><time>2026-04-11T13:19:50.602Z</time></trkpt><trkpt lat="43.6324835" lon="12.258215"><ele>689.0</ele><time>2026-04-11T13:19:52.603Z</time></trkpt><trkpt lat="43.632384" lon="12.2581322"><ele>689.0</ele><time>2026-04-11T13:19:54.603Z</time></trkpt><trkpt lat="43.6323085" lon="12.2579858"><ele>689.0</ele><time>2026-04-11T13:19:56.603Z</time></trkpt><trkpt lat="43.6322483" lon="12.2579233"><ele>689.0</ele><time>2026-04-11T13:19:57.602Z</time></trkpt><trkpt lat="43.6321842" lon="12.2579044"><ele>689.0</ele><time>2026-04-11T13:19:58.602Z</time></trkpt><trkpt lat="43.6320857" lon="12.2578203"><ele>689.0</ele><time>2026-04-11T13:20:00.603Z</time></trkpt><trkpt lat="43.6319862" lon="12.257744"><ele>689.0</ele><time>2026-04-11T13:20:02.603Z</time></trkpt><trkpt lat="43.6318826" lon="12.257649"><ele>684.4000000000001</ele><time>2026-04-11T13:20:04.603Z</time></trkpt><trkpt lat="43.6317518" lon="12.2574923"><ele>679.8</ele><time>2026-04-11T13:20:07.603Z</time></trkpt><trkpt lat="43.6316671" lon="12.2574199"><ele>675.2</ele><time>2026-04-11T13:20:09.603Z</time></trkpt><trkpt lat="43.6316088" lon="12.2573705"><ele>670.5999999999999</ele><time>2026-04-11T13:20:11.602Z</time></trkpt><trkpt lat="43.6315532" lon="12.2573061"><ele>666.0</ele><time>2026-04-11T13:20:13.603Z</time></trkpt><trkpt lat="43.6315316" lon="12.2571585"><ele>666.0</ele><time>2026-04-11T13:20:15.602Z</time></trkpt><trkpt lat="43.6315112" lon="12.2570307"><ele>666.0</ele><time>2026-04-11T13:20:17.602Z</time></trkpt><trkpt lat="43.631442" lon="12.257037"><ele>666.0</ele><time>2026-04-11T13:20:20.602Z</time></trkpt><trkpt lat="43.6314027" lon="12.2571298"><ele>666.0</ele><time>2026-04-11T13:20:22.603Z</time></trkpt><trkpt lat="43.631363" lon="12.257226"><ele>666.0</ele><time>2026-04-11T13:20:24.602Z</time></trkpt><trkpt lat="43.6313268" lon="12.2573093"><ele>666.0</ele><time>2026-04-11T13:20:32.602Z</time></trkpt><trkpt lat="43.6312679" lon="12.2574066"><ele>664.4</ele><time>2026-04-11T13:20:36.603Z</time></trkpt><trkpt lat="43.6312087" lon="12.2575234"><ele>662.8</ele><time>2026-04-11T13:20:38.602Z</time></trkpt><trkpt lat="43.6311777" lon="12.2576394"><ele>661.1999999999999</ele><time>2026-04-11T13:20:40.603Z</time></trkpt><trkpt lat="43.6311801" lon="12.2577436"><ele>659.5999999999999</ele><time>2026-04-11T13:20:41.603Z</time></trkpt><trkpt lat="43.6311836" lon="12.2579157"><ele>658.0</ele><time>2026-04-11T13:20:43.602Z</time></trkpt><trkpt lat="43.6311837" lon="12.2580054"><ele>658.0</ele><time>2026-04-11T13:20:44.603Z</time></trkpt><trkpt lat="43.6312167" lon="12.2580805"><ele>658.0</ele><time>2026-04-11T13:20:45.602Z</time></trkpt><trkpt lat="43.6312745" lon="12.2582042"><ele>658.0</ele><time>2026-04-11T13:20:47.602Z</time></trkpt><trkpt lat="43.631315" lon="12.2582797"><ele>658.0</ele><time>2026-04-11T13:20:48.603Z</time></trkpt><trkpt lat="43.6313493" lon="12.2583549"><ele>658.0</ele><time>2026-04-11T13:20:49.603Z</time></trkpt><trkpt lat="43.6313905" lon="12.2584227"><ele>658.0</ele><time>2026-04-11T13:20:50.602Z</time></trkpt><trkpt lat="43.6314677" lon="12.258548"><ele>656.0</ele><time>2026-04-11T13:20:52.603Z</time></trkpt><trkpt lat="43.6315037" lon="12.2586285"><ele>654.0</ele><time>2026-04-11T13:20:53.603Z</time></trkpt><trkpt lat="43.6315609" lon="12.2587768"><ele>652.0</ele><time>2026-04-11T13:20:55.603Z</time></trkpt><trkpt lat="43.6315917" lon="12.2588719"><ele>650.0</ele><time>2026-04-11T13:20:56.603Z</time></trkpt><trkpt lat="43.6316007" lon="12.2589797"><ele>648.0</ele><time>2026-04-11T13:20:57.602Z</time></trkpt><trkpt lat="43.6315911" lon="12.2590669"><ele>646.0</ele><time>2026-04-11T13:20:58.603Z</time></trkpt><trkpt lat="43.6315861" lon="12.2591777"><ele>644.3333333333334</ele><time>2026-04-11T13:20:59.603Z</time></trkpt><trkpt lat="43.6315804" lon="12.2592804"><ele>642.6666666666667</ele><time>2026-04-11T13:21:00.602Z</time></trkpt><trkpt lat="43.6315878" lon="12.2594254"><ele>641.0</ele><time>2026-04-11T13:21:02.603Z</time></trkpt><trkpt lat="43.6315934" lon="12.2595337"><ele>639.3333333333334</ele><time>2026-04-11T13:21:04.603Z</time></trkpt><trkpt lat="43.6316211" lon="12.2596466"><ele>637.6666666666666</ele><time>2026-04-11T13:21:08.603Z</time></trkpt><trkpt lat="43.6316393" lon="12.2597522"><ele>636.0</ele><time>2026-04-11T13:21:10.602Z</time></trkpt><trkpt lat="43.6316021" lon="12.2599258"><ele>636.0</ele><time>2026-04-11T13:21:12.603Z</time></trkpt><trkpt lat="43.6316091" lon="12.2601021"><ele>636.0</ele><time>2026-04-11T13:21:14.602Z</time></trkpt><trkpt lat="43.6315923" lon="12.2601905"><ele>636.0</ele><time>2026-04-11T13:21:15.603Z</time></trkpt><trkpt lat="43.6315683" lon="12.2602775"><ele>636.0</ele><time>2026-04-11T13:21:16.603Z</time></trkpt><trkpt lat="43.6315403" lon="12.2603729"><ele>636.0</ele><time>2026-04-11T13:21:17.602Z</time></trkpt><trkpt lat="43.6314778" lon="12.2604812"><ele>636.0</ele><time>2026-04-11T13:21:18.603Z</time></trkpt><trkpt lat="43.6314182" lon="12.2605339"><ele>637.1666666666666</ele><time>2026-04-11T13:21:19.603Z</time></trkpt><trkpt lat="43.6313616" lon="12.2606173"><ele>638.3333333333334</ele><time>2026-04-11T13:21:20.602Z</time></trkpt><trkpt lat="43.6312991" lon="12.2606643"><ele>639.5</ele><time>2026-04-11T13:21:21.603Z</time></trkpt><trkpt lat="43.6312443" lon="12.2607255"><ele>640.6666666666667</ele><time>2026-04-11T13:21:22.602Z</time></trkpt><trkpt lat="43.6312334" lon="12.2608181"><ele>641.8333333333334</ele><time>2026-04-11T13:21:23.603Z</time></trkpt><trkpt lat="43.6312206" lon="12.2609147"><ele>643.0</ele><time>2026-04-11T13:21:24.603Z</time></trkpt><trkpt lat="43.6312294" lon="12.2610441"><ele>643.0</ele><time>2026-04-11T13:21:26.603Z</time></trkpt><trkpt lat="43.6312361" lon="12.2612139"><ele>643.0</ele><time>2026-04-11T13:21:28.603Z</time></trkpt><trkpt lat="43.6311912" lon="12.2612828"><ele>643.0</ele><time>2026-04-11T13:21:29.603Z</time></trkpt><trkpt lat="43.6311255" lon="12.2613491"><ele>643.0</ele><time>2026-04-11T13:21:30.603Z</time></trkpt><trkpt lat="43.6310769" lon="12.2614147"><ele>643.0</ele><time>2026-04-11T13:21:31.602Z</time></trkpt><trkpt lat="43.6310055" lon="12.26147"><ele>643.0</ele><time>2026-04-11T13:21:32.601Z</time></trkpt><trkpt lat="43.6309384" lon="12.2615393"><ele>640.0</ele><time>2026-04-11T13:21:33.603Z</time></trkpt><trkpt lat="43.6308749" lon="12.2616099"><ele>637.0</ele><time>2026-04-11T13:21:34.603Z</time></trkpt><trkpt lat="43.6307696" lon="12.261737"><ele>634.0</ele><time>2026-04-11T13:21:36.601Z</time></trkpt><trkpt lat="43.6307114" lon="12.2618048"><ele>631.0</ele><time>2026-04-11T13:21:37.603Z</time></trkpt><trkpt lat="43.6306258" lon="12.2618471"><ele>628.0</ele><time>2026-04-11T13:21:38.603Z</time></trkpt><trkpt lat="43.6305569" lon="12.2618916"><ele>628.0</ele><time>2026-04-11T13:21:39.603Z</time></trkpt><trkpt lat="43.6304848" lon="12.2619372"><ele>628.0</ele><time>2026-04-11T13:21:40.603Z</time></trkpt><trkpt lat="43.630405" lon="12.2619918"><ele>628.0</ele><time>2026-04-11T13:21:41.603Z</time></trkpt><trkpt lat="43.6303318" lon="12.262031"><ele>628.0</ele><time>2026-04-11T13:21:42.603Z</time></trkpt><trkpt lat="43.630261" lon="12.2620494"><ele>628.0</ele><time>2026-04-11T13:21:43.603Z</time></trkpt><trkpt lat="43.6301843" lon="12.2620802"><ele>628.0</ele><time>2026-04-11T13:21:44.601Z</time></trkpt><trkpt lat="43.6301086" lon="12.2621239"><ele>625.4</ele><time>2026-04-11T13:21:45.603Z</time></trkpt><trkpt lat="43.6299839" lon="12.2622266"><ele>622.8</ele><time>2026-04-11T13:21:47.601Z</time></trkpt><trkpt lat="43.6298768" lon="12.2623236"><ele>620.2</ele><time>2026-04-11T13:21:49.603Z</time></trkpt><trkpt lat="43.6298205" lon="12.2623946"><ele>617.6</ele><time>2026-04-11T13:21:50.602Z</time></trkpt><trkpt lat="43.6297549" lon="12.2624595"><ele>615.0</ele><time>2026-04-11T13:21:51.603Z</time></trkpt><trkpt lat="43.6296506" lon="12.2625578"><ele>615.0</ele><time>2026-04-11T13:21:53.602Z</time></trkpt><trkpt lat="43.6295767" lon="12.2626146"><ele>615.0</ele><time>2026-04-11T13:21:54.603Z</time></trkpt><trkpt lat="43.6294822" lon="12.2626631"><ele>615.0</ele><time>2026-04-11T13:21:55.602Z</time></trkpt><trkpt lat="43.629412" lon="12.2626943"><ele>615.0</ele><time>2026-04-11T13:21:56.603Z</time></trkpt><trkpt lat="43.6293241" lon="12.2626531"><ele>615.0</ele><time>2026-04-11T13:21:57.602Z</time></trkpt><trkpt lat="43.6292398" lon="12.2626492"><ele>615.0</ele><time>2026-04-11T13:21:58.603Z</time></trkpt><trkpt lat="43.6292022" lon="12.2625753"><ele>610.8</ele><time>2026-04-11T13:22:00.601Z</time></trkpt><trkpt lat="43.6290959" lon="12.2625685"><ele>606.6</ele><time>2026-04-11T13:22:02.602Z</time></trkpt><trkpt lat="43.629022" lon="12.2626039"><ele>602.4</ele><time>2026-04-11T13:22:04.603Z</time></trkpt><trkpt lat="43.6289657" lon="12.2626925"><ele>598.2</ele><time>2026-04-11T13:22:05.603Z</time></trkpt><trkpt lat="43.6288817" lon="12.2628088"><ele>594.0</ele><time>2026-04-11T13:22:07.603Z</time></trkpt><trkpt lat="43.628811" lon="12.2628929"><ele>594.0</ele><time>2026-04-11T13:22:09.602Z</time></trkpt><trkpt lat="43.6287207" lon="12.2629632"><ele>594.0</ele><time>2026-04-11T13:22:12.601Z</time></trkpt><trkpt lat="43.6286341" lon="12.2630217"><ele>594.0</ele><time>2026-04-11T13:22:14.602Z</time></trkpt><trkpt lat="43.6285691" lon="12.2630383"><ele>594.0</ele><time>2026-04-11T13:22:15.603Z</time></trkpt><trkpt lat="43.6285047" lon="12.2630675"><ele>594.0</ele><time>2026-04-11T13:22:16.603Z</time></trkpt><trkpt lat="43.6284048" lon="12.2630464"><ele>594.0</ele><time>2026-04-11T13:22:18.603Z</time></trkpt><trkpt lat="43.6283065" lon="12.2630623"><ele>591.8333333333334</ele><time>2026-04-11T13:22:20.603Z</time></trkpt><trkpt lat="43.6282336" lon="12.2631414"><ele>589.6666666666666</ele><time>2026-04-11T13:22:22.603Z</time></trkpt><trkpt lat="43.6282441" lon="12.2632312"><ele>587.5</ele><time>2026-04-11T13:22:24.602Z</time></trkpt><trkpt lat="43.6282827" lon="12.2633396"><ele>585.3333333333333</ele><time>2026-04-11T13:22:26.602Z</time></trkpt><trkpt lat="43.6283244" lon="12.263462"><ele>583.1666666666666</ele><time>2026-04-11T13:22:28.603Z</time></trkpt><trkpt lat="43.6283564" lon="12.2635617"><ele>581.0</ele><time>2026-04-11T13:22:30.603Z</time></trkpt><trkpt lat="43.6283107" lon="12.2636507"><ele>581.0</ele><time>2026-04-11T13:22:33.603Z</time></trkpt><trkpt lat="43.628229" lon="12.2636164"><ele>581.0</ele><time>2026-04-11T13:22:35.603Z</time></trkpt><trkpt lat="43.6281174" lon="12.2635589"><ele>581.0</ele><time>2026-04-11T13:22:37.603Z</time></trkpt><trkpt lat="43.6280035" lon="12.2635146"><ele>581.0</ele><time>2026-04-11T13:22:39.603Z</time></trkpt><trkpt lat="43.6278967" lon="12.263461"><ele>581.0</ele><time>2026-04-11T13:22:41.602Z</time></trkpt><trkpt lat="43.6277918" lon="12.2634139"><ele>580.2</ele><time>2026-04-11T13:22:43.603Z</time></trkpt><trkpt lat="43.6277001" lon="12.2633561"><ele>579.4000000000001</ele><time>2026-04-11T13:22:45.603Z</time></trkpt><trkpt lat="43.6276202" lon="12.2632794"><ele>578.6</ele><time>2026-04-11T13:22:47.603Z</time></trkpt><trkpt lat="43.6275356" lon="12.2631411"><ele>577.8000000000001</ele><time>2026-04-11T13:22:49.601Z</time></trkpt><trkpt lat="43.6274855" lon="12.2630439"><ele>577.0</ele><time>2026-04-11T13:22:50.602Z</time></trkpt><trkpt lat="43.6274316" lon="12.2629557"><ele>577.0</ele><time>2026-04-11T13:22:51.603Z</time></trkpt><trkpt lat="43.6273721" lon="12.2628559"><ele>577.0</ele><time>2026-04-11T13:22:52.603Z</time></trkpt><trkpt lat="43.6273096" lon="12.2627508"><ele>577.0</ele><time>2026-04-11T13:22:53.602Z</time></trkpt><trkpt lat="43.6272459" lon="12.2626395"><ele>577.0</ele><time>2026-04-11T13:22:54.603Z</time></trkpt><trkpt lat="43.6271749" lon="12.2625242"><ele>577.0</ele><time>2026-04-11T13:22:55.601Z</time></trkpt><trkpt lat="43.6270373" lon="12.2622706"><ele>575.5</ele><time>2026-04-11T13:22:57.603Z</time></trkpt><trkpt lat="43.6269801" lon="12.262124"><ele>574.0</ele><time>2026-04-11T13:22:58.603Z</time></trkpt><trkpt lat="43.6269301" lon="12.2619681"><ele>572.5</ele><time>2026-04-11T13:22:59.603Z</time></trkpt><trkpt lat="43.6268827" lon="12.2618003"><ele>571.0</ele><time>2026-04-11T13:23:00.603Z</time></trkpt><trkpt lat="43.626832" lon="12.2616315"><ele>571.0</ele><time>2026-04-11T13:23:01.602Z</time></trkpt><trkpt lat="43.6267791" lon="12.2614545"><ele>571.0</ele><time>2026-04-11T13:23:02.603Z</time></trkpt><trkpt lat="43.6267227" lon="12.2612733"><ele>571.0</ele><time>2026-04-11T13:23:03.602Z</time></trkpt><trkpt lat="43.6266653" lon="12.2610884"><ele>571.0</ele><time>2026-04-11T13:23:04.603Z</time></trkpt><trkpt lat="43.6266078" lon="12.2608986"><ele>572.5</ele><time>2026-04-11T13:23:05.602Z</time></trkpt><trkpt lat="43.6265511" lon="12.2607158"><ele>574.0</ele><time>2026-04-11T13:23:06.603Z</time></trkpt><trkpt lat="43.6264951" lon="12.260529"><ele>575.5</ele><time>2026-04-11T13:23:07.603Z</time></trkpt><trkpt lat="43.6264415" lon="12.2603336"><ele>577.0</ele><time>2026-04-11T13:23:08.603Z</time></trkpt><trkpt lat="43.6263951" lon="12.2601358"><ele>580.0</ele><time>2026-04-11T13:23:09.603Z</time></trkpt><trkpt lat="43.6263557" lon="12.2599342"><ele>583.0</ele><time>2026-04-11T13:23:10.603Z</time></trkpt><trkpt lat="43.6263209" lon="12.2597401"><ele>586.0</ele><time>2026-04-11T13:23:11.603Z</time></trkpt><trkpt lat="43.6262884" lon="12.2595627"><ele>589.0</ele><time>2026-04-11T13:23:12.603Z</time></trkpt><trkpt lat="43.6262446" lon="12.2593905"><ele>590.25</ele><time>2026-04-11T13:23:13.603Z</time></trkpt><trkpt lat="43.626185" lon="12.259236"><ele>591.5</ele><time>2026-04-11T13:23:14.602Z</time></trkpt><trkpt lat="43.6261046" lon="12.2591034"><ele>592.75</ele><time>2026-04-11T13:23:15.603Z</time></trkpt><trkpt lat="43.6260114" lon="12.2589982"><ele>594.0</ele><time>2026-04-11T13:23:16.603Z</time></trkpt><trkpt lat="43.6259035" lon="12.2589182"><ele>595.25</ele><time>2026-04-11T13:23:17.603Z</time></trkpt><trkpt lat="43.6257875" lon="12.2588719"><ele>596.5</ele><time>2026-04-11T13:23:18.603Z</time></trkpt><trkpt lat="43.625663" lon="12.2588477"><ele>597.75</ele><time>2026-04-11T13:23:19.602Z</time></trkpt><trkpt lat="43.6255344" lon="12.2588404"><ele>599.0</ele><time>2026-04-11T13:23:20.603Z</time></trkpt><trkpt lat="43.62541" lon="12.2588248"><ele>594.6</ele><time>2026-04-11T13:23:21.603Z</time></trkpt><trkpt lat="43.6252945" lon="12.2587862"><ele>590.2</ele><time>2026-04-11T13:23:22.602Z</time></trkpt><trkpt lat="43.6252025" lon="12.2587086"><ele>585.8000000000001</ele><time>2026-04-11T13:23:23.602Z</time></trkpt><trkpt lat="43.6251432" lon="12.2585937"><ele>581.4</ele><time>2026-04-11T13:23:24.602Z</time></trkpt><trkpt lat="43.6251191" lon="12.2584578"><ele>577.0</ele><time>2026-04-11T13:23:25.602Z</time></trkpt><trkpt lat="43.6251157" lon="12.2583196"><ele>577.0</ele><time>2026-04-11T13:23:26.602Z</time></trkpt><trkpt lat="43.6251243" lon="12.2581693"><ele>577.0</ele><time>2026-04-11T13:23:27.602Z</time></trkpt><trkpt lat="43.6251394" lon="12.2580116"><ele>577.0</ele><time>2026-04-11T13:23:28.601Z</time></trkpt><trkpt lat="43.6251519" lon="12.2578476"><ele>577.0</ele><time>2026-04-11T13:23:29.602Z</time></trkpt><trkpt lat="43.6251508" lon="12.2576784"><ele>578.25</ele><time>2026-04-11T13:23:30.603Z</time></trkpt><trkpt lat="43.625134" lon="12.2575101"><ele>579.5</ele><time>2026-04-11T13:23:31.602Z</time></trkpt><trkpt lat="43.6251071" lon="12.2573444"><ele>580.75</ele><time>2026-04-11T13:23:32.603Z</time></trkpt><trkpt lat="43.6250733" lon="12.2571864"><ele>582.0</ele><time>2026-04-11T13:23:33.603Z</time></trkpt><trkpt lat="43.6250383" lon="12.257033"><ele>583.8000000000001</ele><time>2026-04-11T13:23:34.603Z</time></trkpt><trkpt lat="43.6250029" lon="12.2568908"><ele>585.6</ele><time>2026-04-11T13:23:35.603Z</time></trkpt><trkpt lat="43.624963" lon="12.2567625"><ele>587.4000000000001</ele><time>2026-04-11T13:23:36.601Z</time></trkpt><trkpt lat="43.6249114" lon="12.25666"><ele>589.2</ele><time>2026-04-11T13:23:37.603Z</time></trkpt><trkpt lat="43.6248435" lon="12.2565851"><ele>591.0</ele><time>2026-04-11T13:23:38.603Z</time></trkpt><trkpt lat="43.624765" lon="12.256535"><ele>591.0</ele><time>2026-04-11T13:23:39.603Z</time></trkpt><trkpt lat="43.6246792" lon="12.2565031"><ele>591.0</ele><time>2026-04-11T13:23:40.602Z</time></trkpt><trkpt lat="43.6245913" lon="12.2564754"><ele>591.0</ele><time>2026-04-11T13:23:41.602Z</time></trkpt><trkpt lat="43.6244988" lon="12.2564477"><ele>591.0</ele><time>2026-04-11T13:23:42.603Z</time></trkpt><trkpt lat="43.6244091" lon="12.256424"><ele>591.0</ele><time>2026-04-11T13:23:43.603Z</time></trkpt><trkpt lat="43.6243187" lon="12.256393"><ele>591.8</ele><time>2026-04-11T13:23:44.603Z</time></trkpt><trkpt lat="43.6242262" lon="12.2563691"><ele>592.6</ele><time>2026-04-11T13:23:45.602Z</time></trkpt><trkpt lat="43.6241328" lon="12.2563495"><ele>593.4</ele><time>2026-04-11T13:23:46.603Z</time></trkpt><trkpt lat="43.6240392" lon="12.2563216"><ele>594.2</ele><time>2026-04-11T13:23:47.603Z</time></trkpt><trkpt lat="43.6239449" lon="12.2562855"><ele>595.0</ele><time>2026-04-11T13:23:48.603Z</time></trkpt><trkpt lat="43.6238523" lon="12.2562374"><ele>595.0</ele><time>2026-04-11T13:23:49.603Z</time></trkpt><trkpt lat="43.6237686" lon="12.2561635"><ele>595.0</ele><time>2026-04-11T13:23:50.603Z</time></trkpt><trkpt lat="43.6236951" lon="12.2560761"><ele>595.0</ele><time>2026-04-11T13:23:51.603Z</time></trkpt><trkpt lat="43.6236284" lon="12.255985"><ele>595.0</ele><time>2026-04-11T13:23:52.603Z</time></trkpt><trkpt lat="43.6235697" lon="12.2558875"><ele>595.0</ele><time>2026-04-11T13:23:53.603Z</time></trkpt><trkpt lat="43.6235202" lon="12.2557925"><ele>594.6666666666667</ele><time>2026-04-11T13:23:54.603Z</time></trkpt><trkpt lat="43.6234702" lon="12.2557025"><ele>594.3333333333334</ele><time>2026-04-11T13:23:55.603Z</time></trkpt><trkpt lat="43.6234177" lon="12.2556099"><ele>594.0</ele><time>2026-04-11T13:23:56.602Z</time></trkpt><trkpt lat="43.623364" lon="12.2555186"><ele>593.6666666666666</ele><time>2026-04-11T13:23:57.602Z</time></trkpt><trkpt lat="43.6233107" lon="12.2554326"><ele>593.3333333333333</ele><time>2026-04-11T13:23:58.603Z</time></trkpt><trkpt lat="43.6232619" lon="12.2553512"><ele>593.0</ele><time>2026-04-11T13:23:59.603Z</time></trkpt><trkpt lat="43.6232136" lon="12.2552795"><ele>593.0</ele><time>2026-04-11T13:24:00.603Z</time></trkpt><trkpt lat="43.6231488" lon="12.2551694"><ele>593.0</ele><time>2026-04-11T13:24:02.602Z</time></trkpt><trkpt lat="43.6231096" lon="12.2550965"><ele>593.0</ele><time>2026-04-11T13:24:04.603Z</time></trkpt><trkpt lat="43.6230324" lon="12.2550926"><ele>593.0</ele><time>2026-04-11T13:24:07.601Z</time></trkpt><trkpt lat="43.6229646" lon="12.2551577"><ele>593.0</ele><time>2026-04-11T13:24:55.601Z</time></trkpt><trkpt lat="43.6228939" lon="12.2552517"><ele>593.0</ele><time>2026-04-11T13:24:57.602Z</time></trkpt><trkpt lat="43.6228345" lon="12.2553114"><ele>592.8333333333333</ele><time>2026-04-11T13:25:00.602Z</time></trkpt><trkpt lat="43.6227495" lon="12.2553428"><ele>592.6666666666666</ele><time>2026-04-11T13:25:20.602Z</time></trkpt><trkpt lat="43.6226461" lon="12.2554327"><ele>592.5</ele><time>2026-04-11T13:25:22.601Z</time></trkpt><trkpt lat="43.6225964" lon="12.2554971"><ele>592.3333333333334</ele><time>2026-04-11T13:25:23.602Z</time></trkpt><trkpt lat="43.6225452" lon="12.2555787"><ele>592.1666666666667</ele><time>2026-04-11T13:25:24.602Z</time></trkpt><trkpt lat="43.6224951" lon="12.2556643"><ele>592.0</ele><time>2026-04-11T13:25:25.602Z</time></trkpt><trkpt lat="43.6224426" lon="12.255759"><ele>592.0</ele><time>2026-04-11T13:25:26.602Z</time></trkpt><trkpt lat="43.6223884" lon="12.2558616"><ele>592.0</ele><time>2026-04-11T13:25:27.601Z</time></trkpt><trkpt lat="43.6223297" lon="12.2559729"><ele>592.0</ele><time>2026-04-11T13:25:28.602Z</time></trkpt><trkpt lat="43.6222666" lon="12.2560868"><ele>592.0</ele><time>2026-04-11T13:25:29.601Z</time></trkpt><trkpt lat="43.62221" lon="12.256191"><ele>592.0</ele><time>2026-04-11T13:25:30.602Z</time></trkpt><trkpt lat="43.6221584" lon="12.2562841"><ele>592.0</ele><time>2026-04-11T13:25:31.602Z</time></trkpt><trkpt lat="43.6221139" lon="12.2563637"><ele>592.0</ele><time>2026-04-11T13:25:32.601Z</time></trkpt><trkpt lat="43.6220705" lon="12.2565002"><ele>592.0</ele><time>2026-04-11T13:25:34.602Z</time></trkpt><trkpt lat="43.6221165" lon="12.2566498"><ele>592.0</ele><time>2026-04-11T13:25:36.601Z</time></trkpt><trkpt lat="43.622168" lon="12.2567423"><ele>592.0</ele><time>2026-04-11T13:25:37.602Z</time></trkpt><trkpt lat="43.6222283" lon="12.2568392"><ele>592.75</ele><time>2026-04-11T13:25:38.601Z</time></trkpt><trkpt lat="43.6222887" lon="12.2569541"><ele>593.5</ele><time>2026-04-11T13:25:39.602Z</time></trkpt><trkpt lat="43.6223568" lon="12.2570812"><ele>594.25</ele><time>2026-04-11T13:25:40.602Z</time></trkpt><trkpt lat="43.6224304" lon="12.2572171"><ele>595.0</ele><time>2026-04-11T13:25:41.601Z</time></trkpt><trkpt lat="43.6225102" lon="12.2573545"><ele>596.0</ele><time>2026-04-11T13:25:42.601Z</time></trkpt><trkpt lat="43.6226061" lon="12.2574705"><ele>597.0</ele><time>2026-04-11T13:25:43.602Z</time></trkpt><trkpt lat="43.6227169" lon="12.2575534"><ele>598.0</ele><time>2026-04-11T13:25:44.602Z</time></trkpt><trkpt lat="43.6228306" lon="12.2576051"><ele>599.0</ele><time>2026-04-11T13:25:45.602Z</time></trkpt><trkpt lat="43.6229469" lon="12.2576421"><ele>599.0</ele><time>2026-04-11T13:25:46.602Z</time></trkpt><trkpt lat="43.62305" lon="12.2576637"><ele>599.0</ele><time>2026-04-11T13:25:47.602Z</time></trkpt><trkpt lat="43.6231439" lon="12.2576708"><ele>599.0</ele><time>2026-04-11T13:25:48.602Z</time></trkpt><trkpt lat="43.6232309" lon="12.2576594"><ele>599.0</ele><time>2026-04-11T13:25:49.601Z</time></trkpt><trkpt lat="43.623336" lon="12.2576427"><ele>599.0</ele><time>2026-04-11T13:25:51.601Z</time></trkpt><trkpt lat="43.6233553" lon="12.2577467"><ele>599.0</ele><time>2026-04-11T13:25:53.601Z</time></trkpt><trkpt lat="43.6232841" lon="12.2578416"><ele>599.0</ele><time>2026-04-11T13:25:55.602Z</time></trkpt><trkpt lat="43.6231584" lon="12.2579073"><ele>599.0</ele><time>2026-04-11T13:25:57.6Z</time></trkpt><trkpt lat="43.6230757" lon="12.2579582"><ele>599.0</ele><time>2026-04-11T13:25:58.602Z</time></trkpt><trkpt lat="43.6229905" lon="12.2580146"><ele>599.0</ele><time>2026-04-11T13:25:59.602Z</time></trkpt><trkpt lat="43.6229058" lon="12.2580685"><ele>604.5</ele><time>2026-04-11T13:26:00.602Z</time></trkpt><trkpt lat="43.6228089" lon="12.2581324"><ele>610.0</ele><time>2026-04-11T13:26:01.602Z</time></trkpt><trkpt lat="43.6227018" lon="12.2582116"><ele>615.5</ele><time>2026-04-11T13:26:02.601Z</time></trkpt><trkpt lat="43.6225949" lon="12.2582937"><ele>621.0</ele><time>2026-04-11T13:26:03.601Z</time></trkpt><trkpt lat="43.6224883" lon="12.2583659"><ele>621.0</ele><time>2026-04-11T13:26:04.601Z</time></trkpt><trkpt lat="43.6223821" lon="12.2584321"><ele>621.0</ele><time>2026-04-11T13:26:05.602Z</time></trkpt><trkpt lat="43.622275" lon="12.2584898"><ele>621.0</ele><time>2026-04-11T13:26:06.602Z</time></trkpt><trkpt lat="43.6221627" lon="12.2585219"><ele>621.0</ele><time>2026-04-11T13:26:07.602Z</time></trkpt><trkpt lat="43.6220416" lon="12.2585332"><ele>623.25</ele><time>2026-04-11T13:26:08.601Z</time></trkpt><trkpt lat="43.6219229" lon="12.2585376"><ele>625.5</ele><time>2026-04-11T13:26:09.601Z</time></trkpt><trkpt lat="43.6218062" lon="12.2585347"><ele>627.75</ele><time>2026-04-11T13:26:10.601Z</time></trkpt><trkpt lat="43.6216903" lon="12.2585218"><ele>630.0</ele><time>2026-04-11T13:26:11.601Z</time></trkpt><trkpt lat="43.6215763" lon="12.2584798"><ele>630.0</ele><time>2026-04-11T13:26:12.602Z</time></trkpt><trkpt lat="43.6214593" lon="12.2584284"><ele>630.0</ele><time>2026-04-11T13:26:13.602Z</time></trkpt><trkpt lat="43.6213455" lon="12.2583531"><ele>630.0</ele><time>2026-04-11T13:26:14.602Z</time></trkpt><trkpt lat="43.6212373" lon="12.2582774"><ele>630.0</ele><time>2026-04-11T13:26:15.601Z</time></trkpt><trkpt lat="43.6211279" lon="12.2581919"><ele>630.8</ele><time>2026-04-11T13:26:16.602Z</time></trkpt><trkpt lat="43.6210264" lon="12.2581009"><ele>631.6</ele><time>2026-04-11T13:26:17.602Z</time></trkpt><trkpt lat="43.6209428" lon="12.2579934"><ele>632.4</ele><time>2026-04-11T13:26:18.601Z</time></trkpt><trkpt lat="43.6209244" lon="12.2578881"><ele>633.2</ele><time>2026-04-11T13:26:19.601Z</time></trkpt><trkpt lat="43.6208932" lon="12.257799"><ele>634.0</ele><time>2026-04-11T13:26:20.601Z</time></trkpt><trkpt lat="43.6208248" lon="12.2576629"><ele>634.0</ele><time>2026-04-11T13:26:22.601Z</time></trkpt><trkpt lat="43.6207661" lon="12.2577095"><ele>634.0</ele><time>2026-04-11T13:26:24.602Z</time></trkpt><trkpt lat="43.6207686" lon="12.2578385"><ele>634.0</ele><time>2026-04-11T13:26:26.601Z</time></trkpt><trkpt lat="43.6207955" lon="12.2579267"><ele>634.0</ele><time>2026-04-11T13:26:27.601Z</time></trkpt><trkpt lat="43.6208284" lon="12.2580242"><ele>634.0</ele><time>2026-04-11T13:26:28.601Z</time></trkpt><trkpt lat="43.6208658" lon="12.2581447"><ele>634.0</ele><time>2026-04-11T13:26:29.602Z</time></trkpt><trkpt lat="43.6209052" lon="12.2582645"><ele>633.2</ele><time>2026-04-11T13:26:30.602Z</time></trkpt><trkpt lat="43.6209603" lon="12.2583789"><ele>632.4</ele><time>2026-04-11T13:26:31.601Z</time></trkpt><trkpt lat="43.6210336" lon="12.2584826"><ele>631.6</ele><time>2026-04-11T13:26:32.601Z</time></trkpt><trkpt lat="43.6211215" lon="12.258574"><ele>630.8</ele><time>2026-04-11T13:26:33.601Z</time></trkpt><trkpt lat="43.621217" lon="12.2586574"><ele>630.0</ele><time>2026-04-11T13:26:34.602Z</time></trkpt><trkpt lat="43.6213206" lon="12.2587426"><ele>630.0</ele><time>2026-04-11T13:26:35.602Z</time></trkpt><trkpt lat="43.6214175" lon="12.2588328"><ele>630.0</ele><time>2026-04-11T13:26:36.601Z</time></trkpt><trkpt lat="43.6215196" lon="12.2589134"><ele>630.0</ele><time>2026-04-11T13:26:37.601Z</time></trkpt><trkpt lat="43.6216201" lon="12.2589823"><ele>630.0</ele><time>2026-04-11T13:26:38.602Z</time></trkpt><trkpt lat="43.6217064" lon="12.2590492"><ele>630.0</ele><time>2026-04-11T13:26:39.602Z</time></trkpt><trkpt lat="43.6217817" lon="12.2591016"><ele>634.2</ele><time>2026-04-11T13:26:40.602Z</time></trkpt><trkpt lat="43.6218411" lon="12.2591593"><ele>638.4</ele><time>2026-04-11T13:26:41.602Z</time></trkpt><trkpt lat="43.6219206" lon="12.2592926"><ele>642.5999999999999</ele><time>2026-04-11T13:26:43.602Z</time></trkpt><trkpt lat="43.6219032" lon="12.25944"><ele>646.8</ele><time>2026-04-11T13:26:45.602Z</time></trkpt><trkpt lat="43.6218097" lon="12.2595382"><ele>651.0</ele><time>2026-04-11T13:26:47.601Z</time></trkpt><trkpt lat="43.621747" lon="12.2595762"><ele>651.0</ele><time>2026-04-11T13:26:48.602Z</time></trkpt><trkpt lat="43.621684" lon="12.2596019"><ele>651.0</ele><time>2026-04-11T13:26:49.602Z</time></trkpt><trkpt lat="43.6215857" lon="12.2596296"><ele>651.0</ele><time>2026-04-11T13:26:51.601Z</time></trkpt><trkpt lat="43.621508" lon="12.259633"><ele>651.0</ele><time>2026-04-11T13:26:53.602Z</time></trkpt><trkpt lat="43.6214156" lon="12.2596143"><ele>651.0</ele><time>2026-04-11T13:26:55.601Z</time></trkpt><trkpt lat="43.6213386" lon="12.2596097"><ele>651.0</ele><time>2026-04-11T13:26:57.602Z</time></trkpt><trkpt lat="43.6214252" lon="12.2596381"><ele>651.0</ele><time>2026-04-11T13:27:04.602Z</time></trkpt><trkpt lat="43.6215065" lon="12.2596519"><ele>651.0</ele><time>2026-04-11T13:27:07.602Z</time></trkpt><trkpt lat="43.6215847" lon="12.2596268"><ele>651.0</ele><time>2026-04-11T13:29:04.602Z</time></trkpt><trkpt lat="43.6216338" lon="12.2595378"><ele>651.0</ele><time>2026-04-11T13:29:07.601Z</time></trkpt><trkpt lat="43.6216598" lon="12.2594525"><ele>651.0</ele><time>2026-04-11T13:29:11.601Z</time></trkpt><trkpt lat="43.6216316" lon="12.2593602"><ele>651.0</ele><time>2026-04-11T13:29:15.602Z</time></trkpt><trkpt lat="43.6216123" lon="12.2592678"><ele>651.0</ele><time>2026-04-11T13:29:19.677Z</time></trkpt><trkpt lat="43.6215665" lon="12.2592035"><ele>651.0</ele><time>2026-04-11T13:29:21.602Z</time></trkpt><trkpt lat="43.6214586" lon="12.2592564"><ele>651.0</ele><time>2026-04-11T13:29:23.672Z</time></trkpt><trkpt lat="43.6213947" lon="12.2593216"><ele>651.0</ele><time>2026-04-11T13:29:24.67Z</time></trkpt><trkpt lat="43.6213228" lon="12.2593483"><ele>651.0</ele><time>2026-04-11T13:29:25.602Z</time></trkpt><trkpt lat="43.6212461" lon="12.2593575"><ele>651.0</ele><time>2026-04-11T13:29:27.672Z</time></trkpt><trkpt lat="43.6211583" lon="12.2593675"><ele>655.5999999999999</ele><time>2026-04-11T13:29:29.686Z</time></trkpt><trkpt lat="43.6210699" lon="12.2593844"><ele>660.2</ele><time>2026-04-11T13:29:32.706Z</time></trkpt><trkpt lat="43.6209859" lon="12.2594163"><ele>664.8</ele><time>2026-04-11T13:29:35.682Z</time></trkpt><trkpt lat="43.6208905" lon="12.2593394"><ele>669.4000000000001</ele><time>2026-04-11T13:29:37.601Z</time></trkpt><trkpt lat="43.6208086" lon="12.2593348"><ele>674.0</ele><time>2026-04-11T13:29:39.602Z</time></trkpt><trkpt lat="43.620711" lon="12.2593714"><ele>674.0</ele><time>2026-04-11T13:29:42.601Z</time></trkpt><trkpt lat="43.6206319" lon="12.259359"><ele>674.0</ele><time>2026-04-11T13:29:44.602Z</time></trkpt><trkpt lat="43.6205515" lon="12.2593024"><ele>674.0</ele><time>2026-04-11T13:29:46.602Z</time></trkpt><trkpt lat="43.6204725" lon="12.2592549"><ele>674.0</ele><time>2026-04-11T13:29:48.602Z</time></trkpt><trkpt lat="43.620412" lon="12.2592157"><ele>674.0</ele><time>2026-04-11T13:29:51.602Z</time></trkpt><trkpt lat="43.620464" lon="12.259276"><ele>674.0</ele><time>2026-04-11T13:32:39.602Z</time></trkpt><trkpt lat="43.6205299" lon="12.2592912"><ele>674.0</ele><time>2026-04-11T13:32:46.602Z</time></trkpt><trkpt lat="43.6204592" lon="12.2592641"><ele>674.0</ele><time>2026-04-11T13:33:23.602Z</time></trkpt><trkpt lat="43.6203979" lon="12.259236"><ele>674.0</ele><time>2026-04-11T13:33:32.651Z</time></trkpt><trkpt lat="43.6203257" lon="12.2592474"><ele>674.0</ele><time>2026-04-11T13:35:10.558Z</time></trkpt><trkpt lat="43.6201725" lon="12.2591739"><ele>674.0</ele><time>2026-04-11T13:35:12.602Z</time></trkpt><trkpt lat="43.6201013" lon="12.2591907"><ele>674.0</ele><time>2026-04-11T13:35:13.602Z</time></trkpt><trkpt lat="43.6200381" lon="12.2591991"><ele>677.0</ele><time>2026-04-11T13:35:14.602Z</time></trkpt><trkpt lat="43.6199245" lon="12.2592192"><ele>680.0</ele><time>2026-04-11T13:35:16.602Z</time></trkpt><trkpt lat="43.6198155" lon="12.2592095"><ele>683.0</ele><time>2026-04-11T13:35:18.602Z</time></trkpt><trkpt lat="43.6197017" lon="12.2592243"><ele>686.0</ele><time>2026-04-11T13:35:20.602Z</time></trkpt><trkpt lat="43.6196014" lon="12.2592454"><ele>689.0</ele><time>2026-04-11T13:35:22.601Z</time></trkpt><trkpt lat="43.6194877" lon="12.2592644"><ele>692.6</ele><time>2026-04-11T13:35:24.602Z</time></trkpt><trkpt lat="43.6193662" lon="12.259331"><ele>696.2</ele><time>2026-04-11T13:35:26.601Z</time></trkpt><trkpt lat="43.6193026" lon="12.2593709"><ele>699.8000000000001</ele><time>2026-04-11T13:35:27.602Z</time></trkpt><trkpt lat="43.6192407" lon="12.259404"><ele>703.4000000000001</ele><time>2026-04-11T13:35:28.602Z</time></trkpt><trkpt lat="43.6191161" lon="12.2594404"><ele>707.0</ele><time>2026-04-11T13:35:30.602Z</time></trkpt><trkpt lat="43.6190377" lon="12.2594429"><ele>707.0</ele><time>2026-04-11T13:35:31.602Z</time></trkpt><trkpt lat="43.6189688" lon="12.2594452"><ele>707.0</ele><time>2026-04-11T13:35:32.601Z</time></trkpt><trkpt lat="43.6188928" lon="12.259412"><ele>707.0</ele><time>2026-04-11T13:35:34.602Z</time></trkpt><trkpt lat="43.6188191" lon="12.2594407"><ele>707.0</ele><time>2026-04-11T13:35:36.602Z</time></trkpt><trkpt lat="43.6187224" lon="12.2595149"><ele>707.0</ele><time>2026-04-11T13:35:38.6Z</time></trkpt><trkpt lat="43.6186327" lon="12.2595823"><ele>707.0</ele><time>2026-04-11T13:35:40.602Z</time></trkpt><trkpt lat="43.6185628" lon="12.2596704"><ele>705.5</ele><time>2026-04-11T13:35:42.602Z</time></trkpt><trkpt lat="43.6184906" lon="12.2597364"><ele>704.0</ele><time>2026-04-11T13:35:44.602Z</time></trkpt><trkpt lat="43.6184241" lon="12.2597821"><ele>702.5</ele><time>2026-04-11T13:35:46.602Z</time></trkpt><trkpt lat="43.6183321" lon="12.2598204"><ele>701.0</ele><time>2026-04-11T13:35:48.601Z</time></trkpt><trkpt lat="43.6182449" lon="12.2598719"><ele>699.5</ele><time>2026-04-11T13:35:50.601Z</time></trkpt><trkpt lat="43.6181704" lon="12.2599485"><ele>698.0</ele><time>2026-04-11T13:35:52.602Z</time></trkpt><trkpt lat="43.6181159" lon="12.2600007"><ele>701.5999999999999</ele><time>2026-04-11T13:35:54.602Z</time></trkpt><trkpt lat="43.6180418" lon="12.2600783"><ele>705.1999999999999</ele><time>2026-04-11T13:35:56.6Z</time></trkpt><trkpt lat="43.6179505" lon="12.2601596"><ele>708.8</ele><time>2026-04-11T13:35:58.602Z</time></trkpt><trkpt lat="43.6178569" lon="12.2602187"><ele>712.4</ele><time>2026-04-11T13:36:00.602Z</time></trkpt><trkpt lat="43.6177581" lon="12.2602561"><ele>716.0</ele><time>2026-04-11T13:36:02.602Z</time></trkpt><trkpt lat="43.6176333" lon="12.2602871"><ele>716.0</ele><time>2026-04-11T13:36:04.6Z</time></trkpt><trkpt lat="43.617566" lon="12.2603153"><ele>716.0</ele><time>2026-04-11T13:36:05.601Z</time></trkpt><trkpt lat="43.6175002" lon="12.2603392"><ele>716.0</ele><time>2026-04-11T13:36:06.602Z</time></trkpt><trkpt lat="43.6174347" lon="12.2603529"><ele>716.0</ele><time>2026-04-11T13:36:07.602Z</time></trkpt><trkpt lat="43.6173635" lon="12.2603692"><ele>716.0</ele><time>2026-04-11T13:36:08.602Z</time></trkpt><trkpt lat="43.6172572" lon="12.2603813"><ele>716.0</ele><time>2026-04-11T13:36:10.602Z</time></trkpt><trkpt lat="43.6171836" lon="12.2603759"><ele>716.0</ele><time>2026-04-11T13:36:12.602Z</time></trkpt><trkpt lat="43.6170894" lon="12.2603997"><ele>716.0</ele><time>2026-04-11T13:36:14.602Z</time></trkpt><trkpt lat="43.6169686" lon="12.2604073"><ele>716.0</ele><time>2026-04-11T13:36:16.602Z</time></trkpt><trkpt lat="43.6168328" lon="12.2604116"><ele>716.0</ele><time>2026-04-11T13:36:18.601Z</time></trkpt><trkpt lat="43.6167501" lon="12.2604252"><ele>716.0</ele><time>2026-04-11T13:36:19.602Z</time></trkpt><trkpt lat="43.6166839" lon="12.260431"><ele>721.0</ele><time>2026-04-11T13:36:20.602Z</time></trkpt><trkpt lat="43.6166113" lon="12.2603615"><ele>726.0</ele><time>2026-04-11T13:36:22.601Z</time></trkpt><trkpt lat="43.6165455" lon="12.2602461"><ele>731.0</ele><time>2026-04-11T13:36:24.601Z</time></trkpt><trkpt lat="43.6164843" lon="12.2601468"><ele>736.0</ele><time>2026-04-11T13:36:25.602Z</time></trkpt><trkpt lat="43.6163956" lon="12.2600443"><ele>741.0</ele><time>2026-04-11T13:36:27.601Z</time></trkpt><trkpt lat="43.6163206" lon="12.2599417"><ele>741.0</ele><time>2026-04-11T13:36:29.602Z</time></trkpt><trkpt lat="43.6162591" lon="12.2598013"><ele>741.0</ele><time>2026-04-11T13:36:31.601Z</time></trkpt><trkpt lat="43.6162294" lon="12.2596412"><ele>741.0</ele><time>2026-04-11T13:36:33.602Z</time></trkpt><trkpt lat="43.6162256" lon="12.2595362"><ele>741.0</ele><time>2026-04-11T13:36:34.601Z</time></trkpt><trkpt lat="43.6162136" lon="12.2594494"><ele>741.0</ele><time>2026-04-11T13:36:35.602Z</time></trkpt><trkpt lat="43.6161952" lon="12.2593627"><ele>741.0</ele><time>2026-04-11T13:36:36.601Z</time></trkpt><trkpt lat="43.6161755" lon="12.2592754"><ele>743.8333333333334</ele><time>2026-04-11T13:36:37.602Z</time></trkpt><trkpt lat="43.6160905" lon="12.2592029"><ele>746.6666666666666</ele><time>2026-04-11T13:36:39.602Z</time></trkpt><trkpt lat="43.6160256" lon="12.2591877"><ele>749.5</ele><time>2026-04-11T13:36:46.601Z</time></trkpt><trkpt lat="43.6159704" lon="12.2591275"><ele>752.3333333333333</ele><time>2026-04-11T13:36:57.602Z</time></trkpt><trkpt lat="43.6159159" lon="12.2590385"><ele>755.1666666666666</ele><time>2026-04-11T13:37:06.602Z</time></trkpt><trkpt lat="43.6158637" lon="12.2589801"><ele>758.0</ele><time>2026-04-11T13:37:08.602Z</time></trkpt><trkpt lat="43.6157979" lon="12.2589069"><ele>758.0</ele><time>2026-04-11T13:37:10.601Z</time></trkpt><trkpt lat="43.6157201" lon="12.2588679"><ele>758.0</ele><time>2026-04-11T13:37:12.602Z</time></trkpt><trkpt lat="43.6156435" lon="12.2589355"><ele>758.0</ele><time>2026-04-11T13:37:14.602Z</time></trkpt><trkpt lat="43.6155633" lon="12.2590201"><ele>758.0</ele><time>2026-04-11T13:37:16.601Z</time></trkpt><trkpt lat="43.6154984" lon="12.2590569"><ele>758.0</ele><time>2026-04-11T13:37:19.602Z</time></trkpt><trkpt lat="43.6154371" lon="12.2590787"><ele>758.0</ele><time>2026-04-11T13:37:22.602Z</time></trkpt><trkpt lat="43.6153483" lon="12.2590873"><ele>758.8333333333333</ele><time>2026-04-11T13:37:25.602Z</time></trkpt><trkpt lat="43.6152777" lon="12.2591128"><ele>759.6666666666666</ele><time>2026-04-11T13:37:27.601Z</time></trkpt><trkpt lat="43.61519" lon="12.2591313"><ele>760.5</ele><time>2026-04-11T13:37:30.602Z</time></trkpt><trkpt lat="43.6151195" lon="12.2591751"><ele>761.3333333333334</ele><time>2026-04-11T13:37:33.602Z</time></trkpt><trkpt lat="43.6150441" lon="12.259216"><ele>762.1666666666667</ele><time>2026-04-11T13:37:36.6Z</time></trkpt><trkpt lat="43.6149841" lon="12.2592521"><ele>763.0</ele><time>2026-04-11T13:37:38.602Z</time></trkpt><trkpt lat="43.6149014" lon="12.2592967"><ele>763.0</ele><time>2026-04-11T13:37:41.601Z</time></trkpt><trkpt lat="43.6148262" lon="12.2593348"><ele>763.0</ele><time>2026-04-11T13:37:44.602Z</time></trkpt><trkpt lat="43.6147594" lon="12.2593629"><ele>763.0</ele><time>2026-04-11T13:37:47.601Z</time></trkpt><trkpt lat="43.6146934" lon="12.2593564"><ele>763.0</ele><time>2026-04-11T13:37:51.602Z</time></trkpt><trkpt lat="43.614652" lon="12.2594223"><ele>763.0</ele><time>2026-04-11T13:37:54.602Z</time></trkpt><trkpt lat="43.6146196" lon="12.2595089"><ele>763.0</ele><time>2026-04-11T13:37:56.602Z</time></trkpt><trkpt lat="43.6145666" lon="12.2595872"><ele>763.0</ele><time>2026-04-11T13:37:58.602Z</time></trkpt><trkpt lat="43.6145236" lon="12.2596653"><ele>764.5</ele><time>2026-04-11T13:38:00.602Z</time></trkpt><trkpt lat="43.6144739" lon="12.259764"><ele>766.0</ele><time>2026-04-11T13:38:04.602Z</time></trkpt><trkpt lat="43.6144151" lon="12.259842"><ele>767.5</ele><time>2026-04-11T13:38:07.602Z</time></trkpt><trkpt lat="43.6143264" lon="12.2598249"><ele>769.0</ele><time>2026-04-11T13:39:24.601Z</time></trkpt><trkpt lat="43.6142367" lon="12.2598415"><ele>770.4999999999999</ele><time>2026-04-11T13:39:27.602Z</time></trkpt><trkpt lat="43.6141555" lon="12.2598666"><ele>772.0</ele><time>2026-04-11T13:39:29.602Z</time></trkpt><trkpt lat="43.6140827" lon="12.2599247"><ele>772.0</ele><time>2026-04-11T13:39:31.601Z</time></trkpt><trkpt lat="43.6139931" lon="12.2599329"><ele>772.0</ele><time>2026-04-11T13:39:33.602Z</time></trkpt><trkpt lat="43.6139212" lon="12.2599221"><ele>772.0</ele><time>2026-04-11T13:39:34.602Z</time></trkpt><trkpt lat="43.6138447" lon="12.2599077"><ele>772.0</ele><time>2026-04-11T13:39:35.601Z</time></trkpt><trkpt lat="43.6137255" lon="12.2599036"><ele>772.0</ele><time>2026-04-11T13:39:36.601Z</time></trkpt><trkpt lat="43.6136391" lon="12.2598584"><ele>770.9999999999999</ele><time>2026-04-11T13:39:37.601Z</time></trkpt><trkpt lat="43.6135627" lon="12.2598285"><ele>770.0</ele><time>2026-04-11T13:39:38.602Z</time></trkpt><trkpt lat="43.6135035" lon="12.2597928"><ele>769.0</ele><time>2026-04-11T13:39:39.602Z</time></trkpt><trkpt lat="43.6134185" lon="12.2597144"><ele>768.0</ele><time>2026-04-11T13:39:40.602Z</time></trkpt><trkpt lat="43.6133406" lon="12.2596136"><ele>767.0</ele><time>2026-04-11T13:39:42.602Z</time></trkpt><trkpt lat="43.6132781" lon="12.2596013"><ele>766.0</ele><time>2026-04-11T13:39:43.601Z</time></trkpt><trkpt lat="43.6132146" lon="12.2595667"><ele>766.0</ele><time>2026-04-11T13:39:44.602Z</time></trkpt><trkpt lat="43.6131197" lon="12.2595418"><ele>766.0</ele><time>2026-04-11T13:39:45.602Z</time></trkpt><trkpt lat="43.6130412" lon="12.2595106"><ele>766.0</ele><time>2026-04-11T13:39:46.602Z</time></trkpt><trkpt lat="43.6129719" lon="12.2594446"><ele>766.0</ele><time>2026-04-11T13:39:47.601Z</time></trkpt><trkpt lat="43.6128848" lon="12.25941"><ele>766.0</ele><time>2026-04-11T13:39:48.602Z</time></trkpt><trkpt lat="43.6127973" lon="12.2593179"><ele>774.25</ele><time>2026-04-11T13:39:50.602Z</time></trkpt><trkpt lat="43.6126943" lon="12.2591104"><ele>782.5</ele><time>2026-04-11T13:39:51.602Z</time></trkpt><trkpt lat="43.6126425" lon="12.2590308"><ele>790.75</ele><time>2026-04-11T13:39:52.602Z</time></trkpt><trkpt lat="43.6125845" lon="12.2588869"><ele>799.0</ele><time>2026-04-11T13:39:54.602Z</time></trkpt><trkpt lat="43.6125688" lon="12.2587865"><ele>799.0</ele><time>2026-04-11T13:39:55.602Z</time></trkpt><trkpt lat="43.612613" lon="12.2586651"><ele>799.0</ele><time>2026-04-11T13:39:57.601Z</time></trkpt><trkpt lat="43.6127003" lon="12.2585732"><ele>799.0</ele><time>2026-04-11T13:39:59.601Z</time></trkpt><trkpt lat="43.6127688" lon="12.2585014"><ele>799.0</ele><time>2026-04-11T13:40:00.601Z</time></trkpt><trkpt lat="43.6128426" lon="12.2584307"><ele>799.0</ele><time>2026-04-11T13:40:01.602Z</time></trkpt><trkpt lat="43.6128979" lon="12.2583035"><ele>799.0</ele><time>2026-04-11T13:40:03.602Z</time></trkpt><trkpt lat="43.6128061" lon="12.25823"><ele>799.0</ele><time>2026-04-11T13:40:06.601Z</time></trkpt><trkpt lat="43.612694" lon="12.2582587"><ele>799.0</ele><time>2026-04-11T13:40:07.602Z</time></trkpt><trkpt lat="43.6125924" lon="12.2582687"><ele>799.0</ele><time>2026-04-11T13:40:08.601Z</time></trkpt><trkpt lat="43.6124627" lon="12.2582082"><ele>799.0</ele><time>2026-04-11T13:40:10.602Z</time></trkpt><trkpt lat="43.6124162" lon="12.2581286"><ele>799.0</ele><time>2026-04-11T13:40:11.602Z</time></trkpt><trkpt lat="43.6123533" lon="12.2580383"><ele>799.0</ele><time>2026-04-11T13:40:12.602Z</time></trkpt><trkpt lat="43.6122874" lon="12.2579316"><ele>799.0</ele><time>2026-04-11T13:40:13.602Z</time></trkpt><trkpt lat="43.6121853" lon="12.2578135"><ele>799.0</ele><time>2026-04-11T13:40:15.602Z</time></trkpt><trkpt lat="43.6121258" lon="12.2577743"><ele>800.2</ele><time>2026-04-11T13:40:16.602Z</time></trkpt><trkpt lat="43.6120652" lon="12.2577429"><ele>801.4000000000001</ele><time>2026-04-11T13:40:18.602Z</time></trkpt><trkpt lat="43.6119832" lon="12.2577056"><ele>802.6</ele><time>2026-04-11T13:40:22.6Z</time></trkpt><trkpt lat="43.6119011" lon="12.2576407"><ele>803.8</ele><time>2026-04-11T13:40:25.602Z</time></trkpt><trkpt lat="43.6118222" lon="12.2576438"><ele>805.0</ele><time>2026-04-11T13:40:26.602Z</time></trkpt><trkpt lat="43.611692" lon="12.2576011"><ele>805.0</ele><time>2026-04-11T13:40:28.602Z</time></trkpt><trkpt lat="43.6115975" lon="12.2575914"><ele>805.0</ele><time>2026-04-11T13:40:30.602Z</time></trkpt><trkpt lat="43.6115113" lon="12.2576706"><ele>805.0</ele><time>2026-04-11T13:40:32.602Z</time></trkpt><trkpt lat="43.6113916" lon="12.2578062"><ele>805.0</ele><time>2026-04-11T13:40:34.601Z</time></trkpt><trkpt lat="43.6113325" lon="12.2578666"><ele>805.0</ele><time>2026-04-11T13:40:35.602Z</time></trkpt><trkpt lat="43.611267" lon="12.2579339"><ele>804.9999999999999</ele><time>2026-04-11T13:40:36.6Z</time></trkpt><trkpt lat="43.6112061" lon="12.2580228"><ele>805.0</ele><time>2026-04-11T13:40:37.601Z</time></trkpt><trkpt lat="43.6111547" lon="12.2581018"><ele>805.0</ele><time>2026-04-11T13:40:38.601Z</time></trkpt><trkpt lat="43.6110839" lon="12.2581725"><ele>805.0</ele><time>2026-04-11T13:40:39.602Z</time></trkpt><trkpt lat="43.611008" lon="12.2582356"><ele>804.9999999999999</ele><time>2026-04-11T13:40:40.602Z</time></trkpt><trkpt lat="43.6109373" lon="12.2582999"><ele>805.0</ele><time>2026-04-11T13:40:41.601Z</time></trkpt><trkpt lat="43.6108686" lon="12.2583566"><ele>805.0</ele><time>2026-04-11T13:40:42.601Z</time></trkpt><trkpt lat="43.6107932" lon="12.2584003"><ele>805.0</ele><time>2026-04-11T13:40:43.602Z</time></trkpt><trkpt lat="43.6107175" lon="12.2584462"><ele>805.0</ele><time>2026-04-11T13:40:44.602Z</time></trkpt><trkpt lat="43.6106298" lon="12.2584677"><ele>805.0</ele><time>2026-04-11T13:40:45.602Z</time></trkpt><trkpt lat="43.610522" lon="12.2584911"><ele>805.0</ele><time>2026-04-11T13:40:46.602Z</time></trkpt><trkpt lat="43.6104233" lon="12.2584984"><ele>802.6</ele><time>2026-04-11T13:40:47.601Z</time></trkpt><trkpt lat="43.6103197" lon="12.2585144"><ele>800.2</ele><time>2026-04-11T13:40:48.602Z</time></trkpt><trkpt lat="43.6102356" lon="12.2585533"><ele>797.8</ele><time>2026-04-11T13:40:50.601Z</time></trkpt><trkpt lat="43.6101469" lon="12.2586256"><ele>795.4</ele><time>2026-04-11T13:40:52.601Z</time></trkpt><trkpt lat="43.6101216" lon="12.2587068"><ele>793.0</ele><time>2026-04-11T13:40:54.602Z</time></trkpt><trkpt lat="43.6101172" lon="12.2588461"><ele>793.0000000000001</ele><time>2026-04-11T13:40:56.602Z</time></trkpt><trkpt lat="43.6101554" lon="12.2589167"><ele>793.0</ele><time>2026-04-11T13:40:59.602Z</time></trkpt><trkpt lat="43.6101482" lon="12.2590282"><ele>793.0</ele><time>2026-04-11T13:41:02.601Z</time></trkpt><trkpt lat="43.6101245" lon="12.2591372"><ele>793.0</ele><time>2026-04-11T13:41:05.601Z</time></trkpt><trkpt lat="43.6101104" lon="12.2592268"><ele>793.0</ele><time>2026-04-11T13:41:18.601Z</time></trkpt><trkpt lat="43.6101121" lon="12.2593391"><ele>793.0000000000001</ele><time>2026-04-11T13:41:20.602Z</time></trkpt><trkpt lat="43.6100943" lon="12.2594386"><ele>793.0</ele><time>2026-04-11T13:41:21.602Z</time></trkpt><trkpt lat="43.610074" lon="12.2595357"><ele>794.1666666666666</ele><time>2026-04-11T13:41:22.601Z</time></trkpt><trkpt lat="43.6100421" lon="12.2596311"><ele>795.3333333333333</ele><time>2026-04-11T13:41:23.602Z</time></trkpt><trkpt lat="43.6100155" lon="12.2597293"><ele>796.5</ele><time>2026-04-11T13:41:24.602Z</time></trkpt><trkpt lat="43.6100069" lon="12.2598406"><ele>797.6666666666667</ele><time>2026-04-11T13:41:25.602Z</time></trkpt><trkpt lat="43.6100098" lon="12.2599483"><ele>798.8333333333334</ele><time>2026-04-11T13:41:26.602Z</time></trkpt><trkpt lat="43.6100249" lon="12.2600474"><ele>800.0</ele><time>2026-04-11T13:41:27.601Z</time></trkpt><trkpt lat="43.6100449" lon="12.2602419"><ele>801.5000000000001</ele><time>2026-04-11T13:41:29.602Z</time></trkpt><trkpt lat="43.6100096" lon="12.2603183"><ele>803.0</ele><time>2026-04-11T13:41:30.601Z</time></trkpt><trkpt lat="43.6099506" lon="12.2603706"><ele>804.5</ele><time>2026-04-11T13:41:31.602Z</time></trkpt><trkpt lat="43.6098761" lon="12.2604495"><ele>806.0</ele><time>2026-04-11T13:41:33.602Z</time></trkpt><trkpt lat="43.6098565" lon="12.2606071"><ele>807.5000000000001</ele><time>2026-04-11T13:41:35.602Z</time></trkpt><trkpt lat="43.6098631" lon="12.2606986"><ele>809.0</ele><time>2026-04-11T13:41:36.602Z</time></trkpt><trkpt lat="43.6098593" lon="12.2607946"><ele>811.1666666666667</ele><time>2026-04-11T13:41:37.602Z</time></trkpt><trkpt lat="43.6098733" lon="12.2609369"><ele>813.3333333333334</ele><time>2026-04-11T13:41:39.602Z</time></trkpt><trkpt lat="43.6098881" lon="12.2610956"><ele>815.5</ele><time>2026-04-11T13:41:41.602Z</time></trkpt><trkpt lat="43.609906" lon="12.2611962"><ele>817.6666666666667</ele><time>2026-04-11T13:41:42.601Z</time></trkpt><trkpt lat="43.6099074" lon="12.2612956"><ele>819.8333333333334</ele><time>2026-04-11T13:41:43.602Z</time></trkpt><trkpt lat="43.6099177" lon="12.261399"><ele>822.0</ele><time>2026-04-11T13:41:44.602Z</time></trkpt><trkpt lat="43.6099176" lon="12.2615015"><ele>823.6</ele><time>2026-04-11T13:41:45.602Z</time></trkpt><trkpt lat="43.6099288" lon="12.2616606"><ele>825.2</ele><time>2026-04-11T13:41:47.602Z</time></trkpt><trkpt lat="43.6099353" lon="12.2618367"><ele>826.8</ele><time>2026-04-11T13:41:49.602Z</time></trkpt><trkpt lat="43.6099514" lon="12.2620097"><ele>828.4</ele><time>2026-04-11T13:41:51.602Z</time></trkpt><trkpt lat="43.609924" lon="12.2620991"><ele>830.0</ele><time>2026-04-11T13:41:53.602Z</time></trkpt><trkpt lat="43.6099211" lon="12.2622294"><ele>832.8</ele><time>2026-04-11T13:41:55.602Z</time></trkpt><trkpt lat="43.6099312" lon="12.2623642"><ele>835.6</ele><time>2026-04-11T13:41:57.602Z</time></trkpt><trkpt lat="43.6098845" lon="12.2624903"><ele>838.4000000000001</ele><time>2026-04-11T13:41:59.602Z</time></trkpt><trkpt lat="43.6097855" lon="12.2625747"><ele>841.2</ele><time>2026-04-11T13:42:01.601Z</time></trkpt><trkpt lat="43.6096966" lon="12.2626227"><ele>844.0</ele><time>2026-04-11T13:42:03.602Z</time></trkpt><trkpt lat="43.6096211" lon="12.2627302"><ele>843.9999999999999</ele><time>2026-04-11T13:42:05.601Z</time></trkpt><trkpt lat="43.6095837" lon="12.2628077"><ele>844.0</ele><time>2026-04-11T13:42:06.602Z</time></trkpt><trkpt lat="43.6095479" lon="12.2628992"><ele>844.0</ele><time>2026-04-11T13:42:07.602Z</time></trkpt><trkpt lat="43.6095107" lon="12.2630029"><ele>844.0</ele><time>2026-04-11T13:42:08.601Z</time></trkpt><trkpt lat="43.6094655" lon="12.2630886"><ele>843.9999999999999</ele><time>2026-04-11T13:42:09.601Z</time></trkpt><trkpt lat="43.6094127" lon="12.2631789"><ele>844.0</ele><time>2026-04-11T13:42:10.601Z</time></trkpt><trkpt lat="43.6093779" lon="12.2632599"><ele>844.0</ele><time>2026-04-11T13:42:12.601Z</time></trkpt><trkpt lat="43.6094328" lon="12.2633359"><ele>844.0</ele><time>2026-04-11T13:42:15.602Z</time></trkpt><trkpt lat="43.6095154" lon="12.2632965"><ele>844.0</ele><time>2026-04-11T13:42:17.602Z</time></trkpt><trkpt lat="43.6096035" lon="12.2631599"><ele>844.0</ele><time>2026-04-11T13:42:19.602Z</time></trkpt><trkpt lat="43.6096548" lon="12.2631014"><ele>844.0</ele><time>2026-04-11T13:42:20.601Z</time></trkpt><trkpt lat="43.6097651" lon="12.2630686"><ele>845.4999999999999</ele><time>2026-04-11T13:42:22.602Z</time></trkpt><trkpt lat="43.6098595" lon="12.2631646"><ele>847.0</ele><time>2026-04-11T13:42:24.602Z</time></trkpt><trkpt lat="43.6098995" lon="12.2632395"><ele>848.5</ele><time>2026-04-11T13:42:25.601Z</time></trkpt><trkpt lat="43.6099416" lon="12.2633182"><ele>850.0</ele><time>2026-04-11T13:42:26.602Z</time></trkpt><trkpt lat="43.6099892" lon="12.2633907"><ele>851.4999999999999</ele><time>2026-04-11T13:42:27.601Z</time></trkpt><trkpt lat="43.6100323" lon="12.2634699"><ele>853.0</ele><time>2026-04-11T13:42:28.602Z</time></trkpt><trkpt lat="43.6100793" lon="12.2635369"><ele>852.9999999999999</ele><time>2026-04-11T13:42:29.601Z</time></trkpt><trkpt lat="43.6101316" lon="12.2636123"><ele>853.0</ele><time>2026-04-11T13:42:30.602Z</time></trkpt><trkpt lat="43.6101871" lon="12.2636854"><ele>853.0</ele><time>2026-04-11T13:42:31.601Z</time></trkpt><trkpt lat="43.6102516" lon="12.2637689"><ele>853.0</ele><time>2026-04-11T13:42:32.602Z</time></trkpt><trkpt lat="43.6103084" lon="12.2638464"><ele>852.9999999999999</ele><time>2026-04-11T13:42:33.601Z</time></trkpt><trkpt lat="43.610366" lon="12.2639251"><ele>853.0</ele><time>2026-04-11T13:42:34.602Z</time></trkpt><trkpt lat="43.610432" lon="12.2639975"><ele>854.7142857142857</ele><time>2026-04-11T13:42:35.602Z</time></trkpt><trkpt lat="43.6104885" lon="12.2640504"><ele>856.4285714285714</ele><time>2026-04-11T13:42:36.602Z</time></trkpt><trkpt lat="43.6105497" lon="12.2640819"><ele>858.1428571428571</ele><time>2026-04-11T13:42:37.602Z</time></trkpt><trkpt lat="43.6106254" lon="12.2641376"><ele>859.8571428571429</ele><time>2026-04-11T13:42:38.602Z</time></trkpt><trkpt lat="43.610695" lon="12.2641718"><ele>861.5714285714287</ele><time>2026-04-11T13:42:39.602Z</time></trkpt><trkpt lat="43.6107641" lon="12.264184"><ele>863.2857142857143</ele><time>2026-04-11T13:42:40.601Z</time></trkpt><trkpt lat="43.6108317" lon="12.2641876"><ele>865.0</ele><time>2026-04-11T13:42:41.602Z</time></trkpt><trkpt lat="43.610897" lon="12.2641873"><ele>864.9999999999999</ele><time>2026-04-11T13:42:42.602Z</time></trkpt><trkpt lat="43.6110111" lon="12.2641566"><ele>865.0</ele><time>2026-04-11T13:42:44.602Z</time></trkpt><trkpt lat="43.6110751" lon="12.2641983"><ele>865.0</ele><time>2026-04-11T13:42:47.602Z</time></trkpt><trkpt lat="43.6110115" lon="12.2642872"><ele>865.0</ele><time>2026-04-11T13:42:50.602Z</time></trkpt><trkpt lat="43.610943" lon="12.2643272"><ele>864.9999999999999</ele><time>2026-04-11T13:42:52.602Z</time></trkpt><trkpt lat="43.6108778" lon="12.2643676"><ele>865.0</ele><time>2026-04-11T13:42:54.602Z</time></trkpt><trkpt lat="43.610809" lon="12.2644044"><ele>864.9999999999999</ele><time>2026-04-11T13:42:56.602Z</time></trkpt><trkpt lat="43.6107375" lon="12.2644269"><ele>865.0</ele><time>2026-04-11T13:42:58.601Z</time></trkpt><trkpt lat="43.6106683" lon="12.2644626"><ele>865.0</ele><time>2026-04-11T13:43:00.601Z</time></trkpt><trkpt lat="43.610608" lon="12.2644886"><ele>865.0</ele><time>2026-04-11T13:43:03.602Z</time></trkpt><trkpt lat="43.6105369" lon="12.2644951"><ele>864.9999999999999</ele><time>2026-04-11T13:43:05.602Z</time></trkpt><trkpt lat="43.6104578" lon="12.2645239"><ele>865.0</ele><time>2026-04-11T13:43:07.602Z</time></trkpt><trkpt lat="43.6103687" lon="12.2645318"><ele>865.9999999999999</ele><time>2026-04-11T13:43:09.602Z</time></trkpt><trkpt lat="43.6102985" lon="12.2644814"><ele>867.0</ele><time>2026-04-11T13:43:11.602Z</time></trkpt><trkpt lat="43.6102374" lon="12.2644366"><ele>868.0</ele><time>2026-04-11T13:43:13.601Z</time></trkpt><trkpt lat="43.6101697" lon="12.2644583"><ele>869.0</ele><time>2026-04-11T13:43:15.602Z</time></trkpt><trkpt lat="43.6101108" lon="12.2645225"><ele>869.9999999999999</ele><time>2026-04-11T13:43:18.602Z</time></trkpt><trkpt lat="43.6100187" lon="12.264529"><ele>871.0</ele><time>2026-04-11T13:43:21.602Z</time></trkpt><trkpt lat="43.6099634" lon="12.2646199"><ele>871.0</ele><time>2026-04-11T13:43:25.601Z</time></trkpt><trkpt lat="43.6099223" lon="12.2647311"><ele>870.9999999999999</ele><time>2026-04-11T13:43:29.602Z</time></trkpt><trkpt lat="43.6098619" lon="12.2648123"><ele>870.9999999999999</ele><time>2026-04-11T13:43:31.601Z</time></trkpt><trkpt lat="43.6097802" lon="12.2649081"><ele>871.0</ele><time>2026-04-11T13:43:33.601Z</time></trkpt><trkpt lat="43.6097119" lon="12.2649946"><ele>871.0</ele><time>2026-04-11T13:43:35.602Z</time></trkpt><trkpt lat="43.6096426" lon="12.2650986"><ele>872.3333333333333</ele><time>2026-04-11T13:43:37.602Z</time></trkpt><trkpt lat="43.609578" lon="12.2652215"><ele>873.6666666666666</ele><time>2026-04-11T13:43:39.601Z</time></trkpt><trkpt lat="43.6095261" lon="12.2652906"><ele>875.0</ele><time>2026-04-11T13:43:41.602Z</time></trkpt><trkpt lat="43.6094535" lon="12.2653445"><ele>876.3333333333333</ele><time>2026-04-11T13:43:43.601Z</time></trkpt><trkpt lat="43.6093944" lon="12.2654242"><ele>877.6666666666666</ele><time>2026-04-11T13:43:45.602Z</time></trkpt><trkpt lat="43.609312" lon="12.2654894"><ele>879.0</ele><time>2026-04-11T13:43:47.602Z</time></trkpt><trkpt lat="43.6092042" lon="12.2655336"><ele>879.6</ele><time>2026-04-11T13:43:49.602Z</time></trkpt><trkpt lat="43.6091007" lon="12.2655767"><ele>880.2</ele><time>2026-04-11T13:43:51.601Z</time></trkpt><trkpt lat="43.6090068" lon="12.2656152"><ele>880.8000000000001</ele><time>2026-04-11T13:43:53.602Z</time></trkpt><trkpt lat="43.6088952" lon="12.2656107"><ele>881.4000000000001</ele><time>2026-04-11T13:43:55.602Z</time></trkpt><trkpt lat="43.6087875" lon="12.2655848"><ele>882.0</ele><time>2026-04-11T13:43:57.602Z</time></trkpt><trkpt lat="43.6086899" lon="12.2655737"><ele>884.8333333333334</ele><time>2026-04-11T13:43:59.6Z</time></trkpt><trkpt lat="43.6086116" lon="12.2655551"><ele>887.6666666666667</ele><time>2026-04-11T13:44:01.602Z</time></trkpt><trkpt lat="43.608546" lon="12.2654773"><ele>890.5</ele><time>2026-04-11T13:44:03.601Z</time></trkpt><trkpt lat="43.6084748" lon="12.2654096"><ele>893.3333333333334</ele><time>2026-04-11T13:44:05.602Z</time></trkpt><trkpt lat="43.6084153" lon="12.2653516"><ele>896.1666666666667</ele><time>2026-04-11T13:44:07.601Z</time></trkpt><trkpt lat="43.6083549" lon="12.2652643"><ele>899.0</ele><time>2026-04-11T13:44:10.602Z</time></trkpt><trkpt lat="43.6083089" lon="12.2651931"><ele>898.9999999999999</ele><time>2026-04-11T13:44:12.601Z</time></trkpt><trkpt lat="43.6082579" lon="12.2651371"><ele>899.0</ele><time>2026-04-11T13:44:14.602Z</time></trkpt><trkpt lat="43.608183" lon="12.265093"><ele>898.9999999999999</ele><time>2026-04-11T13:44:17.602Z</time></trkpt><trkpt lat="43.6081128" lon="12.2651328"><ele>898.9999999999999</ele><time>2026-04-11T13:44:20.602Z</time></trkpt><trkpt lat="43.608063" lon="12.2652305"><ele>899.0</ele><time>2026-04-11T13:44:23.602Z</time></trkpt><trkpt lat="43.6080129" lon="12.2653091"><ele>898.9999999999999</ele><time>2026-04-11T13:44:25.602Z</time></trkpt><trkpt lat="43.6079839" lon="12.2653875"><ele>898.9999999999999</ele><time>2026-04-11T13:44:26.601Z</time></trkpt><trkpt lat="43.6079159" lon="12.2654724"><ele>899.0000000000001</ele><time>2026-04-11T13:44:28.602Z</time></trkpt><trkpt lat="43.6078409" lon="12.2655229"><ele>899.0</ele><time>2026-04-11T13:44:30.602Z</time></trkpt><trkpt lat="43.6077709" lon="12.2655633"><ele>899.0</ele><time>2026-04-11T13:44:32.602Z</time></trkpt><trkpt lat="43.6077278" lon="12.2656548"><ele>899.0</ele><time>2026-04-11T13:45:08.602Z</time></trkpt><trkpt lat="43.6077344" lon="12.2657747"><ele>899.0000000000001</ele><time>2026-04-11T13:45:10.601Z</time></trkpt><trkpt lat="43.6077095" lon="12.2659367"><ele>899.0</ele><time>2026-04-11T13:45:12.601Z</time></trkpt><trkpt lat="43.6076935" lon="12.2660254"><ele>902.6666666666667</ele><time>2026-04-11T13:45:13.601Z</time></trkpt><trkpt lat="43.6076621" lon="12.2661094"><ele>906.3333333333334</ele><time>2026-04-11T13:45:14.601Z</time></trkpt><trkpt lat="43.6076157" lon="12.26618"><ele>910.0</ele><time>2026-04-11T13:45:15.601Z</time></trkpt><trkpt lat="43.607546" lon="12.266321"><ele>913.6666666666667</ele><time>2026-04-11T13:45:17.601Z</time></trkpt><trkpt lat="43.6075072" lon="12.2663942"><ele>917.3333333333334</ele><time>2026-04-11T13:45:18.601Z</time></trkpt><trkpt lat="43.6074935" lon="12.2665521"><ele>921.0</ele><time>2026-04-11T13:45:20.602Z</time></trkpt><trkpt lat="43.6075186" lon="12.2666476"><ele>921.0</ele><time>2026-04-11T13:45:21.602Z</time></trkpt><trkpt lat="43.607581" lon="12.2667063"><ele>920.9999999999999</ele><time>2026-04-11T13:45:22.602Z</time></trkpt><trkpt lat="43.6076294" lon="12.2668447"><ele>920.9999999999999</ele><time>2026-04-11T13:45:24.602Z</time></trkpt><trkpt lat="43.6076543" lon="12.2670082"><ele>921.0</ele><time>2026-04-11T13:45:26.602Z</time></trkpt><trkpt lat="43.6076655" lon="12.2670949"><ele>921.0</ele><time>2026-04-11T13:45:27.602Z</time></trkpt><trkpt lat="43.6076838" lon="12.2672044"><ele>919.0</ele><time>2026-04-11T13:45:28.602Z</time></trkpt><trkpt lat="43.607693" lon="12.267298"><ele>917.0</ele><time>2026-04-11T13:45:30.602Z</time></trkpt><trkpt lat="43.6077041" lon="12.2673846"><ele>915.0</ele><time>2026-04-11T13:45:31.601Z</time></trkpt><trkpt lat="43.607732" lon="12.2675369"><ele>913.0</ele><time>2026-04-11T13:45:33.602Z</time></trkpt><trkpt lat="43.6077487" lon="12.2676795"><ele>911.0</ele><time>2026-04-11T13:45:35.602Z</time></trkpt><trkpt lat="43.6077976" lon="12.2677726"><ele>909.0</ele><time>2026-04-11T13:45:37.601Z</time></trkpt><trkpt lat="43.6078694" lon="12.2678556"><ele>907.4000000000001</ele><time>2026-04-11T13:45:39.602Z</time></trkpt><trkpt lat="43.6079405" lon="12.2679545"><ele>905.8000000000001</ele><time>2026-04-11T13:45:41.602Z</time></trkpt><trkpt lat="43.608013" lon="12.2680546"><ele>904.1999999999999</ele><time>2026-04-11T13:45:43.602Z</time></trkpt><trkpt lat="43.608084" lon="12.2681189"><ele>902.5999999999999</ele><time>2026-04-11T13:45:45.602Z</time></trkpt><trkpt lat="43.6081763" lon="12.2681934"><ele>901.0</ele><time>2026-04-11T13:45:47.602Z</time></trkpt><trkpt lat="43.6082516" lon="12.2682598"><ele>900.9999999999999</ele><time>2026-04-11T13:45:49.602Z</time></trkpt><trkpt lat="43.6082993" lon="12.2683191"><ele>901.0</ele><time>2026-04-11T13:45:51.601Z</time></trkpt><trkpt lat="43.6083433" lon="12.2684047"><ele>901.0</ele><time>2026-04-11T13:45:54.602Z</time></trkpt><trkpt lat="43.6083959" lon="12.2684616"><ele>901.0</ele><time>2026-04-11T13:45:56.601Z</time></trkpt><trkpt lat="43.6084548" lon="12.2685479"><ele>900.9999999999999</ele><time>2026-04-11T13:45:58.602Z</time></trkpt><trkpt lat="43.6085348" lon="12.2686258"><ele>901.0</ele><time>2026-04-11T13:46:00.602Z</time></trkpt><trkpt lat="43.608617" lon="12.268687"><ele>898.5999999999999</ele><time>2026-04-11T13:46:02.602Z</time></trkpt><trkpt lat="43.6086929" lon="12.2687593"><ele>896.1999999999999</ele><time>2026-04-11T13:46:04.602Z</time></trkpt><trkpt lat="43.6087726" lon="12.2688581"><ele>893.8000000000001</ele><time>2026-04-11T13:46:06.601Z</time></trkpt><trkpt lat="43.6088554" lon="12.2689698"><ele>891.4000000000001</ele><time>2026-04-11T13:46:08.601Z</time></trkpt><trkpt lat="43.6089229" lon="12.2690442"><ele>889.0</ele><time>2026-04-11T13:46:10.601Z</time></trkpt><trkpt lat="43.6089895" lon="12.2691317"><ele>888.9999999999999</ele><time>2026-04-11T13:46:12.602Z</time></trkpt><trkpt lat="43.6090431" lon="12.2692186"><ele>889.0</ele><time>2026-04-11T13:46:14.602Z</time></trkpt><trkpt lat="43.6090946" lon="12.2692936"><ele>889.0</ele><time>2026-04-11T13:46:16.601Z</time></trkpt><trkpt lat="43.6091459" lon="12.2693641"><ele>889.0</ele><time>2026-04-11T13:46:18.602Z</time></trkpt><trkpt lat="43.6092062" lon="12.2694313"><ele>888.9999999999999</ele><time>2026-04-11T13:46:20.602Z</time></trkpt><trkpt lat="43.6092659" lon="12.2695026"><ele>889.0</ele><time>2026-04-11T13:46:22.602Z</time></trkpt><trkpt lat="43.6093084" lon="12.269596"><ele>888.9999999999999</ele><time>2026-04-11T13:46:24.602Z</time></trkpt><trkpt lat="43.6093603" lon="12.2696928"><ele>889.0</ele><time>2026-04-11T13:46:27.601Z</time></trkpt><trkpt lat="43.6094022" lon="12.2697672"><ele>889.0</ele><time>2026-04-11T13:46:29.601Z</time></trkpt><trkpt lat="43.6094595" lon="12.2698275"><ele>889.0</ele><time>2026-04-11T13:46:31.601Z</time></trkpt><trkpt lat="43.6095078" lon="12.2699094"><ele>888.9999999999999</ele><time>2026-04-11T13:46:33.601Z</time></trkpt><trkpt lat="43.6095738" lon="12.2700029"><ele>889.0</ele><time>2026-04-11T13:46:35.601Z</time></trkpt><trkpt lat="43.6096581" lon="12.27011"><ele>884.4000000000001</ele><time>2026-04-11T13:46:37.6Z</time></trkpt><trkpt lat="43.6097245" lon="12.2702152"><ele>879.8000000000001</ele><time>2026-04-11T13:46:39.601Z</time></trkpt><trkpt lat="43.6097911" lon="12.270328"><ele>875.1999999999999</ele><time>2026-04-11T13:46:41.599Z</time></trkpt><trkpt lat="43.6098411" lon="12.2703983"><ele>870.5999999999999</ele><time>2026-04-11T13:46:42.601Z</time></trkpt><trkpt lat="43.6098804" lon="12.2704692"><ele>866.0</ele><time>2026-04-11T13:46:43.6Z</time></trkpt><trkpt lat="43.6099575" lon="12.2705802"><ele>866.5999999999999</ele><time>2026-04-11T13:46:45.601Z</time></trkpt><trkpt lat="43.6100361" lon="12.2706791"><ele>867.1999999999999</ele><time>2026-04-11T13:46:47.601Z</time></trkpt><trkpt lat="43.6101028" lon="12.2707523"><ele>867.8000000000001</ele><time>2026-04-11T13:46:49.601Z</time></trkpt><trkpt lat="43.6101876" lon="12.2708269"><ele>868.4000000000001</ele><time>2026-04-11T13:46:51.6Z</time></trkpt><trkpt lat="43.6102796" lon="12.2709229"><ele>869.0</ele><time>2026-04-11T13:46:53.6Z</time></trkpt><trkpt lat="43.610361" lon="12.2710168"><ele>865.25</ele><time>2026-04-11T13:46:55.601Z</time></trkpt><trkpt lat="43.6104604" lon="12.2710951"><ele>861.5</ele><time>2026-04-11T13:46:57.601Z</time></trkpt><trkpt lat="43.6105612" lon="12.2711763"><ele>857.75</ele><time>2026-04-11T13:46:59.601Z</time></trkpt><trkpt lat="43.6106716" lon="12.2712441"><ele>854.0</ele><time>2026-04-11T13:47:01.601Z</time></trkpt><trkpt lat="43.6107743" lon="12.2712803"><ele>854.0</ele><time>2026-04-11T13:47:03.601Z</time></trkpt><trkpt lat="43.61086" lon="12.2713072"><ele>854.0000000000001</ele><time>2026-04-11T13:47:05.601Z</time></trkpt><trkpt lat="43.6109637" lon="12.2713296"><ele>854.0000000000001</ele><time>2026-04-11T13:47:07.601Z</time></trkpt><trkpt lat="43.611067" lon="12.2713709"><ele>854.0</ele><time>2026-04-11T13:47:09.601Z</time></trkpt><trkpt lat="43.6111361" lon="12.271411"><ele>854.0</ele><time>2026-04-11T13:47:11.601Z</time></trkpt><trkpt lat="43.6112056" lon="12.2714502"><ele>854.8000000000001</ele><time>2026-04-11T13:47:13.601Z</time></trkpt><trkpt lat="43.6112985" lon="12.2714887"><ele>855.6000000000001</ele><time>2026-04-11T13:47:15.6Z</time></trkpt><trkpt lat="43.6113794" lon="12.2715588"><ele>856.4</ele><time>2026-04-11T13:47:17.601Z</time></trkpt><trkpt lat="43.611424" lon="12.2716654"><ele>857.2</ele><time>2026-04-11T13:47:19.601Z</time></trkpt><trkpt lat="43.611425" lon="12.2717873"><ele>858.0</ele><time>2026-04-11T13:47:21.6Z</time></trkpt><trkpt lat="43.6114342" lon="12.2719143"><ele>858.0</ele><time>2026-04-11T13:47:23.601Z</time></trkpt><trkpt lat="43.6114417" lon="12.2720466"><ele>858.0</ele><time>2026-04-11T13:47:25.601Z</time></trkpt><trkpt lat="43.6114603" lon="12.2721747"><ele>858.0</ele><time>2026-04-11T13:47:27.601Z</time></trkpt><trkpt lat="43.6114963" lon="12.2722929"><ele>858.0</ele><time>2026-04-11T13:47:29.599Z</time></trkpt><trkpt lat="43.6115548" lon="12.2724032"><ele>858.0</ele><time>2026-04-11T13:47:31.601Z</time></trkpt><trkpt lat="43.6116157" lon="12.2725116"><ele>857.6666666666666</ele><time>2026-04-11T13:47:33.601Z</time></trkpt><trkpt lat="43.6116543" lon="12.2726324"><ele>857.3333333333333</ele><time>2026-04-11T13:47:35.601Z</time></trkpt><trkpt lat="43.611702" lon="12.2727655"><ele>857.0</ele><time>2026-04-11T13:47:37.601Z</time></trkpt><trkpt lat="43.6117463" lon="12.2728314"><ele>856.6666666666666</ele><time>2026-04-11T13:47:38.601Z</time></trkpt><trkpt lat="43.6117859" lon="12.2729024"><ele>856.3333333333333</ele><time>2026-04-11T13:47:39.6Z</time></trkpt><trkpt lat="43.6118432" lon="12.2730246"><ele>856.0</ele><time>2026-04-11T13:47:41.601Z</time></trkpt><trkpt lat="43.6118901" lon="12.2731689"><ele>855.1999999999999</ele><time>2026-04-11T13:47:43.601Z</time></trkpt><trkpt lat="43.6119382" lon="12.2733167"><ele>854.3999999999999</ele><time>2026-04-11T13:47:45.601Z</time></trkpt><trkpt lat="43.6119681" lon="12.2734665"><ele>853.6</ele><time>2026-04-11T13:47:47.601Z</time></trkpt><trkpt lat="43.6119868" lon="12.2736221"><ele>852.8</ele><time>2026-04-11T13:47:49.601Z</time></trkpt><trkpt lat="43.6120018" lon="12.2737641"><ele>852.0</ele><time>2026-04-11T13:47:51.6Z</time></trkpt><trkpt lat="43.6120202" lon="12.2739014"><ele>849.5</ele><time>2026-04-11T13:47:53.599Z</time></trkpt><trkpt lat="43.6120407" lon="12.2740256"><ele>847.0</ele><time>2026-04-11T13:47:55.601Z</time></trkpt><trkpt lat="43.6120468" lon="12.2741366"><ele>844.5</ele><time>2026-04-11T13:47:57.601Z</time></trkpt><trkpt lat="43.6120225" lon="12.2742597"><ele>842.0</ele><time>2026-04-11T13:47:59.601Z</time></trkpt><trkpt lat="43.6119939" lon="12.2743789"><ele>839.5</ele><time>2026-04-11T13:48:01.601Z</time></trkpt><trkpt lat="43.6119594" lon="12.2744849"><ele>837.0</ele><time>2026-04-11T13:48:03.6Z</time></trkpt><trkpt lat="43.6119577" lon="12.2746115"><ele>835.4000000000001</ele><time>2026-04-11T13:48:05.601Z</time></trkpt><trkpt lat="43.6119788" lon="12.2747517"><ele>833.8000000000001</ele><time>2026-04-11T13:48:07.6Z</time></trkpt><trkpt lat="43.6120048" lon="12.2748676"><ele>832.2</ele><time>2026-04-11T13:48:09.601Z</time></trkpt><trkpt lat="43.6120391" lon="12.2749794"><ele>830.6</ele><time>2026-04-11T13:48:11.601Z</time></trkpt><trkpt lat="43.6120695" lon="12.2750939"><ele>829.0</ele><time>2026-04-11T13:48:13.6Z</time></trkpt><trkpt lat="43.6120861" lon="12.2752436"><ele>827.6666666666666</ele><time>2026-04-11T13:48:15.601Z</time></trkpt><trkpt lat="43.6120895" lon="12.2753344"><ele>826.3333333333333</ele><time>2026-04-11T13:48:16.601Z</time></trkpt><trkpt lat="43.6120866" lon="12.2754265"><ele>825.0</ele><time>2026-04-11T13:48:17.599Z</time></trkpt><trkpt lat="43.6120852" lon="12.2755155"><ele>823.6666666666667</ele><time>2026-04-11T13:48:18.601Z</time></trkpt><trkpt lat="43.6120901" lon="12.2756697"><ele>822.3333333333334</ele><time>2026-04-11T13:48:20.599Z</time></trkpt><trkpt lat="43.6121029" lon="12.2758025"><ele>821.0</ele><time>2026-04-11T13:48:22.6Z</time></trkpt><trkpt lat="43.6121137" lon="12.275928"><ele>819.6666666666667</ele><time>2026-04-11T13:48:24.601Z</time></trkpt><trkpt lat="43.6121125" lon="12.276044"><ele>818.3333333333334</ele><time>2026-04-11T13:48:26.601Z</time></trkpt><trkpt lat="43.6120685" lon="12.2761647"><ele>817.0</ele><time>2026-04-11T13:48:28.6Z</time></trkpt><trkpt lat="43.6120427" lon="12.2762445"><ele>815.6666666666667</ele><time>2026-04-11T13:48:29.601Z</time></trkpt><trkpt lat="43.612012" lon="12.2763315"><ele>814.3333333333334</ele><time>2026-04-11T13:48:30.601Z</time></trkpt><trkpt lat="43.611983" lon="12.2764213"><ele>813.0</ele><time>2026-04-11T13:48:31.6Z</time></trkpt><trkpt lat="43.6119581" lon="12.276517"><ele>811.6666666666666</ele><time>2026-04-11T13:48:32.599Z</time></trkpt><trkpt lat="43.6119332" lon="12.2766126"><ele>810.3333333333333</ele><time>2026-04-11T13:48:33.601Z</time></trkpt><trkpt lat="43.611914" lon="12.2767074"><ele>809.0</ele><time>2026-04-11T13:48:34.601Z</time></trkpt><trkpt lat="43.6119016" lon="12.2768019"><ele>807.6666666666666</ele><time>2026-04-11T13:48:35.601Z</time></trkpt><trkpt lat="43.6118922" lon="12.2768908"><ele>806.3333333333333</ele><time>2026-04-11T13:48:36.601Z</time></trkpt><trkpt lat="43.6118713" lon="12.2770528"><ele>805.0</ele><time>2026-04-11T13:48:38.601Z</time></trkpt><trkpt lat="43.6118521" lon="12.2771942"><ele>803.75</ele><time>2026-04-11T13:48:40.601Z</time></trkpt><trkpt lat="43.6118049" lon="12.2773244"><ele>802.5</ele><time>2026-04-11T13:48:42.601Z</time></trkpt><trkpt lat="43.6117255" lon="12.2774044"><ele>801.25</ele><time>2026-04-11T13:48:44.601Z</time></trkpt><trkpt lat="43.6116332" lon="12.2774169"><ele>800.0</ele><time>2026-04-11T13:48:46.601Z</time></trkpt><trkpt lat="43.6114716" lon="12.277365"><ele>800.0</ele><time>2026-04-11T13:48:49.601Z</time></trkpt><trkpt lat="43.6114053" lon="12.2773336"><ele>800.0</ele><time>2026-04-11T13:48:50.601Z</time></trkpt><trkpt lat="43.6113377" lon="12.2772957"><ele>800.0</ele><time>2026-04-11T13:48:51.601Z</time></trkpt><trkpt lat="43.6112706" lon="12.277255"><ele>800.0</ele><time>2026-04-11T13:48:52.6Z</time></trkpt><trkpt lat="43.6112089" lon="12.2772151"><ele>800.0</ele><time>2026-04-11T13:48:53.601Z</time></trkpt><trkpt lat="43.6110558" lon="12.2771085"><ele>799.8</ele><time>2026-04-11T13:48:56.601Z</time></trkpt><trkpt lat="43.6109532" lon="12.2770444"><ele>799.6</ele><time>2026-04-11T13:48:58.602Z</time></trkpt><trkpt lat="43.6108492" lon="12.2769701"><ele>799.4000000000001</ele><time>2026-04-11T13:49:00.6Z</time></trkpt><trkpt lat="43.6107935" lon="12.2769278"><ele>799.2</ele><time>2026-04-11T13:49:01.601Z</time></trkpt><trkpt lat="43.6106884" lon="12.2768498"><ele>799.0</ele><time>2026-04-11T13:49:03.601Z</time></trkpt><trkpt lat="43.6105835" lon="12.2767872"><ele>799.0</ele><time>2026-04-11T13:49:05.601Z</time></trkpt><trkpt lat="43.6104702" lon="12.2767319"><ele>799.0</ele><time>2026-04-11T13:49:07.601Z</time></trkpt><trkpt lat="43.6103653" lon="12.276675"><ele>799.0</ele><time>2026-04-11T13:49:09.6Z</time></trkpt><trkpt lat="43.610253" lon="12.2766137"><ele>799.0</ele><time>2026-04-11T13:49:11.601Z</time></trkpt><trkpt lat="43.6101423" lon="12.2765378"><ele>798.4999999999999</ele><time>2026-04-11T13:49:13.601Z</time></trkpt><trkpt lat="43.6100412" lon="12.2764393"><ele>798.0</ele><time>2026-04-11T13:49:15.6Z</time></trkpt><trkpt lat="43.60999" lon="12.2763858"><ele>797.5</ele><time>2026-04-11T13:49:16.601Z</time></trkpt><trkpt lat="43.6099433" lon="12.2763223"><ele>797.0</ele><time>2026-04-11T13:49:17.601Z</time></trkpt><trkpt lat="43.6099019" lon="12.2762498"><ele>796.4999999999999</ele><time>2026-04-11T13:49:18.6Z</time></trkpt><trkpt lat="43.6098342" lon="12.2761093"><ele>796.0</ele><time>2026-04-11T13:49:20.601Z</time></trkpt><trkpt lat="43.6097892" lon="12.2759497"><ele>795.9999999999999</ele><time>2026-04-11T13:49:22.6Z</time></trkpt><trkpt lat="43.6097631" lon="12.2758657"><ele>796.0</ele><time>2026-04-11T13:49:23.601Z</time></trkpt><trkpt lat="43.6097353" lon="12.275776"><ele>796.0</ele><time>2026-04-11T13:49:24.601Z</time></trkpt><trkpt lat="43.6097055" lon="12.2756838"><ele>796.0</ele><time>2026-04-11T13:49:25.6Z</time></trkpt><trkpt lat="43.6096753" lon="12.2755932"><ele>796.0</ele><time>2026-04-11T13:49:26.601Z</time></trkpt><trkpt lat="43.6096453" lon="12.2755031"><ele>795.9999999999999</ele><time>2026-04-11T13:49:27.601Z</time></trkpt><trkpt lat="43.6096164" lon="12.2754168"><ele>796.0</ele><time>2026-04-11T13:49:28.601Z</time></trkpt><trkpt lat="43.6095859" lon="12.2753228"><ele>795.8333333333333</ele><time>2026-04-11T13:49:29.6Z</time></trkpt><trkpt lat="43.6095551" lon="12.2752228"><ele>795.6666666666666</ele><time>2026-04-11T13:49:30.6Z</time></trkpt><trkpt lat="43.6095217" lon="12.275118"><ele>795.5</ele><time>2026-04-11T13:49:31.601Z</time></trkpt><trkpt lat="43.609486" lon="12.275009"><ele>795.3333333333333</ele><time>2026-04-11T13:49:32.6Z</time></trkpt><trkpt lat="43.6094469" lon="12.2748965"><ele>795.1666666666666</ele><time>2026-04-11T13:49:33.6Z</time></trkpt><trkpt lat="43.6094059" lon="12.2747793"><ele>795.0</ele><time>2026-04-11T13:49:34.6Z</time></trkpt><trkpt lat="43.6093653" lon="12.2746636"><ele>794.0</ele><time>2026-04-11T13:49:35.6Z</time></trkpt><trkpt lat="43.6093276" lon="12.2745486"><ele>793.0</ele><time>2026-04-11T13:49:36.6Z</time></trkpt><trkpt lat="43.6092866" lon="12.274442"><ele>792.0</ele><time>2026-04-11T13:49:37.601Z</time></trkpt><trkpt lat="43.6092449" lon="12.2743394"><ele>791.0</ele><time>2026-04-11T13:49:38.601Z</time></trkpt><trkpt lat="43.6092059" lon="12.2742431"><ele>790.0</ele><time>2026-04-11T13:49:39.601Z</time></trkpt><trkpt lat="43.6091622" lon="12.2741473"><ele>789.0</ele><time>2026-04-11T13:49:40.601Z</time></trkpt><trkpt lat="43.6091162" lon="12.2740595"><ele>789.0</ele><time>2026-04-11T13:49:41.601Z</time></trkpt><trkpt lat="43.6090598" lon="12.2739824"><ele>789.0</ele><time>2026-04-11T13:49:42.601Z</time></trkpt><trkpt lat="43.6090017" lon="12.2739134"><ele>789.0</ele><time>2026-04-11T13:49:43.601Z</time></trkpt><trkpt lat="43.6089356" lon="12.27386"><ele>789.0</ele><time>2026-04-11T13:49:44.601Z</time></trkpt><trkpt lat="43.6088637" lon="12.2738194"><ele>789.0</ele><time>2026-04-11T13:49:45.6Z</time></trkpt><trkpt lat="43.6087903" lon="12.2737885"><ele>789.0</ele><time>2026-04-11T13:49:46.6Z</time></trkpt><trkpt lat="43.6087101" lon="12.2737706"><ele>789.8333333333334</ele><time>2026-04-11T13:49:47.599Z</time></trkpt><trkpt lat="43.6086305" lon="12.2737591"><ele>790.6666666666667</ele><time>2026-04-11T13:49:48.601Z</time></trkpt><trkpt lat="43.6085545" lon="12.2737505"><ele>791.5</ele><time>2026-04-11T13:49:49.601Z</time></trkpt><trkpt lat="43.6084754" lon="12.2737451"><ele>792.3333333333334</ele><time>2026-04-11T13:49:50.601Z</time></trkpt><trkpt lat="43.6083978" lon="12.2737361"><ele>793.1666666666667</ele><time>2026-04-11T13:49:51.601Z</time></trkpt><trkpt lat="43.6083219" lon="12.2737247"><ele>794.0</ele><time>2026-04-11T13:49:52.6Z</time></trkpt><trkpt lat="43.6082457" lon="12.2737175"><ele>794.0</ele><time>2026-04-11T13:49:53.6Z</time></trkpt><trkpt lat="43.6081705" lon="12.2737106"><ele>794.0</ele><time>2026-04-11T13:49:54.599Z</time></trkpt><trkpt lat="43.6080967" lon="12.2737075"><ele>794.0</ele><time>2026-04-11T13:49:55.601Z</time></trkpt><trkpt lat="43.6080241" lon="12.2736951"><ele>794.0</ele><time>2026-04-11T13:49:56.601Z</time></trkpt><trkpt lat="43.6079554" lon="12.2736695"><ele>794.0</ele><time>2026-04-11T13:49:57.601Z</time></trkpt><trkpt lat="43.6078851" lon="12.27364"><ele>794.0</ele><time>2026-04-11T13:49:58.601Z</time></trkpt><trkpt lat="43.6078155" lon="12.2735989"><ele>794.0</ele><time>2026-04-11T13:49:59.601Z</time></trkpt><trkpt lat="43.6077476" lon="12.273546"><ele>791.3333333333334</ele><time>2026-04-11T13:50:00.6Z</time></trkpt><trkpt lat="43.6076814" lon="12.2734864"><ele>788.6666666666667</ele><time>2026-04-11T13:50:01.601Z</time></trkpt><trkpt lat="43.6076133" lon="12.2734319"><ele>786.0</ele><time>2026-04-11T13:50:02.601Z</time></trkpt><trkpt lat="43.6075427" lon="12.2733725"><ele>783.3333333333333</ele><time>2026-04-11T13:50:03.601Z</time></trkpt><trkpt lat="43.6074592" lon="12.273343"><ele>780.6666666666666</ele><time>2026-04-11T13:50:04.6Z</time></trkpt><trkpt lat="43.6073776" lon="12.2733324"><ele>778.0</ele><time>2026-04-11T13:50:05.601Z</time></trkpt><trkpt lat="43.607297" lon="12.2733472"><ele>777.9999999999999</ele><time>2026-04-11T13:50:06.601Z</time></trkpt><trkpt lat="43.6072169" lon="12.2733789"><ele>778.0</ele><time>2026-04-11T13:50:07.601Z</time></trkpt><trkpt lat="43.6071392" lon="12.2734114"><ele>778.0</ele><time>2026-04-11T13:50:08.601Z</time></trkpt><trkpt lat="43.6070659" lon="12.273448"><ele>778.0</ele><time>2026-04-11T13:50:09.601Z</time></trkpt><trkpt lat="43.6069915" lon="12.2734853"><ele>777.9999999999999</ele><time>2026-04-11T13:50:10.6Z</time></trkpt><trkpt lat="43.6069192" lon="12.2735288"><ele>778.0</ele><time>2026-04-11T13:50:11.6Z</time></trkpt><trkpt lat="43.6068421" lon="12.2735753"><ele>779.1666666666666</ele><time>2026-04-11T13:50:12.6Z</time></trkpt><trkpt lat="43.6067722" lon="12.2736389"><ele>780.3333333333333</ele><time>2026-04-11T13:50:13.601Z</time></trkpt><trkpt lat="43.6067124" lon="12.2737099"><ele>781.5</ele><time>2026-04-11T13:50:14.6Z</time></trkpt><trkpt lat="43.6066565" lon="12.2737873"><ele>782.6666666666667</ele><time>2026-04-11T13:50:15.6Z</time></trkpt><trkpt lat="43.606601" lon="12.2738658"><ele>783.8333333333334</ele><time>2026-04-11T13:50:16.599Z</time></trkpt><trkpt lat="43.6065428" lon="12.2739438"><ele>785.0</ele><time>2026-04-11T13:50:17.6Z</time></trkpt><trkpt lat="43.6064847" lon="12.2740206"><ele>783.8333333333334</ele><time>2026-04-11T13:50:18.6Z</time></trkpt><trkpt lat="43.6064186" lon="12.2741003"><ele>782.6666666666667</ele><time>2026-04-11T13:50:19.6Z</time></trkpt><trkpt lat="43.6063553" lon="12.274178"><ele>781.5</ele><time>2026-04-11T13:50:20.601Z</time></trkpt><trkpt lat="43.6062851" lon="12.2742454"><ele>780.3333333333333</ele><time>2026-04-11T13:50:21.601Z</time></trkpt><trkpt lat="43.6062109" lon="12.2743005"><ele>779.1666666666666</ele><time>2026-04-11T13:50:22.601Z</time></trkpt><trkpt lat="43.6061369" lon="12.2743519"><ele>778.0</ele><time>2026-04-11T13:50:23.601Z</time></trkpt><trkpt lat="43.6060623" lon="12.2744026"><ele>777.9999999999999</ele><time>2026-04-11T13:50:24.601Z</time></trkpt><trkpt lat="43.6059896" lon="12.274461"><ele>778.0</ele><time>2026-04-11T13:50:25.601Z</time></trkpt><trkpt lat="43.605916" lon="12.2745179"><ele>778.0</ele><time>2026-04-11T13:50:26.601Z</time></trkpt><trkpt lat="43.6058396" lon="12.2745766"><ele>778.0</ele><time>2026-04-11T13:50:27.601Z</time></trkpt><trkpt lat="43.6057636" lon="12.274645"><ele>777.9999999999999</ele><time>2026-04-11T13:50:28.601Z</time></trkpt><trkpt lat="43.6056926" lon="12.2747174"><ele>778.0</ele><time>2026-04-11T13:50:29.601Z</time></trkpt><trkpt lat="43.6056258" lon="12.2747932"><ele>775.0</ele><time>2026-04-11T13:50:30.601Z</time></trkpt><trkpt lat="43.6055678" lon="12.2748738"><ele>772.0</ele><time>2026-04-11T13:50:31.601Z</time></trkpt><trkpt lat="43.6055132" lon="12.27495"><ele>769.0</ele><time>2026-04-11T13:50:32.601Z</time></trkpt><trkpt lat="43.6054566" lon="12.2750144"><ele>766.0</ele><time>2026-04-11T13:50:33.601Z</time></trkpt><trkpt lat="43.6053982" lon="12.2750609"><ele>763.0</ele><time>2026-04-11T13:50:34.601Z</time></trkpt><trkpt lat="43.6053347" lon="12.2750916"><ele>760.0</ele><time>2026-04-11T13:50:35.601Z</time></trkpt><trkpt lat="43.605269" lon="12.2751036"><ele>757.0</ele><time>2026-04-11T13:50:36.601Z</time></trkpt><trkpt lat="43.6051407" lon="12.275069"><ele>757.0</ele><time>2026-04-11T13:50:38.601Z</time></trkpt><trkpt lat="43.6050731" lon="12.2750399"><ele>757.0</ele><time>2026-04-11T13:50:39.599Z</time></trkpt><trkpt lat="43.6050054" lon="12.275004"><ele>757.0</ele><time>2026-04-11T13:50:40.601Z</time></trkpt><trkpt lat="43.6049351" lon="12.2749648"><ele>757.0</ele><time>2026-04-11T13:50:41.601Z</time></trkpt><trkpt lat="43.6048589" lon="12.2749247"><ele>757.0</ele><time>2026-04-11T13:50:42.601Z</time></trkpt><trkpt lat="43.6047814" lon="12.2748957"><ele>757.0</ele><time>2026-04-11T13:50:43.601Z</time></trkpt><trkpt lat="43.6046997" lon="12.2748795"><ele>757.0</ele><time>2026-04-11T13:50:44.6Z</time></trkpt><trkpt lat="43.6046177" lon="12.2748804"><ele>757.0</ele><time>2026-04-11T13:50:45.601Z</time></trkpt><trkpt lat="43.6045408" lon="12.2748923"><ele>757.0</ele><time>2026-04-11T13:50:46.601Z</time></trkpt><trkpt lat="43.6044677" lon="12.274901"><ele>757.0</ele><time>2026-04-11T13:50:47.6Z</time></trkpt><trkpt lat="43.6043926" lon="12.2748988"><ele>757.0</ele><time>2026-04-11T13:50:48.601Z</time></trkpt><trkpt lat="43.6043165" lon="12.2748888"><ele>757.0</ele><time>2026-04-11T13:50:49.601Z</time></trkpt><trkpt lat="43.6042418" lon="12.2748697"><ele>758.1666666666667</ele><time>2026-04-11T13:50:50.601Z</time></trkpt><trkpt lat="43.6041645" lon="12.2748388"><ele>759.3333333333334</ele><time>2026-04-11T13:50:51.6Z</time></trkpt><trkpt lat="43.6040884" lon="12.2748024"><ele>760.5</ele><time>2026-04-11T13:50:52.601Z</time></trkpt><trkpt lat="43.6040162" lon="12.2747634"><ele>761.6666666666666</ele><time>2026-04-11T13:50:53.601Z</time></trkpt><trkpt lat="43.6039477" lon="12.2747173"><ele>762.8333333333333</ele><time>2026-04-11T13:50:54.601Z</time></trkpt><trkpt lat="43.6038833" lon="12.2746669"><ele>764.0</ele><time>2026-04-11T13:50:55.601Z</time></trkpt><trkpt lat="43.6038205" lon="12.2746121"><ele>764.0</ele><time>2026-04-11T13:50:56.601Z</time></trkpt><trkpt lat="43.6037625" lon="12.2745484"><ele>764.0</ele><time>2026-04-11T13:50:57.601Z</time></trkpt><trkpt lat="43.6037113" lon="12.27447"><ele>764.0</ele><time>2026-04-11T13:50:58.601Z</time></trkpt><trkpt lat="43.6036641" lon="12.2743817"><ele>764.0</ele><time>2026-04-11T13:50:59.601Z</time></trkpt><trkpt lat="43.6036204" lon="12.2742848"><ele>764.0</ele><time>2026-04-11T13:51:00.601Z</time></trkpt><trkpt lat="43.6035787" lon="12.2741886"><ele>764.0</ele><time>2026-04-11T13:51:01.6Z</time></trkpt><trkpt lat="43.6035375" lon="12.2740899"><ele>760.1666666666666</ele><time>2026-04-11T13:51:02.601Z</time></trkpt><trkpt lat="43.6034924" lon="12.2739924"><ele>756.3333333333333</ele><time>2026-04-11T13:51:03.6Z</time></trkpt><trkpt lat="43.6034454" lon="12.2738931"><ele>752.5</ele><time>2026-04-11T13:51:04.601Z</time></trkpt><trkpt lat="43.6033988" lon="12.2737976"><ele>748.6666666666666</ele><time>2026-04-11T13:51:05.6Z</time></trkpt><trkpt lat="43.6033569" lon="12.2736995"><ele>744.8333333333334</ele><time>2026-04-11T13:51:06.6Z</time></trkpt><trkpt lat="43.6033185" lon="12.2736024"><ele>741.0</ele><time>2026-04-11T13:51:07.6Z</time></trkpt><trkpt lat="43.6032689" lon="12.2735077"><ele>741.0</ele><time>2026-04-11T13:51:08.6Z</time></trkpt><trkpt lat="43.6032136" lon="12.2734143"><ele>741.0</ele><time>2026-04-11T13:51:09.601Z</time></trkpt><trkpt lat="43.6031541" lon="12.2733348"><ele>741.0</ele><time>2026-04-11T13:51:10.601Z</time></trkpt><trkpt lat="43.6030849" lon="12.2732495"><ele>741.0</ele><time>2026-04-11T13:51:11.601Z</time></trkpt><trkpt lat="43.603016" lon="12.2731801"><ele>741.0</ele><time>2026-04-11T13:51:12.601Z</time></trkpt><trkpt lat="43.6029457" lon="12.2731155"><ele>741.0</ele><time>2026-04-11T13:51:13.601Z</time></trkpt><trkpt lat="43.6028747" lon="12.2730499"><ele>742.0</ele><time>2026-04-11T13:51:14.601Z</time></trkpt><trkpt lat="43.6028027" lon="12.2729884"><ele>743.0</ele><time>2026-04-11T13:51:15.6Z</time></trkpt><trkpt lat="43.6027283" lon="12.2729332"><ele>744.0</ele><time>2026-04-11T13:51:16.6Z</time></trkpt><trkpt lat="43.6026457" lon="12.2728857"><ele>745.0</ele><time>2026-04-11T13:51:17.601Z</time></trkpt><trkpt lat="43.6025589" lon="12.2728423"><ele>746.0</ele><time>2026-04-11T13:51:18.601Z</time></trkpt><trkpt lat="43.6024688" lon="12.2727957"><ele>747.0</ele><time>2026-04-11T13:51:19.601Z</time></trkpt><trkpt lat="43.6023795" lon="12.272754"><ele>747.0</ele><time>2026-04-11T13:51:20.601Z</time></trkpt><trkpt lat="43.602287" lon="12.2727122"><ele>747.0</ele><time>2026-04-11T13:51:21.601Z</time></trkpt><trkpt lat="43.6021964" lon="12.2726823"><ele>747.0</ele><time>2026-04-11T13:51:22.6Z</time></trkpt><trkpt lat="43.602109" lon="12.2726626"><ele>747.0</ele><time>2026-04-11T13:51:23.599Z</time></trkpt><trkpt lat="43.6020255" lon="12.2726534"><ele>747.0</ele><time>2026-04-11T13:51:24.6Z</time></trkpt><trkpt lat="43.6019413" lon="12.2726533"><ele>747.0</ele><time>2026-04-11T13:51:25.6Z</time></trkpt><trkpt lat="43.6018583" lon="12.2726688"><ele>745.1666666666666</ele><time>2026-04-11T13:51:26.601Z</time></trkpt><trkpt lat="43.6017849" lon="12.2727137"><ele>743.3333333333334</ele><time>2026-04-11T13:51:27.601Z</time></trkpt><trkpt lat="43.6017274" lon="12.2727894"><ele>741.5</ele><time>2026-04-11T13:51:28.601Z</time></trkpt><trkpt lat="43.6016867" lon="12.2728882"><ele>739.6666666666667</ele><time>2026-04-11T13:51:29.601Z</time></trkpt><trkpt lat="43.6016659" lon="12.2729996"><ele>737.8333333333334</ele><time>2026-04-11T13:51:30.6Z</time></trkpt><trkpt lat="43.6016626" lon="12.2731166"><ele>736.0</ele><time>2026-04-11T13:51:31.601Z</time></trkpt><trkpt lat="43.6016774" lon="12.2732342"><ele>735.6666666666667</ele><time>2026-04-11T13:51:32.6Z</time></trkpt><trkpt lat="43.6017043" lon="12.2733498"><ele>735.3333333333334</ele><time>2026-04-11T13:51:33.601Z</time></trkpt><trkpt lat="43.6017355" lon="12.2734558"><ele>735.0</ele><time>2026-04-11T13:51:34.601Z</time></trkpt><trkpt lat="43.6017664" lon="12.273566"><ele>734.6666666666666</ele><time>2026-04-11T13:51:35.601Z</time></trkpt><trkpt lat="43.6017878" lon="12.2736708"><ele>734.3333333333333</ele><time>2026-04-11T13:51:36.6Z</time></trkpt><trkpt lat="43.6017877" lon="12.2737652"><ele>734.0</ele><time>2026-04-11T13:51:37.601Z</time></trkpt><trkpt lat="43.601712" lon="12.2739025"><ele>734.0</ele><time>2026-04-11T13:51:39.6Z</time></trkpt><trkpt lat="43.6016552" lon="12.2739578"><ele>734.0</ele><time>2026-04-11T13:51:40.601Z</time></trkpt><trkpt lat="43.6016002" lon="12.274022"><ele>734.0</ele><time>2026-04-11T13:51:41.6Z</time></trkpt><trkpt lat="43.6015534" lon="12.2741097"><ele>734.0</ele><time>2026-04-11T13:51:42.599Z</time></trkpt><trkpt lat="43.6015172" lon="12.2742057"><ele>734.0</ele><time>2026-04-11T13:51:43.601Z</time></trkpt><trkpt lat="43.6014963" lon="12.2743071"><ele>734.0</ele><time>2026-04-11T13:51:44.601Z</time></trkpt><trkpt lat="43.6014898" lon="12.2744115"><ele>734.0</ele><time>2026-04-11T13:51:45.601Z</time></trkpt><trkpt lat="43.6014931" lon="12.2745251"><ele>734.0</ele><time>2026-04-11T13:51:46.6Z</time></trkpt><trkpt lat="43.6015062" lon="12.2746317"><ele>734.0</ele><time>2026-04-11T13:51:47.6Z</time></trkpt><trkpt lat="43.6015106" lon="12.2747319"><ele>734.0</ele><time>2026-04-11T13:51:48.601Z</time></trkpt><trkpt lat="43.6014909" lon="12.2748307"><ele>734.0</ele><time>2026-04-11T13:51:49.601Z</time></trkpt><trkpt lat="43.6014503" lon="12.2749158"><ele>734.0</ele><time>2026-04-11T13:51:50.601Z</time></trkpt><trkpt lat="43.6014077" lon="12.2749939"><ele>735.6</ele><time>2026-04-11T13:51:51.601Z</time></trkpt><trkpt lat="43.6014011" lon="12.2750862"><ele>737.2</ele><time>2026-04-11T13:51:52.601Z</time></trkpt><trkpt lat="43.6013929" lon="12.2751771"><ele>738.8000000000001</ele><time>2026-04-11T13:51:53.6Z</time></trkpt><trkpt lat="43.6014294" lon="12.2752938"><ele>740.4000000000001</ele><time>2026-04-11T13:51:55.601Z</time></trkpt><trkpt lat="43.601566" lon="12.2753078"><ele>742.0</ele><time>2026-04-11T13:51:56.601Z</time></trkpt><trkpt lat="43.6016549" lon="12.2753267"><ele>742.0</ele><time>2026-04-11T13:51:57.6Z</time></trkpt><trkpt lat="43.6017421" lon="12.2753756"><ele>742.0</ele><time>2026-04-11T13:51:58.601Z</time></trkpt><trkpt lat="43.6018159" lon="12.2754232"><ele>742.0</ele><time>2026-04-11T13:51:59.6Z</time></trkpt><trkpt lat="43.6018733" lon="12.275472"><ele>742.0</ele><time>2026-04-11T13:52:00.6Z</time></trkpt><trkpt lat="43.6019118" lon="12.2756249"><ele>742.0</ele><time>2026-04-11T13:52:02.601Z</time></trkpt><trkpt lat="43.6018867" lon="12.2757126"><ele>742.0</ele><time>2026-04-11T13:52:03.601Z</time></trkpt><trkpt lat="43.6018537" lon="12.2758035"><ele>744.8333333333334</ele><time>2026-04-11T13:52:04.601Z</time></trkpt><trkpt lat="43.6018217" lon="12.2759027"><ele>747.6666666666667</ele><time>2026-04-11T13:52:05.601Z</time></trkpt><trkpt lat="43.6018115" lon="12.2760138"><ele>750.5</ele><time>2026-04-11T13:52:06.601Z</time></trkpt><trkpt lat="43.601811" lon="12.2761263"><ele>753.3333333333334</ele><time>2026-04-11T13:52:07.6Z</time></trkpt><trkpt lat="43.6018076" lon="12.2762359"><ele>756.1666666666666</ele><time>2026-04-11T13:52:08.601Z</time></trkpt><trkpt lat="43.601787" lon="12.2763422"><ele>759.0</ele><time>2026-04-11T13:52:09.6Z</time></trkpt><trkpt lat="43.6017444" lon="12.2764305"><ele>758.8333333333334</ele><time>2026-04-11T13:52:10.601Z</time></trkpt><trkpt lat="43.6016819" lon="12.2765036"><ele>758.6666666666666</ele><time>2026-04-11T13:52:11.6Z</time></trkpt><trkpt lat="43.6016133" lon="12.2765695"><ele>758.5</ele><time>2026-04-11T13:52:12.601Z</time></trkpt><trkpt lat="43.6015407" lon="12.2766317"><ele>758.3333333333333</ele><time>2026-04-11T13:52:13.601Z</time></trkpt><trkpt lat="43.6014599" lon="12.2766923"><ele>758.1666666666666</ele><time>2026-04-11T13:52:14.601Z</time></trkpt><trkpt lat="43.6013784" lon="12.2767582"><ele>758.0</ele><time>2026-04-11T13:52:15.601Z</time></trkpt><trkpt lat="43.6012962" lon="12.2768309"><ele>758.0</ele><time>2026-04-11T13:52:16.601Z</time></trkpt><trkpt lat="43.6012259" lon="12.2769096"><ele>758.0</ele><time>2026-04-11T13:52:17.601Z</time></trkpt><trkpt lat="43.6011777" lon="12.276995"><ele>758.0</ele><time>2026-04-11T13:52:18.6Z</time></trkpt><trkpt lat="43.6011548" lon="12.277103"><ele>758.0</ele><time>2026-04-11T13:52:19.601Z</time></trkpt><trkpt lat="43.6011505" lon="12.2772157"><ele>758.0</ele><time>2026-04-11T13:52:20.599Z</time></trkpt><trkpt lat="43.6011679" lon="12.2773283"><ele>758.0</ele><time>2026-04-11T13:52:21.601Z</time></trkpt><trkpt lat="43.6011808" lon="12.277449"><ele>756.0</ele><time>2026-04-11T13:52:22.601Z</time></trkpt><trkpt lat="43.6011784" lon="12.2775653"><ele>754.0</ele><time>2026-04-11T13:52:23.6Z</time></trkpt><trkpt lat="43.601181" lon="12.277687"><ele>752.0</ele><time>2026-04-11T13:52:24.6Z</time></trkpt><trkpt lat="43.6011962" lon="12.2778231"><ele>750.0</ele><time>2026-04-11T13:52:25.601Z</time></trkpt><trkpt lat="43.6012165" lon="12.2779459"><ele>748.0</ele><time>2026-04-11T13:52:26.601Z</time></trkpt><trkpt lat="43.6012188" lon="12.2780666"><ele>748.5</ele><time>2026-04-11T13:52:27.601Z</time></trkpt><trkpt lat="43.6011915" lon="12.2781776"><ele>749.0</ele><time>2026-04-11T13:52:28.601Z</time></trkpt><trkpt lat="43.601161" lon="12.2782895"><ele>749.5</ele><time>2026-04-11T13:52:29.6Z</time></trkpt><trkpt lat="43.6011299" lon="12.2783971"><ele>750.0</ele><time>2026-04-11T13:52:30.601Z</time></trkpt><trkpt lat="43.6011123" lon="12.2785048"><ele>750.5</ele><time>2026-04-11T13:52:31.6Z</time></trkpt><trkpt lat="43.6011213" lon="12.2786067"><ele>751.0</ele><time>2026-04-11T13:52:32.599Z</time></trkpt><trkpt lat="43.6011345" lon="12.2786948"><ele>752.8333333333334</ele><time>2026-04-11T13:52:33.601Z</time></trkpt><trkpt lat="43.6011307" lon="12.2788368"><ele>754.6666666666667</ele><time>2026-04-11T13:52:35.601Z</time></trkpt><trkpt lat="43.6011149" lon="12.278939"><ele>756.5</ele><time>2026-04-11T13:52:38.6Z</time></trkpt><trkpt lat="43.6010493" lon="12.2789848"><ele>758.3333333333334</ele><time>2026-04-11T13:52:50.6Z</time></trkpt><trkpt lat="43.6010579" lon="12.2790922"><ele>760.1666666666666</ele><time>2026-04-11T13:52:54.601Z</time></trkpt><trkpt lat="43.6011114" lon="12.2791534"><ele>762.0</ele><time>2026-04-11T13:52:56.601Z</time></trkpt><trkpt lat="43.6011658" lon="12.27927"><ele>762.0</ele><time>2026-04-11T13:52:58.6Z</time></trkpt><trkpt lat="43.6012125" lon="12.2794205"><ele>762.0</ele><time>2026-04-11T13:53:00.601Z</time></trkpt><trkpt lat="43.6012418" lon="12.2795057"><ele>762.0</ele><time>2026-04-11T13:53:01.601Z</time></trkpt><trkpt lat="43.6012568" lon="12.2796596"><ele>762.0</ele><time>2026-04-11T13:53:03.601Z</time></trkpt><trkpt lat="43.601225" lon="12.2797759"><ele>762.0</ele><time>2026-04-11T13:53:06.6Z</time></trkpt><trkpt lat="43.6012051" lon="12.2798923"><ele>762.4000000000001</ele><time>2026-04-11T13:53:08.601Z</time></trkpt><trkpt lat="43.6011884" lon="12.2800193"><ele>762.8000000000001</ele><time>2026-04-11T13:53:10.601Z</time></trkpt><trkpt lat="43.6011706" lon="12.280147"><ele>763.2</ele><time>2026-04-11T13:53:12.6Z</time></trkpt><trkpt lat="43.6012288" lon="12.2802463"><ele>763.6</ele><time>2026-04-11T13:53:15.601Z</time></trkpt><trkpt lat="43.6013283" lon="12.2803124"><ele>764.0</ele><time>2026-04-11T13:53:17.601Z</time></trkpt><trkpt lat="43.6014229" lon="12.2803277"><ele>764.0</ele><time>2026-04-11T13:53:19.6Z</time></trkpt><trkpt lat="43.6015482" lon="12.2803147"><ele>764.0</ele><time>2026-04-11T13:53:21.601Z</time></trkpt><trkpt lat="43.6016393" lon="12.2803074"><ele>764.0</ele><time>2026-04-11T13:53:23.6Z</time></trkpt><trkpt lat="43.6017357" lon="12.2803027"><ele>764.0</ele><time>2026-04-11T13:53:25.601Z</time></trkpt><trkpt lat="43.6018339" lon="12.2803103"><ele>764.0</ele><time>2026-04-11T13:53:27.6Z</time></trkpt><trkpt lat="43.6019033" lon="12.2803232"><ele>759.4000000000001</ele><time>2026-04-11T13:53:28.601Z</time></trkpt><trkpt lat="43.6020032" lon="12.2803435"><ele>754.8</ele><time>2026-04-11T13:53:30.6Z</time></trkpt><trkpt lat="43.6020618" lon="12.2803826"><ele>750.2</ele><time>2026-04-11T13:53:31.601Z</time></trkpt><trkpt lat="43.6021606" lon="12.2804149"><ele>745.5999999999999</ele><time>2026-04-11T13:53:33.601Z</time></trkpt><trkpt lat="43.6022312" lon="12.2804711"><ele>741.0</ele><time>2026-04-11T13:53:35.601Z</time></trkpt><trkpt lat="43.6023325" lon="12.2804987"><ele>741.0</ele><time>2026-04-11T13:53:38.601Z</time></trkpt><trkpt lat="43.6024461" lon="12.2805386"><ele>741.0</ele><time>2026-04-11T13:53:40.6Z</time></trkpt><trkpt lat="43.6025121" lon="12.2805769"><ele>741.0</ele><time>2026-04-11T13:53:41.601Z</time></trkpt><trkpt lat="43.6025714" lon="12.280608"><ele>741.0</ele><time>2026-04-11T13:53:42.601Z</time></trkpt><trkpt lat="43.6026279" lon="12.2806493"><ele>741.0</ele><time>2026-04-11T13:53:43.601Z</time></trkpt><trkpt lat="43.6027282" lon="12.2807584"><ele>741.0</ele><time>2026-04-11T13:53:45.6Z</time></trkpt><trkpt lat="43.6028058" lon="12.2808597"><ele>734.8</ele><time>2026-04-11T13:53:47.6Z</time></trkpt><trkpt lat="43.6028923" lon="12.280944"><ele>728.5999999999999</ele><time>2026-04-11T13:53:49.6Z</time></trkpt><trkpt lat="43.6029455" lon="12.2810047"><ele>722.4</ele><time>2026-04-11T13:53:50.601Z</time></trkpt><trkpt lat="43.6030316" lon="12.281113"><ele>716.2</ele><time>2026-04-11T13:53:52.599Z</time></trkpt><trkpt lat="43.6031093" lon="12.2812321"><ele>710.0</ele><time>2026-04-11T13:53:54.601Z</time></trkpt><trkpt lat="43.6031537" lon="12.2813597"><ele>711.4</ele><time>2026-04-11T13:53:56.601Z</time></trkpt><trkpt lat="43.6031816" lon="12.2814758"><ele>712.8</ele><time>2026-04-11T13:53:58.601Z</time></trkpt><trkpt lat="43.6031874" lon="12.2815776"><ele>714.2</ele><time>2026-04-11T13:54:00.601Z</time></trkpt><trkpt lat="43.603217" lon="12.2816556"><ele>715.6</ele><time>2026-04-11T13:54:02.601Z</time></trkpt><trkpt lat="43.6032713" lon="12.2818212"><ele>717.0</ele><time>2026-04-11T13:54:05.601Z</time></trkpt><trkpt lat="43.6032956" lon="12.2819623"><ele>717.0</ele><time>2026-04-11T13:54:07.601Z</time></trkpt><trkpt lat="43.6033333" lon="12.2821203"><ele>717.0</ele><time>2026-04-11T13:54:09.601Z</time></trkpt><trkpt lat="43.6033508" lon="12.2822066"><ele>717.0</ele><time>2026-04-11T13:54:10.601Z</time></trkpt><trkpt lat="43.6033598" lon="12.282298"><ele>717.0</ele><time>2026-04-11T13:54:11.601Z</time></trkpt><trkpt lat="43.6033645" lon="12.2823895"><ele>717.0</ele><time>2026-04-11T13:54:12.6Z</time></trkpt><trkpt lat="43.6033515" lon="12.2825559"><ele>717.0</ele><time>2026-04-11T13:54:14.601Z</time></trkpt><trkpt lat="43.603329" lon="12.2827124"><ele>716.6666666666666</ele><time>2026-04-11T13:54:16.601Z</time></trkpt><trkpt lat="43.6033307" lon="12.2828505"><ele>716.3333333333334</ele><time>2026-04-11T13:54:18.601Z</time></trkpt><trkpt lat="43.6033669" lon="12.282952"><ele>716.0</ele><time>2026-04-11T13:54:20.601Z</time></trkpt><trkpt lat="43.6034314" lon="12.2829907"><ele>715.6666666666667</ele><time>2026-04-11T13:54:22.6Z</time></trkpt><trkpt lat="43.603524" lon="12.28297"><ele>715.3333333333334</ele><time>2026-04-11T13:54:25.6Z</time></trkpt><trkpt lat="43.6036079" lon="12.2828909"><ele>715.0</ele><time>2026-04-11T13:54:29.6Z</time></trkpt><trkpt lat="43.6036756" lon="12.2828825"><ele>715.0</ele><time>2026-04-11T13:54:32.6Z</time></trkpt><trkpt lat="43.603655" lon="12.2829899"><ele>715.0</ele><time>2026-04-11T13:54:35.6Z</time></trkpt><trkpt lat="43.6035652" lon="12.2830569"><ele>715.0</ele><time>2026-04-11T13:54:37.601Z</time></trkpt><trkpt lat="43.6035108" lon="12.2831029"><ele>715.0</ele><time>2026-04-11T13:54:38.601Z</time></trkpt><trkpt lat="43.6034573" lon="12.2831504"><ele>715.0</ele><time>2026-04-11T13:54:39.6Z</time></trkpt><trkpt lat="43.6033734" lon="12.2832265"><ele>715.0</ele><time>2026-04-11T13:54:41.601Z</time></trkpt><trkpt lat="43.6032998" lon="12.2832873"><ele>713.6</ele><time>2026-04-11T13:54:43.6Z</time></trkpt><trkpt lat="43.6032463" lon="12.2833487"><ele>712.2</ele><time>2026-04-11T13:54:45.6Z</time></trkpt><trkpt lat="43.603213" lon="12.28344"><ele>710.8</ele><time>2026-04-11T13:54:47.601Z</time></trkpt><trkpt lat="43.6031802" lon="12.2835491"><ele>709.4</ele><time>2026-04-11T13:54:49.601Z</time></trkpt><trkpt lat="43.6031194" lon="12.2836602"><ele>708.0</ele><time>2026-04-11T13:54:51.601Z</time></trkpt><trkpt lat="43.6030009" lon="12.2837576"><ele>708.0</ele><time>2026-04-11T13:54:54.601Z</time></trkpt><trkpt lat="43.6029324" lon="12.283788"><ele>708.0</ele><time>2026-04-11T13:54:57.6Z</time></trkpt><trkpt lat="43.6028592" lon="12.2837621"><ele>708.0</ele><time>2026-04-11T13:55:06.601Z</time></trkpt><trkpt lat="43.6028401" lon="12.2836792"><ele>708.0</ele><time>2026-04-11T13:55:08.599Z</time></trkpt><trkpt lat="43.6028449" lon="12.283584"><ele>708.0</ele><time>2026-04-11T13:55:10.601Z</time></trkpt><trkpt lat="43.6028559" lon="12.2834846"><ele>708.0</ele><time>2026-04-11T13:55:12.601Z</time></trkpt><trkpt lat="43.6028142" lon="12.2834027"><ele>708.0</ele><time>2026-04-11T13:55:14.601Z</time></trkpt><trkpt lat="43.6027456" lon="12.2833596"><ele>705.8333333333334</ele><time>2026-04-11T13:55:16.6Z</time></trkpt><trkpt lat="43.6026699" lon="12.2833297"><ele>703.6666666666666</ele><time>2026-04-11T13:55:18.601Z</time></trkpt><trkpt lat="43.6025956" lon="12.2832991"><ele>701.5</ele><time>2026-04-11T13:55:20.601Z</time></trkpt><trkpt lat="43.6025294" lon="12.283259"><ele>699.3333333333333</ele><time>2026-04-11T13:55:22.601Z</time></trkpt><trkpt lat="43.6024524" lon="12.283229"><ele>697.1666666666666</ele><time>2026-04-11T13:55:24.601Z</time></trkpt><trkpt lat="43.6023725" lon="12.2832118"><ele>695.0</ele><time>2026-04-11T13:55:26.6Z</time></trkpt><trkpt lat="43.6022985" lon="12.2832047"><ele>695.0</ele><time>2026-04-11T13:55:29.601Z</time></trkpt><trkpt lat="43.6022349" lon="12.2832169"><ele>695.0</ele><time>2026-04-11T13:55:33.6Z</time></trkpt><trkpt lat="43.602136" lon="12.2832626"><ele>695.0</ele><time>2026-04-11T13:55:55.6Z</time></trkpt><trkpt lat="43.6020329" lon="12.2832999"><ele>695.0</ele><time>2026-04-11T13:55:57.601Z</time></trkpt><trkpt lat="43.6019699" lon="12.283321"><ele>695.0</ele><time>2026-04-11T13:55:58.601Z</time></trkpt><trkpt lat="43.6019085" lon="12.2833412"><ele>695.0</ele><time>2026-04-11T13:55:59.601Z</time></trkpt><trkpt lat="43.6018449" lon="12.2833548"><ele>692.6</ele><time>2026-04-11T13:56:00.601Z</time></trkpt><trkpt lat="43.6017373" lon="12.283319"><ele>690.2</ele><time>2026-04-11T13:56:02.601Z</time></trkpt><trkpt lat="43.6016446" lon="12.2832147"><ele>687.8</ele><time>2026-04-11T13:56:04.599Z</time></trkpt><trkpt lat="43.6015447" lon="12.2831748"><ele>685.4</ele><time>2026-04-11T13:56:06.601Z</time></trkpt><trkpt lat="43.6014706" lon="12.2831687"><ele>683.0</ele><time>2026-04-11T13:56:08.6Z</time></trkpt><trkpt lat="43.6013804" lon="12.2831598"><ele>683.0</ele><time>2026-04-11T13:56:11.601Z</time></trkpt><trkpt lat="43.6012866" lon="12.283146"><ele>683.0</ele><time>2026-04-11T13:56:14.601Z</time></trkpt><trkpt lat="43.6011908" lon="12.2831954"><ele>683.0</ele><time>2026-04-11T13:56:16.601Z</time></trkpt><trkpt lat="43.6011082" lon="12.2832383"><ele>683.0</ele><time>2026-04-11T13:56:18.6Z</time></trkpt><trkpt lat="43.6010264" lon="12.2832743"><ele>683.0</ele><time>2026-04-11T13:56:20.601Z</time></trkpt><trkpt lat="43.6009493" lon="12.283297"><ele>681.0</ele><time>2026-04-11T13:56:22.601Z</time></trkpt><trkpt lat="43.600877" lon="12.2833201"><ele>679.0</ele><time>2026-04-11T13:56:24.601Z</time></trkpt><trkpt lat="43.6007935" lon="12.2833535"><ele>677.0</ele><time>2026-04-11T13:56:27.601Z</time></trkpt><trkpt lat="43.6006996" lon="12.283381"><ele>675.0</ele><time>2026-04-11T13:56:30.601Z</time></trkpt><trkpt lat="43.6006372" lon="12.2834222"><ele>673.0</ele><time>2026-04-11T13:56:32.6Z</time></trkpt><trkpt lat="43.6005897" lon="12.2834849"><ele>671.0</ele><time>2026-04-11T13:56:34.6Z</time></trkpt><trkpt lat="43.600542" lon="12.2835865"><ele>671.0</ele><time>2026-04-11T13:56:37.601Z</time></trkpt><trkpt lat="43.6005028" lon="12.2836758"><ele>671.0</ele><time>2026-04-11T13:56:40.601Z</time></trkpt><trkpt lat="43.60045" lon="12.2837431"><ele>671.0</ele><time>2026-04-11T13:56:46.601Z</time></trkpt><trkpt lat="43.6004158" lon="12.2838279"><ele>671.0</ele><time>2026-04-11T13:56:50.6Z</time></trkpt><trkpt lat="43.6003929" lon="12.2839138"><ele>671.0</ele><time>2026-04-11T13:56:56.6Z</time></trkpt><trkpt lat="43.6003675" lon="12.2840017"><ele>671.0</ele><time>2026-04-11T13:57:00.6Z</time></trkpt><trkpt lat="43.6003602" lon="12.284089"><ele>671.0</ele><time>2026-04-11T13:57:04.601Z</time></trkpt><trkpt lat="43.6003696" lon="12.284211"><ele>669.2857142857142</ele><time>2026-04-11T13:57:10.601Z</time></trkpt><trkpt lat="43.6003981" lon="12.2843079"><ele>667.5714285714287</ele><time>2026-04-11T13:57:15.601Z</time></trkpt><trkpt lat="43.6004482" lon="12.2843709"><ele>665.8571428571429</ele><time>2026-04-11T13:57:18.6Z</time></trkpt><trkpt lat="43.6004982" lon="12.2844279"><ele>664.1428571428571</ele><time>2026-04-11T13:57:22.601Z</time></trkpt><trkpt lat="43.6005538" lon="12.2844915"><ele>662.4285714285713</ele><time>2026-04-11T13:57:25.601Z</time></trkpt><trkpt lat="43.6005995" lon="12.2845691"><ele>660.7142857142858</ele><time>2026-04-11T13:57:27.6Z</time></trkpt><trkpt lat="43.6006306" lon="12.2846449"><ele>659.0</ele><time>2026-04-11T13:57:29.601Z</time></trkpt><trkpt lat="43.6006047" lon="12.2847272"><ele>659.8000000000001</ele><time>2026-04-11T13:57:31.601Z</time></trkpt><trkpt lat="43.600564" lon="12.2848407"><ele>660.6</ele><time>2026-04-11T13:57:33.6Z</time></trkpt><trkpt lat="43.6004778" lon="12.2849535"><ele>661.4</ele><time>2026-04-11T13:57:35.601Z</time></trkpt><trkpt lat="43.6003678" lon="12.2850086"><ele>662.2</ele><time>2026-04-11T13:57:37.601Z</time></trkpt><trkpt lat="43.6002477" lon="12.2850143"><ele>663.0</ele><time>2026-04-11T13:57:39.6Z</time></trkpt><trkpt lat="43.6001606" lon="12.2849884"><ele>663.0</ele><time>2026-04-11T13:57:41.601Z</time></trkpt><trkpt lat="43.6000582" lon="12.2850137"><ele>663.0</ele><time>2026-04-11T13:57:43.601Z</time></trkpt><trkpt lat="43.5999422" lon="12.2850411"><ele>663.0</ele><time>2026-04-11T13:57:45.601Z</time></trkpt><trkpt lat="43.599879" lon="12.2851009"><ele>663.0</ele><time>2026-04-11T13:57:46.601Z</time></trkpt><trkpt lat="43.5998198" lon="12.2851475"><ele>663.0</ele><time>2026-04-11T13:57:47.601Z</time></trkpt><trkpt lat="43.5997653" lon="12.2851999"><ele>663.0</ele><time>2026-04-11T13:57:48.601Z</time></trkpt><trkpt lat="43.5997072" lon="12.2852456"><ele>663.0</ele><time>2026-04-11T13:57:49.6Z</time></trkpt><trkpt lat="43.5996535" lon="12.2852986"><ele>663.0</ele><time>2026-04-11T13:57:50.601Z</time></trkpt><trkpt lat="43.599555" lon="12.285377"><ele>663.0</ele><time>2026-04-11T13:57:52.601Z</time></trkpt><trkpt lat="43.599468" lon="12.2853534"><ele>663.0</ele><time>2026-04-11T13:57:54.601Z</time></trkpt><trkpt lat="43.5993846" lon="12.2852426"><ele>663.0</ele><time>2026-04-11T13:57:56.601Z</time></trkpt><trkpt lat="43.5993407" lon="12.2851703"><ele>667.2</ele><time>2026-04-11T13:57:57.6Z</time></trkpt><trkpt lat="43.5993033" lon="12.2850902"><ele>671.4</ele><time>2026-04-11T13:57:58.6Z</time></trkpt><trkpt lat="43.5992161" lon="12.284967"><ele>675.6</ele><time>2026-04-11T13:58:00.6Z</time></trkpt><trkpt lat="43.5991357" lon="12.2849286"><ele>679.8000000000001</ele><time>2026-04-11T13:58:02.601Z</time></trkpt><trkpt lat="43.5990959" lon="12.2850061"><ele>684.0</ele><time>2026-04-11T13:58:04.601Z</time></trkpt><trkpt lat="43.5990967" lon="12.2851661"><ele>684.0</ele><time>2026-04-11T13:58:06.601Z</time></trkpt><trkpt lat="43.5990786" lon="12.2852524"><ele>684.0</ele><time>2026-04-11T13:58:07.6Z</time></trkpt><trkpt lat="43.5990085" lon="12.2853791"><ele>684.0</ele><time>2026-04-11T13:58:09.601Z</time></trkpt><trkpt lat="43.5988967" lon="12.2854402"><ele>684.0</ele><time>2026-04-11T13:58:11.601Z</time></trkpt><trkpt lat="43.5987835" lon="12.2854447"><ele>684.0</ele><time>2026-04-11T13:58:13.6Z</time></trkpt><trkpt lat="43.5986903" lon="12.2854295"><ele>686.6666666666666</ele><time>2026-04-11T13:58:15.601Z</time></trkpt><trkpt lat="43.5986109" lon="12.2854262"><ele>689.3333333333334</ele><time>2026-04-11T13:58:18.6Z</time></trkpt><trkpt lat="43.5985504" lon="12.2853825"><ele>692.0</ele><time>2026-04-11T13:58:31.601Z</time></trkpt><trkpt lat="43.5984504" lon="12.285348"><ele>694.6666666666667</ele><time>2026-04-11T13:58:33.6Z</time></trkpt><trkpt lat="43.5983842" lon="12.285322"><ele>697.3333333333334</ele><time>2026-04-11T13:58:34.601Z</time></trkpt><trkpt lat="43.598319" lon="12.2852872"><ele>700.0</ele><time>2026-04-11T13:58:35.6Z</time></trkpt><trkpt lat="43.5982554" lon="12.2852439"><ele>700.0</ele><time>2026-04-11T13:58:36.601Z</time></trkpt><trkpt lat="43.5981509" lon="12.2851946"><ele>700.0</ele><time>2026-04-11T13:58:38.601Z</time></trkpt><trkpt lat="43.5980633" lon="12.2851857"><ele>700.0</ele><time>2026-04-11T13:58:40.601Z</time></trkpt><trkpt lat="43.5979978" lon="12.2852132"><ele>700.0</ele><time>2026-04-11T13:59:21.6Z</time></trkpt><trkpt lat="43.5979221" lon="12.2852987"><ele>700.0</ele><time>2026-04-11T13:59:24.601Z</time></trkpt><trkpt lat="43.5978707" lon="12.2853745"><ele>700.0</ele><time>2026-04-11T13:59:26.6Z</time></trkpt><trkpt lat="43.5978141" lon="12.2854551"><ele>699.5</ele><time>2026-04-11T13:59:28.599Z</time></trkpt><trkpt lat="43.5977338" lon="12.2855207"><ele>699.0</ele><time>2026-04-11T13:59:30.601Z</time></trkpt><trkpt lat="43.5976634" lon="12.2855866"><ele>698.5</ele><time>2026-04-11T13:59:32.601Z</time></trkpt><trkpt lat="43.5975882" lon="12.2856641"><ele>698.0</ele><time>2026-04-11T13:59:34.6Z</time></trkpt><trkpt lat="43.5975164" lon="12.2856997"><ele>697.5</ele><time>2026-04-11T13:59:36.6Z</time></trkpt><trkpt lat="43.597439" lon="12.2857427"><ele>697.0</ele><time>2026-04-11T13:59:55.601Z</time></trkpt><trkpt lat="43.5973487" lon="12.2858037"><ele>698.7142857142858</ele><time>2026-04-11T13:59:58.601Z</time></trkpt><trkpt lat="43.5972627" lon="12.2858341"><ele>700.4285714285714</ele><time>2026-04-11T14:00:00.601Z</time></trkpt><trkpt lat="43.5972056" lon="12.2857815"><ele>702.1428571428571</ele><time>2026-04-11T14:00:03.601Z</time></trkpt><trkpt lat="43.5971806" lon="12.2856966"><ele>703.8571428571429</ele><time>2026-04-11T14:00:06.6Z</time></trkpt><trkpt lat="43.5971243" lon="12.2857442"><ele>705.5714285714286</ele><time>2026-04-11T14:00:09.601Z</time></trkpt><trkpt lat="43.5970891" lon="12.28582"><ele>707.2857142857143</ele><time>2026-04-11T14:00:41.599Z</time></trkpt><trkpt lat="43.5970652" lon="12.2859349"><ele>709.0</ele><time>2026-04-11T14:00:43.6Z</time></trkpt><trkpt lat="43.5970658" lon="12.2860997"><ele>709.0</ele><time>2026-04-11T14:00:45.6Z</time></trkpt><trkpt lat="43.5970492" lon="12.2862382"><ele>709.0</ele><time>2026-04-11T14:00:47.601Z</time></trkpt><trkpt lat="43.5970058" lon="12.2863054"><ele>709.0</ele><time>2026-04-11T14:00:49.6Z</time></trkpt><trkpt lat="43.5969394" lon="12.2863302"><ele>709.0</ele><time>2026-04-11T14:00:52.6Z</time></trkpt><trkpt lat="43.5968494" lon="12.2863058"><ele>709.0</ele><time>2026-04-11T14:00:55.601Z</time></trkpt><trkpt lat="43.5967651" lon="12.2863517"><ele>709.0</ele><time>2026-04-11T14:00:58.6Z</time></trkpt><trkpt lat="43.5966977" lon="12.2864266"><ele>709.8333333333334</ele><time>2026-04-11T14:01:01.6Z</time></trkpt><trkpt lat="43.5966295" lon="12.2864712"><ele>710.6666666666667</ele><time>2026-04-11T14:01:03.601Z</time></trkpt><trkpt lat="43.5965566" lon="12.2864986"><ele>711.5</ele><time>2026-04-11T14:01:05.601Z</time></trkpt><trkpt lat="43.5966269" lon="12.2864302"><ele>712.3333333333334</ele><time>2026-04-11T14:01:40.601Z</time></trkpt><trkpt lat="43.5966934" lon="12.2863707"><ele>713.1666666666666</ele><time>2026-04-11T14:01:42.601Z</time></trkpt><trkpt lat="43.5967608" lon="12.2863122"><ele>714.0</ele><time>2026-04-11T14:01:44.601Z</time></trkpt><trkpt lat="43.596822" lon="12.2862814"><ele>714.0</ele><time>2026-04-11T14:01:46.601Z</time></trkpt><trkpt lat="43.5968841" lon="12.2862629"><ele>714.0</ele><time>2026-04-11T14:01:48.601Z</time></trkpt><trkpt lat="43.5969579" lon="12.2862685"><ele>714.0</ele><time>2026-04-11T14:01:51.601Z</time></trkpt><trkpt lat="43.5970138" lon="12.2863383"><ele>714.0</ele><time>2026-04-11T14:02:05.601Z</time></trkpt><trkpt lat="43.597064" lon="12.2864371"><ele>714.0</ele><time>2026-04-11T14:02:08.601Z</time></trkpt><trkpt lat="43.5971067" lon="12.2865428"><ele>714.0</ele><time>2026-04-11T14:02:11.601Z</time></trkpt><trkpt lat="43.5971425" lon="12.286624"><ele>717.2</ele><time>2026-04-11T14:02:13.6Z</time></trkpt><trkpt lat="43.5971697" lon="12.2867394"><ele>720.4000000000001</ele><time>2026-04-11T14:02:15.601Z</time></trkpt><trkpt lat="43.5971811" lon="12.2868711"><ele>723.6</ele><time>2026-04-11T14:02:17.599Z</time></trkpt><trkpt lat="43.5971892" lon="12.2870053"><ele>726.8</ele><time>2026-04-11T14:02:19.601Z</time></trkpt><trkpt lat="43.5971755" lon="12.2871328"><ele>730.0</ele><time>2026-04-11T14:02:21.601Z</time></trkpt><trkpt lat="43.5971636" lon="12.2872623"><ele>730.0</ele><time>2026-04-11T14:02:23.601Z</time></trkpt><trkpt lat="43.5971935" lon="12.2873518"><ele>730.0</ele><time>2026-04-11T14:02:29.601Z</time></trkpt><trkpt lat="43.5972585" lon="12.2874286"><ele>730.0</ele><time>2026-04-11T14:02:33.601Z</time></trkpt><trkpt lat="43.597378" lon="12.2873619"><ele>730.0</ele><time>2026-04-11T14:02:35.601Z</time></trkpt><trkpt lat="43.5974622" lon="12.2872967"><ele>730.0</ele><time>2026-04-11T14:02:37.601Z</time></trkpt><trkpt lat="43.5975414" lon="12.2872199"><ele>730.0000000000001</ele><time>2026-04-11T14:02:39.601Z</time></trkpt><trkpt lat="43.5976034" lon="12.2871476"><ele>730.0</ele><time>2026-04-11T14:02:41.6Z</time></trkpt><trkpt lat="43.597664" lon="12.2870976"><ele>730.0</ele><time>2026-04-11T14:02:44.601Z</time></trkpt><trkpt lat="43.5977116" lon="12.2871803"><ele>730.0</ele><time>2026-04-11T14:02:48.601Z</time></trkpt><trkpt lat="43.5977442" lon="12.2872628"><ele>730.0</ele><time>2026-04-11T14:02:54.601Z</time></trkpt><trkpt lat="43.5978082" lon="12.2872889"><ele>730.0000000000001</ele><time>2026-04-11T14:02:56.601Z</time></trkpt><trkpt lat="43.5978893" lon="12.2873111"><ele>730.0</ele><time>2026-04-11T14:02:59.6Z</time></trkpt><trkpt lat="43.5979743" lon="12.2873757"><ele>734.3333333333334</ele><time>2026-04-11T14:03:02.6Z</time></trkpt><trkpt lat="43.5980182" lon="12.2874678"><ele>738.6666666666667</ele><time>2026-04-11T14:03:05.6Z</time></trkpt><trkpt lat="43.5980091" lon="12.2875847"><ele>743.0</ele><time>2026-04-11T14:03:08.601Z</time></trkpt><trkpt lat="43.5980225" lon="12.287692"><ele>747.3333333333334</ele><time>2026-04-11T14:03:12.601Z</time></trkpt><trkpt lat="43.5979742" lon="12.2877817"><ele>751.6666666666666</ele><time>2026-04-11T14:03:15.6Z</time></trkpt><trkpt lat="43.5979434" lon="12.2879057"><ele>756.0</ele><time>2026-04-11T14:03:18.601Z</time></trkpt><trkpt lat="43.5979291" lon="12.2880014"><ele>761.0</ele><time>2026-04-11T14:03:20.601Z</time></trkpt><trkpt lat="43.5979336" lon="12.2881137"><ele>766.0</ele><time>2026-04-11T14:03:23.6Z</time></trkpt><trkpt lat="43.5979767" lon="12.2882154"><ele>771.0</ele><time>2026-04-11T14:03:49.601Z</time></trkpt><trkpt lat="43.5980196" lon="12.2883276"><ele>776.0</ele><time>2026-04-11T14:03:52.601Z</time></trkpt><trkpt lat="43.598049" lon="12.2884103"><ele>781.0</ele><time>2026-04-11T14:03:54.601Z</time></trkpt><trkpt lat="43.5979865" lon="12.2883226"><ele>786.0</ele><time>2026-04-11T14:04:16.6Z</time></trkpt><trkpt lat="43.5979729" lon="12.288223"><ele>786.0</ele><time>2026-04-11T14:04:19.601Z</time></trkpt><trkpt lat="43.5978801" lon="12.2882039"><ele>786.0</ele><time>2026-04-11T14:04:46.601Z</time></trkpt><trkpt lat="43.5978021" lon="12.2882547"><ele>786.0</ele><time>2026-04-11T14:04:48.601Z</time></trkpt><trkpt lat="43.5977482" lon="12.2883067"><ele>786.0</ele><time>2026-04-11T14:04:49.601Z</time></trkpt><trkpt lat="43.5976618" lon="12.2883528"><ele>786.0</ele><time>2026-04-11T14:04:51.601Z</time></trkpt><trkpt lat="43.5975935" lon="12.2884021"><ele>786.0</ele><time>2026-04-11T14:04:53.601Z</time></trkpt><trkpt lat="43.5975215" lon="12.2884515"><ele>785.3333333333334</ele><time>2026-04-11T14:04:55.601Z</time></trkpt><trkpt lat="43.5974302" lon="12.2884776"><ele>784.6666666666667</ele><time>2026-04-11T14:04:58.601Z</time></trkpt><trkpt lat="43.5973576" lon="12.2885129"><ele>784.0</ele><time>2026-04-11T14:05:11.601Z</time></trkpt><trkpt lat="43.5972782" lon="12.2885561"><ele>783.3333333333334</ele><time>2026-04-11T14:05:15.601Z</time></trkpt><trkpt lat="43.5972287" lon="12.2884927"><ele>782.6666666666667</ele><time>2026-04-11T14:05:18.601Z</time></trkpt><trkpt lat="43.5971649" lon="12.2884943"><ele>782.0</ele><time>2026-04-11T14:05:22.601Z</time></trkpt><trkpt lat="43.5970876" lon="12.288558"><ele>781.9999999999999</ele><time>2026-04-11T14:05:25.601Z</time></trkpt><trkpt lat="43.5970242" lon="12.2885334"><ele>782.0</ele><time>2026-04-11T14:05:27.601Z</time></trkpt><trkpt lat="43.5969682" lon="12.2884838"><ele>782.0</ele><time>2026-04-11T14:05:30.601Z</time></trkpt><trkpt lat="43.5969075" lon="12.2885183"><ele>782.0</ele><time>2026-04-11T14:05:36.6Z</time></trkpt><trkpt lat="43.5968266" lon="12.2885282"><ele>782.0</ele><time>2026-04-11T14:05:39.601Z</time></trkpt><trkpt lat="43.5967597" lon="12.2886058"><ele>781.9999999999999</ele><time>2026-04-11T14:05:42.6Z</time></trkpt><trkpt lat="43.5967012" lon="12.2886512"><ele>782.0</ele><time>2026-04-11T14:05:44.601Z</time></trkpt><trkpt lat="43.5966345" lon="12.2886828"><ele>782.7142857142857</ele><time>2026-04-11T14:05:46.601Z</time></trkpt><trkpt lat="43.5965581" lon="12.2887146"><ele>783.4285714285714</ele><time>2026-04-11T14:05:49.601Z</time></trkpt><trkpt lat="43.5964869" lon="12.2887447"><ele>784.1428571428571</ele><time>2026-04-11T14:05:53.601Z</time></trkpt><trkpt lat="43.5964063" lon="12.2886976"><ele>784.8571428571429</ele><time>2026-04-11T14:05:56.601Z</time></trkpt><trkpt lat="43.5963562" lon="12.2886407"><ele>785.5714285714286</ele><time>2026-04-11T14:05:58.6Z</time></trkpt><trkpt lat="43.5963056" lon="12.2885746"><ele>786.2857142857142</ele><time>2026-04-11T14:06:00.6Z</time></trkpt><trkpt lat="43.5962385" lon="12.2885544"><ele>787.0</ele><time>2026-04-11T14:06:02.601Z</time></trkpt><trkpt lat="43.5961653" lon="12.2886129"><ele>788.9999999999999</ele><time>2026-04-11T14:06:05.601Z</time></trkpt><trkpt lat="43.596121" lon="12.2887141"><ele>791.0</ele><time>2026-04-11T14:06:08.6Z</time></trkpt><trkpt lat="43.5960768" lon="12.2888105"><ele>793.0</ele><time>2026-04-11T14:06:11.601Z</time></trkpt><trkpt lat="43.5959945" lon="12.2888602"><ele>795.0</ele><time>2026-04-11T14:06:14.6Z</time></trkpt><trkpt lat="43.5959108" lon="12.2888741"><ele>796.9999999999999</ele><time>2026-04-11T14:06:16.6Z</time></trkpt><trkpt lat="43.5958436" lon="12.288886"><ele>799.0</ele><time>2026-04-11T14:06:18.601Z</time></trkpt><trkpt lat="43.5957442" lon="12.2888862"><ele>798.9999999999999</ele><time>2026-04-11T14:06:21.601Z</time></trkpt><trkpt lat="43.5956582" lon="12.2888981"><ele>799.0</ele><time>2026-04-11T14:06:27.601Z</time></trkpt><trkpt lat="43.5955895" lon="12.2888988"><ele>799.0</ele><time>2026-04-11T14:06:29.599Z</time></trkpt><trkpt lat="43.5954918" lon="12.2888631"><ele>799.0</ele><time>2026-04-11T14:06:31.6Z</time></trkpt><trkpt lat="43.5954051" lon="12.2888353"><ele>798.9999999999999</ele><time>2026-04-11T14:06:33.601Z</time></trkpt><trkpt lat="43.5953296" lon="12.2888165"><ele>799.0</ele><time>2026-04-11T14:06:35.601Z</time></trkpt><trkpt lat="43.5952636" lon="12.2888073"><ele>802.8571428571429</ele><time>2026-04-11T14:06:37.601Z</time></trkpt><trkpt lat="43.5951946" lon="12.2887839"><ele>806.7142857142857</ele><time>2026-04-11T14:06:39.6Z</time></trkpt><trkpt lat="43.595117" lon="12.2887755"><ele>810.5714285714286</ele><time>2026-04-11T14:06:43.601Z</time></trkpt><trkpt lat="43.595062" lon="12.2887178"><ele>814.4285714285714</ele><time>2026-04-11T14:06:46.6Z</time></trkpt><trkpt lat="43.5951342" lon="12.2887528"><ele>818.2857142857142</ele><time>2026-04-11T14:07:17.601Z</time></trkpt><trkpt lat="43.5950735" lon="12.2887115"><ele>822.1428571428571</ele><time>2026-04-11T14:07:34.601Z</time></trkpt><trkpt lat="43.5950119" lon="12.2887299"><ele>826.0</ele><time>2026-04-11T14:08:01.601Z</time></trkpt><trkpt lat="43.5950524" lon="12.288657"><ele>826.0</ele><time>2026-04-11T14:08:16.6Z</time></trkpt><trkpt lat="43.5950404" lon="12.2885601"><ele>826.0</ele><time>2026-04-11T14:08:21.601Z</time></trkpt><trkpt lat="43.5949808" lon="12.2885277"><ele>826.0</ele><time>2026-04-11T14:08:40.598Z</time></trkpt><trkpt lat="43.5949326" lon="12.2884633"><ele>826.0</ele><time>2026-04-11T14:08:43.601Z</time></trkpt><trkpt lat="43.5949887" lon="12.2885369"><ele>826.0</ele><time>2026-04-11T14:10:26.601Z</time></trkpt><trkpt lat="43.595048" lon="12.2885833"><ele>826.0</ele><time>2026-04-11T14:10:34.669Z</time></trkpt><trkpt lat="43.5950668" lon="12.2886779"><ele>826.0</ele><time>2026-04-11T14:10:45.622Z</time></trkpt><trkpt lat="43.5950068" lon="12.2887274"><ele>826.0</ele><time>2026-04-11T14:10:53.601Z</time></trkpt><trkpt lat="43.5950687" lon="12.2887115"><ele>826.0</ele><time>2026-04-11T14:11:08.669Z</time></trkpt><trkpt lat="43.5949782" lon="12.2886533"><ele>826.0</ele><time>2026-04-11T14:16:49.6Z</time></trkpt><trkpt lat="43.5948948" lon="12.2885484"><ele>826.0</ele><time>2026-04-11T14:16:51.6Z</time></trkpt><trkpt lat="43.5948261" lon="12.2884528"><ele>826.0</ele><time>2026-04-11T14:16:53.601Z</time></trkpt><trkpt lat="43.5947494" lon="12.2883865"><ele>826.0</ele><time>2026-04-11T14:16:55.601Z</time></trkpt><trkpt lat="43.594661" lon="12.2883496"><ele>826.0</ele><time>2026-04-11T14:16:57.6Z</time></trkpt><trkpt lat="43.5945446" lon="12.2883704"><ele>826.0</ele><time>2026-04-11T14:16:59.601Z</time></trkpt><trkpt lat="43.5944373" lon="12.2884169"><ele>826.0</ele><time>2026-04-11T14:17:01.601Z</time></trkpt><trkpt lat="43.5943326" lon="12.2884747"><ele>826.0</ele><time>2026-04-11T14:17:03.599Z</time></trkpt><trkpt lat="43.5942455" lon="12.2885092"><ele>825.5999999999999</ele><time>2026-04-11T14:17:05.6Z</time></trkpt><trkpt lat="43.5941401" lon="12.2885072"><ele>825.2</ele><time>2026-04-11T14:17:07.601Z</time></trkpt><trkpt lat="43.5940399" lon="12.2885386"><ele>824.8</ele><time>2026-04-11T14:17:09.6Z</time></trkpt><trkpt lat="43.5939437" lon="12.2885811"><ele>824.4000000000001</ele><time>2026-04-11T14:17:11.601Z</time></trkpt><trkpt lat="43.593857" lon="12.2886195"><ele>824.0</ele><time>2026-04-11T14:17:13.601Z</time></trkpt><trkpt lat="43.5937651" lon="12.2886727"><ele>824.0000000000001</ele><time>2026-04-11T14:17:15.601Z</time></trkpt><trkpt lat="43.5936927" lon="12.2887265"><ele>824.0</ele><time>2026-04-11T14:17:17.6Z</time></trkpt><trkpt lat="43.5936254" lon="12.2888041"><ele>824.0</ele><time>2026-04-11T14:17:19.601Z</time></trkpt><trkpt lat="43.5935728" lon="12.2888781"><ele>824.0</ele><time>2026-04-11T14:17:21.601Z</time></trkpt><trkpt lat="43.5935257" lon="12.2889623"><ele>824.0000000000001</ele><time>2026-04-11T14:17:25.601Z</time></trkpt><trkpt lat="43.5934684" lon="12.2890392"><ele>824.0</ele><time>2026-04-11T14:17:30.6Z</time></trkpt><trkpt lat="43.5934334" lon="12.289125"><ele>823.7142857142857</ele><time>2026-04-11T14:17:34.601Z</time></trkpt><trkpt lat="43.5934112" lon="12.2892195"><ele>823.4285714285714</ele><time>2026-04-11T14:17:37.601Z</time></trkpt><trkpt lat="43.5933969" lon="12.2893162"><ele>823.1428571428571</ele><time>2026-04-11T14:17:47.6Z</time></trkpt><trkpt lat="43.5934035" lon="12.2894165"><ele>822.8571428571429</ele><time>2026-04-11T14:17:50.599Z</time></trkpt><trkpt lat="43.593424" lon="12.2895199"><ele>822.5714285714286</ele><time>2026-04-11T14:17:54.601Z</time></trkpt><trkpt lat="43.5934545" lon="12.2896057"><ele>822.2857142857142</ele><time>2026-04-11T14:17:56.6Z</time></trkpt><trkpt lat="43.5935012" lon="12.2896946"><ele>822.0</ele><time>2026-04-11T14:17:58.601Z</time></trkpt><trkpt lat="43.5935477" lon="12.2897928"><ele>821.0</ele><time>2026-04-11T14:18:00.601Z</time></trkpt><trkpt lat="43.5935818" lon="12.2899027"><ele>820.0</ele><time>2026-04-11T14:18:02.6Z</time></trkpt><trkpt lat="43.5936413" lon="12.2899438"><ele>819.0</ele><time>2026-04-11T14:18:04.601Z</time></trkpt><trkpt lat="43.5936892" lon="12.2900336"><ele>818.0</ele><time>2026-04-11T14:18:06.6Z</time></trkpt><trkpt lat="43.5936922" lon="12.2901431"><ele>817.0</ele><time>2026-04-11T14:18:08.6Z</time></trkpt><trkpt lat="43.5936606" lon="12.2902329"><ele>816.0</ele><time>2026-04-11T14:18:10.601Z</time></trkpt><trkpt lat="43.5935964" lon="12.2903129"><ele>816.0</ele><time>2026-04-11T14:18:12.6Z</time></trkpt><trkpt lat="43.5935219" lon="12.2903864"><ele>816.0</ele><time>2026-04-11T14:18:14.6Z</time></trkpt><trkpt lat="43.5934446" lon="12.2904446"><ele>816.0</ele><time>2026-04-11T14:18:16.6Z</time></trkpt><trkpt lat="43.5933632" lon="12.2904729"><ele>816.0</ele><time>2026-04-11T14:18:18.601Z</time></trkpt><trkpt lat="43.5932786" lon="12.2904696"><ele>816.0</ele><time>2026-04-11T14:18:20.601Z</time></trkpt><trkpt lat="43.5931873" lon="12.2904589"><ele>816.0</ele><time>2026-04-11T14:18:22.601Z</time></trkpt><trkpt lat="43.5930937" lon="12.2904091"><ele>816.0</ele><time>2026-04-11T14:18:24.601Z</time></trkpt><trkpt lat="43.5930306" lon="12.2903518"><ele>816.0</ele><time>2026-04-11T14:18:26.601Z</time></trkpt><trkpt lat="43.5929591" lon="12.2902987"><ele>816.0</ele><time>2026-04-11T14:18:28.6Z</time></trkpt><trkpt lat="43.5928587" lon="12.2903227"><ele>816.0</ele><time>2026-04-11T14:18:30.601Z</time></trkpt><trkpt lat="43.5927849" lon="12.2903646"><ele>816.0</ele><time>2026-04-11T14:18:32.601Z</time></trkpt><trkpt lat="43.592695" lon="12.29046"><ele>813.0</ele><time>2026-04-11T14:18:34.6Z</time></trkpt><trkpt lat="43.5926127" lon="12.2905156"><ele>810.0</ele><time>2026-04-11T14:18:36.601Z</time></trkpt><trkpt lat="43.5925329" lon="12.2905146"><ele>807.0</ele><time>2026-04-11T14:18:38.6Z</time></trkpt><trkpt lat="43.5924571" lon="12.2904565"><ele>804.0</ele><time>2026-04-11T14:18:40.601Z</time></trkpt><trkpt lat="43.5923844" lon="12.2904297"><ele>801.0</ele><time>2026-04-11T14:18:42.601Z</time></trkpt><trkpt lat="43.5923081" lon="12.2904118"><ele>798.0</ele><time>2026-04-11T14:18:44.601Z</time></trkpt><trkpt lat="43.5922566" lon="12.2903446"><ele>798.0</ele><time>2026-04-11T14:18:47.6Z</time></trkpt><trkpt lat="43.5922063" lon="12.290273"><ele>798.0</ele><time>2026-04-11T14:18:50.601Z</time></trkpt><trkpt lat="43.59215" lon="12.2902086"><ele>798.0</ele><time>2026-04-11T14:18:52.601Z</time></trkpt><trkpt lat="43.59209" lon="12.2902457"><ele>798.0</ele><time>2026-04-11T14:18:55.6Z</time></trkpt><trkpt lat="43.5920729" lon="12.2903294"><ele>798.0</ele><time>2026-04-11T14:18:56.601Z</time></trkpt><trkpt lat="43.5920326" lon="12.2904776"><ele>798.0</ele><time>2026-04-11T14:18:58.601Z</time></trkpt><trkpt lat="43.5920043" lon="12.290633"><ele>793.8</ele><time>2026-04-11T14:19:00.6Z</time></trkpt><trkpt lat="43.5919974" lon="12.290785"><ele>789.5999999999999</ele><time>2026-04-11T14:19:02.6Z</time></trkpt><trkpt lat="43.5920476" lon="12.2909067"><ele>785.4000000000001</ele><time>2026-04-11T14:19:04.601Z</time></trkpt><trkpt lat="43.5921172" lon="12.290981"><ele>781.2</ele><time>2026-04-11T14:19:06.601Z</time></trkpt><trkpt lat="43.5922295" lon="12.291002"><ele>777.0</ele><time>2026-04-11T14:19:08.601Z</time></trkpt><trkpt lat="43.5923527" lon="12.2910149"><ele>777.0</ele><time>2026-04-11T14:19:10.601Z</time></trkpt><trkpt lat="43.5924159" lon="12.2910099"><ele>777.0</ele><time>2026-04-11T14:19:11.601Z</time></trkpt><trkpt lat="43.5925411" lon="12.2910094"><ele>777.0</ele><time>2026-04-11T14:19:13.6Z</time></trkpt><trkpt lat="43.5926245" lon="12.2909969"><ele>777.0</ele><time>2026-04-11T14:19:14.6Z</time></trkpt><trkpt lat="43.5927105" lon="12.2910503"><ele>777.0</ele><time>2026-04-11T14:19:15.6Z</time></trkpt><trkpt lat="43.5927559" lon="12.2911879"><ele>777.0</ele><time>2026-04-11T14:19:17.6Z</time></trkpt><trkpt lat="43.5926964" lon="12.2912405"><ele>777.0</ele><time>2026-04-11T14:19:19.601Z</time></trkpt><trkpt lat="43.5925582" lon="12.2912302"><ele>777.0</ele><time>2026-04-11T14:19:21.601Z</time></trkpt><trkpt lat="43.5924434" lon="12.2912393"><ele>777.0</ele><time>2026-04-11T14:19:23.601Z</time></trkpt><trkpt lat="43.592377" lon="12.2912685"><ele>777.0</ele><time>2026-04-11T14:19:24.601Z</time></trkpt><trkpt lat="43.5923153" lon="12.2913013"><ele>777.0</ele><time>2026-04-11T14:19:25.601Z</time></trkpt><trkpt lat="43.5923023" lon="12.2914028"><ele>777.0</ele><time>2026-04-11T14:19:26.601Z</time></trkpt><trkpt lat="43.5922635" lon="12.2915136"><ele>777.0</ele><time>2026-04-11T14:19:27.6Z</time></trkpt><trkpt lat="43.5922114" lon="12.2915989"><ele>777.0</ele><time>2026-04-11T14:19:28.601Z</time></trkpt><trkpt lat="43.592158" lon="12.2916857"><ele>777.0</ele><time>2026-04-11T14:19:29.601Z</time></trkpt><trkpt lat="43.5921" lon="12.2917521"><ele>777.0</ele><time>2026-04-11T14:19:30.601Z</time></trkpt><trkpt lat="43.5920464" lon="12.291811"><ele>771.0</ele><time>2026-04-11T14:19:31.601Z</time></trkpt><trkpt lat="43.5919739" lon="12.2919539"><ele>765.0</ele><time>2026-04-11T14:19:33.601Z</time></trkpt><trkpt lat="43.5919494" lon="12.2920984"><ele>759.0</ele><time>2026-04-11T14:19:35.601Z</time></trkpt><trkpt lat="43.5919556" lon="12.2922348"><ele>753.0</ele><time>2026-04-11T14:19:37.601Z</time></trkpt><trkpt lat="43.5919547" lon="12.2923609"><ele>747.0</ele><time>2026-04-11T14:19:39.6Z</time></trkpt><trkpt lat="43.5919477" lon="12.2924941"><ele>745.2</ele><time>2026-04-11T14:19:41.6Z</time></trkpt><trkpt lat="43.5919029" lon="12.2926005"><ele>743.4000000000001</ele><time>2026-04-11T14:19:43.6Z</time></trkpt><trkpt lat="43.5918238" lon="12.2926755"><ele>741.5999999999999</ele><time>2026-04-11T14:19:45.601Z</time></trkpt><trkpt lat="43.591725" lon="12.2927058"><ele>739.8</ele><time>2026-04-11T14:19:47.601Z</time></trkpt><trkpt lat="43.5916288" lon="12.2926697"><ele>738.0</ele><time>2026-04-11T14:19:49.6Z</time></trkpt><trkpt lat="43.5915577" lon="12.2925772"><ele>738.0</ele><time>2026-04-11T14:19:51.601Z</time></trkpt><trkpt lat="43.5915277" lon="12.2924445"><ele>738.0</ele><time>2026-04-11T14:19:53.6Z</time></trkpt><trkpt lat="43.5915291" lon="12.2923038"><ele>738.0</ele><time>2026-04-11T14:19:55.601Z</time></trkpt><trkpt lat="43.5915254" lon="12.2921498"><ele>738.0</ele><time>2026-04-11T14:19:57.6Z</time></trkpt><trkpt lat="43.5915048" lon="12.2920137"><ele>738.0</ele><time>2026-04-11T14:19:59.601Z</time></trkpt><trkpt lat="43.5914667" lon="12.2918818"><ele>737.5</ele><time>2026-04-11T14:20:01.6Z</time></trkpt><trkpt lat="43.5914127" lon="12.2917388"><ele>737.0</ele><time>2026-04-11T14:20:03.6Z</time></trkpt><trkpt lat="43.5913267" lon="12.2916128"><ele>736.5</ele><time>2026-04-11T14:20:05.601Z</time></trkpt><trkpt lat="43.5912429" lon="12.2914903"><ele>736.0</ele><time>2026-04-11T14:20:07.601Z</time></trkpt><trkpt lat="43.5911665" lon="12.291364"><ele>736.0</ele><time>2026-04-11T14:20:09.601Z</time></trkpt><trkpt lat="43.5910911" lon="12.2912322"><ele>736.0</ele><time>2026-04-11T14:20:11.6Z</time></trkpt><trkpt lat="43.5910067" lon="12.2911384"><ele>736.0</ele><time>2026-04-11T14:20:13.6Z</time></trkpt><trkpt lat="43.5909105" lon="12.2910712"><ele>736.0</ele><time>2026-04-11T14:20:15.601Z</time></trkpt><trkpt lat="43.5908004" lon="12.2910071"><ele>736.0</ele><time>2026-04-11T14:20:17.601Z</time></trkpt><trkpt lat="43.5906764" lon="12.2909852"><ele>736.0</ele><time>2026-04-11T14:20:19.601Z</time></trkpt><trkpt lat="43.5905665" lon="12.2909926"><ele>736.0</ele><time>2026-04-11T14:20:21.6Z</time></trkpt><trkpt lat="43.5905024" lon="12.2910148"><ele>736.0</ele><time>2026-04-11T14:20:22.601Z</time></trkpt><trkpt lat="43.5904061" lon="12.2910275"><ele>736.0</ele><time>2026-04-11T14:20:24.601Z</time></trkpt><trkpt lat="43.5903135" lon="12.29104"><ele>736.8333333333334</ele><time>2026-04-11T14:20:26.6Z</time></trkpt><trkpt lat="43.59023" lon="12.2910863"><ele>737.6666666666667</ele><time>2026-04-11T14:20:28.601Z</time></trkpt><trkpt lat="43.5901652" lon="12.2911337"><ele>738.5</ele><time>2026-04-11T14:20:31.601Z</time></trkpt><trkpt lat="43.5900582" lon="12.2911726"><ele>739.3333333333334</ele><time>2026-04-11T14:20:35.6Z</time></trkpt><trkpt lat="43.5899507" lon="12.2911729"><ele>740.1666666666666</ele><time>2026-04-11T14:20:37.601Z</time></trkpt><trkpt lat="43.5898865" lon="12.2911756"><ele>741.0</ele><time>2026-04-11T14:20:38.601Z</time></trkpt><trkpt lat="43.5898206" lon="12.2911896"><ele>741.0</ele><time>2026-04-11T14:20:39.601Z</time></trkpt><trkpt lat="43.5897489" lon="12.2912236"><ele>741.0</ele><time>2026-04-11T14:20:40.601Z</time></trkpt><trkpt lat="43.5896771" lon="12.2912538"><ele>741.0</ele><time>2026-04-11T14:20:41.601Z</time></trkpt><trkpt lat="43.5896077" lon="12.2912764"><ele>741.0</ele><time>2026-04-11T14:20:42.599Z</time></trkpt><trkpt lat="43.5895384" lon="12.2913188"><ele>741.0</ele><time>2026-04-11T14:20:43.601Z</time></trkpt><trkpt lat="43.5894598" lon="12.2913602"><ele>741.0</ele><time>2026-04-11T14:20:44.6Z</time></trkpt><trkpt lat="43.5893969" lon="12.2913916"><ele>741.0</ele><time>2026-04-11T14:20:45.6Z</time></trkpt><trkpt lat="43.5892647" lon="12.2914735"><ele>738.1666666666666</ele><time>2026-04-11T14:20:47.601Z</time></trkpt><trkpt lat="43.5892034" lon="12.2914955"><ele>735.3333333333334</ele><time>2026-04-11T14:20:48.601Z</time></trkpt><trkpt lat="43.5891437" lon="12.2915309"><ele>732.5</ele><time>2026-04-11T14:20:49.601Z</time></trkpt><trkpt lat="43.5890759" lon="12.2915472"><ele>729.6666666666667</ele><time>2026-04-11T14:20:50.601Z</time></trkpt><trkpt lat="43.5889853" lon="12.2915384"><ele>726.8333333333334</ele><time>2026-04-11T14:20:51.6Z</time></trkpt><trkpt lat="43.5889149" lon="12.2915331"><ele>724.0</ele><time>2026-04-11T14:20:52.601Z</time></trkpt><trkpt lat="43.5888062" lon="12.29155"><ele>724.0</ele><time>2026-04-11T14:20:53.601Z</time></trkpt><trkpt lat="43.5886763" lon="12.2915431"><ele>724.0</ele><time>2026-04-11T14:20:55.6Z</time></trkpt><trkpt lat="43.5886089" lon="12.291514"><ele>724.0</ele><time>2026-04-11T14:20:56.601Z</time></trkpt><trkpt lat="43.5885404" lon="12.2915029"><ele>724.0</ele><time>2026-04-11T14:20:57.601Z</time></trkpt><trkpt lat="43.5884746" lon="12.2914913"><ele>724.0</ele><time>2026-04-11T14:20:58.601Z</time></trkpt><trkpt lat="43.5883489" lon="12.291468"><ele>723.2</ele><time>2026-04-11T14:21:00.6Z</time></trkpt><trkpt lat="43.5882812" lon="12.2914753"><ele>722.4000000000001</ele><time>2026-04-11T14:21:01.6Z</time></trkpt><trkpt lat="43.5881685" lon="12.2914396"><ele>721.6</ele><time>2026-04-11T14:21:03.6Z</time></trkpt><trkpt lat="43.5880958" lon="12.2913358"><ele>720.8</ele><time>2026-04-11T14:21:05.601Z</time></trkpt><trkpt lat="43.58803" lon="12.291199"><ele>720.0</ele><time>2026-04-11T14:21:07.601Z</time></trkpt><trkpt lat="43.5879728" lon="12.291129"><ele>723.1666666666666</ele><time>2026-04-11T14:21:08.6Z</time></trkpt><trkpt lat="43.5879064" lon="12.2911009"><ele>726.3333333333334</ele><time>2026-04-11T14:21:09.599Z</time></trkpt><trkpt lat="43.5878011" lon="12.2910838"><ele>729.5</ele><time>2026-04-11T14:21:11.601Z</time></trkpt><trkpt lat="43.5877053" lon="12.29111"><ele>732.6666666666667</ele><time>2026-04-11T14:21:12.601Z</time></trkpt><trkpt lat="43.5876369" lon="12.2911156"><ele>735.8333333333334</ele><time>2026-04-11T14:21:13.601Z</time></trkpt><trkpt lat="43.5875735" lon="12.2911244"><ele>739.0</ele><time>2026-04-11T14:21:14.601Z</time></trkpt><trkpt lat="43.5875046" lon="12.2911181"><ele>739.4285714285714</ele><time>2026-04-11T14:21:15.601Z</time></trkpt><trkpt lat="43.5874418" lon="12.291106"><ele>739.8571428571429</ele><time>2026-04-11T14:21:16.601Z</time></trkpt><trkpt lat="43.5873773" lon="12.2910897"><ele>740.2857142857142</ele><time>2026-04-11T14:21:17.601Z</time></trkpt><trkpt lat="43.5873099" lon="12.2910665"><ele>740.7142857142858</ele><time>2026-04-11T14:21:18.601Z</time></trkpt><trkpt lat="43.5872146" lon="12.2910797"><ele>741.1428571428571</ele><time>2026-04-11T14:21:20.601Z</time></trkpt><trkpt lat="43.5871516" lon="12.2910995"><ele>741.5714285714286</ele><time>2026-04-11T14:21:21.6Z</time></trkpt><trkpt lat="43.5870853" lon="12.2911111"><ele>742.0</ele><time>2026-04-11T14:21:22.601Z</time></trkpt><trkpt lat="43.5869534" lon="12.2911221"><ele>742.8333333333334</ele><time>2026-04-11T14:21:24.6Z</time></trkpt><trkpt lat="43.5868815" lon="12.2911194"><ele>743.6666666666667</ele><time>2026-04-11T14:21:25.601Z</time></trkpt><trkpt lat="43.586808" lon="12.291102"><ele>744.5</ele><time>2026-04-11T14:21:26.601Z</time></trkpt><trkpt lat="43.5867335" lon="12.2910912"><ele>745.3333333333334</ele><time>2026-04-11T14:21:27.601Z</time></trkpt><trkpt lat="43.5866506" lon="12.2910601"><ele>746.1666666666666</ele><time>2026-04-11T14:21:28.601Z</time></trkpt><trkpt lat="43.5865736" lon="12.2910277"><ele>747.0</ele><time>2026-04-11T14:21:29.6Z</time></trkpt><trkpt lat="43.5865119" lon="12.2909821"><ele>747.0</ele><time>2026-04-11T14:21:30.601Z</time></trkpt><trkpt lat="43.5864736" lon="12.2909012"><ele>747.0</ele><time>2026-04-11T14:21:31.601Z</time></trkpt><trkpt lat="43.5864173" lon="12.2908581"><ele>747.0</ele><time>2026-04-11T14:21:32.601Z</time></trkpt><trkpt lat="43.5863746" lon="12.2907881"><ele>747.0</ele><time>2026-04-11T14:21:33.601Z</time></trkpt><trkpt lat="43.5863318" lon="12.2907216"><ele>747.0</ele><time>2026-04-11T14:21:34.601Z</time></trkpt><trkpt lat="43.5862793" lon="12.2906611"><ele>747.0</ele><time>2026-04-11T14:21:35.601Z</time></trkpt><trkpt lat="43.5861796" lon="12.29057"><ele>746.3333333333334</ele><time>2026-04-11T14:21:36.601Z</time></trkpt><trkpt lat="43.5860865" lon="12.290556"><ele>745.6666666666666</ele><time>2026-04-11T14:21:38.601Z</time></trkpt><trkpt lat="43.5859873" lon="12.2904484"><ele>745.0</ele><time>2026-04-11T14:21:40.6Z</time></trkpt><trkpt lat="43.5859145" lon="12.2904138"><ele>744.3333333333333</ele><time>2026-04-11T14:21:41.601Z</time></trkpt><trkpt lat="43.5858672" lon="12.2903543"><ele>743.6666666666666</ele><time>2026-04-11T14:21:42.601Z</time></trkpt><trkpt lat="43.5858208" lon="12.2902945"><ele>743.0</ele><time>2026-04-11T14:21:43.601Z</time></trkpt><trkpt lat="43.5857688" lon="12.2901661"><ele>743.0</ele><time>2026-04-11T14:21:45.601Z</time></trkpt><trkpt lat="43.5857377" lon="12.2900062"><ele>743.0</ele><time>2026-04-11T14:21:47.599Z</time></trkpt><trkpt lat="43.5856991" lon="12.2898637"><ele>743.0</ele><time>2026-04-11T14:21:49.6Z</time></trkpt><trkpt lat="43.5856544" lon="12.2897548"><ele>743.0</ele><time>2026-04-11T14:21:51.601Z</time></trkpt><trkpt lat="43.5855858" lon="12.2896573"><ele>743.0</ele><time>2026-04-11T14:21:52.601Z</time></trkpt><trkpt lat="43.5855471" lon="12.2895826"><ele>744.3333333333333</ele><time>2026-04-11T14:21:53.6Z</time></trkpt><trkpt lat="43.5854797" lon="12.2895505"><ele>745.6666666666666</ele><time>2026-04-11T14:21:54.601Z</time></trkpt><trkpt lat="43.5853792" lon="12.289558"><ele>747.0</ele><time>2026-04-11T14:21:56.601Z</time></trkpt><trkpt lat="43.585271" lon="12.2895579"><ele>748.3333333333334</ele><time>2026-04-11T14:21:57.601Z</time></trkpt><trkpt lat="43.5852018" lon="12.289532"><ele>749.6666666666667</ele><time>2026-04-11T14:21:58.601Z</time></trkpt><trkpt lat="43.585134" lon="12.2895197"><ele>751.0</ele><time>2026-04-11T14:21:59.601Z</time></trkpt><trkpt lat="43.5850052" lon="12.2894727"><ele>751.0</ele><time>2026-04-11T14:22:01.601Z</time></trkpt><trkpt lat="43.5849492" lon="12.2893812"><ele>751.0</ele><time>2026-04-11T14:22:03.601Z</time></trkpt><trkpt lat="43.5848331" lon="12.2893741"><ele>751.0</ele><time>2026-04-11T14:22:05.601Z</time></trkpt><trkpt lat="43.584753" lon="12.289329"><ele>751.0</ele><time>2026-04-11T14:22:08.601Z</time></trkpt><trkpt lat="43.5846877" lon="12.289301"><ele>751.0</ele><time>2026-04-11T14:22:44.6Z</time></trkpt><trkpt lat="43.5846324" lon="12.2892563"><ele>751.0</ele><time>2026-04-11T14:22:48.601Z</time></trkpt><trkpt lat="43.5845399" lon="12.2892891"><ele>749.4</ele><time>2026-04-11T14:22:52.6Z</time></trkpt><trkpt lat="43.584485" lon="12.2894252"><ele>747.8</ele><time>2026-04-11T14:22:54.601Z</time></trkpt><trkpt lat="43.5844865" lon="12.2895464"><ele>746.1999999999999</ele><time>2026-04-11T14:22:55.601Z</time></trkpt><trkpt lat="43.5845029" lon="12.28967"><ele>744.5999999999999</ele><time>2026-04-11T14:22:56.601Z</time></trkpt><trkpt lat="43.584514" lon="12.2897972"><ele>743.0</ele><time>2026-04-11T14:22:57.6Z</time></trkpt><trkpt lat="43.5845207" lon="12.2899246"><ele>743.0</ele><time>2026-04-11T14:22:58.599Z</time></trkpt><trkpt lat="43.5845435" lon="12.2900329"><ele>743.0</ele><time>2026-04-11T14:22:59.601Z</time></trkpt><trkpt lat="43.5845944" lon="12.2901126"><ele>743.0</ele><time>2026-04-11T14:23:00.601Z</time></trkpt><trkpt lat="43.5846405" lon="12.2902217"><ele>743.0</ele><time>2026-04-11T14:23:01.601Z</time></trkpt><trkpt lat="43.5846573" lon="12.2903295"><ele>743.0</ele><time>2026-04-11T14:23:02.601Z</time></trkpt><trkpt lat="43.5846597" lon="12.2904207"><ele>743.0</ele><time>2026-04-11T14:23:03.601Z</time></trkpt><trkpt lat="43.5846342" lon="12.2905111"><ele>744.5999999999999</ele><time>2026-04-11T14:23:04.6Z</time></trkpt><trkpt lat="43.5845784" lon="12.2905968"><ele>746.1999999999999</ele><time>2026-04-11T14:23:05.601Z</time></trkpt><trkpt lat="43.5845026" lon="12.2906963"><ele>747.8</ele><time>2026-04-11T14:23:06.601Z</time></trkpt><trkpt lat="43.5844456" lon="12.2907737"><ele>749.4</ele><time>2026-04-11T14:23:07.601Z</time></trkpt><trkpt lat="43.584451" lon="12.2909185"><ele>751.0</ele><time>2026-04-11T14:23:10.6Z</time></trkpt><trkpt lat="43.5845605" lon="12.2910379"><ele>751.0</ele><time>2026-04-11T14:23:12.601Z</time></trkpt><trkpt lat="43.5846623" lon="12.2910569"><ele>751.0</ele><time>2026-04-11T14:23:13.6Z</time></trkpt><trkpt lat="43.5847689" lon="12.2910732"><ele>751.0</ele><time>2026-04-11T14:23:14.6Z</time></trkpt><trkpt lat="43.5848273" lon="12.2911057"><ele>751.0</ele><time>2026-04-11T14:23:15.601Z</time></trkpt><trkpt lat="43.5848718" lon="12.2912679"><ele>751.0</ele><time>2026-04-11T14:23:17.6Z</time></trkpt><trkpt lat="43.5848472" lon="12.2913608"><ele>752.8333333333334</ele><time>2026-04-11T14:23:18.6Z</time></trkpt><trkpt lat="43.58481" lon="12.2914741"><ele>754.6666666666667</ele><time>2026-04-11T14:23:19.601Z</time></trkpt><trkpt lat="43.5847904" lon="12.2915857"><ele>756.5</ele><time>2026-04-11T14:23:20.601Z</time></trkpt><trkpt lat="43.5847737" lon="12.2917001"><ele>758.3333333333334</ele><time>2026-04-11T14:23:21.601Z</time></trkpt><trkpt lat="43.5847859" lon="12.2918187"><ele>760.1666666666666</ele><time>2026-04-11T14:23:22.601Z</time></trkpt><trkpt lat="43.5848235" lon="12.2919283"><ele>762.0</ele><time>2026-04-11T14:23:23.601Z</time></trkpt><trkpt lat="43.5848676" lon="12.2920188"><ele>762.0</ele><time>2026-04-11T14:23:24.6Z</time></trkpt><trkpt lat="43.5849215" lon="12.2920933"><ele>762.0</ele><time>2026-04-11T14:23:25.601Z</time></trkpt><trkpt lat="43.5849681" lon="12.2921583"><ele>762.0</ele><time>2026-04-11T14:23:26.601Z</time></trkpt><trkpt lat="43.5849738" lon="12.2922994"><ele>762.0</ele><time>2026-04-11T14:23:28.601Z</time></trkpt><trkpt lat="43.5849436" lon="12.2924043"><ele>762.0</ele><time>2026-04-11T14:23:29.601Z</time></trkpt><trkpt lat="43.5849153" lon="12.292511"><ele>762.0</ele><time>2026-04-11T14:23:30.601Z</time></trkpt><trkpt lat="43.5848969" lon="12.2926076"><ele>762.6666666666666</ele><time>2026-04-11T14:23:31.601Z</time></trkpt><trkpt lat="43.5848773" lon="12.2926991"><ele>763.3333333333334</ele><time>2026-04-11T14:23:32.601Z</time></trkpt><trkpt lat="43.584848" lon="12.2927779"><ele>764.0</ele><time>2026-04-11T14:23:33.601Z</time></trkpt><trkpt lat="43.584801" lon="12.2928498"><ele>764.6666666666667</ele><time>2026-04-11T14:23:34.601Z</time></trkpt><trkpt lat="43.5847518" lon="12.2929044"><ele>765.3333333333334</ele><time>2026-04-11T14:23:35.6Z</time></trkpt><trkpt lat="43.5846737" lon="12.293026"><ele>766.0</ele><time>2026-04-11T14:23:37.601Z</time></trkpt><trkpt lat="43.5845819" lon="12.2931357"><ele>769.3333333333334</ele><time>2026-04-11T14:23:39.601Z</time></trkpt><trkpt lat="43.5844859" lon="12.2932282"><ele>772.6666666666667</ele><time>2026-04-11T14:23:41.601Z</time></trkpt><trkpt lat="43.5843831" lon="12.2932449"><ele>776.0</ele><time>2026-04-11T14:23:43.601Z</time></trkpt><trkpt lat="43.5843063" lon="12.2932963"><ele>779.3333333333334</ele><time>2026-04-11T14:23:45.601Z</time></trkpt><trkpt lat="43.5842596" lon="12.2933602"><ele>782.6666666666666</ele><time>2026-04-11T14:23:47.6Z</time></trkpt><trkpt lat="43.5842374" lon="12.2934614"><ele>786.0</ele><time>2026-04-11T14:23:49.601Z</time></trkpt><trkpt lat="43.5842572" lon="12.293602"><ele>786.0</ele><time>2026-04-11T14:23:51.601Z</time></trkpt><trkpt lat="43.5842575" lon="12.2937587"><ele>786.0</ele><time>2026-04-11T14:23:53.601Z</time></trkpt><trkpt lat="43.5843143" lon="12.2938894"><ele>786.0</ele><time>2026-04-11T14:23:55.601Z</time></trkpt><trkpt lat="43.5843536" lon="12.2939586"><ele>786.0</ele><time>2026-04-11T14:23:56.601Z</time></trkpt><trkpt lat="43.5843998" lon="12.2940311"><ele>786.0</ele><time>2026-04-11T14:23:57.601Z</time></trkpt><trkpt lat="43.5844528" lon="12.2940924"><ele>786.0</ele><time>2026-04-11T14:23:58.6Z</time></trkpt><trkpt lat="43.5845188" lon="12.294147"><ele>786.0</ele><time>2026-04-11T14:23:59.601Z</time></trkpt><trkpt lat="43.5845859" lon="12.2941942"><ele>786.0</ele><time>2026-04-11T14:24:00.601Z</time></trkpt><trkpt lat="43.5846479" lon="12.2942996"><ele>786.0</ele><time>2026-04-11T14:24:02.6Z</time></trkpt><trkpt lat="43.5845827" lon="12.2944088"><ele>786.0</ele><time>2026-04-11T14:24:04.601Z</time></trkpt><trkpt lat="43.5845137" lon="12.2944584"><ele>786.0</ele><time>2026-04-11T14:24:05.601Z</time></trkpt><trkpt lat="43.584435" lon="12.2945179"><ele>786.0</ele><time>2026-04-11T14:24:06.601Z</time></trkpt><trkpt lat="43.5843671" lon="12.2945764"><ele>786.0000000000001</ele><time>2026-04-11T14:24:07.601Z</time></trkpt><trkpt lat="43.5843085" lon="12.2946384"><ele>786.0</ele><time>2026-04-11T14:24:08.601Z</time></trkpt><trkpt lat="43.5842563" lon="12.2947031"><ele>786.0</ele><time>2026-04-11T14:24:09.601Z</time></trkpt><trkpt lat="43.5842166" lon="12.2947706"><ele>786.0</ele><time>2026-04-11T14:24:10.601Z</time></trkpt><trkpt lat="43.5841495" lon="12.2948639"><ele>786.0</ele><time>2026-04-11T14:24:12.601Z</time></trkpt><trkpt lat="43.584094" lon="12.2949084"><ele>786.0000000000001</ele><time>2026-04-11T14:24:15.601Z</time></trkpt><trkpt lat="43.5840368" lon="12.2949811"><ele>786.0</ele><time>2026-04-11T14:24:28.601Z</time></trkpt><trkpt lat="43.5839729" lon="12.295011"><ele>785.0</ele><time>2026-04-11T14:24:40.6Z</time></trkpt><trkpt lat="43.5839254" lon="12.2949539"><ele>784.0</ele><time>2026-04-11T14:24:46.599Z</time></trkpt><trkpt lat="43.5838524" lon="12.2948795"><ele>783.0</ele><time>2026-04-11T14:24:49.6Z</time></trkpt><trkpt lat="43.5837795" lon="12.294943"><ele>782.0</ele><time>2026-04-11T14:24:52.6Z</time></trkpt><trkpt lat="43.5837528" lon="12.2950416"><ele>781.0</ele><time>2026-04-11T14:24:54.6Z</time></trkpt><trkpt lat="43.5837711" lon="12.2951566"><ele>780.0</ele><time>2026-04-11T14:24:57.599Z</time></trkpt><trkpt lat="43.5838126" lon="12.2952271"><ele>780.0</ele><time>2026-04-11T14:24:59.6Z</time></trkpt><trkpt lat="43.5838558" lon="12.2952924"><ele>780.0</ele><time>2026-04-11T14:25:01.6Z</time></trkpt><trkpt lat="43.5838777" lon="12.2953853"><ele>780.0</ele><time>2026-04-11T14:25:04.6Z</time></trkpt><trkpt lat="43.5839153" lon="12.2955103"><ele>780.0</ele><time>2026-04-11T14:27:26.6Z</time></trkpt><trkpt lat="43.583938" lon="12.2956031"><ele>780.0</ele><time>2026-04-11T14:27:27.6Z</time></trkpt><trkpt lat="43.5839645" lon="12.2957155"><ele>780.0</ele><time>2026-04-11T14:27:28.6Z</time></trkpt><trkpt lat="43.5840075" lon="12.2958259"><ele>780.8</ele><time>2026-04-11T14:27:29.6Z</time></trkpt><trkpt lat="43.5840572" lon="12.2959457"><ele>781.6</ele><time>2026-04-11T14:27:30.599Z</time></trkpt><trkpt lat="43.5841106" lon="12.2960555"><ele>782.4000000000001</ele><time>2026-04-11T14:27:31.599Z</time></trkpt><trkpt lat="43.5841765" lon="12.2961558"><ele>783.2</ele><time>2026-04-11T14:27:32.6Z</time></trkpt><trkpt lat="43.5842452" lon="12.2962311"><ele>784.0</ele><time>2026-04-11T14:27:33.599Z</time></trkpt><trkpt lat="43.5843101" lon="12.2963079"><ele>783.9999999999999</ele><time>2026-04-11T14:27:34.6Z</time></trkpt><trkpt lat="43.5843725" lon="12.296383"><ele>784.0</ele><time>2026-04-11T14:27:35.598Z</time></trkpt><trkpt lat="43.5844053" lon="12.2964663"><ele>784.0</ele><time>2026-04-11T14:27:36.599Z</time></trkpt><trkpt lat="43.5844312" lon="12.2965522"><ele>784.0</ele><time>2026-04-11T14:27:37.6Z</time></trkpt><trkpt lat="43.5844481" lon="12.2966617"><ele>783.9999999999999</ele><time>2026-04-11T14:27:38.599Z</time></trkpt><trkpt lat="43.584484" lon="12.2967515"><ele>784.0</ele><time>2026-04-11T14:27:39.6Z</time></trkpt><trkpt lat="43.5845944" lon="12.2968968"><ele>782.6</ele><time>2026-04-11T14:27:41.6Z</time></trkpt><trkpt lat="43.5846479" lon="12.296986"><ele>781.2</ele><time>2026-04-11T14:27:42.6Z</time></trkpt><trkpt lat="43.5846744" lon="12.2970697"><ele>779.8000000000001</ele><time>2026-04-11T14:27:43.6Z</time></trkpt><trkpt lat="43.5847018" lon="12.2972472"><ele>778.4000000000001</ele><time>2026-04-11T14:27:45.6Z</time></trkpt><trkpt lat="43.584718" lon="12.2974057"><ele>777.0</ele><time>2026-04-11T14:27:46.599Z</time></trkpt><trkpt lat="43.5847277" lon="12.2974952"><ele>776.5</ele><time>2026-04-11T14:27:47.598Z</time></trkpt><trkpt lat="43.584688" lon="12.297667"><ele>776.0</ele><time>2026-04-11T14:27:49.599Z</time></trkpt><trkpt lat="43.5846451" lon="12.2977639"><ele>775.5</ele><time>2026-04-11T14:27:50.6Z</time></trkpt><trkpt lat="43.5846156" lon="12.2978559"><ele>775.0</ele><time>2026-04-11T14:27:51.6Z</time></trkpt><trkpt lat="43.5845933" lon="12.2979411"><ele>774.5</ele><time>2026-04-11T14:27:52.6Z</time></trkpt><trkpt lat="43.5845826" lon="12.2980269"><ele>774.0</ele><time>2026-04-11T14:27:53.6Z</time></trkpt><trkpt lat="43.5845605" lon="12.2981499"><ele>777.3333333333334</ele><time>2026-04-11T14:27:55.599Z</time></trkpt><trkpt lat="43.5844695" lon="12.298212"><ele>780.6666666666667</ele><time>2026-04-11T14:27:57.599Z</time></trkpt><trkpt lat="43.584402" lon="12.298236"><ele>784.0</ele><time>2026-04-11T14:27:58.599Z</time></trkpt><trkpt lat="43.5843288" lon="12.2982534"><ele>787.3333333333334</ele><time>2026-04-11T14:27:59.6Z</time></trkpt><trkpt lat="43.5842111" lon="12.2983033"><ele>790.6666666666667</ele><time>2026-04-11T14:28:01.6Z</time></trkpt><trkpt lat="43.5841526" lon="12.2983388"><ele>794.0</ele><time>2026-04-11T14:28:02.6Z</time></trkpt><trkpt lat="43.5840339" lon="12.2983994"><ele>794.0000000000001</ele><time>2026-04-11T14:28:04.599Z</time></trkpt><trkpt lat="43.5839672" lon="12.2984082"><ele>794.0</ele><time>2026-04-11T14:28:05.599Z</time></trkpt><trkpt lat="43.5839003" lon="12.2983968"><ele>794.0</ele><time>2026-04-11T14:28:06.6Z</time></trkpt><trkpt lat="43.5838001" lon="12.2983361"><ele>794.0</ele><time>2026-04-11T14:28:08.6Z</time></trkpt><trkpt lat="43.5837045" lon="12.298223"><ele>794.0000000000001</ele><time>2026-04-11T14:28:10.599Z</time></trkpt><trkpt lat="43.5836593" lon="12.2981541"><ele>794.0</ele><time>2026-04-11T14:28:11.6Z</time></trkpt><trkpt lat="43.583582" lon="12.2980392"><ele>796.3333333333334</ele><time>2026-04-11T14:28:13.598Z</time></trkpt><trkpt lat="43.5835034" lon="12.2979949"><ele>798.6666666666667</ele><time>2026-04-11T14:28:15.6Z</time></trkpt><trkpt lat="43.5834173" lon="12.2979968"><ele>801.0</ele><time>2026-04-11T14:28:17.6Z</time></trkpt><trkpt lat="43.5833459" lon="12.2980305"><ele>803.3333333333333</ele><time>2026-04-11T14:28:18.599Z</time></trkpt><trkpt lat="43.5832795" lon="12.2980402"><ele>805.6666666666666</ele><time>2026-04-11T14:28:19.6Z</time></trkpt><trkpt lat="43.5831469" lon="12.2980149"><ele>808.0</ele><time>2026-04-11T14:28:21.6Z</time></trkpt><trkpt lat="43.5830737" lon="12.2979951"><ele>807.9999999999999</ele><time>2026-04-11T14:28:22.6Z</time></trkpt><trkpt lat="43.582995" lon="12.2979839"><ele>808.0</ele><time>2026-04-11T14:28:23.6Z</time></trkpt><trkpt lat="43.5829047" lon="12.2979864"><ele>808.0</ele><time>2026-04-11T14:28:24.6Z</time></trkpt><trkpt lat="43.5828323" lon="12.2979693"><ele>808.0</ele><time>2026-04-11T14:28:25.6Z</time></trkpt><trkpt lat="43.582769" lon="12.2979419"><ele>807.9999999999999</ele><time>2026-04-11T14:28:26.6Z</time></trkpt><trkpt lat="43.5827061" lon="12.2979036"><ele>808.0</ele><time>2026-04-11T14:28:27.6Z</time></trkpt><trkpt lat="43.5826105" lon="12.2978036"><ele>807.1666666666666</ele><time>2026-04-11T14:28:29.6Z</time></trkpt><trkpt lat="43.5825641" lon="12.2977272"><ele>806.3333333333333</ele><time>2026-04-11T14:28:30.6Z</time></trkpt><trkpt lat="43.582511" lon="12.2976352"><ele>805.5</ele><time>2026-04-11T14:28:31.6Z</time></trkpt><trkpt lat="43.5824703" lon="12.2975433"><ele>804.6666666666667</ele><time>2026-04-11T14:28:32.6Z</time></trkpt><trkpt lat="43.5823997" lon="12.297465"><ele>803.8333333333334</ele><time>2026-04-11T14:28:34.6Z</time></trkpt><trkpt lat="43.5823255" lon="12.2974957"><ele>803.0</ele><time>2026-04-11T14:28:36.6Z</time></trkpt><trkpt lat="43.5822665" lon="12.2975842"><ele>803.0</ele><time>2026-04-11T14:28:39.6Z</time></trkpt><trkpt lat="43.5822686" lon="12.2977125"><ele>803.0</ele><time>2026-04-11T14:28:41.6Z</time></trkpt><trkpt lat="43.5822454" lon="12.2978591"><ele>803.0</ele><time>2026-04-11T14:28:43.599Z</time></trkpt><trkpt lat="43.5821975" lon="12.2980155"><ele>803.0</ele><time>2026-04-11T14:28:45.6Z</time></trkpt><trkpt lat="43.5821655" lon="12.2981004"><ele>803.0</ele><time>2026-04-11T14:28:46.599Z</time></trkpt><trkpt lat="43.5821373" lon="12.2981794"><ele>803.6666666666667</ele><time>2026-04-11T14:28:47.599Z</time></trkpt><trkpt lat="43.5821256" lon="12.2982686"><ele>804.3333333333334</ele><time>2026-04-11T14:28:48.6Z</time></trkpt><trkpt lat="43.5821111" lon="12.2983759"><ele>805.0</ele><time>2026-04-11T14:28:49.6Z</time></trkpt><trkpt lat="43.582094" lon="12.2984917"><ele>805.6666666666667</ele><time>2026-04-11T14:28:50.6Z</time></trkpt><trkpt lat="43.5820698" lon="12.2986138"><ele>806.3333333333334</ele><time>2026-04-11T14:28:51.6Z</time></trkpt><trkpt lat="43.5820621" lon="12.298774"><ele>807.0</ele><time>2026-04-11T14:28:52.6Z</time></trkpt><trkpt lat="43.5820549" lon="12.2989397"><ele>807.0</ele><time>2026-04-11T14:28:53.6Z</time></trkpt><trkpt lat="43.5820482" lon="12.2990953"><ele>807.0</ele><time>2026-04-11T14:28:54.6Z</time></trkpt><trkpt lat="43.5820413" lon="12.2992107"><ele>807.0</ele><time>2026-04-11T14:28:55.599Z</time></trkpt><trkpt lat="43.5820489" lon="12.299311"><ele>807.0</ele><time>2026-04-11T14:28:56.6Z</time></trkpt><trkpt lat="43.5820555" lon="12.2994212"><ele>807.0</ele><time>2026-04-11T14:28:57.6Z</time></trkpt><trkpt lat="43.5820782" lon="12.2995046"><ele>807.0</ele><time>2026-04-11T14:28:58.599Z</time></trkpt><trkpt lat="43.5821362" lon="12.2996284"><ele>807.0</ele><time>2026-04-11T14:29:00.6Z</time></trkpt><trkpt lat="43.5821705" lon="12.2997072"><ele>807.0</ele><time>2026-04-11T14:29:01.599Z</time></trkpt><trkpt lat="43.5822716" lon="12.299766"><ele>807.0</ele><time>2026-04-11T14:29:03.599Z</time></trkpt><trkpt lat="43.5824146" lon="12.2997346"><ele>807.0</ele><time>2026-04-11T14:29:05.598Z</time></trkpt><trkpt lat="43.5825211" lon="12.2996836"><ele>807.0</ele><time>2026-04-11T14:29:06.6Z</time></trkpt><trkpt lat="43.5826026" lon="12.2996228"><ele>807.0</ele><time>2026-04-11T14:29:07.6Z</time></trkpt><trkpt lat="43.5826844" lon="12.2996018"><ele>807.0</ele><time>2026-04-11T14:29:08.6Z</time></trkpt><trkpt lat="43.5827355" lon="12.2996719"><ele>807.0</ele><time>2026-04-11T14:29:10.6Z</time></trkpt><trkpt lat="43.5827205" lon="12.2998073"><ele>807.0</ele><time>2026-04-11T14:29:12.598Z</time></trkpt><trkpt lat="43.5826707" lon="12.2999316"><ele>807.0</ele><time>2026-04-11T14:29:14.599Z</time></trkpt><trkpt lat="43.5826129" lon="12.3000704"><ele>809.5</ele><time>2026-04-11T14:29:16.6Z</time></trkpt><trkpt lat="43.5825437" lon="12.3001863"><ele>812.0</ele><time>2026-04-11T14:29:18.6Z</time></trkpt><trkpt lat="43.5824965" lon="12.3002475"><ele>814.5</ele><time>2026-04-11T14:29:19.599Z</time></trkpt><trkpt lat="43.582431" lon="12.3003171"><ele>817.0</ele><time>2026-04-11T14:29:20.6Z</time></trkpt><trkpt lat="43.5823632" lon="12.3003896"><ele>819.5</ele><time>2026-04-11T14:29:21.6Z</time></trkpt><trkpt lat="43.5823092" lon="12.3004633"><ele>822.0</ele><time>2026-04-11T14:29:22.6Z</time></trkpt><trkpt lat="43.5822528" lon="12.3005319"><ele>823.3333333333334</ele><time>2026-04-11T14:29:23.6Z</time></trkpt><trkpt lat="43.582212" lon="12.3006043"><ele>824.6666666666667</ele><time>2026-04-11T14:29:24.6Z</time></trkpt><trkpt lat="43.5822136" lon="12.3007092"><ele>826.0</ele><time>2026-04-11T14:29:25.599Z</time></trkpt><trkpt lat="43.5821953" lon="12.3008165"><ele>827.3333333333334</ele><time>2026-04-11T14:29:26.6Z</time></trkpt><trkpt lat="43.5821696" lon="12.3008999"><ele>828.6666666666667</ele><time>2026-04-11T14:29:27.599Z</time></trkpt><trkpt lat="43.5821374" lon="12.3009887"><ele>830.0</ele><time>2026-04-11T14:29:28.6Z</time></trkpt><trkpt lat="43.5819885" lon="12.3010472"><ele>831.8333333333334</ele><time>2026-04-11T14:29:30.6Z</time></trkpt><trkpt lat="43.5819046" lon="12.3010684"><ele>833.6666666666667</ele><time>2026-04-11T14:29:31.599Z</time></trkpt><trkpt lat="43.5818237" lon="12.3010948"><ele>835.5</ele><time>2026-04-11T14:29:32.6Z</time></trkpt><trkpt lat="43.5817289" lon="12.3011247"><ele>837.3333333333333</ele><time>2026-04-11T14:29:33.599Z</time></trkpt><trkpt lat="43.5816531" lon="12.3011555"><ele>839.1666666666666</ele><time>2026-04-11T14:29:34.6Z</time></trkpt><trkpt lat="43.5815778" lon="12.301188"><ele>841.0</ele><time>2026-04-11T14:29:35.6Z</time></trkpt><trkpt lat="43.5815073" lon="12.3012013"><ele>841.0</ele><time>2026-04-11T14:29:36.6Z</time></trkpt><trkpt lat="43.5814289" lon="12.3011961"><ele>841.0</ele><time>2026-04-11T14:29:37.6Z</time></trkpt><trkpt lat="43.581356" lon="12.3012003"><ele>841.0</ele><time>2026-04-11T14:29:38.599Z</time></trkpt><trkpt lat="43.581276" lon="12.3012154"><ele>841.0</ele><time>2026-04-11T14:29:39.6Z</time></trkpt><trkpt lat="43.5811776" lon="12.3012904"><ele>841.0</ele><time>2026-04-11T14:29:41.6Z</time></trkpt><trkpt lat="43.5811251" lon="12.3014216"><ele>843.4999999999999</ele><time>2026-04-11T14:29:43.599Z</time></trkpt><trkpt lat="43.5810348" lon="12.3015143"><ele>846.0</ele><time>2026-04-11T14:29:45.6Z</time></trkpt><trkpt lat="43.5809753" lon="12.3015614"><ele>848.5</ele><time>2026-04-11T14:29:46.6Z</time></trkpt><trkpt lat="43.5809058" lon="12.3016066"><ele>851.0</ele><time>2026-04-11T14:29:47.6Z</time></trkpt><trkpt lat="43.5808459" lon="12.3016596"><ele>853.4999999999999</ele><time>2026-04-11T14:29:48.6Z</time></trkpt><trkpt lat="43.580781" lon="12.3017177"><ele>856.0</ele><time>2026-04-11T14:29:49.6Z</time></trkpt><trkpt lat="43.5807174" lon="12.3017621"><ele>855.9999999999999</ele><time>2026-04-11T14:29:50.6Z</time></trkpt><trkpt lat="43.5806641" lon="12.301698"><ele>856.0</ele><time>2026-04-11T14:29:51.6Z</time></trkpt><trkpt lat="43.5806017" lon="12.3016837"><ele>856.0</ele><time>2026-04-11T14:29:52.599Z</time></trkpt><trkpt lat="43.580515" lon="12.3015941"><ele>856.0</ele><time>2026-04-11T14:29:53.6Z</time></trkpt><trkpt lat="43.5804217" lon="12.3015112"><ele>855.9999999999999</ele><time>2026-04-11T14:29:54.599Z</time></trkpt><trkpt lat="43.5803432" lon="12.3014462"><ele>856.0</ele><time>2026-04-11T14:29:55.599Z</time></trkpt><trkpt lat="43.5802523" lon="12.3013838"><ele>858.9999999999999</ele><time>2026-04-11T14:29:56.599Z</time></trkpt><trkpt lat="43.580177" lon="12.3013222"><ele>862.0</ele><time>2026-04-11T14:29:57.6Z</time></trkpt><trkpt lat="43.5800967" lon="12.3012522"><ele>865.0</ele><time>2026-04-11T14:29:58.6Z</time></trkpt><trkpt lat="43.5800114" lon="12.3012893"><ele>868.0</ele><time>2026-04-11T14:30:00.6Z</time></trkpt><trkpt lat="43.5799182" lon="12.3013424"><ele>870.9999999999999</ele><time>2026-04-11T14:30:01.6Z</time></trkpt><trkpt lat="43.5798442" lon="12.3013452"><ele>874.0</ele><time>2026-04-11T14:30:02.598Z</time></trkpt><trkpt lat="43.5797569" lon="12.3013403"><ele>874.0</ele><time>2026-04-11T14:30:03.6Z</time></trkpt><trkpt lat="43.5796817" lon="12.3013067"><ele>874.0</ele><time>2026-04-11T14:30:04.6Z</time></trkpt><trkpt lat="43.5796153" lon="12.3012885"><ele>874.0</ele><time>2026-04-11T14:30:05.6Z</time></trkpt><trkpt lat="43.5795473" lon="12.3012326"><ele>874.0</ele><time>2026-04-11T14:30:06.6Z</time></trkpt><trkpt lat="43.5794802" lon="12.3012086"><ele>874.0</ele><time>2026-04-11T14:30:07.6Z</time></trkpt><trkpt lat="43.5794025" lon="12.3011791"><ele>874.0</ele><time>2026-04-11T14:30:08.6Z</time></trkpt><trkpt lat="43.5793435" lon="12.3011273"><ele>874.0</ele><time>2026-04-11T14:30:09.6Z</time></trkpt><trkpt lat="43.5792821" lon="12.3010616"><ele>875.4999999999999</ele><time>2026-04-11T14:30:10.6Z</time></trkpt><trkpt lat="43.5792405" lon="12.3009918"><ele>877.0</ele><time>2026-04-11T14:30:11.6Z</time></trkpt><trkpt lat="43.5791985" lon="12.300907"><ele>878.5</ele><time>2026-04-11T14:30:12.599Z</time></trkpt><trkpt lat="43.5791499" lon="12.3008364"><ele>880.0</ele><time>2026-04-11T14:30:13.6Z</time></trkpt><trkpt lat="43.5791051" lon="12.3007748"><ele>881.4999999999999</ele><time>2026-04-11T14:30:14.599Z</time></trkpt><trkpt lat="43.5789965" lon="12.3007923"><ele>883.0</ele><time>2026-04-11T14:30:15.599Z</time></trkpt><trkpt lat="43.5789209" lon="12.3007683"><ele>883.0</ele><time>2026-04-11T14:30:16.599Z</time></trkpt><trkpt lat="43.578839" lon="12.3007514"><ele>883.0</ele><time>2026-04-11T14:30:17.599Z</time></trkpt><trkpt lat="43.5786953" lon="12.3006856"><ele>883.0</ele><time>2026-04-11T14:30:19.6Z</time></trkpt><trkpt lat="43.5786168" lon="12.3006079"><ele>883.0</ele><time>2026-04-11T14:30:20.6Z</time></trkpt><trkpt lat="43.578547" lon="12.3005331"><ele>883.0</ele><time>2026-04-11T14:30:21.6Z</time></trkpt><trkpt lat="43.5784265" lon="12.3004777"><ele>882.1666666666666</ele><time>2026-04-11T14:30:23.6Z</time></trkpt><trkpt lat="43.5783538" lon="12.3004356"><ele>881.3333333333333</ele><time>2026-04-11T14:30:25.6Z</time></trkpt><trkpt lat="43.5782917" lon="12.3004103"><ele>880.5</ele><time>2026-04-11T14:30:27.6Z</time></trkpt><trkpt lat="43.5782183" lon="12.3004587"><ele>879.6666666666667</ele><time>2026-04-11T14:30:30.6Z</time></trkpt><trkpt lat="43.5782049" lon="12.3005567"><ele>878.8333333333334</ele><time>2026-04-11T14:30:32.599Z</time></trkpt><trkpt lat="43.5781846" lon="12.3007204"><ele>878.0</ele><time>2026-04-11T14:30:34.6Z</time></trkpt><trkpt lat="43.5781677" lon="12.3008177"><ele>878.0</ele><time>2026-04-11T14:30:35.599Z</time></trkpt><trkpt lat="43.578149" lon="12.3009353"><ele>878.0</ele><time>2026-04-11T14:30:36.599Z</time></trkpt><trkpt lat="43.5781299" lon="12.301059"><ele>878.0</ele><time>2026-04-11T14:30:37.6Z</time></trkpt><trkpt lat="43.578104" lon="12.3011948"><ele>878.0</ele><time>2026-04-11T14:30:38.599Z</time></trkpt><trkpt lat="43.5780784" lon="12.301336"><ele>878.0</ele><time>2026-04-11T14:30:39.599Z</time></trkpt><trkpt lat="43.5780496" lon="12.3015073"><ele>876.5</ele><time>2026-04-11T14:30:40.598Z</time></trkpt><trkpt lat="43.5780113" lon="12.3016862"><ele>875.0</ele><time>2026-04-11T14:30:41.6Z</time></trkpt><trkpt lat="43.5779727" lon="12.301853"><ele>873.5</ele><time>2026-04-11T14:30:42.599Z</time></trkpt><trkpt lat="43.5779271" lon="12.3020034"><ele>872.0</ele><time>2026-04-11T14:30:43.6Z</time></trkpt><trkpt lat="43.5778817" lon="12.3021452"><ele>873.4000000000001</ele><time>2026-04-11T14:30:44.599Z</time></trkpt><trkpt lat="43.5778395" lon="12.3022773"><ele>874.8000000000001</ele><time>2026-04-11T14:30:45.6Z</time></trkpt><trkpt lat="43.5777988" lon="12.3024116"><ele>876.2</ele><time>2026-04-11T14:30:46.6Z</time></trkpt><trkpt lat="43.5777612" lon="12.3025396"><ele>877.6</ele><time>2026-04-11T14:30:47.599Z</time></trkpt><trkpt lat="43.5777236" lon="12.3026567"><ele>879.0</ele><time>2026-04-11T14:30:48.601Z</time></trkpt><trkpt lat="43.5776828" lon="12.3027687"><ele>879.0</ele><time>2026-04-11T14:30:49.599Z</time></trkpt><trkpt lat="43.5776418" lon="12.3028725"><ele>879.0</ele><time>2026-04-11T14:30:50.6Z</time></trkpt><trkpt lat="43.5776024" lon="12.3029706"><ele>879.0</ele><time>2026-04-11T14:30:51.601Z</time></trkpt><trkpt lat="43.5775662" lon="12.3030606"><ele>879.0</ele><time>2026-04-11T14:30:52.599Z</time></trkpt><trkpt lat="43.5775363" lon="12.3031438"><ele>879.0</ele><time>2026-04-11T14:30:53.6Z</time></trkpt><trkpt lat="43.5774887" lon="12.3032752"><ele>879.0</ele><time>2026-04-11T14:30:55.599Z</time></trkpt><trkpt lat="43.577454" lon="12.3033873"><ele>879.7142857142858</ele><time>2026-04-11T14:30:57.6Z</time></trkpt><trkpt lat="43.5774292" lon="12.3034975"><ele>880.4285714285714</ele><time>2026-04-11T14:30:59.6Z</time></trkpt><trkpt lat="43.5774231" lon="12.3035869"><ele>881.1428571428571</ele><time>2026-04-11T14:31:01.6Z</time></trkpt><trkpt lat="43.5773993" lon="12.3036877"><ele>881.8571428571429</ele><time>2026-04-11T14:31:05.6Z</time></trkpt><trkpt lat="43.5773508" lon="12.3037664"><ele>882.5714285714286</ele><time>2026-04-11T14:31:08.6Z</time></trkpt><trkpt lat="43.577305" lon="12.3038413"><ele>883.2857142857143</ele><time>2026-04-11T14:31:10.599Z</time></trkpt><trkpt lat="43.5772475" lon="12.3039134"><ele>884.0</ele><time>2026-04-11T14:31:12.599Z</time></trkpt><trkpt lat="43.5771734" lon="12.3039755"><ele>884.0000000000001</ele><time>2026-04-11T14:31:14.6Z</time></trkpt><trkpt lat="43.5770693" lon="12.3040759"><ele>884.0</ele><time>2026-04-11T14:31:16.599Z</time></trkpt><trkpt lat="43.5770031" lon="12.3041417"><ele>884.0</ele><time>2026-04-11T14:31:17.599Z</time></trkpt><trkpt lat="43.5769571" lon="12.3042227"><ele>884.0</ele><time>2026-04-11T14:31:18.6Z</time></trkpt><trkpt lat="43.5769013" lon="12.3042905"><ele>884.0000000000001</ele><time>2026-04-11T14:31:19.599Z</time></trkpt><trkpt lat="43.5768372" lon="12.3043569"><ele>884.0</ele><time>2026-04-11T14:31:20.6Z</time></trkpt><trkpt lat="43.5767861" lon="12.3044222"><ele>885.0000000000001</ele><time>2026-04-11T14:31:21.6Z</time></trkpt><trkpt lat="43.5767433" lon="12.3044865"><ele>886.0</ele><time>2026-04-11T14:31:22.598Z</time></trkpt><trkpt lat="43.5767212" lon="12.3045946"><ele>887.0</ele><time>2026-04-11T14:31:23.6Z</time></trkpt><trkpt lat="43.5766446" lon="12.3047078"><ele>888.0</ele><time>2026-04-11T14:31:25.6Z</time></trkpt><trkpt lat="43.5765556" lon="12.3047554"><ele>889.0000000000001</ele><time>2026-04-11T14:31:27.601Z</time></trkpt><trkpt lat="43.5764935" lon="12.304801"><ele>890.0</ele><time>2026-04-11T14:31:29.6Z</time></trkpt><trkpt lat="43.5764065" lon="12.3048039"><ele>892.6</ele><time>2026-04-11T14:31:31.599Z</time></trkpt><trkpt lat="43.5763107" lon="12.3047983"><ele>895.2</ele><time>2026-04-11T14:31:33.6Z</time></trkpt><trkpt lat="43.5761876" lon="12.3048252"><ele>897.8</ele><time>2026-04-11T14:31:35.6Z</time></trkpt><trkpt lat="43.5760761" lon="12.3048588"><ele>900.4</ele><time>2026-04-11T14:31:37.6Z</time></trkpt><trkpt lat="43.5760133" lon="12.3049085"><ele>903.0</ele><time>2026-04-11T14:31:38.601Z</time></trkpt><trkpt lat="43.5759396" lon="12.3050218"><ele>903.3333333333334</ele><time>2026-04-11T14:31:40.599Z</time></trkpt><trkpt lat="43.5758826" lon="12.305135"><ele>903.6666666666667</ele><time>2026-04-11T14:31:42.6Z</time></trkpt><trkpt lat="43.5757883" lon="12.3052606"><ele>904.0</ele><time>2026-04-11T14:31:44.599Z</time></trkpt><trkpt lat="43.5757355" lon="12.3053352"><ele>904.3333333333334</ele><time>2026-04-11T14:31:45.6Z</time></trkpt><trkpt lat="43.5756841" lon="12.3054061"><ele>904.6666666666667</ele><time>2026-04-11T14:31:46.6Z</time></trkpt><trkpt lat="43.5756314" lon="12.3054633"><ele>905.0</ele><time>2026-04-11T14:31:47.6Z</time></trkpt><trkpt lat="43.5755435" lon="12.3055658"><ele>908.2</ele><time>2026-04-11T14:31:49.599Z</time></trkpt><trkpt lat="43.575445" lon="12.305662"><ele>911.4</ele><time>2026-04-11T14:31:51.6Z</time></trkpt><trkpt lat="43.5753707" lon="12.305723"><ele>914.5999999999999</ele><time>2026-04-11T14:31:53.599Z</time></trkpt><trkpt lat="43.5752897" lon="12.3057566"><ele>917.8</ele><time>2026-04-11T14:31:55.599Z</time></trkpt><trkpt lat="43.5751926" lon="12.3057458"><ele>921.0</ele><time>2026-04-11T14:31:57.6Z</time></trkpt><trkpt lat="43.5750946" lon="12.3057374"><ele>922.5999999999999</ele><time>2026-04-11T14:31:58.6Z</time></trkpt><trkpt lat="43.5750232" lon="12.3057308"><ele>924.1999999999999</ele><time>2026-04-11T14:31:59.6Z</time></trkpt><trkpt lat="43.5749177" lon="12.3056911"><ele>925.8000000000001</ele><time>2026-04-11T14:32:00.6Z</time></trkpt><trkpt lat="43.5748249" lon="12.3056723"><ele>927.4000000000001</ele><time>2026-04-11T14:32:01.599Z</time></trkpt><trkpt lat="43.5747173" lon="12.3055989"><ele>929.0</ele><time>2026-04-11T14:32:02.6Z</time></trkpt><trkpt lat="43.5746369" lon="12.3055494"><ele>925.5000000000001</ele><time>2026-04-11T14:32:03.599Z</time></trkpt><trkpt lat="43.5745719" lon="12.3054896"><ele>922.0</ele><time>2026-04-11T14:32:04.6Z</time></trkpt><trkpt lat="43.5744894" lon="12.3053957"><ele>918.5</ele><time>2026-04-11T14:32:06.6Z</time></trkpt><trkpt lat="43.5744088" lon="12.3053802"><ele>915.0</ele><time>2026-04-11T14:32:08.6Z</time></trkpt><trkpt lat="43.5743186" lon="12.3054551"><ele>911.5000000000001</ele><time>2026-04-11T14:32:10.599Z</time></trkpt><trkpt lat="43.5742544" lon="12.3054884"><ele>908.0</ele><time>2026-04-11T14:32:12.599Z</time></trkpt><trkpt lat="43.5741907" lon="12.3055492"><ele>911.3333333333334</ele><time>2026-04-11T14:32:15.6Z</time></trkpt><trkpt lat="43.5741332" lon="12.3056251"><ele>914.6666666666667</ele><time>2026-04-11T14:32:18.6Z</time></trkpt><trkpt lat="43.5740954" lon="12.3057442"><ele>918.0</ele><time>2026-04-11T14:32:21.6Z</time></trkpt><trkpt lat="43.5741028" lon="12.3058589"><ele>921.3333333333333</ele><time>2026-04-11T14:32:24.6Z</time></trkpt><trkpt lat="43.5741557" lon="12.3059314"><ele>924.6666666666666</ele><time>2026-04-11T14:32:27.6Z</time></trkpt><trkpt lat="43.5741953" lon="12.3060046"><ele>928.0</ele><time>2026-04-11T14:32:30.6Z</time></trkpt><trkpt lat="43.5742379" lon="12.3060962"><ele>928.0000000000001</ele><time>2026-04-11T14:32:35.6Z</time></trkpt><trkpt lat="43.574234" lon="12.3062182"><ele>928.0</ele><time>2026-04-11T14:32:38.6Z</time></trkpt><trkpt lat="43.5742391" lon="12.3063074"><ele>928.0000000000001</ele><time>2026-04-11T14:32:41.6Z</time></trkpt><trkpt lat="43.5742748" lon="12.3063829"><ele>928.0000000000001</ele><time>2026-04-11T14:32:46.6Z</time></trkpt><trkpt lat="43.5743275" lon="12.3064328"><ele>928.0</ele><time>2026-04-11T14:33:08.6Z</time></trkpt><trkpt lat="43.5743557" lon="12.3065343"><ele>928.0000000000001</ele><time>2026-04-11T14:33:11.6Z</time></trkpt><trkpt lat="43.5743612" lon="12.3066216"><ele>928.0000000000001</ele><time>2026-04-11T14:33:14.6Z</time></trkpt><trkpt lat="43.5743855" lon="12.3067153"><ele>930.1428571428573</ele><time>2026-04-11T14:33:17.6Z</time></trkpt><trkpt lat="43.5744183" lon="12.3068106"><ele>932.2857142857143</ele><time>2026-04-11T14:33:19.599Z</time></trkpt><trkpt lat="43.5744274" lon="12.3069305"><ele>934.4285714285716</ele><time>2026-04-11T14:33:21.6Z</time></trkpt><trkpt lat="43.5743759" lon="12.3070073"><ele>936.5714285714287</ele><time>2026-04-11T14:33:24.6Z</time></trkpt><trkpt lat="43.5743028" lon="12.3070326"><ele>938.7142857142858</ele><time>2026-04-11T14:33:26.6Z</time></trkpt><trkpt lat="43.5742381" lon="12.3070189"><ele>940.8571428571429</ele><time>2026-04-11T14:33:28.598Z</time></trkpt><trkpt lat="43.5741793" lon="12.3070511"><ele>943.0</ele><time>2026-04-11T14:35:27.599Z</time></trkpt><trkpt lat="43.5740992" lon="12.3070149"><ele>943.0</ele><time>2026-04-11T14:35:29.599Z</time></trkpt><trkpt lat="43.5740057" lon="12.3069921"><ele>943.0</ele><time>2026-04-11T14:35:31.6Z</time></trkpt><trkpt lat="43.5739147" lon="12.3070127"><ele>943.0</ele><time>2026-04-11T14:35:33.6Z</time></trkpt><trkpt lat="43.5737967" lon="12.3069926"><ele>943.0</ele><time>2026-04-11T14:35:35.6Z</time></trkpt><trkpt lat="43.5737327" lon="12.3069533"><ele>943.0</ele><time>2026-04-11T14:35:36.599Z</time></trkpt><trkpt lat="43.5736235" lon="12.3069283"><ele>943.75</ele><time>2026-04-11T14:35:38.6Z</time></trkpt><trkpt lat="43.5735086" lon="12.3069364"><ele>944.5</ele><time>2026-04-11T14:35:40.6Z</time></trkpt><trkpt lat="43.5733977" lon="12.3069465"><ele>945.25</ele><time>2026-04-11T14:35:42.599Z</time></trkpt><trkpt lat="43.5732866" lon="12.3069336"><ele>946.0</ele><time>2026-04-11T14:35:44.6Z</time></trkpt><trkpt lat="43.5731785" lon="12.3068851"><ele>946.0</ele><time>2026-04-11T14:35:46.6Z</time></trkpt><trkpt lat="43.5730672" lon="12.3068451"><ele>945.9999999999999</ele><time>2026-04-11T14:35:48.6Z</time></trkpt><trkpt lat="43.5729448" lon="12.3068455"><ele>945.9999999999999</ele><time>2026-04-11T14:35:50.6Z</time></trkpt><trkpt lat="43.572865" lon="12.3068647"><ele>946.0</ele><time>2026-04-11T14:35:51.6Z</time></trkpt><trkpt lat="43.5727988" lon="12.3068564"><ele>946.0</ele><time>2026-04-11T14:35:52.6Z</time></trkpt><trkpt lat="43.5727085" lon="12.3068392"><ele>946.5714285714287</ele><time>2026-04-11T14:35:53.599Z</time></trkpt><trkpt lat="43.5726332" lon="12.3068201"><ele>947.1428571428571</ele><time>2026-04-11T14:35:54.6Z</time></trkpt><trkpt lat="43.5725567" lon="12.3067932"><ele>947.7142857142858</ele><time>2026-04-11T14:35:55.6Z</time></trkpt><trkpt lat="43.5724766" lon="12.3067734"><ele>948.2857142857143</ele><time>2026-04-11T14:35:56.6Z</time></trkpt><trkpt lat="43.5724191" lon="12.3067328"><ele>948.8571428571429</ele><time>2026-04-11T14:35:57.6Z</time></trkpt><trkpt lat="43.5723418" lon="12.306706"><ele>949.4285714285714</ele><time>2026-04-11T14:35:58.6Z</time></trkpt><trkpt lat="43.5722834" lon="12.3066728"><ele>950.0</ele><time>2026-04-11T14:35:59.599Z</time></trkpt><trkpt lat="43.5721985" lon="12.3066246"><ele>950.0000000000001</ele><time>2026-04-11T14:36:01.6Z</time></trkpt><trkpt lat="43.5721191" lon="12.306581"><ele>950.0</ele><time>2026-04-11T14:36:03.6Z</time></trkpt><trkpt lat="43.5720506" lon="12.3066344"><ele>950.0</ele><time>2026-04-11T14:36:04.6Z</time></trkpt><trkpt lat="43.5719588" lon="12.3066454"><ele>950.0</ele><time>2026-04-11T14:36:06.6Z</time></trkpt><trkpt lat="43.5718397" lon="12.3066343"><ele>950.0000000000001</ele><time>2026-04-11T14:36:08.599Z</time></trkpt><trkpt lat="43.5717692" lon="12.3066398"><ele>950.0</ele><time>2026-04-11T14:36:09.599Z</time></trkpt><trkpt lat="43.5716439" lon="12.3066513"><ele>949.6</ele><time>2026-04-11T14:36:11.6Z</time></trkpt><trkpt lat="43.5715214" lon="12.306608"><ele>949.2</ele><time>2026-04-11T14:36:13.6Z</time></trkpt><trkpt lat="43.5714583" lon="12.3065579"><ele>948.8</ele><time>2026-04-11T14:36:14.6Z</time></trkpt><trkpt lat="43.571413" lon="12.3064842"><ele>948.4</ele><time>2026-04-11T14:36:15.6Z</time></trkpt><trkpt lat="43.5712969" lon="12.3064523"><ele>948.0</ele><time>2026-04-11T14:36:17.599Z</time></trkpt><trkpt lat="43.5711917" lon="12.3064776"><ele>946.5</ele><time>2026-04-11T14:36:19.6Z</time></trkpt><trkpt lat="43.5711268" lon="12.3064846"><ele>945.0</ele><time>2026-04-11T14:36:20.6Z</time></trkpt><trkpt lat="43.5710402" lon="12.3065069"><ele>943.5</ele><time>2026-04-11T14:36:21.6Z</time></trkpt><trkpt lat="43.5709681" lon="12.3065246"><ele>942.0</ele><time>2026-04-11T14:36:22.599Z</time></trkpt><trkpt lat="43.5709008" lon="12.3065344"><ele>940.5</ele><time>2026-04-11T14:36:23.6Z</time></trkpt><trkpt lat="43.5708339" lon="12.3065525"><ele>939.0</ele><time>2026-04-11T14:36:24.599Z</time></trkpt><trkpt lat="43.5707384" lon="12.3065463"><ele>939.0</ele><time>2026-04-11T14:36:26.599Z</time></trkpt><trkpt lat="43.5706187" lon="12.3064814"><ele>939.0000000000001</ele><time>2026-04-11T14:36:28.599Z</time></trkpt><trkpt lat="43.5705613" lon="12.3064313"><ele>939.0000000000001</ele><time>2026-04-11T14:36:29.599Z</time></trkpt><trkpt lat="43.5704533" lon="12.3063228"><ele>939.0</ele><time>2026-04-11T14:36:30.6Z</time></trkpt><trkpt lat="43.5703931" lon="12.3062401"><ele>939.0</ele><time>2026-04-11T14:36:32.6Z</time></trkpt><trkpt lat="43.5703088" lon="12.306247"><ele>939.0</ele><time>2026-04-11T14:36:34.599Z</time></trkpt><trkpt lat="43.5702266" lon="12.3062556"><ele>939.0</ele><time>2026-04-11T14:36:36.599Z</time></trkpt><trkpt lat="43.5700717" lon="12.3062962"><ele>939.0</ele><time>2026-04-11T14:36:38.6Z</time></trkpt><trkpt lat="43.5700043" lon="12.3062936"><ele>939.0</ele><time>2026-04-11T14:36:39.6Z</time></trkpt><trkpt lat="43.5699281" lon="12.3063054"><ele>939.0</ele><time>2026-04-11T14:36:40.599Z</time></trkpt><trkpt lat="43.5698687" lon="12.3063346"><ele>939.0</ele><time>2026-04-11T14:36:41.599Z</time></trkpt><trkpt lat="43.5697771" lon="12.306424"><ele>939.0</ele><time>2026-04-11T14:36:43.6Z</time></trkpt><trkpt lat="43.5697307" lon="12.3064918"><ele>939.0</ele><time>2026-04-11T14:36:44.6Z</time></trkpt><trkpt lat="43.5696791" lon="12.3065519"><ele>939.0</ele><time>2026-04-11T14:36:45.6Z</time></trkpt><trkpt lat="43.5696" lon="12.306584"><ele>939.0</ele><time>2026-04-11T14:36:46.599Z</time></trkpt><trkpt lat="43.5694806" lon="12.3066371"><ele>939.0</ele><time>2026-04-11T14:36:48.6Z</time></trkpt><trkpt lat="43.5694103" lon="12.3066668"><ele>939.0</ele><time>2026-04-11T14:36:49.599Z</time></trkpt><trkpt lat="43.5692907" lon="12.306714"><ele>936.1666666666666</ele><time>2026-04-11T14:36:51.599Z</time></trkpt><trkpt lat="43.5691976" lon="12.3067347"><ele>933.3333333333333</ele><time>2026-04-11T14:36:53.6Z</time></trkpt><trkpt lat="43.5691495" lon="12.3067917"><ele>930.5</ele><time>2026-04-11T14:36:55.599Z</time></trkpt><trkpt lat="43.5691585" lon="12.3069239"><ele>927.6666666666666</ele><time>2026-04-11T14:36:57.6Z</time></trkpt><trkpt lat="43.5691998" lon="12.3070209"><ele>924.8333333333333</ele><time>2026-04-11T14:36:58.6Z</time></trkpt><trkpt lat="43.5692301" lon="12.3070994"><ele>922.0</ele><time>2026-04-11T14:36:59.6Z</time></trkpt><trkpt lat="43.5692359" lon="12.307219"><ele>921.6</ele><time>2026-04-11T14:37:01.6Z</time></trkpt><trkpt lat="43.5691139" lon="12.3073194"><ele>921.2</ele><time>2026-04-11T14:37:03.6Z</time></trkpt><trkpt lat="43.5690471" lon="12.307371"><ele>920.8</ele><time>2026-04-11T14:37:04.6Z</time></trkpt><trkpt lat="43.5689781" lon="12.3074499"><ele>920.4</ele><time>2026-04-11T14:37:05.599Z</time></trkpt><trkpt lat="43.568913" lon="12.3075328"><ele>920.0</ele><time>2026-04-11T14:37:06.599Z</time></trkpt><trkpt lat="43.5688656" lon="12.3075972"><ele>920.0</ele><time>2026-04-11T14:37:07.598Z</time></trkpt><trkpt lat="43.568809" lon="12.3076593"><ele>920.0</ele><time>2026-04-11T14:37:08.6Z</time></trkpt><trkpt lat="43.5687034" lon="12.307716"><ele>920.0</ele><time>2026-04-11T14:37:10.6Z</time></trkpt><trkpt lat="43.5685956" lon="12.3077049"><ele>920.0</ele><time>2026-04-11T14:37:12.6Z</time></trkpt><trkpt lat="43.5684928" lon="12.3076659"><ele>920.0</ele><time>2026-04-11T14:37:14.6Z</time></trkpt><trkpt lat="43.5683928" lon="12.3075732"><ele>921.0000000000001</ele><time>2026-04-11T14:37:16.6Z</time></trkpt><trkpt lat="43.5683325" lon="12.3075217"><ele>922.0</ele><time>2026-04-11T14:37:17.599Z</time></trkpt><trkpt lat="43.5682768" lon="12.3074791"><ele>923.0</ele><time>2026-04-11T14:37:18.6Z</time></trkpt><trkpt lat="43.5681836" lon="12.3075017"><ele>924.0</ele><time>2026-04-11T14:37:20.6Z</time></trkpt><trkpt lat="43.5680772" lon="12.3074779"><ele>925.0000000000001</ele><time>2026-04-11T14:37:22.6Z</time></trkpt><trkpt lat="43.5680123" lon="12.3073552"><ele>926.0</ele><time>2026-04-11T14:37:24.599Z</time></trkpt><trkpt lat="43.5679274" lon="12.3072676"><ele>921.75</ele><time>2026-04-11T14:37:26.6Z</time></trkpt><trkpt lat="43.5678141" lon="12.3072334"><ele>917.5</ele><time>2026-04-11T14:37:28.599Z</time></trkpt><trkpt lat="43.5677191" lon="12.3071825"><ele>913.25</ele><time>2026-04-11T14:37:30.6Z</time></trkpt><trkpt lat="43.5676275" lon="12.3070836"><ele>909.0</ele><time>2026-04-11T14:37:32.6Z</time></trkpt><trkpt lat="43.567546" lon="12.3069637"><ele>909.0</ele><time>2026-04-11T14:37:34.599Z</time></trkpt><trkpt lat="43.5675057" lon="12.3068871"><ele>909.0</ele><time>2026-04-11T14:37:35.6Z</time></trkpt><trkpt lat="43.5674732" lon="12.3067948"><ele>909.0</ele><time>2026-04-11T14:37:36.6Z</time></trkpt><trkpt lat="43.5674411" lon="12.306709"><ele>909.0</ele><time>2026-04-11T14:37:37.599Z</time></trkpt><trkpt lat="43.5674119" lon="12.3066237"><ele>909.0</ele><time>2026-04-11T14:37:38.6Z</time></trkpt><trkpt lat="43.5673788" lon="12.3065418"><ele>909.0</ele><time>2026-04-11T14:37:39.599Z</time></trkpt><trkpt lat="43.5673457" lon="12.3064503"><ele>909.0</ele><time>2026-04-11T14:37:40.6Z</time></trkpt><trkpt lat="43.5673085" lon="12.3063576"><ele>908.3333333333334</ele><time>2026-04-11T14:37:41.599Z</time></trkpt><trkpt lat="43.5672676" lon="12.3062834"><ele>907.6666666666667</ele><time>2026-04-11T14:37:42.6Z</time></trkpt><trkpt lat="43.5671941" lon="12.3061615"><ele>907.0</ele><time>2026-04-11T14:37:44.6Z</time></trkpt><trkpt lat="43.5671185" lon="12.3060342"><ele>906.3333333333334</ele><time>2026-04-11T14:37:46.6Z</time></trkpt><trkpt lat="43.5670725" lon="12.3059528"><ele>905.6666666666667</ele><time>2026-04-11T14:37:47.599Z</time></trkpt><trkpt lat="43.5670254" lon="12.3058847"><ele>905.0</ele><time>2026-04-11T14:37:48.6Z</time></trkpt><trkpt lat="43.5669197" lon="12.3058016"><ele>905.0000000000001</ele><time>2026-04-11T14:37:50.6Z</time></trkpt><trkpt lat="43.566901" lon="12.3057012"><ele>905.0</ele><time>2026-04-11T14:37:52.6Z</time></trkpt><trkpt lat="43.5668631" lon="12.3055527"><ele>905.0</ele><time>2026-04-11T14:37:54.6Z</time></trkpt><trkpt lat="43.5668363" lon="12.3054657"><ele>905.0</ele><time>2026-04-11T14:37:55.599Z</time></trkpt><trkpt lat="43.5667896" lon="12.3053627"><ele>905.0000000000001</ele><time>2026-04-11T14:37:56.6Z</time></trkpt><trkpt lat="43.5667243" lon="12.3053125"><ele>905.0</ele><time>2026-04-11T14:37:57.599Z</time></trkpt><trkpt lat="43.5666781" lon="12.3052393"><ele>901.8</ele><time>2026-04-11T14:37:58.599Z</time></trkpt><trkpt lat="43.5665967" lon="12.3051338"><ele>898.6</ele><time>2026-04-11T14:38:00.6Z</time></trkpt><trkpt lat="43.5665676" lon="12.3050474"><ele>895.4000000000001</ele><time>2026-04-11T14:38:01.6Z</time></trkpt><trkpt lat="43.5665056" lon="12.3049139"><ele>892.2</ele><time>2026-04-11T14:38:03.6Z</time></trkpt><trkpt lat="43.5664631" lon="12.3047804"><ele>889.0</ele><time>2026-04-11T14:38:05.599Z</time></trkpt><trkpt lat="43.5664357" lon="12.3047001"><ele>886.8000000000001</ele><time>2026-04-11T14:38:06.6Z</time></trkpt><trkpt lat="43.5663878" lon="12.3045688"><ele>884.6000000000001</ele><time>2026-04-11T14:38:08.599Z</time></trkpt><trkpt lat="43.5663516" lon="12.3044647"><ele>882.4</ele><time>2026-04-11T14:38:09.599Z</time></trkpt><trkpt lat="43.5663648" lon="12.3043344"><ele>880.2</ele><time>2026-04-11T14:38:11.6Z</time></trkpt><trkpt lat="43.566374" lon="12.3042472"><ele>878.0</ele><time>2026-04-11T14:38:12.6Z</time></trkpt><trkpt lat="43.5663512" lon="12.3040978"><ele>878.0</ele><time>2026-04-11T14:38:14.6Z</time></trkpt><trkpt lat="43.5663095" lon="12.3039512"><ele>878.0</ele><time>2026-04-11T14:38:16.6Z</time></trkpt><trkpt lat="43.5662781" lon="12.3038582"><ele>878.0</ele><time>2026-04-11T14:38:17.6Z</time></trkpt><trkpt lat="43.5662361" lon="12.3037804"><ele>878.0</ele><time>2026-04-11T14:38:18.6Z</time></trkpt><trkpt lat="43.5661756" lon="12.3037045"><ele>878.0</ele><time>2026-04-11T14:38:19.6Z</time></trkpt><trkpt lat="43.5660475" lon="12.3036456"><ele>877.0</ele><time>2026-04-11T14:38:21.6Z</time></trkpt><trkpt lat="43.5659653" lon="12.3035968"><ele>876.0</ele><time>2026-04-11T14:38:22.6Z</time></trkpt><trkpt lat="43.565909" lon="12.3035347"><ele>875.0</ele><time>2026-04-11T14:38:23.599Z</time></trkpt><trkpt lat="43.5658612" lon="12.303473"><ele>874.0</ele><time>2026-04-11T14:38:24.599Z</time></trkpt><trkpt lat="43.5657772" lon="12.303393"><ele>873.0</ele><time>2026-04-11T14:38:26.6Z</time></trkpt><trkpt lat="43.5656681" lon="12.3033175"><ele>873.0</ele><time>2026-04-11T14:38:28.6Z</time></trkpt><trkpt lat="43.5655814" lon="12.3032581"><ele>873.0</ele><time>2026-04-11T14:38:30.599Z</time></trkpt><trkpt lat="43.5655455" lon="12.3031315"><ele>873.0</ele><time>2026-04-11T14:38:32.599Z</time></trkpt><trkpt lat="43.565528" lon="12.3029802"><ele>873.0</ele><time>2026-04-11T14:38:34.599Z</time></trkpt><trkpt lat="43.5655487" lon="12.3028255"><ele>873.0</ele><time>2026-04-11T14:38:36.6Z</time></trkpt><trkpt lat="43.5655771" lon="12.3026888"><ele>870.4</ele><time>2026-04-11T14:38:38.6Z</time></trkpt><trkpt lat="43.5655935" lon="12.3026029"><ele>867.8</ele><time>2026-04-11T14:38:39.599Z</time></trkpt><trkpt lat="43.5656692" lon="12.302468"><ele>865.2</ele><time>2026-04-11T14:38:41.599Z</time></trkpt><trkpt lat="43.5657346" lon="12.3023532"><ele>862.6</ele><time>2026-04-11T14:38:43.6Z</time></trkpt><trkpt lat="43.5657949" lon="12.3022358"><ele>860.0</ele><time>2026-04-11T14:38:45.599Z</time></trkpt><trkpt lat="43.5658066" lon="12.3021061"><ele>858.2</ele><time>2026-04-11T14:38:47.6Z</time></trkpt><trkpt lat="43.5657917" lon="12.3019712"><ele>856.4</ele><time>2026-04-11T14:38:49.6Z</time></trkpt><trkpt lat="43.5657726" lon="12.30182"><ele>854.5999999999999</ele><time>2026-04-11T14:38:51.6Z</time></trkpt><trkpt lat="43.5657566" lon="12.3016769"><ele>852.8</ele><time>2026-04-11T14:38:53.6Z</time></trkpt><trkpt lat="43.5657315" lon="12.3015344"><ele>851.0</ele><time>2026-04-11T14:38:55.6Z</time></trkpt><trkpt lat="43.5657361" lon="12.3013662"><ele>849.6666666666667</ele><time>2026-04-11T14:38:57.599Z</time></trkpt><trkpt lat="43.5657412" lon="12.3012351"><ele>848.3333333333334</ele><time>2026-04-11T14:38:59.599Z</time></trkpt><trkpt lat="43.5657363" lon="12.3011056"><ele>847.0</ele><time>2026-04-11T14:39:01.6Z</time></trkpt><trkpt lat="43.5657639" lon="12.3010025"><ele>845.6666666666667</ele><time>2026-04-11T14:39:03.6Z</time></trkpt><trkpt lat="43.5657758" lon="12.3009076"><ele>844.3333333333334</ele><time>2026-04-11T14:39:05.6Z</time></trkpt><trkpt lat="43.5657999" lon="12.3008082"><ele>843.0</ele><time>2026-04-11T14:39:07.6Z</time></trkpt><trkpt lat="43.565797" lon="12.3007082"><ele>841.5</ele><time>2026-04-11T14:39:08.599Z</time></trkpt><trkpt lat="43.5658057" lon="12.3005479"><ele>840.0</ele><time>2026-04-11T14:39:10.599Z</time></trkpt><trkpt lat="43.5658195" lon="12.3004388"><ele>838.5</ele><time>2026-04-11T14:39:11.6Z</time></trkpt><trkpt lat="43.5658125" lon="12.3003399"><ele>837.0</ele><time>2026-04-11T14:39:12.599Z</time></trkpt><trkpt lat="43.5657986" lon="12.3002392"><ele>835.5</ele><time>2026-04-11T14:39:15.598Z</time></trkpt><trkpt lat="43.5658267" lon="12.300148"><ele>834.0</ele><time>2026-04-11T14:39:17.599Z</time></trkpt><trkpt lat="43.5658386" lon="12.3000192"><ele>834.0</ele><time>2026-04-11T14:39:20.6Z</time></trkpt><trkpt lat="43.5658411" lon="12.2999257"><ele>834.0</ele><time>2026-04-11T14:39:22.6Z</time></trkpt><trkpt lat="43.5658585" lon="12.2998283"><ele>834.0</ele><time>2026-04-11T14:39:24.6Z</time></trkpt><trkpt lat="43.5658975" lon="12.2997393"><ele>834.0</ele><time>2026-04-11T14:39:26.6Z</time></trkpt><trkpt lat="43.5659352" lon="12.2996506"><ele>834.0</ele><time>2026-04-11T14:39:28.599Z</time></trkpt><trkpt lat="43.565962" lon="12.2995467"><ele>834.0</ele><time>2026-04-11T14:39:30.6Z</time></trkpt><trkpt lat="43.5659337" lon="12.2994496"><ele>834.0</ele><time>2026-04-11T14:39:32.6Z</time></trkpt><trkpt lat="43.5658915" lon="12.2993243"><ele>833.0</ele><time>2026-04-11T14:39:34.6Z</time></trkpt><trkpt lat="43.5658772" lon="12.2991968"><ele>832.0</ele><time>2026-04-11T14:39:36.6Z</time></trkpt><trkpt lat="43.5659031" lon="12.2990764"><ele>831.0</ele><time>2026-04-11T14:39:38.6Z</time></trkpt><trkpt lat="43.5658743" lon="12.2989843"><ele>830.0</ele><time>2026-04-11T14:39:40.6Z</time></trkpt><trkpt lat="43.5658314" lon="12.2989195"><ele>829.0</ele><time>2026-04-11T14:39:42.6Z</time></trkpt><trkpt lat="43.5657936" lon="12.2988461"><ele>828.0</ele><time>2026-04-11T14:39:44.598Z</time></trkpt><trkpt lat="43.5657963" lon="12.2986487"><ele>825.8</ele><time>2026-04-11T14:39:46.6Z</time></trkpt><trkpt lat="43.5658117" lon="12.2984888"><ele>823.5999999999999</ele><time>2026-04-11T14:39:48.6Z</time></trkpt><trkpt lat="43.5658044" lon="12.2983497"><ele>821.4000000000001</ele><time>2026-04-11T14:39:50.6Z</time></trkpt><trkpt lat="43.565771" lon="12.2982227"><ele>819.2</ele><time>2026-04-11T14:39:52.6Z</time></trkpt><trkpt lat="43.5657328" lon="12.2981127"><ele>817.0</ele><time>2026-04-11T14:39:54.6Z</time></trkpt><trkpt lat="43.5656965" lon="12.2980137"><ele>814.1666666666666</ele><time>2026-04-11T14:39:56.6Z</time></trkpt><trkpt lat="43.5656552" lon="12.2979218"><ele>811.3333333333333</ele><time>2026-04-11T14:39:58.6Z</time></trkpt><trkpt lat="43.5656133" lon="12.2978441"><ele>808.5</ele><time>2026-04-11T14:40:00.6Z</time></trkpt><trkpt lat="43.5655815" lon="12.2977589"><ele>805.6666666666667</ele><time>2026-04-11T14:40:02.6Z</time></trkpt><trkpt lat="43.5655864" lon="12.2976244"><ele>802.8333333333334</ele><time>2026-04-11T14:40:05.598Z</time></trkpt><trkpt lat="43.5655975" lon="12.2975239"><ele>800.0</ele><time>2026-04-11T14:40:07.6Z</time></trkpt><trkpt lat="43.5655995" lon="12.2973933"><ele>800.0000000000001</ele><time>2026-04-11T14:40:10.599Z</time></trkpt><trkpt lat="43.5655811" lon="12.2973059"><ele>800.0</ele><time>2026-04-11T14:40:12.6Z</time></trkpt><trkpt lat="43.5655822" lon="12.2972172"><ele>800.0</ele><time>2026-04-11T14:40:14.6Z</time></trkpt><trkpt lat="43.5656125" lon="12.2971396"><ele>800.0</ele><time>2026-04-11T14:40:16.6Z</time></trkpt><trkpt lat="43.5656489" lon="12.2970584"><ele>800.0</ele><time>2026-04-11T14:40:18.6Z</time></trkpt><trkpt lat="43.5656812" lon="12.2969562"><ele>800.0000000000001</ele><time>2026-04-11T14:40:20.6Z</time></trkpt><trkpt lat="43.5657379" lon="12.2968703"><ele>800.0</ele><time>2026-04-11T14:40:22.6Z</time></trkpt><trkpt lat="43.565774" lon="12.2967863"><ele>797.0000000000001</ele><time>2026-04-11T14:40:24.599Z</time></trkpt><trkpt lat="43.5658302" lon="12.2966888"><ele>794.0</ele><time>2026-04-11T14:40:26.6Z</time></trkpt><trkpt lat="43.565877" lon="12.2965885"><ele>791.0</ele><time>2026-04-11T14:40:28.6Z</time></trkpt><trkpt lat="43.5659123" lon="12.296459"><ele>788.0</ele><time>2026-04-11T14:40:30.6Z</time></trkpt><trkpt lat="43.5659657" lon="12.296363"><ele>785.0000000000001</ele><time>2026-04-11T14:40:32.6Z</time></trkpt><trkpt lat="43.5660048" lon="12.2962866"><ele>782.0</ele><time>2026-04-11T14:40:34.6Z</time></trkpt><trkpt lat="43.5660578" lon="12.2962291"><ele>779.3333333333334</ele><time>2026-04-11T14:40:36.6Z</time></trkpt><trkpt lat="43.5660998" lon="12.2961366"><ele>776.6666666666667</ele><time>2026-04-11T14:40:39.599Z</time></trkpt><trkpt lat="43.5661227" lon="12.2960247"><ele>774.0</ele><time>2026-04-11T14:40:41.6Z</time></trkpt><trkpt lat="43.5661206" lon="12.2959048"><ele>771.3333333333334</ele><time>2026-04-11T14:40:43.6Z</time></trkpt><trkpt lat="43.5660441" lon="12.2958023"><ele>768.6666666666667</ele><time>2026-04-11T14:40:45.6Z</time></trkpt><trkpt lat="43.565986" lon="12.2957381"><ele>766.0</ele><time>2026-04-11T14:40:47.599Z</time></trkpt><trkpt lat="43.5659161" lon="12.2956842"><ele>766.0</ele><time>2026-04-11T14:40:49.6Z</time></trkpt><trkpt lat="43.5658455" lon="12.2956742"><ele>766.0</ele><time>2026-04-11T14:40:51.6Z</time></trkpt><trkpt lat="43.5657678" lon="12.2957082"><ele>766.0</ele><time>2026-04-11T14:40:54.599Z</time></trkpt><trkpt lat="43.5656844" lon="12.295701"><ele>766.0</ele><time>2026-04-11T14:40:57.598Z</time></trkpt><trkpt lat="43.5656216" lon="12.2956481"><ele>766.0</ele><time>2026-04-11T14:40:59.6Z</time></trkpt><trkpt lat="43.5656024" lon="12.2955503"><ele>766.0</ele><time>2026-04-11T14:41:01.6Z</time></trkpt><trkpt lat="43.5656395" lon="12.2954468"><ele>763.3333333333334</ele><time>2026-04-11T14:41:03.6Z</time></trkpt><trkpt lat="43.5656735" lon="12.2953476"><ele>760.6666666666667</ele><time>2026-04-11T14:41:05.6Z</time></trkpt><trkpt lat="43.5657258" lon="12.2952547"><ele>758.0</ele><time>2026-04-11T14:41:08.6Z</time></trkpt><trkpt lat="43.5657693" lon="12.29518"><ele>755.3333333333334</ele><time>2026-04-11T14:41:11.6Z</time></trkpt><trkpt lat="43.5658304" lon="12.295054"><ele>752.6666666666666</ele><time>2026-04-11T14:41:14.599Z</time></trkpt><trkpt lat="43.5658759" lon="12.2949693"><ele>750.0</ele><time>2026-04-11T14:41:16.6Z</time></trkpt><trkpt lat="43.5659353" lon="12.2948621"><ele>750.0</ele><time>2026-04-11T14:41:19.599Z</time></trkpt><trkpt lat="43.5660021" lon="12.2947591"><ele>750.0</ele><time>2026-04-11T14:41:21.599Z</time></trkpt><trkpt lat="43.5660961" lon="12.2946558"><ele>750.0</ele><time>2026-04-11T14:41:23.599Z</time></trkpt><trkpt lat="43.5661533" lon="12.2946047"><ele>750.0</ele><time>2026-04-11T14:41:24.6Z</time></trkpt><trkpt lat="43.5662108" lon="12.2945505"><ele>750.0</ele><time>2026-04-11T14:41:25.599Z</time></trkpt><trkpt lat="43.566274" lon="12.2945027"><ele>750.0</ele><time>2026-04-11T14:41:26.6Z</time></trkpt><trkpt lat="43.566339" lon="12.2944689"><ele>745.3333333333334</ele><time>2026-04-11T14:41:27.599Z</time></trkpt><trkpt lat="43.5664017" lon="12.2944471"><ele>740.6666666666666</ele><time>2026-04-11T14:41:28.6Z</time></trkpt><trkpt lat="43.5664674" lon="12.2944176"><ele>736.0</ele><time>2026-04-11T14:41:29.6Z</time></trkpt><trkpt lat="43.5665533" lon="12.2943466"><ele>731.3333333333333</ele><time>2026-04-11T14:41:31.6Z</time></trkpt><trkpt lat="43.5665707" lon="12.294248"><ele>726.6666666666666</ele><time>2026-04-11T14:41:33.6Z</time></trkpt><trkpt lat="43.5665583" lon="12.294095"><ele>722.0</ele><time>2026-04-11T14:41:35.599Z</time></trkpt><trkpt lat="43.5665514" lon="12.2940041"><ele>721.3333333333333</ele><time>2026-04-11T14:41:36.6Z</time></trkpt><trkpt lat="43.5665279" lon="12.2939206"><ele>720.6666666666666</ele><time>2026-04-11T14:41:37.6Z</time></trkpt><trkpt lat="43.5665166" lon="12.2937803"><ele>720.0</ele><time>2026-04-11T14:41:39.6Z</time></trkpt><trkpt lat="43.5665637" lon="12.2936502"><ele>719.3333333333334</ele><time>2026-04-11T14:41:41.6Z</time></trkpt><trkpt lat="43.5666331" lon="12.2935767"><ele>718.6666666666667</ele><time>2026-04-11T14:41:43.6Z</time></trkpt><trkpt lat="43.5666875" lon="12.2935003"><ele>718.0</ele><time>2026-04-11T14:41:45.6Z</time></trkpt><trkpt lat="43.5667527" lon="12.2934003"><ele>718.0</ele><time>2026-04-11T14:41:47.6Z</time></trkpt><trkpt lat="43.5667768" lon="12.2932795"><ele>718.0</ele><time>2026-04-11T14:41:49.599Z</time></trkpt><trkpt lat="43.5667528" lon="12.2931532"><ele>718.0</ele><time>2026-04-11T14:41:51.6Z</time></trkpt><trkpt lat="43.5666539" lon="12.2930738"><ele>718.0</ele><time>2026-04-11T14:41:53.6Z</time></trkpt><trkpt lat="43.56658" lon="12.2930258"><ele>718.0</ele><time>2026-04-11T14:41:54.599Z</time></trkpt><trkpt lat="43.5665292" lon="12.2929658"><ele>718.0</ele><time>2026-04-11T14:41:55.6Z</time></trkpt><trkpt lat="43.5664637" lon="12.2929225"><ele>715.8333333333334</ele><time>2026-04-11T14:41:56.599Z</time></trkpt><trkpt lat="43.5663987" lon="12.2928715"><ele>713.6666666666667</ele><time>2026-04-11T14:41:57.599Z</time></trkpt><trkpt lat="43.5662999" lon="12.292788"><ele>711.5</ele><time>2026-04-11T14:41:59.6Z</time></trkpt><trkpt lat="43.5662439" lon="12.2927471"><ele>709.3333333333334</ele><time>2026-04-11T14:42:00.599Z</time></trkpt><trkpt lat="43.5661856" lon="12.2927114"><ele>707.1666666666666</ele><time>2026-04-11T14:42:01.6Z</time></trkpt><trkpt lat="43.5661214" lon="12.2926824"><ele>705.0</ele><time>2026-04-11T14:42:02.6Z</time></trkpt><trkpt lat="43.5660584" lon="12.2926612"><ele>705.0</ele><time>2026-04-11T14:42:03.6Z</time></trkpt><trkpt lat="43.5659256" lon="12.2926453"><ele>705.0</ele><time>2026-04-11T14:42:05.6Z</time></trkpt><trkpt lat="43.5658612" lon="12.2926295"><ele>705.0</ele><time>2026-04-11T14:42:06.6Z</time></trkpt><trkpt lat="43.5657966" lon="12.2926027"><ele>705.0</ele><time>2026-04-11T14:42:07.599Z</time></trkpt><trkpt lat="43.5656908" lon="12.2925282"><ele>705.0</ele><time>2026-04-11T14:42:09.599Z</time></trkpt><trkpt lat="43.5656009" lon="12.2924718"><ele>705.0</ele><time>2026-04-11T14:42:11.6Z</time></trkpt><trkpt lat="43.5654974" lon="12.2924648"><ele>705.0</ele><time>2026-04-11T14:42:13.6Z</time></trkpt><trkpt lat="43.5653979" lon="12.2924192"><ele>705.0</ele><time>2026-04-11T14:42:15.599Z</time></trkpt><trkpt lat="43.5653134" lon="12.2923738"><ele>705.0</ele><time>2026-04-11T14:42:17.599Z</time></trkpt><trkpt lat="43.565239" lon="12.2923217"><ele>705.0</ele><time>2026-04-11T14:42:19.6Z</time></trkpt><trkpt lat="43.5651673" lon="12.2922572"><ele>705.0</ele><time>2026-04-11T14:42:21.599Z</time></trkpt><trkpt lat="43.5650976" lon="12.2921814"><ele>705.0</ele><time>2026-04-11T14:42:23.6Z</time></trkpt><trkpt lat="43.5650294" lon="12.2921471"><ele>705.0</ele><time>2026-04-11T14:42:25.6Z</time></trkpt><trkpt lat="43.5649725" lon="12.2922514"><ele>705.0</ele><time>2026-04-11T14:42:28.6Z</time></trkpt><trkpt lat="43.5649361" lon="12.2923784"><ele>705.0</ele><time>2026-04-11T14:42:30.599Z</time></trkpt><trkpt lat="43.5648811" lon="12.2924883"><ele>705.0</ele><time>2026-04-11T14:42:32.6Z</time></trkpt><trkpt lat="43.5648021" lon="12.2925518"><ele>705.0</ele><time>2026-04-11T14:42:34.6Z</time></trkpt><trkpt lat="43.5647116" lon="12.292557"><ele>705.0</ele><time>2026-04-11T14:42:36.599Z</time></trkpt><trkpt lat="43.5646087" lon="12.2925424"><ele>705.0</ele><time>2026-04-11T14:42:38.599Z</time></trkpt><trkpt lat="43.5644953" lon="12.292529"><ele>705.0</ele><time>2026-04-11T14:42:40.599Z</time></trkpt><trkpt lat="43.5643992" lon="12.292585"><ele>702.5</ele><time>2026-04-11T14:42:42.6Z</time></trkpt><trkpt lat="43.5643422" lon="12.2926276"><ele>700.0</ele><time>2026-04-11T14:42:43.6Z</time></trkpt><trkpt lat="43.5642509" lon="12.2927468"><ele>697.5</ele><time>2026-04-11T14:42:45.6Z</time></trkpt><trkpt lat="43.5641983" lon="12.2928244"><ele>695.0</ele><time>2026-04-11T14:42:46.6Z</time></trkpt><trkpt lat="43.5641421" lon="12.2928962"><ele>692.5</ele><time>2026-04-11T14:42:47.6Z</time></trkpt><trkpt lat="43.5640743" lon="12.2929605"><ele>690.0</ele><time>2026-04-11T14:42:48.599Z</time></trkpt><trkpt lat="43.5640031" lon="12.2930156"><ele>690.0</ele><time>2026-04-11T14:42:49.6Z</time></trkpt><trkpt lat="43.5639364" lon="12.2930616"><ele>690.0</ele><time>2026-04-11T14:42:50.598Z</time></trkpt><trkpt lat="43.5638694" lon="12.2930986"><ele>690.0</ele><time>2026-04-11T14:42:51.6Z</time></trkpt><trkpt lat="43.5638068" lon="12.2931357"><ele>690.0</ele><time>2026-04-11T14:42:52.599Z</time></trkpt><trkpt lat="43.5637477" lon="12.2931717"><ele>690.0</ele><time>2026-04-11T14:42:53.6Z</time></trkpt><trkpt lat="43.5636336" lon="12.2932279"><ele>690.0</ele><time>2026-04-11T14:42:55.598Z</time></trkpt><trkpt lat="43.5635656" lon="12.2932493"><ele>690.0</ele><time>2026-04-11T14:42:56.6Z</time></trkpt><trkpt lat="43.5634984" lon="12.2932667"><ele>690.0</ele><time>2026-04-11T14:42:57.6Z</time></trkpt><trkpt lat="43.5634314" lon="12.2932883"><ele>690.0</ele><time>2026-04-11T14:42:58.6Z</time></trkpt><trkpt lat="43.5633608" lon="12.2933016"><ele>690.0</ele><time>2026-04-11T14:42:59.6Z</time></trkpt><trkpt lat="43.5632967" lon="12.2933119"><ele>690.0</ele><time>2026-04-11T14:43:00.599Z</time></trkpt><trkpt lat="43.5632306" lon="12.2933287"><ele>690.0</ele><time>2026-04-11T14:43:01.599Z</time></trkpt><trkpt lat="43.5631657" lon="12.2933602"><ele>690.0</ele><time>2026-04-11T14:43:02.599Z</time></trkpt><trkpt lat="43.5630933" lon="12.293389"><ele>690.0</ele><time>2026-04-11T14:43:03.599Z</time></trkpt><trkpt lat="43.5629771" lon="12.2934487"><ele>690.0</ele><time>2026-04-11T14:43:05.6Z</time></trkpt><trkpt lat="43.5629201" lon="12.2934901"><ele>690.0</ele><time>2026-04-11T14:43:06.6Z</time></trkpt><trkpt lat="43.5628674" lon="12.2935399"><ele>690.0</ele><time>2026-04-11T14:43:07.599Z</time></trkpt><trkpt lat="43.5627638" lon="12.2936321"><ele>690.0</ele><time>2026-04-11T14:43:09.6Z</time></trkpt><trkpt lat="43.5626858" lon="12.2937335"><ele>688.6</ele><time>2026-04-11T14:43:11.599Z</time></trkpt><trkpt lat="43.5626164" lon="12.2938447"><ele>687.2</ele><time>2026-04-11T14:43:13.6Z</time></trkpt><trkpt lat="43.56258" lon="12.2939156"><ele>685.8</ele><time>2026-04-11T14:43:14.599Z</time></trkpt><trkpt lat="43.5625271" lon="12.2940482"><ele>684.4</ele><time>2026-04-11T14:43:16.599Z</time></trkpt><trkpt lat="43.5624826" lon="12.2942176"><ele>683.0</ele><time>2026-04-11T14:43:18.6Z</time></trkpt><trkpt lat="43.5624627" lon="12.2943036"><ele>683.0</ele><time>2026-04-11T14:43:19.599Z</time></trkpt><trkpt lat="43.5624412" lon="12.2943902"><ele>683.0</ele><time>2026-04-11T14:43:20.6Z</time></trkpt><trkpt lat="43.5624127" lon="12.2945207"><ele>683.0</ele><time>2026-04-11T14:43:22.6Z</time></trkpt><trkpt lat="43.5624053" lon="12.294644"><ele>683.0</ele><time>2026-04-11T14:43:24.6Z</time></trkpt><trkpt lat="43.5623919" lon="12.2947819"><ele>683.0</ele><time>2026-04-11T14:43:26.6Z</time></trkpt><trkpt lat="43.562357" lon="12.2949251"><ele>685.0</ele><time>2026-04-11T14:43:28.6Z</time></trkpt><trkpt lat="43.5623406" lon="12.2950276"><ele>687.0</ele><time>2026-04-11T14:43:30.6Z</time></trkpt><trkpt lat="43.5623345" lon="12.2951241"><ele>689.0</ele><time>2026-04-11T14:43:32.6Z</time></trkpt><trkpt lat="43.5622982" lon="12.2952234"><ele>691.0</ele><time>2026-04-11T14:43:35.6Z</time></trkpt><trkpt lat="43.562232" lon="12.2951498"><ele>693.0</ele><time>2026-04-11T14:43:38.6Z</time></trkpt><trkpt lat="43.5621794" lon="12.2949688"><ele>693.0</ele><time>2026-04-11T14:43:40.6Z</time></trkpt><trkpt lat="43.5621514" lon="12.2948796"><ele>693.0</ele><time>2026-04-11T14:43:41.6Z</time></trkpt><trkpt lat="43.5621177" lon="12.2947838"><ele>693.0</ele><time>2026-04-11T14:43:42.599Z</time></trkpt><trkpt lat="43.5620831" lon="12.2946986"><ele>693.0</ele><time>2026-04-11T14:43:43.598Z</time></trkpt><trkpt lat="43.5620452" lon="12.294603"><ele>693.0</ele><time>2026-04-11T14:43:44.6Z</time></trkpt><trkpt lat="43.5619965" lon="12.2945144"><ele>693.0</ele><time>2026-04-11T14:43:45.6Z</time></trkpt><trkpt lat="43.5619503" lon="12.2944333"><ele>692.8333333333334</ele><time>2026-04-11T14:43:46.6Z</time></trkpt><trkpt lat="43.5618867" lon="12.2942846"><ele>692.6666666666666</ele><time>2026-04-11T14:43:48.6Z</time></trkpt><trkpt lat="43.5618467" lon="12.2941796"><ele>692.5</ele><time>2026-04-11T14:43:49.6Z</time></trkpt><trkpt lat="43.5618544" lon="12.2940902"><ele>692.3333333333333</ele><time>2026-04-11T14:43:50.6Z</time></trkpt><trkpt lat="43.5618526" lon="12.2940016"><ele>692.1666666666666</ele><time>2026-04-11T14:43:51.6Z</time></trkpt><trkpt lat="43.5618384" lon="12.293891"><ele>692.0</ele><time>2026-04-11T14:43:52.6Z</time></trkpt><trkpt lat="43.5618093" lon="12.2937957"><ele>692.0</ele><time>2026-04-11T14:43:53.599Z</time></trkpt><trkpt lat="43.5617886" lon="12.2937131"><ele>692.0</ele><time>2026-04-11T14:43:54.6Z</time></trkpt><trkpt lat="43.5617514" lon="12.2936367"><ele>692.0</ele><time>2026-04-11T14:43:55.6Z</time></trkpt><trkpt lat="43.5616955" lon="12.2934996"><ele>692.0</ele><time>2026-04-11T14:43:57.599Z</time></trkpt><trkpt lat="43.5616152" lon="12.2934304"><ele>692.0</ele><time>2026-04-11T14:43:59.599Z</time></trkpt><trkpt lat="43.5616234" lon="12.2933386"><ele>692.0</ele><time>2026-04-11T14:44:01.599Z</time></trkpt><trkpt lat="43.5616426" lon="12.2932274"><ele>690.5</ele><time>2026-04-11T14:44:03.6Z</time></trkpt><trkpt lat="43.5616103" lon="12.2930731"><ele>689.0</ele><time>2026-04-11T14:44:05.6Z</time></trkpt><trkpt lat="43.5615568" lon="12.2929182"><ele>687.5</ele><time>2026-04-11T14:44:07.599Z</time></trkpt><trkpt lat="43.5615238" lon="12.2928255"><ele>686.0</ele><time>2026-04-11T14:44:08.6Z</time></trkpt><trkpt lat="43.561485" lon="12.2927502"><ele>684.5</ele><time>2026-04-11T14:44:09.6Z</time></trkpt><trkpt lat="43.5614522" lon="12.2926705"><ele>683.0</ele><time>2026-04-11T14:44:10.6Z</time></trkpt><trkpt lat="43.5613407" lon="12.2925837"><ele>683.0</ele><time>2026-04-11T14:44:12.599Z</time></trkpt><trkpt lat="43.5612655" lon="12.2925169"><ele>683.0</ele><time>2026-04-11T14:44:14.6Z</time></trkpt><trkpt lat="43.5611844" lon="12.2924585"><ele>683.0</ele><time>2026-04-11T14:44:16.599Z</time></trkpt><trkpt lat="43.5611219" lon="12.2924332"><ele>683.0</ele><time>2026-04-11T14:44:17.6Z</time></trkpt><trkpt lat="43.5610473" lon="12.2924112"><ele>683.0</ele><time>2026-04-11T14:44:18.6Z</time></trkpt><trkpt lat="43.560975" lon="12.2922823"><ele>683.0</ele><time>2026-04-11T14:44:20.6Z</time></trkpt><trkpt lat="43.5609771" lon="12.2921005"><ele>686.0</ele><time>2026-04-11T14:44:22.6Z</time></trkpt><trkpt lat="43.5610025" lon="12.2920043"><ele>689.0</ele><time>2026-04-11T14:44:23.6Z</time></trkpt><trkpt lat="43.5609766" lon="12.2918726"><ele>692.0</ele><time>2026-04-11T14:44:24.6Z</time></trkpt><trkpt lat="43.5609462" lon="12.2917677"><ele>695.0</ele><time>2026-04-11T14:44:25.599Z</time></trkpt><trkpt lat="43.5608939" lon="12.2916837"><ele>698.0</ele><time>2026-04-11T14:44:26.6Z</time></trkpt><trkpt lat="43.5608433" lon="12.2916133"><ele>701.0</ele><time>2026-04-11T14:44:27.6Z</time></trkpt><trkpt lat="43.5607758" lon="12.291455"><ele>698.3333333333333</ele><time>2026-04-11T14:44:29.6Z</time></trkpt><trkpt lat="43.5607655" lon="12.2913584"><ele>695.6666666666666</ele><time>2026-04-11T14:44:30.6Z</time></trkpt><trkpt lat="43.5607583" lon="12.2912517"><ele>693.0</ele><time>2026-04-11T14:44:31.6Z</time></trkpt><trkpt lat="43.5607544" lon="12.2911332"><ele>690.3333333333334</ele><time>2026-04-11T14:44:32.6Z</time></trkpt><trkpt lat="43.5607505" lon="12.2910337"><ele>687.6666666666667</ele><time>2026-04-11T14:44:33.6Z</time></trkpt><trkpt lat="43.5607264" lon="12.2909096"><ele>685.0</ele><time>2026-04-11T14:44:35.6Z</time></trkpt><trkpt lat="43.5606746" lon="12.2908377"><ele>685.0</ele><time>2026-04-11T14:44:37.599Z</time></trkpt><trkpt lat="43.5606103" lon="12.2907893"><ele>685.0</ele><time>2026-04-11T14:44:39.6Z</time></trkpt><trkpt lat="43.5605007" lon="12.2907554"><ele>685.0</ele><time>2026-04-11T14:44:41.599Z</time></trkpt><trkpt lat="43.560425" lon="12.290737"><ele>685.0</ele><time>2026-04-11T14:44:42.598Z</time></trkpt><trkpt lat="43.560352" lon="12.2907229"><ele>685.0</ele><time>2026-04-11T14:44:43.6Z</time></trkpt><trkpt lat="43.5602752" lon="12.2907217"><ele>685.0</ele><time>2026-04-11T14:44:44.6Z</time></trkpt><trkpt lat="43.560199" lon="12.2907136"><ele>688.8333333333334</ele><time>2026-04-11T14:44:45.6Z</time></trkpt><trkpt lat="43.5601287" lon="12.2907349"><ele>692.6666666666667</ele><time>2026-04-11T14:44:46.599Z</time></trkpt><trkpt lat="43.5600445" lon="12.2907531"><ele>696.5</ele><time>2026-04-11T14:44:47.6Z</time></trkpt><trkpt lat="43.5599706" lon="12.2907628"><ele>700.3333333333334</ele><time>2026-04-11T14:44:48.6Z</time></trkpt><trkpt lat="43.5598902" lon="12.2907755"><ele>704.1666666666666</ele><time>2026-04-11T14:44:49.6Z</time></trkpt><trkpt lat="43.5598108" lon="12.2907412"><ele>708.0</ele><time>2026-04-11T14:44:50.599Z</time></trkpt><trkpt lat="43.5597315" lon="12.2907311"><ele>708.0</ele><time>2026-04-11T14:44:51.598Z</time></trkpt><trkpt lat="43.559651" lon="12.290717"><ele>708.0</ele><time>2026-04-11T14:44:52.6Z</time></trkpt><trkpt lat="43.5595319" lon="12.2906844"><ele>708.0</ele><time>2026-04-11T14:44:54.6Z</time></trkpt><trkpt lat="43.5594761" lon="12.2906026"><ele>708.0</ele><time>2026-04-11T14:44:55.6Z</time></trkpt><trkpt lat="43.5594397" lon="12.290512"><ele>708.0</ele><time>2026-04-11T14:44:56.6Z</time></trkpt><trkpt lat="43.5593421" lon="12.2904117"><ele>705.3333333333334</ele><time>2026-04-11T14:44:58.599Z</time></trkpt><trkpt lat="43.5592928" lon="12.2903425"><ele>702.6666666666666</ele><time>2026-04-11T14:44:59.6Z</time></trkpt><trkpt lat="43.5592279" lon="12.2902754"><ele>700.0</ele><time>2026-04-11T14:45:00.599Z</time></trkpt><trkpt lat="43.5591557" lon="12.2902123"><ele>697.3333333333333</ele><time>2026-04-11T14:45:01.6Z</time></trkpt><trkpt lat="43.5590874" lon="12.2901617"><ele>694.6666666666666</ele><time>2026-04-11T14:45:02.599Z</time></trkpt><trkpt lat="43.5590079" lon="12.2901322"><ele>692.0</ele><time>2026-04-11T14:45:03.6Z</time></trkpt><trkpt lat="43.5589193" lon="12.2901028"><ele>692.0</ele><time>2026-04-11T14:45:04.599Z</time></trkpt><trkpt lat="43.5588386" lon="12.2900961"><ele>692.0</ele><time>2026-04-11T14:45:05.6Z</time></trkpt><trkpt lat="43.5587624" lon="12.2900884"><ele>692.0</ele><time>2026-04-11T14:45:06.6Z</time></trkpt><trkpt lat="43.5586965" lon="12.2901124"><ele>692.0</ele><time>2026-04-11T14:45:07.6Z</time></trkpt><trkpt lat="43.5585787" lon="12.2901648"><ele>692.0</ele><time>2026-04-11T14:45:09.599Z</time></trkpt><trkpt lat="43.558519" lon="12.2901939"><ele>692.0</ele><time>2026-04-11T14:45:10.599Z</time></trkpt><trkpt lat="43.5583989" lon="12.2902629"><ele>693.0</ele><time>2026-04-11T14:45:12.6Z</time></trkpt><trkpt lat="43.558315" lon="12.2902859"><ele>694.0</ele><time>2026-04-11T14:45:13.599Z</time></trkpt><trkpt lat="43.558245" lon="12.2903105"><ele>695.0</ele><time>2026-04-11T14:45:14.6Z</time></trkpt><trkpt lat="43.5581689" lon="12.2903302"><ele>696.0</ele><time>2026-04-11T14:45:15.6Z</time></trkpt><trkpt lat="43.5580926" lon="12.2904159"><ele>697.0</ele><time>2026-04-11T14:45:17.6Z</time></trkpt><trkpt lat="43.5580335" lon="12.2904658"><ele>698.0</ele><time>2026-04-11T14:45:18.6Z</time></trkpt><trkpt lat="43.5579482" lon="12.2904823"><ele>698.0</ele><time>2026-04-11T14:45:20.6Z</time></trkpt><trkpt lat="43.5578704" lon="12.2905245"><ele>698.0</ele><time>2026-04-11T14:45:21.599Z</time></trkpt><trkpt lat="43.5577454" lon="12.2905384"><ele>698.0</ele><time>2026-04-11T14:45:23.6Z</time></trkpt><trkpt lat="43.5576452" lon="12.290429"><ele>698.0</ele><time>2026-04-11T14:45:26.6Z</time></trkpt><trkpt lat="43.5575792" lon="12.2903115"><ele>698.0</ele><time>2026-04-11T14:45:28.6Z</time></trkpt><trkpt lat="43.5575029" lon="12.290193"><ele>697.5</ele><time>2026-04-11T14:45:30.599Z</time></trkpt><trkpt lat="43.55747" lon="12.290086"><ele>697.0</ele><time>2026-04-11T14:45:31.599Z</time></trkpt><trkpt lat="43.5574295" lon="12.290007"><ele>696.5</ele><time>2026-04-11T14:45:32.599Z</time></trkpt><trkpt lat="43.557388" lon="12.2899357"><ele>696.0</ele><time>2026-04-11T14:45:33.6Z</time></trkpt><trkpt lat="43.5573267" lon="12.2899127"><ele>695.5</ele><time>2026-04-11T14:45:35.598Z</time></trkpt><trkpt lat="43.5572376" lon="12.2899264"><ele>695.0</ele><time>2026-04-11T14:45:37.599Z</time></trkpt><trkpt lat="43.5571449" lon="12.2899503"><ele>695.0</ele><time>2026-04-11T14:45:38.599Z</time></trkpt><trkpt lat="43.5570827" lon="12.2898992"><ele>695.0</ele><time>2026-04-11T14:45:39.6Z</time></trkpt><trkpt lat="43.5570352" lon="12.2898118"><ele>695.0</ele><time>2026-04-11T14:45:40.599Z</time></trkpt><trkpt lat="43.5569644" lon="12.2897166"><ele>695.0</ele><time>2026-04-11T14:45:42.598Z</time></trkpt><trkpt lat="43.5569144" lon="12.289648"><ele>695.0</ele><time>2026-04-11T14:45:43.6Z</time></trkpt><trkpt lat="43.5568538" lon="12.2895236"><ele>695.0</ele><time>2026-04-11T14:45:45.599Z</time></trkpt><trkpt lat="43.5568261" lon="12.2894245"><ele>696.4</ele><time>2026-04-11T14:45:46.599Z</time></trkpt><trkpt lat="43.5568028" lon="12.2893291"><ele>697.8</ele><time>2026-04-11T14:45:47.599Z</time></trkpt><trkpt lat="43.5567374" lon="12.2892108"><ele>699.2</ele><time>2026-04-11T14:45:49.6Z</time></trkpt><trkpt lat="43.5566305" lon="12.289154"><ele>700.6</ele><time>2026-04-11T14:45:51.6Z</time></trkpt><trkpt lat="43.5565395" lon="12.2890572"><ele>702.0</ele><time>2026-04-11T14:45:53.599Z</time></trkpt><trkpt lat="43.5565798" lon="12.2889661"><ele>699.8</ele><time>2026-04-11T14:45:54.598Z</time></trkpt><trkpt lat="43.5566033" lon="12.2888367"><ele>697.6</ele><time>2026-04-11T14:45:56.599Z</time></trkpt><trkpt lat="43.5566122" lon="12.2887018"><ele>695.4</ele><time>2026-04-11T14:45:58.599Z</time></trkpt><trkpt lat="43.5565711" lon="12.2886107"><ele>693.1999999999999</ele><time>2026-04-11T14:46:00.599Z</time></trkpt><trkpt lat="43.5564209" lon="12.2885463"><ele>691.0</ele><time>2026-04-11T14:46:02.6Z</time></trkpt><trkpt lat="43.5563512" lon="12.288552"><ele>691.0</ele><time>2026-04-11T14:46:03.6Z</time></trkpt><trkpt lat="43.5562661" lon="12.288602"><ele>691.0</ele><time>2026-04-11T14:46:04.599Z</time></trkpt><trkpt lat="43.5561624" lon="12.288629"><ele>691.0</ele><time>2026-04-11T14:46:06.6Z</time></trkpt><trkpt lat="43.556075" lon="12.2886685"><ele>691.0</ele><time>2026-04-11T14:46:08.599Z</time></trkpt><trkpt lat="43.5559926" lon="12.2887246"><ele>691.0</ele><time>2026-04-11T14:46:10.6Z</time></trkpt><trkpt lat="43.555902" lon="12.288746"><ele>692.0</ele><time>2026-04-11T14:46:12.599Z</time></trkpt><trkpt lat="43.5557869" lon="12.2887933"><ele>693.0</ele><time>2026-04-11T14:46:14.599Z</time></trkpt><trkpt lat="43.5556953" lon="12.2888307"><ele>694.0</ele><time>2026-04-11T14:46:16.6Z</time></trkpt><trkpt lat="43.5556254" lon="12.2888593"><ele>695.0</ele><time>2026-04-11T14:46:17.599Z</time></trkpt><trkpt lat="43.5555145" lon="12.2889455"><ele>696.0</ele><time>2026-04-11T14:46:19.6Z</time></trkpt><trkpt lat="43.5554653" lon="12.2890121"><ele>700.0</ele><time>2026-04-11T14:46:20.6Z</time></trkpt><trkpt lat="43.5553871" lon="12.2890515"><ele>704.0</ele><time>2026-04-11T14:46:22.6Z</time></trkpt><trkpt lat="43.5552985" lon="12.2890469"><ele>708.0</ele><time>2026-04-11T14:46:24.6Z</time></trkpt><trkpt lat="43.5552093" lon="12.2890865"><ele>712.0</ele><time>2026-04-11T14:46:26.599Z</time></trkpt><trkpt lat="43.5551504" lon="12.2891494"><ele>716.0</ele><time>2026-04-11T14:46:28.6Z</time></trkpt><trkpt lat="43.5550986" lon="12.2892752"><ele>720.0</ele><time>2026-04-11T14:46:30.6Z</time></trkpt><trkpt lat="43.5550051" lon="12.2893808"><ele>720.0</ele><time>2026-04-11T14:46:32.599Z</time></trkpt><trkpt lat="43.5549073" lon="12.2894412"><ele>720.0</ele><time>2026-04-11T14:46:34.6Z</time></trkpt><trkpt lat="43.5548156" lon="12.2894622"><ele>720.0</ele><time>2026-04-11T14:46:36.6Z</time></trkpt><trkpt lat="43.5547135" lon="12.2894622"><ele>720.0</ele><time>2026-04-11T14:46:38.6Z</time></trkpt><trkpt lat="43.5546282" lon="12.2894143"><ele>720.0</ele><time>2026-04-11T14:46:40.6Z</time></trkpt><trkpt lat="43.5545897" lon="12.2893258"><ele>720.0</ele><time>2026-04-11T14:46:42.6Z</time></trkpt><trkpt lat="43.5545388" lon="12.2892744"><ele>720.0</ele><time>2026-04-11T14:46:44.6Z</time></trkpt><trkpt lat="43.554484" lon="12.289189"><ele>720.0</ele><time>2026-04-11T14:46:47.599Z</time></trkpt><trkpt lat="43.554424" lon="12.2891159"><ele>720.0</ele><time>2026-04-11T14:46:50.6Z</time></trkpt><trkpt lat="43.5543644" lon="12.289016"><ele>720.0</ele><time>2026-04-11T14:46:52.599Z</time></trkpt><trkpt lat="43.5542784" lon="12.2889371"><ele>720.0</ele><time>2026-04-11T14:46:54.598Z</time></trkpt><trkpt lat="43.5541823" lon="12.288886"><ele>721.25</ele><time>2026-04-11T14:46:56.6Z</time></trkpt><trkpt lat="43.5540732" lon="12.2888488"><ele>722.5</ele><time>2026-04-11T14:46:58.599Z</time></trkpt><trkpt lat="43.5539539" lon="12.2887763"><ele>723.75</ele><time>2026-04-11T14:46:59.6Z</time></trkpt><trkpt lat="43.5538758" lon="12.2887231"><ele>725.0</ele><time>2026-04-11T14:47:00.6Z</time></trkpt><trkpt lat="43.5537258" lon="12.2886984"><ele>726.2</ele><time>2026-04-11T14:47:01.6Z</time></trkpt><trkpt lat="43.5536209" lon="12.2886572"><ele>727.4</ele><time>2026-04-11T14:47:02.6Z</time></trkpt><trkpt lat="43.5535184" lon="12.2886136"><ele>728.5999999999999</ele><time>2026-04-11T14:47:03.599Z</time></trkpt><trkpt lat="43.553435" lon="12.2885824"><ele>729.8</ele><time>2026-04-11T14:47:04.599Z</time></trkpt><trkpt lat="43.5533308" lon="12.2885782"><ele>731.0</ele><time>2026-04-11T14:47:05.6Z</time></trkpt><trkpt lat="43.5532281" lon="12.2885633"><ele>731.0</ele><time>2026-04-11T14:47:06.6Z</time></trkpt><trkpt lat="43.5531102" lon="12.2885465"><ele>731.0</ele><time>2026-04-11T14:47:08.599Z</time></trkpt><trkpt lat="43.5530437" lon="12.2885545"><ele>731.0</ele><time>2026-04-11T14:47:09.6Z</time></trkpt><trkpt lat="43.5529182" lon="12.2885972"><ele>731.0</ele><time>2026-04-11T14:47:11.6Z</time></trkpt><trkpt lat="43.5528545" lon="12.2886157"><ele>731.0</ele><time>2026-04-11T14:47:12.599Z</time></trkpt><trkpt lat="43.5527852" lon="12.288637"><ele>731.1999999999999</ele><time>2026-04-11T14:47:13.598Z</time></trkpt><trkpt lat="43.5527087" lon="12.2886522"><ele>731.4</ele><time>2026-04-11T14:47:14.6Z</time></trkpt><trkpt lat="43.5526231" lon="12.2886984"><ele>731.6</ele><time>2026-04-11T14:47:15.6Z</time></trkpt><trkpt lat="43.5525492" lon="12.2886996"><ele>731.8</ele><time>2026-04-11T14:47:16.6Z</time></trkpt><trkpt lat="43.5524265" lon="12.2886871"><ele>732.0</ele><time>2026-04-11T14:47:18.599Z</time></trkpt><trkpt lat="43.5523101" lon="12.288661"><ele>732.0</ele><time>2026-04-11T14:47:20.6Z</time></trkpt><trkpt lat="43.5521952" lon="12.2886368"><ele>732.0</ele><time>2026-04-11T14:47:22.6Z</time></trkpt><trkpt lat="43.5521263" lon="12.2886326"><ele>732.0</ele><time>2026-04-11T14:47:23.599Z</time></trkpt><trkpt lat="43.5520599" lon="12.2886205"><ele>732.0</ele><time>2026-04-11T14:47:24.6Z</time></trkpt><trkpt lat="43.5519624" lon="12.288599"><ele>732.0</ele><time>2026-04-11T14:47:26.6Z</time></trkpt><trkpt lat="43.5518866" lon="12.2886195"><ele>732.0</ele><time>2026-04-11T14:47:29.6Z</time></trkpt><trkpt lat="43.5517865" lon="12.2886496"><ele>731.8</ele><time>2026-04-11T14:47:31.599Z</time></trkpt><trkpt lat="43.5517269" lon="12.288682"><ele>731.6</ele><time>2026-04-11T14:47:32.599Z</time></trkpt><trkpt lat="43.5516153" lon="12.2887144"><ele>731.4</ele><time>2026-04-11T14:47:34.6Z</time></trkpt><trkpt lat="43.5515091" lon="12.288717"><ele>731.1999999999999</ele><time>2026-04-11T14:47:36.6Z</time></trkpt><trkpt lat="43.5514147" lon="12.2886498"><ele>731.0</ele><time>2026-04-11T14:47:38.599Z</time></trkpt><trkpt lat="43.5512792" lon="12.2886316"><ele>731.8571428571429</ele><time>2026-04-11T14:47:40.6Z</time></trkpt><trkpt lat="43.5511984" lon="12.2886382"><ele>732.7142857142857</ele><time>2026-04-11T14:47:41.6Z</time></trkpt><trkpt lat="43.5511291" lon="12.2886104"><ele>733.5714285714287</ele><time>2026-04-11T14:47:42.6Z</time></trkpt><trkpt lat="43.5510686" lon="12.2885775"><ele>734.4285714285714</ele><time>2026-04-11T14:47:43.6Z</time></trkpt><trkpt lat="43.5510088" lon="12.2885363"><ele>735.2857142857143</ele><time>2026-04-11T14:47:44.6Z</time></trkpt><trkpt lat="43.5509494" lon="12.2884903"><ele>736.1428571428572</ele><time>2026-04-11T14:47:45.6Z</time></trkpt><trkpt lat="43.5508762" lon="12.2884275"><ele>737.0</ele><time>2026-04-11T14:47:46.6Z</time></trkpt><trkpt lat="43.5508093" lon="12.2883728"><ele>737.0</ele><time>2026-04-11T14:47:47.6Z</time></trkpt><trkpt lat="43.5507471" lon="12.2883203"><ele>737.0</ele><time>2026-04-11T14:47:48.6Z</time></trkpt><trkpt lat="43.5506596" lon="12.288203"><ele>737.0</ele><time>2026-04-11T14:47:49.6Z</time></trkpt><trkpt lat="43.5506137" lon="12.2881092"><ele>737.0</ele><time>2026-04-11T14:47:50.6Z</time></trkpt><trkpt lat="43.5505752" lon="12.288013"><ele>737.0</ele><time>2026-04-11T14:47:51.599Z</time></trkpt><trkpt lat="43.5505282" lon="12.2879381"><ele>737.0</ele><time>2026-04-11T14:47:52.599Z</time></trkpt><trkpt lat="43.5504303" lon="12.2878143"><ele>736.8333333333333</ele><time>2026-04-11T14:47:54.6Z</time></trkpt><trkpt lat="43.5503541" lon="12.2877525"><ele>736.6666666666666</ele><time>2026-04-11T14:47:55.6Z</time></trkpt><trkpt lat="43.5502543" lon="12.2876741"><ele>736.5</ele><time>2026-04-11T14:47:56.6Z</time></trkpt><trkpt lat="43.5501747" lon="12.2875992"><ele>736.3333333333334</ele><time>2026-04-11T14:47:57.6Z</time></trkpt><trkpt lat="43.5501169" lon="12.2875529"><ele>736.1666666666667</ele><time>2026-04-11T14:47:58.598Z</time></trkpt><trkpt lat="43.5500384" lon="12.2875363"><ele>736.0</ele><time>2026-04-11T14:47:59.6Z</time></trkpt><trkpt lat="43.5499472" lon="12.2875486"><ele>736.0</ele><time>2026-04-11T14:48:00.599Z</time></trkpt><trkpt lat="43.5498609" lon="12.2875143"><ele>736.0</ele><time>2026-04-11T14:48:01.599Z</time></trkpt><trkpt lat="43.549782" lon="12.2874566"><ele>736.0</ele><time>2026-04-11T14:48:02.6Z</time></trkpt><trkpt lat="43.5496873" lon="12.2873705"><ele>736.0</ele><time>2026-04-11T14:48:03.6Z</time></trkpt><trkpt lat="43.5495961" lon="12.2872987"><ele>736.0</ele><time>2026-04-11T14:48:04.6Z</time></trkpt><trkpt lat="43.5495009" lon="12.2872293"><ele>735.1999999999999</ele><time>2026-04-11T14:48:05.6Z</time></trkpt><trkpt lat="43.5494005" lon="12.2871646"><ele>734.4</ele><time>2026-04-11T14:48:06.599Z</time></trkpt><trkpt lat="43.5493215" lon="12.2871213"><ele>733.6</ele><time>2026-04-11T14:48:07.6Z</time></trkpt><trkpt lat="43.5492268" lon="12.2870748"><ele>732.8</ele><time>2026-04-11T14:48:08.6Z</time></trkpt><trkpt lat="43.5491524" lon="12.2870098"><ele>732.0</ele><time>2026-04-11T14:48:09.6Z</time></trkpt><trkpt lat="43.5491216" lon="12.2868849"><ele>732.0</ele><time>2026-04-11T14:48:11.599Z</time></trkpt><trkpt lat="43.5490845" lon="12.2867857"><ele>732.0</ele><time>2026-04-11T14:48:13.599Z</time></trkpt><trkpt lat="43.5490517" lon="12.2866756"><ele>732.0</ele><time>2026-04-11T14:48:15.6Z</time></trkpt><trkpt lat="43.5490415" lon="12.2865889"><ele>732.0</ele><time>2026-04-11T14:48:16.598Z</time></trkpt><trkpt lat="43.5490098" lon="12.2864866"><ele>732.0</ele><time>2026-04-11T14:48:17.6Z</time></trkpt><trkpt lat="43.548978" lon="12.2863078"><ele>732.0</ele><time>2026-04-11T14:48:19.6Z</time></trkpt><trkpt lat="43.5489364" lon="12.2861684"><ele>730.6</ele><time>2026-04-11T14:48:21.599Z</time></trkpt><trkpt lat="43.5489044" lon="12.2860899"><ele>729.2</ele><time>2026-04-11T14:48:22.598Z</time></trkpt><trkpt lat="43.5488628" lon="12.2859721"><ele>727.8</ele><time>2026-04-11T14:48:24.6Z</time></trkpt><trkpt lat="43.5488264" lon="12.2858549"><ele>726.4</ele><time>2026-04-11T14:48:26.6Z</time></trkpt><trkpt lat="43.5488065" lon="12.2857071"><ele>725.0</ele><time>2026-04-11T14:48:28.6Z</time></trkpt><trkpt lat="43.5487679" lon="12.2855486"><ele>723.0</ele><time>2026-04-11T14:48:30.599Z</time></trkpt><trkpt lat="43.548763" lon="12.2854404"><ele>721.0</ele><time>2026-04-11T14:48:31.6Z</time></trkpt><trkpt lat="43.5487624" lon="12.2853531"><ele>719.0</ele><time>2026-04-11T14:48:32.6Z</time></trkpt><trkpt lat="43.5487635" lon="12.2852316"><ele>717.0</ele><time>2026-04-11T14:48:33.6Z</time></trkpt><trkpt lat="43.5487576" lon="12.2851153"><ele>715.0</ele><time>2026-04-11T14:48:34.599Z</time></trkpt><trkpt lat="43.5487084" lon="12.2849324"><ele>714.8571428571429</ele><time>2026-04-11T14:48:36.6Z</time></trkpt><trkpt lat="43.5486664" lon="12.2848358"><ele>714.7142857142857</ele><time>2026-04-11T14:48:37.6Z</time></trkpt><trkpt lat="43.5486108" lon="12.2847496"><ele>714.5714285714286</ele><time>2026-04-11T14:48:38.6Z</time></trkpt><trkpt lat="43.5485636" lon="12.2846818"><ele>714.4285714285714</ele><time>2026-04-11T14:48:39.599Z</time></trkpt><trkpt lat="43.5485119" lon="12.2846065"><ele>714.2857142857142</ele><time>2026-04-11T14:48:40.599Z</time></trkpt><trkpt lat="43.5484649" lon="12.2845423"><ele>714.1428571428571</ele><time>2026-04-11T14:48:41.6Z</time></trkpt><trkpt lat="43.548413" lon="12.2844686"><ele>714.0</ele><time>2026-04-11T14:48:42.6Z</time></trkpt><trkpt lat="43.5483582" lon="12.2843931"><ele>713.5</ele><time>2026-04-11T14:48:43.599Z</time></trkpt><trkpt lat="43.5482832" lon="12.284335"><ele>713.0</ele><time>2026-04-11T14:48:44.598Z</time></trkpt><trkpt lat="43.5482123" lon="12.2842672"><ele>712.5</ele><time>2026-04-11T14:48:45.6Z</time></trkpt><trkpt lat="43.5481727" lon="12.2841763"><ele>712.0</ele><time>2026-04-11T14:48:46.599Z</time></trkpt><trkpt lat="43.5481125" lon="12.2840879"><ele>711.5</ele><time>2026-04-11T14:48:47.599Z</time></trkpt><trkpt lat="43.5480545" lon="12.2840013"><ele>711.0</ele><time>2026-04-11T14:48:48.6Z</time></trkpt><trkpt lat="43.5479218" lon="12.2837916"><ele>712.75</ele><time>2026-04-11T14:48:50.599Z</time></trkpt><trkpt lat="43.547841" lon="12.2836861"><ele>714.5</ele><time>2026-04-11T14:48:51.6Z</time></trkpt><trkpt lat="43.5477697" lon="12.2835756"><ele>716.25</ele><time>2026-04-11T14:48:52.6Z</time></trkpt><trkpt lat="43.5476859" lon="12.2834732"><ele>718.0</ele><time>2026-04-11T14:48:53.6Z</time></trkpt><trkpt lat="43.5475862" lon="12.2833389"><ele>718.0</ele><time>2026-04-11T14:48:54.6Z</time></trkpt><trkpt lat="43.5475096" lon="12.2832438"><ele>718.0</ele><time>2026-04-11T14:48:55.6Z</time></trkpt><trkpt lat="43.5474537" lon="12.2831855"><ele>718.0</ele><time>2026-04-11T14:48:56.599Z</time></trkpt><trkpt lat="43.5473899" lon="12.28312"><ele>718.0</ele><time>2026-04-11T14:48:57.6Z</time></trkpt><trkpt lat="43.5472994" lon="12.2831348"><ele>718.0</ele><time>2026-04-11T14:48:58.6Z</time></trkpt><trkpt lat="43.5472309" lon="12.2831041"><ele>718.0</ele><time>2026-04-11T14:48:59.6Z</time></trkpt><trkpt lat="43.5471496" lon="12.283062"><ele>719.3333333333334</ele><time>2026-04-11T14:49:00.6Z</time></trkpt><trkpt lat="43.5470848" lon="12.2830035"><ele>720.6666666666667</ele><time>2026-04-11T14:49:01.598Z</time></trkpt><trkpt lat="43.5470112" lon="12.2829455"><ele>722.0</ele><time>2026-04-11T14:49:02.6Z</time></trkpt><trkpt lat="43.5469368" lon="12.2828936"><ele>723.3333333333334</ele><time>2026-04-11T14:49:03.6Z</time></trkpt><trkpt lat="43.5468657" lon="12.2828375"><ele>724.6666666666666</ele><time>2026-04-11T14:49:04.599Z</time></trkpt><trkpt lat="43.5468076" lon="12.2827615"><ele>726.0</ele><time>2026-04-11T14:49:05.6Z</time></trkpt><trkpt lat="43.5467462" lon="12.282704"><ele>725.9999999999999</ele><time>2026-04-11T14:49:06.6Z</time></trkpt><trkpt lat="43.54668" lon="12.2826606"><ele>726.0</ele><time>2026-04-11T14:49:07.6Z</time></trkpt><trkpt lat="43.5466156" lon="12.282633"><ele>726.0</ele><time>2026-04-11T14:49:08.6Z</time></trkpt><trkpt lat="43.546545" lon="12.2825981"><ele>726.0</ele><time>2026-04-11T14:49:09.6Z</time></trkpt><trkpt lat="43.5464828" lon="12.2825502"><ele>726.0</ele><time>2026-04-11T14:49:10.598Z</time></trkpt><trkpt lat="43.5464215" lon="12.2825089"><ele>725.9999999999999</ele><time>2026-04-11T14:49:11.599Z</time></trkpt><trkpt lat="43.546335" lon="12.2824758"><ele>726.0</ele><time>2026-04-11T14:49:12.6Z</time></trkpt><trkpt lat="43.5462535" lon="12.2824308"><ele>726.6666666666666</ele><time>2026-04-11T14:49:13.6Z</time></trkpt><trkpt lat="43.546186" lon="12.2823712"><ele>727.3333333333334</ele><time>2026-04-11T14:49:14.599Z</time></trkpt><trkpt lat="43.5461214" lon="12.2823048"><ele>728.0</ele><time>2026-04-11T14:49:15.6Z</time></trkpt><trkpt lat="43.5460419" lon="12.2821581"><ele>728.6666666666667</ele><time>2026-04-11T14:49:17.6Z</time></trkpt><trkpt lat="43.5459964" lon="12.2820707"><ele>729.3333333333334</ele><time>2026-04-11T14:49:18.599Z</time></trkpt><trkpt lat="43.5459472" lon="12.28199"><ele>730.0</ele><time>2026-04-11T14:49:19.6Z</time></trkpt><trkpt lat="43.5458916" lon="12.2819016"><ele>730.0</ele><time>2026-04-11T14:49:20.599Z</time></trkpt><trkpt lat="43.5458163" lon="12.2818266"><ele>730.0</ele><time>2026-04-11T14:49:21.599Z</time></trkpt><trkpt lat="43.5457505" lon="12.2817592"><ele>730.0</ele><time>2026-04-11T14:49:22.6Z</time></trkpt><trkpt lat="43.5456775" lon="12.2816835"><ele>730.0</ele><time>2026-04-11T14:49:23.599Z</time></trkpt><trkpt lat="43.5455656" lon="12.2816068"><ele>730.0</ele><time>2026-04-11T14:49:24.6Z</time></trkpt><trkpt lat="43.5454726" lon="12.281587"><ele>730.0</ele><time>2026-04-11T14:49:25.6Z</time></trkpt><trkpt lat="43.545391" lon="12.2815284"><ele>730.0</ele><time>2026-04-11T14:49:26.6Z</time></trkpt><trkpt lat="43.5452835" lon="12.2814599"><ele>730.0</ele><time>2026-04-11T14:49:27.599Z</time></trkpt><trkpt lat="43.5452118" lon="12.2814356"><ele>730.0</ele><time>2026-04-11T14:49:28.6Z</time></trkpt><trkpt lat="43.5451474" lon="12.2814193"><ele>730.0</ele><time>2026-04-11T14:49:29.6Z</time></trkpt><trkpt lat="43.545085" lon="12.2813681"><ele>730.0</ele><time>2026-04-11T14:49:30.6Z</time></trkpt><trkpt lat="43.5449806" lon="12.2812908"><ele>728.1666666666667</ele><time>2026-04-11T14:49:32.6Z</time></trkpt><trkpt lat="43.5449031" lon="12.2812315"><ele>726.3333333333334</ele><time>2026-04-11T14:49:33.6Z</time></trkpt><trkpt lat="43.5448332" lon="12.2811778"><ele>724.5</ele><time>2026-04-11T14:49:34.6Z</time></trkpt><trkpt lat="43.5447758" lon="12.2811365"><ele>722.6666666666666</ele><time>2026-04-11T14:49:35.6Z</time></trkpt><trkpt lat="43.5446916" lon="12.2811108"><ele>720.8333333333333</ele><time>2026-04-11T14:49:37.6Z</time></trkpt><trkpt lat="43.5446358" lon="12.2810138"><ele>719.0</ele><time>2026-04-11T14:49:39.6Z</time></trkpt><trkpt lat="43.5446144" lon="12.280838"><ele>718.9999999999999</ele><time>2026-04-11T14:49:41.6Z</time></trkpt><trkpt lat="43.5445913" lon="12.2807494"><ele>719.0</ele><time>2026-04-11T14:49:42.6Z</time></trkpt><trkpt lat="43.5445666" lon="12.2806622"><ele>719.0</ele><time>2026-04-11T14:49:43.6Z</time></trkpt><trkpt lat="43.544517" lon="12.2805807"><ele>719.0</ele><time>2026-04-11T14:49:44.599Z</time></trkpt><trkpt lat="43.5444654" lon="12.280519"><ele>719.0</ele><time>2026-04-11T14:49:45.6Z</time></trkpt><trkpt lat="43.5443981" lon="12.2804689"><ele>718.9999999999999</ele><time>2026-04-11T14:49:46.599Z</time></trkpt><trkpt lat="43.5443344" lon="12.2804113"><ele>719.0</ele><time>2026-04-11T14:49:47.599Z</time></trkpt><trkpt lat="43.5442719" lon="12.2803571"><ele>718.6666666666666</ele><time>2026-04-11T14:49:48.6Z</time></trkpt><trkpt lat="43.5442147" lon="12.2803086"><ele>718.3333333333333</ele><time>2026-04-11T14:49:49.599Z</time></trkpt><trkpt lat="43.5441538" lon="12.2802632"><ele>718.0</ele><time>2026-04-11T14:49:50.599Z</time></trkpt><trkpt lat="43.5440865" lon="12.2801627"><ele>717.6666666666666</ele><time>2026-04-11T14:49:51.6Z</time></trkpt><trkpt lat="43.5440281" lon="12.2800541"><ele>717.3333333333334</ele><time>2026-04-11T14:49:52.6Z</time></trkpt><trkpt lat="43.543969" lon="12.2799703"><ele>717.0</ele><time>2026-04-11T14:49:53.599Z</time></trkpt><trkpt lat="43.5439099" lon="12.2798734"><ele>717.0</ele><time>2026-04-11T14:49:54.599Z</time></trkpt><trkpt lat="43.5438661" lon="12.2797682"><ele>717.0</ele><time>2026-04-11T14:49:55.6Z</time></trkpt><trkpt lat="43.5438188" lon="12.279652"><ele>717.0</ele><time>2026-04-11T14:49:56.599Z</time></trkpt><trkpt lat="43.5437764" lon="12.2795358"><ele>717.0</ele><time>2026-04-11T14:49:57.6Z</time></trkpt><trkpt lat="43.5437271" lon="12.2794162"><ele>717.0</ele><time>2026-04-11T14:49:58.599Z</time></trkpt><trkpt lat="43.5436726" lon="12.279281"><ele>718.2</ele><time>2026-04-11T14:49:59.6Z</time></trkpt><trkpt lat="43.5436558" lon="12.2791742"><ele>719.4000000000001</ele><time>2026-04-11T14:50:00.599Z</time></trkpt><trkpt lat="43.5436318" lon="12.2790606"><ele>720.5999999999999</ele><time>2026-04-11T14:50:01.6Z</time></trkpt><trkpt lat="43.5436318" lon="12.2789652"><ele>721.8</ele><time>2026-04-11T14:50:02.599Z</time></trkpt><trkpt lat="43.543646" lon="12.2788238"><ele>723.0</ele><time>2026-04-11T14:50:05.6Z</time></trkpt><trkpt lat="43.543646" lon="12.2786375"><ele>723.0</ele><time>2026-04-11T14:50:07.6Z</time></trkpt><trkpt lat="43.5435632" lon="12.2784651"><ele>723.0</ele><time>2026-04-11T14:50:09.6Z</time></trkpt><trkpt lat="43.5435329" lon="12.278376"><ele>723.0</ele><time>2026-04-11T14:50:10.6Z</time></trkpt><trkpt lat="43.5434768" lon="12.2782755"><ele>723.0</ele><time>2026-04-11T14:50:11.599Z</time></trkpt><trkpt lat="43.543423" lon="12.2781376"><ele>723.0</ele><time>2026-04-11T14:50:12.6Z</time></trkpt><trkpt lat="43.5433765" lon="12.2780054"><ele>721.5999999999999</ele><time>2026-04-11T14:50:13.6Z</time></trkpt><trkpt lat="43.5433321" lon="12.2778856"><ele>720.1999999999999</ele><time>2026-04-11T14:50:14.6Z</time></trkpt><trkpt lat="43.5432914" lon="12.2777653"><ele>718.8</ele><time>2026-04-11T14:50:15.6Z</time></trkpt><trkpt lat="43.5432719" lon="12.2776419"><ele>717.4</ele><time>2026-04-11T14:50:16.6Z</time></trkpt><trkpt lat="43.5432387" lon="12.2775314"><ele>716.0</ele><time>2026-04-11T14:50:17.6Z</time></trkpt><trkpt lat="43.5432022" lon="12.2774306"><ele>716.0</ele><time>2026-04-11T14:50:18.599Z</time></trkpt><trkpt lat="43.543162" lon="12.2773415"><ele>716.0</ele><time>2026-04-11T14:50:19.599Z</time></trkpt><trkpt lat="43.5431048" lon="12.2772842"><ele>716.0</ele><time>2026-04-11T14:50:20.6Z</time></trkpt><trkpt lat="43.5430525" lon="12.2772305"><ele>716.0</ele><time>2026-04-11T14:50:21.6Z</time></trkpt><trkpt lat="43.5430025" lon="12.2771678"><ele>716.0</ele><time>2026-04-11T14:50:22.6Z</time></trkpt><trkpt lat="43.5429852" lon="12.2770325"><ele>716.0</ele><time>2026-04-11T14:50:24.6Z</time></trkpt><trkpt lat="43.5429983" lon="12.2768876"><ele>714.5</ele><time>2026-04-11T14:50:26.598Z</time></trkpt><trkpt lat="43.5429954" lon="12.2767727"><ele>713.0</ele><time>2026-04-11T14:50:28.6Z</time></trkpt><trkpt lat="43.5429902" lon="12.2766767"><ele>711.5</ele><time>2026-04-11T14:50:31.599Z</time></trkpt><trkpt lat="43.5430448" lon="12.2766021"><ele>710.0</ele><time>2026-04-11T14:50:35.6Z</time></trkpt><trkpt lat="43.5430738" lon="12.2764856"><ele>708.5</ele><time>2026-04-11T14:50:38.6Z</time></trkpt><trkpt lat="43.5430438" lon="12.2763758"><ele>707.0</ele><time>2026-04-11T14:50:39.6Z</time></trkpt><trkpt lat="43.5430126" lon="12.2761872"><ele>706.0</ele><time>2026-04-11T14:50:42.6Z</time></trkpt><trkpt lat="43.5429913" lon="12.2760984"><ele>705.0</ele><time>2026-04-11T14:50:44.6Z</time></trkpt><trkpt lat="43.542917" lon="12.2760846"><ele>704.0</ele><time>2026-04-11T14:51:57.599Z</time></trkpt><trkpt lat="43.5428763" lon="12.2759937"><ele>703.0</ele><time>2026-04-11T14:51:58.6Z</time></trkpt><trkpt lat="43.5427917" lon="12.2758754"><ele>702.0</ele><time>2026-04-11T14:52:00.6Z</time></trkpt><trkpt lat="43.5427133" lon="12.2757705"><ele>702.0</ele><time>2026-04-11T14:52:02.6Z</time></trkpt><trkpt lat="43.5426236" lon="12.2756441"><ele>702.0</ele><time>2026-04-11T14:52:04.599Z</time></trkpt><trkpt lat="43.5425762" lon="12.2755665"><ele>702.0</ele><time>2026-04-11T14:52:05.6Z</time></trkpt><trkpt lat="43.5425387" lon="12.2754851"><ele>702.0</ele><time>2026-04-11T14:52:06.6Z</time></trkpt><trkpt lat="43.5425144" lon="12.275396"><ele>702.0</ele><time>2026-04-11T14:52:07.6Z</time></trkpt><trkpt lat="43.5425025" lon="12.2752995"><ele>702.0</ele><time>2026-04-11T14:52:08.6Z</time></trkpt><trkpt lat="43.5424824" lon="12.2752107"><ele>700.8333333333334</ele><time>2026-04-11T14:52:09.6Z</time></trkpt><trkpt lat="43.5424645" lon="12.2751245"><ele>699.6666666666666</ele><time>2026-04-11T14:52:10.599Z</time></trkpt><trkpt lat="43.5424362" lon="12.2750361"><ele>698.5</ele><time>2026-04-11T14:52:11.6Z</time></trkpt><trkpt lat="43.5423994" lon="12.2749266"><ele>697.3333333333333</ele><time>2026-04-11T14:52:12.6Z</time></trkpt><trkpt lat="43.5423677" lon="12.2748206"><ele>696.1666666666666</ele><time>2026-04-11T14:52:13.6Z</time></trkpt><trkpt lat="43.5423343" lon="12.2747255"><ele>695.0</ele><time>2026-04-11T14:52:14.6Z</time></trkpt><trkpt lat="43.5423003" lon="12.2746341"><ele>692.8333333333333</ele><time>2026-04-11T14:52:15.6Z</time></trkpt><trkpt lat="43.5422683" lon="12.2745496"><ele>690.6666666666666</ele><time>2026-04-11T14:52:16.6Z</time></trkpt><trkpt lat="43.5422277" lon="12.2744547"><ele>688.5</ele><time>2026-04-11T14:52:17.6Z</time></trkpt><trkpt lat="43.5422174" lon="12.2743494"><ele>686.3333333333334</ele><time>2026-04-11T14:52:18.599Z</time></trkpt><trkpt lat="43.5421957" lon="12.2742523"><ele>684.1666666666667</ele><time>2026-04-11T14:52:19.599Z</time></trkpt><trkpt lat="43.5421576" lon="12.2741586"><ele>682.0</ele><time>2026-04-11T14:52:20.599Z</time></trkpt><trkpt lat="43.5421132" lon="12.2740802"><ele>682.0</ele><time>2026-04-11T14:52:21.6Z</time></trkpt><trkpt lat="43.5420673" lon="12.2740155"><ele>682.0</ele><time>2026-04-11T14:52:22.6Z</time></trkpt><trkpt lat="43.5419582" lon="12.2739149"><ele>682.0</ele><time>2026-04-11T14:52:24.6Z</time></trkpt><trkpt lat="43.5418567" lon="12.2738452"><ele>682.0</ele><time>2026-04-11T14:52:26.6Z</time></trkpt><trkpt lat="43.5417408" lon="12.2737827"><ele>682.0</ele><time>2026-04-11T14:52:28.6Z</time></trkpt><trkpt lat="43.5416764" lon="12.2737569"><ele>683.5</ele><time>2026-04-11T14:52:29.6Z</time></trkpt><trkpt lat="43.5416111" lon="12.2737368"><ele>685.0</ele><time>2026-04-11T14:52:30.6Z</time></trkpt><trkpt lat="43.5415434" lon="12.273712"><ele>686.5</ele><time>2026-04-11T14:52:31.6Z</time></trkpt><trkpt lat="43.5414717" lon="12.2736732"><ele>688.0</ele><time>2026-04-11T14:52:32.6Z</time></trkpt><trkpt lat="43.5414012" lon="12.2736294"><ele>689.5</ele><time>2026-04-11T14:52:33.6Z</time></trkpt><trkpt lat="43.5413266" lon="12.2735917"><ele>691.0</ele><time>2026-04-11T14:52:34.6Z</time></trkpt><trkpt lat="43.5412483" lon="12.2735678"><ele>692.6666666666667</ele><time>2026-04-11T14:52:35.6Z</time></trkpt><trkpt lat="43.5411684" lon="12.2735486"><ele>694.3333333333334</ele><time>2026-04-11T14:52:36.6Z</time></trkpt><trkpt lat="43.5410893" lon="12.2735317"><ele>696.0</ele><time>2026-04-11T14:52:37.599Z</time></trkpt><trkpt lat="43.5410091" lon="12.2735171"><ele>697.6666666666666</ele><time>2026-04-11T14:52:38.6Z</time></trkpt><trkpt lat="43.5409322" lon="12.2734906"><ele>699.3333333333333</ele><time>2026-04-11T14:52:39.6Z</time></trkpt><trkpt lat="43.5408545" lon="12.2734727"><ele>701.0</ele><time>2026-04-11T14:52:40.6Z</time></trkpt><trkpt lat="43.5407786" lon="12.2734602"><ele>701.0</ele><time>2026-04-11T14:52:41.6Z</time></trkpt><trkpt lat="43.5407037" lon="12.2734417"><ele>701.0</ele><time>2026-04-11T14:52:42.6Z</time></trkpt><trkpt lat="43.540633" lon="12.2734153"><ele>701.0</ele><time>2026-04-11T14:52:43.6Z</time></trkpt><trkpt lat="43.5405706" lon="12.2733795"><ele>701.0</ele><time>2026-04-11T14:52:44.6Z</time></trkpt><trkpt lat="43.5405134" lon="12.2733295"><ele>701.0</ele><time>2026-04-11T14:52:45.6Z</time></trkpt><trkpt lat="43.5404514" lon="12.2732813"><ele>701.0</ele><time>2026-04-11T14:52:46.6Z</time></trkpt><trkpt lat="43.5403892" lon="12.2732265"><ele>701.0</ele><time>2026-04-11T14:52:47.6Z</time></trkpt><trkpt lat="43.5403424" lon="12.2731559"><ele>700.3333333333333</ele><time>2026-04-11T14:52:48.599Z</time></trkpt><trkpt lat="43.5402909" lon="12.2730717"><ele>699.6666666666666</ele><time>2026-04-11T14:52:49.6Z</time></trkpt><trkpt lat="43.5402393" lon="12.272985"><ele>699.0</ele><time>2026-04-11T14:52:50.6Z</time></trkpt><trkpt lat="43.5401914" lon="12.2728959"><ele>698.3333333333334</ele><time>2026-04-11T14:52:51.6Z</time></trkpt><trkpt lat="43.5401375" lon="12.2728034"><ele>697.6666666666667</ele><time>2026-04-11T14:52:52.6Z</time></trkpt><trkpt lat="43.5400804" lon="12.2727098"><ele>697.0</ele><time>2026-04-11T14:52:53.6Z</time></trkpt><trkpt lat="43.5400291" lon="12.2726012"><ele>697.0</ele><time>2026-04-11T14:52:54.6Z</time></trkpt><trkpt lat="43.539981" lon="12.2724954"><ele>697.0</ele><time>2026-04-11T14:52:55.6Z</time></trkpt><trkpt lat="43.5399331" lon="12.2723902"><ele>697.0</ele><time>2026-04-11T14:52:56.6Z</time></trkpt><trkpt lat="43.5398893" lon="12.2723034"><ele>697.0</ele><time>2026-04-11T14:52:57.6Z</time></trkpt><trkpt lat="43.5398411" lon="12.2722082"><ele>697.0</ele><time>2026-04-11T14:52:58.6Z</time></trkpt><trkpt lat="43.5397975" lon="12.2721242"><ele>697.0</ele><time>2026-04-11T14:52:59.599Z</time></trkpt><trkpt lat="43.5397554" lon="12.2720209"><ele>698.3333333333334</ele><time>2026-04-11T14:53:00.598Z</time></trkpt><trkpt lat="43.5397194" lon="12.2719202"><ele>699.6666666666667</ele><time>2026-04-11T14:53:01.599Z</time></trkpt><trkpt lat="43.5396869" lon="12.2717932"><ele>701.0</ele><time>2026-04-11T14:53:02.6Z</time></trkpt><trkpt lat="43.5396531" lon="12.271662"><ele>702.3333333333334</ele><time>2026-04-11T14:53:03.6Z</time></trkpt><trkpt lat="43.5396128" lon="12.2715417"><ele>703.6666666666666</ele><time>2026-04-11T14:53:04.599Z</time></trkpt><trkpt lat="43.5396004" lon="12.2714491"><ele>705.0</ele><time>2026-04-11T14:53:05.6Z</time></trkpt><trkpt lat="43.5395691" lon="12.2713279"><ele>699.4</ele><time>2026-04-11T14:53:06.599Z</time></trkpt><trkpt lat="43.5395331" lon="12.2712177"><ele>693.8</ele><time>2026-04-11T14:53:07.6Z</time></trkpt><trkpt lat="43.5394877" lon="12.271114"><ele>688.2</ele><time>2026-04-11T14:53:08.6Z</time></trkpt><trkpt lat="43.5394319" lon="12.2710077"><ele>682.6</ele><time>2026-04-11T14:53:09.6Z</time></trkpt><trkpt lat="43.5393772" lon="12.2708951"><ele>677.0</ele><time>2026-04-11T14:53:10.6Z</time></trkpt><trkpt lat="43.5393308" lon="12.2707823"><ele>677.0</ele><time>2026-04-11T14:53:11.6Z</time></trkpt><trkpt lat="43.5392792" lon="12.2706795"><ele>677.0</ele><time>2026-04-11T14:53:12.6Z</time></trkpt><trkpt lat="43.5392464" lon="12.2705984"><ele>677.0</ele><time>2026-04-11T14:53:13.6Z</time></trkpt><trkpt lat="43.5391909" lon="12.2705051"><ele>677.0</ele><time>2026-04-11T14:53:14.599Z</time></trkpt><trkpt lat="43.5391385" lon="12.2704187"><ele>677.0</ele><time>2026-04-11T14:53:15.599Z</time></trkpt><trkpt lat="43.5390778" lon="12.2703599"><ele>677.0</ele><time>2026-04-11T14:53:16.6Z</time></trkpt><trkpt lat="43.5390731" lon="12.2702605"><ele>676.4000000000001</ele><time>2026-04-11T14:53:17.6Z</time></trkpt><trkpt lat="43.539056" lon="12.2701655"><ele>675.8000000000001</ele><time>2026-04-11T14:53:18.6Z</time></trkpt><trkpt lat="43.53909" lon="12.2700126"><ele>675.2</ele><time>2026-04-11T14:53:19.599Z</time></trkpt><trkpt lat="43.5390962" lon="12.2698989"><ele>674.6</ele><time>2026-04-11T14:53:20.6Z</time></trkpt><trkpt lat="43.5391698" lon="12.269698"><ele>674.0</ele><time>2026-04-11T14:53:22.6Z</time></trkpt><trkpt lat="43.5392035" lon="12.2696228"><ele>674.0</ele><time>2026-04-11T14:53:23.599Z</time></trkpt><trkpt lat="43.5392333" lon="12.269516"><ele>674.0</ele><time>2026-04-11T14:53:24.6Z</time></trkpt><trkpt lat="43.53925" lon="12.2694281"><ele>674.0</ele><time>2026-04-11T14:53:25.6Z</time></trkpt><trkpt lat="43.5392754" lon="12.2693437"><ele>674.0</ele><time>2026-04-11T14:53:26.6Z</time></trkpt><trkpt lat="43.5393018" lon="12.2692549"><ele>674.0</ele><time>2026-04-11T14:53:27.6Z</time></trkpt><trkpt lat="43.5393861" lon="12.269089"><ele>674.0</ele><time>2026-04-11T14:53:29.599Z</time></trkpt><trkpt lat="43.5394141" lon="12.2690072"><ele>671.5</ele><time>2026-04-11T14:53:30.6Z</time></trkpt><trkpt lat="43.5394255" lon="12.2688889"><ele>669.0</ele><time>2026-04-11T14:53:31.6Z</time></trkpt><trkpt lat="43.5394358" lon="12.2687559"><ele>666.5</ele><time>2026-04-11T14:53:32.598Z</time></trkpt><trkpt lat="43.5394629" lon="12.2686583"><ele>664.0</ele><time>2026-04-11T14:53:33.599Z</time></trkpt><trkpt lat="43.5394767" lon="12.2685551"><ele>661.5</ele><time>2026-04-11T14:53:34.6Z</time></trkpt><trkpt lat="43.5394762" lon="12.2684564"><ele>659.0</ele><time>2026-04-11T14:53:35.6Z</time></trkpt><trkpt lat="43.5394743" lon="12.2683059"><ele>659.0</ele><time>2026-04-11T14:53:37.599Z</time></trkpt><trkpt lat="43.5394822" lon="12.2681687"><ele>659.0</ele><time>2026-04-11T14:53:39.6Z</time></trkpt><trkpt lat="43.5394995" lon="12.2680423"><ele>659.0</ele><time>2026-04-11T14:53:41.6Z</time></trkpt><trkpt lat="43.5395191" lon="12.2679231"><ele>659.0</ele><time>2026-04-11T14:53:43.6Z</time></trkpt><trkpt lat="43.5395137" lon="12.2677844"><ele>659.0</ele><time>2026-04-11T14:53:45.6Z</time></trkpt><trkpt lat="43.5394929" lon="12.2676542"><ele>656.1666666666666</ele><time>2026-04-11T14:53:47.599Z</time></trkpt><trkpt lat="43.5394579" lon="12.2675495"><ele>653.3333333333333</ele><time>2026-04-11T14:53:49.6Z</time></trkpt><trkpt lat="43.5394136" lon="12.2674638"><ele>650.5</ele><time>2026-04-11T14:53:51.6Z</time></trkpt><trkpt lat="43.5393706" lon="12.2673918"><ele>647.6666666666666</ele><time>2026-04-11T14:53:53.6Z</time></trkpt><trkpt lat="43.5393238" lon="12.2673234"><ele>644.8333333333334</ele><time>2026-04-11T14:53:55.599Z</time></trkpt><trkpt lat="43.5392885" lon="12.2672223"><ele>642.0</ele><time>2026-04-11T14:53:57.599Z</time></trkpt><trkpt lat="43.5392495" lon="12.2670751"><ele>640.0</ele><time>2026-04-11T14:53:59.6Z</time></trkpt><trkpt lat="43.5391974" lon="12.2669229"><ele>638.0</ele><time>2026-04-11T14:54:01.6Z</time></trkpt><trkpt lat="43.539163" lon="12.2667828"><ele>636.0</ele><time>2026-04-11T14:54:03.6Z</time></trkpt><trkpt lat="43.5391906" lon="12.2666734"><ele>634.0</ele><time>2026-04-11T14:54:05.6Z</time></trkpt><trkpt lat="43.5392494" lon="12.2665772"><ele>632.0</ele><time>2026-04-11T14:54:07.6Z</time></trkpt><trkpt lat="43.5392928" lon="12.2664604"><ele>630.8000000000001</ele><time>2026-04-11T14:54:09.6Z</time></trkpt><trkpt lat="43.5393246" lon="12.2663163"><ele>629.6</ele><time>2026-04-11T14:54:11.6Z</time></trkpt><trkpt lat="43.5393544" lon="12.2661506"><ele>628.4000000000001</ele><time>2026-04-11T14:54:13.599Z</time></trkpt><trkpt lat="43.5393608" lon="12.2660623"><ele>627.2</ele><time>2026-04-11T14:54:14.599Z</time></trkpt><trkpt lat="43.5393829" lon="12.2659044"><ele>626.0</ele><time>2026-04-11T14:54:16.6Z</time></trkpt><trkpt lat="43.539389" lon="12.2657641"><ele>626.0</ele><time>2026-04-11T14:54:18.6Z</time></trkpt><trkpt lat="43.5393946" lon="12.2656745"><ele>626.0</ele><time>2026-04-11T14:54:20.6Z</time></trkpt><trkpt lat="43.5393969" lon="12.265541"><ele>626.0</ele><time>2026-04-11T14:54:23.599Z</time></trkpt><trkpt lat="43.5394133" lon="12.2654319"><ele>626.0</ele><time>2026-04-11T14:54:25.6Z</time></trkpt><trkpt lat="43.5394098" lon="12.2653027"><ele>626.0</ele><time>2026-04-11T14:54:27.6Z</time></trkpt><trkpt lat="43.5393661" lon="12.2651616"><ele>626.0</ele><time>2026-04-11T14:54:29.599Z</time></trkpt><trkpt lat="43.5393232" lon="12.2650232"><ele>624.6</ele><time>2026-04-11T14:54:31.6Z</time></trkpt><trkpt lat="43.5393111" lon="12.2648508"><ele>623.2</ele><time>2026-04-11T14:54:33.6Z</time></trkpt><trkpt lat="43.5393009" lon="12.264756"><ele>621.8</ele><time>2026-04-11T14:54:34.6Z</time></trkpt><trkpt lat="43.5392924" lon="12.264656"><ele>620.4</ele><time>2026-04-11T14:54:35.6Z</time></trkpt><trkpt lat="43.539283" lon="12.2645701"><ele>619.0</ele><time>2026-04-11T14:54:36.6Z</time></trkpt><trkpt lat="43.5392887" lon="12.2643918"><ele>618.8333333333334</ele><time>2026-04-11T14:54:38.598Z</time></trkpt><trkpt lat="43.5392897" lon="12.2642932"><ele>618.6666666666667</ele><time>2026-04-11T14:54:39.6Z</time></trkpt><trkpt lat="43.5392876" lon="12.2641921"><ele>618.5</ele><time>2026-04-11T14:54:40.599Z</time></trkpt><trkpt lat="43.5392897" lon="12.2640978"><ele>618.3333333333334</ele><time>2026-04-11T14:54:41.6Z</time></trkpt><trkpt lat="43.5393248" lon="12.263939"><ele>618.1666666666666</ele><time>2026-04-11T14:54:43.6Z</time></trkpt><trkpt lat="43.5393648" lon="12.2638577"><ele>618.0</ele><time>2026-04-11T14:54:44.599Z</time></trkpt><trkpt lat="43.5394142" lon="12.2637778"><ele>617.0</ele><time>2026-04-11T14:54:45.6Z</time></trkpt><trkpt lat="43.5395069" lon="12.2636652"><ele>616.0</ele><time>2026-04-11T14:54:47.6Z</time></trkpt><trkpt lat="43.5395618" lon="12.2636065"><ele>615.0</ele><time>2026-04-11T14:54:48.599Z</time></trkpt><trkpt lat="43.5396232" lon="12.2635386"><ele>614.0</ele><time>2026-04-11T14:54:49.6Z</time></trkpt><trkpt lat="43.5396815" lon="12.2634695"><ele>613.0</ele><time>2026-04-11T14:54:50.599Z</time></trkpt><trkpt lat="43.5397371" lon="12.2634042"><ele>612.0</ele><time>2026-04-11T14:54:51.6Z</time></trkpt><trkpt lat="43.5397954" lon="12.2632855"><ele>612.0</ele><time>2026-04-11T14:54:53.6Z</time></trkpt><trkpt lat="43.5397914" lon="12.2631511"><ele>612.0</ele><time>2026-04-11T14:54:55.6Z</time></trkpt><trkpt lat="43.5397683" lon="12.2630133"><ele>612.0</ele><time>2026-04-11T14:54:57.599Z</time></trkpt><trkpt lat="43.5397392" lon="12.2628776"><ele>612.0</ele><time>2026-04-11T14:54:59.599Z</time></trkpt><trkpt lat="43.5397212" lon="12.2627083"><ele>612.0</ele><time>2026-04-11T14:55:01.599Z</time></trkpt><trkpt lat="43.5397191" lon="12.2626119"><ele>612.6</ele><time>2026-04-11T14:55:02.6Z</time></trkpt><trkpt lat="43.5397597" lon="12.2625017"><ele>613.2</ele><time>2026-04-11T14:55:04.6Z</time></trkpt><trkpt lat="43.5398028" lon="12.2623545"><ele>613.8</ele><time>2026-04-11T14:55:06.599Z</time></trkpt><trkpt lat="43.5398648" lon="12.2622149"><ele>614.4</ele><time>2026-04-11T14:55:08.599Z</time></trkpt><trkpt lat="43.5398986" lon="12.2621316"><ele>615.0</ele><time>2026-04-11T14:55:09.6Z</time></trkpt><trkpt lat="43.5399424" lon="12.2620517"><ele>615.6666666666666</ele><time>2026-04-11T14:55:10.6Z</time></trkpt><trkpt lat="43.5399945" lon="12.26198"><ele>616.3333333333334</ele><time>2026-04-11T14:55:11.598Z</time></trkpt><trkpt lat="43.5400363" lon="12.2619071"><ele>617.0</ele><time>2026-04-11T14:55:12.6Z</time></trkpt><trkpt lat="43.5400792" lon="12.2618434"><ele>617.6666666666667</ele><time>2026-04-11T14:55:13.6Z</time></trkpt><trkpt lat="43.5401722" lon="12.2617326"><ele>618.3333333333334</ele><time>2026-04-11T14:55:15.6Z</time></trkpt><trkpt lat="43.5402545" lon="12.2616506"><ele>619.0</ele><time>2026-04-11T14:55:17.6Z</time></trkpt><trkpt lat="43.5403212" lon="12.261579"><ele>617.2</ele><time>2026-04-11T14:55:19.599Z</time></trkpt><trkpt lat="43.5403996" lon="12.2615008"><ele>615.4</ele><time>2026-04-11T14:55:21.6Z</time></trkpt><trkpt lat="43.5404889" lon="12.2614509"><ele>613.6</ele><time>2026-04-11T14:55:23.6Z</time></trkpt><trkpt lat="43.540577" lon="12.2614467"><ele>611.8</ele><time>2026-04-11T14:55:25.6Z</time></trkpt><trkpt lat="43.5406695" lon="12.261463"><ele>610.0</ele><time>2026-04-11T14:55:27.6Z</time></trkpt><trkpt lat="43.5407712" lon="12.2614586"><ele>608.8333333333334</ele><time>2026-04-11T14:55:29.599Z</time></trkpt><trkpt lat="43.5408414" lon="12.2613954"><ele>607.6666666666667</ele><time>2026-04-11T14:55:31.6Z</time></trkpt><trkpt lat="43.5409433" lon="12.2613355"><ele>606.5</ele><time>2026-04-11T14:55:33.6Z</time></trkpt><trkpt lat="43.5410056" lon="12.2612985"><ele>605.3333333333334</ele><time>2026-04-11T14:55:35.6Z</time></trkpt><trkpt lat="43.5410209" lon="12.261194"><ele>604.1666666666666</ele><time>2026-04-11T14:55:37.6Z</time></trkpt><trkpt lat="43.5409946" lon="12.2610787"><ele>603.0</ele><time>2026-04-11T14:55:39.599Z</time></trkpt><trkpt lat="43.5409684" lon="12.2609459"><ele>603.0</ele><time>2026-04-11T14:55:41.6Z</time></trkpt><trkpt lat="43.5409691" lon="12.260855"><ele>603.0</ele><time>2026-04-11T14:55:43.599Z</time></trkpt><trkpt lat="43.5409895" lon="12.260755"><ele>603.0</ele><time>2026-04-11T14:55:46.599Z</time></trkpt><trkpt lat="43.5410196" lon="12.260671"><ele>603.0</ele><time>2026-04-11T14:55:48.598Z</time></trkpt><trkpt lat="43.5410753" lon="12.2605272"><ele>603.0</ele><time>2026-04-11T14:55:51.599Z</time></trkpt><trkpt lat="43.5411163" lon="12.2604311"><ele>603.0</ele><time>2026-04-11T14:55:53.6Z</time></trkpt><trkpt lat="43.5411528" lon="12.2603559"><ele>601.0</ele><time>2026-04-11T14:55:55.599Z</time></trkpt><trkpt lat="43.5411707" lon="12.260272"><ele>599.0</ele><time>2026-04-11T14:55:57.6Z</time></trkpt><trkpt lat="43.5411533" lon="12.2601616"><ele>597.0</ele><time>2026-04-11T14:56:00.599Z</time></trkpt><trkpt lat="43.5411916" lon="12.2600272"><ele>595.0</ele><time>2026-04-11T14:56:02.599Z</time></trkpt><trkpt lat="43.5412155" lon="12.2599071"><ele>593.0</ele><time>2026-04-11T14:56:04.599Z</time></trkpt><trkpt lat="43.5412727" lon="12.2597913"><ele>591.0</ele><time>2026-04-11T14:56:06.6Z</time></trkpt><trkpt lat="43.5413562" lon="12.2597582"><ele>589.8333333333334</ele><time>2026-04-11T14:56:08.6Z</time></trkpt><trkpt lat="43.5414201" lon="12.2598129"><ele>588.6666666666666</ele><time>2026-04-11T14:56:10.599Z</time></trkpt><trkpt lat="43.5414586" lon="12.2599022"><ele>587.5</ele><time>2026-04-11T14:56:12.599Z</time></trkpt><trkpt lat="43.5414754" lon="12.2600079"><ele>586.3333333333333</ele><time>2026-04-11T14:56:14.6Z</time></trkpt><trkpt lat="43.541489" lon="12.2601089"><ele>585.1666666666666</ele><time>2026-04-11T14:56:16.599Z</time></trkpt><trkpt lat="43.541494" lon="12.2602388"><ele>584.0</ele><time>2026-04-11T14:56:18.599Z</time></trkpt><trkpt lat="43.5415095" lon="12.2603795"><ele>584.0</ele><time>2026-04-11T14:56:20.599Z</time></trkpt><trkpt lat="43.541532" lon="12.2605176"><ele>584.0</ele><time>2026-04-11T14:56:22.6Z</time></trkpt><trkpt lat="43.5415911" lon="12.2606577"><ele>584.0</ele><time>2026-04-11T14:56:24.6Z</time></trkpt><trkpt lat="43.5416502" lon="12.2607649"><ele>584.0</ele><time>2026-04-11T14:56:26.599Z</time></trkpt><trkpt lat="43.5417148" lon="12.2608033"><ele>584.0</ele><time>2026-04-11T14:56:28.6Z</time></trkpt><trkpt lat="43.5417862" lon="12.2608615"><ele>585.1666666666666</ele><time>2026-04-11T14:56:30.599Z</time></trkpt><trkpt lat="43.5418478" lon="12.2609162"><ele>586.3333333333333</ele><time>2026-04-11T14:56:32.6Z</time></trkpt><trkpt lat="43.54192" lon="12.2609612"><ele>587.5</ele><time>2026-04-11T14:56:34.6Z</time></trkpt><trkpt lat="43.5419993" lon="12.2609896"><ele>588.6666666666666</ele><time>2026-04-11T14:56:36.6Z</time></trkpt><trkpt lat="43.5420786" lon="12.2609806"><ele>589.8333333333334</ele><time>2026-04-11T14:56:38.599Z</time></trkpt><trkpt lat="43.5421609" lon="12.2609655"><ele>591.0</ele><time>2026-04-11T14:56:40.599Z</time></trkpt><trkpt lat="43.5422344" lon="12.2609723"><ele>585.8</ele><time>2026-04-11T14:56:42.6Z</time></trkpt><trkpt lat="43.5422935" lon="12.2610082"><ele>580.6</ele><time>2026-04-11T14:56:43.598Z</time></trkpt><trkpt lat="43.5423999" lon="12.261042"><ele>575.4</ele><time>2026-04-11T14:56:45.598Z</time></trkpt><trkpt lat="43.542505" lon="12.2610779"><ele>570.2</ele><time>2026-04-11T14:56:47.6Z</time></trkpt><trkpt lat="43.5426123" lon="12.2610681"><ele>565.0</ele><time>2026-04-11T14:56:49.598Z</time></trkpt><trkpt lat="43.5427154" lon="12.2610507"><ele>565.0</ele><time>2026-04-11T14:56:51.6Z</time></trkpt><trkpt lat="43.5427776" lon="12.2610361"><ele>565.0</ele><time>2026-04-11T14:56:52.6Z</time></trkpt><trkpt lat="43.5428663" lon="12.2610509"><ele>565.0</ele><time>2026-04-11T14:56:54.599Z</time></trkpt><trkpt lat="43.5429415" lon="12.2610616"><ele>565.0</ele><time>2026-04-11T14:56:56.6Z</time></trkpt><trkpt lat="43.5430179" lon="12.2610569"><ele>565.0</ele><time>2026-04-11T14:56:58.6Z</time></trkpt><trkpt lat="43.5430985" lon="12.2610555"><ele>565.0</ele><time>2026-04-11T14:57:00.6Z</time></trkpt><trkpt lat="43.5431685" lon="12.2610523"><ele>561.6666666666667</ele><time>2026-04-11T14:57:02.6Z</time></trkpt><trkpt lat="43.5432332" lon="12.261038"><ele>558.3333333333334</ele><time>2026-04-11T14:57:04.598Z</time></trkpt><trkpt lat="43.5432363" lon="12.2609178"><ele>555.0</ele><time>2026-04-11T14:57:08.6Z</time></trkpt><trkpt lat="43.5431955" lon="12.2608277"><ele>551.6666666666666</ele><time>2026-04-11T14:57:10.6Z</time></trkpt><trkpt lat="43.5431681" lon="12.2607365"><ele>548.3333333333333</ele><time>2026-04-11T14:57:12.599Z</time></trkpt><trkpt lat="43.5431373" lon="12.2606253"><ele>545.0</ele><time>2026-04-11T14:57:15.6Z</time></trkpt><trkpt lat="43.5430911" lon="12.2605473"><ele>546.0</ele><time>2026-04-11T14:57:17.6Z</time></trkpt><trkpt lat="43.5429984" lon="12.2604973"><ele>547.0</ele><time>2026-04-11T14:57:19.599Z</time></trkpt><trkpt lat="43.5429353" lon="12.2604899"><ele>548.0</ele><time>2026-04-11T14:57:20.6Z</time></trkpt><trkpt lat="43.5428649" lon="12.2604858"><ele>549.0</ele><time>2026-04-11T14:57:21.599Z</time></trkpt><trkpt lat="43.5427996" lon="12.260487"><ele>550.0</ele><time>2026-04-11T14:57:22.6Z</time></trkpt><trkpt lat="43.5427058" lon="12.2604693"><ele>551.0</ele><time>2026-04-11T14:57:24.6Z</time></trkpt><trkpt lat="43.5426264" lon="12.2604093"><ele>551.0</ele><time>2026-04-11T14:57:26.6Z</time></trkpt><trkpt lat="43.5425495" lon="12.260278"><ele>551.0</ele><time>2026-04-11T14:57:28.599Z</time></trkpt><trkpt lat="43.5425828" lon="12.2601779"><ele>551.0</ele><time>2026-04-11T14:57:30.6Z</time></trkpt><trkpt lat="43.5425991" lon="12.260063"><ele>551.0</ele><time>2026-04-11T14:57:32.6Z</time></trkpt><trkpt lat="43.5426275" lon="12.2599368"><ele>551.0</ele><time>2026-04-11T14:57:34.6Z</time></trkpt><trkpt lat="43.5426783" lon="12.2598439"><ele>548.3333333333333</ele><time>2026-04-11T14:57:36.6Z</time></trkpt><trkpt lat="43.5427379" lon="12.2597687"><ele>545.6666666666666</ele><time>2026-04-11T14:57:38.6Z</time></trkpt><trkpt lat="43.5427773" lon="12.2596687"><ele>543.0</ele><time>2026-04-11T14:57:40.599Z</time></trkpt><trkpt lat="43.5427733" lon="12.2595802"><ele>540.3333333333334</ele><time>2026-04-11T14:57:43.6Z</time></trkpt><trkpt lat="43.5427142" lon="12.2594731"><ele>537.6666666666667</ele><time>2026-04-11T14:57:46.6Z</time></trkpt><trkpt lat="43.542656" lon="12.2593962"><ele>535.0</ele><time>2026-04-11T14:57:48.6Z</time></trkpt><trkpt lat="43.5426299" lon="12.2592655"><ele>535.0</ele><time>2026-04-11T14:57:50.6Z</time></trkpt><trkpt lat="43.5426815" lon="12.2592072"><ele>535.0</ele><time>2026-04-11T14:57:51.599Z</time></trkpt><trkpt lat="43.5427121" lon="12.259108"><ele>535.0</ele><time>2026-04-11T14:57:53.6Z</time></trkpt><trkpt lat="43.5427389" lon="12.2590022"><ele>535.0</ele><time>2026-04-11T14:57:55.599Z</time></trkpt><trkpt lat="43.5427659" lon="12.2588897"><ele>535.0</ele><time>2026-04-11T14:57:57.599Z</time></trkpt><trkpt lat="43.5427485" lon="12.2587908"><ele>535.0</ele><time>2026-04-11T14:57:59.6Z</time></trkpt><trkpt lat="43.5427029" lon="12.2587285"><ele>530.1666666666667</ele><time>2026-04-11T14:58:01.598Z</time></trkpt><trkpt lat="43.5426517" lon="12.2586635"><ele>525.3333333333334</ele><time>2026-04-11T14:58:03.599Z</time></trkpt><trkpt lat="43.5425915" lon="12.2585615"><ele>520.5</ele><time>2026-04-11T14:58:05.6Z</time></trkpt><trkpt lat="43.5425216" lon="12.258474"><ele>515.6666666666666</ele><time>2026-04-11T14:58:07.6Z</time></trkpt><trkpt lat="43.5424784" lon="12.2584067"><ele>510.8333333333333</ele><time>2026-04-11T14:58:09.599Z</time></trkpt><trkpt lat="43.542391" lon="12.2583452"><ele>506.0</ele><time>2026-04-11T14:58:11.6Z</time></trkpt><trkpt lat="43.5423037" lon="12.2583224"><ele>505.99999999999994</ele><time>2026-04-11T14:58:13.6Z</time></trkpt><trkpt lat="43.542227" lon="12.2583169"><ele>506.0</ele><time>2026-04-11T14:58:15.6Z</time></trkpt><trkpt lat="43.5421421" lon="12.2583178"><ele>506.0</ele><time>2026-04-11T14:58:17.6Z</time></trkpt><trkpt lat="43.5420689" lon="12.2582935"><ele>506.0</ele><time>2026-04-11T14:58:19.599Z</time></trkpt><trkpt lat="43.5420096" lon="12.2582092"><ele>505.99999999999994</ele><time>2026-04-11T14:58:21.599Z</time></trkpt><trkpt lat="43.541959" lon="12.2581171"><ele>506.0</ele><time>2026-04-11T14:58:23.6Z</time></trkpt><trkpt lat="43.5419045" lon="12.2580508"><ele>507.16666666666663</ele><time>2026-04-11T14:58:25.6Z</time></trkpt><trkpt lat="43.5418612" lon="12.2579627"><ele>508.3333333333333</ele><time>2026-04-11T14:58:27.6Z</time></trkpt><trkpt lat="43.5419158" lon="12.2578966"><ele>509.5</ele><time>2026-04-11T15:00:09.6Z</time></trkpt><trkpt lat="43.5420091" lon="12.2578981"><ele>510.66666666666663</ele><time>2026-04-11T15:00:12.6Z</time></trkpt><trkpt lat="43.5420885" lon="12.2579298"><ele>511.8333333333333</ele><time>2026-04-11T15:00:14.6Z</time></trkpt><trkpt lat="43.542157" lon="12.2579713"><ele>513.0</ele><time>2026-04-11T15:00:16.6Z</time></trkpt><trkpt lat="43.5422289" lon="12.2579634"><ele>506.8333333333333</ele><time>2026-04-11T15:00:19.599Z</time></trkpt><trkpt lat="43.5423059" lon="12.2579287"><ele>500.66666666666663</ele><time>2026-04-11T15:00:22.599Z</time></trkpt><trkpt lat="43.5423837" lon="12.2578977"><ele>494.5</ele><time>2026-04-11T15:00:24.599Z</time></trkpt><trkpt lat="43.5424322" lon="12.2578329"><ele>488.3333333333333</ele><time>2026-04-11T15:00:25.599Z</time></trkpt><trkpt lat="43.5425195" lon="12.257782"><ele>482.16666666666663</ele><time>2026-04-11T15:00:27.6Z</time></trkpt><trkpt lat="43.5426124" lon="12.2577493"><ele>476.0</ele><time>2026-04-11T15:00:29.6Z</time></trkpt><trkpt lat="43.5427086" lon="12.2577695"><ele>476.0</ele><time>2026-04-11T15:00:31.6Z</time></trkpt><trkpt lat="43.5428016" lon="12.2578099"><ele>476.0</ele><time>2026-04-11T15:00:33.599Z</time></trkpt><trkpt lat="43.542906" lon="12.257888"><ele>476.0</ele><time>2026-04-11T15:00:35.6Z</time></trkpt><trkpt lat="43.5429926" lon="12.2579705"><ele>476.0</ele><time>2026-04-11T15:00:37.6Z</time></trkpt><trkpt lat="43.5430176" lon="12.2578847"><ele>476.0</ele><time>2026-04-11T15:00:39.6Z</time></trkpt><trkpt lat="43.542995" lon="12.2577996"><ele>476.0</ele><time>2026-04-11T15:00:41.599Z</time></trkpt><trkpt lat="43.5429315" lon="12.2577089"><ele>476.0</ele><time>2026-04-11T15:00:43.6Z</time></trkpt><trkpt lat="43.5428738" lon="12.2575766"><ele>476.0</ele><time>2026-04-11T15:00:45.6Z</time></trkpt><trkpt lat="43.542825" lon="12.2574995"><ele>476.0</ele><time>2026-04-11T15:00:46.6Z</time></trkpt><trkpt lat="43.5427532" lon="12.2573853"><ele>476.0</ele><time>2026-04-11T15:00:48.599Z</time></trkpt><trkpt lat="43.5426663" lon="12.2572587"><ele>473.99999999999994</ele><time>2026-04-11T15:00:50.599Z</time></trkpt><trkpt lat="43.5425935" lon="12.2571907"><ele>472.0</ele><time>2026-04-11T15:00:52.6Z</time></trkpt><trkpt lat="43.5425394" lon="12.257072"><ele>470.0</ele><time>2026-04-11T15:00:54.598Z</time></trkpt><trkpt lat="43.5425374" lon="12.256957"><ele>468.0</ele><time>2026-04-11T15:00:56.599Z</time></trkpt><trkpt lat="43.542531" lon="12.256835"><ele>465.99999999999994</ele><time>2026-04-11T15:00:58.6Z</time></trkpt><trkpt lat="43.5425599" lon="12.2567219"><ele>464.0</ele><time>2026-04-11T15:01:00.599Z</time></trkpt><trkpt lat="43.5425916" lon="12.2566126"><ele>463.99999999999994</ele><time>2026-04-11T15:01:02.6Z</time></trkpt><trkpt lat="43.5426524" lon="12.2565025"><ele>464.0</ele><time>2026-04-11T15:01:04.599Z</time></trkpt><trkpt lat="43.5427077" lon="12.2563798"><ele>464.0</ele><time>2026-04-11T15:01:06.6Z</time></trkpt><trkpt lat="43.5427359" lon="12.2562826"><ele>464.0</ele><time>2026-04-11T15:01:07.599Z</time></trkpt><trkpt lat="43.5427655" lon="12.256193"><ele>463.99999999999994</ele><time>2026-04-11T15:01:08.6Z</time></trkpt><trkpt lat="43.5427875" lon="12.256111"><ele>464.0</ele><time>2026-04-11T15:01:09.599Z</time></trkpt><trkpt lat="43.5428182" lon="12.2559785"><ele>462.49999999999994</ele><time>2026-04-11T15:01:11.6Z</time></trkpt><trkpt lat="43.5428228" lon="12.255871"><ele>461.0</ele><time>2026-04-11T15:01:13.6Z</time></trkpt><trkpt lat="43.5428519" lon="12.2557584"><ele>459.5</ele><time>2026-04-11T15:01:15.6Z</time></trkpt><trkpt lat="43.5428648" lon="12.2556691"><ele>458.0</ele><time>2026-04-11T15:01:16.6Z</time></trkpt><trkpt lat="43.5428793" lon="12.255551"><ele>456.49999999999994</ele><time>2026-04-11T15:01:17.6Z</time></trkpt><trkpt lat="43.5428917" lon="12.2554561"><ele>455.0</ele><time>2026-04-11T15:01:18.6Z</time></trkpt><trkpt lat="43.5429016" lon="12.255259"><ele>450.49999999999994</ele><time>2026-04-11T15:01:20.6Z</time></trkpt><trkpt lat="43.5429226" lon="12.255155"><ele>446.0</ele><time>2026-04-11T15:01:21.6Z</time></trkpt><trkpt lat="43.5429264" lon="12.2550447"><ele>441.5</ele><time>2026-04-11T15:01:22.599Z</time></trkpt><trkpt lat="43.5429448" lon="12.2549435"><ele>437.0</ele><time>2026-04-11T15:01:23.599Z</time></trkpt><trkpt lat="43.5429423" lon="12.2548434"><ele>432.49999999999994</ele><time>2026-04-11T15:01:24.599Z</time></trkpt><trkpt lat="43.5429395" lon="12.2547317"><ele>428.0</ele><time>2026-04-11T15:01:25.6Z</time></trkpt><trkpt lat="43.5429342" lon="12.2546349"><ele>427.99999999999994</ele><time>2026-04-11T15:01:26.6Z</time></trkpt><trkpt lat="43.5428884" lon="12.2545606"><ele>428.0</ele><time>2026-04-11T15:01:27.6Z</time></trkpt><trkpt lat="43.5428167" lon="12.2544241"><ele>428.0</ele><time>2026-04-11T15:01:29.599Z</time></trkpt><trkpt lat="43.542763" lon="12.2543397"><ele>428.0</ele><time>2026-04-11T15:01:30.6Z</time></trkpt><trkpt lat="43.542725" lon="12.2542569"><ele>427.99999999999994</ele><time>2026-04-11T15:01:31.6Z</time></trkpt><trkpt lat="43.5426867" lon="12.2541768"><ele>428.0</ele><time>2026-04-11T15:01:32.6Z</time></trkpt><trkpt lat="43.5426499" lon="12.2540922"><ele>427.8333333333333</ele><time>2026-04-11T15:01:33.6Z</time></trkpt><trkpt lat="43.5426144" lon="12.2539565"><ele>427.66666666666663</ele><time>2026-04-11T15:01:35.599Z</time></trkpt><trkpt lat="43.5425861" lon="12.2538493"><ele>427.5</ele><time>2026-04-11T15:01:37.599Z</time></trkpt><trkpt lat="43.5425427" lon="12.2537567"><ele>427.33333333333337</ele><time>2026-04-11T15:01:40.6Z</time></trkpt><trkpt lat="43.5425048" lon="12.2536663"><ele>427.1666666666667</ele><time>2026-04-11T15:02:00.598Z</time></trkpt><trkpt lat="43.5424501" lon="12.2535474"><ele>427.0</ele><time>2026-04-11T15:02:03.599Z</time></trkpt><trkpt lat="43.5424232" lon="12.2534599"><ele>425.33333333333337</ele><time>2026-04-11T15:02:05.6Z</time></trkpt><trkpt lat="43.5424342" lon="12.2533458"><ele>423.6666666666667</ele><time>2026-04-11T15:02:07.6Z</time></trkpt><trkpt lat="43.542447" lon="12.2532322"><ele>422.0</ele><time>2026-04-11T15:02:09.599Z</time></trkpt><trkpt lat="43.5425154" lon="12.2532221"><ele>420.33333333333337</ele><time>2026-04-11T15:02:47.599Z</time></trkpt><trkpt lat="43.5426091" lon="12.2531869"><ele>418.6666666666667</ele><time>2026-04-11T15:02:50.599Z</time></trkpt><trkpt lat="43.5426806" lon="12.2531909"><ele>417.0</ele><time>2026-04-11T15:02:52.599Z</time></trkpt><trkpt lat="43.5427542" lon="12.2532351"><ele>417.0</ele><time>2026-04-11T15:02:53.599Z</time></trkpt><trkpt lat="43.5428547" lon="12.2533162"><ele>417.0</ele><time>2026-04-11T15:02:55.599Z</time></trkpt><trkpt lat="43.5429105" lon="12.2533626"><ele>417.0</ele><time>2026-04-11T15:02:56.599Z</time></trkpt><trkpt lat="43.5430024" lon="12.2534595"><ele>417.0</ele><time>2026-04-11T15:02:58.598Z</time></trkpt><trkpt lat="43.5431069" lon="12.2536185"><ele>419.20000000000005</ele><time>2026-04-11T15:03:00.598Z</time></trkpt><trkpt lat="43.5431677" lon="12.2537131"><ele>421.4</ele><time>2026-04-11T15:03:01.599Z</time></trkpt><trkpt lat="43.5432388" lon="12.2538237"><ele>423.59999999999997</ele><time>2026-04-11T15:03:02.598Z</time></trkpt><trkpt lat="43.5433007" lon="12.2539355"><ele>425.79999999999995</ele><time>2026-04-11T15:03:03.599Z</time></trkpt><trkpt lat="43.5433479" lon="12.254046"><ele>428.0</ele><time>2026-04-11T15:03:04.599Z</time></trkpt><trkpt lat="43.5433899" lon="12.254167"><ele>427.99999999999994</ele><time>2026-04-11T15:03:05.599Z</time></trkpt><trkpt lat="43.5434201" lon="12.2542803"><ele>428.0</ele><time>2026-04-11T15:03:06.599Z</time></trkpt><trkpt lat="43.5434461" lon="12.2543775"><ele>428.0</ele><time>2026-04-11T15:03:07.599Z</time></trkpt><trkpt lat="43.5434693" lon="12.2544712"><ele>428.0</ele><time>2026-04-11T15:03:08.599Z</time></trkpt><trkpt lat="43.5435137" lon="12.2545911"><ele>427.99999999999994</ele><time>2026-04-11T15:03:10.598Z</time></trkpt><trkpt lat="43.543559" lon="12.2545014"><ele>428.0</ele><time>2026-04-11T15:03:16.599Z</time></trkpt><trkpt lat="43.5435179" lon="12.2543379"><ele>428.0</ele><time>2026-04-11T15:03:18.599Z</time></trkpt><trkpt lat="43.5435004" lon="12.2542274"><ele>427.99999999999994</ele><time>2026-04-11T15:03:19.598Z</time></trkpt><trkpt lat="43.5434709" lon="12.2540925"><ele>427.99999999999994</ele><time>2026-04-11T15:03:20.598Z</time></trkpt><trkpt lat="43.5434361" lon="12.2539689"><ele>428.0</ele><time>2026-04-11T15:03:21.599Z</time></trkpt><trkpt lat="43.5433951" lon="12.2538393"><ele>428.0</ele><time>2026-04-11T15:03:22.599Z</time></trkpt><trkpt lat="43.5433543" lon="12.2537161"><ele>431.2</ele><time>2026-04-11T15:03:23.599Z</time></trkpt><trkpt lat="43.543309" lon="12.2536013"><ele>434.4</ele><time>2026-04-11T15:03:24.599Z</time></trkpt><trkpt lat="43.5432528" lon="12.2534841"><ele>437.59999999999997</ele><time>2026-04-11T15:03:25.599Z</time></trkpt><trkpt lat="43.5431831" lon="12.2533684"><ele>440.79999999999995</ele><time>2026-04-11T15:03:26.598Z</time></trkpt><trkpt lat="43.5431017" lon="12.2532595"><ele>444.0</ele><time>2026-04-11T15:03:27.599Z</time></trkpt><trkpt lat="43.5430173" lon="12.253166"><ele>439.75</ele><time>2026-04-11T15:03:28.598Z</time></trkpt><trkpt lat="43.5429247" lon="12.2530808"><ele>435.5</ele><time>2026-04-11T15:03:29.599Z</time></trkpt><trkpt lat="43.542826" lon="12.2529971"><ele>431.25</ele><time>2026-04-11T15:03:30.599Z</time></trkpt><trkpt lat="43.5427222" lon="12.2529158"><ele>427.0</ele><time>2026-04-11T15:03:31.599Z</time></trkpt><trkpt lat="43.5426154" lon="12.2528357"><ele>427.0</ele><time>2026-04-11T15:03:32.599Z</time></trkpt><trkpt lat="43.5425107" lon="12.2527692"><ele>427.00000000000006</ele><time>2026-04-11T15:03:33.599Z</time></trkpt><trkpt lat="43.5424143" lon="12.2527025"><ele>427.00000000000006</ele><time>2026-04-11T15:03:34.598Z</time></trkpt><trkpt lat="43.5423424" lon="12.252629"><ele>427.0</ele><time>2026-04-11T15:03:35.599Z</time></trkpt><trkpt lat="43.5422858" lon="12.2525199"><ele>427.0</ele><time>2026-04-11T15:03:36.597Z</time></trkpt><trkpt lat="43.5422519" lon="12.2523725"><ele>429.0</ele><time>2026-04-11T15:03:37.599Z</time></trkpt><trkpt lat="43.5422313" lon="12.2521791"><ele>431.0</ele><time>2026-04-11T15:03:38.599Z</time></trkpt><trkpt lat="43.5422084" lon="12.251944"><ele>433.0</ele><time>2026-04-11T15:03:39.599Z</time></trkpt><trkpt lat="43.5421843" lon="12.2517087"><ele>433.0</ele><time>2026-04-11T15:03:40.599Z</time></trkpt><trkpt lat="43.5421579" lon="12.2515058"><ele>433.0</ele><time>2026-04-11T15:03:41.599Z</time></trkpt><trkpt lat="43.5421336" lon="12.2513261"><ele>433.0</ele><time>2026-04-11T15:03:42.597Z</time></trkpt><trkpt lat="43.5421133" lon="12.2511471"><ele>433.0</ele><time>2026-04-11T15:03:43.599Z</time></trkpt><trkpt lat="43.5421098" lon="12.2509762"><ele>431.0</ele><time>2026-04-11T15:03:44.599Z</time></trkpt><trkpt lat="43.5421265" lon="12.250817"><ele>428.99999999999994</ele><time>2026-04-11T15:03:45.599Z</time></trkpt><trkpt lat="43.5421582" lon="12.2506659"><ele>427.0</ele><time>2026-04-11T15:03:46.599Z</time></trkpt><trkpt lat="43.5421955" lon="12.2505236"><ele>425.0</ele><time>2026-04-11T15:03:47.598Z</time></trkpt><trkpt lat="43.5422204" lon="12.2503779"><ele>423.0</ele><time>2026-04-11T15:03:48.599Z</time></trkpt><trkpt lat="43.5422175" lon="12.250226"><ele>420.25</ele><time>2026-04-11T15:03:49.598Z</time></trkpt><trkpt lat="43.5421833" lon="12.2500717"><ele>417.5</ele><time>2026-04-11T15:03:50.599Z</time></trkpt><trkpt lat="43.5421366" lon="12.2499205"><ele>414.75</ele><time>2026-04-11T15:03:51.599Z</time></trkpt><trkpt lat="43.5420962" lon="12.2497735"><ele>412.0</ele><time>2026-04-11T15:03:52.599Z</time></trkpt><trkpt lat="43.5420586" lon="12.2496183"><ele>409.25</ele><time>2026-04-11T15:03:53.598Z</time></trkpt><trkpt lat="43.5420128" lon="12.2494594"><ele>406.5</ele><time>2026-04-11T15:03:54.599Z</time></trkpt><trkpt lat="43.5419633" lon="12.2492915"><ele>403.75</ele><time>2026-04-11T15:03:55.598Z</time></trkpt><trkpt lat="43.5419175" lon="12.249126"><ele>401.0</ele><time>2026-04-11T15:03:56.598Z</time></trkpt><trkpt lat="43.5418649" lon="12.2489617"><ele>403.5</ele><time>2026-04-11T15:03:57.599Z</time></trkpt><trkpt lat="43.5417965" lon="12.2487935"><ele>406.0</ele><time>2026-04-11T15:03:58.599Z</time></trkpt><trkpt lat="43.5417136" lon="12.2486254"><ele>408.5</ele><time>2026-04-11T15:03:59.598Z</time></trkpt><trkpt lat="43.5416241" lon="12.2484558"><ele>411.0</ele><time>2026-04-11T15:04:00.598Z</time></trkpt><trkpt lat="43.5415287" lon="12.2482791"><ele>416.66666666666663</ele><time>2026-04-11T15:04:01.599Z</time></trkpt><trkpt lat="43.5414323" lon="12.2481059"><ele>422.3333333333333</ele><time>2026-04-11T15:04:02.599Z</time></trkpt><trkpt lat="43.5413388" lon="12.2479341"><ele>428.0</ele><time>2026-04-11T15:04:03.599Z</time></trkpt><trkpt lat="43.5412497" lon="12.2477633"><ele>422.3333333333333</ele><time>2026-04-11T15:04:04.599Z</time></trkpt><trkpt lat="43.5411672" lon="12.2475896"><ele>416.66666666666663</ele><time>2026-04-11T15:04:05.6Z</time></trkpt><trkpt lat="43.5410854" lon="12.2474109"><ele>411.0</ele><time>2026-04-11T15:04:06.598Z</time></trkpt><trkpt lat="43.5410003" lon="12.2472266"><ele>411.0</ele><time>2026-04-11T15:04:07.599Z</time></trkpt><trkpt lat="43.5409153" lon="12.2470405"><ele>411.0</ele><time>2026-04-11T15:04:08.6Z</time></trkpt><trkpt lat="43.5408302" lon="12.2468511"><ele>411.0</ele><time>2026-04-11T15:04:09.599Z</time></trkpt><trkpt lat="43.5407476" lon="12.2466613"><ele>411.0</ele><time>2026-04-11T15:04:10.598Z</time></trkpt><trkpt lat="43.5406641" lon="12.2464763"><ele>411.0</ele><time>2026-04-11T15:04:11.599Z</time></trkpt><trkpt lat="43.5405843" lon="12.246301"><ele>411.0</ele><time>2026-04-11T15:04:12.599Z</time></trkpt><trkpt lat="43.5405047" lon="12.2461289"><ele>411.5</ele><time>2026-04-11T15:04:13.599Z</time></trkpt><trkpt lat="43.5404299" lon="12.2459537"><ele>412.0</ele><time>2026-04-11T15:04:14.599Z</time></trkpt><trkpt lat="43.5403531" lon="12.2457775"><ele>412.5</ele><time>2026-04-11T15:04:15.598Z</time></trkpt><trkpt lat="43.5402685" lon="12.2456057"><ele>413.0</ele><time>2026-04-11T15:04:16.599Z</time></trkpt><trkpt lat="43.5401754" lon="12.2454411"><ele>413.0</ele><time>2026-04-11T15:04:17.599Z</time></trkpt><trkpt lat="43.5400764" lon="12.2452818"><ele>413.0</ele><time>2026-04-11T15:04:18.599Z</time></trkpt><trkpt lat="43.5399724" lon="12.2451456"><ele>413.0</ele><time>2026-04-11T15:04:19.599Z</time></trkpt><trkpt lat="43.539867" lon="12.2450221"><ele>413.0</ele><time>2026-04-11T15:04:20.597Z</time></trkpt><trkpt lat="43.539773" lon="12.2448956"><ele>416.5</ele><time>2026-04-11T15:04:21.598Z</time></trkpt><trkpt lat="43.5396929" lon="12.2447513"><ele>420.0</ele><time>2026-04-11T15:04:22.599Z</time></trkpt><trkpt lat="43.539618" lon="12.2445983"><ele>423.5</ele><time>2026-04-11T15:04:23.599Z</time></trkpt><trkpt lat="43.5395447" lon="12.2444417"><ele>427.0</ele><time>2026-04-11T15:04:24.599Z</time></trkpt><trkpt lat="43.5394742" lon="12.2442867"><ele>421.25</ele><time>2026-04-11T15:04:25.599Z</time></trkpt><trkpt lat="43.5394109" lon="12.2441299"><ele>415.5</ele><time>2026-04-11T15:04:26.598Z</time></trkpt><trkpt lat="43.5393552" lon="12.2439707"><ele>409.75</ele><time>2026-04-11T15:04:27.599Z</time></trkpt><trkpt lat="43.5393032" lon="12.2438175"><ele>404.0</ele><time>2026-04-11T15:04:28.599Z</time></trkpt><trkpt lat="43.5392587" lon="12.2436711"><ele>404.0</ele><time>2026-04-11T15:04:29.597Z</time></trkpt><trkpt lat="43.5392134" lon="12.2435388"><ele>404.0</ele><time>2026-04-11T15:04:30.6Z</time></trkpt><trkpt lat="43.5391632" lon="12.2434112"><ele>404.0</ele><time>2026-04-11T15:04:31.598Z</time></trkpt><trkpt lat="43.5391229" lon="12.2432936"><ele>404.0</ele><time>2026-04-11T15:04:32.598Z</time></trkpt><trkpt lat="43.5390863" lon="12.2431846"><ele>404.0</ele><time>2026-04-11T15:04:33.598Z</time></trkpt><trkpt lat="43.5390538" lon="12.2430897"><ele>415.0</ele><time>2026-04-11T15:04:34.599Z</time></trkpt><trkpt lat="43.539023" lon="12.2430108"><ele>415.0</ele><time>2026-04-11T15:04:35.598Z</time></trkpt><trkpt lat="43.5389616" lon="12.2428722"><ele>415.0</ele><time>2026-04-11T15:04:37.599Z</time></trkpt><trkpt lat="43.5389116" lon="12.2427739"><ele>415.0</ele><time>2026-04-11T15:04:39.599Z</time></trkpt><trkpt lat="43.5388415" lon="12.2427868"><ele>415.0</ele><time>2026-04-11T15:04:42.599Z</time></trkpt><trkpt lat="43.538847" lon="12.2429012"><ele>415.0</ele><time>2026-04-11T15:04:45.599Z</time></trkpt></trkseg></trk></gpx>